<?xml version='1.0' encoding='UTF-8'?><gpx version="1.1" creator="JPX - https://github.com/jenetics/jpx" xmlns="http://www.topografix.com/GPX/1/1"><trk><trkseg><trkpt lat="43.7283799" lon="12.6758421"><ele>535.0</ele><time>2026-04-06T07:38:33.002Z</time></trkpt><trkpt lat="43.7283114" lon="12.6758528"><ele>535.0</ele><time>2026-04-06T07:38:34.003Z</time></trkpt><trkpt lat="43.7282293" lon="12.6758513"><ele>535.0</ele><time>2026-04-06T07:38:35.003Z</time></trkpt><trkpt lat="43.728138" lon="12.6758534"><ele>535.0</ele><time>2026-04-06T07:38:36.003Z</time></trkpt><trkpt lat="43.7280474" lon="12.6758564"><ele>535.0</ele><time>2026-04-06T07:38:37.003Z</time></trkpt><trkpt lat="43.72796" lon="12.6758633"><ele>535.0</ele><time>2026-04-06T07:38:38.003Z</time></trkpt><trkpt lat="43.7278867" lon="12.6758667"><ele>535.0</ele><time>2026-04-06T07:38:39.003Z</time></trkpt><trkpt lat="43.7278183" lon="12.67586"><ele>535.0</ele><time>2026-04-06T07:38:40.003Z</time></trkpt><trkpt lat="43.72775" lon="12.6758417"><ele>535.0</ele><time>2026-04-06T07:38:41.003Z</time></trkpt><trkpt lat="43.72765" lon="12.6757617"><ele>535.0</ele><time>2026-04-06T07:38:43.003Z</time></trkpt><trkpt lat="43.727635" lon="12.6756033"><ele>535.0</ele><time>2026-04-06T07:38:45.003Z</time></trkpt><trkpt lat="43.727665" lon="12.675515"><ele>535.0</ele><time>2026-04-06T07:38:46.003Z</time></trkpt><trkpt lat="43.7277483" lon="12.6754067"><ele>535.0</ele><time>2026-04-06T07:38:48.003Z</time></trkpt><trkpt lat="43.7278" lon="12.675325"><ele>535.0</ele><time>2026-04-06T07:38:50.003Z</time></trkpt><trkpt lat="43.7277517" lon="12.6752033"><ele>535.0</ele><time>2026-04-06T07:38:53.003Z</time></trkpt><trkpt lat="43.72768" lon="12.6751583"><ele>535.0</ele><time>2026-04-06T07:38:54.003Z</time></trkpt><trkpt lat="43.7275983" lon="12.6750983"><ele>535.0</ele><time>2026-04-06T07:38:55.003Z</time></trkpt><trkpt lat="43.727505" lon="12.6750433"><ele>532.6666666666667</ele><time>2026-04-06T07:38:56.003Z</time></trkpt><trkpt lat="43.7274067" lon="12.6749967"><ele>530.3333333333334</ele><time>2026-04-06T07:38:57.003Z</time></trkpt><trkpt lat="43.7273133" lon="12.67496"><ele>528.0</ele><time>2026-04-06T07:38:58.003Z</time></trkpt><trkpt lat="43.7272233" lon="12.67492"><ele>525.6666666666666</ele><time>2026-04-06T07:38:59.003Z</time></trkpt><trkpt lat="43.72715" lon="12.674885"><ele>523.3333333333333</ele><time>2026-04-06T07:39:00.003Z</time></trkpt><trkpt lat="43.7271" lon="12.6748217"><ele>521.0</ele><time>2026-04-06T07:39:01.003Z</time></trkpt><trkpt lat="43.7270667" lon="12.6747383"><ele>521.0</ele><time>2026-04-06T07:39:02.002Z</time></trkpt><trkpt lat="43.72705" lon="12.67464"><ele>521.0</ele><time>2026-04-06T07:39:03.003Z</time></trkpt><trkpt lat="43.7270267" lon="12.674555"><ele>521.0</ele><time>2026-04-06T07:39:04.003Z</time></trkpt><trkpt lat="43.7269617" lon="12.674475"><ele>521.0</ele><time>2026-04-06T07:39:06.003Z</time></trkpt><trkpt lat="43.726865" lon="12.674455"><ele>521.0</ele><time>2026-04-06T07:39:08.003Z</time></trkpt><trkpt lat="43.726795" lon="12.674495"><ele>521.0</ele><time>2026-04-06T07:39:09.003Z</time></trkpt><trkpt lat="43.7267017" lon="12.6745717"><ele>516.25</ele><time>2026-04-06T07:39:10.003Z</time></trkpt><trkpt lat="43.726575" lon="12.6746583"><ele>511.5</ele><time>2026-04-06T07:39:11.003Z</time></trkpt><trkpt lat="43.726435" lon="12.674725"><ele>506.75</ele><time>2026-04-06T07:39:12.003Z</time></trkpt><trkpt lat="43.7263117" lon="12.67479"><ele>502.0</ele><time>2026-04-06T07:39:13.003Z</time></trkpt><trkpt lat="43.7261917" lon="12.6748183"><ele>502.0</ele><time>2026-04-06T07:39:14.003Z</time></trkpt><trkpt lat="43.7260833" lon="12.6748233"><ele>502.00000000000006</ele><time>2026-04-06T07:39:15.003Z</time></trkpt><trkpt lat="43.7259917" lon="12.6748067"><ele>502.00000000000006</ele><time>2026-04-06T07:39:16.003Z</time></trkpt><trkpt lat="43.7259" lon="12.67477"><ele>502.0</ele><time>2026-04-06T07:39:17.003Z</time></trkpt><trkpt lat="43.7258017" lon="12.6747133"><ele>502.0</ele><time>2026-04-06T07:39:18.003Z</time></trkpt><trkpt lat="43.7256983" lon="12.67464"><ele>500.6</ele><time>2026-04-06T07:39:19.003Z</time></trkpt><trkpt lat="43.7256" lon="12.67456"><ele>499.20000000000005</ele><time>2026-04-06T07:39:20.003Z</time></trkpt><trkpt lat="43.7255133" lon="12.674485"><ele>497.8</ele><time>2026-04-06T07:39:21.003Z</time></trkpt><trkpt lat="43.7254283" lon="12.6743967"><ele>496.4</ele><time>2026-04-06T07:39:22.003Z</time></trkpt><trkpt lat="43.7253467" lon="12.6742967"><ele>495.0</ele><time>2026-04-06T07:39:23.003Z</time></trkpt><trkpt lat="43.7252767" lon="12.6742117"><ele>495.0</ele><time>2026-04-06T07:39:24.003Z</time></trkpt><trkpt lat="43.7252" lon="12.6741267"><ele>495.0</ele><time>2026-04-06T07:39:25.003Z</time></trkpt><trkpt lat="43.7251167" lon="12.6740633"><ele>495.0</ele><time>2026-04-06T07:39:26.003Z</time></trkpt><trkpt lat="43.72503" lon="12.6740167"><ele>495.0</ele><time>2026-04-06T07:39:27.003Z</time></trkpt><trkpt lat="43.7249517" lon="12.67398"><ele>495.0</ele><time>2026-04-06T07:39:28.003Z</time></trkpt><trkpt lat="43.7248767" lon="12.67394"><ele>495.0</ele><time>2026-04-06T07:39:29.003Z</time></trkpt><trkpt lat="43.7248117" lon="12.67392"><ele>495.0</ele><time>2026-04-06T07:39:30.003Z</time></trkpt><trkpt lat="43.72472" lon="12.6739267"><ele>495.0</ele><time>2026-04-06T07:39:32.003Z</time></trkpt><trkpt lat="43.72464" lon="12.67403"><ele>495.0</ele><time>2026-04-06T07:39:34.003Z</time></trkpt><trkpt lat="43.7246117" lon="12.67422"><ele>495.0</ele><time>2026-04-06T07:39:36.003Z</time></trkpt><trkpt lat="43.7246" lon="12.6743083"><ele>495.0</ele><time>2026-04-06T07:39:37.003Z</time></trkpt><trkpt lat="43.7245683" lon="12.6741833"><ele>495.0</ele><time>2026-04-06T07:39:44.003Z</time></trkpt><trkpt lat="43.7245667" lon="12.67398"><ele>495.0</ele><time>2026-04-06T07:39:46.003Z</time></trkpt><trkpt lat="43.7245683" lon="12.6738517"><ele>495.0</ele><time>2026-04-06T07:39:47.002Z</time></trkpt><trkpt lat="43.7245533" lon="12.6737367"><ele>495.0</ele><time>2026-04-06T07:39:48.002Z</time></trkpt><trkpt lat="43.72454" lon="12.6736067"><ele>495.0</ele><time>2026-04-06T07:39:49.003Z</time></trkpt><trkpt lat="43.7245083" lon="12.673465"><ele>500.0</ele><time>2026-04-06T07:39:50.003Z</time></trkpt><trkpt lat="43.7244433" lon="12.6733217"><ele>505.0</ele><time>2026-04-06T07:39:51.003Z</time></trkpt><trkpt lat="43.7243333" lon="12.673165"><ele>510.0</ele><time>2026-04-06T07:39:52.003Z</time></trkpt><trkpt lat="43.72423" lon="12.67302"><ele>515.0</ele><time>2026-04-06T07:39:53.003Z</time></trkpt><trkpt lat="43.7241267" lon="12.67288"><ele>506.0</ele><time>2026-04-06T07:39:54.003Z</time></trkpt><trkpt lat="43.7240367" lon="12.67273"><ele>497.0</ele><time>2026-04-06T07:39:55.003Z</time></trkpt><trkpt lat="43.723935" lon="12.6725867"><ele>488.0</ele><time>2026-04-06T07:39:56.003Z</time></trkpt><trkpt lat="43.7238467" lon="12.6724567"><ele>479.0</ele><time>2026-04-06T07:39:57.003Z</time></trkpt><trkpt lat="43.72378" lon="12.6723183"><ele>479.0</ele><time>2026-04-06T07:39:58.003Z</time></trkpt><trkpt lat="43.7237267" lon="12.6721567"><ele>479.0</ele><time>2026-04-06T07:39:59.003Z</time></trkpt><trkpt lat="43.72368" lon="12.6719933"><ele>479.0</ele><time>2026-04-06T07:40:00.003Z</time></trkpt><trkpt lat="43.72367" lon="12.6718433"><ele>479.0</ele><time>2026-04-06T07:40:01.003Z</time></trkpt><trkpt lat="43.72369" lon="12.671685"><ele>478.5</ele><time>2026-04-06T07:40:02.003Z</time></trkpt><trkpt lat="43.7237333" lon="12.6715333"><ele>478.0</ele><time>2026-04-06T07:40:03.003Z</time></trkpt><trkpt lat="43.7238017" lon="12.6713917"><ele>477.5</ele><time>2026-04-06T07:40:04.003Z</time></trkpt><trkpt lat="43.7238767" lon="12.6712467"><ele>477.0</ele><time>2026-04-06T07:40:05.003Z</time></trkpt><trkpt lat="43.72395" lon="12.6711183"><ele>474.8</ele><time>2026-04-06T07:40:06.003Z</time></trkpt><trkpt lat="43.72401" lon="12.6709817"><ele>472.6</ele><time>2026-04-06T07:40:07.003Z</time></trkpt><trkpt lat="43.7240667" lon="12.6708467"><ele>470.40000000000003</ele><time>2026-04-06T07:40:08.003Z</time></trkpt><trkpt lat="43.72412" lon="12.6707167"><ele>468.20000000000005</ele><time>2026-04-06T07:40:09.003Z</time></trkpt><trkpt lat="43.7241767" lon="12.6705967"><ele>466.0</ele><time>2026-04-06T07:40:10.003Z</time></trkpt><trkpt lat="43.72422" lon="12.6704833"><ele>466.0</ele><time>2026-04-06T07:40:11.003Z</time></trkpt><trkpt lat="43.7242533" lon="12.6703583"><ele>466.0</ele><time>2026-04-06T07:40:12.003Z</time></trkpt><trkpt lat="43.7242733" lon="12.67022"><ele>466.0</ele><time>2026-04-06T07:40:13.003Z</time></trkpt><trkpt lat="43.72426" lon="12.6700717"><ele>466.0</ele><time>2026-04-06T07:40:14.003Z</time></trkpt><trkpt lat="43.7242267" lon="12.669905"><ele>466.0</ele><time>2026-04-06T07:40:15.003Z</time></trkpt><trkpt lat="43.7241833" lon="12.6697283"><ele>466.0</ele><time>2026-04-06T07:40:16.003Z</time></trkpt><trkpt lat="43.7241417" lon="12.6695467"><ele>466.0</ele><time>2026-04-06T07:40:17.003Z</time></trkpt><trkpt lat="43.72411" lon="12.6693567"><ele>466.0</ele><time>2026-04-06T07:40:18.003Z</time></trkpt><trkpt lat="43.7240917" lon="12.669175"><ele>466.0</ele><time>2026-04-06T07:40:19.003Z</time></trkpt><trkpt lat="43.7240667" lon="12.6689733"><ele>466.0</ele><time>2026-04-06T07:40:20.003Z</time></trkpt><trkpt lat="43.7240383" lon="12.6687717"><ele>466.0</ele><time>2026-04-06T07:40:21.003Z</time></trkpt><trkpt lat="43.7240167" lon="12.66857"><ele>466.0</ele><time>2026-04-06T07:40:22.003Z</time></trkpt><trkpt lat="43.7240033" lon="12.66838"><ele>466.0</ele><time>2026-04-06T07:40:23.003Z</time></trkpt><trkpt lat="43.72396" lon="12.6681967"><ele>469.25</ele><time>2026-04-06T07:40:24.003Z</time></trkpt><trkpt lat="43.723925" lon="12.6680183"><ele>472.5</ele><time>2026-04-06T07:40:25.003Z</time></trkpt><trkpt lat="43.7238767" lon="12.667845"><ele>475.75</ele><time>2026-04-06T07:40:26.003Z</time></trkpt><trkpt lat="43.7238133" lon="12.6676867"><ele>479.0</ele><time>2026-04-06T07:40:27.003Z</time></trkpt><trkpt lat="43.7237467" lon="12.6675267"><ele>475.5</ele><time>2026-04-06T07:40:28.003Z</time></trkpt><trkpt lat="43.7236567" lon="12.6673933"><ele>472.0</ele><time>2026-04-06T07:40:29.003Z</time></trkpt><trkpt lat="43.7235583" lon="12.66728"><ele>468.5</ele><time>2026-04-06T07:40:30.003Z</time></trkpt><trkpt lat="43.7234617" lon="12.667175"><ele>465.0</ele><time>2026-04-06T07:40:31.003Z</time></trkpt><trkpt lat="43.7233517" lon="12.6670883"><ele>465.0</ele><time>2026-04-06T07:40:32.003Z</time></trkpt><trkpt lat="43.7232467" lon="12.6670217"><ele>465.0</ele><time>2026-04-06T07:40:33.003Z</time></trkpt><trkpt lat="43.723155" lon="12.666955"><ele>465.0</ele><time>2026-04-06T07:40:34.003Z</time></trkpt><trkpt lat="43.7230717" lon="12.6668883"><ele>465.0</ele><time>2026-04-06T07:40:35.003Z</time></trkpt><trkpt lat="43.7229983" lon="12.6668267"><ele>465.0</ele><time>2026-04-06T07:40:36.003Z</time></trkpt><trkpt lat="43.7229333" lon="12.6667583"><ele>466.5</ele><time>2026-04-06T07:40:37.003Z</time></trkpt><trkpt lat="43.722885" lon="12.66667"><ele>468.0</ele><time>2026-04-06T07:40:38.003Z</time></trkpt><trkpt lat="43.7228617" lon="12.6665767"><ele>469.5</ele><time>2026-04-06T07:40:39.002Z</time></trkpt><trkpt lat="43.722865" lon="12.6664617"><ele>471.0</ele><time>2026-04-06T07:40:40.003Z</time></trkpt><trkpt lat="43.7228883" lon="12.6663117"><ele>472.5</ele><time>2026-04-06T07:40:41.003Z</time></trkpt><trkpt lat="43.7229033" lon="12.666175"><ele>474.0</ele><time>2026-04-06T07:40:42.003Z</time></trkpt><trkpt lat="43.722895" lon="12.6660567"><ele>474.0</ele><time>2026-04-06T07:40:43.003Z</time></trkpt><trkpt lat="43.7228783" lon="12.6659417"><ele>474.0</ele><time>2026-04-06T07:40:44.003Z</time></trkpt><trkpt lat="43.7228483" lon="12.6658133"><ele>474.0</ele><time>2026-04-06T07:40:45.003Z</time></trkpt><trkpt lat="43.722815" lon="12.6656783"><ele>474.0</ele><time>2026-04-06T07:40:46.003Z</time></trkpt><trkpt lat="43.7227383" lon="12.6655133"><ele>474.0</ele><time>2026-04-06T07:40:47.003Z</time></trkpt><trkpt lat="43.7226633" lon="12.665345"><ele>464.5</ele><time>2026-04-06T07:40:48.003Z</time></trkpt><trkpt lat="43.72261" lon="12.6651883"><ele>455.0</ele><time>2026-04-06T07:40:49.003Z</time></trkpt><trkpt lat="43.722565" lon="12.6650217"><ele>445.5</ele><time>2026-04-06T07:40:50.003Z</time></trkpt><trkpt lat="43.7225417" lon="12.66485"><ele>436.0</ele><time>2026-04-06T07:40:51.003Z</time></trkpt><trkpt lat="43.7225217" lon="12.6646783"><ele>436.0</ele><time>2026-04-06T07:40:52.003Z</time></trkpt><trkpt lat="43.722505" lon="12.664515"><ele>436.0</ele><time>2026-04-06T07:40:53.003Z</time></trkpt><trkpt lat="43.722495" lon="12.6643717"><ele>436.0</ele><time>2026-04-06T07:40:54.003Z</time></trkpt><trkpt lat="43.7225" lon="12.664245"><ele>436.0</ele><time>2026-04-06T07:40:55.003Z</time></trkpt><trkpt lat="43.7225267" lon="12.6641017"><ele>436.0</ele><time>2026-04-06T07:40:56.003Z</time></trkpt><trkpt lat="43.7225783" lon="12.663955"><ele>435.75</ele><time>2026-04-06T07:40:57.003Z</time></trkpt><trkpt lat="43.7226483" lon="12.6638283"><ele>435.5</ele><time>2026-04-06T07:40:58.003Z</time></trkpt><trkpt lat="43.7227233" lon="12.6636667"><ele>435.25</ele><time>2026-04-06T07:40:59.003Z</time></trkpt><trkpt lat="43.722795" lon="12.6635233"><ele>435.0</ele><time>2026-04-06T07:41:00.003Z</time></trkpt><trkpt lat="43.7228633" lon="12.6634133"><ele>435.0</ele><time>2026-04-06T07:41:01.003Z</time></trkpt><trkpt lat="43.722945" lon="12.66335"><ele>435.0</ele><time>2026-04-06T07:41:02.003Z</time></trkpt><trkpt lat="43.7230233" lon="12.663305"><ele>435.0</ele><time>2026-04-06T07:41:03.003Z</time></trkpt><trkpt lat="43.7231067" lon="12.6632867"><ele>435.0</ele><time>2026-04-06T07:41:04.003Z</time></trkpt><trkpt lat="43.7232" lon="12.663305"><ele>435.0</ele><time>2026-04-06T07:41:05.003Z</time></trkpt><trkpt lat="43.7232883" lon="12.6633167"><ele>435.0</ele><time>2026-04-06T07:41:06.003Z</time></trkpt><trkpt lat="43.7233667" lon="12.6633183"><ele>435.0</ele><time>2026-04-06T07:41:07.003Z</time></trkpt><trkpt lat="43.723475" lon="12.6632783"><ele>435.0</ele><time>2026-04-06T07:41:09.003Z</time></trkpt><trkpt lat="43.72352" lon="12.6632067"><ele>435.0</ele><time>2026-04-06T07:41:11.003Z</time></trkpt><trkpt lat="43.7234333" lon="12.6630417"><ele>435.0</ele><time>2026-04-06T07:41:13.003Z</time></trkpt><trkpt lat="43.7233717" lon="12.6629467"><ele>435.0</ele><time>2026-04-06T07:41:14.003Z</time></trkpt><trkpt lat="43.723275" lon="12.6628267"><ele>435.75</ele><time>2026-04-06T07:41:15.003Z</time></trkpt><trkpt lat="43.7231567" lon="12.6626967"><ele>436.5</ele><time>2026-04-06T07:41:16.003Z</time></trkpt><trkpt lat="43.7230717" lon="12.66258"><ele>437.25</ele><time>2026-04-06T07:41:17.003Z</time></trkpt><trkpt lat="43.7229917" lon="12.6624867"><ele>438.0</ele><time>2026-04-06T07:41:18.003Z</time></trkpt><trkpt lat="43.7229533" lon="12.6623917"><ele>438.0</ele><time>2026-04-06T07:41:19.003Z</time></trkpt><trkpt lat="43.72297" lon="12.66223"><ele>437.99999999999994</ele><time>2026-04-06T07:41:21.003Z</time></trkpt><trkpt lat="43.7230083" lon="12.6621567"><ele>437.99999999999994</ele><time>2026-04-06T07:41:22.003Z</time></trkpt><trkpt lat="43.72307" lon="12.66208"><ele>438.0</ele><time>2026-04-06T07:41:23.003Z</time></trkpt><trkpt lat="43.7231433" lon="12.6619917"><ele>438.0</ele><time>2026-04-06T07:41:24.003Z</time></trkpt><trkpt lat="43.72322" lon="12.6618833"><ele>437.59999999999997</ele><time>2026-04-06T07:41:25.003Z</time></trkpt><trkpt lat="43.7232883" lon="12.6617717"><ele>437.19999999999993</ele><time>2026-04-06T07:41:26.003Z</time></trkpt><trkpt lat="43.723355" lon="12.66165"><ele>436.8</ele><time>2026-04-06T07:41:27.003Z</time></trkpt><trkpt lat="43.72342" lon="12.6615367"><ele>436.4</ele><time>2026-04-06T07:41:28.003Z</time></trkpt><trkpt lat="43.7234717" lon="12.6614217"><ele>436.0</ele><time>2026-04-06T07:41:29.003Z</time></trkpt><trkpt lat="43.7235267" lon="12.661315"><ele>436.4</ele><time>2026-04-06T07:41:30.003Z</time></trkpt><trkpt lat="43.7235667" lon="12.6611967"><ele>436.8</ele><time>2026-04-06T07:41:31.003Z</time></trkpt><trkpt lat="43.7236133" lon="12.6610867"><ele>437.19999999999993</ele><time>2026-04-06T07:41:32.003Z</time></trkpt><trkpt lat="43.72365" lon="12.6609483"><ele>437.59999999999997</ele><time>2026-04-06T07:41:33.003Z</time></trkpt><trkpt lat="43.7237067" lon="12.660795"><ele>438.0</ele><time>2026-04-06T07:41:34.003Z</time></trkpt><trkpt lat="43.72377" lon="12.6606367"><ele>438.0</ele><time>2026-04-06T07:41:35.003Z</time></trkpt><trkpt lat="43.72383" lon="12.66048"><ele>438.0</ele><time>2026-04-06T07:41:36.003Z</time></trkpt><trkpt lat="43.72389" lon="12.6603317"><ele>438.0</ele><time>2026-04-06T07:41:37.003Z</time></trkpt><trkpt lat="43.7239517" lon="12.66018"><ele>438.0</ele><time>2026-04-06T07:41:38.003Z</time></trkpt><trkpt lat="43.7240183" lon="12.66005"><ele>433.75</ele><time>2026-04-06T07:41:39.003Z</time></trkpt><trkpt lat="43.7240917" lon="12.659925"><ele>429.5</ele><time>2026-04-06T07:41:40.003Z</time></trkpt><trkpt lat="43.7241733" lon="12.6598"><ele>425.25</ele><time>2026-04-06T07:41:41.003Z</time></trkpt><trkpt lat="43.7242567" lon="12.6596683"><ele>421.0</ele><time>2026-04-06T07:41:42.003Z</time></trkpt><trkpt lat="43.7243333" lon="12.6595317"><ele>422.6</ele><time>2026-04-06T07:41:43.003Z</time></trkpt><trkpt lat="43.7244083" lon="12.659395"><ele>424.20000000000005</ele><time>2026-04-06T07:41:44.003Z</time></trkpt><trkpt lat="43.724475" lon="12.659275"><ele>425.79999999999995</ele><time>2026-04-06T07:41:45.003Z</time></trkpt><trkpt lat="43.7245417" lon="12.65918"><ele>427.4</ele><time>2026-04-06T07:41:46.003Z</time></trkpt><trkpt lat="43.7246" lon="12.6590933"><ele>429.0</ele><time>2026-04-06T07:41:47.003Z</time></trkpt><trkpt lat="43.7246533" lon="12.65901"><ele>429.0</ele><time>2026-04-06T07:41:48.003Z</time></trkpt><trkpt lat="43.7246967" lon="12.6589033"><ele>429.0</ele><time>2026-04-06T07:41:49.003Z</time></trkpt><trkpt lat="43.7247333" lon="12.6587933"><ele>429.0</ele><time>2026-04-06T07:41:50.002Z</time></trkpt><trkpt lat="43.7247667" lon="12.658685"><ele>429.0</ele><time>2026-04-06T07:41:51.003Z</time></trkpt><trkpt lat="43.7248133" lon="12.6585917"><ele>429.0</ele><time>2026-04-06T07:41:52.003Z</time></trkpt><trkpt lat="43.72486" lon="12.65852"><ele>429.0</ele><time>2026-04-06T07:41:53.003Z</time></trkpt><trkpt lat="43.7249467" lon="12.6584433"><ele>426.2</ele><time>2026-04-06T07:41:55.003Z</time></trkpt><trkpt lat="43.7249767" lon="12.6583583"><ele>423.4</ele><time>2026-04-06T07:41:59.003Z</time></trkpt><trkpt lat="43.724905" lon="12.6583533"><ele>420.6</ele><time>2026-04-06T07:42:01.003Z</time></trkpt><trkpt lat="43.72478" lon="12.6584183"><ele>417.8</ele><time>2026-04-06T07:42:03.003Z</time></trkpt><trkpt lat="43.7247033" lon="12.6584833"><ele>415.0</ele><time>2026-04-06T07:42:04.003Z</time></trkpt><trkpt lat="43.7246167" lon="12.6585717"><ele>413.0</ele><time>2026-04-06T07:42:05.002Z</time></trkpt><trkpt lat="43.7245317" lon="12.6586717"><ele>411.0</ele><time>2026-04-06T07:42:06.003Z</time></trkpt><trkpt lat="43.7244367" lon="12.6587467"><ele>409.0</ele><time>2026-04-06T07:42:07.003Z</time></trkpt><trkpt lat="43.72435" lon="12.658845"><ele>407.0</ele><time>2026-04-06T07:42:08.003Z</time></trkpt><trkpt lat="43.724275" lon="12.6589283"><ele>405.0</ele><time>2026-04-06T07:42:09.003Z</time></trkpt><trkpt lat="43.724215" lon="12.6590083"><ele>405.0</ele><time>2026-04-06T07:42:10.003Z</time></trkpt><trkpt lat="43.7241533" lon="12.6590917"><ele>405.0</ele><time>2026-04-06T07:42:11.003Z</time></trkpt><trkpt lat="43.72409" lon="12.659165"><ele>405.0</ele><time>2026-04-06T07:42:12.003Z</time></trkpt><trkpt lat="43.72401" lon="12.659225"><ele>405.0</ele><time>2026-04-06T07:42:13.003Z</time></trkpt><trkpt lat="43.7239183" lon="12.659265"><ele>405.0</ele><time>2026-04-06T07:42:14.003Z</time></trkpt><trkpt lat="43.72381" lon="12.65929"><ele>405.0</ele><time>2026-04-06T07:42:15.003Z</time></trkpt><trkpt lat="43.7237133" lon="12.6593217"><ele>405.0</ele><time>2026-04-06T07:42:16.003Z</time></trkpt><trkpt lat="43.7236033" lon="12.65935"><ele>405.0</ele><time>2026-04-06T07:42:17.003Z</time></trkpt><trkpt lat="43.7234983" lon="12.65938"><ele>405.0</ele><time>2026-04-06T07:42:18.003Z</time></trkpt><trkpt lat="43.723375" lon="12.6594283"><ele>405.0</ele><time>2026-04-06T07:42:19.003Z</time></trkpt><trkpt lat="43.7232417" lon="12.6594883"><ele>405.0</ele><time>2026-04-06T07:42:20.003Z</time></trkpt><trkpt lat="43.7231083" lon="12.659555"><ele>405.0</ele><time>2026-04-06T07:42:21.003Z</time></trkpt><trkpt lat="43.7229867" lon="12.6596117"><ele>405.0</ele><time>2026-04-06T07:42:22.003Z</time></trkpt><trkpt lat="43.7228583" lon="12.6596917"><ele>405.0</ele><time>2026-04-06T07:42:23.003Z</time></trkpt><trkpt lat="43.72274" lon="12.6597617"><ele>401.25</ele><time>2026-04-06T07:42:24.003Z</time></trkpt><trkpt lat="43.7226133" lon="12.6598383"><ele>397.5</ele><time>2026-04-06T07:42:25.003Z</time></trkpt><trkpt lat="43.722495" lon="12.6598983"><ele>393.75</ele><time>2026-04-06T07:42:26.003Z</time></trkpt><trkpt lat="43.7223867" lon="12.6599533"><ele>390.0</ele><time>2026-04-06T07:42:27.003Z</time></trkpt><trkpt lat="43.722285" lon="12.660005"><ele>390.0</ele><time>2026-04-06T07:42:28.003Z</time></trkpt><trkpt lat="43.7221883" lon="12.6600783"><ele>390.0</ele><time>2026-04-06T07:42:29.003Z</time></trkpt><trkpt lat="43.7220917" lon="12.6601633"><ele>390.0</ele><time>2026-04-06T07:42:30.003Z</time></trkpt><trkpt lat="43.722005" lon="12.6602567"><ele>390.0</ele><time>2026-04-06T07:42:31.003Z</time></trkpt><trkpt lat="43.72192" lon="12.660345"><ele>390.0</ele><time>2026-04-06T07:42:32.003Z</time></trkpt><trkpt lat="43.721825" lon="12.6604317"><ele>386.5</ele><time>2026-04-06T07:42:33.003Z</time></trkpt><trkpt lat="43.721725" lon="12.6605267"><ele>383.0</ele><time>2026-04-06T07:42:34.003Z</time></trkpt><trkpt lat="43.72163" lon="12.6606167"><ele>379.5</ele><time>2026-04-06T07:42:35.003Z</time></trkpt><trkpt lat="43.7215467" lon="12.6607133"><ele>376.0</ele><time>2026-04-06T07:42:36.003Z</time></trkpt><trkpt lat="43.7214733" lon="12.6608317"><ele>376.0</ele><time>2026-04-06T07:42:37.003Z</time></trkpt><trkpt lat="43.7213967" lon="12.6609517"><ele>376.0</ele><time>2026-04-06T07:42:38.003Z</time></trkpt><trkpt lat="43.72131" lon="12.66107"><ele>376.0</ele><time>2026-04-06T07:42:39.003Z</time></trkpt><trkpt lat="43.72122" lon="12.66117"><ele>376.0</ele><time>2026-04-06T07:42:40.003Z</time></trkpt><trkpt lat="43.7211267" lon="12.6612667"><ele>373.8</ele><time>2026-04-06T07:42:41.003Z</time></trkpt><trkpt lat="43.72104" lon="12.661365"><ele>371.6</ele><time>2026-04-06T07:42:42.003Z</time></trkpt><trkpt lat="43.72096" lon="12.6614367"><ele>369.4</ele><time>2026-04-06T07:42:43.003Z</time></trkpt><trkpt lat="43.720875" lon="12.6614983"><ele>367.2</ele><time>2026-04-06T07:42:44.003Z</time></trkpt><trkpt lat="43.7207933" lon="12.66156"><ele>365.0</ele><time>2026-04-06T07:42:45.003Z</time></trkpt><trkpt lat="43.72072" lon="12.66162"><ele>365.0</ele><time>2026-04-06T07:42:46.003Z</time></trkpt><trkpt lat="43.720655" lon="12.66169"><ele>365.0</ele><time>2026-04-06T07:42:47.003Z</time></trkpt><trkpt lat="43.7205983" lon="12.66177"><ele>365.0</ele><time>2026-04-06T07:42:48.003Z</time></trkpt><trkpt lat="43.7205483" lon="12.6618667"><ele>365.0</ele><time>2026-04-06T07:42:49.003Z</time></trkpt><trkpt lat="43.7205083" lon="12.66198"><ele>365.0</ele><time>2026-04-06T07:42:50.003Z</time></trkpt><trkpt lat="43.720485" lon="12.6621067"><ele>365.0</ele><time>2026-04-06T07:42:51.003Z</time></trkpt><trkpt lat="43.720455" lon="12.662235"><ele>366.2</ele><time>2026-04-06T07:42:52.003Z</time></trkpt><trkpt lat="43.7204183" lon="12.662365"><ele>367.4</ele><time>2026-04-06T07:42:53.003Z</time></trkpt><trkpt lat="43.72037" lon="12.6624767"><ele>368.6</ele><time>2026-04-06T07:42:54.003Z</time></trkpt><trkpt lat="43.72031" lon="12.6625833"><ele>369.8</ele><time>2026-04-06T07:42:55.003Z</time></trkpt><trkpt lat="43.7202417" lon="12.6626833"><ele>371.0</ele><time>2026-04-06T07:42:56.003Z</time></trkpt><trkpt lat="43.7201733" lon="12.6627917"><ele>365.6</ele><time>2026-04-06T07:42:57.003Z</time></trkpt><trkpt lat="43.7201167" lon="12.6629"><ele>360.20000000000005</ele><time>2026-04-06T07:42:58.003Z</time></trkpt><trkpt lat="43.720065" lon="12.6630183"><ele>354.79999999999995</ele><time>2026-04-06T07:42:59.003Z</time></trkpt><trkpt lat="43.7200167" lon="12.6631283"><ele>349.4</ele><time>2026-04-06T07:43:00.003Z</time></trkpt><trkpt lat="43.71996" lon="12.6632233"><ele>344.0</ele><time>2026-04-06T07:43:01.003Z</time></trkpt><trkpt lat="43.719895" lon="12.6633117"><ele>344.0</ele><time>2026-04-06T07:43:02.003Z</time></trkpt><trkpt lat="43.7198183" lon="12.66337"><ele>344.0</ele><time>2026-04-06T07:43:03.003Z</time></trkpt><trkpt lat="43.71973" lon="12.6634"><ele>344.0</ele><time>2026-04-06T07:43:04.003Z</time></trkpt><trkpt lat="43.7196367" lon="12.6634033"><ele>344.0</ele><time>2026-04-06T07:43:05.003Z</time></trkpt><trkpt lat="43.7195333" lon="12.6634183"><ele>344.0</ele><time>2026-04-06T07:43:06.003Z</time></trkpt><trkpt lat="43.71941" lon="12.66346"><ele>340.75</ele><time>2026-04-06T07:43:07.003Z</time></trkpt><trkpt lat="43.7192817" lon="12.663515"><ele>337.5</ele><time>2026-04-06T07:43:08.003Z</time></trkpt><trkpt lat="43.7191533" lon="12.6635633"><ele>334.25</ele><time>2026-04-06T07:43:09.003Z</time></trkpt><trkpt lat="43.7190333" lon="12.6636183"><ele>331.0</ele><time>2026-04-06T07:43:10.003Z</time></trkpt><trkpt lat="43.718915" lon="12.66367"><ele>331.0</ele><time>2026-04-06T07:43:11.003Z</time></trkpt><trkpt lat="43.7188" lon="12.66371"><ele>331.0</ele><time>2026-04-06T07:43:12.003Z</time></trkpt><trkpt lat="43.7186917" lon="12.66371"><ele>331.0</ele><time>2026-04-06T07:43:13.003Z</time></trkpt><trkpt lat="43.7185767" lon="12.66368"><ele>331.0</ele><time>2026-04-06T07:43:14.003Z</time></trkpt><trkpt lat="43.7184567" lon="12.6636583"><ele>330.25</ele><time>2026-04-06T07:43:15.003Z</time></trkpt><trkpt lat="43.7183417" lon="12.6636517"><ele>329.5</ele><time>2026-04-06T07:43:16.003Z</time></trkpt><trkpt lat="43.7182233" lon="12.6636717"><ele>328.75</ele><time>2026-04-06T07:43:17.003Z</time></trkpt><trkpt lat="43.7181067" lon="12.6637"><ele>328.0</ele><time>2026-04-06T07:43:18.003Z</time></trkpt><trkpt lat="43.7179867" lon="12.6637267"><ele>328.0</ele><time>2026-04-06T07:43:19.003Z</time></trkpt><trkpt lat="43.7178667" lon="12.663745"><ele>328.0</ele><time>2026-04-06T07:43:20.003Z</time></trkpt><trkpt lat="43.7177433" lon="12.6637683"><ele>328.0</ele><time>2026-04-06T07:43:21.003Z</time></trkpt><trkpt lat="43.71762" lon="12.6637967"><ele>328.0</ele><time>2026-04-06T07:43:22.003Z</time></trkpt><trkpt lat="43.7174967" lon="12.6638283"><ele>328.0</ele><time>2026-04-06T07:43:23.003Z</time></trkpt><trkpt lat="43.7173717" lon="12.6638633"><ele>328.0</ele><time>2026-04-06T07:43:24.003Z</time></trkpt><trkpt lat="43.7172467" lon="12.66389"><ele>328.0</ele><time>2026-04-06T07:43:25.003Z</time></trkpt><trkpt lat="43.7171133" lon="12.6639117"><ele>328.0</ele><time>2026-04-06T07:43:26.003Z</time></trkpt><trkpt lat="43.7169733" lon="12.6639117"><ele>329.75</ele><time>2026-04-06T07:43:27.002Z</time></trkpt><trkpt lat="43.71683" lon="12.6639367"><ele>331.5</ele><time>2026-04-06T07:43:28.003Z</time></trkpt><trkpt lat="43.7166967" lon="12.6639617"><ele>333.25</ele><time>2026-04-06T07:43:29.003Z</time></trkpt><trkpt lat="43.7165883" lon="12.6639917"><ele>335.0</ele><time>2026-04-06T07:43:30.003Z</time></trkpt><trkpt lat="43.7164833" lon="12.66401"><ele>335.0</ele><time>2026-04-06T07:43:31.003Z</time></trkpt><trkpt lat="43.71639" lon="12.6640383"><ele>335.0</ele><time>2026-04-06T07:43:32.003Z</time></trkpt><trkpt lat="43.7163083" lon="12.6640867"><ele>335.0</ele><time>2026-04-06T07:43:33.003Z</time></trkpt><trkpt lat="43.7162283" lon="12.6641517"><ele>335.0</ele><time>2026-04-06T07:43:34.003Z</time></trkpt><trkpt lat="43.7161567" lon="12.66425"><ele>335.0</ele><time>2026-04-06T07:43:35.003Z</time></trkpt><trkpt lat="43.7160783" lon="12.66436"><ele>334.5</ele><time>2026-04-06T07:43:36.003Z</time></trkpt><trkpt lat="43.715985" lon="12.6644617"><ele>334.0</ele><time>2026-04-06T07:43:37.003Z</time></trkpt><trkpt lat="43.7158833" lon="12.6645533"><ele>333.5</ele><time>2026-04-06T07:43:38.003Z</time></trkpt><trkpt lat="43.71578" lon="12.6646433"><ele>333.0</ele><time>2026-04-06T07:43:39.003Z</time></trkpt><trkpt lat="43.7156733" lon="12.6647567"><ele>333.0</ele><time>2026-04-06T07:43:40.003Z</time></trkpt><trkpt lat="43.71557" lon="12.6648333"><ele>333.0</ele><time>2026-04-06T07:43:41.003Z</time></trkpt><trkpt lat="43.7154667" lon="12.6649017"><ele>333.0</ele><time>2026-04-06T07:43:42.003Z</time></trkpt><trkpt lat="43.7153567" lon="12.6649667"><ele>333.0</ele><time>2026-04-06T07:43:43.003Z</time></trkpt><trkpt lat="43.71525" lon="12.6650167"><ele>336.75</ele><time>2026-04-06T07:43:44.003Z</time></trkpt><trkpt lat="43.715135" lon="12.6650533"><ele>340.5</ele><time>2026-04-06T07:43:45.003Z</time></trkpt><trkpt lat="43.71501" lon="12.6650667"><ele>344.25</ele><time>2026-04-06T07:43:46.003Z</time></trkpt><trkpt lat="43.7148817" lon="12.665065"><ele>348.0</ele><time>2026-04-06T07:43:47.003Z</time></trkpt><trkpt lat="43.7147533" lon="12.6650317"><ele>348.0</ele><time>2026-04-06T07:43:48.003Z</time></trkpt><trkpt lat="43.7146267" lon="12.665005"><ele>348.0</ele><time>2026-04-06T07:43:49.003Z</time></trkpt><trkpt lat="43.7145" lon="12.6649883"><ele>348.0</ele><time>2026-04-06T07:43:50.002Z</time></trkpt><trkpt lat="43.7143783" lon="12.6649883"><ele>348.0</ele><time>2026-04-06T07:43:51.003Z</time></trkpt><trkpt lat="43.714265" lon="12.6650267"><ele>349.75</ele><time>2026-04-06T07:43:52.003Z</time></trkpt><trkpt lat="43.714155" lon="12.6650867"><ele>351.5</ele><time>2026-04-06T07:43:53.003Z</time></trkpt><trkpt lat="43.714045" lon="12.6651983"><ele>353.25</ele><time>2026-04-06T07:43:54.003Z</time></trkpt><trkpt lat="43.71394" lon="12.6653217"><ele>355.0</ele><time>2026-04-06T07:43:55.003Z</time></trkpt><trkpt lat="43.713845" lon="12.6654367"><ele>352.75</ele><time>2026-04-06T07:43:56.003Z</time></trkpt><trkpt lat="43.713755" lon="12.6655367"><ele>350.5</ele><time>2026-04-06T07:43:57.003Z</time></trkpt><trkpt lat="43.7136617" lon="12.6655983"><ele>348.25</ele><time>2026-04-06T07:43:58.003Z</time></trkpt><trkpt lat="43.7135567" lon="12.6656683"><ele>346.0</ele><time>2026-04-06T07:43:59.003Z</time></trkpt><trkpt lat="43.7134317" lon="12.6657517"><ele>346.0</ele><time>2026-04-06T07:44:00.003Z</time></trkpt><trkpt lat="43.7132917" lon="12.6657717"><ele>346.0</ele><time>2026-04-06T07:44:01.003Z</time></trkpt><trkpt lat="43.7131567" lon="12.665775"><ele>346.0</ele><time>2026-04-06T07:44:02.003Z</time></trkpt><trkpt lat="43.71302" lon="12.665755"><ele>346.0</ele><time>2026-04-06T07:44:03.003Z</time></trkpt><trkpt lat="43.7128883" lon="12.6657883"><ele>346.0</ele><time>2026-04-06T07:44:04.003Z</time></trkpt><trkpt lat="43.712765" lon="12.6658433"><ele>346.0</ele><time>2026-04-06T07:44:05.003Z</time></trkpt><trkpt lat="43.7126583" lon="12.6658967"><ele>346.0</ele><time>2026-04-06T07:44:06.003Z</time></trkpt><trkpt lat="43.712565" lon="12.6659967"><ele>346.0</ele><time>2026-04-06T07:44:07.003Z</time></trkpt><trkpt lat="43.71248" lon="12.6660917"><ele>345.5</ele><time>2026-04-06T07:44:08.003Z</time></trkpt><trkpt lat="43.7124233" lon="12.666215"><ele>345.0</ele><time>2026-04-06T07:44:09.003Z</time></trkpt><trkpt lat="43.712385" lon="12.6663667"><ele>344.5</ele><time>2026-04-06T07:44:10.003Z</time></trkpt><trkpt lat="43.7123683" lon="12.6665333"><ele>344.0</ele><time>2026-04-06T07:44:11.003Z</time></trkpt><trkpt lat="43.712355" lon="12.666685"><ele>344.0</ele><time>2026-04-06T07:44:12.003Z</time></trkpt><trkpt lat="43.7123333" lon="12.6668217"><ele>344.0</ele><time>2026-04-06T07:44:13.003Z</time></trkpt><trkpt lat="43.7122983" lon="12.66694"><ele>344.0</ele><time>2026-04-06T07:44:14.003Z</time></trkpt><trkpt lat="43.7122333" lon="12.6670267"><ele>344.0</ele><time>2026-04-06T07:44:15.003Z</time></trkpt><trkpt lat="43.7121483" lon="12.6670917"><ele>344.0</ele><time>2026-04-06T07:44:16.003Z</time></trkpt><trkpt lat="43.71204" lon="12.6671317"><ele>343.25</ele><time>2026-04-06T07:44:17.003Z</time></trkpt><trkpt lat="43.71192" lon="12.66715"><ele>342.5</ele><time>2026-04-06T07:44:18.003Z</time></trkpt><trkpt lat="43.7117933" lon="12.6671533"><ele>341.75</ele><time>2026-04-06T07:44:19.003Z</time></trkpt><trkpt lat="43.711675" lon="12.6671567"><ele>341.0</ele><time>2026-04-06T07:44:20.003Z</time></trkpt><trkpt lat="43.711565" lon="12.667165"><ele>343.33333333333337</ele><time>2026-04-06T07:44:21.003Z</time></trkpt><trkpt lat="43.7114767" lon="12.6671767"><ele>345.6666666666667</ele><time>2026-04-06T07:44:22.003Z</time></trkpt><trkpt lat="43.71138" lon="12.6672083"><ele>348.0</ele><time>2026-04-06T07:44:23.003Z</time></trkpt><trkpt lat="43.7112933" lon="12.6672533"><ele>350.3333333333333</ele><time>2026-04-06T07:44:24.003Z</time></trkpt><trkpt lat="43.7112217" lon="12.6673167"><ele>352.66666666666663</ele><time>2026-04-06T07:44:25.003Z</time></trkpt><trkpt lat="43.7111583" lon="12.6673833"><ele>355.0</ele><time>2026-04-06T07:44:26.003Z</time></trkpt><trkpt lat="43.71111" lon="12.667475"><ele>353.8</ele><time>2026-04-06T07:44:27.003Z</time></trkpt><trkpt lat="43.7110717" lon="12.6675867"><ele>352.6</ele><time>2026-04-06T07:44:28.003Z</time></trkpt><trkpt lat="43.7110483" lon="12.6677"><ele>351.4</ele><time>2026-04-06T07:44:29.003Z</time></trkpt><trkpt lat="43.7110367" lon="12.6678267"><ele>350.2</ele><time>2026-04-06T07:44:30.003Z</time></trkpt><trkpt lat="43.711045" lon="12.66798"><ele>349.0</ele><time>2026-04-06T07:44:31.003Z</time></trkpt><trkpt lat="43.711065" lon="12.668145"><ele>349.2</ele><time>2026-04-06T07:44:32.003Z</time></trkpt><trkpt lat="43.71109" lon="12.6683083"><ele>349.4</ele><time>2026-04-06T07:44:33.003Z</time></trkpt><trkpt lat="43.7111" lon="12.668455"><ele>349.6</ele><time>2026-04-06T07:44:34.003Z</time></trkpt><trkpt lat="43.7110983" lon="12.66858"><ele>349.8</ele><time>2026-04-06T07:44:35.003Z</time></trkpt><trkpt lat="43.711075" lon="12.6686967"><ele>350.0</ele><time>2026-04-06T07:44:36.003Z</time></trkpt><trkpt lat="43.7110267" lon="12.6687983"><ele>349.5</ele><time>2026-04-06T07:44:37.003Z</time></trkpt><trkpt lat="43.710945" lon="12.6688867"><ele>349.0</ele><time>2026-04-06T07:44:38.003Z</time></trkpt><trkpt lat="43.7108417" lon="12.6689367"><ele>348.5</ele><time>2026-04-06T07:44:39.003Z</time></trkpt><trkpt lat="43.710725" lon="12.6689633"><ele>348.0</ele><time>2026-04-06T07:44:40.003Z</time></trkpt><trkpt lat="43.7106033" lon="12.6689917"><ele>348.0</ele><time>2026-04-06T07:44:41.003Z</time></trkpt><trkpt lat="43.71049" lon="12.6690233"><ele>348.0</ele><time>2026-04-06T07:44:42.003Z</time></trkpt><trkpt lat="43.71039" lon="12.6690617"><ele>348.0</ele><time>2026-04-06T07:44:43.003Z</time></trkpt><trkpt lat="43.7102983" lon="12.669095"><ele>348.0</ele><time>2026-04-06T07:44:44.003Z</time></trkpt><trkpt lat="43.7102133" lon="12.669135"><ele>348.0</ele><time>2026-04-06T07:44:45.003Z</time></trkpt><trkpt lat="43.7101317" lon="12.6691717"><ele>346.2</ele><time>2026-04-06T07:44:46.003Z</time></trkpt><trkpt lat="43.7100517" lon="12.669245"><ele>344.4</ele><time>2026-04-06T07:44:47.003Z</time></trkpt><trkpt lat="43.709975" lon="12.669345"><ele>342.59999999999997</ele><time>2026-04-06T07:44:48.003Z</time></trkpt><trkpt lat="43.7098967" lon="12.66944"><ele>340.79999999999995</ele><time>2026-04-06T07:44:49.003Z</time></trkpt><trkpt lat="43.7098133" lon="12.66955"><ele>339.0</ele><time>2026-04-06T07:44:50.003Z</time></trkpt><trkpt lat="43.7097083" lon="12.6696867"><ele>338.75</ele><time>2026-04-06T07:44:51.003Z</time></trkpt><trkpt lat="43.709605" lon="12.6698417"><ele>338.5</ele><time>2026-04-06T07:44:52.003Z</time></trkpt><trkpt lat="43.709535" lon="12.6700117"><ele>338.25</ele><time>2026-04-06T07:44:53.003Z</time></trkpt><trkpt lat="43.709465" lon="12.670155"><ele>338.0</ele><time>2026-04-06T07:44:54.003Z</time></trkpt><trkpt lat="43.7093917" lon="12.6703"><ele>336.0</ele><time>2026-04-06T07:44:55.003Z</time></trkpt><trkpt lat="43.709315" lon="12.67042"><ele>334.0</ele><time>2026-04-06T07:44:56.003Z</time></trkpt><trkpt lat="43.7092333" lon="12.67054"><ele>332.0</ele><time>2026-04-06T07:44:57.003Z</time></trkpt><trkpt lat="43.7091567" lon="12.6706467"><ele>330.0</ele><time>2026-04-06T07:44:58.003Z</time></trkpt><trkpt lat="43.7090917" lon="12.6707467"><ele>328.0</ele><time>2026-04-06T07:44:59.003Z</time></trkpt><trkpt lat="43.7090367" lon="12.6708233"><ele>328.0</ele><time>2026-04-06T07:45:00.003Z</time></trkpt><trkpt lat="43.7089867" lon="12.6708833"><ele>328.0</ele><time>2026-04-06T07:45:01.003Z</time></trkpt><trkpt lat="43.7089483" lon="12.670955"><ele>328.0</ele><time>2026-04-06T07:45:02.003Z</time></trkpt><trkpt lat="43.7089333" lon="12.6710683"><ele>328.0</ele><time>2026-04-06T07:45:04.003Z</time></trkpt><trkpt lat="43.708995" lon="12.671225"><ele>328.0</ele><time>2026-04-06T07:45:06.003Z</time></trkpt><trkpt lat="43.709045" lon="12.6713467"><ele>328.0</ele><time>2026-04-06T07:45:07.003Z</time></trkpt><trkpt lat="43.7091067" lon="12.67146"><ele>327.79999999999995</ele><time>2026-04-06T07:45:08.003Z</time></trkpt><trkpt lat="43.70916" lon="12.6715483"><ele>327.6</ele><time>2026-04-06T07:45:09.003Z</time></trkpt><trkpt lat="43.709205" lon="12.6716133"><ele>327.4</ele><time>2026-04-06T07:45:10.003Z</time></trkpt><trkpt lat="43.709255" lon="12.6716833"><ele>327.20000000000005</ele><time>2026-04-06T07:45:12.003Z</time></trkpt><trkpt lat="43.7092333" lon="12.67182"><ele>327.0</ele><time>2026-04-06T07:45:44.003Z</time></trkpt><trkpt lat="43.7092283" lon="12.67201"><ele>323.8</ele><time>2026-04-06T07:45:46.003Z</time></trkpt><trkpt lat="43.70915" lon="12.67213"><ele>320.6</ele><time>2026-04-06T07:45:48.003Z</time></trkpt><trkpt lat="43.7090717" lon="12.6721467"><ele>317.40000000000003</ele><time>2026-04-06T07:45:49.003Z</time></trkpt><trkpt lat="43.70897" lon="12.6721417"><ele>314.20000000000005</ele><time>2026-04-06T07:45:50.003Z</time></trkpt><trkpt lat="43.7088367" lon="12.6721133"><ele>311.0</ele><time>2026-04-06T07:45:51.003Z</time></trkpt><trkpt lat="43.7087117" lon="12.6720833"><ele>311.0</ele><time>2026-04-06T07:45:52.003Z</time></trkpt><trkpt lat="43.708575" lon="12.6721017"><ele>311.0</ele><time>2026-04-06T07:45:53.003Z</time></trkpt><trkpt lat="43.7084583" lon="12.672125"><ele>311.0</ele><time>2026-04-06T07:45:54.003Z</time></trkpt><trkpt lat="43.7083517" lon="12.672145"><ele>311.0</ele><time>2026-04-06T07:45:55.003Z</time></trkpt><trkpt lat="43.708255" lon="12.6721667"><ele>311.0</ele><time>2026-04-06T07:45:56.003Z</time></trkpt><trkpt lat="43.7081533" lon="12.6722"><ele>311.0</ele><time>2026-04-06T07:45:57.003Z</time></trkpt><trkpt lat="43.7080433" lon="12.672235"><ele>311.0</ele><time>2026-04-06T07:45:58.003Z</time></trkpt><trkpt lat="43.7079283" lon="12.67228"><ele>311.0</ele><time>2026-04-06T07:45:59.003Z</time></trkpt><trkpt lat="43.7078217" lon="12.6723133"><ele>311.0</ele><time>2026-04-06T07:46:00.003Z</time></trkpt><trkpt lat="43.7077167" lon="12.672385"><ele>310.6</ele><time>2026-04-06T07:46:01.003Z</time></trkpt><trkpt lat="43.7076233" lon="12.67246"><ele>310.20000000000005</ele><time>2026-04-06T07:46:02.003Z</time></trkpt><trkpt lat="43.7075467" lon="12.672535"><ele>309.79999999999995</ele><time>2026-04-06T07:46:03.003Z</time></trkpt><trkpt lat="43.7074867" lon="12.6726267"><ele>309.4</ele><time>2026-04-06T07:46:04.003Z</time></trkpt><trkpt lat="43.7074383" lon="12.672745"><ele>309.0</ele><time>2026-04-06T07:46:05.003Z</time></trkpt><trkpt lat="43.7073967" lon="12.6728567"><ele>306.0</ele><time>2026-04-06T07:46:06.003Z</time></trkpt><trkpt lat="43.7073567" lon="12.6729633"><ele>303.0</ele><time>2026-04-06T07:46:07.003Z</time></trkpt><trkpt lat="43.707315" lon="12.6730483"><ele>300.0</ele><time>2026-04-06T07:46:08.003Z</time></trkpt><trkpt lat="43.7072617" lon="12.6731083"><ele>297.0</ele><time>2026-04-06T07:46:09.003Z</time></trkpt><trkpt lat="43.7071967" lon="12.673135"><ele>294.0</ele><time>2026-04-06T07:46:10.003Z</time></trkpt><trkpt lat="43.7071133" lon="12.6731317"><ele>291.0</ele><time>2026-04-06T07:46:11.003Z</time></trkpt><trkpt lat="43.7070267" lon="12.673095"><ele>291.0</ele><time>2026-04-06T07:46:12.003Z</time></trkpt><trkpt lat="43.706935" lon="12.6730283"><ele>291.0</ele><time>2026-04-06T07:46:13.003Z</time></trkpt><trkpt lat="43.70685" lon="12.6729333"><ele>291.0</ele><time>2026-04-06T07:46:14.003Z</time></trkpt><trkpt lat="43.706775" lon="12.67282"><ele>291.0</ele><time>2026-04-06T07:46:15.003Z</time></trkpt><trkpt lat="43.7067117" lon="12.6727167"><ele>291.0</ele><time>2026-04-06T07:46:16.003Z</time></trkpt><trkpt lat="43.7066583" lon="12.67264"><ele>290.3333333333333</ele><time>2026-04-06T07:46:17.003Z</time></trkpt><trkpt lat="43.7066" lon="12.6725983"><ele>289.6666666666667</ele><time>2026-04-06T07:46:18.003Z</time></trkpt><trkpt lat="43.7065383" lon="12.672565"><ele>289.0</ele><time>2026-04-06T07:46:19.003Z</time></trkpt><trkpt lat="43.7064433" lon="12.67255"><ele>288.33333333333337</ele><time>2026-04-06T07:46:21.003Z</time></trkpt><trkpt lat="43.7063583" lon="12.67264"><ele>287.6666666666667</ele><time>2026-04-06T07:46:23.003Z</time></trkpt><trkpt lat="43.70633" lon="12.6727283"><ele>287.0</ele><time>2026-04-06T07:46:24.003Z</time></trkpt><trkpt lat="43.70633" lon="12.672845"><ele>287.0</ele><time>2026-04-06T07:46:25.003Z</time></trkpt><trkpt lat="43.7063517" lon="12.67296"><ele>287.0</ele><time>2026-04-06T07:46:26.003Z</time></trkpt><trkpt lat="43.706405" lon="12.6731083"><ele>287.0</ele><time>2026-04-06T07:46:27.003Z</time></trkpt><trkpt lat="43.7064783" lon="12.6732733"><ele>287.0</ele><time>2026-04-06T07:46:28.003Z</time></trkpt><trkpt lat="43.706545" lon="12.6734317"><ele>287.0</ele><time>2026-04-06T07:46:29.003Z</time></trkpt><trkpt lat="43.7066167" lon="12.6735783"><ele>287.0</ele><time>2026-04-06T07:46:30.003Z</time></trkpt><trkpt lat="43.7066833" lon="12.6737083"><ele>287.0</ele><time>2026-04-06T07:46:31.003Z</time></trkpt><trkpt lat="43.7067433" lon="12.6738167"><ele>287.0</ele><time>2026-04-06T07:46:32.003Z</time></trkpt><trkpt lat="43.70681" lon="12.6739133"><ele>287.0</ele><time>2026-04-06T07:46:33.003Z</time></trkpt><trkpt lat="43.7068783" lon="12.6739817"><ele>283.0</ele><time>2026-04-06T07:46:34.003Z</time></trkpt><trkpt lat="43.7069533" lon="12.6740333"><ele>279.0</ele><time>2026-04-06T07:46:35.003Z</time></trkpt><trkpt lat="43.70702" lon="12.67406"><ele>275.0</ele><time>2026-04-06T07:46:36.003Z</time></trkpt><trkpt lat="43.7070833" lon="12.67409"><ele>271.0</ele><time>2026-04-06T07:46:37.003Z</time></trkpt><trkpt lat="43.7071467" lon="12.6742083"><ele>267.0</ele><time>2026-04-06T07:46:39.003Z</time></trkpt><trkpt lat="43.7070733" lon="12.6743583"><ele>267.0</ele><time>2026-04-06T07:46:41.003Z</time></trkpt><trkpt lat="43.70699" lon="12.6744017"><ele>267.0</ele><time>2026-04-06T07:46:42.003Z</time></trkpt><trkpt lat="43.7069017" lon="12.6744083"><ele>267.0</ele><time>2026-04-06T07:46:43.003Z</time></trkpt><trkpt lat="43.7068383" lon="12.6744133"><ele>267.0</ele><time>2026-04-06T07:46:44.003Z</time></trkpt><trkpt lat="43.7067733" lon="12.6744217"><ele>267.0</ele><time>2026-04-06T07:46:45.003Z</time></trkpt><trkpt lat="43.7066983" lon="12.674435"><ele>267.0</ele><time>2026-04-06T07:46:46.003Z</time></trkpt><trkpt lat="43.7066167" lon="12.6744467"><ele>267.6</ele><time>2026-04-06T07:46:47.003Z</time></trkpt><trkpt lat="43.706525" lon="12.6744583"><ele>268.2</ele><time>2026-04-06T07:46:48.002Z</time></trkpt><trkpt lat="43.7064283" lon="12.6744683"><ele>268.8</ele><time>2026-04-06T07:46:49.003Z</time></trkpt><trkpt lat="43.7063333" lon="12.6744683"><ele>269.4</ele><time>2026-04-06T07:46:50.003Z</time></trkpt><trkpt lat="43.7062433" lon="12.67445"><ele>270.0</ele><time>2026-04-06T07:46:51.003Z</time></trkpt><trkpt lat="43.7061483" lon="12.6744033"><ele>267.8</ele><time>2026-04-06T07:46:52.003Z</time></trkpt><trkpt lat="43.706055" lon="12.6743517"><ele>265.6</ele><time>2026-04-06T07:46:53.003Z</time></trkpt><trkpt lat="43.7059717" lon="12.6742733"><ele>263.4</ele><time>2026-04-06T07:46:54.003Z</time></trkpt><trkpt lat="43.7058967" lon="12.67417"><ele>261.2</ele><time>2026-04-06T07:46:55.003Z</time></trkpt><trkpt lat="43.7058383" lon="12.6740633"><ele>259.0</ele><time>2026-04-06T07:46:56.003Z</time></trkpt><trkpt lat="43.7057783" lon="12.6739617"><ele>259.0</ele><time>2026-04-06T07:46:57.003Z</time></trkpt><trkpt lat="43.7057017" lon="12.6738667"><ele>259.0</ele><time>2026-04-06T07:46:58.003Z</time></trkpt><trkpt lat="43.70562" lon="12.6737967"><ele>259.0</ele><time>2026-04-06T07:46:59.003Z</time></trkpt><trkpt lat="43.7055283" lon="12.6737517"><ele>259.0</ele><time>2026-04-06T07:47:00.003Z</time></trkpt><trkpt lat="43.7054283" lon="12.67373"><ele>259.0</ele><time>2026-04-06T07:47:01.003Z</time></trkpt><trkpt lat="43.70531" lon="12.6737333"><ele>255.75</ele><time>2026-04-06T07:47:02.003Z</time></trkpt><trkpt lat="43.7051767" lon="12.6737583"><ele>252.5</ele><time>2026-04-06T07:47:03.003Z</time></trkpt><trkpt lat="43.7050417" lon="12.6737867"><ele>249.25</ele><time>2026-04-06T07:47:04.003Z</time></trkpt><trkpt lat="43.70491" lon="12.67382"><ele>246.0</ele><time>2026-04-06T07:47:05.003Z</time></trkpt><trkpt lat="43.7047783" lon="12.6738533"><ele>246.0</ele><time>2026-04-06T07:47:06.003Z</time></trkpt><trkpt lat="43.704645" lon="12.6738867"><ele>246.0</ele><time>2026-04-06T07:47:07.003Z</time></trkpt><trkpt lat="43.70451" lon="12.6739367"><ele>246.0</ele><time>2026-04-06T07:47:08.003Z</time></trkpt><trkpt lat="43.70438" lon="12.6739967"><ele>246.0</ele><time>2026-04-06T07:47:09.003Z</time></trkpt><trkpt lat="43.70425" lon="12.6740517"><ele>246.5</ele><time>2026-04-06T07:47:10.003Z</time></trkpt><trkpt lat="43.70413" lon="12.6741033"><ele>247.0</ele><time>2026-04-06T07:47:11.003Z</time></trkpt><trkpt lat="43.7040217" lon="12.6741317"><ele>247.5</ele><time>2026-04-06T07:47:12.003Z</time></trkpt><trkpt lat="43.7039183" lon="12.6741817"><ele>248.0</ele><time>2026-04-06T07:47:13.003Z</time></trkpt><trkpt lat="43.703805" lon="12.6741933"><ele>248.0</ele><time>2026-04-06T07:47:14.003Z</time></trkpt><trkpt lat="43.7036867" lon="12.67419"><ele>248.0</ele><time>2026-04-06T07:47:15.003Z</time></trkpt><trkpt lat="43.703575" lon="12.674185"><ele>248.0</ele><time>2026-04-06T07:47:16.003Z</time></trkpt><trkpt lat="43.7034717" lon="12.6741883"><ele>248.0</ele><time>2026-04-06T07:47:17.003Z</time></trkpt><trkpt lat="43.703375" lon="12.6742217"><ele>248.0</ele><time>2026-04-06T07:47:18.003Z</time></trkpt><trkpt lat="43.7032867" lon="12.6742833"><ele>248.75</ele><time>2026-04-06T07:47:19.003Z</time></trkpt><trkpt lat="43.7032217" lon="12.6743917"><ele>249.5</ele><time>2026-04-06T07:47:20.003Z</time></trkpt><trkpt lat="43.7031617" lon="12.6745283"><ele>250.25</ele><time>2026-04-06T07:47:21.003Z</time></trkpt><trkpt lat="43.7030833" lon="12.6746533"><ele>251.0</ele><time>2026-04-06T07:47:22.003Z</time></trkpt><trkpt lat="43.702985" lon="12.67477"><ele>250.75</ele><time>2026-04-06T07:47:23.003Z</time></trkpt><trkpt lat="43.7028733" lon="12.6748883"><ele>250.5</ele><time>2026-04-06T07:47:24.003Z</time></trkpt><trkpt lat="43.7027717" lon="12.67502"><ele>250.25</ele><time>2026-04-06T07:47:25.003Z</time></trkpt><trkpt lat="43.7026783" lon="12.67516"><ele>250.0</ele><time>2026-04-06T07:47:26.003Z</time></trkpt><trkpt lat="43.7026033" lon="12.67533"><ele>248.0</ele><time>2026-04-06T07:47:27.003Z</time></trkpt><trkpt lat="43.70255" lon="12.6754917"><ele>246.0</ele><time>2026-04-06T07:47:28.003Z</time></trkpt><trkpt lat="43.7025017" lon="12.675635"><ele>244.0</ele><time>2026-04-06T07:47:29.003Z</time></trkpt><trkpt lat="43.7024633" lon="12.67575"><ele>242.0</ele><time>2026-04-06T07:47:30.003Z</time></trkpt><trkpt lat="43.7024233" lon="12.6758667"><ele>240.0</ele><time>2026-04-06T07:47:31.003Z</time></trkpt><trkpt lat="43.7023717" lon="12.6759817"><ele>237.4</ele><time>2026-04-06T07:47:32.003Z</time></trkpt><trkpt lat="43.7023117" lon="12.67611"><ele>234.8</ele><time>2026-04-06T07:47:33.003Z</time></trkpt><trkpt lat="43.7022483" lon="12.6762267"><ele>232.2</ele><time>2026-04-06T07:47:34.003Z</time></trkpt><trkpt lat="43.702175" lon="12.6763233"><ele>229.6</ele><time>2026-04-06T07:47:35.003Z</time></trkpt><trkpt lat="43.7020933" lon="12.6763783"><ele>227.0</ele><time>2026-04-06T07:47:36.003Z</time></trkpt><trkpt lat="43.70201" lon="12.6763867"><ele>227.0</ele><time>2026-04-06T07:47:37.003Z</time></trkpt><trkpt lat="43.70193" lon="12.6763667"><ele>227.0</ele><time>2026-04-06T07:47:38.003Z</time></trkpt><trkpt lat="43.7018517" lon="12.6762917"><ele>227.0</ele><time>2026-04-06T07:47:39.003Z</time></trkpt><trkpt lat="43.7017467" lon="12.676205"><ele>227.0</ele><time>2026-04-06T07:47:40.003Z</time></trkpt><trkpt lat="43.7016417" lon="12.6760867"><ele>227.0</ele><time>2026-04-06T07:47:41.003Z</time></trkpt><trkpt lat="43.7015583" lon="12.6759867"><ele>228.50000000000003</ele><time>2026-04-06T07:47:42.003Z</time></trkpt><trkpt lat="43.7014767" lon="12.675935"><ele>230.0</ele><time>2026-04-06T07:47:43.003Z</time></trkpt><trkpt lat="43.7013967" lon="12.675915"><ele>231.5</ele><time>2026-04-06T07:47:44.003Z</time></trkpt><trkpt lat="43.7013133" lon="12.6759183"><ele>233.0</ele><time>2026-04-06T07:47:45.002Z</time></trkpt><trkpt lat="43.7012333" lon="12.6759383"><ele>234.50000000000003</ele><time>2026-04-06T07:47:46.003Z</time></trkpt><trkpt lat="43.701165" lon="12.6759983"><ele>236.0</ele><time>2026-04-06T07:47:47.003Z</time></trkpt><trkpt lat="43.7011117" lon="12.6760867"><ele>234.16666666666669</ele><time>2026-04-06T07:47:48.003Z</time></trkpt><trkpt lat="43.7010717" lon="12.6761967"><ele>232.33333333333334</ele><time>2026-04-06T07:47:49.003Z</time></trkpt><trkpt lat="43.7010333" lon="12.676305"><ele>230.5</ele><time>2026-04-06T07:47:50.003Z</time></trkpt><trkpt lat="43.7009933" lon="12.6763917"><ele>228.66666666666669</ele><time>2026-04-06T07:47:51.003Z</time></trkpt><trkpt lat="43.70094" lon="12.6764383"><ele>226.83333333333334</ele><time>2026-04-06T07:47:52.003Z</time></trkpt><trkpt lat="43.70081" lon="12.6764367"><ele>225.0</ele><time>2026-04-06T07:47:54.003Z</time></trkpt><trkpt lat="43.70074" lon="12.6764317"><ele>225.0</ele><time>2026-04-06T07:47:55.003Z</time></trkpt><trkpt lat="43.7006717" lon="12.6764617"><ele>225.0</ele><time>2026-04-06T07:47:56.003Z</time></trkpt><trkpt lat="43.7006067" lon="12.6765133"><ele>225.0</ele><time>2026-04-06T07:47:57.003Z</time></trkpt><trkpt lat="43.7005567" lon="12.6765983"><ele>225.0</ele><time>2026-04-06T07:47:58.003Z</time></trkpt><trkpt lat="43.70053" lon="12.6767133"><ele>225.0</ele><time>2026-04-06T07:47:59.003Z</time></trkpt><trkpt lat="43.700505" lon="12.6768467"><ele>225.0</ele><time>2026-04-06T07:48:00.003Z</time></trkpt><trkpt lat="43.70047" lon="12.6769633"><ele>222.4</ele><time>2026-04-06T07:48:01.003Z</time></trkpt><trkpt lat="43.7004167" lon="12.677045"><ele>219.8</ele><time>2026-04-06T07:48:02.003Z</time></trkpt><trkpt lat="43.700345" lon="12.6771167"><ele>217.2</ele><time>2026-04-06T07:48:03.003Z</time></trkpt><trkpt lat="43.7002567" lon="12.6771783"><ele>214.6</ele><time>2026-04-06T07:48:04.003Z</time></trkpt><trkpt lat="43.7001483" lon="12.6772333"><ele>212.0</ele><time>2026-04-06T07:48:05.002Z</time></trkpt><trkpt lat="43.7000533" lon="12.6772983"><ele>211.66666666666669</ele><time>2026-04-06T07:48:06.003Z</time></trkpt><trkpt lat="43.699985" lon="12.6773783"><ele>211.33333333333334</ele><time>2026-04-06T07:48:07.003Z</time></trkpt><trkpt lat="43.6999283" lon="12.677465"><ele>211.0</ele><time>2026-04-06T07:48:08.003Z</time></trkpt><trkpt lat="43.6998867" lon="12.6775633"><ele>210.66666666666669</ele><time>2026-04-06T07:48:09.003Z</time></trkpt><trkpt lat="43.699845" lon="12.6776667"><ele>210.33333333333334</ele><time>2026-04-06T07:48:10.003Z</time></trkpt><trkpt lat="43.6997967" lon="12.6777317"><ele>210.0</ele><time>2026-04-06T07:48:11.003Z</time></trkpt><trkpt lat="43.6997367" lon="12.6777683"><ele>210.0</ele><time>2026-04-06T07:48:12.003Z</time></trkpt><trkpt lat="43.699655" lon="12.6777733"><ele>210.0</ele><time>2026-04-06T07:48:13.003Z</time></trkpt><trkpt lat="43.6995517" lon="12.677765"><ele>210.0</ele><time>2026-04-06T07:48:14.003Z</time></trkpt><trkpt lat="43.69946" lon="12.677755"><ele>210.0</ele><time>2026-04-06T07:48:15.003Z</time></trkpt><trkpt lat="43.6993683" lon="12.6777417"><ele>210.0</ele><time>2026-04-06T07:48:16.003Z</time></trkpt><trkpt lat="43.6992733" lon="12.6777183"><ele>208.0</ele><time>2026-04-06T07:48:17.003Z</time></trkpt><trkpt lat="43.6991617" lon="12.6776883"><ele>206.0</ele><time>2026-04-06T07:48:18.003Z</time></trkpt><trkpt lat="43.6990317" lon="12.6776733"><ele>204.0</ele><time>2026-04-06T07:48:19.003Z</time></trkpt><trkpt lat="43.69891" lon="12.67764"><ele>202.0</ele><time>2026-04-06T07:48:20.003Z</time></trkpt><trkpt lat="43.6988033" lon="12.6775783"><ele>202.0</ele><time>2026-04-06T07:48:21.003Z</time></trkpt><trkpt lat="43.6987033" lon="12.677505"><ele>202.0</ele><time>2026-04-06T07:48:22.003Z</time></trkpt><trkpt lat="43.6986117" lon="12.6774067"><ele>202.0</ele><time>2026-04-06T07:48:23.003Z</time></trkpt><trkpt lat="43.6985167" lon="12.6773183"><ele>202.0</ele><time>2026-04-06T07:48:24.003Z</time></trkpt><trkpt lat="43.69842" lon="12.67724"><ele>197.6</ele><time>2026-04-06T07:48:25.003Z</time></trkpt><trkpt lat="43.6983283" lon="12.67716"><ele>193.2</ele><time>2026-04-06T07:48:26.003Z</time></trkpt><trkpt lat="43.6982283" lon="12.67711"><ele>188.8</ele><time>2026-04-06T07:48:27.003Z</time></trkpt><trkpt lat="43.69812" lon="12.6770617"><ele>184.4</ele><time>2026-04-06T07:48:28.003Z</time></trkpt><trkpt lat="43.69802" lon="12.677015"><ele>180.0</ele><time>2026-04-06T07:48:29.003Z</time></trkpt><trkpt lat="43.6979167" lon="12.67698"><ele>180.0</ele><time>2026-04-06T07:48:30.003Z</time></trkpt><trkpt lat="43.6978183" lon="12.6769633"><ele>180.0</ele><time>2026-04-06T07:48:31.003Z</time></trkpt><trkpt lat="43.697735" lon="12.67693"><ele>180.0</ele><time>2026-04-06T07:48:32.003Z</time></trkpt><trkpt lat="43.697655" lon="12.6769133"><ele>180.0</ele><time>2026-04-06T07:48:33.002Z</time></trkpt><trkpt lat="43.6975833" lon="12.6768967"><ele>180.0</ele><time>2026-04-06T07:48:34.003Z</time></trkpt><trkpt lat="43.69752" lon="12.6769"><ele>180.0</ele><time>2026-04-06T07:48:35.003Z</time></trkpt><trkpt lat="43.69745" lon="12.676945"><ele>177.8</ele><time>2026-04-06T07:48:37.003Z</time></trkpt><trkpt lat="43.6974267" lon="12.6770783"><ele>175.6</ele><time>2026-04-06T07:48:41.003Z</time></trkpt><trkpt lat="43.6973783" lon="12.677175"><ele>173.39999999999998</ele><time>2026-04-06T07:48:43.003Z</time></trkpt><trkpt lat="43.6973167" lon="12.6771467"><ele>171.2</ele><time>2026-04-06T07:48:45.003Z</time></trkpt><trkpt lat="43.69722" lon="12.67697"><ele>169.0</ele><time>2026-04-06T07:48:47.003Z</time></trkpt><trkpt lat="43.6971533" lon="12.67686"><ele>169.0</ele><time>2026-04-06T07:48:48.003Z</time></trkpt><trkpt lat="43.6970983" lon="12.6767633"><ele>169.0</ele><time>2026-04-06T07:48:49.003Z</time></trkpt><trkpt lat="43.697045" lon="12.676705"><ele>169.0</ele><time>2026-04-06T07:48:50.003Z</time></trkpt><trkpt lat="43.696985" lon="12.676675"><ele>169.0</ele><time>2026-04-06T07:48:51.003Z</time></trkpt><trkpt lat="43.6969133" lon="12.6766683"><ele>169.0</ele><time>2026-04-06T07:48:52.003Z</time></trkpt><trkpt lat="43.6968317" lon="12.6766867"><ele>169.0</ele><time>2026-04-06T07:48:53.003Z</time></trkpt><trkpt lat="43.69674" lon="12.6767367"><ele>167.83333333333334</ele><time>2026-04-06T07:48:54.003Z</time></trkpt><trkpt lat="43.6966517" lon="12.67678"><ele>166.66666666666669</ele><time>2026-04-06T07:48:55.003Z</time></trkpt><trkpt lat="43.69658" lon="12.6768083"><ele>165.5</ele><time>2026-04-06T07:48:56.003Z</time></trkpt><trkpt lat="43.6965167" lon="12.67684"><ele>164.33333333333334</ele><time>2026-04-06T07:48:57.003Z</time></trkpt><trkpt lat="43.6964017" lon="12.6767483"><ele>163.16666666666666</ele><time>2026-04-06T07:48:59.003Z</time></trkpt><trkpt lat="43.6963517" lon="12.676665"><ele>162.0</ele><time>2026-04-06T07:49:00.003Z</time></trkpt><trkpt lat="43.6963117" lon="12.676565"><ele>162.0</ele><time>2026-04-06T07:49:01.003Z</time></trkpt><trkpt lat="43.696275" lon="12.6764833"><ele>162.0</ele><time>2026-04-06T07:49:02.003Z</time></trkpt><trkpt lat="43.6961817" lon="12.6764117"><ele>162.0</ele><time>2026-04-06T07:49:04.003Z</time></trkpt><trkpt lat="43.6960883" lon="12.67652"><ele>162.0</ele><time>2026-04-06T07:49:06.003Z</time></trkpt><trkpt lat="43.6960533" lon="12.6766433"><ele>162.0</ele><time>2026-04-06T07:49:07.003Z</time></trkpt><trkpt lat="43.6960317" lon="12.6767483"><ele>164.2</ele><time>2026-04-06T07:49:08.003Z</time></trkpt><trkpt lat="43.695965" lon="12.67688"><ele>166.39999999999998</ele><time>2026-04-06T07:49:10.003Z</time></trkpt><trkpt lat="43.6958417" lon="12.6768333"><ele>168.60000000000002</ele><time>2026-04-06T07:49:12.003Z</time></trkpt><trkpt lat="43.6957683" lon="12.676785"><ele>170.8</ele><time>2026-04-06T07:49:13.003Z</time></trkpt><trkpt lat="43.6956933" lon="12.67673"><ele>173.0</ele><time>2026-04-06T07:49:14.003Z</time></trkpt><trkpt lat="43.6956067" lon="12.6766683"><ele>173.0</ele><time>2026-04-06T07:49:15.003Z</time></trkpt><trkpt lat="43.695525" lon="12.6765883"><ele>173.0</ele><time>2026-04-06T07:49:16.003Z</time></trkpt><trkpt lat="43.6954467" lon="12.676485"><ele>173.0</ele><time>2026-04-06T07:49:17.003Z</time></trkpt><trkpt lat="43.6953833" lon="12.6763767"><ele>173.0</ele><time>2026-04-06T07:49:18.003Z</time></trkpt><trkpt lat="43.69534" lon="12.6762683"><ele>173.0</ele><time>2026-04-06T07:49:19.003Z</time></trkpt><trkpt lat="43.6952967" lon="12.6761883"><ele>173.2</ele><time>2026-04-06T07:49:20.003Z</time></trkpt><trkpt lat="43.6952483" lon="12.676115"><ele>173.4</ele><time>2026-04-06T07:49:21.003Z</time></trkpt><trkpt lat="43.6951817" lon="12.6760467"><ele>173.6</ele><time>2026-04-06T07:49:22.003Z</time></trkpt><trkpt lat="43.6951033" lon="12.6759983"><ele>173.79999999999998</ele><time>2026-04-06T07:49:23.003Z</time></trkpt><trkpt lat="43.695005" lon="12.6759517"><ele>174.0</ele><time>2026-04-06T07:49:24.003Z</time></trkpt><trkpt lat="43.6948917" lon="12.6758917"><ele>174.0</ele><time>2026-04-06T07:49:25.003Z</time></trkpt><trkpt lat="43.6947683" lon="12.6758367"><ele>174.0</ele><time>2026-04-06T07:49:26.003Z</time></trkpt><trkpt lat="43.6946433" lon="12.6757983"><ele>174.0</ele><time>2026-04-06T07:49:27.003Z</time></trkpt><trkpt lat="43.6945317" lon="12.675785"><ele>174.0</ele><time>2026-04-06T07:49:28.003Z</time></trkpt><trkpt lat="43.6944117" lon="12.67577"><ele>175.39999999999998</ele><time>2026-04-06T07:49:29.003Z</time></trkpt><trkpt lat="43.6942967" lon="12.67576"><ele>176.8</ele><time>2026-04-06T07:49:30.003Z</time></trkpt><trkpt lat="43.694185" lon="12.6757433"><ele>178.2</ele><time>2026-04-06T07:49:31.003Z</time></trkpt><trkpt lat="43.6940833" lon="12.67571"><ele>179.60000000000002</ele><time>2026-04-06T07:49:32.003Z</time></trkpt><trkpt lat="43.69399" lon="12.6756483"><ele>181.0</ele><time>2026-04-06T07:49:33.003Z</time></trkpt><trkpt lat="43.6939067" lon="12.6755683"><ele>181.0</ele><time>2026-04-06T07:49:34.003Z</time></trkpt><trkpt lat="43.693825" lon="12.675475"><ele>181.0</ele><time>2026-04-06T07:49:35.003Z</time></trkpt><trkpt lat="43.6937333" lon="12.675405"><ele>181.0</ele><time>2026-04-06T07:49:36.003Z</time></trkpt><trkpt lat="43.6936467" lon="12.675375"><ele>181.0</ele><time>2026-04-06T07:49:37.003Z</time></trkpt><trkpt lat="43.6935517" lon="12.67535"><ele>181.0</ele><time>2026-04-06T07:49:38.003Z</time></trkpt><trkpt lat="43.6934517" lon="12.67532"><ele>181.0</ele><time>2026-04-06T07:49:39.003Z</time></trkpt><trkpt lat="43.693365" lon="12.6752833"><ele>181.0</ele><time>2026-04-06T07:49:40.003Z</time></trkpt><trkpt lat="43.6932833" lon="12.67523"><ele>181.0</ele><time>2026-04-06T07:49:41.003Z</time></trkpt><trkpt lat="43.6932083" lon="12.67517"><ele>181.0</ele><time>2026-04-06T07:49:42.003Z</time></trkpt><trkpt lat="43.6931267" lon="12.6751133"><ele>181.0</ele><time>2026-04-06T07:49:43.003Z</time></trkpt><trkpt lat="43.693035" lon="12.675055"><ele>181.0</ele><time>2026-04-06T07:49:44.003Z</time></trkpt><trkpt lat="43.6929567" lon="12.67502"><ele>181.0</ele><time>2026-04-06T07:49:45.003Z</time></trkpt><trkpt lat="43.6928717" lon="12.675"><ele>181.0</ele><time>2026-04-06T07:49:46.003Z</time></trkpt><trkpt lat="43.69278" lon="12.675"><ele>181.0</ele><time>2026-04-06T07:49:47.003Z</time></trkpt><trkpt lat="43.6926867" lon="12.675025"><ele>181.0</ele><time>2026-04-06T07:49:48.003Z</time></trkpt><trkpt lat="43.692585" lon="12.67507"><ele>182.25</ele><time>2026-04-06T07:49:49.003Z</time></trkpt><trkpt lat="43.6924833" lon="12.6751283"><ele>183.5</ele><time>2026-04-06T07:49:50.003Z</time></trkpt><trkpt lat="43.69238" lon="12.6751883"><ele>184.75</ele><time>2026-04-06T07:49:51.003Z</time></trkpt><trkpt lat="43.6922733" lon="12.675245"><ele>186.0</ele><time>2026-04-06T07:49:52.003Z</time></trkpt><trkpt lat="43.6921633" lon="12.6752867"><ele>188.25</ele><time>2026-04-06T07:49:53.003Z</time></trkpt><trkpt lat="43.6920517" lon="12.6753167"><ele>190.5</ele><time>2026-04-06T07:49:54.003Z</time></trkpt><trkpt lat="43.69194" lon="12.6753383"><ele>192.75</ele><time>2026-04-06T07:49:55.003Z</time></trkpt><trkpt lat="43.691825" lon="12.67534"><ele>195.0</ele><time>2026-04-06T07:49:56.003Z</time></trkpt><trkpt lat="43.6917167" lon="12.675315"><ele>197.2</ele><time>2026-04-06T07:49:57.003Z</time></trkpt><trkpt lat="43.691615" lon="12.6752717"><ele>199.4</ele><time>2026-04-06T07:49:58.003Z</time></trkpt><trkpt lat="43.69152" lon="12.6752283"><ele>201.60000000000002</ele><time>2026-04-06T07:49:59.003Z</time></trkpt><trkpt lat="43.691425" lon="12.6751617"><ele>203.8</ele><time>2026-04-06T07:50:00.003Z</time></trkpt><trkpt lat="43.69134" lon="12.675095"><ele>206.0</ele><time>2026-04-06T07:50:01.003Z</time></trkpt><trkpt lat="43.6912683" lon="12.674995"><ele>206.0</ele><time>2026-04-06T07:50:02.003Z</time></trkpt><trkpt lat="43.691205" lon="12.674875"><ele>206.0</ele><time>2026-04-06T07:50:03.003Z</time></trkpt><trkpt lat="43.6911333" lon="12.6747533"><ele>206.0</ele><time>2026-04-06T07:50:04.003Z</time></trkpt><trkpt lat="43.6910633" lon="12.6746383"><ele>206.0</ele><time>2026-04-06T07:50:05.003Z</time></trkpt><trkpt lat="43.6910033" lon="12.67453"><ele>206.0</ele><time>2026-04-06T07:50:06.003Z</time></trkpt><trkpt lat="43.6909433" lon="12.6744133"><ele>208.75</ele><time>2026-04-06T07:50:07.003Z</time></trkpt><trkpt lat="43.6909067" lon="12.6742767"><ele>211.5</ele><time>2026-04-06T07:50:08.003Z</time></trkpt><trkpt lat="43.6909017" lon="12.67413"><ele>214.25</ele><time>2026-04-06T07:50:09.003Z</time></trkpt><trkpt lat="43.6909033" lon="12.67396"><ele>217.0</ele><time>2026-04-06T07:50:10.003Z</time></trkpt><trkpt lat="43.690905" lon="12.67379"><ele>217.0</ele><time>2026-04-06T07:50:11.003Z</time></trkpt><trkpt lat="43.690915" lon="12.67362"><ele>217.0</ele><time>2026-04-06T07:50:12.003Z</time></trkpt><trkpt lat="43.6909267" lon="12.673455"><ele>217.0</ele><time>2026-04-06T07:50:13.003Z</time></trkpt><trkpt lat="43.6909283" lon="12.6733"><ele>217.0</ele><time>2026-04-06T07:50:14.003Z</time></trkpt><trkpt lat="43.6909283" lon="12.6731567"><ele>216.25</ele><time>2026-04-06T07:50:15.003Z</time></trkpt><trkpt lat="43.6909317" lon="12.6729967"><ele>215.5</ele><time>2026-04-06T07:50:16.003Z</time></trkpt><trkpt lat="43.690945" lon="12.672835"><ele>214.75</ele><time>2026-04-06T07:50:17.003Z</time></trkpt><trkpt lat="43.6909583" lon="12.6726683"><ele>214.0</ele><time>2026-04-06T07:50:18.003Z</time></trkpt><trkpt lat="43.6909667" lon="12.6725017"><ele>212.75</ele><time>2026-04-06T07:50:19.003Z</time></trkpt><trkpt lat="43.6909783" lon="12.6723317"><ele>211.5</ele><time>2026-04-06T07:50:20.003Z</time></trkpt><trkpt lat="43.690985" lon="12.672175"><ele>210.25</ele><time>2026-04-06T07:50:21.003Z</time></trkpt><trkpt lat="43.6909767" lon="12.672"><ele>209.0</ele><time>2026-04-06T07:50:22.003Z</time></trkpt><trkpt lat="43.69095" lon="12.671815"><ele>207.5</ele><time>2026-04-06T07:50:23.003Z</time></trkpt><trkpt lat="43.6909117" lon="12.67163"><ele>206.0</ele><time>2026-04-06T07:50:24.003Z</time></trkpt><trkpt lat="43.6908683" lon="12.6714433"><ele>204.5</ele><time>2026-04-06T07:50:25.003Z</time></trkpt><trkpt lat="43.6908167" lon="12.671255"><ele>203.0</ele><time>2026-04-06T07:50:26.003Z</time></trkpt><trkpt lat="43.6907583" lon="12.671075"><ele>201.75</ele><time>2026-04-06T07:50:27.003Z</time></trkpt><trkpt lat="43.6906983" lon="12.6709133"><ele>200.5</ele><time>2026-04-06T07:50:28.003Z</time></trkpt><trkpt lat="43.690635" lon="12.6707767"><ele>199.25</ele><time>2026-04-06T07:50:29.003Z</time></trkpt><trkpt lat="43.6905667" lon="12.6706617"><ele>198.0</ele><time>2026-04-06T07:50:30.003Z</time></trkpt><trkpt lat="43.6904917" lon="12.670565"><ele>198.0</ele><time>2026-04-06T07:50:31.003Z</time></trkpt><trkpt lat="43.6904117" lon="12.6704833"><ele>198.0</ele><time>2026-04-06T07:50:32.003Z</time></trkpt><trkpt lat="43.690335" lon="12.6704183"><ele>198.0</ele><time>2026-04-06T07:50:33.003Z</time></trkpt><trkpt lat="43.6902583" lon="12.6703667"><ele>198.0</ele><time>2026-04-06T07:50:34.003Z</time></trkpt><trkpt lat="43.69018" lon="12.670335"><ele>198.0</ele><time>2026-04-06T07:50:35.003Z</time></trkpt><trkpt lat="43.6900983" lon="12.6703167"><ele>198.0</ele><time>2026-04-06T07:50:36.003Z</time></trkpt><trkpt lat="43.6900067" lon="12.6703067"><ele>198.16666666666666</ele><time>2026-04-06T07:50:37.003Z</time></trkpt><trkpt lat="43.6899067" lon="12.6703217"><ele>198.33333333333331</ele><time>2026-04-06T07:50:38.003Z</time></trkpt><trkpt lat="43.6898167" lon="12.670335"><ele>198.5</ele><time>2026-04-06T07:50:39.003Z</time></trkpt><trkpt lat="43.6897333" lon="12.6703317"><ele>198.66666666666666</ele><time>2026-04-06T07:50:40.003Z</time></trkpt><trkpt lat="43.6896667" lon="12.6703233"><ele>198.83333333333331</ele><time>2026-04-06T07:50:41.003Z</time></trkpt><trkpt lat="43.689605" lon="12.67024"><ele>199.0</ele><time>2026-04-06T07:50:43.003Z</time></trkpt><trkpt lat="43.6896333" lon="12.6701183"><ele>198.25</ele><time>2026-04-06T07:50:45.003Z</time></trkpt><trkpt lat="43.689715" lon="12.6700183"><ele>197.5</ele><time>2026-04-06T07:50:46.003Z</time></trkpt><trkpt lat="43.6898333" lon="12.6698933"><ele>196.75</ele><time>2026-04-06T07:50:47.003Z</time></trkpt><trkpt lat="43.6899433" lon="12.6697433"><ele>196.0</ele><time>2026-04-06T07:50:48.003Z</time></trkpt><trkpt lat="43.6900683" lon="12.66957"><ele>197.0</ele><time>2026-04-06T07:50:49.003Z</time></trkpt><trkpt lat="43.6901617" lon="12.6693883"><ele>198.0</ele><time>2026-04-06T07:50:50.003Z</time></trkpt><trkpt lat="43.6902533" lon="12.6691917"><ele>199.0</ele><time>2026-04-06T07:50:51.003Z</time></trkpt><trkpt lat="43.690335" lon="12.6690017"><ele>195.66666666666666</ele><time>2026-04-06T07:50:52.003Z</time></trkpt><trkpt lat="43.6903967" lon="12.6688067"><ele>192.33333333333331</ele><time>2026-04-06T07:50:53.003Z</time></trkpt><trkpt lat="43.6904567" lon="12.6686017"><ele>189.0</ele><time>2026-04-06T07:50:54.003Z</time></trkpt><trkpt lat="43.6905" lon="12.6684033"><ele>187.0</ele><time>2026-04-06T07:50:55.003Z</time></trkpt><trkpt lat="43.690545" lon="12.66825"><ele>185.0</ele><time>2026-04-06T07:50:56.003Z</time></trkpt><trkpt lat="43.6906" lon="12.6681167"><ele>183.0</ele><time>2026-04-06T07:50:57.003Z</time></trkpt><trkpt lat="43.6906633" lon="12.6679967"><ele>181.0</ele><time>2026-04-06T07:50:58.003Z</time></trkpt><trkpt lat="43.6907567" lon="12.6678917"><ele>181.0</ele><time>2026-04-06T07:50:59.003Z</time></trkpt><trkpt lat="43.6908633" lon="12.6678117"><ele>181.0</ele><time>2026-04-06T07:51:00.003Z</time></trkpt><trkpt lat="43.69096" lon="12.6677433"><ele>181.0</ele><time>2026-04-06T07:51:01.003Z</time></trkpt><trkpt lat="43.6910417" lon="12.667675"><ele>181.0</ele><time>2026-04-06T07:51:02.003Z</time></trkpt><trkpt lat="43.6911017" lon="12.667585"><ele>181.0</ele><time>2026-04-06T07:51:03.003Z</time></trkpt><trkpt lat="43.69115" lon="12.6674817"><ele>180.25</ele><time>2026-04-06T07:51:04.003Z</time></trkpt><trkpt lat="43.6911767" lon="12.6673667"><ele>179.5</ele><time>2026-04-06T07:51:05.003Z</time></trkpt><trkpt lat="43.6911717" lon="12.6672333"><ele>178.75</ele><time>2026-04-06T07:51:06.003Z</time></trkpt><trkpt lat="43.69114" lon="12.6670683"><ele>178.0</ele><time>2026-04-06T07:51:07.003Z</time></trkpt><trkpt lat="43.6910867" lon="12.6668667"><ele>178.0</ele><time>2026-04-06T07:51:08.003Z</time></trkpt><trkpt lat="43.6910467" lon="12.6666667"><ele>178.0</ele><time>2026-04-06T07:51:09.003Z</time></trkpt><trkpt lat="43.6910083" lon="12.666475"><ele>178.0</ele><time>2026-04-06T07:51:10.003Z</time></trkpt><trkpt lat="43.6909783" lon="12.6662933"><ele>178.0</ele><time>2026-04-06T07:51:11.003Z</time></trkpt><trkpt lat="43.690945" lon="12.6661167"><ele>177.5</ele><time>2026-04-06T07:51:12.003Z</time></trkpt><trkpt lat="43.6908983" lon="12.6659267"><ele>177.0</ele><time>2026-04-06T07:51:13.003Z</time></trkpt><trkpt lat="43.69085" lon="12.66574"><ele>176.5</ele><time>2026-04-06T07:51:14.003Z</time></trkpt><trkpt lat="43.6908017" lon="12.665545"><ele>176.0</ele><time>2026-04-06T07:51:15.003Z</time></trkpt><trkpt lat="43.69075" lon="12.66536"><ele>176.25</ele><time>2026-04-06T07:51:16.003Z</time></trkpt><trkpt lat="43.6907017" lon="12.6651833"><ele>176.5</ele><time>2026-04-06T07:51:17.003Z</time></trkpt><trkpt lat="43.6906633" lon="12.66502"><ele>176.75</ele><time>2026-04-06T07:51:18.003Z</time></trkpt><trkpt lat="43.6906267" lon="12.6648433"><ele>177.0</ele><time>2026-04-06T07:51:19.003Z</time></trkpt><trkpt lat="43.6906067" lon="12.6646733"><ele>177.0</ele><time>2026-04-06T07:51:20.003Z</time></trkpt><trkpt lat="43.69062" lon="12.6645"><ele>177.0</ele><time>2026-04-06T07:51:21.003Z</time></trkpt><trkpt lat="43.6906467" lon="12.6642983"><ele>177.0</ele><time>2026-04-06T07:51:22.003Z</time></trkpt><trkpt lat="43.6906667" lon="12.6641017"><ele>177.0</ele><time>2026-04-06T07:51:23.003Z</time></trkpt><trkpt lat="43.69067" lon="12.6639133"><ele>176.75</ele><time>2026-04-06T07:51:24.003Z</time></trkpt><trkpt lat="43.6906467" lon="12.6637267"><ele>176.5</ele><time>2026-04-06T07:51:25.003Z</time></trkpt><trkpt lat="43.69062" lon="12.6635433"><ele>176.25</ele><time>2026-04-06T07:51:26.003Z</time></trkpt><trkpt lat="43.6905867" lon="12.6633633"><ele>176.0</ele><time>2026-04-06T07:51:27.003Z</time></trkpt><trkpt lat="43.6905417" lon="12.6631767"><ele>175.5</ele><time>2026-04-06T07:51:28.003Z</time></trkpt><trkpt lat="43.6904933" lon="12.66299"><ele>175.0</ele><time>2026-04-06T07:51:29.003Z</time></trkpt><trkpt lat="43.6904483" lon="12.6628033"><ele>174.5</ele><time>2026-04-06T07:51:30.003Z</time></trkpt><trkpt lat="43.69042" lon="12.6626167"><ele>174.0</ele><time>2026-04-06T07:51:31.003Z</time></trkpt><trkpt lat="43.690405" lon="12.6624433"><ele>174.0</ele><time>2026-04-06T07:51:32.003Z</time></trkpt><trkpt lat="43.6903983" lon="12.66228"><ele>174.0</ele><time>2026-04-06T07:51:33.003Z</time></trkpt><trkpt lat="43.6903867" lon="12.662125"><ele>174.0</ele><time>2026-04-06T07:51:34.003Z</time></trkpt><trkpt lat="43.6903433" lon="12.6619633"><ele>174.0</ele><time>2026-04-06T07:51:35.003Z</time></trkpt><trkpt lat="43.690275" lon="12.6618183"><ele>177.25</ele><time>2026-04-06T07:51:36.003Z</time></trkpt><trkpt lat="43.69017" lon="12.6616867"><ele>180.5</ele><time>2026-04-06T07:51:37.003Z</time></trkpt><trkpt lat="43.6900583" lon="12.6615917"><ele>183.75</ele><time>2026-04-06T07:51:38.003Z</time></trkpt><trkpt lat="43.68993" lon="12.6615017"><ele>187.0</ele><time>2026-04-06T07:51:39.003Z</time></trkpt><trkpt lat="43.68981" lon="12.6614133"><ele>187.0</ele><time>2026-04-06T07:51:40.003Z</time></trkpt><trkpt lat="43.6896983" lon="12.661325"><ele>187.0</ele><time>2026-04-06T07:51:41.003Z</time></trkpt><trkpt lat="43.6895917" lon="12.661255"><ele>187.0</ele><time>2026-04-06T07:51:42.003Z</time></trkpt><trkpt lat="43.6894917" lon="12.6612017"><ele>187.0</ele><time>2026-04-06T07:51:43.003Z</time></trkpt><trkpt lat="43.6893833" lon="12.661175"><ele>188.0</ele><time>2026-04-06T07:51:44.003Z</time></trkpt><trkpt lat="43.6892767" lon="12.66117"><ele>189.0</ele><time>2026-04-06T07:51:45.003Z</time></trkpt><trkpt lat="43.689175" lon="12.6611667"><ele>190.0</ele><time>2026-04-06T07:51:46.003Z</time></trkpt><trkpt lat="43.6890683" lon="12.6611283"><ele>191.0</ele><time>2026-04-06T07:51:47.003Z</time></trkpt><trkpt lat="43.6889533" lon="12.6610667"><ele>192.0</ele><time>2026-04-06T07:51:48.003Z</time></trkpt><trkpt lat="43.688825" lon="12.6610033"><ele>192.0</ele><time>2026-04-06T07:51:49.002Z</time></trkpt><trkpt lat="43.6886867" lon="12.6609567"><ele>192.0</ele><time>2026-04-06T07:51:50.003Z</time></trkpt><trkpt lat="43.6885467" lon="12.660925"><ele>192.0</ele><time>2026-04-06T07:51:51.003Z</time></trkpt><trkpt lat="43.688405" lon="12.6609117"><ele>192.0</ele><time>2026-04-06T07:51:52.003Z</time></trkpt><trkpt lat="43.6882617" lon="12.6608817"><ele>193.5</ele><time>2026-04-06T07:51:53.003Z</time></trkpt><trkpt lat="43.68811" lon="12.660845"><ele>195.0</ele><time>2026-04-06T07:51:54.003Z</time></trkpt><trkpt lat="43.68797" lon="12.6607967"><ele>196.5</ele><time>2026-04-06T07:51:55.003Z</time></trkpt><trkpt lat="43.68784" lon="12.6607333"><ele>198.0</ele><time>2026-04-06T07:51:56.003Z</time></trkpt><trkpt lat="43.6877117" lon="12.660665"><ele>200.2</ele><time>2026-04-06T07:51:57.003Z</time></trkpt><trkpt lat="43.68761" lon="12.66062"><ele>202.4</ele><time>2026-04-06T07:51:58.003Z</time></trkpt><trkpt lat="43.687525" lon="12.6606"><ele>204.6</ele><time>2026-04-06T07:51:59.003Z</time></trkpt><trkpt lat="43.6874433" lon="12.6606"><ele>206.79999999999998</ele><time>2026-04-06T07:52:00.003Z</time></trkpt><trkpt lat="43.6873567" lon="12.6606233"><ele>209.0</ele><time>2026-04-06T07:52:01.003Z</time></trkpt><trkpt lat="43.687265" lon="12.6606717"><ele>209.0</ele><time>2026-04-06T07:52:02.003Z</time></trkpt><trkpt lat="43.68718" lon="12.6607267"><ele>209.0</ele><time>2026-04-06T07:52:03.003Z</time></trkpt><trkpt lat="43.687095" lon="12.660735"><ele>209.0</ele><time>2026-04-06T07:52:04.003Z</time></trkpt><trkpt lat="43.6870217" lon="12.6606933"><ele>209.0</ele><time>2026-04-06T07:52:05.003Z</time></trkpt><trkpt lat="43.6869567" lon="12.66062"><ele>209.0</ele><time>2026-04-06T07:52:06.003Z</time></trkpt><trkpt lat="43.6868917" lon="12.6604917"><ele>211.25</ele><time>2026-04-06T07:52:07.003Z</time></trkpt><trkpt lat="43.6868033" lon="12.6603433"><ele>213.5</ele><time>2026-04-06T07:52:08.003Z</time></trkpt><trkpt lat="43.6867133" lon="12.6602067"><ele>215.75</ele><time>2026-04-06T07:52:09.003Z</time></trkpt><trkpt lat="43.686615" lon="12.6600683"><ele>218.0</ele><time>2026-04-06T07:52:10.003Z</time></trkpt><trkpt lat="43.6865333" lon="12.6599367"><ele>218.00000000000003</ele><time>2026-04-06T07:52:11.003Z</time></trkpt><trkpt lat="43.6864617" lon="12.659825"><ele>218.0</ele><time>2026-04-06T07:52:12.003Z</time></trkpt><trkpt lat="43.68639" lon="12.6597367"><ele>218.0</ele><time>2026-04-06T07:52:13.003Z</time></trkpt><trkpt lat="43.6863133" lon="12.6596817"><ele>218.0</ele><time>2026-04-06T07:52:14.003Z</time></trkpt><trkpt lat="43.6862417" lon="12.65967"><ele>218.00000000000003</ele><time>2026-04-06T07:52:15.003Z</time></trkpt><trkpt lat="43.686175" lon="12.6596767"><ele>218.0</ele><time>2026-04-06T07:52:16.003Z</time></trkpt><trkpt lat="43.6861133" lon="12.6597183"><ele>219.66666666666669</ele><time>2026-04-06T07:52:17.003Z</time></trkpt><trkpt lat="43.6860617" lon="12.65982"><ele>221.33333333333334</ele><time>2026-04-06T07:52:18.003Z</time></trkpt><trkpt lat="43.68605" lon="12.659945"><ele>223.0</ele><time>2026-04-06T07:52:19.003Z</time></trkpt><trkpt lat="43.6860283" lon="12.660055"><ele>224.66666666666669</ele><time>2026-04-06T07:52:20.003Z</time></trkpt><trkpt lat="43.6859717" lon="12.66013"><ele>226.33333333333334</ele><time>2026-04-06T07:52:22.003Z</time></trkpt><trkpt lat="43.6859333" lon="12.6600117"><ele>228.0</ele><time>2026-04-06T07:52:24.003Z</time></trkpt><trkpt lat="43.68589" lon="12.6599017"><ele>228.0</ele><time>2026-04-06T07:52:25.003Z</time></trkpt><trkpt lat="43.6858183" lon="12.659775"><ele>228.0</ele><time>2026-04-06T07:52:26.003Z</time></trkpt><trkpt lat="43.685735" lon="12.6596567"><ele>228.0</ele><time>2026-04-06T07:52:27.003Z</time></trkpt><trkpt lat="43.6856183" lon="12.65957"><ele>228.0</ele><time>2026-04-06T07:52:28.003Z</time></trkpt><trkpt lat="43.68548" lon="12.6594983"><ele>226.0</ele><time>2026-04-06T07:52:29.003Z</time></trkpt><trkpt lat="43.685335" lon="12.6594333"><ele>224.0</ele><time>2026-04-06T07:52:30.003Z</time></trkpt><trkpt lat="43.6851867" lon="12.659365"><ele>222.0</ele><time>2026-04-06T07:52:31.003Z</time></trkpt><trkpt lat="43.685045" lon="12.6592967"><ele>225.5</ele><time>2026-04-06T07:52:32.002Z</time></trkpt><trkpt lat="43.6849083" lon="12.6592217"><ele>229.0</ele><time>2026-04-06T07:52:33.003Z</time></trkpt><trkpt lat="43.68478" lon="12.6591367"><ele>232.5</ele><time>2026-04-06T07:52:34.003Z</time></trkpt><trkpt lat="43.68466" lon="12.659045"><ele>236.0</ele><time>2026-04-06T07:52:35.003Z</time></trkpt><trkpt lat="43.6845483" lon="12.6589517"><ele>236.0</ele><time>2026-04-06T07:52:36.003Z</time></trkpt><trkpt lat="43.6844483" lon="12.658865"><ele>236.00000000000003</ele><time>2026-04-06T07:52:37.003Z</time></trkpt><trkpt lat="43.6843567" lon="12.6587867"><ele>236.00000000000003</ele><time>2026-04-06T07:52:38.003Z</time></trkpt><trkpt lat="43.6842667" lon="12.6587133"><ele>236.0</ele><time>2026-04-06T07:52:39.003Z</time></trkpt><trkpt lat="43.684195" lon="12.65863"><ele>236.0</ele><time>2026-04-06T07:52:40.003Z</time></trkpt><trkpt lat="43.6841433" lon="12.6585233"><ele>236.75</ele><time>2026-04-06T07:52:41.003Z</time></trkpt><trkpt lat="43.684105" lon="12.658385"><ele>237.5</ele><time>2026-04-06T07:52:42.003Z</time></trkpt><trkpt lat="43.68408" lon="12.6582267"><ele>238.25</ele><time>2026-04-06T07:52:43.003Z</time></trkpt><trkpt lat="43.6840633" lon="12.6580733"><ele>239.0</ele><time>2026-04-06T07:52:44.003Z</time></trkpt><trkpt lat="43.6840433" lon="12.6579133"><ele>238.79999999999998</ele><time>2026-04-06T07:52:45.003Z</time></trkpt><trkpt lat="43.6840317" lon="12.6577633"><ele>238.59999999999997</ele><time>2026-04-06T07:52:46.003Z</time></trkpt><trkpt lat="43.68401" lon="12.6576283"><ele>238.4</ele><time>2026-04-06T07:52:47.003Z</time></trkpt><trkpt lat="43.6839717" lon="12.657495"><ele>238.2</ele><time>2026-04-06T07:52:48.003Z</time></trkpt><trkpt lat="43.6839117" lon="12.6573533"><ele>238.0</ele><time>2026-04-06T07:52:49.003Z</time></trkpt><trkpt lat="43.683845" lon="12.6572367"><ele>238.0</ele><time>2026-04-06T07:52:50.003Z</time></trkpt><trkpt lat="43.683765" lon="12.657135"><ele>238.0</ele><time>2026-04-06T07:52:51.003Z</time></trkpt><trkpt lat="43.683685" lon="12.6570483"><ele>238.0</ele><time>2026-04-06T07:52:52.003Z</time></trkpt><trkpt lat="43.6836" lon="12.6569833"><ele>238.0</ele><time>2026-04-06T07:52:53.003Z</time></trkpt><trkpt lat="43.6835133" lon="12.6569517"><ele>238.0</ele><time>2026-04-06T07:52:54.003Z</time></trkpt><trkpt lat="43.6834033" lon="12.656925"><ele>236.66666666666666</ele><time>2026-04-06T07:52:55.003Z</time></trkpt><trkpt lat="43.6833067" lon="12.6569017"><ele>235.33333333333331</ele><time>2026-04-06T07:52:56.003Z</time></trkpt><trkpt lat="43.6832117" lon="12.656875"><ele>234.0</ele><time>2026-04-06T07:52:57.003Z</time></trkpt><trkpt lat="43.6831367" lon="12.65684"><ele>232.66666666666669</ele><time>2026-04-06T07:52:58.003Z</time></trkpt><trkpt lat="43.683085" lon="12.656785"><ele>231.33333333333334</ele><time>2026-04-06T07:52:59.003Z</time></trkpt><trkpt lat="43.6830467" lon="12.6567117"><ele>230.0</ele><time>2026-04-06T07:53:00.003Z</time></trkpt><trkpt lat="43.683025" lon="12.656625"><ele>230.0</ele><time>2026-04-06T07:53:01.003Z</time></trkpt><trkpt lat="43.6830033" lon="12.65652"><ele>230.0</ele><time>2026-04-06T07:53:02.003Z</time></trkpt><trkpt lat="43.683" lon="12.6564083"><ele>230.0</ele><time>2026-04-06T07:53:03.003Z</time></trkpt><trkpt lat="43.682965" lon="12.6562933"><ele>230.0</ele><time>2026-04-06T07:53:04.003Z</time></trkpt><trkpt lat="43.6828983" lon="12.6561667"><ele>230.0</ele><time>2026-04-06T07:53:05.003Z</time></trkpt><trkpt lat="43.6828133" lon="12.65605"><ele>231.5</ele><time>2026-04-06T07:53:06.003Z</time></trkpt><trkpt lat="43.6827117" lon="12.65593"><ele>233.0</ele><time>2026-04-06T07:53:07.003Z</time></trkpt><trkpt lat="43.6826017" lon="12.6557933"><ele>234.5</ele><time>2026-04-06T07:53:08.003Z</time></trkpt><trkpt lat="43.6824817" lon="12.6556483"><ele>236.0</ele><time>2026-04-06T07:53:09.003Z</time></trkpt><trkpt lat="43.68236" lon="12.655505"><ele>236.0</ele><time>2026-04-06T07:53:10.003Z</time></trkpt><trkpt lat="43.6822367" lon="12.6553583"><ele>236.0</ele><time>2026-04-06T07:53:11.003Z</time></trkpt><trkpt lat="43.6821167" lon="12.6552083"><ele>236.0</ele><time>2026-04-06T07:53:12.003Z</time></trkpt><trkpt lat="43.6820183" lon="12.65508"><ele>237.20000000000002</ele><time>2026-04-06T07:53:13.003Z</time></trkpt><trkpt lat="43.6819267" lon="12.65495"><ele>238.40000000000003</ele><time>2026-04-06T07:53:14.003Z</time></trkpt><trkpt lat="43.6818633" lon="12.6548233"><ele>239.6</ele><time>2026-04-06T07:53:15.003Z</time></trkpt><trkpt lat="43.6818233" lon="12.6546917"><ele>240.8</ele><time>2026-04-06T07:53:16.002Z</time></trkpt><trkpt lat="43.6818017" lon="12.6545733"><ele>242.0</ele><time>2026-04-06T07:53:17.003Z</time></trkpt><trkpt lat="43.681775" lon="12.6544633"><ele>243.00000000000003</ele><time>2026-04-06T07:53:18.003Z</time></trkpt><trkpt lat="43.6817417" lon="12.6543667"><ele>244.0</ele><time>2026-04-06T07:53:19.003Z</time></trkpt><trkpt lat="43.6816933" lon="12.6543033"><ele>245.0</ele><time>2026-04-06T07:53:20.003Z</time></trkpt><trkpt lat="43.681635" lon="12.654265"><ele>246.0</ele><time>2026-04-06T07:53:21.003Z</time></trkpt><trkpt lat="43.6815617" lon="12.6542533"><ele>247.00000000000003</ele><time>2026-04-06T07:53:22.003Z</time></trkpt><trkpt lat="43.6814433" lon="12.6542867"><ele>248.0</ele><time>2026-04-06T07:53:23.003Z</time></trkpt><trkpt lat="43.681315" lon="12.6543117"><ele>248.0</ele><time>2026-04-06T07:53:24.003Z</time></trkpt><trkpt lat="43.6811717" lon="12.65431"><ele>248.0</ele><time>2026-04-06T07:53:25.002Z</time></trkpt><trkpt lat="43.681045" lon="12.65428"><ele>248.0</ele><time>2026-04-06T07:53:26.003Z</time></trkpt><trkpt lat="43.6809133" lon="12.6543"><ele>248.0</ele><time>2026-04-06T07:53:27.003Z</time></trkpt><trkpt lat="43.6807717" lon="12.65432"><ele>247.75</ele><time>2026-04-06T07:53:28.003Z</time></trkpt><trkpt lat="43.68062" lon="12.65437"><ele>247.5</ele><time>2026-04-06T07:53:29.003Z</time></trkpt><trkpt lat="43.68048" lon="12.6544217"><ele>247.25</ele><time>2026-04-06T07:53:30.003Z</time></trkpt><trkpt lat="43.6803483" lon="12.6544633"><ele>247.0</ele><time>2026-04-06T07:53:31.003Z</time></trkpt><trkpt lat="43.6802217" lon="12.654505"><ele>245.2</ele><time>2026-04-06T07:53:32.003Z</time></trkpt><trkpt lat="43.6801" lon="12.6545433"><ele>243.39999999999998</ele><time>2026-04-06T07:53:33.003Z</time></trkpt><trkpt lat="43.67999" lon="12.6545667"><ele>241.60000000000002</ele><time>2026-04-06T07:53:34.003Z</time></trkpt><trkpt lat="43.679895" lon="12.6545917"><ele>239.8</ele><time>2026-04-06T07:53:35.003Z</time></trkpt><trkpt lat="43.6798133" lon="12.654625"><ele>238.0</ele><time>2026-04-06T07:53:36.003Z</time></trkpt><trkpt lat="43.6797317" lon="12.654675"><ele>237.99999999999997</ele><time>2026-04-06T07:53:37.003Z</time></trkpt><trkpt lat="43.67965" lon="12.65472"><ele>238.0</ele><time>2026-04-06T07:53:38.003Z</time></trkpt><trkpt lat="43.6795783" lon="12.65472"><ele>238.0</ele><time>2026-04-06T07:53:39.003Z</time></trkpt><trkpt lat="43.6795133" lon="12.6546967"><ele>238.0</ele><time>2026-04-06T07:53:40.003Z</time></trkpt><trkpt lat="43.6794467" lon="12.6545483"><ele>237.99999999999997</ele><time>2026-04-06T07:53:42.003Z</time></trkpt><trkpt lat="43.6794417" lon="12.6544517"><ele>238.0</ele><time>2026-04-06T07:53:43.003Z</time></trkpt><trkpt lat="43.6794467" lon="12.6543417"><ele>235.75</ele><time>2026-04-06T07:53:44.003Z</time></trkpt><trkpt lat="43.679485" lon="12.6542117"><ele>233.5</ele><time>2026-04-06T07:53:45.003Z</time></trkpt><trkpt lat="43.6795433" lon="12.6540583"><ele>231.25</ele><time>2026-04-06T07:53:46.003Z</time></trkpt><trkpt lat="43.67961" lon="12.65389"><ele>229.0</ele><time>2026-04-06T07:53:47.003Z</time></trkpt><trkpt lat="43.6797083" lon="12.6536833"><ele>227.0</ele><time>2026-04-06T07:53:48.003Z</time></trkpt><trkpt lat="43.6797883" lon="12.6534883"><ele>225.0</ele><time>2026-04-06T07:53:49.003Z</time></trkpt><trkpt lat="43.6798683" lon="12.6532933"><ele>223.0</ele><time>2026-04-06T07:53:50.003Z</time></trkpt><trkpt lat="43.67995" lon="12.6531167"><ele>223.0</ele><time>2026-04-06T07:53:51.003Z</time></trkpt><trkpt lat="43.6800133" lon="12.652955"><ele>223.0</ele><time>2026-04-06T07:53:52.003Z</time></trkpt><trkpt lat="43.68006" lon="12.6527983"><ele>223.0</ele><time>2026-04-06T07:53:53.003Z</time></trkpt><trkpt lat="43.68008" lon="12.6526233"><ele>223.0</ele><time>2026-04-06T07:53:54.003Z</time></trkpt><trkpt lat="43.6801033" lon="12.652435"><ele>222.33333333333331</ele><time>2026-04-06T07:53:55.003Z</time></trkpt><trkpt lat="43.6801217" lon="12.652235"><ele>221.66666666666669</ele><time>2026-04-06T07:53:56.003Z</time></trkpt><trkpt lat="43.6801333" lon="12.652015"><ele>221.0</ele><time>2026-04-06T07:53:57.003Z</time></trkpt><trkpt lat="43.68014" lon="12.651785"><ele>219.66666666666669</ele><time>2026-04-06T07:53:58.003Z</time></trkpt><trkpt lat="43.680145" lon="12.6515583"><ele>218.33333333333331</ele><time>2026-04-06T07:53:59.003Z</time></trkpt><trkpt lat="43.6801467" lon="12.6513483"><ele>217.0</ele><time>2026-04-06T07:54:00.003Z</time></trkpt><trkpt lat="43.6801583" lon="12.6511633"><ele>215.75</ele><time>2026-04-06T07:54:01.003Z</time></trkpt><trkpt lat="43.6801767" lon="12.6509883"><ele>214.5</ele><time>2026-04-06T07:54:02.003Z</time></trkpt><trkpt lat="43.6801983" lon="12.6508267"><ele>213.25</ele><time>2026-04-06T07:54:03.003Z</time></trkpt><trkpt lat="43.680215" lon="12.6506633"><ele>212.0</ele><time>2026-04-06T07:54:04.003Z</time></trkpt><trkpt lat="43.6802083" lon="12.6504917"><ele>212.0</ele><time>2026-04-06T07:54:05.003Z</time></trkpt><trkpt lat="43.6801833" lon="12.65033"><ele>212.0</ele><time>2026-04-06T07:54:06.003Z</time></trkpt><trkpt lat="43.680135" lon="12.6501583"><ele>212.0</ele><time>2026-04-06T07:54:07.003Z</time></trkpt><trkpt lat="43.6800833" lon="12.6499833"><ele>212.0</ele><time>2026-04-06T07:54:08.003Z</time></trkpt><trkpt lat="43.6800267" lon="12.6497933"><ele>211.25</ele><time>2026-04-06T07:54:09.003Z</time></trkpt><trkpt lat="43.679965" lon="12.6495983"><ele>210.5</ele><time>2026-04-06T07:54:10.003Z</time></trkpt><trkpt lat="43.6799033" lon="12.6494133"><ele>209.75</ele><time>2026-04-06T07:54:11.003Z</time></trkpt><trkpt lat="43.6798433" lon="12.6492367"><ele>209.0</ele><time>2026-04-06T07:54:12.003Z</time></trkpt><trkpt lat="43.679775" lon="12.6490617"><ele>207.75</ele><time>2026-04-06T07:54:13.003Z</time></trkpt><trkpt lat="43.6797067" lon="12.64889"><ele>206.5</ele><time>2026-04-06T07:54:14.003Z</time></trkpt><trkpt lat="43.6796483" lon="12.6487333"><ele>205.25</ele><time>2026-04-06T07:54:15.003Z</time></trkpt><trkpt lat="43.679585" lon="12.648585"><ele>204.0</ele><time>2026-04-06T07:54:16.003Z</time></trkpt><trkpt lat="43.6795133" lon="12.6484433"><ele>204.75</ele><time>2026-04-06T07:54:17.003Z</time></trkpt><trkpt lat="43.6794317" lon="12.648295"><ele>205.5</ele><time>2026-04-06T07:54:18.003Z</time></trkpt><trkpt lat="43.67934" lon="12.6481417"><ele>206.25</ele><time>2026-04-06T07:54:19.003Z</time></trkpt><trkpt lat="43.6792417" lon="12.6480183"><ele>207.0</ele><time>2026-04-06T07:54:20.003Z</time></trkpt><trkpt lat="43.679135" lon="12.6479167"><ele>207.0</ele><time>2026-04-06T07:54:21.003Z</time></trkpt><trkpt lat="43.6790233" lon="12.6478117"><ele>207.0</ele><time>2026-04-06T07:54:22.003Z</time></trkpt><trkpt lat="43.678915" lon="12.6477333"><ele>207.0</ele><time>2026-04-06T07:54:23.003Z</time></trkpt><trkpt lat="43.6788167" lon="12.64769"><ele>207.0</ele><time>2026-04-06T07:54:24.003Z</time></trkpt><trkpt lat="43.678715" lon="12.6476317"><ele>206.0</ele><time>2026-04-06T07:54:25.003Z</time></trkpt><trkpt lat="43.67861" lon="12.6475883"><ele>205.0</ele><time>2026-04-06T07:54:26.003Z</time></trkpt><trkpt lat="43.67851" lon="12.6475483"><ele>204.0</ele><time>2026-04-06T07:54:27.003Z</time></trkpt><trkpt lat="43.6784033" lon="12.6475217"><ele>203.0</ele><time>2026-04-06T07:54:28.003Z</time></trkpt><trkpt lat="43.6783" lon="12.6475167"><ele>202.0</ele><time>2026-04-06T07:54:29.003Z</time></trkpt><trkpt lat="43.6781933" lon="12.647535"><ele>202.0</ele><time>2026-04-06T07:54:30.003Z</time></trkpt><trkpt lat="43.6780833" lon="12.647565"><ele>202.0</ele><time>2026-04-06T07:54:31.003Z</time></trkpt><trkpt lat="43.677965" lon="12.6476083"><ele>202.0</ele><time>2026-04-06T07:54:32.003Z</time></trkpt><trkpt lat="43.6778367" lon="12.6476683"><ele>202.0</ele><time>2026-04-06T07:54:33.003Z</time></trkpt><trkpt lat="43.6777" lon="12.6477533"><ele>204.66666666666666</ele><time>2026-04-06T07:54:34.003Z</time></trkpt><trkpt lat="43.67756" lon="12.647835"><ele>207.33333333333331</ele><time>2026-04-06T07:54:35.003Z</time></trkpt><trkpt lat="43.67742" lon="12.6479183"><ele>210.0</ele><time>2026-04-06T07:54:36.003Z</time></trkpt><trkpt lat="43.6772817" lon="12.6479933"><ele>210.0</ele><time>2026-04-06T07:54:37.003Z</time></trkpt><trkpt lat="43.6771533" lon="12.6480517"><ele>210.0</ele><time>2026-04-06T07:54:38.003Z</time></trkpt><trkpt lat="43.6770483" lon="12.6481083"><ele>210.0</ele><time>2026-04-06T07:54:39.003Z</time></trkpt><trkpt lat="43.6769483" lon="12.648165"><ele>210.0</ele><time>2026-04-06T07:54:40.003Z</time></trkpt><trkpt lat="43.6768517" lon="12.6482167"><ele>206.75</ele><time>2026-04-06T07:54:41.003Z</time></trkpt><trkpt lat="43.6767517" lon="12.64827"><ele>203.5</ele><time>2026-04-06T07:54:42.003Z</time></trkpt><trkpt lat="43.676645" lon="12.6483083"><ele>200.25</ele><time>2026-04-06T07:54:43.003Z</time></trkpt><trkpt lat="43.6765233" lon="12.648365"><ele>197.0</ele><time>2026-04-06T07:54:44.003Z</time></trkpt><trkpt lat="43.6763967" lon="12.64841"><ele>197.0</ele><time>2026-04-06T07:54:45.003Z</time></trkpt><trkpt lat="43.6762717" lon="12.6484433"><ele>197.0</ele><time>2026-04-06T07:54:46.003Z</time></trkpt><trkpt lat="43.6761483" lon="12.6484667"><ele>197.0</ele><time>2026-04-06T07:54:47.003Z</time></trkpt><trkpt lat="43.6760167" lon="12.648465"><ele>197.0</ele><time>2026-04-06T07:54:48.003Z</time></trkpt><trkpt lat="43.67588" lon="12.6484367"><ele>196.75</ele><time>2026-04-06T07:54:49.003Z</time></trkpt><trkpt lat="43.6757367" lon="12.648405"><ele>196.5</ele><time>2026-04-06T07:54:50.003Z</time></trkpt><trkpt lat="43.6755983" lon="12.64836"><ele>196.25</ele><time>2026-04-06T07:54:51.003Z</time></trkpt><trkpt lat="43.6754667" lon="12.6483333"><ele>196.0</ele><time>2026-04-06T07:54:52.003Z</time></trkpt><trkpt lat="43.67535" lon="12.6483167"><ele>197.4</ele><time>2026-04-06T07:54:53.003Z</time></trkpt><trkpt lat="43.6752517" lon="12.6483117"><ele>198.8</ele><time>2026-04-06T07:54:54.003Z</time></trkpt><trkpt lat="43.6751833" lon="12.6483333"><ele>200.20000000000002</ele><time>2026-04-06T07:54:55.003Z</time></trkpt><trkpt lat="43.6750867" lon="12.6483767"><ele>201.60000000000002</ele><time>2026-04-06T07:54:57.003Z</time></trkpt><trkpt lat="43.6750367" lon="12.6483"><ele>203.0</ele><time>2026-04-06T07:55:00.003Z</time></trkpt><trkpt lat="43.6749667" lon="12.6481867"><ele>203.0</ele><time>2026-04-06T07:55:25.003Z</time></trkpt><trkpt lat="43.674905" lon="12.648145"><ele>203.0</ele><time>2026-04-06T07:55:26.003Z</time></trkpt><trkpt lat="43.6748167" lon="12.648105"><ele>203.0</ele><time>2026-04-06T07:55:27.003Z</time></trkpt><trkpt lat="43.6747017" lon="12.6480633"><ele>203.0</ele><time>2026-04-06T07:55:28.003Z</time></trkpt><trkpt lat="43.6745567" lon="12.6480183"><ele>203.0</ele><time>2026-04-06T07:55:29.002Z</time></trkpt><trkpt lat="43.67441" lon="12.6479867"><ele>204.25</ele><time>2026-04-06T07:55:30.003Z</time></trkpt><trkpt lat="43.6742717" lon="12.6479567"><ele>205.5</ele><time>2026-04-06T07:55:31.003Z</time></trkpt><trkpt lat="43.674125" lon="12.6479233"><ele>206.75</ele><time>2026-04-06T07:55:32.003Z</time></trkpt><trkpt lat="43.67398" lon="12.6478717"><ele>208.0</ele><time>2026-04-06T07:55:33.003Z</time></trkpt><trkpt lat="43.6738367" lon="12.64784"><ele>208.0</ele><time>2026-04-06T07:55:34.003Z</time></trkpt><trkpt lat="43.6737067" lon="12.647815"><ele>208.0</ele><time>2026-04-06T07:55:35.003Z</time></trkpt><trkpt lat="43.6735933" lon="12.6477917"><ele>208.0</ele><time>2026-04-06T07:55:36.003Z</time></trkpt><trkpt lat="43.6734817" lon="12.6477733"><ele>208.0</ele><time>2026-04-06T07:55:37.003Z</time></trkpt><trkpt lat="43.6733833" lon="12.6477633"><ele>207.2</ele><time>2026-04-06T07:55:38.003Z</time></trkpt><trkpt lat="43.6732983" lon="12.6477417"><ele>206.4</ele><time>2026-04-06T07:55:39.003Z</time></trkpt><trkpt lat="43.6732167" lon="12.6476767"><ele>205.6</ele><time>2026-04-06T07:55:40.003Z</time></trkpt><trkpt lat="43.6731517" lon="12.64756"><ele>204.79999999999998</ele><time>2026-04-06T07:55:41.003Z</time></trkpt><trkpt lat="43.6731217" lon="12.6474"><ele>204.0</ele><time>2026-04-06T07:55:42.003Z</time></trkpt><trkpt lat="43.673115" lon="12.6472183"><ele>204.0</ele><time>2026-04-06T07:55:43.003Z</time></trkpt><trkpt lat="43.673115" lon="12.6470267"><ele>204.0</ele><time>2026-04-06T07:55:44.003Z</time></trkpt><trkpt lat="43.6731183" lon="12.64683"><ele>204.0</ele><time>2026-04-06T07:55:45.003Z</time></trkpt><trkpt lat="43.6731183" lon="12.6466333"><ele>204.0</ele><time>2026-04-06T07:55:46.003Z</time></trkpt><trkpt lat="43.6731167" lon="12.646435"><ele>203.25</ele><time>2026-04-06T07:55:47.003Z</time></trkpt><trkpt lat="43.67312" lon="12.646235"><ele>202.5</ele><time>2026-04-06T07:55:48.003Z</time></trkpt><trkpt lat="43.6731217" lon="12.646035"><ele>201.75</ele><time>2026-04-06T07:55:49.003Z</time></trkpt><trkpt lat="43.6731233" lon="12.645835"><ele>201.0</ele><time>2026-04-06T07:55:50.003Z</time></trkpt><trkpt lat="43.6731317" lon="12.6456417"><ele>201.0</ele><time>2026-04-06T07:55:51.003Z</time></trkpt><trkpt lat="43.67315" lon="12.645455"><ele>201.0</ele><time>2026-04-06T07:55:52.003Z</time></trkpt><trkpt lat="43.6731683" lon="12.6452733"><ele>201.0</ele><time>2026-04-06T07:55:53.003Z</time></trkpt><trkpt lat="43.6731883" lon="12.6450817"><ele>201.0</ele><time>2026-04-06T07:55:54.003Z</time></trkpt><trkpt lat="43.6732133" lon="12.6448867"><ele>200.0</ele><time>2026-04-06T07:55:55.003Z</time></trkpt><trkpt lat="43.6732467" lon="12.6446917"><ele>199.0</ele><time>2026-04-06T07:55:56.003Z</time></trkpt><trkpt lat="43.67327" lon="12.6445017"><ele>198.0</ele><time>2026-04-06T07:55:57.003Z</time></trkpt><trkpt lat="43.6732983" lon="12.64432"><ele>197.0</ele><time>2026-04-06T07:55:58.003Z</time></trkpt><trkpt lat="43.6733267" lon="12.64413"><ele>196.5</ele><time>2026-04-06T07:55:59.003Z</time></trkpt><trkpt lat="43.6733517" lon="12.6439317"><ele>196.0</ele><time>2026-04-06T07:56:00.003Z</time></trkpt><trkpt lat="43.6733833" lon="12.6437267"><ele>195.5</ele><time>2026-04-06T07:56:01.003Z</time></trkpt><trkpt lat="43.6734117" lon="12.643525"><ele>195.0</ele><time>2026-04-06T07:56:02.003Z</time></trkpt><trkpt lat="43.6734417" lon="12.643325"><ele>196.5</ele><time>2026-04-06T07:56:03.003Z</time></trkpt><trkpt lat="43.673455" lon="12.6431333"><ele>198.0</ele><time>2026-04-06T07:56:04.003Z</time></trkpt><trkpt lat="43.673435" lon="12.6429417"><ele>199.5</ele><time>2026-04-06T07:56:05.003Z</time></trkpt><trkpt lat="43.6733917" lon="12.642755"><ele>201.0</ele><time>2026-04-06T07:56:06.003Z</time></trkpt><trkpt lat="43.6733233" lon="12.6425767"><ele>205.0</ele><time>2026-04-06T07:56:07.003Z</time></trkpt><trkpt lat="43.673245" lon="12.64239"><ele>209.0</ele><time>2026-04-06T07:56:08.003Z</time></trkpt><trkpt lat="43.673165" lon="12.6422133"><ele>213.0</ele><time>2026-04-06T07:56:09.003Z</time></trkpt><trkpt lat="43.6730833" lon="12.6420417"><ele>217.0</ele><time>2026-04-06T07:56:10.003Z</time></trkpt><trkpt lat="43.6729967" lon="12.6418683"><ele>221.0</ele><time>2026-04-06T07:56:11.003Z</time></trkpt><trkpt lat="43.672925" lon="12.641685"><ele>225.0</ele><time>2026-04-06T07:56:12.003Z</time></trkpt><trkpt lat="43.6728583" lon="12.6415"><ele>225.0</ele><time>2026-04-06T07:56:13.003Z</time></trkpt><trkpt lat="43.672795" lon="12.641305"><ele>225.0</ele><time>2026-04-06T07:56:14.003Z</time></trkpt><trkpt lat="43.672735" lon="12.64111"><ele>225.0</ele><time>2026-04-06T07:56:15.003Z</time></trkpt><trkpt lat="43.672675" lon="12.6409117"><ele>219.66666666666669</ele><time>2026-04-06T07:56:16.003Z</time></trkpt><trkpt lat="43.6726117" lon="12.640725"><ele>214.33333333333334</ele><time>2026-04-06T07:56:17.003Z</time></trkpt><trkpt lat="43.67254" lon="12.64052"><ele>209.0</ele><time>2026-04-06T07:56:18.003Z</time></trkpt><trkpt lat="43.672475" lon="12.64031"><ele>209.0</ele><time>2026-04-06T07:56:19.003Z</time></trkpt><trkpt lat="43.6724083" lon="12.6401033"><ele>209.0</ele><time>2026-04-06T07:56:20.003Z</time></trkpt><trkpt lat="43.67234" lon="12.63991"><ele>209.0</ele><time>2026-04-06T07:56:21.003Z</time></trkpt><trkpt lat="43.672285" lon="12.639715"><ele>209.0</ele><time>2026-04-06T07:56:22.003Z</time></trkpt><trkpt lat="43.6722133" lon="12.6395133"><ele>209.0</ele><time>2026-04-06T07:56:23.003Z</time></trkpt><trkpt lat="43.6721417" lon="12.6393017"><ele>209.0</ele><time>2026-04-06T07:56:24.003Z</time></trkpt><trkpt lat="43.6720717" lon="12.6390917"><ele>209.0</ele><time>2026-04-06T07:56:25.003Z</time></trkpt><trkpt lat="43.6719933" lon="12.63887"><ele>209.0</ele><time>2026-04-06T07:56:26.003Z</time></trkpt><trkpt lat="43.6719167" lon="12.638645"><ele>209.0</ele><time>2026-04-06T07:56:27.003Z</time></trkpt><trkpt lat="43.6718433" lon="12.6384167"><ele>208.0</ele><time>2026-04-06T07:56:28.003Z</time></trkpt><trkpt lat="43.671765" lon="12.638185"><ele>207.0</ele><time>2026-04-06T07:56:29.003Z</time></trkpt><trkpt lat="43.6716867" lon="12.6379383"><ele>206.0</ele><time>2026-04-06T07:56:30.002Z</time></trkpt><trkpt lat="43.6716033" lon="12.6376933"><ele>206.0</ele><time>2026-04-06T07:56:31.003Z</time></trkpt><trkpt lat="43.6715217" lon="12.63745"><ele>206.0</ele><time>2026-04-06T07:56:32.003Z</time></trkpt><trkpt lat="43.6714383" lon="12.63721"><ele>206.0</ele><time>2026-04-06T07:56:33.003Z</time></trkpt><trkpt lat="43.671355" lon="12.6369683"><ele>206.0</ele><time>2026-04-06T07:56:34.003Z</time></trkpt><trkpt lat="43.6712767" lon="12.6367333"><ele>206.0</ele><time>2026-04-06T07:56:35.003Z</time></trkpt><trkpt lat="43.6711983" lon="12.6365"><ele>206.0</ele><time>2026-04-06T07:56:36.003Z</time></trkpt><trkpt lat="43.6711133" lon="12.6362667"><ele>204.66666666666669</ele><time>2026-04-06T07:56:37.003Z</time></trkpt><trkpt lat="43.6710317" lon="12.6360383"><ele>203.33333333333331</ele><time>2026-04-06T07:56:38.003Z</time></trkpt><trkpt lat="43.6709583" lon="12.6358083"><ele>202.0</ele><time>2026-04-06T07:56:39.003Z</time></trkpt><trkpt lat="43.6708833" lon="12.635575"><ele>202.0</ele><time>2026-04-06T07:56:40.003Z</time></trkpt><trkpt lat="43.67081" lon="12.6353567"><ele>202.0</ele><time>2026-04-06T07:56:41.003Z</time></trkpt><trkpt lat="43.6707283" lon="12.6351333"><ele>202.0</ele><time>2026-04-06T07:56:42.003Z</time></trkpt><trkpt lat="43.67065" lon="12.634915"><ele>202.66666666666666</ele><time>2026-04-06T07:56:43.003Z</time></trkpt><trkpt lat="43.6705733" lon="12.6346883"><ele>203.33333333333331</ele><time>2026-04-06T07:56:44.003Z</time></trkpt><trkpt lat="43.6705" lon="12.634465"><ele>204.0</ele><time>2026-04-06T07:56:45.003Z</time></trkpt><trkpt lat="43.6704283" lon="12.6342383"><ele>204.0</ele><time>2026-04-06T07:56:46.003Z</time></trkpt><trkpt lat="43.6703533" lon="12.634015"><ele>204.0</ele><time>2026-04-06T07:56:47.003Z</time></trkpt><trkpt lat="43.6702817" lon="12.6337983"><ele>204.0</ele><time>2026-04-06T07:56:48.003Z</time></trkpt><trkpt lat="43.6702083" lon="12.6335717"><ele>204.33333333333331</ele><time>2026-04-06T07:56:49.003Z</time></trkpt><trkpt lat="43.6701267" lon="12.6333517"><ele>204.66666666666666</ele><time>2026-04-06T07:56:50.003Z</time></trkpt><trkpt lat="43.6700433" lon="12.63312"><ele>205.0</ele><time>2026-04-06T07:56:51.003Z</time></trkpt><trkpt lat="43.669965" lon="12.6328917"><ele>205.66666666666666</ele><time>2026-04-06T07:56:52.003Z</time></trkpt><trkpt lat="43.669885" lon="12.6326633"><ele>206.33333333333331</ele><time>2026-04-06T07:56:53.003Z</time></trkpt><trkpt lat="43.6698033" lon="12.6324333"><ele>207.0</ele><time>2026-04-06T07:56:54.003Z</time></trkpt><trkpt lat="43.669725" lon="12.63221"><ele>207.0</ele><time>2026-04-06T07:56:55.003Z</time></trkpt><trkpt lat="43.669645" lon="12.6319833"><ele>207.0</ele><time>2026-04-06T07:56:56.003Z</time></trkpt><trkpt lat="43.66957" lon="12.6317517"><ele>207.0</ele><time>2026-04-06T07:56:57.003Z</time></trkpt><trkpt lat="43.66949" lon="12.6315183"><ele>207.0</ele><time>2026-04-06T07:56:58.003Z</time></trkpt><trkpt lat="43.6694133" lon="12.631285"><ele>207.0</ele><time>2026-04-06T07:56:59.003Z</time></trkpt><trkpt lat="43.66933" lon="12.63105"><ele>207.0</ele><time>2026-04-06T07:57:00.003Z</time></trkpt><trkpt lat="43.66925" lon="12.6308083"><ele>207.0</ele><time>2026-04-06T07:57:01.003Z</time></trkpt><trkpt lat="43.6691717" lon="12.6305717"><ele>207.0</ele><time>2026-04-06T07:57:02.003Z</time></trkpt><trkpt lat="43.66909" lon="12.6303333"><ele>207.0</ele><time>2026-04-06T07:57:03.003Z</time></trkpt><trkpt lat="43.66901" lon="12.6301033"><ele>207.33333333333331</ele><time>2026-04-06T07:57:04.003Z</time></trkpt><trkpt lat="43.668925" lon="12.62987"><ele>207.66666666666666</ele><time>2026-04-06T07:57:05.003Z</time></trkpt><trkpt lat="43.668845" lon="12.6296333"><ele>208.0</ele><time>2026-04-06T07:57:06.003Z</time></trkpt><trkpt lat="43.668765" lon="12.6293983"><ele>208.33333333333331</ele><time>2026-04-06T07:57:07.003Z</time></trkpt><trkpt lat="43.668685" lon="12.629165"><ele>208.66666666666669</ele><time>2026-04-06T07:57:08.003Z</time></trkpt><trkpt lat="43.6686067" lon="12.6289283"><ele>209.0</ele><time>2026-04-06T07:57:09.003Z</time></trkpt><trkpt lat="43.6685267" lon="12.62869"><ele>209.33333333333334</ele><time>2026-04-06T07:57:10.003Z</time></trkpt><trkpt lat="43.6684383" lon="12.628455"><ele>209.66666666666669</ele><time>2026-04-06T07:57:11.003Z</time></trkpt><trkpt lat="43.6683483" lon="12.62822"><ele>210.0</ele><time>2026-04-06T07:57:12.003Z</time></trkpt><trkpt lat="43.6682617" lon="12.62799"><ele>211.0</ele><time>2026-04-06T07:57:13.003Z</time></trkpt><trkpt lat="43.66818" lon="12.6277617"><ele>212.0</ele><time>2026-04-06T07:57:14.003Z</time></trkpt><trkpt lat="43.6681" lon="12.627525"><ele>213.0</ele><time>2026-04-06T07:57:15.003Z</time></trkpt><trkpt lat="43.66802" lon="12.6272867"><ele>213.0</ele><time>2026-04-06T07:57:16.003Z</time></trkpt><trkpt lat="43.6679483" lon="12.6270517"><ele>213.0</ele><time>2026-04-06T07:57:17.003Z</time></trkpt><trkpt lat="43.6678733" lon="12.6268283"><ele>213.0</ele><time>2026-04-06T07:57:18.003Z</time></trkpt><trkpt lat="43.6677933" lon="12.6266033"><ele>212.33333333333331</ele><time>2026-04-06T07:57:19.003Z</time></trkpt><trkpt lat="43.667715" lon="12.6263717"><ele>211.66666666666666</ele><time>2026-04-06T07:57:20.002Z</time></trkpt><trkpt lat="43.6676367" lon="12.6261317"><ele>211.0</ele><time>2026-04-06T07:57:21.003Z</time></trkpt><trkpt lat="43.66756" lon="12.625895"><ele>211.0</ele><time>2026-04-06T07:57:22.003Z</time></trkpt><trkpt lat="43.6674767" lon="12.6256633"><ele>211.0</ele><time>2026-04-06T07:57:23.003Z</time></trkpt><trkpt lat="43.6673967" lon="12.6254467"><ele>211.0</ele><time>2026-04-06T07:57:24.003Z</time></trkpt><trkpt lat="43.6673133" lon="12.6252083"><ele>211.33333333333331</ele><time>2026-04-06T07:57:25.003Z</time></trkpt><trkpt lat="43.6672333" lon="12.6249883"><ele>211.66666666666669</ele><time>2026-04-06T07:57:26.003Z</time></trkpt><trkpt lat="43.6671517" lon="12.624755"><ele>212.0</ele><time>2026-04-06T07:57:27.003Z</time></trkpt><trkpt lat="43.6670633" lon="12.6245183"><ele>212.66666666666669</ele><time>2026-04-06T07:57:28.003Z</time></trkpt><trkpt lat="43.66699" lon="12.6242917"><ele>213.33333333333331</ele><time>2026-04-06T07:57:29.003Z</time></trkpt><trkpt lat="43.6669133" lon="12.62406"><ele>214.0</ele><time>2026-04-06T07:57:30.003Z</time></trkpt><trkpt lat="43.6668283" lon="12.623825"><ele>214.66666666666666</ele><time>2026-04-06T07:57:31.003Z</time></trkpt><trkpt lat="43.66675" lon="12.6235917"><ele>215.33333333333331</ele><time>2026-04-06T07:57:32.003Z</time></trkpt><trkpt lat="43.666665" lon="12.6233633"><ele>216.0</ele><time>2026-04-06T07:57:33.003Z</time></trkpt><trkpt lat="43.6665917" lon="12.6231217"><ele>216.0</ele><time>2026-04-06T07:57:34.003Z</time></trkpt><trkpt lat="43.66651" lon="12.6228817"><ele>216.0</ele><time>2026-04-06T07:57:35.003Z</time></trkpt><trkpt lat="43.6664233" lon="12.622645"><ele>216.0</ele><time>2026-04-06T07:57:36.003Z</time></trkpt><trkpt lat="43.66634" lon="12.6224117"><ele>216.0</ele><time>2026-04-06T07:57:37.003Z</time></trkpt><trkpt lat="43.6662633" lon="12.62217"><ele>216.0</ele><time>2026-04-06T07:57:38.003Z</time></trkpt><trkpt lat="43.6661933" lon="12.6219367"><ele>216.0</ele><time>2026-04-06T07:57:39.003Z</time></trkpt><trkpt lat="43.6661167" lon="12.6216883"><ele>216.0</ele><time>2026-04-06T07:57:40.003Z</time></trkpt><trkpt lat="43.6660267" lon="12.6214517"><ele>216.0</ele><time>2026-04-06T07:57:41.002Z</time></trkpt><trkpt lat="43.66594" lon="12.6212167"><ele>216.0</ele><time>2026-04-06T07:57:42.003Z</time></trkpt><trkpt lat="43.6658567" lon="12.620985"><ele>216.33333333333331</ele><time>2026-04-06T07:57:43.003Z</time></trkpt><trkpt lat="43.6657783" lon="12.6207483"><ele>216.66666666666666</ele><time>2026-04-06T07:57:44.003Z</time></trkpt><trkpt lat="43.665695" lon="12.620525"><ele>217.0</ele><time>2026-04-06T07:57:45.003Z</time></trkpt><trkpt lat="43.66561" lon="12.6202917"><ele>217.33333333333331</ele><time>2026-04-06T07:57:46.003Z</time></trkpt><trkpt lat="43.6655283" lon="12.6200533"><ele>217.66666666666669</ele><time>2026-04-06T07:57:47.003Z</time></trkpt><trkpt lat="43.6654467" lon="12.61982"><ele>218.0</ele><time>2026-04-06T07:57:48.003Z</time></trkpt><trkpt lat="43.665365" lon="12.6195817"><ele>219.0</ele><time>2026-04-06T07:57:49.003Z</time></trkpt><trkpt lat="43.6652833" lon="12.619355"><ele>220.0</ele><time>2026-04-06T07:57:50.003Z</time></trkpt><trkpt lat="43.6651917" lon="12.6191233"><ele>221.0</ele><time>2026-04-06T07:57:51.003Z</time></trkpt><trkpt lat="43.66511" lon="12.6188883"><ele>221.66666666666669</ele><time>2026-04-06T07:57:52.003Z</time></trkpt><trkpt lat="43.6650267" lon="12.6186483"><ele>222.33333333333331</ele><time>2026-04-06T07:57:53.003Z</time></trkpt><trkpt lat="43.664945" lon="12.618405"><ele>223.0</ele><time>2026-04-06T07:57:54.003Z</time></trkpt><trkpt lat="43.6648617" lon="12.618165"><ele>223.0</ele><time>2026-04-06T07:57:55.003Z</time></trkpt><trkpt lat="43.664775" lon="12.61793"><ele>223.0</ele><time>2026-04-06T07:57:56.003Z</time></trkpt><trkpt lat="43.6646917" lon="12.6176883"><ele>223.0</ele><time>2026-04-06T07:57:57.003Z</time></trkpt><trkpt lat="43.6646083" lon="12.6174367"><ele>223.66666666666666</ele><time>2026-04-06T07:57:58.003Z</time></trkpt><trkpt lat="43.66452" lon="12.6171917"><ele>224.33333333333331</ele><time>2026-04-06T07:57:59.003Z</time></trkpt><trkpt lat="43.6644367" lon="12.616945"><ele>225.0</ele><time>2026-04-06T07:58:00.003Z</time></trkpt><trkpt lat="43.66435" lon="12.6167017"><ele>225.0</ele><time>2026-04-06T07:58:01.003Z</time></trkpt><trkpt lat="43.6642667" lon="12.6164633"><ele>225.0</ele><time>2026-04-06T07:58:02.003Z</time></trkpt><trkpt lat="43.664185" lon="12.6162217"><ele>225.0</ele><time>2026-04-06T07:58:03.003Z</time></trkpt><trkpt lat="43.6640983" lon="12.6159783"><ele>225.33333333333331</ele><time>2026-04-06T07:58:04.003Z</time></trkpt><trkpt lat="43.6640167" lon="12.615735"><ele>225.66666666666666</ele><time>2026-04-06T07:58:05.003Z</time></trkpt><trkpt lat="43.6639333" lon="12.6154967"><ele>226.0</ele><time>2026-04-06T07:58:06.003Z</time></trkpt><trkpt lat="43.6638533" lon="12.6152667"><ele>226.33333333333331</ele><time>2026-04-06T07:58:07.003Z</time></trkpt><trkpt lat="43.6637717" lon="12.61504"><ele>226.66666666666669</ele><time>2026-04-06T07:58:08.003Z</time></trkpt><trkpt lat="43.663695" lon="12.6148167"><ele>227.0</ele><time>2026-04-06T07:58:09.003Z</time></trkpt><trkpt lat="43.6635433" lon="12.6143817"><ele>227.0</ele><time>2026-04-06T07:58:11.003Z</time></trkpt><trkpt lat="43.6634767" lon="12.614175"><ele>227.0</ele><time>2026-04-06T07:58:12.003Z</time></trkpt><trkpt lat="43.6634033" lon="12.6139817"><ele>227.0</ele><time>2026-04-06T07:58:13.003Z</time></trkpt><trkpt lat="43.66334" lon="12.6137917"><ele>227.25</ele><time>2026-04-06T07:58:14.003Z</time></trkpt><trkpt lat="43.6632783" lon="12.6136183"><ele>227.5</ele><time>2026-04-06T07:58:15.003Z</time></trkpt><trkpt lat="43.66322" lon="12.6134583"><ele>227.75</ele><time>2026-04-06T07:58:16.003Z</time></trkpt><trkpt lat="43.6631717" lon="12.6132883"><ele>228.0</ele><time>2026-04-06T07:58:17.003Z</time></trkpt><trkpt lat="43.66312" lon="12.613135"><ele>228.0</ele><time>2026-04-06T07:58:18.003Z</time></trkpt><trkpt lat="43.6630717" lon="12.6129967"><ele>228.0</ele><time>2026-04-06T07:58:19.003Z</time></trkpt><trkpt lat="43.6630183" lon="12.6128517"><ele>228.0</ele><time>2026-04-06T07:58:20.003Z</time></trkpt><trkpt lat="43.6629733" lon="12.6126867"><ele>228.0</ele><time>2026-04-06T07:58:21.003Z</time></trkpt><trkpt lat="43.6629117" lon="12.6125367"><ele>228.5</ele><time>2026-04-06T07:58:22.003Z</time></trkpt><trkpt lat="43.6628517" lon="12.612375"><ele>229.0</ele><time>2026-04-06T07:58:23.003Z</time></trkpt><trkpt lat="43.6627933" lon="12.6122017"><ele>229.5</ele><time>2026-04-06T07:58:24.003Z</time></trkpt><trkpt lat="43.662725" lon="12.612015"><ele>230.0</ele><time>2026-04-06T07:58:25.003Z</time></trkpt><trkpt lat="43.6626517" lon="12.6118267"><ele>228.66666666666669</ele><time>2026-04-06T07:58:26.003Z</time></trkpt><trkpt lat="43.66258" lon="12.6116283"><ele>227.33333333333331</ele><time>2026-04-06T07:58:27.003Z</time></trkpt><trkpt lat="43.6625083" lon="12.611425"><ele>226.0</ele><time>2026-04-06T07:58:28.003Z</time></trkpt><trkpt lat="43.66243" lon="12.6112183"><ele>226.0</ele><time>2026-04-06T07:58:29.003Z</time></trkpt><trkpt lat="43.6623567" lon="12.61101"><ele>226.0</ele><time>2026-04-06T07:58:30.003Z</time></trkpt><trkpt lat="43.6622867" lon="12.6108083"><ele>226.0</ele><time>2026-04-06T07:58:31.003Z</time></trkpt><trkpt lat="43.66222" lon="12.6106067"><ele>226.0</ele><time>2026-04-06T07:58:32.003Z</time></trkpt><trkpt lat="43.6621483" lon="12.6104133"><ele>226.0</ele><time>2026-04-06T07:58:33.003Z</time></trkpt><trkpt lat="43.6620717" lon="12.61021"><ele>226.0</ele><time>2026-04-06T07:58:34.003Z</time></trkpt><trkpt lat="43.6619933" lon="12.61002"><ele>224.66666666666666</ele><time>2026-04-06T07:58:35.003Z</time></trkpt><trkpt lat="43.661895" lon="12.6098517"><ele>223.33333333333331</ele><time>2026-04-06T07:58:36.002Z</time></trkpt><trkpt lat="43.661775" lon="12.6096967"><ele>222.0</ele><time>2026-04-06T07:58:37.002Z</time></trkpt><trkpt lat="43.6616417" lon="12.6095533"><ele>221.66666666666669</ele><time>2026-04-06T07:58:38.003Z</time></trkpt><trkpt lat="43.661495" lon="12.6094133"><ele>221.33333333333334</ele><time>2026-04-06T07:58:39.003Z</time></trkpt><trkpt lat="43.661345" lon="12.60928"><ele>221.0</ele><time>2026-04-06T07:58:40.003Z</time></trkpt><trkpt lat="43.6611917" lon="12.6091467"><ele>219.33333333333334</ele><time>2026-04-06T07:58:41.003Z</time></trkpt><trkpt lat="43.661045" lon="12.6090233"><ele>217.66666666666669</ele><time>2026-04-06T07:58:42.003Z</time></trkpt><trkpt lat="43.660895" lon="12.608905"><ele>216.0</ele><time>2026-04-06T07:58:43.003Z</time></trkpt><trkpt lat="43.66074" lon="12.6087833"><ele>216.0</ele><time>2026-04-06T07:58:44.003Z</time></trkpt><trkpt lat="43.6605867" lon="12.60866"><ele>216.0</ele><time>2026-04-06T07:58:45.003Z</time></trkpt><trkpt lat="43.6604283" lon="12.6085433"><ele>216.0</ele><time>2026-04-06T07:58:46.003Z</time></trkpt><trkpt lat="43.6602733" lon="12.6084233"><ele>217.33333333333331</ele><time>2026-04-06T07:58:47.003Z</time></trkpt><trkpt lat="43.6601133" lon="12.6083067"><ele>218.66666666666666</ele><time>2026-04-06T07:58:48.003Z</time></trkpt><trkpt lat="43.6599567" lon="12.6082033"><ele>220.0</ele><time>2026-04-06T07:58:49.003Z</time></trkpt><trkpt lat="43.6598017" lon="12.6080883"><ele>220.0</ele><time>2026-04-06T07:58:50.003Z</time></trkpt><trkpt lat="43.6596417" lon="12.6079633"><ele>220.0</ele><time>2026-04-06T07:58:51.003Z</time></trkpt><trkpt lat="43.6594983" lon="12.6078517"><ele>220.0</ele><time>2026-04-06T07:58:52.003Z</time></trkpt><trkpt lat="43.6593383" lon="12.6077267"><ele>222.0</ele><time>2026-04-06T07:58:53.003Z</time></trkpt><trkpt lat="43.65918" lon="12.6076117"><ele>224.0</ele><time>2026-04-06T07:58:54.003Z</time></trkpt><trkpt lat="43.65902" lon="12.6075"><ele>226.0</ele><time>2026-04-06T07:58:55.003Z</time></trkpt><trkpt lat="43.6588667" lon="12.607385"><ele>226.0</ele><time>2026-04-06T07:58:56.003Z</time></trkpt><trkpt lat="43.6587133" lon="12.6072717"><ele>226.0</ele><time>2026-04-06T07:58:57.003Z</time></trkpt><trkpt lat="43.6585567" lon="12.6071483"><ele>226.0</ele><time>2026-04-06T07:58:58.003Z</time></trkpt><trkpt lat="43.6583983" lon="12.6070283"><ele>226.33333333333331</ele><time>2026-04-06T07:58:59.003Z</time></trkpt><trkpt lat="43.6582383" lon="12.6069133"><ele>226.66666666666669</ele><time>2026-04-06T07:59:00.003Z</time></trkpt><trkpt lat="43.6580783" lon="12.6067917"><ele>227.0</ele><time>2026-04-06T07:59:01.003Z</time></trkpt><trkpt lat="43.6579217" lon="12.60667"><ele>226.66666666666669</ele><time>2026-04-06T07:59:02.003Z</time></trkpt><trkpt lat="43.657765" lon="12.60655"><ele>226.33333333333331</ele><time>2026-04-06T07:59:03.003Z</time></trkpt><trkpt lat="43.6576067" lon="12.606435"><ele>226.0</ele><time>2026-04-06T07:59:04.003Z</time></trkpt><trkpt lat="43.6574433" lon="12.60632"><ele>226.0</ele><time>2026-04-06T07:59:05.003Z</time></trkpt><trkpt lat="43.6572833" lon="12.6062017"><ele>226.0</ele><time>2026-04-06T07:59:06.003Z</time></trkpt><trkpt lat="43.657135" lon="12.606075"><ele>226.0</ele><time>2026-04-06T07:59:07.003Z</time></trkpt><trkpt lat="43.6569883" lon="12.6059267"><ele>226.33333333333331</ele><time>2026-04-06T07:59:08.003Z</time></trkpt><trkpt lat="43.6568633" lon="12.6057617"><ele>226.66666666666669</ele><time>2026-04-06T07:59:09.003Z</time></trkpt><trkpt lat="43.6567517" lon="12.6055733"><ele>227.0</ele><time>2026-04-06T07:59:10.003Z</time></trkpt><trkpt lat="43.6566567" lon="12.6053683"><ele>228.0</ele><time>2026-04-06T07:59:11.003Z</time></trkpt><trkpt lat="43.6565567" lon="12.60515"><ele>229.0</ele><time>2026-04-06T07:59:12.003Z</time></trkpt><trkpt lat="43.6564567" lon="12.60494"><ele>230.0</ele><time>2026-04-06T07:59:13.003Z</time></trkpt><trkpt lat="43.6563567" lon="12.6047283"><ele>230.0</ele><time>2026-04-06T07:59:14.003Z</time></trkpt><trkpt lat="43.656265" lon="12.6045167"><ele>230.0</ele><time>2026-04-06T07:59:15.003Z</time></trkpt><trkpt lat="43.6561733" lon="12.6043017"><ele>230.0</ele><time>2026-04-06T07:59:16.003Z</time></trkpt><trkpt lat="43.6560833" lon="12.6040733"><ele>229.66666666666669</ele><time>2026-04-06T07:59:17.003Z</time></trkpt><trkpt lat="43.6559933" lon="12.6038567"><ele>229.33333333333331</ele><time>2026-04-06T07:59:18.003Z</time></trkpt><trkpt lat="43.6559017" lon="12.6036367"><ele>229.0</ele><time>2026-04-06T07:59:19.003Z</time></trkpt><trkpt lat="43.65581" lon="12.60342"><ele>229.66666666666666</ele><time>2026-04-06T07:59:20.003Z</time></trkpt><trkpt lat="43.65572" lon="12.6031967"><ele>230.33333333333331</ele><time>2026-04-06T07:59:21.003Z</time></trkpt><trkpt lat="43.6556267" lon="12.602975"><ele>231.0</ele><time>2026-04-06T07:59:22.003Z</time></trkpt><trkpt lat="43.6555333" lon="12.6027533"><ele>231.0</ele><time>2026-04-06T07:59:23.003Z</time></trkpt><trkpt lat="43.6554317" lon="12.6025233"><ele>231.0</ele><time>2026-04-06T07:59:24.003Z</time></trkpt><trkpt lat="43.6553333" lon="12.6022933"><ele>231.0</ele><time>2026-04-06T07:59:25.003Z</time></trkpt><trkpt lat="43.6552367" lon="12.602065"><ele>231.33333333333331</ele><time>2026-04-06T07:59:26.003Z</time></trkpt><trkpt lat="43.6551367" lon="12.60183"><ele>231.66666666666666</ele><time>2026-04-06T07:59:27.003Z</time></trkpt><trkpt lat="43.655035" lon="12.6016"><ele>232.0</ele><time>2026-04-06T07:59:28.003Z</time></trkpt><trkpt lat="43.6549283" lon="12.6013733"><ele>232.66666666666666</ele><time>2026-04-06T07:59:29.003Z</time></trkpt><trkpt lat="43.6548317" lon="12.6011483"><ele>233.33333333333331</ele><time>2026-04-06T07:59:30.003Z</time></trkpt><trkpt lat="43.6547333" lon="12.6009283"><ele>234.0</ele><time>2026-04-06T07:59:31.003Z</time></trkpt><trkpt lat="43.6546383" lon="12.600705"><ele>234.0</ele><time>2026-04-06T07:59:32.003Z</time></trkpt><trkpt lat="43.6545483" lon="12.600485"><ele>234.0</ele><time>2026-04-06T07:59:33.003Z</time></trkpt><trkpt lat="43.6544583" lon="12.600275"><ele>234.0</ele><time>2026-04-06T07:59:34.003Z</time></trkpt><trkpt lat="43.6543717" lon="12.6000633"><ele>234.0</ele><time>2026-04-06T07:59:35.003Z</time></trkpt><trkpt lat="43.6542817" lon="12.59985"><ele>234.0</ele><time>2026-04-06T07:59:36.003Z</time></trkpt><trkpt lat="43.6541883" lon="12.5996483"><ele>234.0</ele><time>2026-04-06T07:59:37.003Z</time></trkpt><trkpt lat="43.6541033" lon="12.5994517"><ele>234.0</ele><time>2026-04-06T07:59:38.003Z</time></trkpt><trkpt lat="43.6540233" lon="12.5992633"><ele>234.0</ele><time>2026-04-06T07:59:39.003Z</time></trkpt><trkpt lat="43.653945" lon="12.59908"><ele>234.0</ele><time>2026-04-06T07:59:40.003Z</time></trkpt><trkpt lat="43.653855" lon="12.5988917"><ele>234.0</ele><time>2026-04-06T07:59:41.003Z</time></trkpt><trkpt lat="43.6537767" lon="12.59871"><ele>234.0</ele><time>2026-04-06T07:59:42.003Z</time></trkpt><trkpt lat="43.6536917" lon="12.598525"><ele>234.0</ele><time>2026-04-06T07:59:43.003Z</time></trkpt><trkpt lat="43.6536133" lon="12.5983533"><ele>234.25</ele><time>2026-04-06T07:59:44.003Z</time></trkpt><trkpt lat="43.6535383" lon="12.5981767"><ele>234.5</ele><time>2026-04-06T07:59:45.002Z</time></trkpt><trkpt lat="43.6534617" lon="12.5980067"><ele>234.75</ele><time>2026-04-06T07:59:46.003Z</time></trkpt><trkpt lat="43.6533917" lon="12.59783"><ele>235.0</ele><time>2026-04-06T07:59:47.003Z</time></trkpt><trkpt lat="43.6533183" lon="12.5976433"><ele>235.25</ele><time>2026-04-06T07:59:48.003Z</time></trkpt><trkpt lat="43.6532467" lon="12.5974633"><ele>235.5</ele><time>2026-04-06T07:59:49.003Z</time></trkpt><trkpt lat="43.65317" lon="12.5973"><ele>235.75</ele><time>2026-04-06T07:59:50.003Z</time></trkpt><trkpt lat="43.6530983" lon="12.59712"><ele>236.0</ele><time>2026-04-06T07:59:51.003Z</time></trkpt><trkpt lat="43.6530267" lon="12.5969433"><ele>236.25</ele><time>2026-04-06T07:59:52.003Z</time></trkpt><trkpt lat="43.652945" lon="12.5967767"><ele>236.5</ele><time>2026-04-06T07:59:53.003Z</time></trkpt><trkpt lat="43.6528667" lon="12.5966067"><ele>236.75</ele><time>2026-04-06T07:59:54.003Z</time></trkpt><trkpt lat="43.6527933" lon="12.5964367"><ele>237.0</ele><time>2026-04-06T07:59:55.003Z</time></trkpt><trkpt lat="43.6527217" lon="12.59627"><ele>237.25</ele><time>2026-04-06T07:59:56.003Z</time></trkpt><trkpt lat="43.6526433" lon="12.5961017"><ele>237.5</ele><time>2026-04-06T07:59:57.003Z</time></trkpt><trkpt lat="43.6525733" lon="12.5959383"><ele>237.75</ele><time>2026-04-06T07:59:58.003Z</time></trkpt><trkpt lat="43.6524967" lon="12.5957783"><ele>238.0</ele><time>2026-04-06T07:59:59.003Z</time></trkpt><trkpt lat="43.6524217" lon="12.5956083"><ele>238.0</ele><time>2026-04-06T08:00:00.003Z</time></trkpt><trkpt lat="43.6523483" lon="12.5954317"><ele>238.0</ele><time>2026-04-06T08:00:01.003Z</time></trkpt><trkpt lat="43.6522733" lon="12.59524"><ele>238.0</ele><time>2026-04-06T08:00:02.002Z</time></trkpt><trkpt lat="43.65219" lon="12.5950567"><ele>238.33333333333331</ele><time>2026-04-06T08:00:03.002Z</time></trkpt><trkpt lat="43.6521083" lon="12.5948667"><ele>238.66666666666669</ele><time>2026-04-06T08:00:04.003Z</time></trkpt><trkpt lat="43.6520317" lon="12.5946717"><ele>239.0</ele><time>2026-04-06T08:00:05.003Z</time></trkpt><trkpt lat="43.65195" lon="12.5944717"><ele>238.0</ele><time>2026-04-06T08:00:06.003Z</time></trkpt><trkpt lat="43.6518667" lon="12.5942683"><ele>237.0</ele><time>2026-04-06T08:00:07.003Z</time></trkpt><trkpt lat="43.6517817" lon="12.594065"><ele>236.0</ele><time>2026-04-06T08:00:08.003Z</time></trkpt><trkpt lat="43.6516917" lon="12.5938533"><ele>236.33333333333334</ele><time>2026-04-06T08:00:09.002Z</time></trkpt><trkpt lat="43.6516017" lon="12.5936483"><ele>236.66666666666669</ele><time>2026-04-06T08:00:10.003Z</time></trkpt><trkpt lat="43.65151" lon="12.59345"><ele>237.0</ele><time>2026-04-06T08:00:11.003Z</time></trkpt><trkpt lat="43.6514267" lon="12.5932467"><ele>237.0</ele><time>2026-04-06T08:00:12.003Z</time></trkpt><trkpt lat="43.65134" lon="12.5930483"><ele>237.0</ele><time>2026-04-06T08:00:13.003Z</time></trkpt><trkpt lat="43.6512517" lon="12.592845"><ele>237.0</ele><time>2026-04-06T08:00:14.003Z</time></trkpt><trkpt lat="43.6511567" lon="12.5926317"><ele>236.0</ele><time>2026-04-06T08:00:15.003Z</time></trkpt><trkpt lat="43.651065" lon="12.5924333"><ele>235.0</ele><time>2026-04-06T08:00:16.003Z</time></trkpt><trkpt lat="43.65097" lon="12.5922183"><ele>234.0</ele><time>2026-04-06T08:00:17.003Z</time></trkpt><trkpt lat="43.65088" lon="12.5920067"><ele>234.66666666666669</ele><time>2026-04-06T08:00:18.003Z</time></trkpt><trkpt lat="43.6507933" lon="12.5917933"><ele>235.33333333333334</ele><time>2026-04-06T08:00:19.003Z</time></trkpt><trkpt lat="43.6507" lon="12.59159"><ele>236.0</ele><time>2026-04-06T08:00:20.002Z</time></trkpt><trkpt lat="43.650605" lon="12.5913833"><ele>237.0</ele><time>2026-04-06T08:00:21.003Z</time></trkpt><trkpt lat="43.6505117" lon="12.59117"><ele>238.0</ele><time>2026-04-06T08:00:22.003Z</time></trkpt><trkpt lat="43.6504183" lon="12.59095"><ele>239.0</ele><time>2026-04-06T08:00:23.003Z</time></trkpt><trkpt lat="43.6503233" lon="12.590735"><ele>239.33333333333334</ele><time>2026-04-06T08:00:24.003Z</time></trkpt><trkpt lat="43.6502283" lon="12.5905317"><ele>239.66666666666669</ele><time>2026-04-06T08:00:25.003Z</time></trkpt><trkpt lat="43.6501417" lon="12.59032"><ele>240.0</ele><time>2026-04-06T08:00:26.003Z</time></trkpt><trkpt lat="43.6500483" lon="12.5901067"><ele>240.0</ele><time>2026-04-06T08:00:27.003Z</time></trkpt><trkpt lat="43.649965" lon="12.5898967"><ele>240.0</ele><time>2026-04-06T08:00:28.003Z</time></trkpt><trkpt lat="43.6498767" lon="12.5896933"><ele>240.0</ele><time>2026-04-06T08:00:29.003Z</time></trkpt><trkpt lat="43.649795" lon="12.5894983"><ele>239.66666666666669</ele><time>2026-04-06T08:00:30.003Z</time></trkpt><trkpt lat="43.649715" lon="12.5893117"><ele>239.33333333333334</ele><time>2026-04-06T08:00:31.003Z</time></trkpt><trkpt lat="43.6496333" lon="12.58913"><ele>239.0</ele><time>2026-04-06T08:00:32.003Z</time></trkpt><trkpt lat="43.649555" lon="12.5889467"><ele>239.0</ele><time>2026-04-06T08:00:33.003Z</time></trkpt><trkpt lat="43.6494833" lon="12.5887717"><ele>239.0</ele><time>2026-04-06T08:00:34.003Z</time></trkpt><trkpt lat="43.649415" lon="12.5886"><ele>239.0</ele><time>2026-04-06T08:00:35.003Z</time></trkpt><trkpt lat="43.64935" lon="12.5884383"><ele>239.0</ele><time>2026-04-06T08:00:36.003Z</time></trkpt><trkpt lat="43.64928" lon="12.588285"><ele>239.25</ele><time>2026-04-06T08:00:37.003Z</time></trkpt><trkpt lat="43.6492083" lon="12.58814"><ele>239.5</ele><time>2026-04-06T08:00:38.003Z</time></trkpt><trkpt lat="43.649145" lon="12.58798"><ele>239.75</ele><time>2026-04-06T08:00:39.003Z</time></trkpt><trkpt lat="43.6490767" lon="12.5878167"><ele>240.0</ele><time>2026-04-06T08:00:40.003Z</time></trkpt><trkpt lat="43.6490183" lon="12.5876567"><ele>240.0</ele><time>2026-04-06T08:00:41.003Z</time></trkpt><trkpt lat="43.6489633" lon="12.587485"><ele>240.0</ele><time>2026-04-06T08:00:42.003Z</time></trkpt><trkpt lat="43.6489167" lon="12.5872967"><ele>240.0</ele><time>2026-04-06T08:00:43.003Z</time></trkpt><trkpt lat="43.6488667" lon="12.587105"><ele>240.0</ele><time>2026-04-06T08:00:44.003Z</time></trkpt><trkpt lat="43.6488117" lon="12.5869067"><ele>240.0</ele><time>2026-04-06T08:00:45.003Z</time></trkpt><trkpt lat="43.648755" lon="12.5867017"><ele>240.0</ele><time>2026-04-06T08:00:46.003Z</time></trkpt><trkpt lat="43.6486783" lon="12.5865083"><ele>240.0</ele><time>2026-04-06T08:00:47.003Z</time></trkpt><trkpt lat="43.6486217" lon="12.5863117"><ele>237.33333333333331</ele><time>2026-04-06T08:00:48.003Z</time></trkpt><trkpt lat="43.6485667" lon="12.5861083"><ele>234.66666666666666</ele><time>2026-04-06T08:00:49.003Z</time></trkpt><trkpt lat="43.6485" lon="12.5858983"><ele>232.0</ele><time>2026-04-06T08:00:50.003Z</time></trkpt><trkpt lat="43.6484333" lon="12.5856967"><ele>232.0</ele><time>2026-04-06T08:00:51.003Z</time></trkpt><trkpt lat="43.64837" lon="12.5854833"><ele>232.0</ele><time>2026-04-06T08:00:52.003Z</time></trkpt><trkpt lat="43.648305" lon="12.5852783"><ele>232.0</ele><time>2026-04-06T08:00:53.003Z</time></trkpt><trkpt lat="43.6482383" lon="12.5850667"><ele>232.33333333333331</ele><time>2026-04-06T08:00:54.003Z</time></trkpt><trkpt lat="43.6481767" lon="12.5848467"><ele>232.66666666666669</ele><time>2026-04-06T08:00:55.003Z</time></trkpt><trkpt lat="43.64811" lon="12.584625"><ele>233.0</ele><time>2026-04-06T08:00:56.003Z</time></trkpt><trkpt lat="43.64804" lon="12.5843983"><ele>234.0</ele><time>2026-04-06T08:00:57.003Z</time></trkpt><trkpt lat="43.647975" lon="12.58417"><ele>235.0</ele><time>2026-04-06T08:00:58.003Z</time></trkpt><trkpt lat="43.647905" lon="12.5839467"><ele>236.0</ele><time>2026-04-06T08:00:59.003Z</time></trkpt><trkpt lat="43.6478433" lon="12.583715"><ele>234.33333333333334</ele><time>2026-04-06T08:01:00.003Z</time></trkpt><trkpt lat="43.64778" lon="12.5834917"><ele>232.66666666666669</ele><time>2026-04-06T08:01:01.003Z</time></trkpt><trkpt lat="43.64771" lon="12.5832717"><ele>231.0</ele><time>2026-04-06T08:01:02.003Z</time></trkpt><trkpt lat="43.6476383" lon="12.58305"><ele>232.0</ele><time>2026-04-06T08:01:03.003Z</time></trkpt><trkpt lat="43.6475583" lon="12.5828383"><ele>233.0</ele><time>2026-04-06T08:01:04.003Z</time></trkpt><trkpt lat="43.6474883" lon="12.582625"><ele>234.0</ele><time>2026-04-06T08:01:05.003Z</time></trkpt><trkpt lat="43.6474083" lon="12.5824183"><ele>234.0</ele><time>2026-04-06T08:01:06.003Z</time></trkpt><trkpt lat="43.6473417" lon="12.5822033"><ele>234.0</ele><time>2026-04-06T08:01:07.003Z</time></trkpt><trkpt lat="43.6473033" lon="12.5819767"><ele>234.0</ele><time>2026-04-06T08:01:08.003Z</time></trkpt><trkpt lat="43.6472983" lon="12.58174"><ele>233.33333333333331</ele><time>2026-04-06T08:01:09.003Z</time></trkpt><trkpt lat="43.6473283" lon="12.5814983"><ele>232.66666666666666</ele><time>2026-04-06T08:01:10.003Z</time></trkpt><trkpt lat="43.6473967" lon="12.5812667"><ele>232.0</ele><time>2026-04-06T08:01:11.003Z</time></trkpt><trkpt lat="43.6474783" lon="12.5810417"><ele>231.33333333333331</ele><time>2026-04-06T08:01:12.003Z</time></trkpt><trkpt lat="43.64757" lon="12.5808267"><ele>230.66666666666669</ele><time>2026-04-06T08:01:13.003Z</time></trkpt><trkpt lat="43.6476783" lon="12.5806283"><ele>230.0</ele><time>2026-04-06T08:01:14.003Z</time></trkpt><trkpt lat="43.6477833" lon="12.580425"><ele>236.66666666666669</ele><time>2026-04-06T08:01:15.003Z</time></trkpt><trkpt lat="43.6478783" lon="12.580215"><ele>243.33333333333331</ele><time>2026-04-06T08:01:16.003Z</time></trkpt><trkpt lat="43.6479667" lon="12.5800033"><ele>250.0</ele><time>2026-04-06T08:01:17.003Z</time></trkpt><trkpt lat="43.64806" lon="12.5797983"><ele>250.0</ele><time>2026-04-06T08:01:18.003Z</time></trkpt><trkpt lat="43.64814" lon="12.5796"><ele>250.0</ele><time>2026-04-06T08:01:19.003Z</time></trkpt><trkpt lat="43.6482083" lon="12.57939"><ele>250.0</ele><time>2026-04-06T08:01:20.003Z</time></trkpt><trkpt lat="43.6482517" lon="12.5791433"><ele>247.66666666666666</ele><time>2026-04-06T08:01:21.003Z</time></trkpt><trkpt lat="43.6482867" lon="12.57891"><ele>245.33333333333331</ele><time>2026-04-06T08:01:22.003Z</time></trkpt><trkpt lat="43.6483133" lon="12.5786583"><ele>243.0</ele><time>2026-04-06T08:01:23.003Z</time></trkpt><trkpt lat="43.6483417" lon="12.5784117"><ele>243.0</ele><time>2026-04-06T08:01:24.003Z</time></trkpt><trkpt lat="43.6483683" lon="12.5781717"><ele>243.0</ele><time>2026-04-06T08:01:25.003Z</time></trkpt><trkpt lat="43.6484" lon="12.5779367"><ele>243.0</ele><time>2026-04-06T08:01:26.003Z</time></trkpt><trkpt lat="43.648425" lon="12.5777033"><ele>241.66666666666669</ele><time>2026-04-06T08:01:27.003Z</time></trkpt><trkpt lat="43.64844" lon="12.57746"><ele>240.33333333333334</ele><time>2026-04-06T08:01:28.003Z</time></trkpt><trkpt lat="43.64844" lon="12.5772167"><ele>239.0</ele><time>2026-04-06T08:01:29.003Z</time></trkpt><trkpt lat="43.6484217" lon="12.5769667"><ele>238.0</ele><time>2026-04-06T08:01:30.003Z</time></trkpt><trkpt lat="43.6483867" lon="12.5767133"><ele>237.0</ele><time>2026-04-06T08:01:31.003Z</time></trkpt><trkpt lat="43.6483367" lon="12.576465"><ele>236.0</ele><time>2026-04-06T08:01:32.003Z</time></trkpt><trkpt lat="43.64828" lon="12.5762283"><ele>237.33333333333334</ele><time>2026-04-06T08:01:33.003Z</time></trkpt><trkpt lat="43.6482183" lon="12.5760017"><ele>238.66666666666669</ele><time>2026-04-06T08:01:34.003Z</time></trkpt><trkpt lat="43.6481617" lon="12.5757833"><ele>240.0</ele><time>2026-04-06T08:01:35.003Z</time></trkpt><trkpt lat="43.648105" lon="12.5755583"><ele>241.33333333333331</ele><time>2026-04-06T08:01:36.003Z</time></trkpt><trkpt lat="43.64805" lon="12.5753333"><ele>242.66666666666666</ele><time>2026-04-06T08:01:37.003Z</time></trkpt><trkpt lat="43.6479983" lon="12.57511"><ele>244.0</ele><time>2026-04-06T08:01:38.003Z</time></trkpt><trkpt lat="43.64794" lon="12.5748833"><ele>244.0</ele><time>2026-04-06T08:01:39.003Z</time></trkpt><trkpt lat="43.6478883" lon="12.57465"><ele>244.0</ele><time>2026-04-06T08:01:40.003Z</time></trkpt><trkpt lat="43.6478483" lon="12.5744183"><ele>244.0</ele><time>2026-04-06T08:01:41.003Z</time></trkpt><trkpt lat="43.6478333" lon="12.574185"><ele>243.66666666666666</ele><time>2026-04-06T08:01:42.003Z</time></trkpt><trkpt lat="43.647865" lon="12.57395"><ele>243.33333333333331</ele><time>2026-04-06T08:01:43.003Z</time></trkpt><trkpt lat="43.64794" lon="12.57374"><ele>243.0</ele><time>2026-04-06T08:01:44.003Z</time></trkpt><trkpt lat="43.6480317" lon="12.5735417"><ele>241.33333333333331</ele><time>2026-04-06T08:01:45.003Z</time></trkpt><trkpt lat="43.64812" lon="12.5733333"><ele>239.66666666666666</ele><time>2026-04-06T08:01:46.003Z</time></trkpt><trkpt lat="43.6481867" lon="12.5731067"><ele>238.0</ele><time>2026-04-06T08:01:47.003Z</time></trkpt><trkpt lat="43.6482217" lon="12.5728783"><ele>238.0</ele><time>2026-04-06T08:01:48.003Z</time></trkpt><trkpt lat="43.6482267" lon="12.572645"><ele>238.0</ele><time>2026-04-06T08:01:49.003Z</time></trkpt><trkpt lat="43.64821" lon="12.5723967"><ele>238.0</ele><time>2026-04-06T08:01:50.003Z</time></trkpt><trkpt lat="43.648175" lon="12.572155"><ele>238.0</ele><time>2026-04-06T08:01:51.003Z</time></trkpt><trkpt lat="43.648125" lon="12.571915"><ele>238.0</ele><time>2026-04-06T08:01:52.003Z</time></trkpt><trkpt lat="43.648065" lon="12.571685"><ele>238.0</ele><time>2026-04-06T08:01:53.003Z</time></trkpt><trkpt lat="43.648005" lon="12.571455"><ele>238.0</ele><time>2026-04-06T08:01:54.003Z</time></trkpt><trkpt lat="43.6479533" lon="12.5712233"><ele>238.0</ele><time>2026-04-06T08:01:55.003Z</time></trkpt><trkpt lat="43.6479033" lon="12.5709883"><ele>238.0</ele><time>2026-04-06T08:01:56.003Z</time></trkpt><trkpt lat="43.6478533" lon="12.5707567"><ele>237.66666666666666</ele><time>2026-04-06T08:01:57.003Z</time></trkpt><trkpt lat="43.6477983" lon="12.570535"><ele>237.33333333333331</ele><time>2026-04-06T08:01:58.003Z</time></trkpt><trkpt lat="43.647745" lon="12.5703167"><ele>237.0</ele><time>2026-04-06T08:01:59.003Z</time></trkpt><trkpt lat="43.6476933" lon="12.5700783"><ele>236.33333333333331</ele><time>2026-04-06T08:02:00.003Z</time></trkpt><trkpt lat="43.6476367" lon="12.5698383"><ele>235.66666666666666</ele><time>2026-04-06T08:02:01.003Z</time></trkpt><trkpt lat="43.64758" lon="12.56961"><ele>235.0</ele><time>2026-04-06T08:02:02.003Z</time></trkpt><trkpt lat="43.64752" lon="12.5693733"><ele>237.0</ele><time>2026-04-06T08:02:03.003Z</time></trkpt><trkpt lat="43.6474583" lon="12.5691417"><ele>239.0</ele><time>2026-04-06T08:02:04.002Z</time></trkpt><trkpt lat="43.6473983" lon="12.5689"><ele>241.0</ele><time>2026-04-06T08:02:05.003Z</time></trkpt><trkpt lat="43.64734" lon="12.5686633"><ele>242.33333333333331</ele><time>2026-04-06T08:02:06.003Z</time></trkpt><trkpt lat="43.6472817" lon="12.568425"><ele>243.66666666666669</ele><time>2026-04-06T08:02:07.003Z</time></trkpt><trkpt lat="43.6472383" lon="12.5681883"><ele>245.0</ele><time>2026-04-06T08:02:08.003Z</time></trkpt><trkpt lat="43.64721" lon="12.567945"><ele>246.0</ele><time>2026-04-06T08:02:09.002Z</time></trkpt><trkpt lat="43.6472033" lon="12.5676967"><ele>247.0</ele><time>2026-04-06T08:02:10.003Z</time></trkpt><trkpt lat="43.6472183" lon="12.567445"><ele>248.0</ele><time>2026-04-06T08:02:11.003Z</time></trkpt><trkpt lat="43.6472617" lon="12.56721"><ele>247.0</ele><time>2026-04-06T08:02:12.003Z</time></trkpt><trkpt lat="43.6473417" lon="12.56699"><ele>246.0</ele><time>2026-04-06T08:02:13.003Z</time></trkpt><trkpt lat="43.6474433" lon="12.5667933"><ele>245.0</ele><time>2026-04-06T08:02:14.003Z</time></trkpt><trkpt lat="43.64756" lon="12.56662"><ele>245.0</ele><time>2026-04-06T08:02:15.003Z</time></trkpt><trkpt lat="43.647685" lon="12.5664517"><ele>245.0</ele><time>2026-04-06T08:02:16.003Z</time></trkpt><trkpt lat="43.6478167" lon="12.566295"><ele>245.0</ele><time>2026-04-06T08:02:17.003Z</time></trkpt><trkpt lat="43.6479583" lon="12.5661433"><ele>244.66666666666669</ele><time>2026-04-06T08:02:18.003Z</time></trkpt><trkpt lat="43.648105" lon="12.5659883"><ele>244.33333333333331</ele><time>2026-04-06T08:02:19.003Z</time></trkpt><trkpt lat="43.648255" lon="12.565835"><ele>244.0</ele><time>2026-04-06T08:02:20.003Z</time></trkpt><trkpt lat="43.6484117" lon="12.5656833"><ele>244.0</ele><time>2026-04-06T08:02:21.003Z</time></trkpt><trkpt lat="43.6485683" lon="12.565525"><ele>244.0</ele><time>2026-04-06T08:02:22.003Z</time></trkpt><trkpt lat="43.648725" lon="12.5653617"><ele>244.0</ele><time>2026-04-06T08:02:23.003Z</time></trkpt><trkpt lat="43.6488817" lon="12.5652067"><ele>245.0</ele><time>2026-04-06T08:02:24.003Z</time></trkpt><trkpt lat="43.6490383" lon="12.5650483"><ele>246.0</ele><time>2026-04-06T08:02:25.003Z</time></trkpt><trkpt lat="43.6491933" lon="12.5649017"><ele>247.0</ele><time>2026-04-06T08:02:26.003Z</time></trkpt><trkpt lat="43.6493433" lon="12.5647483"><ele>248.0</ele><time>2026-04-06T08:02:27.003Z</time></trkpt><trkpt lat="43.649495" lon="12.5645933"><ele>249.0</ele><time>2026-04-06T08:02:28.003Z</time></trkpt><trkpt lat="43.6496433" lon="12.56444"><ele>250.0</ele><time>2026-04-06T08:02:29.003Z</time></trkpt><trkpt lat="43.64979" lon="12.56429"><ele>250.0</ele><time>2026-04-06T08:02:30.003Z</time></trkpt><trkpt lat="43.6499367" lon="12.5641433"><ele>250.0</ele><time>2026-04-06T08:02:31.003Z</time></trkpt><trkpt lat="43.6500833" lon="12.5639883"><ele>250.0</ele><time>2026-04-06T08:02:32.003Z</time></trkpt><trkpt lat="43.6502217" lon="12.5638317"><ele>249.33333333333331</ele><time>2026-04-06T08:02:33.003Z</time></trkpt><trkpt lat="43.65036" lon="12.5636633"><ele>248.66666666666669</ele><time>2026-04-06T08:02:34.003Z</time></trkpt><trkpt lat="43.6504817" lon="12.56348"><ele>248.0</ele><time>2026-04-06T08:02:35.003Z</time></trkpt><trkpt lat="43.650585" lon="12.563275"><ele>248.0</ele><time>2026-04-06T08:02:36.003Z</time></trkpt><trkpt lat="43.65068" lon="12.5630567"><ele>248.0</ele><time>2026-04-06T08:02:37.003Z</time></trkpt><trkpt lat="43.6507667" lon="12.56285"><ele>248.0</ele><time>2026-04-06T08:02:38.003Z</time></trkpt><trkpt lat="43.65086" lon="12.562625"><ele>248.0</ele><time>2026-04-06T08:02:39.003Z</time></trkpt><trkpt lat="43.650955" lon="12.5624"><ele>248.0</ele><time>2026-04-06T08:02:40.003Z</time></trkpt><trkpt lat="43.651055" lon="12.5621767"><ele>248.0</ele><time>2026-04-06T08:02:41.003Z</time></trkpt><trkpt lat="43.6511483" lon="12.5619567"><ele>249.33333333333334</ele><time>2026-04-06T08:02:42.003Z</time></trkpt><trkpt lat="43.6512367" lon="12.5617383"><ele>250.66666666666669</ele><time>2026-04-06T08:02:43.003Z</time></trkpt><trkpt lat="43.651325" lon="12.5615133"><ele>252.0</ele><time>2026-04-06T08:02:44.003Z</time></trkpt><trkpt lat="43.651405" lon="12.561285"><ele>250.66666666666669</ele><time>2026-04-06T08:02:45.003Z</time></trkpt><trkpt lat="43.6514717" lon="12.5610583"><ele>249.33333333333334</ele><time>2026-04-06T08:02:46.002Z</time></trkpt><trkpt lat="43.6515283" lon="12.5608267"><ele>248.0</ele><time>2026-04-06T08:02:47.003Z</time></trkpt><trkpt lat="43.6515733" lon="12.560595"><ele>247.66666666666669</ele><time>2026-04-06T08:02:48.003Z</time></trkpt><trkpt lat="43.6516117" lon="12.5603617"><ele>247.33333333333331</ele><time>2026-04-06T08:02:49.003Z</time></trkpt><trkpt lat="43.65165" lon="12.5601333"><ele>247.0</ele><time>2026-04-06T08:02:50.003Z</time></trkpt><trkpt lat="43.6516867" lon="12.5599167"><ele>247.0</ele><time>2026-04-06T08:02:51.003Z</time></trkpt><trkpt lat="43.651725" lon="12.5597167"><ele>247.0</ele><time>2026-04-06T08:02:52.003Z</time></trkpt><trkpt lat="43.651765" lon="12.5595283"><ele>247.0</ele><time>2026-04-06T08:02:53.003Z</time></trkpt><trkpt lat="43.6518" lon="12.5593283"><ele>247.0</ele><time>2026-04-06T08:02:54.003Z</time></trkpt><trkpt lat="43.6518383" lon="12.5591333"><ele>247.0</ele><time>2026-04-06T08:02:55.003Z</time></trkpt><trkpt lat="43.651875" lon="12.5589267"><ele>247.0</ele><time>2026-04-06T08:02:56.003Z</time></trkpt><trkpt lat="43.6519117" lon="12.55872"><ele>247.0</ele><time>2026-04-06T08:02:57.003Z</time></trkpt><trkpt lat="43.6519483" lon="12.55852"><ele>248.0</ele><time>2026-04-06T08:02:58.003Z</time></trkpt><trkpt lat="43.6519817" lon="12.5583317"><ele>249.0</ele><time>2026-04-06T08:02:59.003Z</time></trkpt><trkpt lat="43.6520133" lon="12.5581367"><ele>250.0</ele><time>2026-04-06T08:03:00.003Z</time></trkpt><trkpt lat="43.6520483" lon="12.55795"><ele>251.0</ele><time>2026-04-06T08:03:01.003Z</time></trkpt><trkpt lat="43.6520833" lon="12.55776"><ele>251.0</ele><time>2026-04-06T08:03:02.003Z</time></trkpt><trkpt lat="43.6521183" lon="12.5575683"><ele>251.0</ele><time>2026-04-06T08:03:03.003Z</time></trkpt><trkpt lat="43.6521583" lon="12.5573733"><ele>251.0</ele><time>2026-04-06T08:03:04.003Z</time></trkpt><trkpt lat="43.6521933" lon="12.55717"><ele>251.0</ele><time>2026-04-06T08:03:05.003Z</time></trkpt><trkpt lat="43.652225" lon="12.5569783"><ele>250.5</ele><time>2026-04-06T08:03:06.003Z</time></trkpt><trkpt lat="43.6522583" lon="12.5567933"><ele>250.0</ele><time>2026-04-06T08:03:07.003Z</time></trkpt><trkpt lat="43.6523" lon="12.556615"><ele>249.5</ele><time>2026-04-06T08:03:08.002Z</time></trkpt><trkpt lat="43.6523333" lon="12.5564317"><ele>249.0</ele><time>2026-04-06T08:03:09.003Z</time></trkpt><trkpt lat="43.6523667" lon="12.5562383"><ele>248.0</ele><time>2026-04-06T08:03:10.003Z</time></trkpt><trkpt lat="43.6524017" lon="12.55604"><ele>247.0</ele><time>2026-04-06T08:03:11.003Z</time></trkpt><trkpt lat="43.65244" lon="12.555845"><ele>246.0</ele><time>2026-04-06T08:03:12.003Z</time></trkpt><trkpt lat="43.6524733" lon="12.5556483"><ele>245.0</ele><time>2026-04-06T08:03:13.003Z</time></trkpt><trkpt lat="43.65251" lon="12.5554517"><ele>245.25</ele><time>2026-04-06T08:03:14.003Z</time></trkpt><trkpt lat="43.652545" lon="12.55526"><ele>245.5</ele><time>2026-04-06T08:03:15.003Z</time></trkpt><trkpt lat="43.6525783" lon="12.5550717"><ele>245.75</ele><time>2026-04-06T08:03:16.003Z</time></trkpt><trkpt lat="43.65261" lon="12.5548883"><ele>246.0</ele><time>2026-04-06T08:03:17.003Z</time></trkpt><trkpt lat="43.6526417" lon="12.554705"><ele>245.5</ele><time>2026-04-06T08:03:18.003Z</time></trkpt><trkpt lat="43.65268" lon="12.5545167"><ele>245.0</ele><time>2026-04-06T08:03:19.003Z</time></trkpt><trkpt lat="43.652715" lon="12.5543333"><ele>244.5</ele><time>2026-04-06T08:03:20.003Z</time></trkpt><trkpt lat="43.6527517" lon="12.5541483"><ele>244.0</ele><time>2026-04-06T08:03:21.003Z</time></trkpt><trkpt lat="43.6527867" lon="12.5539733"><ele>246.25</ele><time>2026-04-06T08:03:22.003Z</time></trkpt><trkpt lat="43.6528233" lon="12.5538117"><ele>248.5</ele><time>2026-04-06T08:03:23.003Z</time></trkpt><trkpt lat="43.652855" lon="12.5536567"><ele>250.75</ele><time>2026-04-06T08:03:24.003Z</time></trkpt><trkpt lat="43.6528933" lon="12.5535067"><ele>253.0</ele><time>2026-04-06T08:03:25.003Z</time></trkpt><trkpt lat="43.6529367" lon="12.553355"><ele>253.0</ele><time>2026-04-06T08:03:26.003Z</time></trkpt><trkpt lat="43.6529767" lon="12.5531967"><ele>253.0</ele><time>2026-04-06T08:03:27.003Z</time></trkpt><trkpt lat="43.653015" lon="12.5530483"><ele>253.0</ele><time>2026-04-06T08:03:28.003Z</time></trkpt><trkpt lat="43.65305" lon="12.5529033"><ele>253.0</ele><time>2026-04-06T08:03:29.003Z</time></trkpt><trkpt lat="43.6530767" lon="12.5527667"><ele>253.0</ele><time>2026-04-06T08:03:30.003Z</time></trkpt><trkpt lat="43.6531017" lon="12.552635"><ele>252.99999999999997</ele><time>2026-04-06T08:03:31.003Z</time></trkpt><trkpt lat="43.65312" lon="12.5525133"><ele>253.0</ele><time>2026-04-06T08:03:32.003Z</time></trkpt><trkpt lat="43.6531383" lon="12.5524033"><ele>253.0</ele><time>2026-04-06T08:03:33.003Z</time></trkpt><trkpt lat="43.6531583" lon="12.552295"><ele>253.0</ele><time>2026-04-06T08:03:34.003Z</time></trkpt><trkpt lat="43.65319" lon="12.552195"><ele>252.99999999999997</ele><time>2026-04-06T08:03:35.003Z</time></trkpt><trkpt lat="43.653225" lon="12.5520967"><ele>253.0</ele><time>2026-04-06T08:03:36.003Z</time></trkpt><trkpt lat="43.65326" lon="12.5519967"><ele>252.60000000000002</ele><time>2026-04-06T08:03:37.003Z</time></trkpt><trkpt lat="43.6532933" lon="12.5518867"><ele>252.20000000000002</ele><time>2026-04-06T08:03:38.003Z</time></trkpt><trkpt lat="43.6533283" lon="12.5517733"><ele>251.8</ele><time>2026-04-06T08:03:39.003Z</time></trkpt><trkpt lat="43.6533633" lon="12.551655"><ele>251.4</ele><time>2026-04-06T08:03:40.003Z</time></trkpt><trkpt lat="43.653395" lon="12.551535"><ele>251.0</ele><time>2026-04-06T08:03:41.003Z</time></trkpt><trkpt lat="43.6534267" lon="12.5514"><ele>251.0</ele><time>2026-04-06T08:03:42.003Z</time></trkpt><trkpt lat="43.6534617" lon="12.55126"><ele>251.00000000000003</ele><time>2026-04-06T08:03:43.003Z</time></trkpt><trkpt lat="43.6534967" lon="12.5511233"><ele>251.00000000000003</ele><time>2026-04-06T08:03:44.003Z</time></trkpt><trkpt lat="43.6535383" lon="12.5509917"><ele>251.0</ele><time>2026-04-06T08:03:45.003Z</time></trkpt><trkpt lat="43.6535767" lon="12.5508617"><ele>251.0</ele><time>2026-04-06T08:03:46.003Z</time></trkpt><trkpt lat="43.6536083" lon="12.5507317"><ele>251.60000000000002</ele><time>2026-04-06T08:03:47.003Z</time></trkpt><trkpt lat="43.6536383" lon="12.55059"><ele>252.20000000000002</ele><time>2026-04-06T08:03:48.003Z</time></trkpt><trkpt lat="43.65367" lon="12.55045"><ele>252.79999999999998</ele><time>2026-04-06T08:03:49.003Z</time></trkpt><trkpt lat="43.6537083" lon="12.5503083"><ele>253.39999999999998</ele><time>2026-04-06T08:03:50.003Z</time></trkpt><trkpt lat="43.6537467" lon="12.5501633"><ele>254.0</ele><time>2026-04-06T08:03:51.003Z</time></trkpt><trkpt lat="43.65379" lon="12.5500233"><ele>254.0</ele><time>2026-04-06T08:03:52.003Z</time></trkpt><trkpt lat="43.6538233" lon="12.5498817"><ele>253.99999999999997</ele><time>2026-04-06T08:03:53.003Z</time></trkpt><trkpt lat="43.6538583" lon="12.5497533"><ele>253.99999999999997</ele><time>2026-04-06T08:03:54.003Z</time></trkpt><trkpt lat="43.6538967" lon="12.5496217"><ele>254.0</ele><time>2026-04-06T08:03:55.003Z</time></trkpt><trkpt lat="43.6539417" lon="12.5494883"><ele>254.0</ele><time>2026-04-06T08:03:56.003Z</time></trkpt><trkpt lat="43.6539967" lon="12.54936"><ele>254.0</ele><time>2026-04-06T08:03:57.003Z</time></trkpt><trkpt lat="43.6540633" lon="12.5492433"><ele>254.0</ele><time>2026-04-06T08:03:58.003Z</time></trkpt><trkpt lat="43.654135" lon="12.549115"><ele>254.0</ele><time>2026-04-06T08:03:59.003Z</time></trkpt><trkpt lat="43.6542133" lon="12.54898"><ele>254.0</ele><time>2026-04-06T08:04:00.003Z</time></trkpt><trkpt lat="43.6542983" lon="12.5488383"><ele>253.75</ele><time>2026-04-06T08:04:01.003Z</time></trkpt><trkpt lat="43.6543917" lon="12.5486933"><ele>253.5</ele><time>2026-04-06T08:04:02.003Z</time></trkpt><trkpt lat="43.6544817" lon="12.5485467"><ele>253.25</ele><time>2026-04-06T08:04:03.003Z</time></trkpt><trkpt lat="43.6545683" lon="12.548395"><ele>253.0</ele><time>2026-04-06T08:04:04.003Z</time></trkpt><trkpt lat="43.6546467" lon="12.5482417"><ele>253.75</ele><time>2026-04-06T08:04:05.003Z</time></trkpt><trkpt lat="43.6547183" lon="12.5480917"><ele>254.5</ele><time>2026-04-06T08:04:06.003Z</time></trkpt><trkpt lat="43.6547817" lon="12.5479367"><ele>255.25</ele><time>2026-04-06T08:04:07.003Z</time></trkpt><trkpt lat="43.6548367" lon="12.547775"><ele>256.0</ele><time>2026-04-06T08:04:08.003Z</time></trkpt><trkpt lat="43.6548783" lon="12.5476"><ele>256.0</ele><time>2026-04-06T08:04:09.003Z</time></trkpt><trkpt lat="43.65492" lon="12.5474367"><ele>256.0</ele><time>2026-04-06T08:04:10.003Z</time></trkpt><trkpt lat="43.6549583" lon="12.547265"><ele>256.0</ele><time>2026-04-06T08:04:11.002Z</time></trkpt><trkpt lat="43.654995" lon="12.5470917"><ele>256.0</ele><time>2026-04-06T08:04:12.003Z</time></trkpt><trkpt lat="43.6550283" lon="12.5469217"><ele>256.25</ele><time>2026-04-06T08:04:13.003Z</time></trkpt><trkpt lat="43.6550633" lon="12.5467567"><ele>256.5</ele><time>2026-04-06T08:04:14.003Z</time></trkpt><trkpt lat="43.6550983" lon="12.54659"><ele>256.75</ele><time>2026-04-06T08:04:15.003Z</time></trkpt><trkpt lat="43.6551333" lon="12.5464217"><ele>257.0</ele><time>2026-04-06T08:04:16.003Z</time></trkpt><trkpt lat="43.6551683" lon="12.5462483"><ele>256.0</ele><time>2026-04-06T08:04:17.003Z</time></trkpt><trkpt lat="43.6552017" lon="12.5460767"><ele>255.0</ele><time>2026-04-06T08:04:18.003Z</time></trkpt><trkpt lat="43.6552375" lon="12.5459045"><ele>254.0</ele><time>2026-04-06T08:04:19.003Z</time></trkpt><trkpt lat="43.655276" lon="12.545731"><ele>253.0</ele><time>2026-04-06T08:04:20.003Z</time></trkpt><trkpt lat="43.6553163" lon="12.5455544"><ele>256.0</ele><time>2026-04-06T08:04:21.003Z</time></trkpt><trkpt lat="43.6553538" lon="12.545382"><ele>259.0</ele><time>2026-04-06T08:04:22.003Z</time></trkpt><trkpt lat="43.6553897" lon="12.5452118"><ele>262.0</ele><time>2026-04-06T08:04:23.003Z</time></trkpt><trkpt lat="43.6554283" lon="12.5450414"><ele>265.0</ele><time>2026-04-06T08:04:24.003Z</time></trkpt><trkpt lat="43.6554685" lon="12.5448745"><ele>265.25</ele><time>2026-04-06T08:04:25.003Z</time></trkpt><trkpt lat="43.6555129" lon="12.544704"><ele>265.5</ele><time>2026-04-06T08:04:26.003Z</time></trkpt><trkpt lat="43.6555708" lon="12.5445355"><ele>265.75</ele><time>2026-04-06T08:04:27.003Z</time></trkpt><trkpt lat="43.6556378" lon="12.544376"><ele>266.0</ele><time>2026-04-06T08:04:28.003Z</time></trkpt><trkpt lat="43.6557171" lon="12.5442208"><ele>264.75</ele><time>2026-04-06T08:04:29.003Z</time></trkpt><trkpt lat="43.6558001" lon="12.5440792"><ele>263.5</ele><time>2026-04-06T08:04:30.003Z</time></trkpt><trkpt lat="43.6558872" lon="12.5439428"><ele>262.25</ele><time>2026-04-06T08:04:31.003Z</time></trkpt><trkpt lat="43.6559737" lon="12.543797"><ele>261.0</ele><time>2026-04-06T08:04:32.003Z</time></trkpt><trkpt lat="43.6560591" lon="12.543644"><ele>265.0</ele><time>2026-04-06T08:04:33.003Z</time></trkpt><trkpt lat="43.6561468" lon="12.543489"><ele>269.0</ele><time>2026-04-06T08:04:34.003Z</time></trkpt><trkpt lat="43.6562346" lon="12.5433343"><ele>273.0</ele><time>2026-04-06T08:04:35.003Z</time></trkpt><trkpt lat="43.6563177" lon="12.5431837"><ele>277.0</ele><time>2026-04-06T08:04:36.003Z</time></trkpt><trkpt lat="43.6563985" lon="12.5430361"><ele>277.0</ele><time>2026-04-06T08:04:37.003Z</time></trkpt><trkpt lat="43.6564784" lon="12.542898"><ele>277.0</ele><time>2026-04-06T08:04:38.003Z</time></trkpt><trkpt lat="43.6565601" lon="12.54276"><ele>277.0</ele><time>2026-04-06T08:04:39.003Z</time></trkpt><trkpt lat="43.6566423" lon="12.5426224"><ele>277.0</ele><time>2026-04-06T08:04:40.003Z</time></trkpt><trkpt lat="43.6567275" lon="12.5424775"><ele>276.0</ele><time>2026-04-06T08:04:41.003Z</time></trkpt><trkpt lat="43.6568121" lon="12.5423285"><ele>275.0</ele><time>2026-04-06T08:04:42.003Z</time></trkpt><trkpt lat="43.6568929" lon="12.5421774"><ele>274.0</ele><time>2026-04-06T08:04:43.003Z</time></trkpt><trkpt lat="43.6569756" lon="12.5420266"><ele>273.0</ele><time>2026-04-06T08:04:44.003Z</time></trkpt><trkpt lat="43.6570588" lon="12.5418775"><ele>273.0</ele><time>2026-04-06T08:04:45.003Z</time></trkpt><trkpt lat="43.6571464" lon="12.5417277"><ele>273.0</ele><time>2026-04-06T08:04:46.003Z</time></trkpt><trkpt lat="43.657235" lon="12.5415829"><ele>273.0</ele><time>2026-04-06T08:04:47.003Z</time></trkpt><trkpt lat="43.657324" lon="12.5414336"><ele>273.0</ele><time>2026-04-06T08:04:48.003Z</time></trkpt><trkpt lat="43.6574116" lon="12.5412819"><ele>271.25</ele><time>2026-04-06T08:04:49.003Z</time></trkpt><trkpt lat="43.6575009" lon="12.5411252"><ele>269.5</ele><time>2026-04-06T08:04:50.003Z</time></trkpt><trkpt lat="43.6575903" lon="12.5409691"><ele>267.75</ele><time>2026-04-06T08:04:51.003Z</time></trkpt><trkpt lat="43.6576779" lon="12.540813"><ele>266.0</ele><time>2026-04-06T08:04:52.003Z</time></trkpt><trkpt lat="43.6577674" lon="12.5406593"><ele>268.0</ele><time>2026-04-06T08:04:53.003Z</time></trkpt><trkpt lat="43.6578547" lon="12.5405064"><ele>270.0</ele><time>2026-04-06T08:04:54.003Z</time></trkpt><trkpt lat="43.65794" lon="12.5403574"><ele>272.0</ele><time>2026-04-06T08:04:55.003Z</time></trkpt><trkpt lat="43.6580261" lon="12.5402041"><ele>274.0</ele><time>2026-04-06T08:04:56.003Z</time></trkpt><trkpt lat="43.6581115" lon="12.5400504"><ele>274.0</ele><time>2026-04-06T08:04:57.003Z</time></trkpt><trkpt lat="43.6581955" lon="12.539902"><ele>274.0</ele><time>2026-04-06T08:04:58.003Z</time></trkpt><trkpt lat="43.6582816" lon="12.5397512"><ele>274.0</ele><time>2026-04-06T08:04:59.003Z</time></trkpt><trkpt lat="43.6583692" lon="12.5395983"><ele>274.0</ele><time>2026-04-06T08:05:00.003Z</time></trkpt><trkpt lat="43.6584558" lon="12.5394438"><ele>273.25</ele><time>2026-04-06T08:05:01.003Z</time></trkpt><trkpt lat="43.6585396" lon="12.539293"><ele>272.5</ele><time>2026-04-06T08:05:02.003Z</time></trkpt><trkpt lat="43.6586241" lon="12.5391478"><ele>271.75</ele><time>2026-04-06T08:05:03.003Z</time></trkpt><trkpt lat="43.6587091" lon="12.5390029"><ele>271.0</ele><time>2026-04-06T08:05:04.003Z</time></trkpt><trkpt lat="43.6587942" lon="12.5388559"><ele>272.75</ele><time>2026-04-06T08:05:05.003Z</time></trkpt><trkpt lat="43.6588783" lon="12.5387077"><ele>274.5</ele><time>2026-04-06T08:05:06.003Z</time></trkpt><trkpt lat="43.6589621" lon="12.5385592"><ele>276.25</ele><time>2026-04-06T08:05:07.003Z</time></trkpt><trkpt lat="43.6590468" lon="12.5384121"><ele>278.0</ele><time>2026-04-06T08:05:08.003Z</time></trkpt><trkpt lat="43.6591326" lon="12.5382641"><ele>278.0</ele><time>2026-04-06T08:05:09.003Z</time></trkpt><trkpt lat="43.6592165" lon="12.5381121"><ele>278.0</ele><time>2026-04-06T08:05:10.003Z</time></trkpt><trkpt lat="43.6593009" lon="12.5379565"><ele>278.0</ele><time>2026-04-06T08:05:11.003Z</time></trkpt><trkpt lat="43.6593882" lon="12.5377974"><ele>278.0</ele><time>2026-04-06T08:05:12.003Z</time></trkpt><trkpt lat="43.6594729" lon="12.5376463"><ele>277.5</ele><time>2026-04-06T08:05:13.003Z</time></trkpt><trkpt lat="43.659557" lon="12.5375013"><ele>277.0</ele><time>2026-04-06T08:05:14.003Z</time></trkpt><trkpt lat="43.6596467" lon="12.5373484"><ele>276.5</ele><time>2026-04-06T08:05:15.003Z</time></trkpt><trkpt lat="43.6597342" lon="12.5371987"><ele>276.0</ele><time>2026-04-06T08:05:16.003Z</time></trkpt><trkpt lat="43.6598212" lon="12.537046"><ele>275.25</ele><time>2026-04-06T08:05:17.003Z</time></trkpt><trkpt lat="43.6599031" lon="12.5369007"><ele>274.5</ele><time>2026-04-06T08:05:18.003Z</time></trkpt><trkpt lat="43.659992" lon="12.5367477"><ele>273.75</ele><time>2026-04-06T08:05:19.003Z</time></trkpt><trkpt lat="43.6600831" lon="12.5365913"><ele>273.0</ele><time>2026-04-06T08:05:20.003Z</time></trkpt><trkpt lat="43.6601722" lon="12.5364308"><ele>273.0</ele><time>2026-04-06T08:05:21.003Z</time></trkpt><trkpt lat="43.660258" lon="12.5362745"><ele>273.0</ele><time>2026-04-06T08:05:22.003Z</time></trkpt><trkpt lat="43.6603429" lon="12.5361233"><ele>273.0</ele><time>2026-04-06T08:05:23.003Z</time></trkpt><trkpt lat="43.6604251" lon="12.5359763"><ele>273.0</ele><time>2026-04-06T08:05:24.003Z</time></trkpt><trkpt lat="43.6605078" lon="12.535829"><ele>273.5</ele><time>2026-04-06T08:05:25.003Z</time></trkpt><trkpt lat="43.6605887" lon="12.5356853"><ele>274.0</ele><time>2026-04-06T08:05:26.003Z</time></trkpt><trkpt lat="43.6606698" lon="12.5355436"><ele>274.5</ele><time>2026-04-06T08:05:27.003Z</time></trkpt><trkpt lat="43.6607454" lon="12.5354062"><ele>275.0</ele><time>2026-04-06T08:05:28.003Z</time></trkpt><trkpt lat="43.6608236" lon="12.5352638"><ele>275.0</ele><time>2026-04-06T08:05:29.003Z</time></trkpt><trkpt lat="43.6609007" lon="12.5351207"><ele>275.0</ele><time>2026-04-06T08:05:30.003Z</time></trkpt><trkpt lat="43.66098" lon="12.5349774"><ele>275.0</ele><time>2026-04-06T08:05:31.003Z</time></trkpt><trkpt lat="43.6610601" lon="12.5348378"><ele>275.0</ele><time>2026-04-06T08:05:32.003Z</time></trkpt><trkpt lat="43.6611363" lon="12.5347017"><ele>277.25</ele><time>2026-04-06T08:05:33.003Z</time></trkpt><trkpt lat="43.6612139" lon="12.534559"><ele>279.5</ele><time>2026-04-06T08:05:34.003Z</time></trkpt><trkpt lat="43.6612933" lon="12.5344112"><ele>281.75</ele><time>2026-04-06T08:05:35.003Z</time></trkpt><trkpt lat="43.6613759" lon="12.5342728"><ele>284.0</ele><time>2026-04-06T08:05:36.003Z</time></trkpt><trkpt lat="43.6614569" lon="12.5341347"><ele>284.0</ele><time>2026-04-06T08:05:37.003Z</time></trkpt><trkpt lat="43.6615358" lon="12.5339963"><ele>284.0</ele><time>2026-04-06T08:05:38.003Z</time></trkpt><trkpt lat="43.6616139" lon="12.5338554"><ele>284.0</ele><time>2026-04-06T08:05:39.003Z</time></trkpt><trkpt lat="43.6616873" lon="12.5337254"><ele>284.0</ele><time>2026-04-06T08:05:40.003Z</time></trkpt><trkpt lat="43.6617581" lon="12.5335874"><ele>284.25</ele><time>2026-04-06T08:05:41.003Z</time></trkpt><trkpt lat="43.6618394" lon="12.533449"><ele>284.5</ele><time>2026-04-06T08:05:42.003Z</time></trkpt><trkpt lat="43.6619152" lon="12.5333211"><ele>284.75</ele><time>2026-04-06T08:05:43.003Z</time></trkpt><trkpt lat="43.6619979" lon="12.5331753"><ele>285.0</ele><time>2026-04-06T08:05:44.003Z</time></trkpt><trkpt lat="43.6620843" lon="12.5330298"><ele>282.5</ele><time>2026-04-06T08:05:45.003Z</time></trkpt><trkpt lat="43.6621751" lon="12.5328784"><ele>280.0</ele><time>2026-04-06T08:05:46.003Z</time></trkpt><trkpt lat="43.6622632" lon="12.5327261"><ele>277.5</ele><time>2026-04-06T08:05:47.003Z</time></trkpt><trkpt lat="43.6623529" lon="12.5325779"><ele>275.0</ele><time>2026-04-06T08:05:48.003Z</time></trkpt><trkpt lat="43.6624406" lon="12.5324165"><ele>275.0</ele><time>2026-04-06T08:05:49.003Z</time></trkpt><trkpt lat="43.6625265" lon="12.5322543"><ele>275.0</ele><time>2026-04-06T08:05:50.003Z</time></trkpt><trkpt lat="43.6626178" lon="12.5321008"><ele>275.0</ele><time>2026-04-06T08:05:51.003Z</time></trkpt><trkpt lat="43.6627067" lon="12.5319484"><ele>275.0</ele><time>2026-04-06T08:05:52.003Z</time></trkpt><trkpt lat="43.6627888" lon="12.5317887"><ele>275.5</ele><time>2026-04-06T08:05:53.003Z</time></trkpt><trkpt lat="43.6628698" lon="12.5316346"><ele>276.0</ele><time>2026-04-06T08:05:54.003Z</time></trkpt><trkpt lat="43.6629467" lon="12.5314821"><ele>276.5</ele><time>2026-04-06T08:05:55.003Z</time></trkpt><trkpt lat="43.6630122" lon="12.531331"><ele>277.0</ele><time>2026-04-06T08:05:56.003Z</time></trkpt><trkpt lat="43.6630696" lon="12.5311921"><ele>277.0</ele><time>2026-04-06T08:05:57.003Z</time></trkpt><trkpt lat="43.6631268" lon="12.5310536"><ele>277.0</ele><time>2026-04-06T08:05:58.003Z</time></trkpt><trkpt lat="43.663183" lon="12.5309147"><ele>277.0</ele><time>2026-04-06T08:05:59.003Z</time></trkpt><trkpt lat="43.6632415" lon="12.5307754"><ele>277.0</ele><time>2026-04-06T08:06:00.003Z</time></trkpt><trkpt lat="43.6632973" lon="12.5306406"><ele>277.0</ele><time>2026-04-06T08:06:01.003Z</time></trkpt><trkpt lat="43.6633574" lon="12.5305045"><ele>277.0</ele><time>2026-04-06T08:06:02.003Z</time></trkpt><trkpt lat="43.6634226" lon="12.5303596"><ele>277.0</ele><time>2026-04-06T08:06:03.003Z</time></trkpt><trkpt lat="43.6634868" lon="12.5302198"><ele>277.0</ele><time>2026-04-06T08:06:04.003Z</time></trkpt><trkpt lat="43.6635531" lon="12.5300736"><ele>278.0</ele><time>2026-04-06T08:06:05.003Z</time></trkpt><trkpt lat="43.6636172" lon="12.5299305"><ele>279.0</ele><time>2026-04-06T08:06:06.003Z</time></trkpt><trkpt lat="43.6636702" lon="12.529801"><ele>280.0</ele><time>2026-04-06T08:06:07.003Z</time></trkpt><trkpt lat="43.6637254" lon="12.5296622"><ele>281.0</ele><time>2026-04-06T08:06:08.003Z</time></trkpt><trkpt lat="43.6637825" lon="12.5295349"><ele>281.0</ele><time>2026-04-06T08:06:09.003Z</time></trkpt><trkpt lat="43.6638349" lon="12.529418"><ele>281.0</ele><time>2026-04-06T08:06:10.003Z</time></trkpt><trkpt lat="43.6638786" lon="12.5293173"><ele>281.0</ele><time>2026-04-06T08:06:11.003Z</time></trkpt><trkpt lat="43.6639248" lon="12.5292283"><ele>281.0</ele><time>2026-04-06T08:06:12.003Z</time></trkpt><trkpt lat="43.6639633" lon="12.5291498"><ele>281.0</ele><time>2026-04-06T08:06:13.003Z</time></trkpt><trkpt lat="43.6640021" lon="12.5290718"><ele>281.0</ele><time>2026-04-06T08:06:14.003Z</time></trkpt><trkpt lat="43.6640416" lon="12.5289958"><ele>281.0</ele><time>2026-04-06T08:06:15.003Z</time></trkpt><trkpt lat="43.6640801" lon="12.5289186"><ele>281.0</ele><time>2026-04-06T08:06:16.003Z</time></trkpt><trkpt lat="43.664118" lon="12.528826"><ele>281.0</ele><time>2026-04-06T08:06:17.003Z</time></trkpt><trkpt lat="43.6641571" lon="12.5287163"><ele>281.0</ele><time>2026-04-06T08:06:18.003Z</time></trkpt><trkpt lat="43.6641995" lon="12.5285961"><ele>281.0</ele><time>2026-04-06T08:06:19.003Z</time></trkpt><trkpt lat="43.664246" lon="12.5284728"><ele>281.0</ele><time>2026-04-06T08:06:20.003Z</time></trkpt><trkpt lat="43.6642978" lon="12.5283511"><ele>280.2</ele><time>2026-04-06T08:06:21.003Z</time></trkpt><trkpt lat="43.6643532" lon="12.5282296"><ele>279.40000000000003</ele><time>2026-04-06T08:06:22.003Z</time></trkpt><trkpt lat="43.6644085" lon="12.5281172"><ele>278.6</ele><time>2026-04-06T08:06:23.003Z</time></trkpt><trkpt lat="43.6644571" lon="12.5280005"><ele>277.8</ele><time>2026-04-06T08:06:24.003Z</time></trkpt><trkpt lat="43.6645112" lon="12.5278832"><ele>277.0</ele><time>2026-04-06T08:06:25.003Z</time></trkpt><trkpt lat="43.6645636" lon="12.5277739"><ele>276.4</ele><time>2026-04-06T08:06:26.003Z</time></trkpt><trkpt lat="43.6646167" lon="12.5276631"><ele>275.79999999999995</ele><time>2026-04-06T08:06:27.003Z</time></trkpt><trkpt lat="43.6646705" lon="12.5275465"><ele>275.2</ele><time>2026-04-06T08:06:28.003Z</time></trkpt><trkpt lat="43.6647215" lon="12.5274293"><ele>274.59999999999997</ele><time>2026-04-06T08:06:29.003Z</time></trkpt><trkpt lat="43.6647717" lon="12.527312"><ele>274.0</ele><time>2026-04-06T08:06:30.003Z</time></trkpt><trkpt lat="43.6648258" lon="12.5271899"><ele>274.0</ele><time>2026-04-06T08:06:31.003Z</time></trkpt><trkpt lat="43.6648809" lon="12.5270655"><ele>274.0</ele><time>2026-04-06T08:06:32.003Z</time></trkpt><trkpt lat="43.6649345" lon="12.5269483"><ele>274.0</ele><time>2026-04-06T08:06:33.003Z</time></trkpt><trkpt lat="43.6649828" lon="12.5268306"><ele>274.0</ele><time>2026-04-06T08:06:34.003Z</time></trkpt><trkpt lat="43.6650349" lon="12.5267124"><ele>274.0</ele><time>2026-04-06T08:06:35.003Z</time></trkpt><trkpt lat="43.6650871" lon="12.5265867"><ele>273.59999999999997</ele><time>2026-04-06T08:06:36.003Z</time></trkpt><trkpt lat="43.665139" lon="12.5264611"><ele>273.2</ele><time>2026-04-06T08:06:37.003Z</time></trkpt><trkpt lat="43.6651891" lon="12.526338"><ele>272.79999999999995</ele><time>2026-04-06T08:06:38.003Z</time></trkpt><trkpt lat="43.6652412" lon="12.5262183"><ele>272.4</ele><time>2026-04-06T08:06:39.003Z</time></trkpt><trkpt lat="43.6652928" lon="12.5260984"><ele>272.0</ele><time>2026-04-06T08:06:40.003Z</time></trkpt><trkpt lat="43.6653482" lon="12.5259808"><ele>272.0</ele><time>2026-04-06T08:06:41.003Z</time></trkpt><trkpt lat="43.6653999" lon="12.5258591"><ele>272.0</ele><time>2026-04-06T08:06:42.003Z</time></trkpt><trkpt lat="43.6654479" lon="12.5257305"><ele>272.0</ele><time>2026-04-06T08:06:43.003Z</time></trkpt><trkpt lat="43.6654993" lon="12.5256069"><ele>272.0</ele><time>2026-04-06T08:06:44.003Z</time></trkpt><trkpt lat="43.6655514" lon="12.5254986"><ele>272.0</ele><time>2026-04-06T08:06:45.003Z</time></trkpt><trkpt lat="43.6655996" lon="12.5253977"><ele>271.8</ele><time>2026-04-06T08:06:46.003Z</time></trkpt><trkpt lat="43.6656469" lon="12.5252938"><ele>271.6</ele><time>2026-04-06T08:06:47.003Z</time></trkpt><trkpt lat="43.6656977" lon="12.5251849"><ele>271.40000000000003</ele><time>2026-04-06T08:06:48.003Z</time></trkpt><trkpt lat="43.6657443" lon="12.5250775"><ele>271.2</ele><time>2026-04-06T08:06:49.003Z</time></trkpt><trkpt lat="43.6657904" lon="12.5249716"><ele>271.0</ele><time>2026-04-06T08:06:50.003Z</time></trkpt><trkpt lat="43.66584" lon="12.5248576"><ele>271.0</ele><time>2026-04-06T08:06:51.003Z</time></trkpt><trkpt lat="43.6658876" lon="12.5247505"><ele>271.0</ele><time>2026-04-06T08:06:52.003Z</time></trkpt><trkpt lat="43.6659306" lon="12.5246438"><ele>271.0</ele><time>2026-04-06T08:06:53.003Z</time></trkpt><trkpt lat="43.6659744" lon="12.5245286"><ele>271.0</ele><time>2026-04-06T08:06:54.003Z</time></trkpt><trkpt lat="43.6660149" lon="12.5244208"><ele>271.0</ele><time>2026-04-06T08:06:55.003Z</time></trkpt><trkpt lat="43.666055" lon="12.524312"><ele>271.0</ele><time>2026-04-06T08:06:56.003Z</time></trkpt><trkpt lat="43.6660935" lon="12.5241997"><ele>271.0</ele><time>2026-04-06T08:06:57.003Z</time></trkpt><trkpt lat="43.6661248" lon="12.5240845"><ele>271.0</ele><time>2026-04-06T08:06:58.003Z</time></trkpt><trkpt lat="43.6661418" lon="12.5239563"><ele>271.0</ele><time>2026-04-06T08:06:59.003Z</time></trkpt><trkpt lat="43.6661392" lon="12.5238283"><ele>271.0</ele><time>2026-04-06T08:07:00.003Z</time></trkpt><trkpt lat="43.6661163" lon="12.5237087"><ele>269.40000000000003</ele><time>2026-04-06T08:07:01.003Z</time></trkpt><trkpt lat="43.6660704" lon="12.5235947"><ele>267.8</ele><time>2026-04-06T08:07:02.003Z</time></trkpt><trkpt lat="43.6660141" lon="12.5234841"><ele>266.20000000000005</ele><time>2026-04-06T08:07:03.003Z</time></trkpt><trkpt lat="43.6659453" lon="12.523371"><ele>264.6</ele><time>2026-04-06T08:07:04.003Z</time></trkpt><trkpt lat="43.6658783" lon="12.5232457"><ele>263.0</ele><time>2026-04-06T08:07:05.003Z</time></trkpt><trkpt lat="43.6658101" lon="12.5231142"><ele>263.0</ele><time>2026-04-06T08:07:06.003Z</time></trkpt><trkpt lat="43.6657398" lon="12.5229813"><ele>263.0</ele><time>2026-04-06T08:07:07.003Z</time></trkpt><trkpt lat="43.665674" lon="12.5228476"><ele>263.0</ele><time>2026-04-06T08:07:08.003Z</time></trkpt><trkpt lat="43.6656122" lon="12.5227104"><ele>263.0</ele><time>2026-04-06T08:07:09.003Z</time></trkpt><trkpt lat="43.6655543" lon="12.5225795"><ele>264.75</ele><time>2026-04-06T08:07:10.003Z</time></trkpt><trkpt lat="43.6654893" lon="12.5224465"><ele>266.5</ele><time>2026-04-06T08:07:11.003Z</time></trkpt><trkpt lat="43.6654199" lon="12.5223147"><ele>268.25</ele><time>2026-04-06T08:07:12.003Z</time></trkpt><trkpt lat="43.6653482" lon="12.5221721"><ele>270.0</ele><time>2026-04-06T08:07:13.003Z</time></trkpt><trkpt lat="43.6652745" lon="12.5220246"><ele>270.75</ele><time>2026-04-06T08:07:14.003Z</time></trkpt><trkpt lat="43.6652006" lon="12.5218789"><ele>271.5</ele><time>2026-04-06T08:07:15.003Z</time></trkpt><trkpt lat="43.6651334" lon="12.5217389"><ele>272.25</ele><time>2026-04-06T08:07:16.002Z</time></trkpt><trkpt lat="43.6650709" lon="12.5215994"><ele>273.0</ele><time>2026-04-06T08:07:17.003Z</time></trkpt><trkpt lat="43.6650096" lon="12.5214598"><ele>273.0</ele><time>2026-04-06T08:07:18.003Z</time></trkpt><trkpt lat="43.6649513" lon="12.5213224"><ele>273.0</ele><time>2026-04-06T08:07:19.003Z</time></trkpt><trkpt lat="43.6648993" lon="12.5211744"><ele>273.0</ele><time>2026-04-06T08:07:20.003Z</time></trkpt><trkpt lat="43.6648541" lon="12.5210241"><ele>273.0</ele><time>2026-04-06T08:07:21.003Z</time></trkpt><trkpt lat="43.6648177" lon="12.5208741"><ele>273.6</ele><time>2026-04-06T08:07:22.003Z</time></trkpt><trkpt lat="43.6647986" lon="12.5207247"><ele>274.20000000000005</ele><time>2026-04-06T08:07:23.003Z</time></trkpt><trkpt lat="43.6647926" lon="12.5205663"><ele>274.8</ele><time>2026-04-06T08:07:24.003Z</time></trkpt><trkpt lat="43.6648056" lon="12.5204215"><ele>275.40000000000003</ele><time>2026-04-06T08:07:25.003Z</time></trkpt><trkpt lat="43.6648383" lon="12.5202801"><ele>276.0</ele><time>2026-04-06T08:07:26.003Z</time></trkpt><trkpt lat="43.6648798" lon="12.5201507"><ele>276.8</ele><time>2026-04-06T08:07:27.003Z</time></trkpt><trkpt lat="43.6649326" lon="12.5200193"><ele>277.6</ele><time>2026-04-06T08:07:28.003Z</time></trkpt><trkpt lat="43.6649909" lon="12.5198919"><ele>278.4</ele><time>2026-04-06T08:07:29.003Z</time></trkpt><trkpt lat="43.6650561" lon="12.519767"><ele>279.2</ele><time>2026-04-06T08:07:30.003Z</time></trkpt><trkpt lat="43.6651214" lon="12.5196426"><ele>280.0</ele><time>2026-04-06T08:07:31.003Z</time></trkpt><trkpt lat="43.6651876" lon="12.5195114"><ele>282.0</ele><time>2026-04-06T08:07:32.003Z</time></trkpt><trkpt lat="43.6652535" lon="12.5193804"><ele>284.0</ele><time>2026-04-06T08:07:33.003Z</time></trkpt><trkpt lat="43.665323" lon="12.5192501"><ele>286.0</ele><time>2026-04-06T08:07:34.003Z</time></trkpt><trkpt lat="43.6653997" lon="12.5191237"><ele>288.0</ele><time>2026-04-06T08:07:35.003Z</time></trkpt><trkpt lat="43.6654885" lon="12.5190048"><ele>288.0</ele><time>2026-04-06T08:07:36.003Z</time></trkpt><trkpt lat="43.6655886" lon="12.5188989"><ele>288.0</ele><time>2026-04-06T08:07:37.003Z</time></trkpt><trkpt lat="43.6656959" lon="12.5188047"><ele>288.0</ele><time>2026-04-06T08:07:38.003Z</time></trkpt><trkpt lat="43.6658043" lon="12.5187118"><ele>288.0</ele><time>2026-04-06T08:07:39.003Z</time></trkpt><trkpt lat="43.665915" lon="12.5186175"><ele>288.0</ele><time>2026-04-06T08:07:40.003Z</time></trkpt><trkpt lat="43.6660284" lon="12.5185284"><ele>288.0</ele><time>2026-04-06T08:07:41.003Z</time></trkpt><trkpt lat="43.6661397" lon="12.5184379"><ele>288.0</ele><time>2026-04-06T08:07:42.003Z</time></trkpt><trkpt lat="43.6662554" lon="12.5183423"><ele>288.0</ele><time>2026-04-06T08:07:43.003Z</time></trkpt><trkpt lat="43.666371" lon="12.5182414"><ele>288.0</ele><time>2026-04-06T08:07:44.003Z</time></trkpt><trkpt lat="43.6664844" lon="12.51815"><ele>288.0</ele><time>2026-04-06T08:07:45.003Z</time></trkpt><trkpt lat="43.6665931" lon="12.5180534"><ele>288.0</ele><time>2026-04-06T08:07:46.003Z</time></trkpt><trkpt lat="43.6667032" lon="12.5179631"><ele>288.0</ele><time>2026-04-06T08:07:47.003Z</time></trkpt><trkpt lat="43.6668076" lon="12.5178773"><ele>287.75</ele><time>2026-04-06T08:07:48.003Z</time></trkpt><trkpt lat="43.6669172" lon="12.5177933"><ele>287.5</ele><time>2026-04-06T08:07:49.003Z</time></trkpt><trkpt lat="43.6670216" lon="12.517709"><ele>287.25</ele><time>2026-04-06T08:07:50.003Z</time></trkpt><trkpt lat="43.6671196" lon="12.5176345"><ele>287.0</ele><time>2026-04-06T08:07:51.003Z</time></trkpt><trkpt lat="43.6672186" lon="12.5175677"><ele>286.8</ele><time>2026-04-06T08:07:52.003Z</time></trkpt><trkpt lat="43.6673133" lon="12.5175063"><ele>286.6</ele><time>2026-04-06T08:07:53.003Z</time></trkpt><trkpt lat="43.6674116" lon="12.5174532"><ele>286.40000000000003</ele><time>2026-04-06T08:07:54.003Z</time></trkpt><trkpt lat="43.6675152" lon="12.5174034"><ele>286.2</ele><time>2026-04-06T08:07:55.003Z</time></trkpt><trkpt lat="43.667615" lon="12.5173523"><ele>286.0</ele><time>2026-04-06T08:07:56.003Z</time></trkpt><trkpt lat="43.6677103" lon="12.5173067"><ele>286.0</ele><time>2026-04-06T08:07:57.003Z</time></trkpt><trkpt lat="43.6678035" lon="12.5172638"><ele>286.0</ele><time>2026-04-06T08:07:58.003Z</time></trkpt><trkpt lat="43.6678898" lon="12.5172307"><ele>286.0</ele><time>2026-04-06T08:07:59.003Z</time></trkpt><trkpt lat="43.667981" lon="12.5171999"><ele>286.0</ele><time>2026-04-06T08:08:00.003Z</time></trkpt><trkpt lat="43.6680778" lon="12.5171614"><ele>286.0</ele><time>2026-04-06T08:08:01.003Z</time></trkpt><trkpt lat="43.668195" lon="12.5171225"><ele>286.0</ele><time>2026-04-06T08:08:02.003Z</time></trkpt><trkpt lat="43.6683203" lon="12.5170698"><ele>286.0</ele><time>2026-04-06T08:08:03.003Z</time></trkpt><trkpt lat="43.6684642" lon="12.5169956"><ele>286.0</ele><time>2026-04-06T08:08:04.003Z</time></trkpt><trkpt lat="43.6686158" lon="12.5169125"><ele>286.0</ele><time>2026-04-06T08:08:05.003Z</time></trkpt><trkpt lat="43.6687713" lon="12.5168309"><ele>286.66666666666663</ele><time>2026-04-06T08:08:06.003Z</time></trkpt><trkpt lat="43.6689244" lon="12.51676"><ele>287.3333333333333</ele><time>2026-04-06T08:08:07.003Z</time></trkpt><trkpt lat="43.669066" lon="12.5166996"><ele>288.0</ele><time>2026-04-06T08:08:08.003Z</time></trkpt><trkpt lat="43.6692017" lon="12.5166359"><ele>288.0</ele><time>2026-04-06T08:08:09.003Z</time></trkpt><trkpt lat="43.6693411" lon="12.5165758"><ele>288.0</ele><time>2026-04-06T08:08:10.003Z</time></trkpt><trkpt lat="43.6694803" lon="12.5165079"><ele>288.0</ele><time>2026-04-06T08:08:11.003Z</time></trkpt><trkpt lat="43.6696094" lon="12.5164257"><ele>288.0</ele><time>2026-04-06T08:08:12.003Z</time></trkpt><trkpt lat="43.6697295" lon="12.5163181"><ele>289.0</ele><time>2026-04-06T08:08:13.003Z</time></trkpt><trkpt lat="43.6698471" lon="12.5162026"><ele>290.0</ele><time>2026-04-06T08:08:14.003Z</time></trkpt><trkpt lat="43.6699655" lon="12.5160791"><ele>291.0</ele><time>2026-04-06T08:08:15.003Z</time></trkpt><trkpt lat="43.6700833" lon="12.515945"><ele>292.0</ele><time>2026-04-06T08:08:16.003Z</time></trkpt><trkpt lat="43.670205" lon="12.515815"><ele>290.66666666666663</ele><time>2026-04-06T08:08:17.003Z</time></trkpt><trkpt lat="43.670325" lon="12.5156867"><ele>289.3333333333333</ele><time>2026-04-06T08:08:18.003Z</time></trkpt><trkpt lat="43.6704433" lon="12.5155567"><ele>288.0</ele><time>2026-04-06T08:08:19.003Z</time></trkpt><trkpt lat="43.6705567" lon="12.5154267"><ele>289.0</ele><time>2026-04-06T08:08:20.003Z</time></trkpt><trkpt lat="43.6706633" lon="12.5152933"><ele>290.0</ele><time>2026-04-06T08:08:21.003Z</time></trkpt><trkpt lat="43.670765" lon="12.5151517"><ele>291.0</ele><time>2026-04-06T08:08:22.003Z</time></trkpt><trkpt lat="43.6708583" lon="12.51501"><ele>292.0</ele><time>2026-04-06T08:08:23.003Z</time></trkpt><trkpt lat="43.6709483" lon="12.514865"><ele>292.0</ele><time>2026-04-06T08:08:24.003Z</time></trkpt><trkpt lat="43.6710317" lon="12.5147083"><ele>292.0</ele><time>2026-04-06T08:08:25.003Z</time></trkpt><trkpt lat="43.67111" lon="12.5145583"><ele>292.0</ele><time>2026-04-06T08:08:26.003Z</time></trkpt><trkpt lat="43.6711867" lon="12.514415"><ele>292.0</ele><time>2026-04-06T08:08:27.003Z</time></trkpt><trkpt lat="43.6712567" lon="12.5142783"><ele>291.5</ele><time>2026-04-06T08:08:28.003Z</time></trkpt><trkpt lat="43.6713283" lon="12.5141417"><ele>291.0</ele><time>2026-04-06T08:08:29.003Z</time></trkpt><trkpt lat="43.6714033" lon="12.5140017"><ele>290.5</ele><time>2026-04-06T08:08:30.003Z</time></trkpt><trkpt lat="43.6714783" lon="12.5138583"><ele>290.0</ele><time>2026-04-06T08:08:31.003Z</time></trkpt><trkpt lat="43.671565" lon="12.5137083"><ele>291.6666666666667</ele><time>2026-04-06T08:08:32.003Z</time></trkpt><trkpt lat="43.6716467" lon="12.5135417"><ele>293.3333333333333</ele><time>2026-04-06T08:08:33.003Z</time></trkpt><trkpt lat="43.6717383" lon="12.5133767"><ele>295.0</ele><time>2026-04-06T08:08:34.003Z</time></trkpt><trkpt lat="43.6718317" lon="12.5132017"><ele>295.0</ele><time>2026-04-06T08:08:35.003Z</time></trkpt><trkpt lat="43.6719267" lon="12.51302"><ele>295.0</ele><time>2026-04-06T08:08:36.003Z</time></trkpt><trkpt lat="43.6720233" lon="12.5128333"><ele>295.0</ele><time>2026-04-06T08:08:37.003Z</time></trkpt><trkpt lat="43.672125" lon="12.512645"><ele>296.0</ele><time>2026-04-06T08:08:38.003Z</time></trkpt><trkpt lat="43.672225" lon="12.5124583"><ele>297.0</ele><time>2026-04-06T08:08:39.003Z</time></trkpt><trkpt lat="43.672325" lon="12.5122733"><ele>298.0</ele><time>2026-04-06T08:08:40.003Z</time></trkpt><trkpt lat="43.67242" lon="12.512095"><ele>299.0</ele><time>2026-04-06T08:08:41.003Z</time></trkpt><trkpt lat="43.672515" lon="12.51192"><ele>300.0</ele><time>2026-04-06T08:08:42.003Z</time></trkpt><trkpt lat="43.6726167" lon="12.5117633"><ele>301.0</ele><time>2026-04-06T08:08:43.003Z</time></trkpt><trkpt lat="43.672735" lon="12.5116267"><ele>300.75</ele><time>2026-04-06T08:08:44.003Z</time></trkpt><trkpt lat="43.6728583" lon="12.5115183"><ele>300.5</ele><time>2026-04-06T08:08:45.003Z</time></trkpt><trkpt lat="43.6729917" lon="12.51144"><ele>300.25</ele><time>2026-04-06T08:08:46.003Z</time></trkpt><trkpt lat="43.6731383" lon="12.5113933"><ele>300.0</ele><time>2026-04-06T08:08:47.003Z</time></trkpt><trkpt lat="43.6732767" lon="12.511375"><ele>300.0</ele><time>2026-04-06T08:08:48.003Z</time></trkpt><trkpt lat="43.6734083" lon="12.511375"><ele>300.0</ele><time>2026-04-06T08:08:49.003Z</time></trkpt><trkpt lat="43.673525" lon="12.511385"><ele>300.0</ele><time>2026-04-06T08:08:50.003Z</time></trkpt><trkpt lat="43.6736317" lon="12.5113933"><ele>300.0</ele><time>2026-04-06T08:08:51.003Z</time></trkpt><trkpt lat="43.67372" lon="12.511405"><ele>300.0</ele><time>2026-04-06T08:08:52.003Z</time></trkpt><trkpt lat="43.67379" lon="12.511405"><ele>299.0</ele><time>2026-04-06T08:08:53.003Z</time></trkpt><trkpt lat="43.673885" lon="12.511355"><ele>298.0</ele><time>2026-04-06T08:08:55.003Z</time></trkpt><trkpt lat="43.673905" lon="12.5112217"><ele>297.0</ele><time>2026-04-06T08:08:58.003Z</time></trkpt><trkpt lat="43.6738733" lon="12.5110367"><ele>296.0</ele><time>2026-04-06T08:09:00.002Z</time></trkpt><trkpt lat="43.67383" lon="12.5109083"><ele>295.0</ele><time>2026-04-06T08:09:01.003Z</time></trkpt><trkpt lat="43.673775" lon="12.510775"><ele>295.0</ele><time>2026-04-06T08:09:02.003Z</time></trkpt><trkpt lat="43.6737133" lon="12.5106133"><ele>295.0</ele><time>2026-04-06T08:09:03.003Z</time></trkpt><trkpt lat="43.673655" lon="12.5104417"><ele>295.0</ele><time>2026-04-06T08:09:04.003Z</time></trkpt><trkpt lat="43.6735933" lon="12.5102583"><ele>295.0</ele><time>2026-04-06T08:09:05.003Z</time></trkpt><trkpt lat="43.6735267" lon="12.5100683"><ele>298.66666666666663</ele><time>2026-04-06T08:09:06.003Z</time></trkpt><trkpt lat="43.6734617" lon="12.5098667"><ele>302.3333333333333</ele><time>2026-04-06T08:09:07.003Z</time></trkpt><trkpt lat="43.67339" lon="12.5096567"><ele>306.0</ele><time>2026-04-06T08:09:08.003Z</time></trkpt><trkpt lat="43.6733183" lon="12.509435"><ele>306.0</ele><time>2026-04-06T08:09:09.003Z</time></trkpt><trkpt lat="43.673245" lon="12.5092233"><ele>306.0</ele><time>2026-04-06T08:09:10.003Z</time></trkpt><trkpt lat="43.6731583" lon="12.5090183"><ele>306.0</ele><time>2026-04-06T08:09:11.002Z</time></trkpt><trkpt lat="43.6730483" lon="12.5088133"><ele>305.0</ele><time>2026-04-06T08:09:12.003Z</time></trkpt><trkpt lat="43.67293" lon="12.508605"><ele>304.0</ele><time>2026-04-06T08:09:13.003Z</time></trkpt><trkpt lat="43.6728067" lon="12.5083917"><ele>303.0</ele><time>2026-04-06T08:09:14.003Z</time></trkpt><trkpt lat="43.672675" lon="12.508185"><ele>305.6666666666667</ele><time>2026-04-06T08:09:15.003Z</time></trkpt><trkpt lat="43.6725433" lon="12.507975"><ele>308.33333333333337</ele><time>2026-04-06T08:09:16.003Z</time></trkpt><trkpt lat="43.6724183" lon="12.5077617"><ele>311.0</ele><time>2026-04-06T08:09:17.003Z</time></trkpt><trkpt lat="43.6722917" lon="12.5075533"><ele>311.0</ele><time>2026-04-06T08:09:18.003Z</time></trkpt><trkpt lat="43.67216" lon="12.5073417"><ele>311.0</ele><time>2026-04-06T08:09:19.003Z</time></trkpt><trkpt lat="43.6720333" lon="12.50713"><ele>311.0</ele><time>2026-04-06T08:09:20.003Z</time></trkpt><trkpt lat="43.671915" lon="12.50692"><ele>313.0</ele><time>2026-04-06T08:09:21.003Z</time></trkpt><trkpt lat="43.671795" lon="12.506715"><ele>315.0</ele><time>2026-04-06T08:09:22.003Z</time></trkpt><trkpt lat="43.6716683" lon="12.50651"><ele>317.0</ele><time>2026-04-06T08:09:23.003Z</time></trkpt><trkpt lat="43.6715367" lon="12.5063017"><ele>315.6666666666667</ele><time>2026-04-06T08:09:24.003Z</time></trkpt><trkpt lat="43.6714083" lon="12.506105"><ele>314.3333333333333</ele><time>2026-04-06T08:09:25.003Z</time></trkpt><trkpt lat="43.67127" lon="12.50593"><ele>313.0</ele><time>2026-04-06T08:09:26.003Z</time></trkpt><trkpt lat="43.6711183" lon="12.505775"><ele>314.3333333333333</ele><time>2026-04-06T08:09:27.003Z</time></trkpt><trkpt lat="43.6709633" lon="12.5056183"><ele>315.6666666666667</ele><time>2026-04-06T08:09:28.003Z</time></trkpt><trkpt lat="43.6708117" lon="12.5054617"><ele>317.0</ele><time>2026-04-06T08:09:29.003Z</time></trkpt><trkpt lat="43.6706533" lon="12.5053067"><ele>317.0</ele><time>2026-04-06T08:09:30.003Z</time></trkpt><trkpt lat="43.67049" lon="12.5051467"><ele>317.0</ele><time>2026-04-06T08:09:31.003Z</time></trkpt><trkpt lat="43.670335" lon="12.504985"><ele>317.0</ele><time>2026-04-06T08:09:32.003Z</time></trkpt><trkpt lat="43.670175" lon="12.5048283"><ele>316.6666666666667</ele><time>2026-04-06T08:09:33.003Z</time></trkpt><trkpt lat="43.6700133" lon="12.5046767"><ele>316.3333333333333</ele><time>2026-04-06T08:09:34.003Z</time></trkpt><trkpt lat="43.669855" lon="12.5045183"><ele>316.0</ele><time>2026-04-06T08:09:35.003Z</time></trkpt><trkpt lat="43.6697067" lon="12.504335"><ele>316.0</ele><time>2026-04-06T08:09:36.003Z</time></trkpt><trkpt lat="43.669565" lon="12.50414"><ele>316.0</ele><time>2026-04-06T08:09:37.003Z</time></trkpt><trkpt lat="43.6694283" lon="12.5039383"><ele>316.0</ele><time>2026-04-06T08:09:38.003Z</time></trkpt><trkpt lat="43.6693" lon="12.503715"><ele>317.3333333333333</ele><time>2026-04-06T08:09:39.003Z</time></trkpt><trkpt lat="43.669175" lon="12.5034883"><ele>318.6666666666667</ele><time>2026-04-06T08:09:40.003Z</time></trkpt><trkpt lat="43.6690517" lon="12.5032583"><ele>320.0</ele><time>2026-04-06T08:09:41.003Z</time></trkpt><trkpt lat="43.6689333" lon="12.5030433"><ele>320.6666666666667</ele><time>2026-04-06T08:09:42.003Z</time></trkpt><trkpt lat="43.668805" lon="12.5028283"><ele>321.3333333333333</ele><time>2026-04-06T08:09:43.003Z</time></trkpt><trkpt lat="43.6686767" lon="12.5026317"><ele>322.0</ele><time>2026-04-06T08:09:44.003Z</time></trkpt><trkpt lat="43.668535" lon="12.50245"><ele>324.0</ele><time>2026-04-06T08:09:45.003Z</time></trkpt><trkpt lat="43.6683917" lon="12.5022767"><ele>326.0</ele><time>2026-04-06T08:09:46.003Z</time></trkpt><trkpt lat="43.668245" lon="12.5021067"><ele>328.0</ele><time>2026-04-06T08:09:47.003Z</time></trkpt><trkpt lat="43.6681" lon="12.5019383"><ele>328.0</ele><time>2026-04-06T08:09:48.003Z</time></trkpt><trkpt lat="43.6679567" lon="12.5017617"><ele>328.0</ele><time>2026-04-06T08:09:49.003Z</time></trkpt><trkpt lat="43.6678167" lon="12.5015817"><ele>328.0</ele><time>2026-04-06T08:09:50.003Z</time></trkpt><trkpt lat="43.6676733" lon="12.5014017"><ele>328.0</ele><time>2026-04-06T08:09:51.003Z</time></trkpt><trkpt lat="43.66753" lon="12.5012317"><ele>328.0</ele><time>2026-04-06T08:09:52.003Z</time></trkpt><trkpt lat="43.6673883" lon="12.501065"><ele>328.0</ele><time>2026-04-06T08:09:53.003Z</time></trkpt><trkpt lat="43.667245" lon="12.500895"><ele>328.0</ele><time>2026-04-06T08:09:54.003Z</time></trkpt><trkpt lat="43.6671017" lon="12.500735"><ele>328.0</ele><time>2026-04-06T08:09:55.003Z</time></trkpt><trkpt lat="43.6669583" lon="12.5005733"><ele>328.0</ele><time>2026-04-06T08:09:56.003Z</time></trkpt><trkpt lat="43.6668117" lon="12.5004067"><ele>329.0</ele><time>2026-04-06T08:09:57.003Z</time></trkpt><trkpt lat="43.6666583" lon="12.5002417"><ele>330.0</ele><time>2026-04-06T08:09:58.003Z</time></trkpt><trkpt lat="43.66651" lon="12.5000867"><ele>331.0</ele><time>2026-04-06T08:09:59.003Z</time></trkpt><trkpt lat="43.66636" lon="12.499925"><ele>331.0</ele><time>2026-04-06T08:10:00.003Z</time></trkpt><trkpt lat="43.6662133" lon="12.49977"><ele>331.0</ele><time>2026-04-06T08:10:01.003Z</time></trkpt><trkpt lat="43.6660633" lon="12.4996183"><ele>331.0</ele><time>2026-04-06T08:10:02.002Z</time></trkpt><trkpt lat="43.6659133" lon="12.49946"><ele>331.0</ele><time>2026-04-06T08:10:03.003Z</time></trkpt><trkpt lat="43.66576" lon="12.4993"><ele>331.0</ele><time>2026-04-06T08:10:04.003Z</time></trkpt><trkpt lat="43.6656" lon="12.4991433"><ele>331.0</ele><time>2026-04-06T08:10:05.003Z</time></trkpt><trkpt lat="43.6654283" lon="12.499005"><ele>332.3333333333333</ele><time>2026-04-06T08:10:06.003Z</time></trkpt><trkpt lat="43.66525" lon="12.4988733"><ele>333.6666666666667</ele><time>2026-04-06T08:10:07.003Z</time></trkpt><trkpt lat="43.6650733" lon="12.4987633"><ele>335.0</ele><time>2026-04-06T08:10:08.003Z</time></trkpt><trkpt lat="43.66489" lon="12.4986567"><ele>335.0</ele><time>2026-04-06T08:10:09.003Z</time></trkpt><trkpt lat="43.664705" lon="12.4985617"><ele>335.0</ele><time>2026-04-06T08:10:10.003Z</time></trkpt><trkpt lat="43.664515" lon="12.4984867"><ele>335.0</ele><time>2026-04-06T08:10:11.003Z</time></trkpt><trkpt lat="43.6643267" lon="12.498425"><ele>335.6666666666667</ele><time>2026-04-06T08:10:12.003Z</time></trkpt><trkpt lat="43.66414" lon="12.4983667"><ele>336.3333333333333</ele><time>2026-04-06T08:10:13.003Z</time></trkpt><trkpt lat="43.6639533" lon="12.4983067"><ele>337.0</ele><time>2026-04-06T08:10:14.003Z</time></trkpt><trkpt lat="43.6637767" lon="12.4982"><ele>338.3333333333333</ele><time>2026-04-06T08:10:15.003Z</time></trkpt><trkpt lat="43.6636017" lon="12.4980717"><ele>339.6666666666667</ele><time>2026-04-06T08:10:16.003Z</time></trkpt><trkpt lat="43.6634317" lon="12.4979133"><ele>341.0</ele><time>2026-04-06T08:10:17.003Z</time></trkpt><trkpt lat="43.6632667" lon="12.4977583"><ele>341.0</ele><time>2026-04-06T08:10:18.003Z</time></trkpt><trkpt lat="43.6631033" lon="12.4976017"><ele>341.0</ele><time>2026-04-06T08:10:19.003Z</time></trkpt><trkpt lat="43.6629417" lon="12.49745"><ele>341.0</ele><time>2026-04-06T08:10:20.003Z</time></trkpt><trkpt lat="43.66278" lon="12.4973"><ele>342.0</ele><time>2026-04-06T08:10:21.003Z</time></trkpt><trkpt lat="43.6626183" lon="12.4971433"><ele>343.0</ele><time>2026-04-06T08:10:22.003Z</time></trkpt><trkpt lat="43.6624617" lon="12.4969867"><ele>344.0</ele><time>2026-04-06T08:10:23.003Z</time></trkpt><trkpt lat="43.662305" lon="12.4968317"><ele>344.0</ele><time>2026-04-06T08:10:24.003Z</time></trkpt><trkpt lat="43.6621467" lon="12.4966733"><ele>344.0</ele><time>2026-04-06T08:10:25.003Z</time></trkpt><trkpt lat="43.6619917" lon="12.4965217"><ele>344.0</ele><time>2026-04-06T08:10:26.003Z</time></trkpt><trkpt lat="43.6618333" lon="12.496375"><ele>344.33333333333337</ele><time>2026-04-06T08:10:27.003Z</time></trkpt><trkpt lat="43.661685" lon="12.496225"><ele>344.6666666666667</ele><time>2026-04-06T08:10:28.003Z</time></trkpt><trkpt lat="43.6615467" lon="12.4960567"><ele>345.0</ele><time>2026-04-06T08:10:29.003Z</time></trkpt><trkpt lat="43.6614067" lon="12.4958833"><ele>345.0</ele><time>2026-04-06T08:10:30.003Z</time></trkpt><trkpt lat="43.6612683" lon="12.4957067"><ele>345.0</ele><time>2026-04-06T08:10:31.003Z</time></trkpt><trkpt lat="43.6611367" lon="12.4955183"><ele>345.0</ele><time>2026-04-06T08:10:32.003Z</time></trkpt><trkpt lat="43.661015" lon="12.49531"><ele>346.0</ele><time>2026-04-06T08:10:33.003Z</time></trkpt><trkpt lat="43.6609033" lon="12.4951"><ele>347.0</ele><time>2026-04-06T08:10:34.003Z</time></trkpt><trkpt lat="43.6607967" lon="12.4948933"><ele>348.0</ele><time>2026-04-06T08:10:35.003Z</time></trkpt><trkpt lat="43.6607" lon="12.49471"><ele>345.5</ele><time>2026-04-06T08:10:36.003Z</time></trkpt><trkpt lat="43.6606133" lon="12.494555"><ele>343.0</ele><time>2026-04-06T08:10:37.003Z</time></trkpt><trkpt lat="43.660525" lon="12.4944167"><ele>340.5</ele><time>2026-04-06T08:10:38.003Z</time></trkpt><trkpt lat="43.6604183" lon="12.4943133"><ele>338.0</ele><time>2026-04-06T08:10:39.003Z</time></trkpt><trkpt lat="43.6602917" lon="12.494235"><ele>340.0</ele><time>2026-04-06T08:10:40.003Z</time></trkpt><trkpt lat="43.6601367" lon="12.4941933"><ele>342.0</ele><time>2026-04-06T08:10:41.003Z</time></trkpt><trkpt lat="43.6599783" lon="12.494165"><ele>344.0</ele><time>2026-04-06T08:10:42.003Z</time></trkpt><trkpt lat="43.65983" lon="12.4941283"><ele>344.0</ele><time>2026-04-06T08:10:43.003Z</time></trkpt><trkpt lat="43.65969" lon="12.4940667"><ele>344.0</ele><time>2026-04-06T08:10:44.003Z</time></trkpt><trkpt lat="43.6595683" lon="12.493965"><ele>344.0</ele><time>2026-04-06T08:10:45.003Z</time></trkpt><trkpt lat="43.6594733" lon="12.4938167"><ele>344.0</ele><time>2026-04-06T08:10:46.003Z</time></trkpt><trkpt lat="43.659405" lon="12.4936183"><ele>343.6666666666667</ele><time>2026-04-06T08:10:47.003Z</time></trkpt><trkpt lat="43.6593483" lon="12.4933983"><ele>343.3333333333333</ele><time>2026-04-06T08:10:48.003Z</time></trkpt><trkpt lat="43.6592933" lon="12.4931633"><ele>343.0</ele><time>2026-04-06T08:10:49.003Z</time></trkpt><trkpt lat="43.6592383" lon="12.49293"><ele>344.66666666666663</ele><time>2026-04-06T08:10:50.003Z</time></trkpt><trkpt lat="43.65917" lon="12.4926883"><ele>346.3333333333333</ele><time>2026-04-06T08:10:51.003Z</time></trkpt><trkpt lat="43.6590767" lon="12.4924517"><ele>348.0</ele><time>2026-04-06T08:10:52.003Z</time></trkpt><trkpt lat="43.6589717" lon="12.4922167"><ele>347.6666666666667</ele><time>2026-04-06T08:10:53.003Z</time></trkpt><trkpt lat="43.6588483" lon="12.4919833"><ele>347.33333333333337</ele><time>2026-04-06T08:10:54.003Z</time></trkpt><trkpt lat="43.6587233" lon="12.4917567"><ele>347.0</ele><time>2026-04-06T08:10:55.003Z</time></trkpt><trkpt lat="43.658595" lon="12.4915167"><ele>347.0</ele><time>2026-04-06T08:10:56.003Z</time></trkpt><trkpt lat="43.6584667" lon="12.4912883"><ele>347.0</ele><time>2026-04-06T08:10:57.003Z</time></trkpt><trkpt lat="43.65834" lon="12.4910467"><ele>347.0</ele><time>2026-04-06T08:10:58.003Z</time></trkpt><trkpt lat="43.6582133" lon="12.4908"><ele>350.0</ele><time>2026-04-06T08:10:59.003Z</time></trkpt><trkpt lat="43.6580983" lon="12.4905633"><ele>353.0</ele><time>2026-04-06T08:11:00.003Z</time></trkpt><trkpt lat="43.6579883" lon="12.4903267"><ele>356.0</ele><time>2026-04-06T08:11:01.003Z</time></trkpt><trkpt lat="43.6578967" lon="12.49007"><ele>359.0</ele><time>2026-04-06T08:11:02.003Z</time></trkpt><trkpt lat="43.6578367" lon="12.4898033"><ele>362.0</ele><time>2026-04-06T08:11:03.003Z</time></trkpt><trkpt lat="43.6577917" lon="12.489535"><ele>365.0</ele><time>2026-04-06T08:11:04.003Z</time></trkpt><trkpt lat="43.6577417" lon="12.4892733"><ele>365.0</ele><time>2026-04-06T08:11:05.003Z</time></trkpt><trkpt lat="43.657695" lon="12.48903"><ele>365.0</ele><time>2026-04-06T08:11:06.003Z</time></trkpt><trkpt lat="43.6576283" lon="12.4887967"><ele>365.0</ele><time>2026-04-06T08:11:07.003Z</time></trkpt><trkpt lat="43.65754" lon="12.48858"><ele>368.33333333333337</ele><time>2026-04-06T08:11:08.003Z</time></trkpt><trkpt lat="43.6574333" lon="12.48838"><ele>371.6666666666667</ele><time>2026-04-06T08:11:09.003Z</time></trkpt><trkpt lat="43.65731" lon="12.4881867"><ele>375.0</ele><time>2026-04-06T08:11:10.003Z</time></trkpt><trkpt lat="43.6571767" lon="12.4879817"><ele>373.6666666666667</ele><time>2026-04-06T08:11:11.003Z</time></trkpt><trkpt lat="43.6570383" lon="12.4877617"><ele>372.33333333333337</ele><time>2026-04-06T08:11:12.003Z</time></trkpt><trkpt lat="43.6568967" lon="12.4875383"><ele>371.0</ele><time>2026-04-06T08:11:13.003Z</time></trkpt><trkpt lat="43.6567483" lon="12.4873117"><ele>378.0</ele><time>2026-04-06T08:11:14.003Z</time></trkpt><trkpt lat="43.6566017" lon="12.4870767"><ele>385.0</ele><time>2026-04-06T08:11:15.003Z</time></trkpt><trkpt lat="43.6564483" lon="12.486825"><ele>385.0</ele><time>2026-04-06T08:11:16.003Z</time></trkpt><trkpt lat="43.6562967" lon="12.486575"><ele>385.0</ele><time>2026-04-06T08:11:17.003Z</time></trkpt><trkpt lat="43.65615" lon="12.4863283"><ele>383.5</ele><time>2026-04-06T08:11:18.003Z</time></trkpt><trkpt lat="43.6560017" lon="12.4860767"><ele>382.0</ele><time>2026-04-06T08:11:19.003Z</time></trkpt><trkpt lat="43.655855" lon="12.4858267"><ele>382.0</ele><time>2026-04-06T08:11:20.003Z</time></trkpt><trkpt lat="43.6557183" lon="12.4855867"><ele>382.0</ele><time>2026-04-06T08:11:21.003Z</time></trkpt><trkpt lat="43.6555817" lon="12.4853617"><ele>382.0</ele><time>2026-04-06T08:11:22.003Z</time></trkpt><trkpt lat="43.6554433" lon="12.48514"><ele>382.3333333333333</ele><time>2026-04-06T08:11:23.003Z</time></trkpt><trkpt lat="43.6553033" lon="12.4849083"><ele>382.6666666666667</ele><time>2026-04-06T08:11:24.003Z</time></trkpt><trkpt lat="43.65517" lon="12.4846767"><ele>383.0</ele><time>2026-04-06T08:11:25.003Z</time></trkpt><trkpt lat="43.655045" lon="12.484455"><ele>388.33333333333337</ele><time>2026-04-06T08:11:26.003Z</time></trkpt><trkpt lat="43.6549183" lon="12.48425"><ele>393.6666666666667</ele><time>2026-04-06T08:11:27.003Z</time></trkpt><trkpt lat="43.65479" lon="12.4840617"><ele>399.0</ele><time>2026-04-06T08:11:28.003Z</time></trkpt><trkpt lat="43.6546517" lon="12.483885"><ele>402.0</ele><time>2026-04-06T08:11:29.003Z</time></trkpt><trkpt lat="43.654495" lon="12.4837367"><ele>405.0</ele><time>2026-04-06T08:11:30.003Z</time></trkpt><trkpt lat="43.6543317" lon="12.4836"><ele>408.0</ele><time>2026-04-06T08:11:31.003Z</time></trkpt><trkpt lat="43.6541583" lon="12.4834767"><ele>408.0</ele><time>2026-04-06T08:11:32.003Z</time></trkpt><trkpt lat="43.653985" lon="12.48335"><ele>408.0</ele><time>2026-04-06T08:11:33.003Z</time></trkpt><trkpt lat="43.6538083" lon="12.483225"><ele>408.0</ele><time>2026-04-06T08:11:34.003Z</time></trkpt><trkpt lat="43.6536383" lon="12.4831"><ele>412.0</ele><time>2026-04-06T08:11:35.003Z</time></trkpt><trkpt lat="43.6534733" lon="12.4829767"><ele>416.0</ele><time>2026-04-06T08:11:36.003Z</time></trkpt><trkpt lat="43.6533033" lon="12.4828667"><ele>420.0</ele><time>2026-04-06T08:11:37.003Z</time></trkpt><trkpt lat="43.6531283" lon="12.4827817"><ele>420.0</ele><time>2026-04-06T08:11:38.003Z</time></trkpt><trkpt lat="43.652945" lon="12.482725"><ele>420.0</ele><time>2026-04-06T08:11:39.003Z</time></trkpt><trkpt lat="43.6527567" lon="12.4826817"><ele>420.0</ele><time>2026-04-06T08:11:40.003Z</time></trkpt><trkpt lat="43.652555" lon="12.4826567"><ele>417.66666666666663</ele><time>2026-04-06T08:11:41.003Z</time></trkpt><trkpt lat="43.652355" lon="12.4826033"><ele>415.3333333333333</ele><time>2026-04-06T08:11:42.003Z</time></trkpt><trkpt lat="43.6521667" lon="12.48254"><ele>413.0</ele><time>2026-04-06T08:11:43.003Z</time></trkpt><trkpt lat="43.65199" lon="12.4824383"><ele>410.3333333333333</ele><time>2026-04-06T08:11:44.003Z</time></trkpt><trkpt lat="43.6518233" lon="12.4823267"><ele>407.66666666666663</ele><time>2026-04-06T08:11:45.003Z</time></trkpt><trkpt lat="43.6516633" lon="12.4822483"><ele>405.0</ele><time>2026-04-06T08:11:46.003Z</time></trkpt><trkpt lat="43.6515067" lon="12.4822083"><ele>405.0</ele><time>2026-04-06T08:11:47.003Z</time></trkpt><trkpt lat="43.65135" lon="12.4822167"><ele>405.0</ele><time>2026-04-06T08:11:48.003Z</time></trkpt><trkpt lat="43.6511967" lon="12.48227"><ele>405.0</ele><time>2026-04-06T08:11:49.003Z</time></trkpt><trkpt lat="43.651045" lon="12.4823817"><ele>406.0</ele><time>2026-04-06T08:11:50.003Z</time></trkpt><trkpt lat="43.6508917" lon="12.4824933"><ele>407.0</ele><time>2026-04-06T08:11:51.003Z</time></trkpt><trkpt lat="43.6507367" lon="12.482585"><ele>408.0</ele><time>2026-04-06T08:11:52.003Z</time></trkpt><trkpt lat="43.6505683" lon="12.482655"><ele>408.0</ele><time>2026-04-06T08:11:53.003Z</time></trkpt><trkpt lat="43.6503967" lon="12.4826983"><ele>408.0</ele><time>2026-04-06T08:11:54.003Z</time></trkpt><trkpt lat="43.6502233" lon="12.48271"><ele>408.0</ele><time>2026-04-06T08:11:55.003Z</time></trkpt><trkpt lat="43.6500483" lon="12.4827017"><ele>408.0</ele><time>2026-04-06T08:11:56.003Z</time></trkpt><trkpt lat="43.649875" lon="12.4826667"><ele>408.0</ele><time>2026-04-06T08:11:57.003Z</time></trkpt><trkpt lat="43.6497033" lon="12.4826133"><ele>408.0</ele><time>2026-04-06T08:11:58.003Z</time></trkpt><trkpt lat="43.6495333" lon="12.4825467"><ele>407.33333333333337</ele><time>2026-04-06T08:11:59.003Z</time></trkpt><trkpt lat="43.649365" lon="12.4824533"><ele>406.6666666666667</ele><time>2026-04-06T08:12:00.003Z</time></trkpt><trkpt lat="43.6492067" lon="12.4823367"><ele>406.0</ele><time>2026-04-06T08:12:01.003Z</time></trkpt><trkpt lat="43.6490467" lon="12.4822017"><ele>410.33333333333337</ele><time>2026-04-06T08:12:02.003Z</time></trkpt><trkpt lat="43.6488967" lon="12.4820483"><ele>414.66666666666663</ele><time>2026-04-06T08:12:03.003Z</time></trkpt><trkpt lat="43.6487433" lon="12.48189"><ele>419.0</ele><time>2026-04-06T08:12:04.003Z</time></trkpt><trkpt lat="43.648595" lon="12.48174"><ele>419.0</ele><time>2026-04-06T08:12:05.003Z</time></trkpt><trkpt lat="43.6484467" lon="12.4815883"><ele>419.0</ele><time>2026-04-06T08:12:06.003Z</time></trkpt><trkpt lat="43.6483" lon="12.4814417"><ele>419.0</ele><time>2026-04-06T08:12:07.003Z</time></trkpt><trkpt lat="43.6481467" lon="12.4812833"><ele>419.66666666666663</ele><time>2026-04-06T08:12:08.003Z</time></trkpt><trkpt lat="43.6479883" lon="12.4811483"><ele>420.33333333333337</ele><time>2026-04-06T08:12:09.003Z</time></trkpt><trkpt lat="43.647825" lon="12.481015"><ele>421.0</ele><time>2026-04-06T08:12:10.003Z</time></trkpt><trkpt lat="43.6476617" lon="12.4808883"><ele>421.0</ele><time>2026-04-06T08:12:11.003Z</time></trkpt><trkpt lat="43.6475017" lon="12.480775"><ele>421.0</ele><time>2026-04-06T08:12:12.003Z</time></trkpt><trkpt lat="43.64734" lon="12.4806767"><ele>421.0</ele><time>2026-04-06T08:12:13.003Z</time></trkpt><trkpt lat="43.6471767" lon="12.4805633"><ele>421.0</ele><time>2026-04-06T08:12:14.003Z</time></trkpt><trkpt lat="43.6470167" lon="12.48046"><ele>421.0</ele><time>2026-04-06T08:12:15.003Z</time></trkpt><trkpt lat="43.6468567" lon="12.4803533"><ele>421.0</ele><time>2026-04-06T08:12:16.003Z</time></trkpt><trkpt lat="43.6466967" lon="12.480265"><ele>425.33333333333337</ele><time>2026-04-06T08:12:17.003Z</time></trkpt><trkpt lat="43.6465433" lon="12.480165"><ele>429.66666666666663</ele><time>2026-04-06T08:12:18.003Z</time></trkpt><trkpt lat="43.646385" lon="12.4800567"><ele>434.0</ele><time>2026-04-06T08:12:19.003Z</time></trkpt><trkpt lat="43.6462283" lon="12.4799567"><ele>432.25</ele><time>2026-04-06T08:12:20.003Z</time></trkpt><trkpt lat="43.6460833" lon="12.4798717"><ele>430.5</ele><time>2026-04-06T08:12:21.003Z</time></trkpt><trkpt lat="43.64595" lon="12.4798117"><ele>428.75</ele><time>2026-04-06T08:12:22.003Z</time></trkpt><trkpt lat="43.645825" lon="12.47976"><ele>427.0</ele><time>2026-04-06T08:12:23.003Z</time></trkpt><trkpt lat="43.645695" lon="12.479745"><ele>427.0</ele><time>2026-04-06T08:12:24.003Z</time></trkpt><trkpt lat="43.645565" lon="12.4797633"><ele>427.0</ele><time>2026-04-06T08:12:25.003Z</time></trkpt><trkpt lat="43.64542" lon="12.4797883"><ele>427.0</ele><time>2026-04-06T08:12:26.003Z</time></trkpt><trkpt lat="43.64527" lon="12.4797933"><ele>427.0</ele><time>2026-04-06T08:12:27.003Z</time></trkpt><trkpt lat="43.6451133" lon="12.4797517"><ele>429.6666666666667</ele><time>2026-04-06T08:12:28.003Z</time></trkpt><trkpt lat="43.6449517" lon="12.4796733"><ele>432.33333333333337</ele><time>2026-04-06T08:12:29.003Z</time></trkpt><trkpt lat="43.6447867" lon="12.4795933"><ele>435.0</ele><time>2026-04-06T08:12:30.003Z</time></trkpt><trkpt lat="43.6446233" lon="12.479505"><ele>434.33333333333337</ele><time>2026-04-06T08:12:31.003Z</time></trkpt><trkpt lat="43.6444617" lon="12.47941"><ele>433.6666666666667</ele><time>2026-04-06T08:12:32.003Z</time></trkpt><trkpt lat="43.6443033" lon="12.4793117"><ele>433.0</ele><time>2026-04-06T08:12:33.003Z</time></trkpt><trkpt lat="43.644145" lon="12.4792117"><ele>433.0</ele><time>2026-04-06T08:12:34.003Z</time></trkpt><trkpt lat="43.64399" lon="12.4791033"><ele>433.0</ele><time>2026-04-06T08:12:35.003Z</time></trkpt><trkpt lat="43.643845" lon="12.4789733"><ele>433.0</ele><time>2026-04-06T08:12:36.003Z</time></trkpt><trkpt lat="43.6437017" lon="12.4788167"><ele>436.0</ele><time>2026-04-06T08:12:37.003Z</time></trkpt><trkpt lat="43.643565" lon="12.4786433"><ele>439.0</ele><time>2026-04-06T08:12:38.003Z</time></trkpt><trkpt lat="43.64343" lon="12.478455"><ele>442.0</ele><time>2026-04-06T08:12:39.003Z</time></trkpt><trkpt lat="43.643295" lon="12.478265"><ele>442.0</ele><time>2026-04-06T08:12:40.003Z</time></trkpt><trkpt lat="43.643165" lon="12.47807"><ele>442.0</ele><time>2026-04-06T08:12:41.003Z</time></trkpt><trkpt lat="43.6430383" lon="12.47787"><ele>442.0</ele><time>2026-04-06T08:12:42.003Z</time></trkpt><trkpt lat="43.6429283" lon="12.4776717"><ele>444.6666666666667</ele><time>2026-04-06T08:12:43.003Z</time></trkpt><trkpt lat="43.6428233" lon="12.4774733"><ele>447.33333333333337</ele><time>2026-04-06T08:12:44.003Z</time></trkpt><trkpt lat="43.6427233" lon="12.4772683"><ele>450.0</ele><time>2026-04-06T08:12:45.002Z</time></trkpt><trkpt lat="43.6426217" lon="12.4770683"><ele>450.0</ele><time>2026-04-06T08:12:46.003Z</time></trkpt><trkpt lat="43.64252" lon="12.47688"><ele>450.0</ele><time>2026-04-06T08:12:47.003Z</time></trkpt><trkpt lat="43.6424067" lon="12.476695"><ele>450.0</ele><time>2026-04-06T08:12:48.003Z</time></trkpt><trkpt lat="43.642285" lon="12.4765233"><ele>450.0</ele><time>2026-04-06T08:12:49.003Z</time></trkpt><trkpt lat="43.6421567" lon="12.4763633"><ele>450.0</ele><time>2026-04-06T08:12:50.003Z</time></trkpt><trkpt lat="43.6420283" lon="12.4762083"><ele>450.0</ele><time>2026-04-06T08:12:51.003Z</time></trkpt><trkpt lat="43.6419067" lon="12.4760483"><ele>451.33333333333337</ele><time>2026-04-06T08:12:52.003Z</time></trkpt><trkpt lat="43.6417983" lon="12.4758667"><ele>452.6666666666667</ele><time>2026-04-06T08:12:53.003Z</time></trkpt><trkpt lat="43.6416983" lon="12.4756733"><ele>454.0</ele><time>2026-04-06T08:12:54.003Z</time></trkpt><trkpt lat="43.6416033" lon="12.475485"><ele>453.0</ele><time>2026-04-06T08:12:55.003Z</time></trkpt><trkpt lat="43.6415117" lon="12.4752917"><ele>452.0</ele><time>2026-04-06T08:12:56.003Z</time></trkpt><trkpt lat="43.6414267" lon="12.4750917"><ele>451.0</ele><time>2026-04-06T08:12:57.003Z</time></trkpt><trkpt lat="43.641335" lon="12.47489"><ele>451.0</ele><time>2026-04-06T08:12:58.003Z</time></trkpt><trkpt lat="43.64124" lon="12.4746867"><ele>451.0</ele><time>2026-04-06T08:12:59.003Z</time></trkpt><trkpt lat="43.6411283" lon="12.47449"><ele>451.0</ele><time>2026-04-06T08:13:00.003Z</time></trkpt><trkpt lat="43.6410033" lon="12.47431"><ele>454.6666666666667</ele><time>2026-04-06T08:13:01.003Z</time></trkpt><trkpt lat="43.640875" lon="12.47415"><ele>458.33333333333337</ele><time>2026-04-06T08:13:02.003Z</time></trkpt><trkpt lat="43.6407367" lon="12.4739817"><ele>462.0</ele><time>2026-04-06T08:13:03.003Z</time></trkpt><trkpt lat="43.640595" lon="12.4738283"><ele>459.0</ele><time>2026-04-06T08:13:04.003Z</time></trkpt><trkpt lat="43.6404533" lon="12.47366"><ele>456.0</ele><time>2026-04-06T08:13:05.003Z</time></trkpt><trkpt lat="43.64032" lon="12.4734917"><ele>453.0</ele><time>2026-04-06T08:13:06.003Z</time></trkpt><trkpt lat="43.6401967" lon="12.47334"><ele>454.75</ele><time>2026-04-06T08:13:07.003Z</time></trkpt><trkpt lat="43.64008" lon="12.4731933"><ele>456.5</ele><time>2026-04-06T08:13:08.003Z</time></trkpt><trkpt lat="43.6399733" lon="12.4730733"><ele>458.25</ele><time>2026-04-06T08:13:09.003Z</time></trkpt><trkpt lat="43.6398733" lon="12.4729867"><ele>460.0</ele><time>2026-04-06T08:13:10.003Z</time></trkpt><trkpt lat="43.6397667" lon="12.472925"><ele>460.0</ele><time>2026-04-06T08:13:11.003Z</time></trkpt><trkpt lat="43.63964" lon="12.4729017"><ele>460.0</ele><time>2026-04-06T08:13:12.003Z</time></trkpt><trkpt lat="43.6395083" lon="12.4728933"><ele>460.0</ele><time>2026-04-06T08:13:13.002Z</time></trkpt><trkpt lat="43.6393833" lon="12.4728883"><ele>460.0</ele><time>2026-04-06T08:13:14.003Z</time></trkpt><trkpt lat="43.6392783" lon="12.4728783"><ele>462.0</ele><time>2026-04-06T08:13:15.003Z</time></trkpt><trkpt lat="43.6391983" lon="12.4728683"><ele>464.0</ele><time>2026-04-06T08:13:16.003Z</time></trkpt><trkpt lat="43.63909" lon="12.4728517"><ele>466.0</ele><time>2026-04-06T08:13:18.003Z</time></trkpt><trkpt lat="43.6390217" lon="12.4728317"><ele>468.0</ele><time>2026-04-06T08:13:21.003Z</time></trkpt><trkpt lat="43.6388817" lon="12.4728483"><ele>470.0</ele><time>2026-04-06T08:14:15.003Z</time></trkpt><trkpt lat="43.63879" lon="12.4728117"><ele>470.0</ele><time>2026-04-06T08:14:16.003Z</time></trkpt><trkpt lat="43.6386917" lon="12.4727517"><ele>470.0</ele><time>2026-04-06T08:14:17.003Z</time></trkpt><trkpt lat="43.6385917" lon="12.4726633"><ele>470.0</ele><time>2026-04-06T08:14:18.003Z</time></trkpt><trkpt lat="43.63849" lon="12.47253"><ele>470.0</ele><time>2026-04-06T08:14:19.003Z</time></trkpt><trkpt lat="43.638385" lon="12.4723817"><ele>472.0</ele><time>2026-04-06T08:14:20.003Z</time></trkpt><trkpt lat="43.63829" lon="12.472235"><ele>474.0</ele><time>2026-04-06T08:14:21.003Z</time></trkpt><trkpt lat="43.63819" lon="12.4721083"><ele>476.0</ele><time>2026-04-06T08:14:22.003Z</time></trkpt><trkpt lat="43.63809" lon="12.4719967"><ele>478.0</ele><time>2026-04-06T08:14:23.003Z</time></trkpt><trkpt lat="43.6379633" lon="12.47189"><ele>478.0</ele><time>2026-04-06T08:14:24.003Z</time></trkpt><trkpt lat="43.6378267" lon="12.4718083"><ele>478.0</ele><time>2026-04-06T08:14:25.003Z</time></trkpt><trkpt lat="43.6376783" lon="12.4717233"><ele>478.0</ele><time>2026-04-06T08:14:26.003Z</time></trkpt><trkpt lat="43.63752" lon="12.4716467"><ele>483.6666666666667</ele><time>2026-04-06T08:14:27.003Z</time></trkpt><trkpt lat="43.6373583" lon="12.471565"><ele>489.33333333333337</ele><time>2026-04-06T08:14:28.003Z</time></trkpt><trkpt lat="43.6372017" lon="12.47149"><ele>495.0</ele><time>2026-04-06T08:14:29.003Z</time></trkpt><trkpt lat="43.63706" lon="12.4714117"><ele>499.0</ele><time>2026-04-06T08:14:30.003Z</time></trkpt><trkpt lat="43.6369583" lon="12.47129"><ele>503.0</ele><time>2026-04-06T08:14:31.003Z</time></trkpt><trkpt lat="43.6368833" lon="12.4711167"><ele>507.0</ele><time>2026-04-06T08:14:32.003Z</time></trkpt><trkpt lat="43.63684" lon="12.4709167"><ele>511.0</ele><time>2026-04-06T08:14:33.003Z</time></trkpt><trkpt lat="43.6368083" lon="12.470695"><ele>511.0</ele><time>2026-04-06T08:14:34.003Z</time></trkpt><trkpt lat="43.6368017" lon="12.47049"><ele>511.0</ele><time>2026-04-06T08:14:35.003Z</time></trkpt><trkpt lat="43.6367817" lon="12.4703117"><ele>511.0</ele><time>2026-04-06T08:14:36.003Z</time></trkpt><trkpt lat="43.6367467" lon="12.4701667"><ele>511.0</ele><time>2026-04-06T08:14:37.003Z</time></trkpt><trkpt lat="43.6366783" lon="12.4700533"><ele>508.8</ele><time>2026-04-06T08:14:38.003Z</time></trkpt><trkpt lat="43.6365967" lon="12.4699783"><ele>506.6</ele><time>2026-04-06T08:14:39.003Z</time></trkpt><trkpt lat="43.6365033" lon="12.4699317"><ele>504.4</ele><time>2026-04-06T08:14:40.003Z</time></trkpt><trkpt lat="43.6364183" lon="12.4699233"><ele>502.2</ele><time>2026-04-06T08:14:41.003Z</time></trkpt><trkpt lat="43.63632" lon="12.4699667"><ele>500.0</ele><time>2026-04-06T08:14:42.003Z</time></trkpt><trkpt lat="43.6362083" lon="12.47007"><ele>503.66666666666663</ele><time>2026-04-06T08:14:43.003Z</time></trkpt><trkpt lat="43.63608" lon="12.4702383"><ele>507.33333333333337</ele><time>2026-04-06T08:14:44.003Z</time></trkpt><trkpt lat="43.6359583" lon="12.4703833"><ele>511.0</ele><time>2026-04-06T08:14:45.003Z</time></trkpt><trkpt lat="43.63583" lon="12.4704733"><ele>511.0</ele><time>2026-04-06T08:14:46.003Z</time></trkpt><trkpt lat="43.6357033" lon="12.4704817"><ele>511.0</ele><time>2026-04-06T08:14:47.003Z</time></trkpt><trkpt lat="43.6355783" lon="12.4704417"><ele>511.0</ele><time>2026-04-06T08:14:48.003Z</time></trkpt><trkpt lat="43.6354483" lon="12.4703767"><ele>511.0</ele><time>2026-04-06T08:14:49.003Z</time></trkpt><trkpt lat="43.6353217" lon="12.470315"><ele>511.75</ele><time>2026-04-06T08:14:50.003Z</time></trkpt><trkpt lat="43.6351983" lon="12.4702733"><ele>512.5</ele><time>2026-04-06T08:14:51.003Z</time></trkpt><trkpt lat="43.6350767" lon="12.4702617"><ele>513.25</ele><time>2026-04-06T08:14:52.003Z</time></trkpt><trkpt lat="43.6349717" lon="12.4703117"><ele>514.0</ele><time>2026-04-06T08:14:53.003Z</time></trkpt><trkpt lat="43.6348833" lon="12.4704117"><ele>515.5</ele><time>2026-04-06T08:14:54.003Z</time></trkpt><trkpt lat="43.63479" lon="12.470545"><ele>517.0</ele><time>2026-04-06T08:14:55.003Z</time></trkpt><trkpt lat="43.63469" lon="12.4706817"><ele>518.5</ele><time>2026-04-06T08:14:56.003Z</time></trkpt><trkpt lat="43.634585" lon="12.4708217"><ele>520.0</ele><time>2026-04-06T08:14:57.003Z</time></trkpt><trkpt lat="43.6344683" lon="12.4709717"><ele>520.0</ele><time>2026-04-06T08:14:58.003Z</time></trkpt><trkpt lat="43.6343533" lon="12.4711033"><ele>520.0</ele><time>2026-04-06T08:14:59.003Z</time></trkpt><trkpt lat="43.634235" lon="12.4712333"><ele>520.0</ele><time>2026-04-06T08:15:00.003Z</time></trkpt><trkpt lat="43.6341" lon="12.4713283"><ele>525.3333333333334</ele><time>2026-04-06T08:15:01.003Z</time></trkpt><trkpt lat="43.6339533" lon="12.4713933"><ele>530.6666666666666</ele><time>2026-04-06T08:15:02.003Z</time></trkpt><trkpt lat="43.6338017" lon="12.4714283"><ele>536.0</ele><time>2026-04-06T08:15:03.003Z</time></trkpt><trkpt lat="43.6336483" lon="12.4714633"><ele>535.5</ele><time>2026-04-06T08:15:04.003Z</time></trkpt><trkpt lat="43.6335033" lon="12.4715017"><ele>535.0</ele><time>2026-04-06T08:15:05.003Z</time></trkpt><trkpt lat="43.6333733" lon="12.4715583"><ele>534.5</ele><time>2026-04-06T08:15:06.003Z</time></trkpt><trkpt lat="43.63326" lon="12.471655"><ele>534.0</ele><time>2026-04-06T08:15:07.003Z</time></trkpt><trkpt lat="43.63316" lon="12.471785"><ele>534.0</ele><time>2026-04-06T08:15:08.003Z</time></trkpt><trkpt lat="43.63307" lon="12.4719317"><ele>534.0</ele><time>2026-04-06T08:15:09.003Z</time></trkpt><trkpt lat="43.6329817" lon="12.4720667"><ele>534.0</ele><time>2026-04-06T08:15:10.003Z</time></trkpt><trkpt lat="43.6328767" lon="12.4721667"><ele>534.0</ele><time>2026-04-06T08:15:11.003Z</time></trkpt><trkpt lat="43.6327583" lon="12.4722067"><ele>533.5</ele><time>2026-04-06T08:15:12.003Z</time></trkpt><trkpt lat="43.6326383" lon="12.4721533"><ele>533.0</ele><time>2026-04-06T08:15:13.003Z</time></trkpt><trkpt lat="43.63254" lon="12.472045"><ele>532.5</ele><time>2026-04-06T08:15:14.003Z</time></trkpt><trkpt lat="43.63245" lon="12.4719133"><ele>532.0</ele><time>2026-04-06T08:15:15.003Z</time></trkpt><trkpt lat="43.6323633" lon="12.4718033"><ele>532.0</ele><time>2026-04-06T08:15:16.003Z</time></trkpt><trkpt lat="43.63227" lon="12.471735"><ele>532.0</ele><time>2026-04-06T08:15:17.003Z</time></trkpt><trkpt lat="43.6321717" lon="12.4717183"><ele>532.0</ele><time>2026-04-06T08:15:18.003Z</time></trkpt><trkpt lat="43.632075" lon="12.4717583"><ele>532.0</ele><time>2026-04-06T08:15:19.003Z</time></trkpt><trkpt lat="43.6319917" lon="12.4718517"><ele>532.0</ele><time>2026-04-06T08:15:20.003Z</time></trkpt><trkpt lat="43.6319183" lon="12.471995"><ele>532.6666666666667</ele><time>2026-04-06T08:15:21.003Z</time></trkpt><trkpt lat="43.6318567" lon="12.472185"><ele>533.3333333333334</ele><time>2026-04-06T08:15:22.003Z</time></trkpt><trkpt lat="43.6317833" lon="12.4724"><ele>534.0</ele><time>2026-04-06T08:15:23.003Z</time></trkpt><trkpt lat="43.6316967" lon="12.47262"><ele>534.0</ele><time>2026-04-06T08:15:24.003Z</time></trkpt><trkpt lat="43.6315917" lon="12.4728233"><ele>534.0</ele><time>2026-04-06T08:15:25.003Z</time></trkpt><trkpt lat="43.6314717" lon="12.47301"><ele>534.0</ele><time>2026-04-06T08:15:26.003Z</time></trkpt><trkpt lat="43.6313367" lon="12.4731817"><ele>532.3333333333334</ele><time>2026-04-06T08:15:27.003Z</time></trkpt><trkpt lat="43.6311867" lon="12.4733417"><ele>530.6666666666667</ele><time>2026-04-06T08:15:28.003Z</time></trkpt><trkpt lat="43.6310267" lon="12.473495"><ele>529.0</ele><time>2026-04-06T08:15:29.003Z</time></trkpt><trkpt lat="43.6308667" lon="12.4736433"><ele>531.6666666666667</ele><time>2026-04-06T08:15:30.003Z</time></trkpt><trkpt lat="43.63072" lon="12.4737817"><ele>534.3333333333334</ele><time>2026-04-06T08:15:31.003Z</time></trkpt><trkpt lat="43.63059" lon="12.4739117"><ele>537.0</ele><time>2026-04-06T08:15:32.002Z</time></trkpt><trkpt lat="43.6304633" lon="12.4740467"><ele>537.0</ele><time>2026-04-06T08:15:33.003Z</time></trkpt><trkpt lat="43.6303467" lon="12.4741933"><ele>537.0</ele><time>2026-04-06T08:15:34.003Z</time></trkpt><trkpt lat="43.6302433" lon="12.4743533"><ele>537.0</ele><time>2026-04-06T08:15:35.003Z</time></trkpt><trkpt lat="43.6301533" lon="12.4745167"><ele>535.5</ele><time>2026-04-06T08:15:36.003Z</time></trkpt><trkpt lat="43.6300583" lon="12.474655"><ele>534.0</ele><time>2026-04-06T08:15:37.003Z</time></trkpt><trkpt lat="43.6299517" lon="12.4747567"><ele>532.5</ele><time>2026-04-06T08:15:38.003Z</time></trkpt><trkpt lat="43.6298233" lon="12.4748083"><ele>531.0</ele><time>2026-04-06T08:15:39.003Z</time></trkpt><trkpt lat="43.629685" lon="12.4748"><ele>531.0</ele><time>2026-04-06T08:15:40.003Z</time></trkpt><trkpt lat="43.629545" lon="12.4747667"><ele>531.0</ele><time>2026-04-06T08:15:41.003Z</time></trkpt><trkpt lat="43.6294083" lon="12.474735"><ele>531.0</ele><time>2026-04-06T08:15:42.003Z</time></trkpt><trkpt lat="43.62927" lon="12.474705"><ele>531.0</ele><time>2026-04-06T08:15:43.003Z</time></trkpt><trkpt lat="43.6291483" lon="12.4746817"><ele>528.25</ele><time>2026-04-06T08:15:44.003Z</time></trkpt><trkpt lat="43.629025" lon="12.4746617"><ele>525.5</ele><time>2026-04-06T08:15:45.003Z</time></trkpt><trkpt lat="43.6289083" lon="12.4746583"><ele>522.75</ele><time>2026-04-06T08:15:46.003Z</time></trkpt><trkpt lat="43.6288067" lon="12.4747067"><ele>520.0</ele><time>2026-04-06T08:15:47.003Z</time></trkpt><trkpt lat="43.62871" lon="12.4748133"><ele>517.5</ele><time>2026-04-06T08:15:48.003Z</time></trkpt><trkpt lat="43.62863" lon="12.4749567"><ele>515.0</ele><time>2026-04-06T08:15:49.003Z</time></trkpt><trkpt lat="43.62856" lon="12.47512"><ele>512.5</ele><time>2026-04-06T08:15:50.003Z</time></trkpt><trkpt lat="43.62849" lon="12.4752833"><ele>510.0</ele><time>2026-04-06T08:15:51.003Z</time></trkpt><trkpt lat="43.6283867" lon="12.4754117"><ele>512.3333333333334</ele><time>2026-04-06T08:15:52.003Z</time></trkpt><trkpt lat="43.6282533" lon="12.4755083"><ele>514.6666666666667</ele><time>2026-04-06T08:15:53.003Z</time></trkpt><trkpt lat="43.6281" lon="12.47557"><ele>517.0</ele><time>2026-04-06T08:15:54.003Z</time></trkpt><trkpt lat="43.6279333" lon="12.4756267"><ele>513.0</ele><time>2026-04-06T08:15:55.003Z</time></trkpt><trkpt lat="43.62777" lon="12.4756817"><ele>509.0</ele><time>2026-04-06T08:15:56.003Z</time></trkpt><trkpt lat="43.627605" lon="12.47575"><ele>505.0</ele><time>2026-04-06T08:15:57.003Z</time></trkpt><trkpt lat="43.627445" lon="12.475815"><ele>505.0</ele><time>2026-04-06T08:15:58.003Z</time></trkpt><trkpt lat="43.6272833" lon="12.47589"><ele>505.0</ele><time>2026-04-06T08:15:59.003Z</time></trkpt><trkpt lat="43.6271267" lon="12.47595"><ele>505.0</ele><time>2026-04-06T08:16:00.003Z</time></trkpt><trkpt lat="43.626985" lon="12.4760017"><ele>503.0</ele><time>2026-04-06T08:16:01.003Z</time></trkpt><trkpt lat="43.6268433" lon="12.4760583"><ele>501.0</ele><time>2026-04-06T08:16:02.003Z</time></trkpt><trkpt lat="43.62671" lon="12.4761117"><ele>499.0</ele><time>2026-04-06T08:16:03.003Z</time></trkpt><trkpt lat="43.6265817" lon="12.47615"><ele>497.0</ele><time>2026-04-06T08:16:04.003Z</time></trkpt><trkpt lat="43.62647" lon="12.476165"><ele>497.0</ele><time>2026-04-06T08:16:05.003Z</time></trkpt><trkpt lat="43.6263633" lon="12.476135"><ele>497.0</ele><time>2026-04-06T08:16:06.003Z</time></trkpt><trkpt lat="43.6262583" lon="12.476055"><ele>497.0</ele><time>2026-04-06T08:16:07.003Z</time></trkpt><trkpt lat="43.6261667" lon="12.475915"><ele>497.0</ele><time>2026-04-06T08:16:08.003Z</time></trkpt><trkpt lat="43.6260867" lon="12.4757467"><ele>494.0</ele><time>2026-04-06T08:16:09.003Z</time></trkpt><trkpt lat="43.626015" lon="12.4755883"><ele>491.0</ele><time>2026-04-06T08:16:10.003Z</time></trkpt><trkpt lat="43.62596" lon="12.4754267"><ele>488.0</ele><time>2026-04-06T08:16:11.003Z</time></trkpt><trkpt lat="43.62592" lon="12.4752678"><ele>485.0</ele><time>2026-04-06T08:16:12.003Z</time></trkpt><trkpt lat="43.625916" lon="12.475106"><ele>484.8333333333333</ele><time>2026-04-06T08:16:13.003Z</time></trkpt><trkpt lat="43.625933" lon="12.4749576"><ele>484.66666666666663</ele><time>2026-04-06T08:16:14.003Z</time></trkpt><trkpt lat="43.6259416" lon="12.4748211"><ele>484.5</ele><time>2026-04-06T08:16:15.003Z</time></trkpt><trkpt lat="43.6259164" lon="12.4747127"><ele>484.33333333333337</ele><time>2026-04-06T08:16:16.003Z</time></trkpt><trkpt lat="43.6258692" lon="12.4746234"><ele>484.1666666666667</ele><time>2026-04-06T08:16:17.003Z</time></trkpt><trkpt lat="43.6258037" lon="12.4745687"><ele>484.0</ele><time>2026-04-06T08:16:18.003Z</time></trkpt><trkpt lat="43.6257348" lon="12.4745542"><ele>484.0</ele><time>2026-04-06T08:16:19.003Z</time></trkpt><trkpt lat="43.6256655" lon="12.4745939"><ele>484.0</ele><time>2026-04-06T08:16:20.003Z</time></trkpt><trkpt lat="43.6256031" lon="12.4746963"><ele>484.0</ele><time>2026-04-06T08:16:21.003Z</time></trkpt><trkpt lat="43.6255541" lon="12.4748688"><ele>484.0</ele><time>2026-04-06T08:16:22.003Z</time></trkpt><trkpt lat="43.6255396" lon="12.4750685"><ele>484.0</ele><time>2026-04-06T08:16:23.003Z</time></trkpt><trkpt lat="43.6255738" lon="12.4752922"><ele>484.0</ele><time>2026-04-06T08:16:24.003Z</time></trkpt><trkpt lat="43.6256478" lon="12.4755419"><ele>484.0</ele><time>2026-04-06T08:16:25.003Z</time></trkpt><trkpt lat="43.6257299" lon="12.4757954"><ele>484.33333333333337</ele><time>2026-04-06T08:16:26.003Z</time></trkpt><trkpt lat="43.62581" lon="12.4760444"><ele>484.66666666666663</ele><time>2026-04-06T08:16:27.003Z</time></trkpt><trkpt lat="43.6258747" lon="12.4762642"><ele>485.0</ele><time>2026-04-06T08:16:28Z</time></trkpt><trkpt lat="43.625923" lon="12.4764477"><ele>483.0</ele><time>2026-04-06T08:16:29.003Z</time></trkpt><trkpt lat="43.6259658" lon="12.4766036"><ele>481.0</ele><time>2026-04-06T08:16:30.003Z</time></trkpt><trkpt lat="43.626006" lon="12.4767421"><ele>479.0</ele><time>2026-04-06T08:16:31.003Z</time></trkpt><trkpt lat="43.6260378" lon="12.4768695"><ele>477.0</ele><time>2026-04-06T08:16:32.003Z</time></trkpt><trkpt lat="43.6260495" lon="12.4769849"><ele>475.0</ele><time>2026-04-06T08:16:33.003Z</time></trkpt><trkpt lat="43.6260317" lon="12.47709"><ele>475.00000000000006</ele><time>2026-04-06T08:16:34.003Z</time></trkpt><trkpt lat="43.6259805" lon="12.4771738"><ele>475.0</ele><time>2026-04-06T08:16:35.003Z</time></trkpt><trkpt lat="43.625907" lon="12.4772213"><ele>475.0</ele><time>2026-04-06T08:16:36.003Z</time></trkpt><trkpt lat="43.6258238" lon="12.477213"><ele>475.0</ele><time>2026-04-06T08:16:37.003Z</time></trkpt><trkpt lat="43.6257476" lon="12.4771452"><ele>475.00000000000006</ele><time>2026-04-06T08:16:38.003Z</time></trkpt><trkpt lat="43.6256826" lon="12.4770314"><ele>475.0</ele><time>2026-04-06T08:16:39.003Z</time></trkpt><trkpt lat="43.6256324" lon="12.4768662"><ele>475.0</ele><time>2026-04-06T08:16:40.003Z</time></trkpt><trkpt lat="43.6255905" lon="12.4766546"><ele>475.0</ele><time>2026-04-06T08:16:41.003Z</time></trkpt><trkpt lat="43.6255503" lon="12.4763824"><ele>475.0</ele><time>2026-04-06T08:16:42.003Z</time></trkpt><trkpt lat="43.625503" lon="12.4761288"><ele>478.33333333333337</ele><time>2026-04-06T08:16:43.003Z</time></trkpt><trkpt lat="43.6254403" lon="12.4758932"><ele>481.66666666666663</ele><time>2026-04-06T08:16:44.003Z</time></trkpt><trkpt lat="43.6253488" lon="12.475686"><ele>485.0</ele><time>2026-04-06T08:16:45.003Z</time></trkpt><trkpt lat="43.6252489" lon="12.475515"><ele>479.0</ele><time>2026-04-06T08:16:46.003Z</time></trkpt><trkpt lat="43.6251497" lon="12.4753741"><ele>473.0</ele><time>2026-04-06T08:16:47.003Z</time></trkpt><trkpt lat="43.625067" lon="12.4752311"><ele>467.0</ele><time>2026-04-06T08:16:48.003Z</time></trkpt><trkpt lat="43.6250034" lon="12.4750779"><ele>461.0</ele><time>2026-04-06T08:16:49.003Z</time></trkpt><trkpt lat="43.6249676" lon="12.4749185"><ele>461.0</ele><time>2026-04-06T08:16:50.003Z</time></trkpt><trkpt lat="43.6249506" lon="12.4747691"><ele>461.0</ele><time>2026-04-06T08:16:51.003Z</time></trkpt><trkpt lat="43.6249316" lon="12.4746347"><ele>461.0</ele><time>2026-04-06T08:16:52.003Z</time></trkpt><trkpt lat="43.6248923" lon="12.4745198"><ele>461.0</ele><time>2026-04-06T08:16:53.003Z</time></trkpt><trkpt lat="43.6248376" lon="12.4744353"><ele>461.0</ele><time>2026-04-06T08:16:54.003Z</time></trkpt><trkpt lat="43.6247756" lon="12.4743772"><ele>461.0</ele><time>2026-04-06T08:16:55.003Z</time></trkpt><trkpt lat="43.6247007" lon="12.4743626"><ele>461.0</ele><time>2026-04-06T08:16:56.003Z</time></trkpt><trkpt lat="43.6246296" lon="12.4744083"><ele>461.0</ele><time>2026-04-06T08:16:57.003Z</time></trkpt><trkpt lat="43.6245698" lon="12.474529"><ele>461.0</ele><time>2026-04-06T08:16:58.003Z</time></trkpt><trkpt lat="43.6245353" lon="12.4746892"><ele>461.0</ele><time>2026-04-06T08:16:59.003Z</time></trkpt><trkpt lat="43.6245545" lon="12.4748767"><ele>461.0</ele><time>2026-04-06T08:17:00.003Z</time></trkpt><trkpt lat="43.6246162" lon="12.475088"><ele>461.0</ele><time>2026-04-06T08:17:01.003Z</time></trkpt><trkpt lat="43.6247292" lon="12.4753456"><ele>461.0</ele><time>2026-04-06T08:17:02.003Z</time></trkpt><trkpt lat="43.6248449" lon="12.4755867"><ele>459.5</ele><time>2026-04-06T08:17:03.003Z</time></trkpt><trkpt lat="43.6249358" lon="12.4757976"><ele>458.0</ele><time>2026-04-06T08:17:04.003Z</time></trkpt><trkpt lat="43.6249923" lon="12.4759718"><ele>456.5</ele><time>2026-04-06T08:17:05.003Z</time></trkpt><trkpt lat="43.6250082" lon="12.476133"><ele>455.0</ele><time>2026-04-06T08:17:06.003Z</time></trkpt><trkpt lat="43.624978" lon="12.476289"><ele>454.0</ele><time>2026-04-06T08:17:07.003Z</time></trkpt><trkpt lat="43.6249042" lon="12.476429"><ele>453.0</ele><time>2026-04-06T08:17:08.003Z</time></trkpt><trkpt lat="43.6247826" lon="12.4765375"><ele>452.0</ele><time>2026-04-06T08:17:09.003Z</time></trkpt><trkpt lat="43.6246428" lon="12.4766269"><ele>451.0</ele><time>2026-04-06T08:17:10.003Z</time></trkpt><trkpt lat="43.6245083" lon="12.4767083"><ele>449.75</ele><time>2026-04-06T08:17:11.003Z</time></trkpt><trkpt lat="43.6243912" lon="12.4767628"><ele>448.5</ele><time>2026-04-06T08:17:12.003Z</time></trkpt><trkpt lat="43.6242774" lon="12.4767786"><ele>447.25</ele><time>2026-04-06T08:17:13.003Z</time></trkpt><trkpt lat="43.6241621" lon="12.4767374"><ele>446.0</ele><time>2026-04-06T08:17:14.003Z</time></trkpt><trkpt lat="43.6240494" lon="12.4766302"><ele>446.0</ele><time>2026-04-06T08:17:15.003Z</time></trkpt><trkpt lat="43.6239485" lon="12.4764685"><ele>446.0</ele><time>2026-04-06T08:17:16.003Z</time></trkpt><trkpt lat="43.6238403" lon="12.4762859"><ele>446.0</ele><time>2026-04-06T08:17:17.003Z</time></trkpt><trkpt lat="43.6237332" lon="12.4761124"><ele>443.3333333333333</ele><time>2026-04-06T08:17:18.003Z</time></trkpt><trkpt lat="43.6236239" lon="12.4759544"><ele>440.66666666666663</ele><time>2026-04-06T08:17:19.003Z</time></trkpt><trkpt lat="43.6235124" lon="12.4758159"><ele>438.0</ele><time>2026-04-06T08:17:20.003Z</time></trkpt><trkpt lat="43.6234002" lon="12.4756859"><ele>438.0</ele><time>2026-04-06T08:17:21.003Z</time></trkpt><trkpt lat="43.6232788" lon="12.475577"><ele>438.0</ele><time>2026-04-06T08:17:22.003Z</time></trkpt><trkpt lat="43.6231451" lon="12.4754899"><ele>438.0</ele><time>2026-04-06T08:17:23.003Z</time></trkpt><trkpt lat="43.6230122" lon="12.4754316"><ele>438.0</ele><time>2026-04-06T08:17:24.003Z</time></trkpt><trkpt lat="43.6228771" lon="12.4753545"><ele>434.75</ele><time>2026-04-06T08:17:25.003Z</time></trkpt><trkpt lat="43.6227529" lon="12.4752502"><ele>431.5</ele><time>2026-04-06T08:17:26.003Z</time></trkpt><trkpt lat="43.6226479" lon="12.4751265"><ele>428.25</ele><time>2026-04-06T08:17:27.003Z</time></trkpt><trkpt lat="43.6225451" lon="12.4750014"><ele>425.0</ele><time>2026-04-06T08:17:28.003Z</time></trkpt><trkpt lat="43.6224275" lon="12.4748919"><ele>425.0</ele><time>2026-04-06T08:17:29.003Z</time></trkpt><trkpt lat="43.6222989" lon="12.4748158"><ele>425.0</ele><time>2026-04-06T08:17:30.003Z</time></trkpt><trkpt lat="43.6221588" lon="12.4747828"><ele>425.0</ele><time>2026-04-06T08:17:31.003Z</time></trkpt><trkpt lat="43.6220165" lon="12.4747933"><ele>425.0</ele><time>2026-04-06T08:17:32.003Z</time></trkpt><trkpt lat="43.6218803" lon="12.4748309"><ele>422.0</ele><time>2026-04-06T08:17:33.003Z</time></trkpt><trkpt lat="43.6217601" lon="12.4748947"><ele>419.0</ele><time>2026-04-06T08:17:34.003Z</time></trkpt><trkpt lat="43.621649" lon="12.4749872"><ele>416.0</ele><time>2026-04-06T08:17:35.003Z</time></trkpt><trkpt lat="43.6215447" lon="12.4751205"><ele>413.0</ele><time>2026-04-06T08:17:36.003Z</time></trkpt><trkpt lat="43.6214491" lon="12.475292"><ele>412.0</ele><time>2026-04-06T08:17:37.003Z</time></trkpt><trkpt lat="43.6213615" lon="12.4754737"><ele>411.0</ele><time>2026-04-06T08:17:38.003Z</time></trkpt><trkpt lat="43.6212783" lon="12.4756401"><ele>410.0</ele><time>2026-04-06T08:17:39.003Z</time></trkpt><trkpt lat="43.6211888" lon="12.4757891"><ele>409.0</ele><time>2026-04-06T08:17:40.003Z</time></trkpt><trkpt lat="43.6210852" lon="12.4759036"><ele>409.0</ele><time>2026-04-06T08:17:41.003Z</time></trkpt><trkpt lat="43.6209663" lon="12.4759614"><ele>409.0</ele><time>2026-04-06T08:17:42.003Z</time></trkpt><trkpt lat="43.6208347" lon="12.4759709"><ele>409.0</ele><time>2026-04-06T08:17:43.003Z</time></trkpt><trkpt lat="43.6206919" lon="12.4759318"><ele>409.0</ele><time>2026-04-06T08:17:44.003Z</time></trkpt><trkpt lat="43.620545" lon="12.4758656"><ele>409.0</ele><time>2026-04-06T08:17:45.003Z</time></trkpt><trkpt lat="43.6203946" lon="12.4757849"><ele>409.0</ele><time>2026-04-06T08:17:46.003Z</time></trkpt><trkpt lat="43.620234" lon="12.4757061"><ele>409.0</ele><time>2026-04-06T08:17:47.003Z</time></trkpt><trkpt lat="43.6200647" lon="12.4756319"><ele>409.33333333333337</ele><time>2026-04-06T08:17:48.003Z</time></trkpt><trkpt lat="43.6198923" lon="12.4755503"><ele>409.66666666666663</ele><time>2026-04-06T08:17:49.003Z</time></trkpt><trkpt lat="43.6197233" lon="12.4754701"><ele>410.0</ele><time>2026-04-06T08:17:50.003Z</time></trkpt><trkpt lat="43.6195603" lon="12.4753945"><ele>406.66666666666663</ele><time>2026-04-06T08:17:51.003Z</time></trkpt><trkpt lat="43.6194094" lon="12.4753207"><ele>403.33333333333337</ele><time>2026-04-06T08:17:52.003Z</time></trkpt><trkpt lat="43.6192604" lon="12.4752373"><ele>400.0</ele><time>2026-04-06T08:17:53.003Z</time></trkpt><trkpt lat="43.6191109" lon="12.4751222"><ele>400.0</ele><time>2026-04-06T08:17:54.003Z</time></trkpt><trkpt lat="43.6189699" lon="12.4749771"><ele>400.0</ele><time>2026-04-06T08:17:55.003Z</time></trkpt><trkpt lat="43.6188318" lon="12.4748096"><ele>400.0</ele><time>2026-04-06T08:17:56.003Z</time></trkpt><trkpt lat="43.6186965" lon="12.4746378"><ele>397.6666666666667</ele><time>2026-04-06T08:17:57.003Z</time></trkpt><trkpt lat="43.6185631" lon="12.4744729"><ele>395.33333333333337</ele><time>2026-04-06T08:17:58.003Z</time></trkpt><trkpt lat="43.6184337" lon="12.4743139"><ele>393.0</ele><time>2026-04-06T08:17:59.003Z</time></trkpt><trkpt lat="43.6183034" lon="12.4741596"><ele>393.0</ele><time>2026-04-06T08:18:00.003Z</time></trkpt><trkpt lat="43.618182" lon="12.4740143"><ele>393.0</ele><time>2026-04-06T08:18:01.003Z</time></trkpt><trkpt lat="43.6180631" lon="12.4738775"><ele>393.0</ele><time>2026-04-06T08:18:02.003Z</time></trkpt><trkpt lat="43.6179443" lon="12.4737511"><ele>392.75</ele><time>2026-04-06T08:18:03.003Z</time></trkpt><trkpt lat="43.6178248" lon="12.4736294"><ele>392.5</ele><time>2026-04-06T08:18:04.003Z</time></trkpt><trkpt lat="43.6177009" lon="12.4735173"><ele>392.25</ele><time>2026-04-06T08:18:05.003Z</time></trkpt><trkpt lat="43.617571" lon="12.4734121"><ele>392.0</ele><time>2026-04-06T08:18:06.003Z</time></trkpt><trkpt lat="43.6174337" lon="12.4733186"><ele>390.66666666666663</ele><time>2026-04-06T08:18:07.003Z</time></trkpt><trkpt lat="43.6172907" lon="12.473252"><ele>389.33333333333337</ele><time>2026-04-06T08:18:08.003Z</time></trkpt><trkpt lat="43.617135" lon="12.473215"><ele>388.0</ele><time>2026-04-06T08:18:09.003Z</time></trkpt><trkpt lat="43.616972" lon="12.4731985"><ele>387.0</ele><time>2026-04-06T08:18:10.003Z</time></trkpt><trkpt lat="43.6168043" lon="12.4732072"><ele>386.0</ele><time>2026-04-06T08:18:11.003Z</time></trkpt><trkpt lat="43.6166283" lon="12.4732432"><ele>385.0</ele><time>2026-04-06T08:18:12.003Z</time></trkpt><trkpt lat="43.6164499" lon="12.4733009"><ele>385.0</ele><time>2026-04-06T08:18:13.003Z</time></trkpt><trkpt lat="43.6162694" lon="12.4733662"><ele>385.0</ele><time>2026-04-06T08:18:14.003Z</time></trkpt><trkpt lat="43.6160946" lon="12.4734167"><ele>385.0</ele><time>2026-04-06T08:18:15.003Z</time></trkpt><trkpt lat="43.6159236" lon="12.4734638"><ele>383.0</ele><time>2026-04-06T08:18:16.003Z</time></trkpt><trkpt lat="43.6157514" lon="12.4735133"><ele>381.0</ele><time>2026-04-06T08:18:17.003Z</time></trkpt><trkpt lat="43.6155811" lon="12.4735633"><ele>379.0</ele><time>2026-04-06T08:18:18.003Z</time></trkpt><trkpt lat="43.6154126" lon="12.4736037"><ele>377.0</ele><time>2026-04-06T08:18:19.003Z</time></trkpt><trkpt lat="43.61525" lon="12.4736522"><ele>375.0</ele><time>2026-04-06T08:18:20.003Z</time></trkpt><trkpt lat="43.6150944" lon="12.4737007"><ele>373.0</ele><time>2026-04-06T08:18:21.003Z</time></trkpt><trkpt lat="43.614941" lon="12.4737451"><ele>372.0</ele><time>2026-04-06T08:18:22.003Z</time></trkpt><trkpt lat="43.6147964" lon="12.473781"><ele>371.0</ele><time>2026-04-06T08:18:23.003Z</time></trkpt><trkpt lat="43.614663" lon="12.4737986"><ele>370.0</ele><time>2026-04-06T08:18:24.003Z</time></trkpt><trkpt lat="43.6145324" lon="12.4738445"><ele>369.0</ele><time>2026-04-06T08:18:25.003Z</time></trkpt><trkpt lat="43.6144125" lon="12.4739294"><ele>369.0</ele><time>2026-04-06T08:18:26.003Z</time></trkpt><trkpt lat="43.61432" lon="12.4740767"><ele>369.0</ele><time>2026-04-06T08:18:27.003Z</time></trkpt><trkpt lat="43.61423" lon="12.4742667"><ele>369.0</ele><time>2026-04-06T08:18:28.003Z</time></trkpt><trkpt lat="43.6141533" lon="12.4744733"><ele>371.6666666666667</ele><time>2026-04-06T08:18:29.003Z</time></trkpt><trkpt lat="43.61407" lon="12.4746933"><ele>374.33333333333337</ele><time>2026-04-06T08:18:30.003Z</time></trkpt><trkpt lat="43.613985" lon="12.4749033"><ele>377.0</ele><time>2026-04-06T08:18:31.003Z</time></trkpt><trkpt lat="43.6139" lon="12.4751033"><ele>377.0</ele><time>2026-04-06T08:18:32.003Z</time></trkpt><trkpt lat="43.6138117" lon="12.4753033"><ele>377.0</ele><time>2026-04-06T08:18:33.003Z</time></trkpt><trkpt lat="43.6137217" lon="12.4755017"><ele>377.0</ele><time>2026-04-06T08:18:34.003Z</time></trkpt><trkpt lat="43.613635" lon="12.4756933"><ele>376.33333333333337</ele><time>2026-04-06T08:18:35.003Z</time></trkpt><trkpt lat="43.6135483" lon="12.4758983"><ele>375.6666666666667</ele><time>2026-04-06T08:18:36.003Z</time></trkpt><trkpt lat="43.6134683" lon="12.4760967"><ele>375.0</ele><time>2026-04-06T08:18:37.003Z</time></trkpt><trkpt lat="43.6133833" lon="12.4762967"><ele>374.6666666666667</ele><time>2026-04-06T08:18:38.003Z</time></trkpt><trkpt lat="43.6132967" lon="12.4764967"><ele>374.33333333333337</ele><time>2026-04-06T08:18:39.003Z</time></trkpt><trkpt lat="43.6132067" lon="12.4766933"><ele>374.0</ele><time>2026-04-06T08:18:40.003Z</time></trkpt><trkpt lat="43.6131167" lon="12.4768967"><ele>374.0</ele><time>2026-04-06T08:18:41.003Z</time></trkpt><trkpt lat="43.6130317" lon="12.4771"><ele>374.0</ele><time>2026-04-06T08:18:42.003Z</time></trkpt><trkpt lat="43.61295" lon="12.4772983"><ele>374.0</ele><time>2026-04-06T08:18:43.003Z</time></trkpt><trkpt lat="43.612885" lon="12.4774783"><ele>373.75</ele><time>2026-04-06T08:18:44.003Z</time></trkpt><trkpt lat="43.612825" lon="12.47764"><ele>373.5</ele><time>2026-04-06T08:18:45.003Z</time></trkpt><trkpt lat="43.6127733" lon="12.4777967"><ele>373.25</ele><time>2026-04-06T08:18:46.003Z</time></trkpt><trkpt lat="43.6127283" lon="12.4779383"><ele>373.0</ele><time>2026-04-06T08:18:47.003Z</time></trkpt><trkpt lat="43.61268" lon="12.478075"><ele>374.25</ele><time>2026-04-06T08:18:48.003Z</time></trkpt><trkpt lat="43.6126317" lon="12.4782133"><ele>375.5</ele><time>2026-04-06T08:18:49.003Z</time></trkpt><trkpt lat="43.6125867" lon="12.4783583"><ele>376.75</ele><time>2026-04-06T08:18:50.003Z</time></trkpt><trkpt lat="43.612545" lon="12.4785"><ele>378.0</ele><time>2026-04-06T08:18:51.003Z</time></trkpt><trkpt lat="43.6125033" lon="12.4786483"><ele>378.25</ele><time>2026-04-06T08:18:52.003Z</time></trkpt><trkpt lat="43.61245" lon="12.4788133"><ele>378.5</ele><time>2026-04-06T08:18:53.003Z</time></trkpt><trkpt lat="43.6123967" lon="12.47899"><ele>378.75</ele><time>2026-04-06T08:18:54.003Z</time></trkpt><trkpt lat="43.6123383" lon="12.47917"><ele>379.0</ele><time>2026-04-06T08:18:55.003Z</time></trkpt><trkpt lat="43.6122767" lon="12.47935"><ele>379.0</ele><time>2026-04-06T08:18:56.003Z</time></trkpt><trkpt lat="43.6122167" lon="12.4795283"><ele>379.0</ele><time>2026-04-06T08:18:57.003Z</time></trkpt><trkpt lat="43.6121567" lon="12.479705"><ele>379.0</ele><time>2026-04-06T08:18:58.003Z</time></trkpt><trkpt lat="43.612095" lon="12.4798783"><ele>379.0</ele><time>2026-04-06T08:18:59.003Z</time></trkpt><trkpt lat="43.6120333" lon="12.4800483"><ele>379.25</ele><time>2026-04-06T08:19:00.003Z</time></trkpt><trkpt lat="43.6119667" lon="12.4802167"><ele>379.5</ele><time>2026-04-06T08:19:01.003Z</time></trkpt><trkpt lat="43.6118917" lon="12.4803767"><ele>379.75</ele><time>2026-04-06T08:19:02.003Z</time></trkpt><trkpt lat="43.6118133" lon="12.48053"><ele>380.0</ele><time>2026-04-06T08:19:03.003Z</time></trkpt><trkpt lat="43.6117333" lon="12.4806817"><ele>380.0</ele><time>2026-04-06T08:19:04.003Z</time></trkpt><trkpt lat="43.6116583" lon="12.480825"><ele>380.0</ele><time>2026-04-06T08:19:05.003Z</time></trkpt><trkpt lat="43.6115833" lon="12.480955"><ele>380.0</ele><time>2026-04-06T08:19:06.002Z</time></trkpt><trkpt lat="43.6114967" lon="12.4810883"><ele>380.0</ele><time>2026-04-06T08:19:07.003Z</time></trkpt><trkpt lat="43.6114117" lon="12.48122"><ele>379.0</ele><time>2026-04-06T08:19:08.003Z</time></trkpt><trkpt lat="43.61132" lon="12.481355"><ele>378.0</ele><time>2026-04-06T08:19:09.003Z</time></trkpt><trkpt lat="43.611225" lon="12.4814967"><ele>377.0</ele><time>2026-04-06T08:19:10.003Z</time></trkpt><trkpt lat="43.611125" lon="12.4816467"><ele>376.0</ele><time>2026-04-06T08:19:11.003Z</time></trkpt><trkpt lat="43.6110367" lon="12.48178"><ele>376.0</ele><time>2026-04-06T08:19:12.003Z</time></trkpt><trkpt lat="43.6109483" lon="12.4819117"><ele>376.0</ele><time>2026-04-06T08:19:13.003Z</time></trkpt><trkpt lat="43.610865" lon="12.4820333"><ele>376.0</ele><time>2026-04-06T08:19:14.003Z</time></trkpt><trkpt lat="43.610795" lon="12.4821517"><ele>376.0</ele><time>2026-04-06T08:19:15.003Z</time></trkpt><trkpt lat="43.6107317" lon="12.4822717"><ele>377.75</ele><time>2026-04-06T08:19:16.003Z</time></trkpt><trkpt lat="43.6106767" lon="12.4824083"><ele>379.5</ele><time>2026-04-06T08:19:17.003Z</time></trkpt><trkpt lat="43.6106383" lon="12.4825617"><ele>381.25</ele><time>2026-04-06T08:19:18.003Z</time></trkpt><trkpt lat="43.61061" lon="12.482735"><ele>383.0</ele><time>2026-04-06T08:19:19.003Z</time></trkpt><trkpt lat="43.610595" lon="12.4829167"><ele>382.5</ele><time>2026-04-06T08:19:20.003Z</time></trkpt><trkpt lat="43.6105783" lon="12.483095"><ele>382.0</ele><time>2026-04-06T08:19:21.003Z</time></trkpt><trkpt lat="43.61055" lon="12.483275"><ele>381.5</ele><time>2026-04-06T08:19:22.003Z</time></trkpt><trkpt lat="43.610515" lon="12.4834467"><ele>381.0</ele><time>2026-04-06T08:19:23.003Z</time></trkpt><trkpt lat="43.6104667" lon="12.4836"><ele>381.0</ele><time>2026-04-06T08:19:24.003Z</time></trkpt><trkpt lat="43.6104017" lon="12.4837483"><ele>381.0</ele><time>2026-04-06T08:19:25.003Z</time></trkpt><trkpt lat="43.6103133" lon="12.4838867"><ele>381.0</ele><time>2026-04-06T08:19:26.003Z</time></trkpt><trkpt lat="43.6102083" lon="12.48401"><ele>381.0</ele><time>2026-04-06T08:19:27.003Z</time></trkpt><trkpt lat="43.610095" lon="12.4841267"><ele>381.0</ele><time>2026-04-06T08:19:28.003Z</time></trkpt><trkpt lat="43.60998" lon="12.48424"><ele>381.0</ele><time>2026-04-06T08:19:29.003Z</time></trkpt><trkpt lat="43.6098633" lon="12.4843533"><ele>381.0</ele><time>2026-04-06T08:19:30.003Z</time></trkpt><trkpt lat="43.6097433" lon="12.4844783"><ele>381.0</ele><time>2026-04-06T08:19:31.003Z</time></trkpt><trkpt lat="43.6096233" lon="12.4846"><ele>381.0</ele><time>2026-04-06T08:19:32.003Z</time></trkpt><trkpt lat="43.6095017" lon="12.4847133"><ele>381.0</ele><time>2026-04-06T08:19:33.003Z</time></trkpt><trkpt lat="43.6093817" lon="12.4848333"><ele>381.0</ele><time>2026-04-06T08:19:34.003Z</time></trkpt><trkpt lat="43.6092683" lon="12.4849483"><ele>381.0</ele><time>2026-04-06T08:19:35.003Z</time></trkpt><trkpt lat="43.6091567" lon="12.4850667"><ele>380.0</ele><time>2026-04-06T08:19:36.003Z</time></trkpt><trkpt lat="43.6090433" lon="12.4851817"><ele>379.0</ele><time>2026-04-06T08:19:37.003Z</time></trkpt><trkpt lat="43.6089433" lon="12.4853017"><ele>378.0</ele><time>2026-04-06T08:19:38.003Z</time></trkpt><trkpt lat="43.6088517" lon="12.4854467"><ele>377.0</ele><time>2026-04-06T08:19:39.003Z</time></trkpt><trkpt lat="43.6087767" lon="12.4856033"><ele>376.75</ele><time>2026-04-06T08:19:40.003Z</time></trkpt><trkpt lat="43.6087067" lon="12.4857767"><ele>376.5</ele><time>2026-04-06T08:19:41.003Z</time></trkpt><trkpt lat="43.608645" lon="12.4859517"><ele>376.25</ele><time>2026-04-06T08:19:42.003Z</time></trkpt><trkpt lat="43.608585" lon="12.4861317"><ele>376.0</ele><time>2026-04-06T08:19:43.003Z</time></trkpt><trkpt lat="43.6085167" lon="12.4863017"><ele>376.0</ele><time>2026-04-06T08:19:44.002Z</time></trkpt><trkpt lat="43.608425" lon="12.486465"><ele>376.0</ele><time>2026-04-06T08:19:45.003Z</time></trkpt><trkpt lat="43.6083267" lon="12.4866267"><ele>376.0</ele><time>2026-04-06T08:19:46.003Z</time></trkpt><trkpt lat="43.6082133" lon="12.4867767"><ele>376.0</ele><time>2026-04-06T08:19:47.003Z</time></trkpt><trkpt lat="43.6081017" lon="12.4869267"><ele>376.0</ele><time>2026-04-06T08:19:48.003Z</time></trkpt><trkpt lat="43.6079917" lon="12.4870833"><ele>376.0</ele><time>2026-04-06T08:19:49.002Z</time></trkpt><trkpt lat="43.6078933" lon="12.48723"><ele>374.25</ele><time>2026-04-06T08:19:50.003Z</time></trkpt><trkpt lat="43.607795" lon="12.487375"><ele>372.5</ele><time>2026-04-06T08:19:51.003Z</time></trkpt><trkpt lat="43.6076917" lon="12.487525"><ele>370.75</ele><time>2026-04-06T08:19:52.003Z</time></trkpt><trkpt lat="43.6075883" lon="12.48767"><ele>369.0</ele><time>2026-04-06T08:19:53.003Z</time></trkpt><trkpt lat="43.6074867" lon="12.48782"><ele>371.6666666666667</ele><time>2026-04-06T08:19:54.003Z</time></trkpt><trkpt lat="43.6073867" lon="12.48797"><ele>374.33333333333337</ele><time>2026-04-06T08:19:55.003Z</time></trkpt><trkpt lat="43.60728" lon="12.4881283"><ele>377.0</ele><time>2026-04-06T08:19:56.003Z</time></trkpt><trkpt lat="43.6071783" lon="12.4882833"><ele>377.0</ele><time>2026-04-06T08:19:57.003Z</time></trkpt><trkpt lat="43.6070783" lon="12.4884317"><ele>377.0</ele><time>2026-04-06T08:19:58.003Z</time></trkpt><trkpt lat="43.606975" lon="12.488575"><ele>377.0</ele><time>2026-04-06T08:19:59.003Z</time></trkpt><trkpt lat="43.6068717" lon="12.488715"><ele>377.0</ele><time>2026-04-06T08:20:00.003Z</time></trkpt><trkpt lat="43.6067633" lon="12.4888517"><ele>376.25</ele><time>2026-04-06T08:20:01.003Z</time></trkpt><trkpt lat="43.6066483" lon="12.48898"><ele>375.5</ele><time>2026-04-06T08:20:02.003Z</time></trkpt><trkpt lat="43.60653" lon="12.4890817"><ele>374.75</ele><time>2026-04-06T08:20:03.003Z</time></trkpt><trkpt lat="43.6064017" lon="12.4891733"><ele>374.0</ele><time>2026-04-06T08:20:04.003Z</time></trkpt><trkpt lat="43.6062667" lon="12.4892533"><ele>371.5</ele><time>2026-04-06T08:20:05.003Z</time></trkpt><trkpt lat="43.60613" lon="12.489325"><ele>369.0</ele><time>2026-04-06T08:20:06.003Z</time></trkpt><trkpt lat="43.6059967" lon="12.4893883"><ele>366.5</ele><time>2026-04-06T08:20:07.003Z</time></trkpt><trkpt lat="43.605865" lon="12.4894517"><ele>364.0</ele><time>2026-04-06T08:20:08.003Z</time></trkpt><trkpt lat="43.605735" lon="12.4895133"><ele>364.0</ele><time>2026-04-06T08:20:09.003Z</time></trkpt><trkpt lat="43.6055983" lon="12.489575"><ele>364.0</ele><time>2026-04-06T08:20:10.003Z</time></trkpt><trkpt lat="43.6054583" lon="12.4896483"><ele>364.0</ele><time>2026-04-06T08:20:11.003Z</time></trkpt><trkpt lat="43.6053217" lon="12.48973"><ele>364.0</ele><time>2026-04-06T08:20:12.003Z</time></trkpt><trkpt lat="43.6051883" lon="12.4898167"><ele>363.5</ele><time>2026-04-06T08:20:13.003Z</time></trkpt><trkpt lat="43.6050633" lon="12.4899117"><ele>363.0</ele><time>2026-04-06T08:20:14.003Z</time></trkpt><trkpt lat="43.6049467" lon="12.4900083"><ele>362.5</ele><time>2026-04-06T08:20:15.003Z</time></trkpt><trkpt lat="43.6048483" lon="12.4901017"><ele>362.0</ele><time>2026-04-06T08:20:16.003Z</time></trkpt><trkpt lat="43.6047517" lon="12.4902367"><ele>362.0</ele><time>2026-04-06T08:20:17.003Z</time></trkpt><trkpt lat="43.6046683" lon="12.49039"><ele>362.0</ele><time>2026-04-06T08:20:18.003Z</time></trkpt><trkpt lat="43.6045833" lon="12.490555"><ele>362.0</ele><time>2026-04-06T08:20:19.003Z</time></trkpt><trkpt lat="43.6044883" lon="12.4907467"><ele>361.6666666666667</ele><time>2026-04-06T08:20:20.003Z</time></trkpt><trkpt lat="43.6044067" lon="12.4909333"><ele>361.3333333333333</ele><time>2026-04-06T08:20:21.003Z</time></trkpt><trkpt lat="43.6043267" lon="12.49112"><ele>361.0</ele><time>2026-04-06T08:20:22.003Z</time></trkpt><trkpt lat="43.604245" lon="12.491305"><ele>361.0</ele><time>2026-04-06T08:20:23.003Z</time></trkpt><trkpt lat="43.60416" lon="12.4914767"><ele>361.0</ele><time>2026-04-06T08:20:24.003Z</time></trkpt><trkpt lat="43.6040817" lon="12.4916467"><ele>361.0</ele><time>2026-04-06T08:20:25.003Z</time></trkpt><trkpt lat="43.604" lon="12.491815"><ele>361.0</ele><time>2026-04-06T08:20:26.003Z</time></trkpt><trkpt lat="43.6039183" lon="12.4919767"><ele>360.66666666666663</ele><time>2026-04-06T08:20:27.003Z</time></trkpt><trkpt lat="43.60382" lon="12.4921383"><ele>360.3333333333333</ele><time>2026-04-06T08:20:28.003Z</time></trkpt><trkpt lat="43.60371" lon="12.4922867"><ele>360.0</ele><time>2026-04-06T08:20:29.003Z</time></trkpt><trkpt lat="43.6036" lon="12.4924167"><ele>360.0</ele><time>2026-04-06T08:20:30.004Z</time></trkpt><trkpt lat="43.603485" lon="12.4925517"><ele>360.0</ele><time>2026-04-06T08:20:31.004Z</time></trkpt><trkpt lat="43.6033817" lon="12.4927017"><ele>360.0</ele><time>2026-04-06T08:20:32.004Z</time></trkpt><trkpt lat="43.60329" lon="12.492865"><ele>360.6666666666667</ele><time>2026-04-06T08:20:33.004Z</time></trkpt><trkpt lat="43.6031983" lon="12.4930317"><ele>361.33333333333337</ele><time>2026-04-06T08:20:34.004Z</time></trkpt><trkpt lat="43.603115" lon="12.4932067"><ele>362.0</ele><time>2026-04-06T08:20:35.004Z</time></trkpt><trkpt lat="43.6030383" lon="12.493385"><ele>362.0</ele><time>2026-04-06T08:20:36.004Z</time></trkpt><trkpt lat="43.60296" lon="12.4935667"><ele>362.0</ele><time>2026-04-06T08:20:37.004Z</time></trkpt><trkpt lat="43.6028817" lon="12.4937517"><ele>362.0</ele><time>2026-04-06T08:20:38.004Z</time></trkpt><trkpt lat="43.602795" lon="12.4939333"><ele>360.0</ele><time>2026-04-06T08:20:39.004Z</time></trkpt><trkpt lat="43.6027133" lon="12.4941133"><ele>358.0</ele><time>2026-04-06T08:20:40.004Z</time></trkpt><trkpt lat="43.60263" lon="12.4942883"><ele>356.0</ele><time>2026-04-06T08:20:41.004Z</time></trkpt><trkpt lat="43.60255" lon="12.4944567"><ele>356.5</ele><time>2026-04-06T08:20:42.004Z</time></trkpt><trkpt lat="43.6024683" lon="12.4946217"><ele>357.0</ele><time>2026-04-06T08:20:43.004Z</time></trkpt><trkpt lat="43.6023867" lon="12.4947917"><ele>357.5</ele><time>2026-04-06T08:20:44.004Z</time></trkpt><trkpt lat="43.60231" lon="12.4949583"><ele>358.0</ele><time>2026-04-06T08:20:45.004Z</time></trkpt><trkpt lat="43.6022317" lon="12.49513"><ele>358.0</ele><time>2026-04-06T08:20:46.004Z</time></trkpt><trkpt lat="43.6021517" lon="12.4953033"><ele>358.0</ele><time>2026-04-06T08:20:47.004Z</time></trkpt><trkpt lat="43.6020683" lon="12.4954833"><ele>358.0</ele><time>2026-04-06T08:20:48.004Z</time></trkpt><trkpt lat="43.6019867" lon="12.4956617"><ele>356.75</ele><time>2026-04-06T08:20:49.004Z</time></trkpt><trkpt lat="43.6019017" lon="12.4958283"><ele>355.5</ele><time>2026-04-06T08:20:50.004Z</time></trkpt><trkpt lat="43.6018083" lon="12.495995"><ele>354.25</ele><time>2026-04-06T08:20:51.004Z</time></trkpt><trkpt lat="43.60171" lon="12.496145"><ele>353.0</ele><time>2026-04-06T08:20:52.004Z</time></trkpt><trkpt lat="43.6015983" lon="12.4962867"><ele>356.33333333333337</ele><time>2026-04-06T08:20:53.004Z</time></trkpt><trkpt lat="43.6014817" lon="12.4964217"><ele>359.6666666666667</ele><time>2026-04-06T08:20:54.004Z</time></trkpt><trkpt lat="43.6013683" lon="12.4965567"><ele>363.0</ele><time>2026-04-06T08:20:55.004Z</time></trkpt><trkpt lat="43.60125" lon="12.49669"><ele>360.5</ele><time>2026-04-06T08:20:56.004Z</time></trkpt><trkpt lat="43.6011333" lon="12.4968167"><ele>358.0</ele><time>2026-04-06T08:20:57.004Z</time></trkpt><trkpt lat="43.6010183" lon="12.4969417"><ele>355.5</ele><time>2026-04-06T08:20:58.004Z</time></trkpt><trkpt lat="43.6009017" lon="12.49707"><ele>353.0</ele><time>2026-04-06T08:20:59.004Z</time></trkpt><trkpt lat="43.600805" lon="12.49722"><ele>353.0</ele><time>2026-04-06T08:21:00.004Z</time></trkpt><trkpt lat="43.6007283" lon="12.4973983"><ele>353.0</ele><time>2026-04-06T08:21:01.004Z</time></trkpt><trkpt lat="43.60067" lon="12.4975933"><ele>353.0</ele><time>2026-04-06T08:21:02.003Z</time></trkpt><trkpt lat="43.600615" lon="12.49779"><ele>354.0</ele><time>2026-04-06T08:21:03.004Z</time></trkpt><trkpt lat="43.6005583" lon="12.4979883"><ele>355.0</ele><time>2026-04-06T08:21:04.004Z</time></trkpt><trkpt lat="43.600495" lon="12.49818"><ele>356.0</ele><time>2026-04-06T08:21:05.004Z</time></trkpt><trkpt lat="43.6004167" lon="12.4983683"><ele>355.0</ele><time>2026-04-06T08:21:06.004Z</time></trkpt><trkpt lat="43.6003283" lon="12.4985433"><ele>354.0</ele><time>2026-04-06T08:21:07.004Z</time></trkpt><trkpt lat="43.6002333" lon="12.49871"><ele>353.0</ele><time>2026-04-06T08:21:08.004Z</time></trkpt><trkpt lat="43.6001317" lon="12.498875"><ele>353.0</ele><time>2026-04-06T08:21:09.004Z</time></trkpt><trkpt lat="43.6000217" lon="12.49903"><ele>353.0</ele><time>2026-04-06T08:21:10.004Z</time></trkpt><trkpt lat="43.599915" lon="12.4991783"><ele>353.0</ele><time>2026-04-06T08:21:11.004Z</time></trkpt><trkpt lat="43.599795" lon="12.4993183"><ele>353.0</ele><time>2026-04-06T08:21:12.004Z</time></trkpt><trkpt lat="43.5996717" lon="12.4994583"><ele>353.0</ele><time>2026-04-06T08:21:13.004Z</time></trkpt><trkpt lat="43.5995483" lon="12.4995883"><ele>353.0</ele><time>2026-04-06T08:21:14.004Z</time></trkpt><trkpt lat="43.5994133" lon="12.4997067"><ele>352.6666666666667</ele><time>2026-04-06T08:21:15.004Z</time></trkpt><trkpt lat="43.5992683" lon="12.4998183"><ele>352.3333333333333</ele><time>2026-04-06T08:21:16.004Z</time></trkpt><trkpt lat="43.599115" lon="12.49993"><ele>352.0</ele><time>2026-04-06T08:21:17.004Z</time></trkpt><trkpt lat="43.5989567" lon="12.5000317"><ele>352.0</ele><time>2026-04-06T08:21:18.004Z</time></trkpt><trkpt lat="43.598805" lon="12.5001267"><ele>352.0</ele><time>2026-04-06T08:21:19.004Z</time></trkpt><trkpt lat="43.59865" lon="12.50023"><ele>352.0</ele><time>2026-04-06T08:21:20.004Z</time></trkpt><trkpt lat="43.5984967" lon="12.50032"><ele>351.0</ele><time>2026-04-06T08:21:21.004Z</time></trkpt><trkpt lat="43.5983417" lon="12.5004133"><ele>350.0</ele><time>2026-04-06T08:21:22.004Z</time></trkpt><trkpt lat="43.5981883" lon="12.5005067"><ele>349.0</ele><time>2026-04-06T08:21:23.004Z</time></trkpt><trkpt lat="43.5980367" lon="12.5005933"><ele>349.0</ele><time>2026-04-06T08:21:24.004Z</time></trkpt><trkpt lat="43.5978883" lon="12.5006833"><ele>349.0</ele><time>2026-04-06T08:21:25.004Z</time></trkpt><trkpt lat="43.59773" lon="12.50078"><ele>349.0</ele><time>2026-04-06T08:21:26.004Z</time></trkpt><trkpt lat="43.5975733" lon="12.5008767"><ele>349.0</ele><time>2026-04-06T08:21:27.004Z</time></trkpt><trkpt lat="43.5974167" lon="12.5009767"><ele>349.0</ele><time>2026-04-06T08:21:28.004Z</time></trkpt><trkpt lat="43.5972583" lon="12.5010783"><ele>349.0</ele><time>2026-04-06T08:21:29.004Z</time></trkpt><trkpt lat="43.5971" lon="12.50118"><ele>349.0</ele><time>2026-04-06T08:21:30.004Z</time></trkpt><trkpt lat="43.59694" lon="12.5012817"><ele>349.0</ele><time>2026-04-06T08:21:31.004Z</time></trkpt><trkpt lat="43.59678" lon="12.5013767"><ele>349.0</ele><time>2026-04-06T08:21:32.004Z</time></trkpt><trkpt lat="43.5966233" lon="12.501465"><ele>349.0</ele><time>2026-04-06T08:21:33.004Z</time></trkpt><trkpt lat="43.5964683" lon="12.5015333"><ele>349.0</ele><time>2026-04-06T08:21:34.004Z</time></trkpt><trkpt lat="43.5963067" lon="12.50159"><ele>349.0</ele><time>2026-04-06T08:21:35.004Z</time></trkpt><trkpt lat="43.59614" lon="12.5016267"><ele>349.66666666666663</ele><time>2026-04-06T08:21:36.004Z</time></trkpt><trkpt lat="43.595975" lon="12.5016467"><ele>350.3333333333333</ele><time>2026-04-06T08:21:37.004Z</time></trkpt><trkpt lat="43.5958067" lon="12.5016633"><ele>351.0</ele><time>2026-04-06T08:21:38.004Z</time></trkpt><trkpt lat="43.5956317" lon="12.5016883"><ele>351.0</ele><time>2026-04-06T08:21:39.004Z</time></trkpt><trkpt lat="43.59546" lon="12.5016983"><ele>351.0</ele><time>2026-04-06T08:21:40.004Z</time></trkpt><trkpt lat="43.595285" lon="12.5017133"><ele>351.0</ele><time>2026-04-06T08:21:41.004Z</time></trkpt><trkpt lat="43.59511" lon="12.5017317"><ele>350.0</ele><time>2026-04-06T08:21:42.004Z</time></trkpt><trkpt lat="43.5949433" lon="12.5017517"><ele>349.0</ele><time>2026-04-06T08:21:43.004Z</time></trkpt><trkpt lat="43.5947767" lon="12.5018117"><ele>348.0</ele><time>2026-04-06T08:21:44.004Z</time></trkpt><trkpt lat="43.5946183" lon="12.5019117"><ele>347.0</ele><time>2026-04-06T08:21:45.004Z</time></trkpt><trkpt lat="43.5944667" lon="12.50203"><ele>346.0</ele><time>2026-04-06T08:21:46.004Z</time></trkpt><trkpt lat="43.5943283" lon="12.5021483"><ele>345.0</ele><time>2026-04-06T08:21:47.004Z</time></trkpt><trkpt lat="43.5941933" lon="12.502275"><ele>346.5</ele><time>2026-04-06T08:21:48.004Z</time></trkpt><trkpt lat="43.5940633" lon="12.5023983"><ele>348.0</ele><time>2026-04-06T08:21:49.004Z</time></trkpt><trkpt lat="43.5939433" lon="12.5025067"><ele>349.5</ele><time>2026-04-06T08:21:50.004Z</time></trkpt><trkpt lat="43.59383" lon="12.5026033"><ele>351.0</ele><time>2026-04-06T08:21:51.004Z</time></trkpt><trkpt lat="43.59372" lon="12.5027083"><ele>350.3333333333333</ele><time>2026-04-06T08:21:52.004Z</time></trkpt><trkpt lat="43.5936083" lon="12.5028417"><ele>349.66666666666663</ele><time>2026-04-06T08:21:53.004Z</time></trkpt><trkpt lat="43.5935067" lon="12.503"><ele>349.0</ele><time>2026-04-06T08:21:54.004Z</time></trkpt><trkpt lat="43.5934067" lon="12.5031683"><ele>349.0</ele><time>2026-04-06T08:21:55.004Z</time></trkpt><trkpt lat="43.593305" lon="12.5033517"><ele>349.0</ele><time>2026-04-06T08:21:56.003Z</time></trkpt><trkpt lat="43.5932033" lon="12.5035333"><ele>349.0</ele><time>2026-04-06T08:21:57.004Z</time></trkpt><trkpt lat="43.5930917" lon="12.503715"><ele>347.0</ele><time>2026-04-06T08:21:58.004Z</time></trkpt><trkpt lat="43.5929767" lon="12.5039"><ele>345.0</ele><time>2026-04-06T08:21:59.004Z</time></trkpt><trkpt lat="43.592865" lon="12.5040783"><ele>343.0</ele><time>2026-04-06T08:22:00.004Z</time></trkpt><trkpt lat="43.5927617" lon="12.50425"><ele>343.0</ele><time>2026-04-06T08:22:01.004Z</time></trkpt><trkpt lat="43.5926667" lon="12.5044183"><ele>343.0</ele><time>2026-04-06T08:22:02.004Z</time></trkpt><trkpt lat="43.5925733" lon="12.504585"><ele>343.0</ele><time>2026-04-06T08:22:03.004Z</time></trkpt><trkpt lat="43.59248" lon="12.5047417"><ele>345.66666666666663</ele><time>2026-04-06T08:22:04.004Z</time></trkpt><trkpt lat="43.5923833" lon="12.5048983"><ele>348.3333333333333</ele><time>2026-04-06T08:22:05.004Z</time></trkpt><trkpt lat="43.59229" lon="12.5050617"><ele>351.0</ele><time>2026-04-06T08:22:06.004Z</time></trkpt><trkpt lat="43.5921983" lon="12.5052467"><ele>348.6666666666667</ele><time>2026-04-06T08:22:07.004Z</time></trkpt><trkpt lat="43.59211" lon="12.50543"><ele>346.33333333333337</ele><time>2026-04-06T08:22:08.004Z</time></trkpt><trkpt lat="43.5920283" lon="12.5056267"><ele>344.0</ele><time>2026-04-06T08:22:09.004Z</time></trkpt><trkpt lat="43.5919467" lon="12.5058233"><ele>344.0</ele><time>2026-04-06T08:22:10.004Z</time></trkpt><trkpt lat="43.591875" lon="12.506015"><ele>344.0</ele><time>2026-04-06T08:22:11.004Z</time></trkpt><trkpt lat="43.5918033" lon="12.5062167"><ele>344.0</ele><time>2026-04-06T08:22:12.004Z</time></trkpt><trkpt lat="43.59173" lon="12.506405"><ele>346.33333333333337</ele><time>2026-04-06T08:22:13.004Z</time></trkpt><trkpt lat="43.5916533" lon="12.5065933"><ele>348.6666666666667</ele><time>2026-04-06T08:22:14.004Z</time></trkpt><trkpt lat="43.591575" lon="12.5067833"><ele>351.0</ele><time>2026-04-06T08:22:15.004Z</time></trkpt><trkpt lat="43.591495" lon="12.5069783"><ele>354.3333333333333</ele><time>2026-04-06T08:22:16.004Z</time></trkpt><trkpt lat="43.591415" lon="12.5071633"><ele>357.66666666666663</ele><time>2026-04-06T08:22:17.004Z</time></trkpt><trkpt lat="43.59134" lon="12.507345"><ele>361.0</ele><time>2026-04-06T08:22:18.003Z</time></trkpt><trkpt lat="43.5912717" lon="12.50753"><ele>361.0</ele><time>2026-04-06T08:22:19.004Z</time></trkpt><trkpt lat="43.59121" lon="12.507715"><ele>361.0</ele><time>2026-04-06T08:22:20.004Z</time></trkpt><trkpt lat="43.5911583" lon="12.5079033"><ele>361.0</ele><time>2026-04-06T08:22:21.004Z</time></trkpt><trkpt lat="43.5911133" lon="12.5080967"><ele>361.0</ele><time>2026-04-06T08:22:22.004Z</time></trkpt><trkpt lat="43.5910817" lon="12.5083117"><ele>355.66666666666663</ele><time>2026-04-06T08:22:23.004Z</time></trkpt><trkpt lat="43.591065" lon="12.50853"><ele>350.3333333333333</ele><time>2026-04-06T08:22:24.004Z</time></trkpt><trkpt lat="43.5910383" lon="12.508745"><ele>345.0</ele><time>2026-04-06T08:22:25.004Z</time></trkpt><trkpt lat="43.591005" lon="12.5089533"><ele>345.0</ele><time>2026-04-06T08:22:26.004Z</time></trkpt><trkpt lat="43.590955" lon="12.50915"><ele>345.0</ele><time>2026-04-06T08:22:27.003Z</time></trkpt><trkpt lat="43.5909083" lon="12.50934"><ele>345.0</ele><time>2026-04-06T08:22:28.004Z</time></trkpt><trkpt lat="43.5908583" lon="12.5095183"><ele>345.0</ele><time>2026-04-06T08:22:29.004Z</time></trkpt><trkpt lat="43.590805" lon="12.5096783"><ele>346.2</ele><time>2026-04-06T08:22:30.004Z</time></trkpt><trkpt lat="43.5907617" lon="12.5098233"><ele>347.4</ele><time>2026-04-06T08:22:31.004Z</time></trkpt><trkpt lat="43.5907217" lon="12.5099583"><ele>348.6</ele><time>2026-04-06T08:22:32.004Z</time></trkpt><trkpt lat="43.59069" lon="12.5100567"><ele>349.8</ele><time>2026-04-06T08:22:33.004Z</time></trkpt><trkpt lat="43.5906133" lon="12.5101733"><ele>351.0</ele><time>2026-04-06T08:22:35.004Z</time></trkpt><trkpt lat="43.59052" lon="12.51015"><ele>351.0</ele><time>2026-04-06T08:22:37.004Z</time></trkpt><trkpt lat="43.5904267" lon="12.510085"><ele>351.0</ele><time>2026-04-06T08:22:39.004Z</time></trkpt><trkpt lat="43.5903433" lon="12.5100383"><ele>351.0</ele><time>2026-04-06T08:22:41.004Z</time></trkpt><trkpt lat="43.5902667" lon="12.50999"><ele>351.0</ele><time>2026-04-06T08:22:43.004Z</time></trkpt><trkpt lat="43.5901833" lon="12.5099383"><ele>351.0</ele><time>2026-04-06T08:22:45.004Z</time></trkpt><trkpt lat="43.5900967" lon="12.5098833"><ele>348.0</ele><time>2026-04-06T08:22:47.004Z</time></trkpt><trkpt lat="43.5900017" lon="12.5098383"><ele>345.0</ele><time>2026-04-06T08:22:49.004Z</time></trkpt><trkpt lat="43.5899233" lon="12.5097783"><ele>342.0</ele><time>2026-04-06T08:22:51.004Z</time></trkpt><trkpt lat="43.58983" lon="12.5097133"><ele>339.0</ele><time>2026-04-06T08:22:53.004Z</time></trkpt><trkpt lat="43.5897383" lon="12.5096533"><ele>336.0</ele><time>2026-04-06T08:22:55.004Z</time></trkpt><trkpt lat="43.5896283" lon="12.50961"><ele>336.4</ele><time>2026-04-06T08:22:57.004Z</time></trkpt><trkpt lat="43.58952" lon="12.509565"><ele>336.8</ele><time>2026-04-06T08:22:59.004Z</time></trkpt><trkpt lat="43.589435" lon="12.5095067"><ele>337.2</ele><time>2026-04-06T08:23:01.004Z</time></trkpt><trkpt lat="43.589305" lon="12.5094367"><ele>337.59999999999997</ele><time>2026-04-06T08:23:03.004Z</time></trkpt><trkpt lat="43.5892217" lon="12.5093917"><ele>338.0</ele><time>2026-04-06T08:23:04.004Z</time></trkpt><trkpt lat="43.58913" lon="12.509365"><ele>338.25</ele><time>2026-04-06T08:23:05.004Z</time></trkpt><trkpt lat="43.5890267" lon="12.50932"><ele>338.5</ele><time>2026-04-06T08:23:06.004Z</time></trkpt><trkpt lat="43.5889117" lon="12.509265"><ele>338.75</ele><time>2026-04-06T08:23:07.004Z</time></trkpt><trkpt lat="43.5888083" lon="12.5091983"><ele>339.0</ele><time>2026-04-06T08:23:08.004Z</time></trkpt><trkpt lat="43.5887017" lon="12.50913"><ele>338.75</ele><time>2026-04-06T08:23:09.004Z</time></trkpt><trkpt lat="43.588585" lon="12.5090667"><ele>338.5</ele><time>2026-04-06T08:23:10.004Z</time></trkpt><trkpt lat="43.58846" lon="12.5089983"><ele>338.25</ele><time>2026-04-06T08:23:11.004Z</time></trkpt><trkpt lat="43.5883333" lon="12.508925"><ele>338.0</ele><time>2026-04-06T08:23:12.004Z</time></trkpt><trkpt lat="43.5881983" lon="12.5088633"><ele>338.0</ele><time>2026-04-06T08:23:13.004Z</time></trkpt><trkpt lat="43.5880867" lon="12.5087717"><ele>338.0</ele><time>2026-04-06T08:23:14.004Z</time></trkpt><trkpt lat="43.587965" lon="12.50869"><ele>338.0</ele><time>2026-04-06T08:23:15.004Z</time></trkpt><trkpt lat="43.5878383" lon="12.508605"><ele>338.0</ele><time>2026-04-06T08:23:16.004Z</time></trkpt><trkpt lat="43.5877083" lon="12.50852"><ele>338.75</ele><time>2026-04-06T08:23:17.004Z</time></trkpt><trkpt lat="43.587585" lon="12.508435"><ele>339.5</ele><time>2026-04-06T08:23:18.004Z</time></trkpt><trkpt lat="43.5874583" lon="12.50835"><ele>340.25</ele><time>2026-04-06T08:23:19.004Z</time></trkpt><trkpt lat="43.5873267" lon="12.50827"><ele>341.0</ele><time>2026-04-06T08:23:20.004Z</time></trkpt><trkpt lat="43.5871917" lon="12.5081883"><ele>341.0</ele><time>2026-04-06T08:23:21.004Z</time></trkpt><trkpt lat="43.58705" lon="12.5081133"><ele>341.0</ele><time>2026-04-06T08:23:22.004Z</time></trkpt><trkpt lat="43.5869167" lon="12.5080333"><ele>341.0</ele><time>2026-04-06T08:23:23.004Z</time></trkpt><trkpt lat="43.58679" lon="12.5079583"><ele>341.0</ele><time>2026-04-06T08:23:24.004Z</time></trkpt><trkpt lat="43.586665" lon="12.5078933"><ele>342.25</ele><time>2026-04-06T08:23:25.004Z</time></trkpt><trkpt lat="43.586535" lon="12.5078167"><ele>343.5</ele><time>2026-04-06T08:23:26.004Z</time></trkpt><trkpt lat="43.5863967" lon="12.507735"><ele>344.75</ele><time>2026-04-06T08:23:27.004Z</time></trkpt><trkpt lat="43.5862683" lon="12.50764"><ele>346.0</ele><time>2026-04-06T08:23:28.004Z</time></trkpt><trkpt lat="43.5861267" lon="12.5075483"><ele>346.0</ele><time>2026-04-06T08:23:29.004Z</time></trkpt><trkpt lat="43.5859867" lon="12.5074633"><ele>346.0</ele><time>2026-04-06T08:23:30.004Z</time></trkpt><trkpt lat="43.585845" lon="12.507365"><ele>346.0</ele><time>2026-04-06T08:23:31.004Z</time></trkpt><trkpt lat="43.585725" lon="12.5072383"><ele>346.0</ele><time>2026-04-06T08:23:32.004Z</time></trkpt><trkpt lat="43.5856333" lon="12.5070867"><ele>346.0</ele><time>2026-04-06T08:23:33.004Z</time></trkpt><trkpt lat="43.5855533" lon="12.50691"><ele>346.0</ele><time>2026-04-06T08:23:34.004Z</time></trkpt><trkpt lat="43.5854883" lon="12.5067167"><ele>346.0</ele><time>2026-04-06T08:23:35.004Z</time></trkpt><trkpt lat="43.5854333" lon="12.50653"><ele>347.25</ele><time>2026-04-06T08:23:36.004Z</time></trkpt><trkpt lat="43.5853967" lon="12.506335"><ele>348.5</ele><time>2026-04-06T08:23:37.004Z</time></trkpt><trkpt lat="43.585385" lon="12.5061317"><ele>349.75</ele><time>2026-04-06T08:23:38.004Z</time></trkpt><trkpt lat="43.585395" lon="12.5059183"><ele>351.0</ele><time>2026-04-06T08:23:39.004Z</time></trkpt><trkpt lat="43.58543" lon="12.5057133"><ele>351.3333333333333</ele><time>2026-04-06T08:23:40.004Z</time></trkpt><trkpt lat="43.585485" lon="12.5055117"><ele>351.66666666666663</ele><time>2026-04-06T08:23:41.004Z</time></trkpt><trkpt lat="43.5855517" lon="12.5053117"><ele>352.0</ele><time>2026-04-06T08:23:42.004Z</time></trkpt><trkpt lat="43.5856133" lon="12.5051067"><ele>352.0</ele><time>2026-04-06T08:23:43.004Z</time></trkpt><trkpt lat="43.58566" lon="12.5048967"><ele>352.0</ele><time>2026-04-06T08:23:44.004Z</time></trkpt><trkpt lat="43.5856983" lon="12.5046767"><ele>352.0</ele><time>2026-04-06T08:23:45.003Z</time></trkpt><trkpt lat="43.5857317" lon="12.50445"><ele>351.66666666666663</ele><time>2026-04-06T08:23:46.004Z</time></trkpt><trkpt lat="43.5857583" lon="12.5042233"><ele>351.3333333333333</ele><time>2026-04-06T08:23:47.004Z</time></trkpt><trkpt lat="43.585785" lon="12.5039983"><ele>351.0</ele><time>2026-04-06T08:23:48.004Z</time></trkpt><trkpt lat="43.5858083" lon="12.5037733"><ele>350.6666666666667</ele><time>2026-04-06T08:23:49.004Z</time></trkpt><trkpt lat="43.5858367" lon="12.5035483"><ele>350.33333333333337</ele><time>2026-04-06T08:23:50.004Z</time></trkpt><trkpt lat="43.58586" lon="12.5033283"><ele>350.0</ele><time>2026-04-06T08:23:51.004Z</time></trkpt><trkpt lat="43.5858833" lon="12.5031033"><ele>349.33333333333337</ele><time>2026-04-06T08:23:52.004Z</time></trkpt><trkpt lat="43.5859067" lon="12.50288"><ele>348.6666666666667</ele><time>2026-04-06T08:23:53.004Z</time></trkpt><trkpt lat="43.58593" lon="12.50265"><ele>348.0</ele><time>2026-04-06T08:23:54.004Z</time></trkpt><trkpt lat="43.5859533" lon="12.5024183"><ele>348.0</ele><time>2026-04-06T08:23:55.004Z</time></trkpt><trkpt lat="43.5859733" lon="12.5021867"><ele>348.0</ele><time>2026-04-06T08:23:56.004Z</time></trkpt><trkpt lat="43.5859967" lon="12.50195"><ele>348.0</ele><time>2026-04-06T08:23:57.004Z</time></trkpt><trkpt lat="43.5860233" lon="12.501715"><ele>349.0</ele><time>2026-04-06T08:23:58.004Z</time></trkpt><trkpt lat="43.58605" lon="12.5014817"><ele>350.0</ele><time>2026-04-06T08:23:59.004Z</time></trkpt><trkpt lat="43.586075" lon="12.5012483"><ele>351.0</ele><time>2026-04-06T08:24:00.004Z</time></trkpt><trkpt lat="43.5861017" lon="12.5010183"><ele>351.0</ele><time>2026-04-06T08:24:01.004Z</time></trkpt><trkpt lat="43.5861217" lon="12.50079"><ele>351.0</ele><time>2026-04-06T08:24:02.004Z</time></trkpt><trkpt lat="43.586145" lon="12.50057"><ele>351.0</ele><time>2026-04-06T08:24:03.004Z</time></trkpt><trkpt lat="43.58617" lon="12.500355"><ele>351.0</ele><time>2026-04-06T08:24:04.004Z</time></trkpt><trkpt lat="43.5861883" lon="12.50013"><ele>351.0</ele><time>2026-04-06T08:24:05.004Z</time></trkpt><trkpt lat="43.5861883" lon="12.4998983"><ele>351.0</ele><time>2026-04-06T08:24:06.004Z</time></trkpt><trkpt lat="43.5861767" lon="12.499685"><ele>354.0</ele><time>2026-04-06T08:24:07.004Z</time></trkpt><trkpt lat="43.58613" lon="12.4994733"><ele>357.0</ele><time>2026-04-06T08:24:08.004Z</time></trkpt><trkpt lat="43.586045" lon="12.499285"><ele>360.0</ele><time>2026-04-06T08:24:09.004Z</time></trkpt><trkpt lat="43.5859467" lon="12.4991083"><ele>360.0</ele><time>2026-04-06T08:24:10.004Z</time></trkpt><trkpt lat="43.5858017" lon="12.4989733"><ele>360.0</ele><time>2026-04-06T08:24:11.004Z</time></trkpt><trkpt lat="43.585685" lon="12.4988533"><ele>360.0</ele><time>2026-04-06T08:24:12.004Z</time></trkpt><trkpt lat="43.5855183" lon="12.4988033"><ele>360.3333333333333</ele><time>2026-04-06T08:24:13.004Z</time></trkpt><trkpt lat="43.585345" lon="12.498765"><ele>360.66666666666663</ele><time>2026-04-06T08:24:14.004Z</time></trkpt><trkpt lat="43.5851767" lon="12.4987083"><ele>361.0</ele><time>2026-04-06T08:24:15.004Z</time></trkpt><trkpt lat="43.58501" lon="12.4986467"><ele>361.0</ele><time>2026-04-06T08:24:16.004Z</time></trkpt><trkpt lat="43.5848367" lon="12.498585"><ele>361.0</ele><time>2026-04-06T08:24:17.004Z</time></trkpt><trkpt lat="43.5846683" lon="12.49852"><ele>361.0</ele><time>2026-04-06T08:24:18.004Z</time></trkpt><trkpt lat="43.5845017" lon="12.4984683"><ele>358.3333333333333</ele><time>2026-04-06T08:24:19.004Z</time></trkpt><trkpt lat="43.5843317" lon="12.49843"><ele>355.6666666666667</ele><time>2026-04-06T08:24:20.004Z</time></trkpt><trkpt lat="43.5841583" lon="12.4983917"><ele>353.0</ele><time>2026-04-06T08:24:21.004Z</time></trkpt><trkpt lat="43.583985" lon="12.4983617"><ele>353.0</ele><time>2026-04-06T08:24:22.004Z</time></trkpt><trkpt lat="43.5838167" lon="12.49833"><ele>353.0</ele><time>2026-04-06T08:24:23.004Z</time></trkpt><trkpt lat="43.5836467" lon="12.4983117"><ele>353.0</ele><time>2026-04-06T08:24:24.004Z</time></trkpt><trkpt lat="43.583475" lon="12.4983067"><ele>353.33333333333337</ele><time>2026-04-06T08:24:25.004Z</time></trkpt><trkpt lat="43.583305" lon="12.4983033"><ele>353.6666666666667</ele><time>2026-04-06T08:24:26.004Z</time></trkpt><trkpt lat="43.5831317" lon="12.4983067"><ele>354.0</ele><time>2026-04-06T08:24:27.004Z</time></trkpt><trkpt lat="43.582955" lon="12.4983217"><ele>354.6666666666667</ele><time>2026-04-06T08:24:28.004Z</time></trkpt><trkpt lat="43.5827817" lon="12.4983183"><ele>355.33333333333337</ele><time>2026-04-06T08:24:29.004Z</time></trkpt><trkpt lat="43.5826083" lon="12.4983217"><ele>356.0</ele><time>2026-04-06T08:24:30.004Z</time></trkpt><trkpt lat="43.5824383" lon="12.4983217"><ele>356.0</ele><time>2026-04-06T08:24:31.004Z</time></trkpt><trkpt lat="43.5822683" lon="12.4983183"><ele>356.0</ele><time>2026-04-06T08:24:32.004Z</time></trkpt><trkpt lat="43.5820967" lon="12.4983183"><ele>356.0</ele><time>2026-04-06T08:24:33.004Z</time></trkpt><trkpt lat="43.581925" lon="12.498305"><ele>356.33333333333337</ele><time>2026-04-06T08:24:34.004Z</time></trkpt><trkpt lat="43.5817567" lon="12.4982817"><ele>356.6666666666667</ele><time>2026-04-06T08:24:35.004Z</time></trkpt><trkpt lat="43.5815817" lon="12.4982483"><ele>357.0</ele><time>2026-04-06T08:24:36.004Z</time></trkpt><trkpt lat="43.5814083" lon="12.498205"><ele>357.0</ele><time>2026-04-06T08:24:37.004Z</time></trkpt><trkpt lat="43.5812367" lon="12.4981583"><ele>357.0</ele><time>2026-04-06T08:24:38.004Z</time></trkpt><trkpt lat="43.5810667" lon="12.4981117"><ele>357.0</ele><time>2026-04-06T08:24:39.003Z</time></trkpt><trkpt lat="43.5808967" lon="12.4980483"><ele>357.3333333333333</ele><time>2026-04-06T08:24:40.004Z</time></trkpt><trkpt lat="43.58073" lon="12.4980017"><ele>357.66666666666663</ele><time>2026-04-06T08:24:41.004Z</time></trkpt><trkpt lat="43.5805633" lon="12.4979567"><ele>358.0</ele><time>2026-04-06T08:24:42.004Z</time></trkpt><trkpt lat="43.5803983" lon="12.497905"><ele>360.66666666666663</ele><time>2026-04-06T08:24:43.004Z</time></trkpt><trkpt lat="43.580235" lon="12.4978333"><ele>363.3333333333333</ele><time>2026-04-06T08:24:44.004Z</time></trkpt><trkpt lat="43.5800833" lon="12.4977267"><ele>366.0</ele><time>2026-04-06T08:24:45.004Z</time></trkpt><trkpt lat="43.57995" lon="12.4975883"><ele>366.0</ele><time>2026-04-06T08:24:46.004Z</time></trkpt><trkpt lat="43.5798317" lon="12.4974333"><ele>366.0</ele><time>2026-04-06T08:24:47.004Z</time></trkpt><trkpt lat="43.57973" lon="12.497265"><ele>366.0</ele><time>2026-04-06T08:24:48.004Z</time></trkpt><trkpt lat="43.5796517" lon="12.4970733"><ele>373.66666666666663</ele><time>2026-04-06T08:24:49.004Z</time></trkpt><trkpt lat="43.5795867" lon="12.4968733"><ele>381.3333333333333</ele><time>2026-04-06T08:24:50.004Z</time></trkpt><trkpt lat="43.5795433" lon="12.4966683"><ele>389.0</ele><time>2026-04-06T08:24:51.004Z</time></trkpt><trkpt lat="43.5795317" lon="12.49645"><ele>388.66666666666663</ele><time>2026-04-06T08:24:52.004Z</time></trkpt><trkpt lat="43.5795483" lon="12.4962267"><ele>388.33333333333337</ele><time>2026-04-06T08:24:53.003Z</time></trkpt><trkpt lat="43.57959" lon="12.4960067"><ele>388.0</ele><time>2026-04-06T08:24:54.004Z</time></trkpt><trkpt lat="43.579655" lon="12.4958017"><ele>388.0</ele><time>2026-04-06T08:24:55.004Z</time></trkpt><trkpt lat="43.5797333" lon="12.4956083"><ele>388.0</ele><time>2026-04-06T08:24:56.004Z</time></trkpt><trkpt lat="43.5798283" lon="12.49541"><ele>388.0</ele><time>2026-04-06T08:24:57.004Z</time></trkpt><trkpt lat="43.5799233" lon="12.495205"><ele>380.6666666666667</ele><time>2026-04-06T08:24:58.004Z</time></trkpt><trkpt lat="43.580015" lon="12.4950083"><ele>373.33333333333337</ele><time>2026-04-06T08:24:59.004Z</time></trkpt><trkpt lat="43.5801167" lon="12.4948183"><ele>366.0</ele><time>2026-04-06T08:25:00.004Z</time></trkpt><trkpt lat="43.5802317" lon="12.4946467"><ele>363.3333333333333</ele><time>2026-04-06T08:25:01.004Z</time></trkpt><trkpt lat="43.5803733" lon="12.4945167"><ele>360.66666666666663</ele><time>2026-04-06T08:25:02.004Z</time></trkpt><trkpt lat="43.5805367" lon="12.49441"><ele>358.0</ele><time>2026-04-06T08:25:03.004Z</time></trkpt><trkpt lat="43.5807" lon="12.4943283"><ele>358.0</ele><time>2026-04-06T08:25:04.004Z</time></trkpt><trkpt lat="43.58087" lon="12.49426"><ele>358.0</ele><time>2026-04-06T08:25:05.004Z</time></trkpt><trkpt lat="43.5810417" lon="12.4941817"><ele>358.0</ele><time>2026-04-06T08:25:06.004Z</time></trkpt><trkpt lat="43.5812033" lon="12.4941"><ele>359.3333333333333</ele><time>2026-04-06T08:25:07.004Z</time></trkpt><trkpt lat="43.5813683" lon="12.4940183"><ele>360.6666666666667</ele><time>2026-04-06T08:25:08.004Z</time></trkpt><trkpt lat="43.5815267" lon="12.49394"><ele>362.0</ele><time>2026-04-06T08:25:09.004Z</time></trkpt><trkpt lat="43.5816867" lon="12.493865"><ele>360.0</ele><time>2026-04-06T08:25:10.004Z</time></trkpt><trkpt lat="43.5818267" lon="12.4937483"><ele>358.0</ele><time>2026-04-06T08:25:11.004Z</time></trkpt><trkpt lat="43.5819583" lon="12.49361"><ele>356.0</ele><time>2026-04-06T08:25:12.004Z</time></trkpt><trkpt lat="43.5820833" lon="12.493445"><ele>356.0</ele><time>2026-04-06T08:25:13.004Z</time></trkpt><trkpt lat="43.5822033" lon="12.4932667"><ele>356.0</ele><time>2026-04-06T08:25:14.004Z</time></trkpt><trkpt lat="43.58232" lon="12.4930817"><ele>356.0</ele><time>2026-04-06T08:25:15.004Z</time></trkpt><trkpt lat="43.5824383" lon="12.4929067"><ele>359.6666666666667</ele><time>2026-04-06T08:25:16.004Z</time></trkpt><trkpt lat="43.5825617" lon="12.4927367"><ele>363.3333333333333</ele><time>2026-04-06T08:25:17.004Z</time></trkpt><trkpt lat="43.5826717" lon="12.4925567"><ele>367.0</ele><time>2026-04-06T08:25:18.004Z</time></trkpt><trkpt lat="43.5827733" lon="12.4923683"><ele>363.3333333333333</ele><time>2026-04-06T08:25:19.004Z</time></trkpt><trkpt lat="43.5828533" lon="12.4921467"><ele>359.6666666666667</ele><time>2026-04-06T08:25:20.004Z</time></trkpt><trkpt lat="43.5829083" lon="12.4919167"><ele>356.0</ele><time>2026-04-06T08:25:21.004Z</time></trkpt><trkpt lat="43.5829467" lon="12.491675"><ele>356.0</ele><time>2026-04-06T08:25:22.004Z</time></trkpt><trkpt lat="43.5829683" lon="12.491435"><ele>356.0</ele><time>2026-04-06T08:25:23.004Z</time></trkpt><trkpt lat="43.58298" lon="12.4911867"><ele>356.0</ele><time>2026-04-06T08:25:24.004Z</time></trkpt><trkpt lat="43.5829867" lon="12.490935"><ele>356.0</ele><time>2026-04-06T08:25:25.004Z</time></trkpt><trkpt lat="43.5829883" lon="12.4906833"><ele>356.0</ele><time>2026-04-06T08:25:26.004Z</time></trkpt><trkpt lat="43.5829917" lon="12.49043"><ele>356.0</ele><time>2026-04-06T08:25:27.004Z</time></trkpt><trkpt lat="43.5829983" lon="12.49017"><ele>355.6666666666667</ele><time>2026-04-06T08:25:28.004Z</time></trkpt><trkpt lat="43.58301" lon="12.489915"><ele>355.3333333333333</ele><time>2026-04-06T08:25:29.004Z</time></trkpt><trkpt lat="43.5830217" lon="12.4896517"><ele>355.0</ele><time>2026-04-06T08:25:30.004Z</time></trkpt><trkpt lat="43.5830417" lon="12.4893917"><ele>356.3333333333333</ele><time>2026-04-06T08:25:31.004Z</time></trkpt><trkpt lat="43.5830567" lon="12.489135"><ele>357.6666666666667</ele><time>2026-04-06T08:25:32.004Z</time></trkpt><trkpt lat="43.583075" lon="12.4888883"><ele>359.0</ele><time>2026-04-06T08:25:33.004Z</time></trkpt><trkpt lat="43.5830883" lon="12.48864"><ele>359.33333333333337</ele><time>2026-04-06T08:25:34.004Z</time></trkpt><trkpt lat="43.5831083" lon="12.4884083"><ele>359.6666666666667</ele><time>2026-04-06T08:25:35.004Z</time></trkpt><trkpt lat="43.58313" lon="12.4881683"><ele>360.0</ele><time>2026-04-06T08:25:36.004Z</time></trkpt><trkpt lat="43.58313" lon="12.48793"><ele>361.0</ele><time>2026-04-06T08:25:37.004Z</time></trkpt><trkpt lat="43.5831083" lon="12.487695"><ele>362.0</ele><time>2026-04-06T08:25:38.004Z</time></trkpt><trkpt lat="43.583065" lon="12.4874683"><ele>363.0</ele><time>2026-04-06T08:25:39.004Z</time></trkpt><trkpt lat="43.58299" lon="12.487255"><ele>363.0</ele><time>2026-04-06T08:25:40.004Z</time></trkpt><trkpt lat="43.5829" lon="12.4870667"><ele>363.0</ele><time>2026-04-06T08:25:41.004Z</time></trkpt><trkpt lat="43.5827867" lon="12.4868967"><ele>363.0</ele><time>2026-04-06T08:25:42.004Z</time></trkpt><trkpt lat="43.5826567" lon="12.4867583"><ele>365.0</ele><time>2026-04-06T08:25:43.004Z</time></trkpt><trkpt lat="43.5825033" lon="12.4866533"><ele>367.0</ele><time>2026-04-06T08:25:44.004Z</time></trkpt><trkpt lat="43.582335" lon="12.48658"><ele>369.0</ele><time>2026-04-06T08:25:45.004Z</time></trkpt><trkpt lat="43.582165" lon="12.48654"><ele>373.3333333333333</ele><time>2026-04-06T08:25:46.004Z</time></trkpt><trkpt lat="43.58199" lon="12.486545"><ele>377.66666666666663</ele><time>2026-04-06T08:25:47.004Z</time></trkpt><trkpt lat="43.58182" lon="12.486585"><ele>382.0</ele><time>2026-04-06T08:25:48.004Z</time></trkpt><trkpt lat="43.5816567" lon="12.48665"><ele>382.0</ele><time>2026-04-06T08:25:49.004Z</time></trkpt><trkpt lat="43.581495" lon="12.48673"><ele>382.0</ele><time>2026-04-06T08:25:50.004Z</time></trkpt><trkpt lat="43.58133" lon="12.4868067"><ele>382.0</ele><time>2026-04-06T08:25:51.004Z</time></trkpt><trkpt lat="43.5811683" lon="12.4868383"><ele>384.0</ele><time>2026-04-06T08:25:52.004Z</time></trkpt><trkpt lat="43.581" lon="12.4868517"><ele>386.0</ele><time>2026-04-06T08:25:53.004Z</time></trkpt><trkpt lat="43.5808333" lon="12.4868183"><ele>388.0</ele><time>2026-04-06T08:25:54.004Z</time></trkpt><trkpt lat="43.58067" lon="12.486765"><ele>388.0</ele><time>2026-04-06T08:25:55.004Z</time></trkpt><trkpt lat="43.5805" lon="12.4867183"><ele>388.0</ele><time>2026-04-06T08:25:56.004Z</time></trkpt><trkpt lat="43.5803333" lon="12.4866533"><ele>388.0</ele><time>2026-04-06T08:25:57.004Z</time></trkpt><trkpt lat="43.5801617" lon="12.4865817"><ele>385.0</ele><time>2026-04-06T08:25:58.004Z</time></trkpt><trkpt lat="43.5799933" lon="12.4865017"><ele>382.0</ele><time>2026-04-06T08:25:59.004Z</time></trkpt><trkpt lat="43.5798317" lon="12.4864267"><ele>379.0</ele><time>2026-04-06T08:26:00.004Z</time></trkpt><trkpt lat="43.5796717" lon="12.4863367"><ele>381.3333333333333</ele><time>2026-04-06T08:26:01.004Z</time></trkpt><trkpt lat="43.57951" lon="12.4862367"><ele>383.66666666666663</ele><time>2026-04-06T08:26:02.004Z</time></trkpt><trkpt lat="43.5793467" lon="12.4861317"><ele>386.0</ele><time>2026-04-06T08:26:03.004Z</time></trkpt><trkpt lat="43.5791933" lon="12.4860183"><ele>386.0</ele><time>2026-04-06T08:26:04.004Z</time></trkpt><trkpt lat="43.57904" lon="12.4858833"><ele>386.0</ele><time>2026-04-06T08:26:05.004Z</time></trkpt><trkpt lat="43.578885" lon="12.485735"><ele>386.0</ele><time>2026-04-06T08:26:06.004Z</time></trkpt><trkpt lat="43.5787317" lon="12.4855733"><ele>384.0</ele><time>2026-04-06T08:26:07.004Z</time></trkpt><trkpt lat="43.5785867" lon="12.4854067"><ele>382.0</ele><time>2026-04-06T08:26:08.004Z</time></trkpt><trkpt lat="43.5784467" lon="12.485235"><ele>380.0</ele><time>2026-04-06T08:26:09.004Z</time></trkpt><trkpt lat="43.57832" lon="12.4850617"><ele>380.0</ele><time>2026-04-06T08:26:10.004Z</time></trkpt><trkpt lat="43.5782" lon="12.48488"><ele>380.0</ele><time>2026-04-06T08:26:11.004Z</time></trkpt><trkpt lat="43.5780833" lon="12.4847"><ele>380.0</ele><time>2026-04-06T08:26:12.004Z</time></trkpt><trkpt lat="43.5779717" lon="12.4845217"><ele>385.33333333333337</ele><time>2026-04-06T08:26:13.004Z</time></trkpt><trkpt lat="43.5778667" lon="12.4843367"><ele>390.6666666666667</ele><time>2026-04-06T08:26:14.004Z</time></trkpt><trkpt lat="43.57777" lon="12.484155"><ele>396.0</ele><time>2026-04-06T08:26:15.004Z</time></trkpt><trkpt lat="43.577715" lon="12.483945"><ele>396.0</ele><time>2026-04-06T08:26:16.004Z</time></trkpt><trkpt lat="43.5776583" lon="12.4837583"><ele>396.0</ele><time>2026-04-06T08:26:17.004Z</time></trkpt><trkpt lat="43.577615" lon="12.4835783"><ele>396.0</ele><time>2026-04-06T08:26:18.004Z</time></trkpt><trkpt lat="43.5775783" lon="12.4834033"><ele>396.0</ele><time>2026-04-06T08:26:19.004Z</time></trkpt><trkpt lat="43.5775783" lon="12.48321"><ele>396.0</ele><time>2026-04-06T08:26:20.004Z</time></trkpt><trkpt lat="43.5776067" lon="12.4830267"><ele>396.0</ele><time>2026-04-06T08:26:21.004Z</time></trkpt><trkpt lat="43.5776567" lon="12.4828433"><ele>396.0</ele><time>2026-04-06T08:26:22.004Z</time></trkpt><trkpt lat="43.5777217" lon="12.4826867"><ele>396.0</ele><time>2026-04-06T08:26:23.004Z</time></trkpt><trkpt lat="43.5778224" lon="12.4825659"><ele>392.25</ele><time>2026-04-06T08:26:24.004Z</time></trkpt><trkpt lat="43.5779163" lon="12.4824624"><ele>388.5</ele><time>2026-04-06T08:26:25.004Z</time></trkpt><trkpt lat="43.5780077" lon="12.4823836"><ele>384.75</ele><time>2026-04-06T08:26:26.004Z</time></trkpt><trkpt lat="43.5781963" lon="12.4824296"><ele>381.0</ele><time>2026-04-06T08:26:27.004Z</time></trkpt><trkpt lat="43.5784024" lon="12.4824579"><ele>381.0</ele><time>2026-04-06T08:26:28.004Z</time></trkpt><trkpt lat="43.5785795" lon="12.4824103"><ele>381.0</ele><time>2026-04-06T08:26:29.004Z</time></trkpt><trkpt lat="43.5787393" lon="12.4823175"><ele>381.0</ele><time>2026-04-06T08:26:30.004Z</time></trkpt><trkpt lat="43.5788693" lon="12.4821829"><ele>381.6666666666667</ele><time>2026-04-06T08:26:31.004Z</time></trkpt><trkpt lat="43.5789483" lon="12.4820006"><ele>382.33333333333337</ele><time>2026-04-06T08:26:32.004Z</time></trkpt><trkpt lat="43.5789715" lon="12.4817889"><ele>383.0</ele><time>2026-04-06T08:26:33.004Z</time></trkpt><trkpt lat="43.5789288" lon="12.4815489"><ele>383.0</ele><time>2026-04-06T08:26:34.004Z</time></trkpt><trkpt lat="43.5788562" lon="12.4812938"><ele>383.0</ele><time>2026-04-06T08:26:35.004Z</time></trkpt><trkpt lat="43.578802" lon="12.4810395"><ele>383.0</ele><time>2026-04-06T08:26:36.004Z</time></trkpt><trkpt lat="43.5788022" lon="12.4807968"><ele>381.6666666666667</ele><time>2026-04-06T08:26:37.004Z</time></trkpt><trkpt lat="43.5788578" lon="12.4805488"><ele>380.3333333333333</ele><time>2026-04-06T08:26:38.004Z</time></trkpt><trkpt lat="43.5789476" lon="12.4803069"><ele>379.0</ele><time>2026-04-06T08:26:39.004Z</time></trkpt><trkpt lat="43.5790323" lon="12.4800662"><ele>379.0</ele><time>2026-04-06T08:26:40.003Z</time></trkpt><trkpt lat="43.5790772" lon="12.4798174"><ele>379.0</ele><time>2026-04-06T08:26:41.004Z</time></trkpt><trkpt lat="43.5790864" lon="12.4795531"><ele>379.0</ele><time>2026-04-06T08:26:42.004Z</time></trkpt><trkpt lat="43.5790628" lon="12.4792889"><ele>382.3333333333333</ele><time>2026-04-06T08:26:43.004Z</time></trkpt><trkpt lat="43.5790037" lon="12.4790329"><ele>385.66666666666663</ele><time>2026-04-06T08:26:44.004Z</time></trkpt><trkpt lat="43.5789317" lon="12.4787889"><ele>389.0</ele><time>2026-04-06T08:26:45.004Z</time></trkpt><trkpt lat="43.5788558" lon="12.4785694"><ele>393.3333333333333</ele><time>2026-04-06T08:26:46.004Z</time></trkpt><trkpt lat="43.5788059" lon="12.4783476"><ele>397.66666666666663</ele><time>2026-04-06T08:26:47.004Z</time></trkpt><trkpt lat="43.5787838" lon="12.4781082"><ele>402.0</ele><time>2026-04-06T08:26:48.004Z</time></trkpt><trkpt lat="43.578809" lon="12.4778596"><ele>402.0</ele><time>2026-04-06T08:26:49.004Z</time></trkpt><trkpt lat="43.5788761" lon="12.4776095"><ele>402.0</ele><time>2026-04-06T08:26:50.004Z</time></trkpt><trkpt lat="43.5789764" lon="12.4773881"><ele>402.0</ele><time>2026-04-06T08:26:51.004Z</time></trkpt><trkpt lat="43.5790754" lon="12.4771615"><ele>399.66666666666663</ele><time>2026-04-06T08:26:52.004Z</time></trkpt><trkpt lat="43.579138" lon="12.476922"><ele>397.3333333333333</ele><time>2026-04-06T08:26:53.004Z</time></trkpt><trkpt lat="43.5791533" lon="12.4766646"><ele>395.0</ele><time>2026-04-06T08:26:54.003Z</time></trkpt><trkpt lat="43.5791313" lon="12.4764164"><ele>395.0</ele><time>2026-04-06T08:26:55.004Z</time></trkpt><trkpt lat="43.5790509" lon="12.4761634"><ele>395.0</ele><time>2026-04-06T08:26:56.004Z</time></trkpt><trkpt lat="43.5789386" lon="12.4759241"><ele>395.0</ele><time>2026-04-06T08:26:57.004Z</time></trkpt><trkpt lat="43.5788219" lon="12.4757039"><ele>395.0</ele><time>2026-04-06T08:26:58.004Z</time></trkpt><trkpt lat="43.5787091" lon="12.4754865"><ele>395.0</ele><time>2026-04-06T08:26:59.004Z</time></trkpt><trkpt lat="43.5785989" lon="12.4752621"><ele>395.0</ele><time>2026-04-06T08:27:00.004Z</time></trkpt><trkpt lat="43.5784939" lon="12.4750308"><ele>392.66666666666663</ele><time>2026-04-06T08:27:01.004Z</time></trkpt><trkpt lat="43.5783913" lon="12.4748003"><ele>390.33333333333337</ele><time>2026-04-06T08:27:02.004Z</time></trkpt><trkpt lat="43.5782849" lon="12.4745692"><ele>388.0</ele><time>2026-04-06T08:27:03.004Z</time></trkpt><trkpt lat="43.5781831" lon="12.4743339"><ele>388.0</ele><time>2026-04-06T08:27:04.004Z</time></trkpt><trkpt lat="43.5780856" lon="12.4741043"><ele>388.0</ele><time>2026-04-06T08:27:05.004Z</time></trkpt><trkpt lat="43.5780015" lon="12.4738685"><ele>388.0</ele><time>2026-04-06T08:27:06.004Z</time></trkpt><trkpt lat="43.5779351" lon="12.4736234"><ele>387.6666666666667</ele><time>2026-04-06T08:27:07.004Z</time></trkpt><trkpt lat="43.5778883" lon="12.4733665"><ele>387.33333333333337</ele><time>2026-04-06T08:27:08.004Z</time></trkpt><trkpt lat="43.5778672" lon="12.4730988"><ele>387.0</ele><time>2026-04-06T08:27:09.004Z</time></trkpt><trkpt lat="43.5778651" lon="12.4728228"><ele>386.66666666666663</ele><time>2026-04-06T08:27:10.004Z</time></trkpt><trkpt lat="43.5778874" lon="12.4725369"><ele>386.3333333333333</ele><time>2026-04-06T08:27:11.004Z</time></trkpt><trkpt lat="43.5779344" lon="12.4722551"><ele>386.0</ele><time>2026-04-06T08:27:12.004Z</time></trkpt><trkpt lat="43.5779919" lon="12.4719855"><ele>386.0</ele><time>2026-04-06T08:27:13.004Z</time></trkpt><trkpt lat="43.5780474" lon="12.4717229"><ele>386.0</ele><time>2026-04-06T08:27:14.004Z</time></trkpt><trkpt lat="43.5780946" lon="12.4714633"><ele>386.0</ele><time>2026-04-06T08:27:15.004Z</time></trkpt><trkpt lat="43.5781354" lon="12.4711948"><ele>388.66666666666663</ele><time>2026-04-06T08:27:16.004Z</time></trkpt><trkpt lat="43.578177" lon="12.4709267"><ele>391.33333333333337</ele><time>2026-04-06T08:27:17.004Z</time></trkpt><trkpt lat="43.5782199" lon="12.4706639"><ele>394.0</ele><time>2026-04-06T08:27:18.004Z</time></trkpt><trkpt lat="43.5782723" lon="12.4704087"><ele>399.6666666666667</ele><time>2026-04-06T08:27:19.004Z</time></trkpt><trkpt lat="43.578338" lon="12.4701556"><ele>405.33333333333337</ele><time>2026-04-06T08:27:20.004Z</time></trkpt><trkpt lat="43.5784027" lon="12.4699117"><ele>411.0</ele><time>2026-04-06T08:27:21.004Z</time></trkpt><trkpt lat="43.5784802" lon="12.4696928"><ele>411.66666666666663</ele><time>2026-04-06T08:27:22.004Z</time></trkpt><trkpt lat="43.5785504" lon="12.4695017"><ele>412.3333333333333</ele><time>2026-04-06T08:27:23.004Z</time></trkpt><trkpt lat="43.5786161" lon="12.4693105"><ele>413.0</ele><time>2026-04-06T08:27:24.004Z</time></trkpt><trkpt lat="43.5786696" lon="12.4691161"><ele>413.0</ele><time>2026-04-06T08:27:25.004Z</time></trkpt><trkpt lat="43.5786709" lon="12.4689354"><ele>413.0</ele><time>2026-04-06T08:27:26.004Z</time></trkpt><trkpt lat="43.5786268" lon="12.4687641"><ele>413.0</ele><time>2026-04-06T08:27:27.004Z</time></trkpt><trkpt lat="43.5785209" lon="12.4686007"><ele>413.0</ele><time>2026-04-06T08:27:28.004Z</time></trkpt><trkpt lat="43.5783686" lon="12.4684513"><ele>409.3333333333333</ele><time>2026-04-06T08:27:29.004Z</time></trkpt><trkpt lat="43.5782139" lon="12.4682968"><ele>405.66666666666663</ele><time>2026-04-06T08:27:30.004Z</time></trkpt><trkpt lat="43.5780608" lon="12.4681351"><ele>402.0</ele><time>2026-04-06T08:27:31.004Z</time></trkpt><trkpt lat="43.5779026" lon="12.467969"><ele>403.66666666666663</ele><time>2026-04-06T08:27:32.004Z</time></trkpt><trkpt lat="43.5777492" lon="12.4677931"><ele>405.3333333333333</ele><time>2026-04-06T08:27:33.004Z</time></trkpt><trkpt lat="43.5776006" lon="12.4676106"><ele>407.0</ele><time>2026-04-06T08:27:34.004Z</time></trkpt><trkpt lat="43.5774541" lon="12.4674301"><ele>407.0</ele><time>2026-04-06T08:27:35.004Z</time></trkpt><trkpt lat="43.5773112" lon="12.4672449"><ele>407.0</ele><time>2026-04-06T08:27:36.004Z</time></trkpt><trkpt lat="43.5771735" lon="12.4670613"><ele>407.0</ele><time>2026-04-06T08:27:37.004Z</time></trkpt><trkpt lat="43.5770557" lon="12.4668639"><ele>409.3333333333333</ele><time>2026-04-06T08:27:38.004Z</time></trkpt><trkpt lat="43.5769688" lon="12.4666432"><ele>411.66666666666663</ele><time>2026-04-06T08:27:39.004Z</time></trkpt><trkpt lat="43.5769208" lon="12.4664028"><ele>414.0</ele><time>2026-04-06T08:27:40.004Z</time></trkpt><trkpt lat="43.5769026" lon="12.4661488"><ele>409.0</ele><time>2026-04-06T08:27:41.004Z</time></trkpt><trkpt lat="43.5769018" lon="12.465896"><ele>404.0</ele><time>2026-04-06T08:27:42.004Z</time></trkpt><trkpt lat="43.5769269" lon="12.4656313"><ele>399.0</ele><time>2026-04-06T08:27:43.004Z</time></trkpt><trkpt lat="43.576986" lon="12.4653692"><ele>403.33333333333337</ele><time>2026-04-06T08:27:44.003Z</time></trkpt><trkpt lat="43.5770725" lon="12.4651251"><ele>407.6666666666667</ele><time>2026-04-06T08:27:45.004Z</time></trkpt><trkpt lat="43.5771885" lon="12.4649035"><ele>412.0</ele><time>2026-04-06T08:27:46.004Z</time></trkpt><trkpt lat="43.5773286" lon="12.4647014"><ele>414.6666666666667</ele><time>2026-04-06T08:27:47.004Z</time></trkpt><trkpt lat="43.5774904" lon="12.4645167"><ele>417.33333333333337</ele><time>2026-04-06T08:27:48.004Z</time></trkpt><trkpt lat="43.5776713" lon="12.46435"><ele>420.0</ele><time>2026-04-06T08:27:49.004Z</time></trkpt><trkpt lat="43.5778595" lon="12.4641863"><ele>420.0</ele><time>2026-04-06T08:27:50.004Z</time></trkpt><trkpt lat="43.578048" lon="12.4640152"><ele>420.0</ele><time>2026-04-06T08:27:51.004Z</time></trkpt><trkpt lat="43.5782323" lon="12.4638357"><ele>420.66666666666663</ele><time>2026-04-06T08:27:52.004Z</time></trkpt><trkpt lat="43.5784056" lon="12.4636511"><ele>421.3333333333333</ele><time>2026-04-06T08:27:53.004Z</time></trkpt><trkpt lat="43.5785698" lon="12.4634684"><ele>422.0</ele><time>2026-04-06T08:27:54.004Z</time></trkpt><trkpt lat="43.5787245" lon="12.4632952"><ele>422.0</ele><time>2026-04-06T08:27:55.004Z</time></trkpt><trkpt lat="43.5788698" lon="12.4631272"><ele>422.0</ele><time>2026-04-06T08:27:56.004Z</time></trkpt><trkpt lat="43.5789984" lon="12.4629491"><ele>422.0</ele><time>2026-04-06T08:27:57.004Z</time></trkpt><trkpt lat="43.5791109" lon="12.4627484"><ele>420.0</ele><time>2026-04-06T08:27:58.004Z</time></trkpt><trkpt lat="43.579205" lon="12.4625264"><ele>418.0</ele><time>2026-04-06T08:27:59.004Z</time></trkpt><trkpt lat="43.5792804" lon="12.4622857"><ele>416.0</ele><time>2026-04-06T08:28:00.004Z</time></trkpt><trkpt lat="43.5793258" lon="12.4620241"><ele>415.66666666666663</ele><time>2026-04-06T08:28:01.004Z</time></trkpt><trkpt lat="43.5793378" lon="12.4617421"><ele>415.33333333333337</ele><time>2026-04-06T08:28:02.003Z</time></trkpt><trkpt lat="43.5793256" lon="12.461455"><ele>415.0</ele><time>2026-04-06T08:28:03.004Z</time></trkpt><trkpt lat="43.5793168" lon="12.4611722"><ele>414.33333333333337</ele><time>2026-04-06T08:28:04.004Z</time></trkpt><trkpt lat="43.579329" lon="12.4609028"><ele>413.66666666666663</ele><time>2026-04-06T08:28:05.003Z</time></trkpt><trkpt lat="43.5793585" lon="12.460641"><ele>413.0</ele><time>2026-04-06T08:28:06.004Z</time></trkpt><trkpt lat="43.5793949" lon="12.4603827"><ele>412.66666666666663</ele><time>2026-04-06T08:28:07.004Z</time></trkpt><trkpt lat="43.5794479" lon="12.4601303"><ele>412.33333333333337</ele><time>2026-04-06T08:28:08.004Z</time></trkpt><trkpt lat="43.5795216" lon="12.4598863"><ele>412.0</ele><time>2026-04-06T08:28:09.004Z</time></trkpt><trkpt lat="43.5796032" lon="12.4596409"><ele>419.0</ele><time>2026-04-06T08:28:10.004Z</time></trkpt><trkpt lat="43.5796829" lon="12.4593944"><ele>426.0</ele><time>2026-04-06T08:28:11.004Z</time></trkpt><trkpt lat="43.5797636" lon="12.4591422"><ele>433.0</ele><time>2026-04-06T08:28:12.004Z</time></trkpt><trkpt lat="43.5798413" lon="12.4588784"><ele>429.0</ele><time>2026-04-06T08:28:13.004Z</time></trkpt><trkpt lat="43.5799168" lon="12.4586065"><ele>425.0</ele><time>2026-04-06T08:28:14.004Z</time></trkpt><trkpt lat="43.5799949" lon="12.4583301"><ele>421.0</ele><time>2026-04-06T08:28:15.004Z</time></trkpt><trkpt lat="43.5800746" lon="12.4580595"><ele>419.6666666666667</ele><time>2026-04-06T08:28:16.004Z</time></trkpt><trkpt lat="43.5801521" lon="12.4577815"><ele>418.33333333333337</ele><time>2026-04-06T08:28:17.004Z</time></trkpt><trkpt lat="43.5802291" lon="12.4574978"><ele>417.0</ele><time>2026-04-06T08:28:18.004Z</time></trkpt><trkpt lat="43.5803129" lon="12.4572175"><ele>416.66666666666663</ele><time>2026-04-06T08:28:19.004Z</time></trkpt><trkpt lat="43.5803886" lon="12.4569435"><ele>416.3333333333333</ele><time>2026-04-06T08:28:20.004Z</time></trkpt><trkpt lat="43.5804564" lon="12.456664"><ele>416.0</ele><time>2026-04-06T08:28:21.004Z</time></trkpt><trkpt lat="43.5805082" lon="12.4563887"><ele>415.66666666666663</ele><time>2026-04-06T08:28:22.004Z</time></trkpt><trkpt lat="43.5805424" lon="12.4561022"><ele>415.33333333333337</ele><time>2026-04-06T08:28:23.004Z</time></trkpt><trkpt lat="43.5805671" lon="12.4558187"><ele>415.0</ele><time>2026-04-06T08:28:24.004Z</time></trkpt><trkpt lat="43.5805888" lon="12.4555337"><ele>416.6666666666667</ele><time>2026-04-06T08:28:25.004Z</time></trkpt><trkpt lat="43.5806067" lon="12.4552472"><ele>418.33333333333337</ele><time>2026-04-06T08:28:26.004Z</time></trkpt><trkpt lat="43.5806234" lon="12.4549595"><ele>420.0</ele><time>2026-04-06T08:28:27.004Z</time></trkpt><trkpt lat="43.5806394" lon="12.4546744"><ele>420.66666666666663</ele><time>2026-04-06T08:28:28.004Z</time></trkpt><trkpt lat="43.5806556" lon="12.4543975"><ele>421.3333333333333</ele><time>2026-04-06T08:28:29.004Z</time></trkpt><trkpt lat="43.5806721" lon="12.4541305"><ele>422.0</ele><time>2026-04-06T08:28:30.004Z</time></trkpt><trkpt lat="43.5806895" lon="12.4538699"><ele>424.66666666666663</ele><time>2026-04-06T08:28:31.004Z</time></trkpt><trkpt lat="43.5806975" lon="12.4536183"><ele>427.33333333333337</ele><time>2026-04-06T08:28:32.004Z</time></trkpt><trkpt lat="43.580686" lon="12.4533771"><ele>430.0</ele><time>2026-04-06T08:28:33.004Z</time></trkpt><trkpt lat="43.5806466" lon="12.4531413"><ele>428.33333333333337</ele><time>2026-04-06T08:28:34.004Z</time></trkpt><trkpt lat="43.5805717" lon="12.4529141"><ele>426.66666666666663</ele><time>2026-04-06T08:28:35.004Z</time></trkpt><trkpt lat="43.5804652" lon="12.4527041"><ele>425.0</ele><time>2026-04-06T08:28:36.004Z</time></trkpt><trkpt lat="43.5803377" lon="12.4525304"><ele>425.0</ele><time>2026-04-06T08:28:37.004Z</time></trkpt><trkpt lat="43.5802" lon="12.4523667"><ele>425.0</ele><time>2026-04-06T08:28:38.004Z</time></trkpt><trkpt lat="43.5801" lon="12.4521833"><ele>425.0</ele><time>2026-04-06T08:28:39.004Z</time></trkpt><trkpt lat="43.580025" lon="12.4519667"><ele>428.0</ele><time>2026-04-06T08:28:40.004Z</time></trkpt><trkpt lat="43.5799933" lon="12.4517283"><ele>431.0</ele><time>2026-04-06T08:28:41.004Z</time></trkpt><trkpt lat="43.5799967" lon="12.4514817"><ele>434.0</ele><time>2026-04-06T08:28:42.004Z</time></trkpt><trkpt lat="43.58002" lon="12.4512083"><ele>434.0</ele><time>2026-04-06T08:28:43.004Z</time></trkpt><trkpt lat="43.5800583" lon="12.4509483"><ele>434.0</ele><time>2026-04-06T08:28:44.004Z</time></trkpt><trkpt lat="43.58009" lon="12.450695"><ele>434.0</ele><time>2026-04-06T08:28:45.004Z</time></trkpt><trkpt lat="43.5801017" lon="12.45045"><ele>433.3333333333333</ele><time>2026-04-06T08:28:46.004Z</time></trkpt><trkpt lat="43.58009" lon="12.4501917"><ele>432.66666666666663</ele><time>2026-04-06T08:28:47.004Z</time></trkpt><trkpt lat="43.5800433" lon="12.449975"><ele>432.0</ele><time>2026-04-06T08:28:48.004Z</time></trkpt><trkpt lat="43.5799583" lon="12.4497733"><ele>435.33333333333337</ele><time>2026-04-06T08:28:49.004Z</time></trkpt><trkpt lat="43.5798433" lon="12.4495867"><ele>438.6666666666667</ele><time>2026-04-06T08:28:50.004Z</time></trkpt><trkpt lat="43.5797067" lon="12.449415"><ele>442.0</ele><time>2026-04-06T08:28:51.004Z</time></trkpt><trkpt lat="43.5795683" lon="12.4492383"><ele>442.6666666666667</ele><time>2026-04-06T08:28:52.004Z</time></trkpt><trkpt lat="43.5794267" lon="12.4490517"><ele>443.33333333333337</ele><time>2026-04-06T08:28:53.004Z</time></trkpt><trkpt lat="43.5792967" lon="12.4488733"><ele>444.0</ele><time>2026-04-06T08:28:54.004Z</time></trkpt><trkpt lat="43.57919" lon="12.448705"><ele>444.0</ele><time>2026-04-06T08:28:55.004Z</time></trkpt><trkpt lat="43.57907" lon="12.448525"><ele>444.0</ele><time>2026-04-06T08:28:56.004Z</time></trkpt><trkpt lat="43.57894" lon="12.4483483"><ele>444.0</ele><time>2026-04-06T08:28:57.004Z</time></trkpt><trkpt lat="43.5788033" lon="12.4481617"><ele>442.66666666666663</ele><time>2026-04-06T08:28:58.004Z</time></trkpt><trkpt lat="43.5786717" lon="12.44796"><ele>441.3333333333333</ele><time>2026-04-06T08:28:59.004Z</time></trkpt><trkpt lat="43.5785483" lon="12.447745"><ele>440.0</ele><time>2026-04-06T08:29:00.004Z</time></trkpt><trkpt lat="43.5784517" lon="12.447525"><ele>440.0</ele><time>2026-04-06T08:29:01.004Z</time></trkpt><trkpt lat="43.5783767" lon="12.4472817"><ele>440.0</ele><time>2026-04-06T08:29:02.004Z</time></trkpt><trkpt lat="43.57831" lon="12.4470367"><ele>440.0</ele><time>2026-04-06T08:29:03.004Z</time></trkpt><trkpt lat="43.5782417" lon="12.4468"><ele>442.3333333333333</ele><time>2026-04-06T08:29:04.004Z</time></trkpt><trkpt lat="43.5781583" lon="12.4465817"><ele>444.66666666666663</ele><time>2026-04-06T08:29:05.004Z</time></trkpt><trkpt lat="43.578055" lon="12.446385"><ele>447.0</ele><time>2026-04-06T08:29:06.004Z</time></trkpt><trkpt lat="43.577935" lon="12.4462117"><ele>447.0</ele><time>2026-04-06T08:29:07.004Z</time></trkpt><trkpt lat="43.5777933" lon="12.4460567"><ele>447.0</ele><time>2026-04-06T08:29:08.004Z</time></trkpt><trkpt lat="43.5776417" lon="12.4459067"><ele>447.0</ele><time>2026-04-06T08:29:09.004Z</time></trkpt><trkpt lat="43.5774883" lon="12.4457633"><ele>447.0</ele><time>2026-04-06T08:29:10.004Z</time></trkpt><trkpt lat="43.5773367" lon="12.4456067"><ele>447.0</ele><time>2026-04-06T08:29:11.004Z</time></trkpt><trkpt lat="43.5771967" lon="12.44545"><ele>447.0</ele><time>2026-04-06T08:29:12.004Z</time></trkpt><trkpt lat="43.57707" lon="12.4452917"><ele>446.66666666666663</ele><time>2026-04-06T08:29:13.004Z</time></trkpt><trkpt lat="43.57697" lon="12.4450967"><ele>446.3333333333333</ele><time>2026-04-06T08:29:14.004Z</time></trkpt><trkpt lat="43.5768917" lon="12.44487"><ele>446.0</ele><time>2026-04-06T08:29:15.004Z</time></trkpt><trkpt lat="43.5768217" lon="12.4446367"><ele>450.0</ele><time>2026-04-06T08:29:16.004Z</time></trkpt><trkpt lat="43.5767517" lon="12.444405"><ele>454.0</ele><time>2026-04-06T08:29:17.004Z</time></trkpt><trkpt lat="43.5766617" lon="12.4441983"><ele>458.0</ele><time>2026-04-06T08:29:18.004Z</time></trkpt><trkpt lat="43.5765433" lon="12.4440217"><ele>458.0</ele><time>2026-04-06T08:29:19.004Z</time></trkpt><trkpt lat="43.5764033" lon="12.4438767"><ele>458.0</ele><time>2026-04-06T08:29:20.004Z</time></trkpt><trkpt lat="43.576235" lon="12.4437733"><ele>458.0</ele><time>2026-04-06T08:29:21.004Z</time></trkpt><trkpt lat="43.5760533" lon="12.4437067"><ele>460.0</ele><time>2026-04-06T08:29:22.004Z</time></trkpt><trkpt lat="43.5758617" lon="12.4436567"><ele>462.0</ele><time>2026-04-06T08:29:23.004Z</time></trkpt><trkpt lat="43.575665" lon="12.443605"><ele>464.0</ele><time>2026-04-06T08:29:24.004Z</time></trkpt><trkpt lat="43.5754667" lon="12.4435383"><ele>461.3333333333333</ele><time>2026-04-06T08:29:25.004Z</time></trkpt><trkpt lat="43.575275" lon="12.4434767"><ele>458.66666666666663</ele><time>2026-04-06T08:29:26.004Z</time></trkpt><trkpt lat="43.5750867" lon="12.4434133"><ele>456.0</ele><time>2026-04-06T08:29:27.004Z</time></trkpt><trkpt lat="43.5749033" lon="12.4433367"><ele>456.0</ele><time>2026-04-06T08:29:28.004Z</time></trkpt><trkpt lat="43.5747183" lon="12.4432333"><ele>456.0</ele><time>2026-04-06T08:29:29.004Z</time></trkpt><trkpt lat="43.5745317" lon="12.4431167"><ele>456.0</ele><time>2026-04-06T08:29:30.004Z</time></trkpt><trkpt lat="43.5743567" lon="12.4429783"><ele>458.33333333333337</ele><time>2026-04-06T08:29:31.004Z</time></trkpt><trkpt lat="43.5741733" lon="12.4428533"><ele>460.6666666666667</ele><time>2026-04-06T08:29:32.004Z</time></trkpt><trkpt lat="43.57399" lon="12.4427267"><ele>463.0</ele><time>2026-04-06T08:29:33.004Z</time></trkpt><trkpt lat="43.5738083" lon="12.4426017"><ele>459.6666666666667</ele><time>2026-04-06T08:29:34.004Z</time></trkpt><trkpt lat="43.5736217" lon="12.4424817"><ele>456.33333333333337</ele><time>2026-04-06T08:29:35.004Z</time></trkpt><trkpt lat="43.5734383" lon="12.4423617"><ele>453.0</ele><time>2026-04-06T08:29:36.004Z</time></trkpt><trkpt lat="43.5732517" lon="12.4422467"><ele>453.0</ele><time>2026-04-06T08:29:37.004Z</time></trkpt><trkpt lat="43.5730683" lon="12.442135"><ele>453.0</ele><time>2026-04-06T08:29:38.004Z</time></trkpt><trkpt lat="43.572885" lon="12.44201"><ele>453.0</ele><time>2026-04-06T08:29:39.004Z</time></trkpt><trkpt lat="43.57271" lon="12.44187"><ele>455.0</ele><time>2026-04-06T08:29:40.004Z</time></trkpt><trkpt lat="43.5725433" lon="12.441705"><ele>457.0</ele><time>2026-04-06T08:29:41.004Z</time></trkpt><trkpt lat="43.57238" lon="12.44154"><ele>459.0</ele><time>2026-04-06T08:29:42.004Z</time></trkpt><trkpt lat="43.572215" lon="12.44137"><ele>460.66666666666663</ele><time>2026-04-06T08:29:43.004Z</time></trkpt><trkpt lat="43.5720483" lon="12.441205"><ele>462.3333333333333</ele><time>2026-04-06T08:29:44.004Z</time></trkpt><trkpt lat="43.5718733" lon="12.44104"><ele>464.0</ele><time>2026-04-06T08:29:45.004Z</time></trkpt><trkpt lat="43.5717017" lon="12.4408917"><ele>464.0</ele><time>2026-04-06T08:29:46.004Z</time></trkpt><trkpt lat="43.5715233" lon="12.4407533"><ele>464.0</ele><time>2026-04-06T08:29:47.004Z</time></trkpt><trkpt lat="43.5713417" lon="12.4406183"><ele>464.0</ele><time>2026-04-06T08:29:48.004Z</time></trkpt><trkpt lat="43.571165" lon="12.4404867"><ele>463.66666666666663</ele><time>2026-04-06T08:29:49.004Z</time></trkpt><trkpt lat="43.5709817" lon="12.4403383"><ele>463.33333333333337</ele><time>2026-04-06T08:29:50.004Z</time></trkpt><trkpt lat="43.5708183" lon="12.4401767"><ele>463.0</ele><time>2026-04-06T08:29:51.004Z</time></trkpt><trkpt lat="43.5706667" lon="12.4399883"><ele>463.0</ele><time>2026-04-06T08:29:52.004Z</time></trkpt><trkpt lat="43.570525" lon="12.4397767"><ele>463.0</ele><time>2026-04-06T08:29:53.004Z</time></trkpt><trkpt lat="43.570405" lon="12.4395467"><ele>463.0</ele><time>2026-04-06T08:29:54.004Z</time></trkpt><trkpt lat="43.5703033" lon="12.4393083"><ele>461.6666666666667</ele><time>2026-04-06T08:29:55.004Z</time></trkpt><trkpt lat="43.5702033" lon="12.4390517"><ele>460.33333333333337</ele><time>2026-04-06T08:29:56.004Z</time></trkpt><trkpt lat="43.5701117" lon="12.4387967"><ele>459.0</ele><time>2026-04-06T08:29:57.004Z</time></trkpt><trkpt lat="43.5700183" lon="12.43854"><ele>459.0</ele><time>2026-04-06T08:29:58.004Z</time></trkpt><trkpt lat="43.5699217" lon="12.4382733"><ele>459.0</ele><time>2026-04-06T08:29:59.004Z</time></trkpt><trkpt lat="43.5698283" lon="12.4380067"><ele>459.0</ele><time>2026-04-06T08:30:00.004Z</time></trkpt><trkpt lat="43.5697367" lon="12.437745"><ele>458.66666666666663</ele><time>2026-04-06T08:30:01.004Z</time></trkpt><trkpt lat="43.5696467" lon="12.4374833"><ele>458.3333333333333</ele><time>2026-04-06T08:30:02.004Z</time></trkpt><trkpt lat="43.5695617" lon="12.4372167"><ele>458.0</ele><time>2026-04-06T08:30:03.004Z</time></trkpt><trkpt lat="43.5694867" lon="12.4369517"><ele>458.0</ele><time>2026-04-06T08:30:04.004Z</time></trkpt><trkpt lat="43.56942" lon="12.436695"><ele>458.0</ele><time>2026-04-06T08:30:05.004Z</time></trkpt><trkpt lat="43.5693617" lon="12.4364617"><ele>458.0</ele><time>2026-04-06T08:30:06.004Z</time></trkpt><trkpt lat="43.5693067" lon="12.436245"><ele>459.0</ele><time>2026-04-06T08:30:07.004Z</time></trkpt><trkpt lat="43.5692483" lon="12.4360383"><ele>460.0</ele><time>2026-04-06T08:30:08.004Z</time></trkpt><trkpt lat="43.569175" lon="12.4358283"><ele>461.0</ele><time>2026-04-06T08:30:09.004Z</time></trkpt><trkpt lat="43.5690867" lon="12.43563"><ele>462.3333333333333</ele><time>2026-04-06T08:30:10.004Z</time></trkpt><trkpt lat="43.568975" lon="12.4354617"><ele>463.66666666666663</ele><time>2026-04-06T08:30:11.004Z</time></trkpt><trkpt lat="43.5688467" lon="12.43533"><ele>465.0</ele><time>2026-04-06T08:30:12.004Z</time></trkpt><trkpt lat="43.5686967" lon="12.4352233"><ele>463.0</ele><time>2026-04-06T08:30:13.004Z</time></trkpt><trkpt lat="43.56853" lon="12.4351183"><ele>461.0</ele><time>2026-04-06T08:30:14.004Z</time></trkpt><trkpt lat="43.5683733" lon="12.4350233"><ele>459.0</ele><time>2026-04-06T08:30:15.004Z</time></trkpt><trkpt lat="43.5682117" lon="12.4349233"><ele>459.0</ele><time>2026-04-06T08:30:16.004Z</time></trkpt><trkpt lat="43.5680417" lon="12.43482"><ele>459.0</ele><time>2026-04-06T08:30:17.004Z</time></trkpt><trkpt lat="43.56786" lon="12.434705"><ele>459.0</ele><time>2026-04-06T08:30:18.004Z</time></trkpt><trkpt lat="43.5676667" lon="12.4345867"><ele>458.66666666666663</ele><time>2026-04-06T08:30:19.004Z</time></trkpt><trkpt lat="43.5674683" lon="12.4344567"><ele>458.3333333333333</ele><time>2026-04-06T08:30:20.004Z</time></trkpt><trkpt lat="43.5672867" lon="12.4343333"><ele>458.0</ele><time>2026-04-06T08:30:21.004Z</time></trkpt><trkpt lat="43.56711" lon="12.4342117"><ele>459.0</ele><time>2026-04-06T08:30:22.004Z</time></trkpt><trkpt lat="43.56695" lon="12.43408"><ele>460.0</ele><time>2026-04-06T08:30:23.004Z</time></trkpt><trkpt lat="43.566795" lon="12.433935"><ele>461.0</ele><time>2026-04-06T08:30:24.004Z</time></trkpt><trkpt lat="43.5666467" lon="12.4337717"><ele>461.0</ele><time>2026-04-06T08:30:25.004Z</time></trkpt><trkpt lat="43.5665033" lon="12.4336"><ele>461.0</ele><time>2026-04-06T08:30:26.004Z</time></trkpt><trkpt lat="43.566365" lon="12.433415"><ele>461.0</ele><time>2026-04-06T08:30:27.004Z</time></trkpt><trkpt lat="43.5662267" lon="12.4332283"><ele>462.0</ele><time>2026-04-06T08:30:28.004Z</time></trkpt><trkpt lat="43.56609" lon="12.4330417"><ele>463.0</ele><time>2026-04-06T08:30:29.004Z</time></trkpt><trkpt lat="43.5659567" lon="12.4328467"><ele>464.0</ele><time>2026-04-06T08:30:30.004Z</time></trkpt><trkpt lat="43.5658267" lon="12.4326567"><ele>464.0</ele><time>2026-04-06T08:30:31.004Z</time></trkpt><trkpt lat="43.565695" lon="12.43245"><ele>464.0</ele><time>2026-04-06T08:30:32.004Z</time></trkpt><trkpt lat="43.5655683" lon="12.4322433"><ele>464.0</ele><time>2026-04-06T08:30:33.004Z</time></trkpt><trkpt lat="43.5654383" lon="12.4320467"><ele>464.3333333333333</ele><time>2026-04-06T08:30:34.004Z</time></trkpt><trkpt lat="43.5653183" lon="12.4318583"><ele>464.66666666666663</ele><time>2026-04-06T08:30:35.004Z</time></trkpt><trkpt lat="43.565205" lon="12.4316817"><ele>465.0</ele><time>2026-04-06T08:30:36.004Z</time></trkpt><trkpt lat="43.5650967" lon="12.4315117"><ele>465.0</ele><time>2026-04-06T08:30:37.004Z</time></trkpt><trkpt lat="43.5649967" lon="12.431345"><ele>465.0</ele><time>2026-04-06T08:30:38.004Z</time></trkpt><trkpt lat="43.5648983" lon="12.4311717"><ele>465.0</ele><time>2026-04-06T08:30:39.004Z</time></trkpt><trkpt lat="43.564815" lon="12.4309967"><ele>467.66666666666663</ele><time>2026-04-06T08:30:40.004Z</time></trkpt><trkpt lat="43.564755" lon="12.4307917"><ele>470.3333333333333</ele><time>2026-04-06T08:30:41.004Z</time></trkpt><trkpt lat="43.56472" lon="12.4305683"><ele>473.0</ele><time>2026-04-06T08:30:42.004Z</time></trkpt><trkpt lat="43.56467" lon="12.4303467"><ele>472.0</ele><time>2026-04-06T08:30:43.003Z</time></trkpt><trkpt lat="43.5646117" lon="12.4301267"><ele>471.0</ele><time>2026-04-06T08:30:44.004Z</time></trkpt><trkpt lat="43.564535" lon="12.429925"><ele>470.0</ele><time>2026-04-06T08:30:45.004Z</time></trkpt><trkpt lat="43.5644583" lon="12.4297383"><ele>473.66666666666663</ele><time>2026-04-06T08:30:46.004Z</time></trkpt><trkpt lat="43.564365" lon="12.4295483"><ele>477.33333333333337</ele><time>2026-04-06T08:30:47.004Z</time></trkpt><trkpt lat="43.5642633" lon="12.4293683"><ele>481.0</ele><time>2026-04-06T08:30:48.004Z</time></trkpt><trkpt lat="43.5641583" lon="12.4292"><ele>481.0</ele><time>2026-04-06T08:30:49.004Z</time></trkpt><trkpt lat="43.5640417" lon="12.42904"><ele>481.0</ele><time>2026-04-06T08:30:50.004Z</time></trkpt><trkpt lat="43.56391" lon="12.4288833"><ele>481.0</ele><time>2026-04-06T08:30:51.004Z</time></trkpt><trkpt lat="43.5637717" lon="12.4287417"><ele>484.33333333333337</ele><time>2026-04-06T08:30:52.004Z</time></trkpt><trkpt lat="43.5636233" lon="12.42863"><ele>487.66666666666663</ele><time>2026-04-06T08:30:53.004Z</time></trkpt><trkpt lat="43.5634633" lon="12.4285417"><ele>491.0</ele><time>2026-04-06T08:30:54.004Z</time></trkpt><trkpt lat="43.5632883" lon="12.42847"><ele>491.0</ele><time>2026-04-06T08:30:55.004Z</time></trkpt><trkpt lat="43.563105" lon="12.4284217"><ele>491.0</ele><time>2026-04-06T08:30:56.004Z</time></trkpt><trkpt lat="43.56293" lon="12.42837"><ele>491.0</ele><time>2026-04-06T08:30:57.004Z</time></trkpt><trkpt lat="43.5627483" lon="12.4283067"><ele>486.0</ele><time>2026-04-06T08:30:58.004Z</time></trkpt><trkpt lat="43.5625633" lon="12.4282533"><ele>481.0</ele><time>2026-04-06T08:30:59.004Z</time></trkpt><trkpt lat="43.5623733" lon="12.4281817"><ele>476.0</ele><time>2026-04-06T08:31:00.004Z</time></trkpt><trkpt lat="43.562185" lon="12.4281267"><ele>474.0</ele><time>2026-04-06T08:31:01.004Z</time></trkpt><trkpt lat="43.5619983" lon="12.4280833"><ele>472.0</ele><time>2026-04-06T08:31:02.004Z</time></trkpt><trkpt lat="43.5618233" lon="12.4280467"><ele>470.0</ele><time>2026-04-06T08:31:03.004Z</time></trkpt><trkpt lat="43.561665" lon="12.4280017"><ele>473.25</ele><time>2026-04-06T08:31:04.004Z</time></trkpt><trkpt lat="43.561515" lon="12.427965"><ele>476.5</ele><time>2026-04-06T08:31:05.004Z</time></trkpt><trkpt lat="43.5613667" lon="12.427935"><ele>479.75</ele><time>2026-04-06T08:31:06.004Z</time></trkpt><trkpt lat="43.5612317" lon="12.4279033"><ele>483.0</ele><time>2026-04-06T08:31:07.004Z</time></trkpt><trkpt lat="43.5611" lon="12.4278717"><ele>483.0</ele><time>2026-04-06T08:31:08.004Z</time></trkpt><trkpt lat="43.56098" lon="12.4278383"><ele>483.0</ele><time>2026-04-06T08:31:09.004Z</time></trkpt><trkpt lat="43.5608667" lon="12.4278017"><ele>483.0</ele><time>2026-04-06T08:31:10.004Z</time></trkpt><trkpt lat="43.5607483" lon="12.4277617"><ele>483.0</ele><time>2026-04-06T08:31:11.004Z</time></trkpt><trkpt lat="43.5606317" lon="12.42771"><ele>483.0</ele><time>2026-04-06T08:31:12.004Z</time></trkpt><trkpt lat="43.5605167" lon="12.427645"><ele>483.0</ele><time>2026-04-06T08:31:13.004Z</time></trkpt><trkpt lat="43.5604117" lon="12.4275667"><ele>483.0</ele><time>2026-04-06T08:31:14.004Z</time></trkpt><trkpt lat="43.5603067" lon="12.4274833"><ele>483.0</ele><time>2026-04-06T08:31:15.004Z</time></trkpt><trkpt lat="43.5602033" lon="12.427395"><ele>484.0</ele><time>2026-04-06T08:31:16.004Z</time></trkpt><trkpt lat="43.5600967" lon="12.4272867"><ele>485.0</ele><time>2026-04-06T08:31:17.004Z</time></trkpt><trkpt lat="43.5599917" lon="12.4271683"><ele>486.0</ele><time>2026-04-06T08:31:18.004Z</time></trkpt><trkpt lat="43.5598867" lon="12.4270533"><ele>487.0</ele><time>2026-04-06T08:31:19.004Z</time></trkpt><trkpt lat="43.5597933" lon="12.4269333"><ele>487.0</ele><time>2026-04-06T08:31:20.004Z</time></trkpt><trkpt lat="43.5597083" lon="12.4267967"><ele>487.0</ele><time>2026-04-06T08:31:21.004Z</time></trkpt><trkpt lat="43.559635" lon="12.426645"><ele>487.0</ele><time>2026-04-06T08:31:22.004Z</time></trkpt><trkpt lat="43.559575" lon="12.4264733"><ele>487.0</ele><time>2026-04-06T08:31:23.004Z</time></trkpt><trkpt lat="43.55953" lon="12.4263033"><ele>483.5</ele><time>2026-04-06T08:31:24.004Z</time></trkpt><trkpt lat="43.5594983" lon="12.4261167"><ele>480.0</ele><time>2026-04-06T08:31:25.004Z</time></trkpt><trkpt lat="43.55947" lon="12.42593"><ele>476.5</ele><time>2026-04-06T08:31:26.004Z</time></trkpt><trkpt lat="43.5594483" lon="12.425735"><ele>473.0</ele><time>2026-04-06T08:31:27.004Z</time></trkpt><trkpt lat="43.5594233" lon="12.4255517"><ele>473.75</ele><time>2026-04-06T08:31:28.004Z</time></trkpt><trkpt lat="43.5593917" lon="12.4253633"><ele>474.5</ele><time>2026-04-06T08:31:29.004Z</time></trkpt><trkpt lat="43.55936" lon="12.4251767"><ele>475.25</ele><time>2026-04-06T08:31:30.004Z</time></trkpt><trkpt lat="43.5593317" lon="12.424995"><ele>476.0</ele><time>2026-04-06T08:31:31.004Z</time></trkpt><trkpt lat="43.5593017" lon="12.4248067"><ele>477.75</ele><time>2026-04-06T08:31:32.004Z</time></trkpt><trkpt lat="43.55927" lon="12.424625"><ele>479.5</ele><time>2026-04-06T08:31:33.004Z</time></trkpt><trkpt lat="43.5592383" lon="12.4244467"><ele>481.25</ele><time>2026-04-06T08:31:34.004Z</time></trkpt><trkpt lat="43.559205" lon="12.4242783"><ele>483.0</ele><time>2026-04-06T08:31:35.004Z</time></trkpt><trkpt lat="43.5591817" lon="12.4241217"><ele>483.0</ele><time>2026-04-06T08:31:36.004Z</time></trkpt><trkpt lat="43.5591683" lon="12.4239683"><ele>483.0</ele><time>2026-04-06T08:31:37.004Z</time></trkpt><trkpt lat="43.5591683" lon="12.4237967"><ele>483.0</ele><time>2026-04-06T08:31:38.004Z</time></trkpt><trkpt lat="43.5591783" lon="12.4236117"><ele>483.0</ele><time>2026-04-06T08:31:39.004Z</time></trkpt><trkpt lat="43.55919" lon="12.423425"><ele>483.25</ele><time>2026-04-06T08:31:40.004Z</time></trkpt><trkpt lat="43.5592" lon="12.4232383"><ele>483.5</ele><time>2026-04-06T08:31:41.004Z</time></trkpt><trkpt lat="43.559215" lon="12.4230483"><ele>483.75</ele><time>2026-04-06T08:31:42.004Z</time></trkpt><trkpt lat="43.5592317" lon="12.4228517"><ele>484.0</ele><time>2026-04-06T08:31:43.004Z</time></trkpt><trkpt lat="43.559255" lon="12.4226483"><ele>483.0</ele><time>2026-04-06T08:31:44.004Z</time></trkpt><trkpt lat="43.5592667" lon="12.4224383"><ele>482.0</ele><time>2026-04-06T08:31:45.004Z</time></trkpt><trkpt lat="43.559275" lon="12.4222283"><ele>481.0</ele><time>2026-04-06T08:31:46.004Z</time></trkpt><trkpt lat="43.55927" lon="12.42202"><ele>480.25</ele><time>2026-04-06T08:31:47.004Z</time></trkpt><trkpt lat="43.5592533" lon="12.42182"><ele>479.5</ele><time>2026-04-06T08:31:48.004Z</time></trkpt><trkpt lat="43.5592233" lon="12.421625"><ele>478.75</ele><time>2026-04-06T08:31:49.004Z</time></trkpt><trkpt lat="43.5591983" lon="12.421425"><ele>478.0</ele><time>2026-04-06T08:31:50.004Z</time></trkpt><trkpt lat="43.5591767" lon="12.421235"><ele>477.25</ele><time>2026-04-06T08:31:51.004Z</time></trkpt><trkpt lat="43.5591517" lon="12.4210583"><ele>476.5</ele><time>2026-04-06T08:31:52.004Z</time></trkpt><trkpt lat="43.55914" lon="12.4208833"><ele>475.75</ele><time>2026-04-06T08:31:53.004Z</time></trkpt><trkpt lat="43.559125" lon="12.4207117"><ele>475.0</ele><time>2026-04-06T08:31:54.004Z</time></trkpt><trkpt lat="43.5591033" lon="12.42055"><ele>475.75</ele><time>2026-04-06T08:31:55.004Z</time></trkpt><trkpt lat="43.5591033" lon="12.4203917"><ele>476.5</ele><time>2026-04-06T08:31:56.004Z</time></trkpt><trkpt lat="43.5590867" lon="12.4202367"><ele>477.25</ele><time>2026-04-06T08:31:57.004Z</time></trkpt><trkpt lat="43.5590683" lon="12.4200833"><ele>478.0</ele><time>2026-04-06T08:31:58.004Z</time></trkpt><trkpt lat="43.5590517" lon="12.4199183"><ele>478.0</ele><time>2026-04-06T08:31:59.004Z</time></trkpt><trkpt lat="43.5590417" lon="12.4197617"><ele>477.99999999999994</ele><time>2026-04-06T08:32:00.004Z</time></trkpt><trkpt lat="43.55903" lon="12.4196167"><ele>477.99999999999994</ele><time>2026-04-06T08:32:01.004Z</time></trkpt><trkpt lat="43.5590283" lon="12.4194883"><ele>478.0</ele><time>2026-04-06T08:32:02.004Z</time></trkpt><trkpt lat="43.559025" lon="12.4193667"><ele>478.0</ele><time>2026-04-06T08:32:03.004Z</time></trkpt><trkpt lat="43.55902" lon="12.419245"><ele>478.4</ele><time>2026-04-06T08:32:04.004Z</time></trkpt><trkpt lat="43.5590183" lon="12.4191383"><ele>478.79999999999995</ele><time>2026-04-06T08:32:05.004Z</time></trkpt><trkpt lat="43.5590133" lon="12.4190467"><ele>479.2</ele><time>2026-04-06T08:32:06.004Z</time></trkpt><trkpt lat="43.5590067" lon="12.4188733"><ele>479.6</ele><time>2026-04-06T08:32:08.004Z</time></trkpt><trkpt lat="43.5590017" lon="12.4187817"><ele>480.0</ele><time>2026-04-06T08:32:09.004Z</time></trkpt><trkpt lat="43.559015" lon="12.4186233"><ele>480.5</ele><time>2026-04-06T08:32:11.004Z</time></trkpt><trkpt lat="43.5590267" lon="12.41846"><ele>481.0</ele><time>2026-04-06T08:32:13.004Z</time></trkpt><trkpt lat="43.55905" lon="12.418315"><ele>481.5</ele><time>2026-04-06T08:32:15.004Z</time></trkpt><trkpt lat="43.5590733" lon="12.41819"><ele>482.0</ele><time>2026-04-06T08:32:17.004Z</time></trkpt><trkpt lat="43.5591167" lon="12.4180033"><ele>482.25</ele><time>2026-04-06T08:32:19.004Z</time></trkpt><trkpt lat="43.5591567" lon="12.417885"><ele>482.5</ele><time>2026-04-06T08:32:20.004Z</time></trkpt><trkpt lat="43.5592133" lon="12.4177567"><ele>482.75</ele><time>2026-04-06T08:32:21.004Z</time></trkpt><trkpt lat="43.5592883" lon="12.4176283"><ele>483.0</ele><time>2026-04-06T08:32:22.004Z</time></trkpt><trkpt lat="43.5593883" lon="12.4175083"><ele>483.0</ele><time>2026-04-06T08:32:23.004Z</time></trkpt><trkpt lat="43.5594967" lon="12.417395"><ele>483.0</ele><time>2026-04-06T08:32:24.004Z</time></trkpt><trkpt lat="43.559605" lon="12.417275"><ele>483.0</ele><time>2026-04-06T08:32:25.004Z</time></trkpt><trkpt lat="43.5597117" lon="12.4171467"><ele>483.0</ele><time>2026-04-06T08:32:26.004Z</time></trkpt><trkpt lat="43.5598" lon="12.4170133"><ele>484.75</ele><time>2026-04-06T08:32:27.004Z</time></trkpt><trkpt lat="43.5598783" lon="12.4168867"><ele>486.5</ele><time>2026-04-06T08:32:28.004Z</time></trkpt><trkpt lat="43.55994" lon="12.4167517"><ele>488.25</ele><time>2026-04-06T08:32:29.004Z</time></trkpt><trkpt lat="43.5599717" lon="12.4166033"><ele>490.0</ele><time>2026-04-06T08:32:30.004Z</time></trkpt><trkpt lat="43.5599883" lon="12.4164433"><ele>491.25</ele><time>2026-04-06T08:32:31.004Z</time></trkpt><trkpt lat="43.5599617" lon="12.4162783"><ele>492.5</ele><time>2026-04-06T08:32:32.004Z</time></trkpt><trkpt lat="43.5599083" lon="12.416115"><ele>493.75</ele><time>2026-04-06T08:32:33.004Z</time></trkpt><trkpt lat="43.5598383" lon="12.4159483"><ele>495.0</ele><time>2026-04-06T08:32:34.004Z</time></trkpt><trkpt lat="43.5597583" lon="12.41577"><ele>495.0</ele><time>2026-04-06T08:32:35.004Z</time></trkpt><trkpt lat="43.5596683" lon="12.415595"><ele>495.0</ele><time>2026-04-06T08:32:36.004Z</time></trkpt><trkpt lat="43.5596017" lon="12.4154167"><ele>495.0</ele><time>2026-04-06T08:32:37.004Z</time></trkpt><trkpt lat="43.559555" lon="12.4152417"><ele>495.0</ele><time>2026-04-06T08:32:38.004Z</time></trkpt><trkpt lat="43.55954" lon="12.4150383"><ele>496.0</ele><time>2026-04-06T08:32:39.004Z</time></trkpt><trkpt lat="43.55955" lon="12.41482"><ele>497.0</ele><time>2026-04-06T08:32:40.004Z</time></trkpt><trkpt lat="43.5595667" lon="12.4145933"><ele>498.0</ele><time>2026-04-06T08:32:41.004Z</time></trkpt><trkpt lat="43.5595817" lon="12.4143733"><ele>500.0</ele><time>2026-04-06T08:32:42.004Z</time></trkpt><trkpt lat="43.5595883" lon="12.414185"><ele>502.0</ele><time>2026-04-06T08:32:43.004Z</time></trkpt><trkpt lat="43.5595767" lon="12.4140217"><ele>504.0</ele><time>2026-04-06T08:32:44.004Z</time></trkpt><trkpt lat="43.55955" lon="12.4138733"><ele>506.0</ele><time>2026-04-06T08:32:45.004Z</time></trkpt><trkpt lat="43.55951" lon="12.4137433"><ele>502.66666666666663</ele><time>2026-04-06T08:32:46.004Z</time></trkpt><trkpt lat="43.5594483" lon="12.4136367"><ele>499.3333333333333</ele><time>2026-04-06T08:32:47.003Z</time></trkpt><trkpt lat="43.5593917" lon="12.41357"><ele>496.0</ele><time>2026-04-06T08:32:48.004Z</time></trkpt><trkpt lat="43.5593" lon="12.4134967"><ele>492.66666666666663</ele><time>2026-04-06T08:32:50.004Z</time></trkpt><trkpt lat="43.5592533" lon="12.4134317"><ele>489.3333333333333</ele><time>2026-04-06T08:32:52.004Z</time></trkpt><trkpt lat="43.559245" lon="12.4133317"><ele>486.0</ele><time>2026-04-06T08:36:55.004Z</time></trkpt><trkpt lat="43.5592267" lon="12.413205"><ele>486.0</ele><time>2026-04-06T08:36:57.004Z</time></trkpt><trkpt lat="43.5592383" lon="12.4131117"><ele>486.0</ele><time>2026-04-06T08:37:00.004Z</time></trkpt><trkpt lat="43.559255" lon="12.4129933"><ele>486.0</ele><time>2026-04-06T08:37:52.004Z</time></trkpt><trkpt lat="43.5592567" lon="12.412905"><ele>486.0</ele><time>2026-04-06T08:37:53.004Z</time></trkpt><trkpt lat="43.55924" lon="12.41281"><ele>486.0</ele><time>2026-04-06T08:37:54.004Z</time></trkpt><trkpt lat="43.5592133" lon="12.4126883"><ele>486.0</ele><time>2026-04-06T08:37:55.004Z</time></trkpt><trkpt lat="43.5591767" lon="12.4125467"><ele>487.75</ele><time>2026-04-06T08:37:56.004Z</time></trkpt><trkpt lat="43.5591267" lon="12.4123733"><ele>489.5</ele><time>2026-04-06T08:37:57.004Z</time></trkpt><trkpt lat="43.5590883" lon="12.4122117"><ele>491.25</ele><time>2026-04-06T08:37:58.004Z</time></trkpt><trkpt lat="43.5590383" lon="12.4120433"><ele>493.0</ele><time>2026-04-06T08:37:59.004Z</time></trkpt><trkpt lat="43.559005" lon="12.4118817"><ele>495.75</ele><time>2026-04-06T08:38:00.004Z</time></trkpt><trkpt lat="43.5589633" lon="12.4117117"><ele>498.5</ele><time>2026-04-06T08:38:01.004Z</time></trkpt><trkpt lat="43.55892" lon="12.4115367"><ele>501.25</ele><time>2026-04-06T08:38:02.004Z</time></trkpt><trkpt lat="43.5588683" lon="12.4113567"><ele>504.0</ele><time>2026-04-06T08:38:03.004Z</time></trkpt><trkpt lat="43.5588167" lon="12.411175"><ele>506.5</ele><time>2026-04-06T08:38:04.004Z</time></trkpt><trkpt lat="43.5587633" lon="12.411005"><ele>509.0</ele><time>2026-04-06T08:38:05.004Z</time></trkpt><trkpt lat="43.55868" lon="12.4108433"><ele>511.5</ele><time>2026-04-06T08:38:06.004Z</time></trkpt><trkpt lat="43.558575" lon="12.4106883"><ele>514.0</ele><time>2026-04-06T08:38:07.004Z</time></trkpt><trkpt lat="43.5584633" lon="12.410545"><ele>505.6666666666667</ele><time>2026-04-06T08:38:08.004Z</time></trkpt><trkpt lat="43.5583383" lon="12.4104117"><ele>497.33333333333337</ele><time>2026-04-06T08:38:09.004Z</time></trkpt><trkpt lat="43.5582133" lon="12.4102867"><ele>489.0</ele><time>2026-04-06T08:38:10.004Z</time></trkpt><trkpt lat="43.558085" lon="12.410155"><ele>489.0</ele><time>2026-04-06T08:38:11.004Z</time></trkpt><trkpt lat="43.55795" lon="12.4100283"><ele>489.0</ele><time>2026-04-06T08:38:12.004Z</time></trkpt><trkpt lat="43.5578167" lon="12.409895"><ele>489.0</ele><time>2026-04-06T08:38:13.004Z</time></trkpt><trkpt lat="43.55768" lon="12.4097633"><ele>490.33333333333337</ele><time>2026-04-06T08:38:14.004Z</time></trkpt><trkpt lat="43.5575433" lon="12.4096333"><ele>491.6666666666667</ele><time>2026-04-06T08:38:15.004Z</time></trkpt><trkpt lat="43.557405" lon="12.409505"><ele>493.0</ele><time>2026-04-06T08:38:16.004Z</time></trkpt><trkpt lat="43.5572683" lon="12.4093717"><ele>493.0</ele><time>2026-04-06T08:38:17.004Z</time></trkpt><trkpt lat="43.557125" lon="12.4092433"><ele>493.0</ele><time>2026-04-06T08:38:18.004Z</time></trkpt><trkpt lat="43.5569767" lon="12.4091117"><ele>493.0</ele><time>2026-04-06T08:38:19.004Z</time></trkpt><trkpt lat="43.5568317" lon="12.40898"><ele>493.0</ele><time>2026-04-06T08:38:20.004Z</time></trkpt><trkpt lat="43.5566883" lon="12.4088467"><ele>493.0</ele><time>2026-04-06T08:38:21.004Z</time></trkpt><trkpt lat="43.5565517" lon="12.4087"><ele>493.0</ele><time>2026-04-06T08:38:22.004Z</time></trkpt><trkpt lat="43.55642" lon="12.4085467"><ele>493.0</ele><time>2026-04-06T08:38:23.004Z</time></trkpt><trkpt lat="43.556285" lon="12.4083933"><ele>493.0</ele><time>2026-04-06T08:38:24.004Z</time></trkpt><trkpt lat="43.5561533" lon="12.408235"><ele>493.0</ele><time>2026-04-06T08:38:25.004Z</time></trkpt><trkpt lat="43.556015" lon="12.4080817"><ele>494.33333333333337</ele><time>2026-04-06T08:38:26.004Z</time></trkpt><trkpt lat="43.5558883" lon="12.4079017"><ele>495.66666666666663</ele><time>2026-04-06T08:38:27.004Z</time></trkpt><trkpt lat="43.5557633" lon="12.4077083"><ele>497.0</ele><time>2026-04-06T08:38:28.004Z</time></trkpt><trkpt lat="43.5556433" lon="12.407515"><ele>497.0</ele><time>2026-04-06T08:38:29.004Z</time></trkpt><trkpt lat="43.5555267" lon="12.4073233"><ele>497.0</ele><time>2026-04-06T08:38:30.004Z</time></trkpt><trkpt lat="43.5554117" lon="12.4071367"><ele>497.0</ele><time>2026-04-06T08:38:31.004Z</time></trkpt><trkpt lat="43.5552967" lon="12.406965"><ele>496.66666666666663</ele><time>2026-04-06T08:38:32.004Z</time></trkpt><trkpt lat="43.555195" lon="12.40679"><ele>496.33333333333337</ele><time>2026-04-06T08:38:33.004Z</time></trkpt><trkpt lat="43.5551" lon="12.4066017"><ele>496.0</ele><time>2026-04-06T08:38:34.004Z</time></trkpt><trkpt lat="43.555025" lon="12.406405"><ele>499.0</ele><time>2026-04-06T08:38:35.004Z</time></trkpt><trkpt lat="43.5549533" lon="12.4061867"><ele>502.0</ele><time>2026-04-06T08:38:36.004Z</time></trkpt><trkpt lat="43.55487" lon="12.40598"><ele>505.0</ele><time>2026-04-06T08:38:37.004Z</time></trkpt><trkpt lat="43.5547667" lon="12.4057933"><ele>505.0</ele><time>2026-04-06T08:38:38.004Z</time></trkpt><trkpt lat="43.554645" lon="12.405625"><ele>505.0</ele><time>2026-04-06T08:38:39.004Z</time></trkpt><trkpt lat="43.554515" lon="12.405455"><ele>505.0</ele><time>2026-04-06T08:38:40.004Z</time></trkpt><trkpt lat="43.554385" lon="12.4052833"><ele>503.6666666666667</ele><time>2026-04-06T08:38:41.004Z</time></trkpt><trkpt lat="43.5542517" lon="12.4051067"><ele>502.33333333333337</ele><time>2026-04-06T08:38:42.004Z</time></trkpt><trkpt lat="43.5541267" lon="12.404935"><ele>501.0</ele><time>2026-04-06T08:38:43.004Z</time></trkpt><trkpt lat="43.5540033" lon="12.4047817"><ele>505.66666666666663</ele><time>2026-04-06T08:38:44.004Z</time></trkpt><trkpt lat="43.5538933" lon="12.4046217"><ele>510.3333333333333</ele><time>2026-04-06T08:38:45.004Z</time></trkpt><trkpt lat="43.5537983" lon="12.4044433"><ele>515.0</ele><time>2026-04-06T08:38:46.004Z</time></trkpt><trkpt lat="43.55371" lon="12.4042483"><ele>511.0</ele><time>2026-04-06T08:38:47.004Z</time></trkpt><trkpt lat="43.5536467" lon="12.4040283"><ele>507.0</ele><time>2026-04-06T08:38:48.004Z</time></trkpt><trkpt lat="43.5535883" lon="12.4038017"><ele>503.0</ele><time>2026-04-06T08:38:49.004Z</time></trkpt><trkpt lat="43.5535283" lon="12.40357"><ele>503.0</ele><time>2026-04-06T08:38:50.004Z</time></trkpt><trkpt lat="43.553475" lon="12.4033383"><ele>503.0</ele><time>2026-04-06T08:38:51.004Z</time></trkpt><trkpt lat="43.5534183" lon="12.40311"><ele>503.0</ele><time>2026-04-06T08:38:52.004Z</time></trkpt><trkpt lat="43.553355" lon="12.4028917"><ele>507.3333333333333</ele><time>2026-04-06T08:38:53.004Z</time></trkpt><trkpt lat="43.553285" lon="12.4026783"><ele>511.66666666666663</ele><time>2026-04-06T08:38:54.004Z</time></trkpt><trkpt lat="43.5531767" lon="12.4024917"><ele>516.0</ele><time>2026-04-06T08:38:55.004Z</time></trkpt><trkpt lat="43.55304" lon="12.4023433"><ele>516.0</ele><time>2026-04-06T08:38:56.004Z</time></trkpt><trkpt lat="43.55291" lon="12.402205"><ele>516.0</ele><time>2026-04-06T08:38:57.004Z</time></trkpt><trkpt lat="43.5527583" lon="12.40209"><ele>516.0</ele><time>2026-04-06T08:38:58.004Z</time></trkpt><trkpt lat="43.5526067" lon="12.401985"><ele>516.0</ele><time>2026-04-06T08:38:59.004Z</time></trkpt><trkpt lat="43.552455" lon="12.40187"><ele>516.0</ele><time>2026-04-06T08:39:00.004Z</time></trkpt><trkpt lat="43.5523033" lon="12.40175"><ele>516.0</ele><time>2026-04-06T08:39:01.004Z</time></trkpt><trkpt lat="43.5521567" lon="12.4016133"><ele>513.3333333333334</ele><time>2026-04-06T08:39:02.004Z</time></trkpt><trkpt lat="43.5520317" lon="12.4014533"><ele>510.6666666666667</ele><time>2026-04-06T08:39:03.004Z</time></trkpt><trkpt lat="43.551915" lon="12.40128"><ele>508.0</ele><time>2026-04-06T08:39:04.004Z</time></trkpt><trkpt lat="43.5518033" lon="12.4010883"><ele>508.0</ele><time>2026-04-06T08:39:05.004Z</time></trkpt><trkpt lat="43.551695" lon="12.400895"><ele>508.0</ele><time>2026-04-06T08:39:06.004Z</time></trkpt><trkpt lat="43.55159" lon="12.40069"><ele>508.0</ele><time>2026-04-06T08:39:07.004Z</time></trkpt><trkpt lat="43.5514933" lon="12.40048"><ele>511.33333333333337</ele><time>2026-04-06T08:39:08.004Z</time></trkpt><trkpt lat="43.5514033" lon="12.40027"><ele>514.6666666666666</ele><time>2026-04-06T08:39:09.004Z</time></trkpt><trkpt lat="43.5513283" lon="12.40006"><ele>518.0</ele><time>2026-04-06T08:39:10.004Z</time></trkpt><trkpt lat="43.55127" lon="12.39984"><ele>517.3333333333333</ele><time>2026-04-06T08:39:11.004Z</time></trkpt><trkpt lat="43.5512317" lon="12.3996167"><ele>516.6666666666666</ele><time>2026-04-06T08:39:12.004Z</time></trkpt><trkpt lat="43.551215" lon="12.3993883"><ele>516.0</ele><time>2026-04-06T08:39:13.004Z</time></trkpt><trkpt lat="43.55121" lon="12.3991467"><ele>511.66666666666663</ele><time>2026-04-06T08:39:14.004Z</time></trkpt><trkpt lat="43.5511933" lon="12.3989133"><ele>507.3333333333333</ele><time>2026-04-06T08:39:15.004Z</time></trkpt><trkpt lat="43.551175" lon="12.398675"><ele>503.0</ele><time>2026-04-06T08:39:16.004Z</time></trkpt><trkpt lat="43.551165" lon="12.39843"><ele>507.5</ele><time>2026-04-06T08:39:17.004Z</time></trkpt><trkpt lat="43.5511017" lon="12.3979617"><ele>512.0</ele><time>2026-04-06T08:39:19.004Z</time></trkpt><trkpt lat="43.551055" lon="12.3977333"><ele>512.0</ele><time>2026-04-06T08:39:20.004Z</time></trkpt><trkpt lat="43.551" lon="12.3975183"><ele>512.0</ele><time>2026-04-06T08:39:21.004Z</time></trkpt><trkpt lat="43.5509417" lon="12.3972983"><ele>512.0</ele><time>2026-04-06T08:39:22.004Z</time></trkpt><trkpt lat="43.5508817" lon="12.397085"><ele>516.0</ele><time>2026-04-06T08:39:23.004Z</time></trkpt><trkpt lat="43.5508267" lon="12.39687"><ele>520.0</ele><time>2026-04-06T08:39:24.004Z</time></trkpt><trkpt lat="43.5507767" lon="12.3966567"><ele>524.0</ele><time>2026-04-06T08:39:25.004Z</time></trkpt><trkpt lat="43.5507283" lon="12.396445"><ele>527.3333333333333</ele><time>2026-04-06T08:39:26.003Z</time></trkpt><trkpt lat="43.550685" lon="12.3962317"><ele>530.6666666666666</ele><time>2026-04-06T08:39:27.004Z</time></trkpt><trkpt lat="43.5506517" lon="12.3960033"><ele>534.0</ele><time>2026-04-06T08:39:28.004Z</time></trkpt><trkpt lat="43.5506217" lon="12.39578"><ele>534.0</ele><time>2026-04-06T08:39:29.004Z</time></trkpt><trkpt lat="43.5505833" lon="12.395555"><ele>534.0</ele><time>2026-04-06T08:39:30.004Z</time></trkpt><trkpt lat="43.5505333" lon="12.39533"><ele>534.0</ele><time>2026-04-06T08:39:31.004Z</time></trkpt><trkpt lat="43.55047" lon="12.3951117"><ele>531.6666666666666</ele><time>2026-04-06T08:39:32.004Z</time></trkpt><trkpt lat="43.5503967" lon="12.39489"><ele>529.3333333333333</ele><time>2026-04-06T08:39:33.004Z</time></trkpt><trkpt lat="43.550325" lon="12.3946767"><ele>527.0</ele><time>2026-04-06T08:39:34.004Z</time></trkpt><trkpt lat="43.5502567" lon="12.3944617"><ele>527.0</ele><time>2026-04-06T08:39:35.004Z</time></trkpt><trkpt lat="43.5501933" lon="12.39427"><ele>527.0</ele><time>2026-04-06T08:39:36.004Z</time></trkpt><trkpt lat="43.5501483" lon="12.3940833"><ele>527.0</ele><time>2026-04-06T08:39:37.004Z</time></trkpt><trkpt lat="43.55012" lon="12.393875"><ele>527.0</ele><time>2026-04-06T08:39:38.004Z</time></trkpt><trkpt lat="43.5501083" lon="12.3936683"><ele>526.0</ele><time>2026-04-06T08:39:39.004Z</time></trkpt><trkpt lat="43.550115" lon="12.3934617"><ele>525.0</ele><time>2026-04-06T08:39:40.004Z</time></trkpt><trkpt lat="43.5501383" lon="12.393255"><ele>524.0</ele><time>2026-04-06T08:39:41.004Z</time></trkpt><trkpt lat="43.5501917" lon="12.3930367"><ele>522.0</ele><time>2026-04-06T08:39:42.004Z</time></trkpt><trkpt lat="43.5502717" lon="12.3928283"><ele>520.0</ele><time>2026-04-06T08:39:43.004Z</time></trkpt><trkpt lat="43.550375" lon="12.3926383"><ele>518.0</ele><time>2026-04-06T08:39:44.004Z</time></trkpt><trkpt lat="43.5504867" lon="12.39246"><ele>520.6666666666666</ele><time>2026-04-06T08:39:45.004Z</time></trkpt><trkpt lat="43.5506017" lon="12.3922917"><ele>523.3333333333334</ele><time>2026-04-06T08:39:46.004Z</time></trkpt><trkpt lat="43.5507117" lon="12.3921233"><ele>526.0</ele><time>2026-04-06T08:39:47.004Z</time></trkpt><trkpt lat="43.5508267" lon="12.3919667"><ele>526.0</ele><time>2026-04-06T08:39:48.004Z</time></trkpt><trkpt lat="43.5509467" lon="12.3918133"><ele>526.0</ele><time>2026-04-06T08:39:49.004Z</time></trkpt><trkpt lat="43.5510533" lon="12.3916433"><ele>526.0</ele><time>2026-04-06T08:39:50.004Z</time></trkpt><trkpt lat="43.55116" lon="12.3914783"><ele>529.6666666666667</ele><time>2026-04-06T08:39:51.004Z</time></trkpt><trkpt lat="43.551265" lon="12.39133"><ele>533.3333333333334</ele><time>2026-04-06T08:39:52.004Z</time></trkpt><trkpt lat="43.5513767" lon="12.3911883"><ele>537.0</ele><time>2026-04-06T08:39:53.004Z</time></trkpt><trkpt lat="43.5515033" lon="12.3910733"><ele>537.0</ele><time>2026-04-06T08:39:54.004Z</time></trkpt><trkpt lat="43.5516217" lon="12.3909583"><ele>537.0</ele><time>2026-04-06T08:39:55.004Z</time></trkpt><trkpt lat="43.5517317" lon="12.3908167"><ele>537.0</ele><time>2026-04-06T08:39:56.004Z</time></trkpt><trkpt lat="43.5518267" lon="12.3906617"><ele>537.0</ele><time>2026-04-06T08:39:57.004Z</time></trkpt><trkpt lat="43.551915" lon="12.3905083"><ele>535.75</ele><time>2026-04-06T08:39:58.004Z</time></trkpt><trkpt lat="43.5519967" lon="12.39034"><ele>534.5</ele><time>2026-04-06T08:39:59.004Z</time></trkpt><trkpt lat="43.5520833" lon="12.3901767"><ele>533.25</ele><time>2026-04-06T08:40:00.004Z</time></trkpt><trkpt lat="43.5521633" lon="12.3900117"><ele>532.0</ele><time>2026-04-06T08:40:01.004Z</time></trkpt><trkpt lat="43.55224" lon="12.3898417"><ele>537.0</ele><time>2026-04-06T08:40:02.003Z</time></trkpt><trkpt lat="43.5522967" lon="12.3896717"><ele>542.0</ele><time>2026-04-06T08:40:03.004Z</time></trkpt><trkpt lat="43.5523467" lon="12.3894917"><ele>547.0</ele><time>2026-04-06T08:40:04.004Z</time></trkpt><trkpt lat="43.552385" lon="12.389315"><ele>552.0</ele><time>2026-04-06T08:40:05.004Z</time></trkpt><trkpt lat="43.5524083" lon="12.3891333"><ele>552.0</ele><time>2026-04-06T08:40:06.004Z</time></trkpt><trkpt lat="43.55241" lon="12.38895"><ele>552.0</ele><time>2026-04-06T08:40:07.004Z</time></trkpt><trkpt lat="43.5523983" lon="12.3887717"><ele>552.0</ele><time>2026-04-06T08:40:08.004Z</time></trkpt><trkpt lat="43.552385" lon="12.3886017"><ele>552.0</ele><time>2026-04-06T08:40:09.004Z</time></trkpt><trkpt lat="43.5523717" lon="12.38843"><ele>552.0</ele><time>2026-04-06T08:40:10.004Z</time></trkpt><trkpt lat="43.5523717" lon="12.3882617"><ele>552.0</ele><time>2026-04-06T08:40:11.004Z</time></trkpt><trkpt lat="43.5523867" lon="12.3880917"><ele>552.0</ele><time>2026-04-06T08:40:12.004Z</time></trkpt><trkpt lat="43.5524067" lon="12.3879217"><ele>552.0</ele><time>2026-04-06T08:40:13.004Z</time></trkpt><trkpt lat="43.5524617" lon="12.3877683"><ele>550.25</ele><time>2026-04-06T08:40:14.004Z</time></trkpt><trkpt lat="43.5525267" lon="12.3876133"><ele>548.5</ele><time>2026-04-06T08:40:15.004Z</time></trkpt><trkpt lat="43.5525983" lon="12.3874567"><ele>546.75</ele><time>2026-04-06T08:40:16.004Z</time></trkpt><trkpt lat="43.552655" lon="12.3872983"><ele>545.0</ele><time>2026-04-06T08:40:17.004Z</time></trkpt><trkpt lat="43.5526967" lon="12.3871217"><ele>542.25</ele><time>2026-04-06T08:40:18.004Z</time></trkpt><trkpt lat="43.5527333" lon="12.3869383"><ele>539.5</ele><time>2026-04-06T08:40:19.004Z</time></trkpt><trkpt lat="43.5527633" lon="12.3867467"><ele>536.75</ele><time>2026-04-06T08:40:20.004Z</time></trkpt><trkpt lat="43.5528" lon="12.3865583"><ele>534.0</ele><time>2026-04-06T08:40:21.004Z</time></trkpt><trkpt lat="43.552835" lon="12.3863683"><ele>532.6666666666666</ele><time>2026-04-06T08:40:22.004Z</time></trkpt><trkpt lat="43.55287" lon="12.3861667"><ele>531.3333333333333</ele><time>2026-04-06T08:40:23.004Z</time></trkpt><trkpt lat="43.552895" lon="12.3859617"><ele>530.0</ele><time>2026-04-06T08:40:24.004Z</time></trkpt><trkpt lat="43.552915" lon="12.3857583"><ele>542.6666666666666</ele><time>2026-04-06T08:40:25.004Z</time></trkpt><trkpt lat="43.5529133" lon="12.3855467"><ele>555.3333333333334</ele><time>2026-04-06T08:40:26.004Z</time></trkpt><trkpt lat="43.5529083" lon="12.3853417"><ele>568.0</ele><time>2026-04-06T08:40:27.004Z</time></trkpt><trkpt lat="43.552905" lon="12.3851333"><ele>568.0</ele><time>2026-04-06T08:40:28.004Z</time></trkpt><trkpt lat="43.5528983" lon="12.3849283"><ele>568.0</ele><time>2026-04-06T08:40:29.004Z</time></trkpt><trkpt lat="43.552885" lon="12.3847317"><ele>568.0</ele><time>2026-04-06T08:40:30.004Z</time></trkpt><trkpt lat="43.5528717" lon="12.3845467"><ele>568.0</ele><time>2026-04-06T08:40:31.004Z</time></trkpt><trkpt lat="43.552865" lon="12.3843667"><ele>559.75</ele><time>2026-04-06T08:40:32.004Z</time></trkpt><trkpt lat="43.5528633" lon="12.3841917"><ele>551.5</ele><time>2026-04-06T08:40:33.004Z</time></trkpt><trkpt lat="43.5528567" lon="12.3840267"><ele>543.25</ele><time>2026-04-06T08:40:34.004Z</time></trkpt><trkpt lat="43.5528467" lon="12.3838533"><ele>535.0</ele><time>2026-04-06T08:40:35.004Z</time></trkpt><trkpt lat="43.5528367" lon="12.3836817"><ele>535.0</ele><time>2026-04-06T08:40:36.004Z</time></trkpt><trkpt lat="43.5528433" lon="12.38351"><ele>535.0</ele><time>2026-04-06T08:40:37.004Z</time></trkpt><trkpt lat="43.552865" lon="12.3833383"><ele>535.0</ele><time>2026-04-06T08:40:38.004Z</time></trkpt><trkpt lat="43.5529183" lon="12.383165"><ele>535.0</ele><time>2026-04-06T08:40:39.004Z</time></trkpt><trkpt lat="43.5529883" lon="12.382995"><ele>536.0</ele><time>2026-04-06T08:40:40.004Z</time></trkpt><trkpt lat="43.5530717" lon="12.3828367"><ele>537.0</ele><time>2026-04-06T08:40:41.004Z</time></trkpt><trkpt lat="43.5531583" lon="12.382675"><ele>538.0</ele><time>2026-04-06T08:40:42.004Z</time></trkpt><trkpt lat="43.5532433" lon="12.3825317"><ele>539.0</ele><time>2026-04-06T08:40:43.004Z</time></trkpt><trkpt lat="43.5533183" lon="12.382395"><ele>539.0</ele><time>2026-04-06T08:40:44.004Z</time></trkpt><trkpt lat="43.5533833" lon="12.3822483"><ele>539.0</ele><time>2026-04-06T08:40:45.004Z</time></trkpt><trkpt lat="43.5534383" lon="12.3821017"><ele>539.0</ele><time>2026-04-06T08:40:46.004Z</time></trkpt><trkpt lat="43.5534767" lon="12.3819533"><ele>539.0</ele><time>2026-04-06T08:40:47.004Z</time></trkpt><trkpt lat="43.553495" lon="12.381785"><ele>537.25</ele><time>2026-04-06T08:40:48.004Z</time></trkpt><trkpt lat="43.55349" lon="12.3816067"><ele>535.5</ele><time>2026-04-06T08:40:49.004Z</time></trkpt><trkpt lat="43.5534517" lon="12.3814383"><ele>533.75</ele><time>2026-04-06T08:40:50.004Z</time></trkpt><trkpt lat="43.5533933" lon="12.3812883"><ele>532.0</ele><time>2026-04-06T08:40:51.004Z</time></trkpt><trkpt lat="43.5533433" lon="12.3811317"><ele>532.0</ele><time>2026-04-06T08:40:52.004Z</time></trkpt><trkpt lat="43.5532867" lon="12.3809733"><ele>532.0</ele><time>2026-04-06T08:40:53.004Z</time></trkpt><trkpt lat="43.5532233" lon="12.3808"><ele>532.0</ele><time>2026-04-06T08:40:54.004Z</time></trkpt><trkpt lat="43.55316" lon="12.3806267"><ele>532.0</ele><time>2026-04-06T08:40:55.004Z</time></trkpt><trkpt lat="43.553095" lon="12.380465"><ele>533.5</ele><time>2026-04-06T08:40:56.004Z</time></trkpt><trkpt lat="43.5530267" lon="12.380315"><ele>535.0</ele><time>2026-04-06T08:40:57.004Z</time></trkpt><trkpt lat="43.55294" lon="12.3801767"><ele>536.5</ele><time>2026-04-06T08:40:58.004Z</time></trkpt><trkpt lat="43.5528433" lon="12.3800483"><ele>538.0</ele><time>2026-04-06T08:40:59.004Z</time></trkpt><trkpt lat="43.5527333" lon="12.379925"><ele>538.0</ele><time>2026-04-06T08:41:00.004Z</time></trkpt><trkpt lat="43.5526217" lon="12.3798033"><ele>538.0</ele><time>2026-04-06T08:41:01.004Z</time></trkpt><trkpt lat="43.552515" lon="12.37968"><ele>538.0</ele><time>2026-04-06T08:41:02.004Z</time></trkpt><trkpt lat="43.5524083" lon="12.3795617"><ele>538.0</ele><time>2026-04-06T08:41:03.004Z</time></trkpt><trkpt lat="43.5523067" lon="12.3794467"><ele>538.1999999999999</ele><time>2026-04-06T08:41:04.004Z</time></trkpt><trkpt lat="43.5522083" lon="12.3793417"><ele>538.4</ele><time>2026-04-06T08:41:05.004Z</time></trkpt><trkpt lat="43.5521233" lon="12.3792483"><ele>538.5999999999999</ele><time>2026-04-06T08:41:06.004Z</time></trkpt><trkpt lat="43.5520417" lon="12.3791533"><ele>538.8</ele><time>2026-04-06T08:41:07.004Z</time></trkpt><trkpt lat="43.5519717" lon="12.379065"><ele>539.0</ele><time>2026-04-06T08:41:08.004Z</time></trkpt><trkpt lat="43.5519117" lon="12.3789883"><ele>539.0</ele><time>2026-04-06T08:41:09.004Z</time></trkpt><trkpt lat="43.5518517" lon="12.3789083"><ele>539.0</ele><time>2026-04-06T08:41:10.004Z</time></trkpt><trkpt lat="43.5517833" lon="12.3788167"><ele>539.0</ele><time>2026-04-06T08:41:11.004Z</time></trkpt><trkpt lat="43.55171" lon="12.378715"><ele>539.0</ele><time>2026-04-06T08:41:12.004Z</time></trkpt><trkpt lat="43.5516283" lon="12.3786117"><ele>539.0</ele><time>2026-04-06T08:41:13.004Z</time></trkpt><trkpt lat="43.55154" lon="12.378495"><ele>541.25</ele><time>2026-04-06T08:41:14.004Z</time></trkpt><trkpt lat="43.5514483" lon="12.37837"><ele>543.5</ele><time>2026-04-06T08:41:15.004Z</time></trkpt><trkpt lat="43.55135" lon="12.37824"><ele>545.75</ele><time>2026-04-06T08:41:16.004Z</time></trkpt><trkpt lat="43.551245" lon="12.378105"><ele>548.0</ele><time>2026-04-06T08:41:17.004Z</time></trkpt><trkpt lat="43.5511333" lon="12.37796"><ele>548.25</ele><time>2026-04-06T08:41:18.003Z</time></trkpt><trkpt lat="43.551025" lon="12.37782"><ele>548.5</ele><time>2026-04-06T08:41:19.004Z</time></trkpt><trkpt lat="43.5509167" lon="12.3776783"><ele>548.75</ele><time>2026-04-06T08:41:20.004Z</time></trkpt><trkpt lat="43.5508083" lon="12.37755"><ele>549.0</ele><time>2026-04-06T08:41:21.004Z</time></trkpt><trkpt lat="43.5507033" lon="12.3774083"><ele>549.0</ele><time>2026-04-06T08:41:22.004Z</time></trkpt><trkpt lat="43.550595" lon="12.3772633"><ele>549.0</ele><time>2026-04-06T08:41:23.004Z</time></trkpt><trkpt lat="43.5504833" lon="12.3771167"><ele>549.0</ele><time>2026-04-06T08:41:24.004Z</time></trkpt><trkpt lat="43.55037" lon="12.37697"><ele>548.0</ele><time>2026-04-06T08:41:25.004Z</time></trkpt><trkpt lat="43.5502567" lon="12.3768167"><ele>547.0</ele><time>2026-04-06T08:41:26.004Z</time></trkpt><trkpt lat="43.550145" lon="12.3766533"><ele>546.0</ele><time>2026-04-06T08:41:27.004Z</time></trkpt><trkpt lat="43.55003" lon="12.37649"><ele>551.0</ele><time>2026-04-06T08:41:28.004Z</time></trkpt><trkpt lat="43.5499133" lon="12.37632"><ele>556.0</ele><time>2026-04-06T08:41:29.004Z</time></trkpt><trkpt lat="43.5497933" lon="12.37615"><ele>561.0</ele><time>2026-04-06T08:41:30.004Z</time></trkpt><trkpt lat="43.549675" lon="12.3759767"><ele>561.0</ele><time>2026-04-06T08:41:31.004Z</time></trkpt><trkpt lat="43.5495583" lon="12.3758033"><ele>561.0</ele><time>2026-04-06T08:41:32.004Z</time></trkpt><trkpt lat="43.5494383" lon="12.3756317"><ele>561.0</ele><time>2026-04-06T08:41:33.004Z</time></trkpt><trkpt lat="43.5493183" lon="12.3754633"><ele>559.3333333333334</ele><time>2026-04-06T08:41:34.004Z</time></trkpt><trkpt lat="43.5491967" lon="12.375285"><ele>557.6666666666667</ele><time>2026-04-06T08:41:35.004Z</time></trkpt><trkpt lat="43.5490767" lon="12.3751067"><ele>556.0</ele><time>2026-04-06T08:41:36.004Z</time></trkpt><trkpt lat="43.548955" lon="12.3749267"><ele>556.0</ele><time>2026-04-06T08:41:37.004Z</time></trkpt><trkpt lat="43.5488333" lon="12.37474"><ele>556.0</ele><time>2026-04-06T08:41:38.004Z</time></trkpt><trkpt lat="43.5486983" lon="12.3745517"><ele>556.0</ele><time>2026-04-06T08:41:39.004Z</time></trkpt><trkpt lat="43.5485683" lon="12.3743733"><ele>554.3333333333334</ele><time>2026-04-06T08:41:40.004Z</time></trkpt><trkpt lat="43.5484383" lon="12.374185"><ele>552.6666666666666</ele><time>2026-04-06T08:41:41.004Z</time></trkpt><trkpt lat="43.54831" lon="12.3739983"><ele>551.0</ele><time>2026-04-06T08:41:42.004Z</time></trkpt><trkpt lat="43.5481817" lon="12.3738083"><ele>550.3333333333333</ele><time>2026-04-06T08:41:43.004Z</time></trkpt><trkpt lat="43.54805" lon="12.3736167"><ele>549.6666666666666</ele><time>2026-04-06T08:41:44.004Z</time></trkpt><trkpt lat="43.5479183" lon="12.37343"><ele>549.0</ele><time>2026-04-06T08:41:45.004Z</time></trkpt><trkpt lat="43.5477883" lon="12.3732433"><ele>549.0</ele><time>2026-04-06T08:41:46.004Z</time></trkpt><trkpt lat="43.54766" lon="12.3730583"><ele>549.0</ele><time>2026-04-06T08:41:47.004Z</time></trkpt><trkpt lat="43.5475317" lon="12.37287"><ele>549.0</ele><time>2026-04-06T08:41:48.004Z</time></trkpt><trkpt lat="43.5474067" lon="12.372685"><ele>550.0</ele><time>2026-04-06T08:41:49.004Z</time></trkpt><trkpt lat="43.5472817" lon="12.3724967"><ele>551.0</ele><time>2026-04-06T08:41:50.004Z</time></trkpt><trkpt lat="43.547155" lon="12.3723133"><ele>552.0</ele><time>2026-04-06T08:41:51.004Z</time></trkpt><trkpt lat="43.5470233" lon="12.3721367"><ele>552.0</ele><time>2026-04-06T08:41:52.004Z</time></trkpt><trkpt lat="43.5468867" lon="12.3719567"><ele>552.0</ele><time>2026-04-06T08:41:53.004Z</time></trkpt><trkpt lat="43.5467633" lon="12.3717617"><ele>552.0</ele><time>2026-04-06T08:41:54.004Z</time></trkpt><trkpt lat="43.5466417" lon="12.371575"><ele>552.0</ele><time>2026-04-06T08:41:55.004Z</time></trkpt><trkpt lat="43.546525" lon="12.3713883"><ele>552.0</ele><time>2026-04-06T08:41:56.004Z</time></trkpt><trkpt lat="43.5463967" lon="12.3712"><ele>552.0</ele><time>2026-04-06T08:41:57.004Z</time></trkpt><trkpt lat="43.5462533" lon="12.371035"><ele>553.6666666666666</ele><time>2026-04-06T08:41:58.004Z</time></trkpt><trkpt lat="43.5460983" lon="12.370905"><ele>555.3333333333333</ele><time>2026-04-06T08:41:59.004Z</time></trkpt><trkpt lat="43.5459233" lon="12.370825"><ele>557.0</ele><time>2026-04-06T08:42:00.004Z</time></trkpt><trkpt lat="43.5457467" lon="12.370755"><ele>557.0</ele><time>2026-04-06T08:42:01.004Z</time></trkpt><trkpt lat="43.545575" lon="12.37068"><ele>557.0</ele><time>2026-04-06T08:42:02.004Z</time></trkpt><trkpt lat="43.5454033" lon="12.3706083"><ele>557.0</ele><time>2026-04-06T08:42:03.003Z</time></trkpt><trkpt lat="43.5452317" lon="12.370535"><ele>563.6666666666666</ele><time>2026-04-06T08:42:04.004Z</time></trkpt><trkpt lat="43.5450567" lon="12.3704517"><ele>570.3333333333334</ele><time>2026-04-06T08:42:05.004Z</time></trkpt><trkpt lat="43.5448867" lon="12.3703833"><ele>577.0</ele><time>2026-04-06T08:42:06.004Z</time></trkpt><trkpt lat="43.544715" lon="12.3703067"><ele>576.6666666666667</ele><time>2026-04-06T08:42:07.004Z</time></trkpt><trkpt lat="43.54454" lon="12.3702317"><ele>576.3333333333334</ele><time>2026-04-06T08:42:08.004Z</time></trkpt><trkpt lat="43.54437" lon="12.3701567"><ele>576.0</ele><time>2026-04-06T08:42:09.004Z</time></trkpt><trkpt lat="43.544195" lon="12.3700767"><ele>576.0</ele><time>2026-04-06T08:42:10.004Z</time></trkpt><trkpt lat="43.5440217" lon="12.3699967"><ele>576.0</ele><time>2026-04-06T08:42:11.004Z</time></trkpt><trkpt lat="43.5438467" lon="12.3699133"><ele>576.0</ele><time>2026-04-06T08:42:12.004Z</time></trkpt><trkpt lat="43.5436633" lon="12.369845"><ele>575.0</ele><time>2026-04-06T08:42:13.004Z</time></trkpt><trkpt lat="43.5434883" lon="12.3697567"><ele>574.0</ele><time>2026-04-06T08:42:14.004Z</time></trkpt><trkpt lat="43.5433333" lon="12.36963"><ele>573.0</ele><time>2026-04-06T08:42:15.004Z</time></trkpt><trkpt lat="43.543185" lon="12.3694767"><ele>573.3333333333334</ele><time>2026-04-06T08:42:16.004Z</time></trkpt><trkpt lat="43.5430333" lon="12.3693183"><ele>573.6666666666667</ele><time>2026-04-06T08:42:17.004Z</time></trkpt><trkpt lat="43.5428967" lon="12.3691433"><ele>574.0</ele><time>2026-04-06T08:42:18.004Z</time></trkpt><trkpt lat="43.5427717" lon="12.3689583"><ele>578.0</ele><time>2026-04-06T08:42:19.004Z</time></trkpt><trkpt lat="43.542655" lon="12.3687817"><ele>582.0</ele><time>2026-04-06T08:42:20.004Z</time></trkpt><trkpt lat="43.54255" lon="12.3686133"><ele>586.0</ele><time>2026-04-06T08:42:21.004Z</time></trkpt><trkpt lat="43.5424533" lon="12.3684717"><ele>586.0</ele><time>2026-04-06T08:42:22.004Z</time></trkpt><trkpt lat="43.5423583" lon="12.3683467"><ele>586.0</ele><time>2026-04-06T08:42:23.004Z</time></trkpt><trkpt lat="43.542255" lon="12.368265"><ele>586.0</ele><time>2026-04-06T08:42:24.004Z</time></trkpt><trkpt lat="43.542145" lon="12.368205"><ele>586.0</ele><time>2026-04-06T08:42:25.004Z</time></trkpt><trkpt lat="43.54204" lon="12.3682"><ele>584.8</ele><time>2026-04-06T08:42:26.004Z</time></trkpt><trkpt lat="43.5419517" lon="12.3682433"><ele>583.6</ele><time>2026-04-06T08:42:27.004Z</time></trkpt><trkpt lat="43.5418683" lon="12.3683267"><ele>582.4</ele><time>2026-04-06T08:42:28.004Z</time></trkpt><trkpt lat="43.5418067" lon="12.3684467"><ele>581.2</ele><time>2026-04-06T08:42:29.004Z</time></trkpt><trkpt lat="43.5417517" lon="12.368595"><ele>580.0</ele><time>2026-04-06T08:42:30.004Z</time></trkpt><trkpt lat="43.541715" lon="12.3687683"><ele>580.5</ele><time>2026-04-06T08:42:31.004Z</time></trkpt><trkpt lat="43.54168" lon="12.3689567"><ele>581.0</ele><time>2026-04-06T08:42:32.004Z</time></trkpt><trkpt lat="43.5416233" lon="12.3691433"><ele>581.5</ele><time>2026-04-06T08:42:33.004Z</time></trkpt><trkpt lat="43.5415217" lon="12.3692967"><ele>582.0</ele><time>2026-04-06T08:42:34.004Z</time></trkpt><trkpt lat="43.5413833" lon="12.36943"><ele>582.0</ele><time>2026-04-06T08:42:35.004Z</time></trkpt><trkpt lat="43.5412433" lon="12.3695567"><ele>582.0</ele><time>2026-04-06T08:42:36.004Z</time></trkpt><trkpt lat="43.5411083" lon="12.3696967"><ele>582.0</ele><time>2026-04-06T08:42:37.004Z</time></trkpt><trkpt lat="43.5410033" lon="12.3698567"><ele>586.0</ele><time>2026-04-06T08:42:38.004Z</time></trkpt><trkpt lat="43.5409317" lon="12.37005"><ele>590.0</ele><time>2026-04-06T08:42:39.004Z</time></trkpt><trkpt lat="43.5409033" lon="12.37027"><ele>594.0</ele><time>2026-04-06T08:42:40.004Z</time></trkpt><trkpt lat="43.5409067" lon="12.370525"><ele>594.0</ele><time>2026-04-06T08:42:41.004Z</time></trkpt><trkpt lat="43.5409167" lon="12.3707817"><ele>594.0</ele><time>2026-04-06T08:42:42.004Z</time></trkpt><trkpt lat="43.5409017" lon="12.3710017"><ele>594.0</ele><time>2026-04-06T08:42:43.004Z</time></trkpt><trkpt lat="43.5408633" lon="12.3711617"><ele>594.0</ele><time>2026-04-06T08:42:44.004Z</time></trkpt><trkpt lat="43.5407767" lon="12.3712717"><ele>594.0</ele><time>2026-04-06T08:42:45.004Z</time></trkpt><trkpt lat="43.5406583" lon="12.3713333"><ele>594.0</ele><time>2026-04-06T08:42:46.004Z</time></trkpt><trkpt lat="43.5405083" lon="12.3713583"><ele>594.0</ele><time>2026-04-06T08:42:47.004Z</time></trkpt><trkpt lat="43.540315" lon="12.3713533"><ele>597.3333333333334</ele><time>2026-04-06T08:42:48.004Z</time></trkpt><trkpt lat="43.5401033" lon="12.3713533"><ele>600.6666666666667</ele><time>2026-04-06T08:42:49.004Z</time></trkpt><trkpt lat="43.5398667" lon="12.3713567"><ele>604.0</ele><time>2026-04-06T08:42:50.004Z</time></trkpt><trkpt lat="43.5396217" lon="12.3713517"><ele>602.5</ele><time>2026-04-06T08:42:51.004Z</time></trkpt><trkpt lat="43.53937" lon="12.3713683"><ele>601.0</ele><time>2026-04-06T08:42:52.004Z</time></trkpt><trkpt lat="43.53911" lon="12.3713683"><ele>601.0</ele><time>2026-04-06T08:42:53.004Z</time></trkpt><trkpt lat="43.5388433" lon="12.3713683"><ele>601.0</ele><time>2026-04-06T08:42:54.004Z</time></trkpt><trkpt lat="43.5385633" lon="12.3713767"><ele>607.0</ele><time>2026-04-06T08:42:55.004Z</time></trkpt><trkpt lat="43.5382833" lon="12.3713467"><ele>613.0</ele><time>2026-04-06T08:42:56.004Z</time></trkpt><trkpt lat="43.5379983" lon="12.3713067"><ele>616.5</ele><time>2026-04-06T08:42:57.004Z</time></trkpt><trkpt lat="43.5377083" lon="12.3712683"><ele>620.0</ele><time>2026-04-06T08:42:58.004Z</time></trkpt><trkpt lat="43.5374133" lon="12.3712333"><ele>620.0</ele><time>2026-04-06T08:42:59.004Z</time></trkpt><trkpt lat="43.5371267" lon="12.3712017"><ele>620.0</ele><time>2026-04-06T08:43:00.004Z</time></trkpt><trkpt lat="43.5368667" lon="12.3711583"><ele>622.5</ele><time>2026-04-06T08:43:01.004Z</time></trkpt><trkpt lat="43.536625" lon="12.3711217"><ele>625.0</ele><time>2026-04-06T08:43:02.004Z</time></trkpt><trkpt lat="43.53639" lon="12.3710483"><ele>621.0</ele><time>2026-04-06T08:43:03.004Z</time></trkpt><trkpt lat="43.5361717" lon="12.3709233"><ele>617.0</ele><time>2026-04-06T08:43:04.004Z</time></trkpt><trkpt lat="43.5359933" lon="12.3707367"><ele>617.0</ele><time>2026-04-06T08:43:05.004Z</time></trkpt><trkpt lat="43.53582" lon="12.3705467"><ele>617.0</ele><time>2026-04-06T08:43:06.004Z</time></trkpt><trkpt lat="43.5356267" lon="12.3703783"><ele>627.5</ele><time>2026-04-06T08:43:07.004Z</time></trkpt><trkpt lat="43.53539" lon="12.3702567"><ele>638.0</ele><time>2026-04-06T08:43:08.004Z</time></trkpt><trkpt lat="43.5351367" lon="12.37016"><ele>638.0</ele><time>2026-04-06T08:43:09.004Z</time></trkpt><trkpt lat="43.53488" lon="12.370085"><ele>638.0</ele><time>2026-04-06T08:43:10.004Z</time></trkpt><trkpt lat="43.5346117" lon="12.3700667"><ele>639.0</ele><time>2026-04-06T08:43:11.004Z</time></trkpt><trkpt lat="43.5343583" lon="12.37006"><ele>640.0</ele><time>2026-04-06T08:43:12.004Z</time></trkpt><trkpt lat="43.5341317" lon="12.370055"><ele>640.0</ele><time>2026-04-06T08:43:13.004Z</time></trkpt><trkpt lat="43.533925" lon="12.37004"><ele>640.0</ele><time>2026-04-06T08:43:14.004Z</time></trkpt><trkpt lat="43.5337317" lon="12.3699683"><ele>640.0</ele><time>2026-04-06T08:43:15.004Z</time></trkpt><trkpt lat="43.5335483" lon="12.369835"><ele>647.0</ele><time>2026-04-06T08:43:16.004Z</time></trkpt><trkpt lat="43.5333867" lon="12.369675"><ele>654.0</ele><time>2026-04-06T08:43:17.004Z</time></trkpt><trkpt lat="43.5332233" lon="12.3695517"><ele>661.0</ele><time>2026-04-06T08:43:18.004Z</time></trkpt><trkpt lat="43.53304" lon="12.36947"><ele>658.0</ele><time>2026-04-06T08:43:19.004Z</time></trkpt><trkpt lat="43.5328267" lon="12.3694483"><ele>655.0</ele><time>2026-04-06T08:43:20.004Z</time></trkpt><trkpt lat="43.532615" lon="12.3694483"><ele>652.0</ele><time>2026-04-06T08:43:21.004Z</time></trkpt><trkpt lat="43.5324333" lon="12.36945"><ele>652.0</ele><time>2026-04-06T08:43:22.004Z</time></trkpt><trkpt lat="43.532285" lon="12.3694317"><ele>652.0</ele><time>2026-04-06T08:43:23.004Z</time></trkpt><trkpt lat="43.5321617" lon="12.3693617"><ele>652.0</ele><time>2026-04-06T08:43:24.004Z</time></trkpt><trkpt lat="43.5320767" lon="12.369245"><ele>652.0</ele><time>2026-04-06T08:43:25.004Z</time></trkpt><trkpt lat="43.5320433" lon="12.3690917"><ele>654.2</ele><time>2026-04-06T08:43:26.004Z</time></trkpt><trkpt lat="43.532055" lon="12.3689433"><ele>656.4000000000001</ele><time>2026-04-06T08:43:27.004Z</time></trkpt><trkpt lat="43.5321" lon="12.3687817"><ele>658.5999999999999</ele><time>2026-04-06T08:43:28.004Z</time></trkpt><trkpt lat="43.53213" lon="12.368635"><ele>660.8</ele><time>2026-04-06T08:43:29.004Z</time></trkpt><trkpt lat="43.5321333" lon="12.3685017"><ele>663.0</ele><time>2026-04-06T08:43:30.004Z</time></trkpt><trkpt lat="43.5320967" lon="12.368395"><ele>660.8</ele><time>2026-04-06T08:43:31.004Z</time></trkpt><trkpt lat="43.5320383" lon="12.3683133"><ele>658.5999999999999</ele><time>2026-04-06T08:43:32.004Z</time></trkpt><trkpt lat="43.53196" lon="12.3682667"><ele>656.4000000000001</ele><time>2026-04-06T08:43:33.004Z</time></trkpt><trkpt lat="43.5318633" lon="12.3682683"><ele>654.2</ele><time>2026-04-06T08:43:34.004Z</time></trkpt><trkpt lat="43.531745" lon="12.3683467"><ele>652.0</ele><time>2026-04-06T08:43:35.004Z</time></trkpt><trkpt lat="43.531605" lon="12.368425"><ele>652.0</ele><time>2026-04-06T08:43:36.004Z</time></trkpt><trkpt lat="43.53145" lon="12.36845"><ele>652.0</ele><time>2026-04-06T08:43:37.004Z</time></trkpt><trkpt lat="43.5313033" lon="12.3683933"><ele>652.0</ele><time>2026-04-06T08:43:38.004Z</time></trkpt><trkpt lat="43.53114" lon="12.368255"><ele>652.6666666666667</ele><time>2026-04-06T08:43:39.004Z</time></trkpt><trkpt lat="43.5309733" lon="12.3680683"><ele>653.3333333333334</ele><time>2026-04-06T08:43:40.004Z</time></trkpt><trkpt lat="43.5308167" lon="12.3678433"><ele>654.0</ele><time>2026-04-06T08:43:41.004Z</time></trkpt><trkpt lat="43.5306883" lon="12.3676283"><ele>654.0</ele><time>2026-04-06T08:43:42.004Z</time></trkpt><trkpt lat="43.5306067" lon="12.3674133"><ele>654.0</ele><time>2026-04-06T08:43:43.004Z</time></trkpt><trkpt lat="43.5305533" lon="12.3672283"><ele>654.0</ele><time>2026-04-06T08:43:44.004Z</time></trkpt><trkpt lat="43.530485" lon="12.3670783"><ele>654.0</ele><time>2026-04-06T08:43:45.004Z</time></trkpt><trkpt lat="43.53038" lon="12.3669783"><ele>654.6666666666666</ele><time>2026-04-06T08:43:46.004Z</time></trkpt><trkpt lat="43.530235" lon="12.366895"><ele>655.3333333333333</ele><time>2026-04-06T08:43:47.004Z</time></trkpt><trkpt lat="43.5300633" lon="12.3668783"><ele>656.0</ele><time>2026-04-06T08:43:48.004Z</time></trkpt><trkpt lat="43.5298633" lon="12.3668833"><ele>656.0</ele><time>2026-04-06T08:43:49.004Z</time></trkpt><trkpt lat="43.5296567" lon="12.3668483"><ele>656.0</ele><time>2026-04-06T08:43:50.004Z</time></trkpt><trkpt lat="43.5294883" lon="12.3667983"><ele>656.0</ele><time>2026-04-06T08:43:51.004Z</time></trkpt><trkpt lat="43.529355" lon="12.3667533"><ele>657.0</ele><time>2026-04-06T08:43:52.004Z</time></trkpt><trkpt lat="43.52925" lon="12.3666683"><ele>658.0</ele><time>2026-04-06T08:43:53.004Z</time></trkpt><trkpt lat="43.5291733" lon="12.3665517"><ele>659.0</ele><time>2026-04-06T08:43:54.004Z</time></trkpt><trkpt lat="43.5291217" lon="12.3663983"><ele>660.0</ele><time>2026-04-06T08:43:55.004Z</time></trkpt><trkpt lat="43.529085" lon="12.366205"><ele>660.0</ele><time>2026-04-06T08:43:56.004Z</time></trkpt><trkpt lat="43.529025" lon="12.3660333"><ele>660.0</ele><time>2026-04-06T08:43:57.004Z</time></trkpt><trkpt lat="43.52893" lon="12.3659017"><ele>660.0</ele><time>2026-04-06T08:43:58.004Z</time></trkpt><trkpt lat="43.5287917" lon="12.3658"><ele>660.0</ele><time>2026-04-06T08:43:59.004Z</time></trkpt><trkpt lat="43.5286067" lon="12.3657317"><ele>657.6666666666666</ele><time>2026-04-06T08:44:00.004Z</time></trkpt><trkpt lat="43.5283883" lon="12.3657017"><ele>655.3333333333333</ele><time>2026-04-06T08:44:01.004Z</time></trkpt><trkpt lat="43.5281767" lon="12.3656783"><ele>653.0</ele><time>2026-04-06T08:44:02.004Z</time></trkpt><trkpt lat="43.5279733" lon="12.3656317"><ele>651.3333333333333</ele><time>2026-04-06T08:44:03.004Z</time></trkpt><trkpt lat="43.527775" lon="12.3655467"><ele>649.6666666666666</ele><time>2026-04-06T08:44:04.004Z</time></trkpt><trkpt lat="43.52758" lon="12.3654017"><ele>648.0</ele><time>2026-04-06T08:44:05.004Z</time></trkpt><trkpt lat="43.5273817" lon="12.3652233"><ele>654.5</ele><time>2026-04-06T08:44:06.004Z</time></trkpt><trkpt lat="43.52716" lon="12.365045"><ele>661.0</ele><time>2026-04-06T08:44:07.003Z</time></trkpt><trkpt lat="43.526915" lon="12.36491"><ele>661.0</ele><time>2026-04-06T08:44:08.003Z</time></trkpt><trkpt lat="43.5266567" lon="12.36479"><ele>661.0</ele><time>2026-04-06T08:44:09.003Z</time></trkpt><trkpt lat="43.5264033" lon="12.364705"><ele>665.3333333333334</ele><time>2026-04-06T08:44:10.003Z</time></trkpt><trkpt lat="43.5261767" lon="12.364665"><ele>669.6666666666666</ele><time>2026-04-06T08:44:11.003Z</time></trkpt><trkpt lat="43.5259733" lon="12.3646117"><ele>674.0</ele><time>2026-04-06T08:44:12.003Z</time></trkpt><trkpt lat="43.5257817" lon="12.3645283"><ele>674.0</ele><time>2026-04-06T08:44:13.003Z</time></trkpt><trkpt lat="43.5255983" lon="12.364365"><ele>674.0</ele><time>2026-04-06T08:44:14.003Z</time></trkpt><trkpt lat="43.5254433" lon="12.36412"><ele>675.0</ele><time>2026-04-06T08:44:15.003Z</time></trkpt><trkpt lat="43.5253017" lon="12.3638883"><ele>676.0</ele><time>2026-04-06T08:44:16.003Z</time></trkpt><trkpt lat="43.52514" lon="12.36369"><ele>677.0</ele><time>2026-04-06T08:44:17.003Z</time></trkpt><trkpt lat="43.5249667" lon="12.36353"><ele>677.0</ele><time>2026-04-06T08:44:18.003Z</time></trkpt><trkpt lat="43.5247833" lon="12.3634083"><ele>677.0</ele><time>2026-04-06T08:44:19.003Z</time></trkpt><trkpt lat="43.52459" lon="12.3633367"><ele>677.0</ele><time>2026-04-06T08:44:20.003Z</time></trkpt><trkpt lat="43.5244067" lon="12.3633133"><ele>675.3333333333333</ele><time>2026-04-06T08:44:21.003Z</time></trkpt><trkpt lat="43.52423" lon="12.3632883"><ele>673.6666666666666</ele><time>2026-04-06T08:44:22.003Z</time></trkpt><trkpt lat="43.5240467" lon="12.36324"><ele>672.0</ele><time>2026-04-06T08:44:23.003Z</time></trkpt><trkpt lat="43.5238533" lon="12.36314"><ele>673.3333333333334</ele><time>2026-04-06T08:44:24.003Z</time></trkpt><trkpt lat="43.52367" lon="12.362995"><ele>674.6666666666667</ele><time>2026-04-06T08:44:25.003Z</time></trkpt><trkpt lat="43.523525" lon="12.3627817"><ele>676.0</ele><time>2026-04-06T08:44:26.003Z</time></trkpt><trkpt lat="43.523365" lon="12.3625467"><ele>676.0</ele><time>2026-04-06T08:44:27.003Z</time></trkpt><trkpt lat="43.5232283" lon="12.362315"><ele>676.0</ele><time>2026-04-06T08:44:28.003Z</time></trkpt><trkpt lat="43.52307" lon="12.3621367"><ele>676.0</ele><time>2026-04-06T08:44:29.003Z</time></trkpt><trkpt lat="43.52289" lon="12.362"><ele>678.0</ele><time>2026-04-06T08:44:30.003Z</time></trkpt><trkpt lat="43.5227217" lon="12.3618933"><ele>680.0</ele><time>2026-04-06T08:44:31.003Z</time></trkpt><trkpt lat="43.5225933" lon="12.3617583"><ele>682.0</ele><time>2026-04-06T08:44:32.003Z</time></trkpt><trkpt lat="43.52252" lon="12.3615683"><ele>684.0</ele><time>2026-04-06T08:44:33.003Z</time></trkpt><trkpt lat="43.5224733" lon="12.3613533"><ele>686.0</ele><time>2026-04-06T08:44:34.003Z</time></trkpt><trkpt lat="43.5224267" lon="12.36116"><ele>688.0</ele><time>2026-04-06T08:44:35.003Z</time></trkpt><trkpt lat="43.522355" lon="12.3610017"><ele>690.0</ele><time>2026-04-06T08:44:36.003Z</time></trkpt><trkpt lat="43.5222417" lon="12.3608867"><ele>690.0</ele><time>2026-04-06T08:44:37.003Z</time></trkpt><trkpt lat="43.522085" lon="12.36079"><ele>690.0</ele><time>2026-04-06T08:44:38.003Z</time></trkpt><trkpt lat="43.52192" lon="12.360675"><ele>690.0</ele><time>2026-04-06T08:44:39.002Z</time></trkpt><trkpt lat="43.52176" lon="12.3604983"><ele>695.5</ele><time>2026-04-06T08:44:40.003Z</time></trkpt><trkpt lat="43.5215983" lon="12.3602683"><ele>701.0</ele><time>2026-04-06T08:44:41.003Z</time></trkpt><trkpt lat="43.5214467" lon="12.3600367"><ele>701.0</ele><time>2026-04-06T08:44:42.003Z</time></trkpt><trkpt lat="43.5213" lon="12.3598267"><ele>701.0</ele><time>2026-04-06T08:44:43.003Z</time></trkpt><trkpt lat="43.52114" lon="12.3596517"><ele>701.0</ele><time>2026-04-06T08:44:44.003Z</time></trkpt><trkpt lat="43.5209467" lon="12.3594867"><ele>704.5</ele><time>2026-04-06T08:44:45.003Z</time></trkpt><trkpt lat="43.520725" lon="12.35935"><ele>708.0</ele><time>2026-04-06T08:44:46.003Z</time></trkpt><trkpt lat="43.5204983" lon="12.359205"><ele>706.5</ele><time>2026-04-06T08:44:47.003Z</time></trkpt><trkpt lat="43.5202733" lon="12.3590633"><ele>705.0</ele><time>2026-04-06T08:44:48.003Z</time></trkpt><trkpt lat="43.5200683" lon="12.3589517"><ele>707.3333333333334</ele><time>2026-04-06T08:44:49.003Z</time></trkpt><trkpt lat="43.5198767" lon="12.35885"><ele>709.6666666666667</ele><time>2026-04-06T08:44:50.003Z</time></trkpt><trkpt lat="43.519705" lon="12.3587417"><ele>712.0</ele><time>2026-04-06T08:44:51.003Z</time></trkpt><trkpt lat="43.51956" lon="12.3585983"><ele>712.0</ele><time>2026-04-06T08:44:52.003Z</time></trkpt><trkpt lat="43.519455" lon="12.3584167"><ele>712.0</ele><time>2026-04-06T08:44:53.003Z</time></trkpt><trkpt lat="43.51942" lon="12.35821"><ele>712.0</ele><time>2026-04-06T08:44:54.003Z</time></trkpt><trkpt lat="43.5194533" lon="12.358005"><ele>714.0</ele><time>2026-04-06T08:44:55.003Z</time></trkpt><trkpt lat="43.5194967" lon="12.3578067"><ele>716.0</ele><time>2026-04-06T08:44:56.003Z</time></trkpt><trkpt lat="43.5195067" lon="12.3576467"><ele>718.0</ele><time>2026-04-06T08:44:57.003Z</time></trkpt><trkpt lat="43.5194833" lon="12.3575233"><ele>720.0</ele><time>2026-04-06T08:44:58.003Z</time></trkpt><trkpt lat="43.5194167" lon="12.35743"><ele>720.0</ele><time>2026-04-06T08:44:59.003Z</time></trkpt><trkpt lat="43.5193317" lon="12.3573733"><ele>720.0</ele><time>2026-04-06T08:45:00.003Z</time></trkpt><trkpt lat="43.5192433" lon="12.3573783"><ele>720.0</ele><time>2026-04-06T08:45:01.003Z</time></trkpt><trkpt lat="43.51916" lon="12.3574483"><ele>720.0</ele><time>2026-04-06T08:45:02.003Z</time></trkpt><trkpt lat="43.5190883" lon="12.3576083"><ele>720.0</ele><time>2026-04-06T08:45:03.003Z</time></trkpt><trkpt lat="43.5190417" lon="12.3578433"><ele>720.5</ele><time>2026-04-06T08:45:04.003Z</time></trkpt><trkpt lat="43.519" lon="12.3580783"><ele>721.0</ele><time>2026-04-06T08:45:05.003Z</time></trkpt><trkpt lat="43.5189433" lon="12.3582267"><ele>721.5</ele><time>2026-04-06T08:45:06.003Z</time></trkpt><trkpt lat="43.5188533" lon="12.3583233"><ele>722.0</ele><time>2026-04-06T08:45:07.003Z</time></trkpt><trkpt lat="43.5187283" lon="12.3583883"><ele>722.0</ele><time>2026-04-06T08:45:08.003Z</time></trkpt><trkpt lat="43.5186017" lon="12.3584367"><ele>722.0</ele><time>2026-04-06T08:45:09.003Z</time></trkpt><trkpt lat="43.5184133" lon="12.35838"><ele>722.0</ele><time>2026-04-06T08:45:10.003Z</time></trkpt><trkpt lat="43.5181967" lon="12.3582767"><ele>722.0</ele><time>2026-04-06T08:45:11.003Z</time></trkpt><trkpt lat="43.518" lon="12.3581567"><ele>722.0</ele><time>2026-04-06T08:45:12.003Z</time></trkpt><trkpt lat="43.517805" lon="12.35802"><ele>722.0</ele><time>2026-04-06T08:45:13.003Z</time></trkpt><trkpt lat="43.5176117" lon="12.3579083"><ele>725.6666666666666</ele><time>2026-04-06T08:45:14.003Z</time></trkpt><trkpt lat="43.5174333" lon="12.3578233"><ele>729.3333333333334</ele><time>2026-04-06T08:45:15.003Z</time></trkpt><trkpt lat="43.517285" lon="12.3577183"><ele>733.0</ele><time>2026-04-06T08:45:16.003Z</time></trkpt><trkpt lat="43.5171717" lon="12.3575633"><ele>733.0</ele><time>2026-04-06T08:45:17.003Z</time></trkpt><trkpt lat="43.5170783" lon="12.3573767"><ele>733.0</ele><time>2026-04-06T08:45:18.003Z</time></trkpt><trkpt lat="43.517" lon="12.3571317"><ele>733.0</ele><time>2026-04-06T08:45:19.003Z</time></trkpt><trkpt lat="43.5169317" lon="12.3569"><ele>734.75</ele><time>2026-04-06T08:45:20.003Z</time></trkpt><trkpt lat="43.5168717" lon="12.3567067"><ele>736.5</ele><time>2026-04-06T08:45:21.003Z</time></trkpt><trkpt lat="43.5168083" lon="12.3565717"><ele>738.25</ele><time>2026-04-06T08:45:22.003Z</time></trkpt><trkpt lat="43.5167267" lon="12.356505"><ele>740.0</ele><time>2026-04-06T08:45:23.003Z</time></trkpt><trkpt lat="43.5166367" lon="12.3564733"><ele>740.0</ele><time>2026-04-06T08:45:24.003Z</time></trkpt><trkpt lat="43.5165367" lon="12.356505"><ele>740.0</ele><time>2026-04-06T08:45:25.003Z</time></trkpt><trkpt lat="43.516435" lon="12.3566017"><ele>740.0</ele><time>2026-04-06T08:45:26.003Z</time></trkpt><trkpt lat="43.5163283" lon="12.35677"><ele>740.0</ele><time>2026-04-06T08:45:27.003Z</time></trkpt><trkpt lat="43.5162183" lon="12.3569433"><ele>738.5</ele><time>2026-04-06T08:45:28.003Z</time></trkpt><trkpt lat="43.5161033" lon="12.3570683"><ele>737.0</ele><time>2026-04-06T08:45:29.003Z</time></trkpt><trkpt lat="43.51599" lon="12.3571583"><ele>735.5</ele><time>2026-04-06T08:45:30.003Z</time></trkpt><trkpt lat="43.515875" lon="12.3571867"><ele>734.0</ele><time>2026-04-06T08:45:31.003Z</time></trkpt><trkpt lat="43.5157733" lon="12.35715"><ele>734.0</ele><time>2026-04-06T08:45:32.003Z</time></trkpt><trkpt lat="43.515695" lon="12.3570533"><ele>734.0</ele><time>2026-04-06T08:45:33.003Z</time></trkpt><trkpt lat="43.5156383" lon="12.3569117"><ele>734.0</ele><time>2026-04-06T08:45:34.003Z</time></trkpt><trkpt lat="43.5156033" lon="12.35674"><ele>734.0</ele><time>2026-04-06T08:45:35.003Z</time></trkpt><trkpt lat="43.5155883" lon="12.356555"><ele>734.0</ele><time>2026-04-06T08:45:36.003Z</time></trkpt><trkpt lat="43.5155817" lon="12.3563967"><ele>734.0</ele><time>2026-04-06T08:45:37.003Z</time></trkpt><trkpt lat="43.5156" lon="12.3562317"><ele>734.0</ele><time>2026-04-06T08:45:38.003Z</time></trkpt><trkpt lat="43.5156467" lon="12.35608"><ele>734.0</ele><time>2026-04-06T08:45:39.003Z</time></trkpt><trkpt lat="43.51571" lon="12.3559483"><ele>733.3333333333333</ele><time>2026-04-06T08:45:40.003Z</time></trkpt><trkpt lat="43.5157783" lon="12.3558533"><ele>732.6666666666666</ele><time>2026-04-06T08:45:41.003Z</time></trkpt><trkpt lat="43.5158383" lon="12.3557883"><ele>732.0</ele><time>2026-04-06T08:45:42.003Z</time></trkpt><trkpt lat="43.5158817" lon="12.3557083"><ele>731.3333333333334</ele><time>2026-04-06T08:45:43.003Z</time></trkpt><trkpt lat="43.5159233" lon="12.3556167"><ele>730.6666666666667</ele><time>2026-04-06T08:45:44.003Z</time></trkpt><trkpt lat="43.5159617" lon="12.355515"><ele>730.0</ele><time>2026-04-06T08:45:45.003Z</time></trkpt><trkpt lat="43.5159967" lon="12.3554133"><ele>729.2857142857143</ele><time>2026-04-06T08:45:46.003Z</time></trkpt><trkpt lat="43.5160233" lon="12.355325"><ele>728.5714285714286</ele><time>2026-04-06T08:45:47.003Z</time></trkpt><trkpt lat="43.5160583" lon="12.3552033"><ele>727.8571428571429</ele><time>2026-04-06T08:45:49.003Z</time></trkpt><trkpt lat="43.5160817" lon="12.3551117"><ele>727.1428571428571</ele><time>2026-04-06T08:45:52.003Z</time></trkpt><trkpt lat="43.51602" lon="12.35509"><ele>726.4285714285714</ele><time>2026-04-06T08:45:55.003Z</time></trkpt><trkpt lat="43.51599" lon="12.355175"><ele>725.7142857142858</ele><time>2026-04-06T08:45:57.003Z</time></trkpt><trkpt lat="43.51597" lon="12.3552583"><ele>725.0</ele><time>2026-04-06T08:45:58.003Z</time></trkpt><trkpt lat="43.5159267" lon="12.35541"><ele>725.0</ele><time>2026-04-06T08:46:00.003Z</time></trkpt><trkpt lat="43.515895" lon="12.3554983"><ele>725.0</ele><time>2026-04-06T08:46:02.003Z</time></trkpt><trkpt lat="43.5158617" lon="12.3555883"><ele>725.0</ele><time>2026-04-06T08:48:21.002Z</time></trkpt><trkpt lat="43.5157817" lon="12.3557417"><ele>725.0</ele><time>2026-04-06T08:48:23.003Z</time></trkpt><trkpt lat="43.5157317" lon="12.355845"><ele>725.0</ele><time>2026-04-06T08:48:24.003Z</time></trkpt><trkpt lat="43.5156767" lon="12.35595"><ele>725.8333333333333</ele><time>2026-04-06T08:48:25.003Z</time></trkpt><trkpt lat="43.5156367" lon="12.356055"><ele>726.6666666666666</ele><time>2026-04-06T08:48:26.003Z</time></trkpt><trkpt lat="43.5156017" lon="12.3561583"><ele>727.5</ele><time>2026-04-06T08:48:27.003Z</time></trkpt><trkpt lat="43.5155817" lon="12.3562717"><ele>728.3333333333334</ele><time>2026-04-06T08:48:28.003Z</time></trkpt><trkpt lat="43.5155833" lon="12.356395"><ele>729.1666666666667</ele><time>2026-04-06T08:48:29.003Z</time></trkpt><trkpt lat="43.5156" lon="12.3565283"><ele>730.0</ele><time>2026-04-06T08:48:30.003Z</time></trkpt><trkpt lat="43.515635" lon="12.356665"><ele>730.8</ele><time>2026-04-06T08:48:31.003Z</time></trkpt><trkpt lat="43.51567" lon="12.3568117"><ele>731.6</ele><time>2026-04-06T08:48:32.003Z</time></trkpt><trkpt lat="43.5157067" lon="12.3569433"><ele>732.4000000000001</ele><time>2026-04-06T08:48:33.003Z</time></trkpt><trkpt lat="43.5157433" lon="12.35707"><ele>733.2</ele><time>2026-04-06T08:48:34.003Z</time></trkpt><trkpt lat="43.5157817" lon="12.3571683"><ele>734.0</ele><time>2026-04-06T08:48:35.003Z</time></trkpt><trkpt lat="43.515815" lon="12.357255"><ele>734.3333333333333</ele><time>2026-04-06T08:48:36.003Z</time></trkpt><trkpt lat="43.5158283" lon="12.357345"><ele>734.6666666666666</ele><time>2026-04-06T08:48:37.003Z</time></trkpt><trkpt lat="43.5158217" lon="12.3574317"><ele>735.0</ele><time>2026-04-06T08:48:38.003Z</time></trkpt><trkpt lat="43.5157883" lon="12.3575317"><ele>735.3333333333334</ele><time>2026-04-06T08:48:39.003Z</time></trkpt><trkpt lat="43.515725" lon="12.3576583"><ele>735.6666666666667</ele><time>2026-04-06T08:48:40.003Z</time></trkpt><trkpt lat="43.5156433" lon="12.3577917"><ele>736.0</ele><time>2026-04-06T08:48:41.003Z</time></trkpt><trkpt lat="43.515575" lon="12.3579267"><ele>739.25</ele><time>2026-04-06T08:48:42.003Z</time></trkpt><trkpt lat="43.51552" lon="12.358095"><ele>742.5</ele><time>2026-04-06T08:48:43.003Z</time></trkpt><trkpt lat="43.5154917" lon="12.358265"><ele>745.75</ele><time>2026-04-06T08:48:44.003Z</time></trkpt><trkpt lat="43.515485" lon="12.3584667"><ele>749.0</ele><time>2026-04-06T08:48:45.003Z</time></trkpt><trkpt lat="43.5154817" lon="12.3586467"><ele>749.0</ele><time>2026-04-06T08:48:46.003Z</time></trkpt><trkpt lat="43.5154933" lon="12.3588117"><ele>749.0</ele><time>2026-04-06T08:48:47.003Z</time></trkpt><trkpt lat="43.5155333" lon="12.3589817"><ele>749.0</ele><time>2026-04-06T08:48:48.003Z</time></trkpt><trkpt lat="43.5156033" lon="12.3591617"><ele>749.0</ele><time>2026-04-06T08:48:49.003Z</time></trkpt><trkpt lat="43.5156917" lon="12.35935"><ele>752.0</ele><time>2026-04-06T08:48:50.003Z</time></trkpt><trkpt lat="43.5158067" lon="12.35958"><ele>755.0</ele><time>2026-04-06T08:48:51.003Z</time></trkpt><trkpt lat="43.515905" lon="12.3597783"><ele>758.0</ele><time>2026-04-06T08:48:52.003Z</time></trkpt><trkpt lat="43.5159883" lon="12.3599617"><ele>758.4</ele><time>2026-04-06T08:48:53.003Z</time></trkpt><trkpt lat="43.51607" lon="12.3600967"><ele>758.8</ele><time>2026-04-06T08:48:54.003Z</time></trkpt><trkpt lat="43.5161467" lon="12.3602"><ele>759.2</ele><time>2026-04-06T08:48:55.003Z</time></trkpt><trkpt lat="43.51621" lon="12.360295"><ele>759.6</ele><time>2026-04-06T08:48:56.003Z</time></trkpt><trkpt lat="43.5162533" lon="12.36041"><ele>760.0</ele><time>2026-04-06T08:48:57.003Z</time></trkpt><trkpt lat="43.516295" lon="12.360565"><ele>762.75</ele><time>2026-04-06T08:48:58.003Z</time></trkpt><trkpt lat="43.5163333" lon="12.360745"><ele>765.5</ele><time>2026-04-06T08:48:59.003Z</time></trkpt><trkpt lat="43.5163783" lon="12.3609267"><ele>768.25</ele><time>2026-04-06T08:49:00.003Z</time></trkpt><trkpt lat="43.5164083" lon="12.3610883"><ele>771.0</ele><time>2026-04-06T08:49:01.003Z</time></trkpt><trkpt lat="43.51642" lon="12.3612433"><ele>772.75</ele><time>2026-04-06T08:49:02.003Z</time></trkpt><trkpt lat="43.51641" lon="12.3614183"><ele>774.5</ele><time>2026-04-06T08:49:03.003Z</time></trkpt><trkpt lat="43.5163967" lon="12.3616"><ele>776.25</ele><time>2026-04-06T08:49:04.003Z</time></trkpt><trkpt lat="43.516355" lon="12.3617883"><ele>778.0</ele><time>2026-04-06T08:49:05.003Z</time></trkpt><trkpt lat="43.516305" lon="12.36196"><ele>778.0</ele><time>2026-04-06T08:49:06.003Z</time></trkpt><trkpt lat="43.5162517" lon="12.3621083"><ele>778.0</ele><time>2026-04-06T08:49:07.003Z</time></trkpt><trkpt lat="43.5162167" lon="12.3622483"><ele>778.0</ele><time>2026-04-06T08:49:08.003Z</time></trkpt><trkpt lat="43.5162083" lon="12.3623817"><ele>778.0</ele><time>2026-04-06T08:49:09.003Z</time></trkpt><trkpt lat="43.5162183" lon="12.3625"><ele>778.0</ele><time>2026-04-06T08:49:10.003Z</time></trkpt><trkpt lat="43.5162567" lon="12.3626083"><ele>780.0</ele><time>2026-04-06T08:49:11.003Z</time></trkpt><trkpt lat="43.5163267" lon="12.362695"><ele>782.0</ele><time>2026-04-06T08:49:12.003Z</time></trkpt><trkpt lat="43.5164083" lon="12.3628133"><ele>784.0</ele><time>2026-04-06T08:49:13.003Z</time></trkpt><trkpt lat="43.51649" lon="12.362945"><ele>786.0</ele><time>2026-04-06T08:49:14.003Z</time></trkpt><trkpt lat="43.5165633" lon="12.3630833"><ele>786.0</ele><time>2026-04-06T08:49:15.003Z</time></trkpt><trkpt lat="43.5166133" lon="12.36323"><ele>786.0</ele><time>2026-04-06T08:49:16.003Z</time></trkpt><trkpt lat="43.516645" lon="12.3634167"><ele>786.0</ele><time>2026-04-06T08:49:17.003Z</time></trkpt><trkpt lat="43.5166683" lon="12.363615"><ele>786.0</ele><time>2026-04-06T08:49:18.003Z</time></trkpt><trkpt lat="43.5166783" lon="12.36382"><ele>786.0</ele><time>2026-04-06T08:49:19.003Z</time></trkpt><trkpt lat="43.5166617" lon="12.3640167"><ele>786.0</ele><time>2026-04-06T08:49:20.003Z</time></trkpt><trkpt lat="43.51663" lon="12.364205"><ele>786.0</ele><time>2026-04-06T08:49:21.003Z</time></trkpt><trkpt lat="43.5165867" lon="12.3643817"><ele>786.0</ele><time>2026-04-06T08:49:22.003Z</time></trkpt><trkpt lat="43.516535" lon="12.3645117"><ele>786.0</ele><time>2026-04-06T08:49:23.003Z</time></trkpt><trkpt lat="43.516475" lon="12.3646017"><ele>786.0</ele><time>2026-04-06T08:49:24.003Z</time></trkpt><trkpt lat="43.5163917" lon="12.3646533"><ele>786.0</ele><time>2026-04-06T08:49:25.003Z</time></trkpt><trkpt lat="43.516285" lon="12.3646817"><ele>786.0</ele><time>2026-04-06T08:49:26.003Z</time></trkpt><trkpt lat="43.51617" lon="12.3647117"><ele>786.0</ele><time>2026-04-06T08:49:27.003Z</time></trkpt><trkpt lat="43.51607" lon="12.3647383"><ele>783.1666666666666</ele><time>2026-04-06T08:49:28.003Z</time></trkpt><trkpt lat="43.5159867" lon="12.3647733"><ele>780.3333333333333</ele><time>2026-04-06T08:49:29.003Z</time></trkpt><trkpt lat="43.5159183" lon="12.3648133"><ele>777.5</ele><time>2026-04-06T08:49:30.003Z</time></trkpt><trkpt lat="43.5158467" lon="12.3648733"><ele>774.6666666666666</ele><time>2026-04-06T08:49:31.003Z</time></trkpt><trkpt lat="43.515795" lon="12.3649617"><ele>771.8333333333333</ele><time>2026-04-06T08:49:32.003Z</time></trkpt><trkpt lat="43.515765" lon="12.3650667"><ele>769.0</ele><time>2026-04-06T08:49:33.003Z</time></trkpt><trkpt lat="43.5157567" lon="12.3651833"><ele>769.0</ele><time>2026-04-06T08:49:34.003Z</time></trkpt><trkpt lat="43.5157683" lon="12.3652983"><ele>769.0</ele><time>2026-04-06T08:49:35.003Z</time></trkpt><trkpt lat="43.5157967" lon="12.3654067"><ele>769.0</ele><time>2026-04-06T08:49:36.003Z</time></trkpt><trkpt lat="43.51584" lon="12.3655083"><ele>769.0</ele><time>2026-04-06T08:49:37.003Z</time></trkpt><trkpt lat="43.5159033" lon="12.3656183"><ele>769.0</ele><time>2026-04-06T08:49:38.003Z</time></trkpt><trkpt lat="43.515985" lon="12.36574"><ele>769.0</ele><time>2026-04-06T08:49:39.003Z</time></trkpt><trkpt lat="43.51607" lon="12.3659"><ele>769.0</ele><time>2026-04-06T08:49:40.003Z</time></trkpt><trkpt lat="43.516145" lon="12.3660783"><ele>769.0</ele><time>2026-04-06T08:49:41.003Z</time></trkpt><trkpt lat="43.5162033" lon="12.3662483"><ele>769.0</ele><time>2026-04-06T08:49:42.003Z</time></trkpt><trkpt lat="43.516255" lon="12.3664167"><ele>767.25</ele><time>2026-04-06T08:49:43.003Z</time></trkpt><trkpt lat="43.5162717" lon="12.366585"><ele>765.5</ele><time>2026-04-06T08:49:44.003Z</time></trkpt><trkpt lat="43.5162633" lon="12.3667367"><ele>763.75</ele><time>2026-04-06T08:49:45.003Z</time></trkpt><trkpt lat="43.5162567" lon="12.366885"><ele>762.0</ele><time>2026-04-06T08:49:46.003Z</time></trkpt><trkpt lat="43.516235" lon="12.3670433"><ele>763.5</ele><time>2026-04-06T08:49:47.003Z</time></trkpt><trkpt lat="43.5162" lon="12.3672067"><ele>765.0</ele><time>2026-04-06T08:49:48.003Z</time></trkpt><trkpt lat="43.516155" lon="12.3673617"><ele>766.5</ele><time>2026-04-06T08:49:49.003Z</time></trkpt><trkpt lat="43.5161" lon="12.3675133"><ele>768.0</ele><time>2026-04-06T08:49:50.003Z</time></trkpt><trkpt lat="43.5160283" lon="12.36766"><ele>768.0</ele><time>2026-04-06T08:49:51.003Z</time></trkpt><trkpt lat="43.5159417" lon="12.367805"><ele>768.0</ele><time>2026-04-06T08:49:52.003Z</time></trkpt><trkpt lat="43.5158417" lon="12.367935"><ele>768.0</ele><time>2026-04-06T08:49:53.003Z</time></trkpt><trkpt lat="43.5157417" lon="12.368055"><ele>768.0</ele><time>2026-04-06T08:49:54.003Z</time></trkpt><trkpt lat="43.5156367" lon="12.3681817"><ele>770.0</ele><time>2026-04-06T08:49:55.003Z</time></trkpt><trkpt lat="43.5155367" lon="12.368285"><ele>772.0</ele><time>2026-04-06T08:49:56.003Z</time></trkpt><trkpt lat="43.5154333" lon="12.3683783"><ele>774.0</ele><time>2026-04-06T08:49:57.003Z</time></trkpt><trkpt lat="43.5153417" lon="12.3684667"><ele>776.0</ele><time>2026-04-06T08:49:58.003Z</time></trkpt><trkpt lat="43.51526" lon="12.3685417"><ele>772.8333333333334</ele><time>2026-04-06T08:49:59.003Z</time></trkpt><trkpt lat="43.5151983" lon="12.3685983"><ele>769.6666666666667</ele><time>2026-04-06T08:50:00.003Z</time></trkpt><trkpt lat="43.515145" lon="12.368665"><ele>766.5</ele><time>2026-04-06T08:50:01.003Z</time></trkpt><trkpt lat="43.5151083" lon="12.3687367"><ele>763.3333333333334</ele><time>2026-04-06T08:50:02.003Z</time></trkpt><trkpt lat="43.515085" lon="12.3688317"><ele>760.1666666666667</ele><time>2026-04-06T08:50:03.003Z</time></trkpt><trkpt lat="43.5150783" lon="12.3689467"><ele>757.0</ele><time>2026-04-06T08:50:04.003Z</time></trkpt><trkpt lat="43.5150833" lon="12.3690683"><ele>757.0</ele><time>2026-04-06T08:50:05.003Z</time></trkpt><trkpt lat="43.5150917" lon="12.3691917"><ele>757.0</ele><time>2026-04-06T08:50:06.003Z</time></trkpt><trkpt lat="43.5150833" lon="12.36928"><ele>757.0</ele><time>2026-04-06T08:50:07.003Z</time></trkpt><trkpt lat="43.515055" lon="12.3694067"><ele>757.0</ele><time>2026-04-06T08:50:08.003Z</time></trkpt><trkpt lat="43.5150117" lon="12.3694933"><ele>757.0</ele><time>2026-04-06T08:50:09.003Z</time></trkpt><trkpt lat="43.5149567" lon="12.369575"><ele>757.0</ele><time>2026-04-06T08:50:10.003Z</time></trkpt><trkpt lat="43.5148883" lon="12.3696217"><ele>757.0</ele><time>2026-04-06T08:50:11.003Z</time></trkpt><trkpt lat="43.5148033" lon="12.3696383"><ele>757.0</ele><time>2026-04-06T08:50:12.003Z</time></trkpt><trkpt lat="43.514705" lon="12.369635"><ele>757.0</ele><time>2026-04-06T08:50:13.003Z</time></trkpt><trkpt lat="43.5145917" lon="12.36963"><ele>757.0</ele><time>2026-04-06T08:50:14.002Z</time></trkpt><trkpt lat="43.5144733" lon="12.3696267"><ele>757.0</ele><time>2026-04-06T08:50:15.003Z</time></trkpt><trkpt lat="43.51436" lon="12.36965"><ele>756.2</ele><time>2026-04-06T08:50:16.003Z</time></trkpt><trkpt lat="43.5142517" lon="12.3696867"><ele>755.4000000000001</ele><time>2026-04-06T08:50:17.003Z</time></trkpt><trkpt lat="43.514195" lon="12.369745"><ele>754.5999999999999</ele><time>2026-04-06T08:50:18.003Z</time></trkpt><trkpt lat="43.5141117" lon="12.3698433"><ele>753.8</ele><time>2026-04-06T08:50:19.003Z</time></trkpt><trkpt lat="43.51403" lon="12.3699617"><ele>753.0</ele><time>2026-04-06T08:50:20.003Z</time></trkpt><trkpt lat="43.51395" lon="12.37009"><ele>754.0</ele><time>2026-04-06T08:50:21.003Z</time></trkpt><trkpt lat="43.5138817" lon="12.3702167"><ele>755.0</ele><time>2026-04-06T08:50:22.003Z</time></trkpt><trkpt lat="43.5138233" lon="12.3703683"><ele>756.0</ele><time>2026-04-06T08:50:23.003Z</time></trkpt><trkpt lat="43.5137867" lon="12.3705267"><ele>757.0</ele><time>2026-04-06T08:50:24.003Z</time></trkpt><trkpt lat="43.5137733" lon="12.3706733"><ele>757.0</ele><time>2026-04-06T08:50:25.003Z</time></trkpt><trkpt lat="43.5137833" lon="12.3707917"><ele>757.0</ele><time>2026-04-06T08:50:26.003Z</time></trkpt><trkpt lat="43.51381" lon="12.370895"><ele>757.0</ele><time>2026-04-06T08:50:27.003Z</time></trkpt><trkpt lat="43.51382" lon="12.3710133"><ele>757.0</ele><time>2026-04-06T08:50:28.003Z</time></trkpt><trkpt lat="43.5138367" lon="12.3711283"><ele>757.0</ele><time>2026-04-06T08:50:29.003Z</time></trkpt><trkpt lat="43.5138317" lon="12.3712233"><ele>757.0</ele><time>2026-04-06T08:50:30.003Z</time></trkpt><trkpt lat="43.5138083" lon="12.371315"><ele>756.8333333333334</ele><time>2026-04-06T08:50:31.003Z</time></trkpt><trkpt lat="43.51377" lon="12.3714167"><ele>756.6666666666667</ele><time>2026-04-06T08:50:32.003Z</time></trkpt><trkpt lat="43.51373" lon="12.3715317"><ele>756.5</ele><time>2026-04-06T08:50:33.003Z</time></trkpt><trkpt lat="43.5137" lon="12.37165"><ele>756.3333333333334</ele><time>2026-04-06T08:50:34.003Z</time></trkpt><trkpt lat="43.51369" lon="12.3717667"><ele>756.1666666666666</ele><time>2026-04-06T08:50:35.003Z</time></trkpt><trkpt lat="43.5136983" lon="12.3718867"><ele>756.0</ele><time>2026-04-06T08:50:36.003Z</time></trkpt><trkpt lat="43.51373" lon="12.3719917"><ele>756.0</ele><time>2026-04-06T08:50:37.003Z</time></trkpt><trkpt lat="43.5137817" lon="12.3720917"><ele>756.0</ele><time>2026-04-06T08:50:38.003Z</time></trkpt><trkpt lat="43.5138267" lon="12.3721733"><ele>756.0</ele><time>2026-04-06T08:50:39.003Z</time></trkpt><trkpt lat="43.513795" lon="12.3723033"><ele>756.0</ele><time>2026-04-06T08:50:41.003Z</time></trkpt><trkpt lat="43.5137333" lon="12.3723533"><ele>756.0</ele><time>2026-04-06T08:50:42.003Z</time></trkpt><trkpt lat="43.513645" lon="12.3723833"><ele>756.0</ele><time>2026-04-06T08:50:43.003Z</time></trkpt><trkpt lat="43.5135283" lon="12.3724117"><ele>758.5</ele><time>2026-04-06T08:50:44.003Z</time></trkpt><trkpt lat="43.513395" lon="12.3724717"><ele>761.0</ele><time>2026-04-06T08:50:45.003Z</time></trkpt><trkpt lat="43.51326" lon="12.372535"><ele>763.5</ele><time>2026-04-06T08:50:46.003Z</time></trkpt><trkpt lat="43.5131517" lon="12.3725933"><ele>766.0</ele><time>2026-04-06T08:50:47.003Z</time></trkpt><trkpt lat="43.5130683" lon="12.3726467"><ele>766.0</ele><time>2026-04-06T08:50:48.003Z</time></trkpt><trkpt lat="43.513005" lon="12.37272"><ele>766.0</ele><time>2026-04-06T08:50:49.003Z</time></trkpt><trkpt lat="43.5129617" lon="12.3728117"><ele>766.0</ele><time>2026-04-06T08:50:50.003Z</time></trkpt><trkpt lat="43.51293" lon="12.372925"><ele>766.0</ele><time>2026-04-06T08:50:51.003Z</time></trkpt><trkpt lat="43.5129017" lon="12.3730417"><ele>766.0</ele><time>2026-04-06T08:50:52.003Z</time></trkpt><trkpt lat="43.5128733" lon="12.3731433"><ele>766.0</ele><time>2026-04-06T08:50:53.003Z</time></trkpt><trkpt lat="43.5128467" lon="12.3732533"><ele>764.8</ele><time>2026-04-06T08:50:54.003Z</time></trkpt><trkpt lat="43.5127717" lon="12.3733533"><ele>763.5999999999999</ele><time>2026-04-06T08:50:56.003Z</time></trkpt><trkpt lat="43.5126833" lon="12.3733183"><ele>762.4</ele><time>2026-04-06T08:50:58.003Z</time></trkpt><trkpt lat="43.51263" lon="12.3732467"><ele>761.2</ele><time>2026-04-06T08:50:59.003Z</time></trkpt><trkpt lat="43.5125417" lon="12.3731367"><ele>760.0</ele><time>2026-04-06T08:51:00.003Z</time></trkpt><trkpt lat="43.5124417" lon="12.3730183"><ele>760.0</ele><time>2026-04-06T08:51:01.003Z</time></trkpt><trkpt lat="43.5123267" lon="12.3729017"><ele>760.0</ele><time>2026-04-06T08:51:02.003Z</time></trkpt><trkpt lat="43.51221" lon="12.372815"><ele>760.0</ele><time>2026-04-06T08:51:03.003Z</time></trkpt><trkpt lat="43.5121" lon="12.37274"><ele>760.0</ele><time>2026-04-06T08:51:04.003Z</time></trkpt><trkpt lat="43.51199" lon="12.3726633"><ele>755.6</ele><time>2026-04-06T08:51:05.003Z</time></trkpt><trkpt lat="43.5118817" lon="12.3726067"><ele>751.2</ele><time>2026-04-06T08:51:06.003Z</time></trkpt><trkpt lat="43.5117767" lon="12.3725683"><ele>746.8</ele><time>2026-04-06T08:51:07.003Z</time></trkpt><trkpt lat="43.5116767" lon="12.372525"><ele>742.4</ele><time>2026-04-06T08:51:08.003Z</time></trkpt><trkpt lat="43.5115783" lon="12.37246"><ele>738.0</ele><time>2026-04-06T08:51:09.003Z</time></trkpt><trkpt lat="43.5114933" lon="12.3723883"><ele>738.0</ele><time>2026-04-06T08:51:10.003Z</time></trkpt><trkpt lat="43.5114283" lon="12.3723267"><ele>738.0</ele><time>2026-04-06T08:51:11.003Z</time></trkpt><trkpt lat="43.51138" lon="12.37226"><ele>738.0</ele><time>2026-04-06T08:51:12.003Z</time></trkpt><trkpt lat="43.511325" lon="12.3721783"><ele>738.0</ele><time>2026-04-06T08:51:14.003Z</time></trkpt><trkpt lat="43.5112483" lon="12.3721317"><ele>738.0</ele><time>2026-04-06T08:51:16.003Z</time></trkpt><trkpt lat="43.511115" lon="12.37212"><ele>738.0</ele><time>2026-04-06T08:51:18.003Z</time></trkpt><trkpt lat="43.5110333" lon="12.3721233"><ele>738.3333333333334</ele><time>2026-04-06T08:51:19.003Z</time></trkpt><trkpt lat="43.5109467" lon="12.3721267"><ele>738.6666666666666</ele><time>2026-04-06T08:51:20.003Z</time></trkpt><trkpt lat="43.5108633" lon="12.37215"><ele>739.0</ele><time>2026-04-06T08:51:21.003Z</time></trkpt><trkpt lat="43.5107883" lon="12.3721783"><ele>739.3333333333333</ele><time>2026-04-06T08:51:22.003Z</time></trkpt><trkpt lat="43.510715" lon="12.3722017"><ele>739.6666666666666</ele><time>2026-04-06T08:51:23.003Z</time></trkpt><trkpt lat="43.510645" lon="12.37225"><ele>740.0</ele><time>2026-04-06T08:51:24.003Z</time></trkpt><trkpt lat="43.5105683" lon="12.3723133"><ele>740.0</ele><time>2026-04-06T08:51:25.003Z</time></trkpt><trkpt lat="43.510485" lon="12.3723733"><ele>740.0</ele><time>2026-04-06T08:51:26.003Z</time></trkpt><trkpt lat="43.5103867" lon="12.372425"><ele>740.0</ele><time>2026-04-06T08:51:27.003Z</time></trkpt><trkpt lat="43.51027" lon="12.3724517"><ele>740.0</ele><time>2026-04-06T08:51:28.003Z</time></trkpt><trkpt lat="43.510145" lon="12.37246"><ele>740.0</ele><time>2026-04-06T08:51:29.003Z</time></trkpt><trkpt lat="43.5100283" lon="12.3724533"><ele>739.8</ele><time>2026-04-06T08:51:30.003Z</time></trkpt><trkpt lat="43.5099217" lon="12.3724233"><ele>739.6</ele><time>2026-04-06T08:51:31.003Z</time></trkpt><trkpt lat="43.5098183" lon="12.3723833"><ele>739.4000000000001</ele><time>2026-04-06T08:51:32.003Z</time></trkpt><trkpt lat="43.50972" lon="12.3723183"><ele>739.2</ele><time>2026-04-06T08:51:33.003Z</time></trkpt><trkpt lat="43.5096417" lon="12.3722167"><ele>739.0</ele><time>2026-04-06T08:51:34.003Z</time></trkpt><trkpt lat="43.5095733" lon="12.372115"><ele>736.6666666666667</ele><time>2026-04-06T08:51:35.003Z</time></trkpt><trkpt lat="43.5095317" lon="12.3720383"><ele>734.3333333333334</ele><time>2026-04-06T08:51:36.003Z</time></trkpt><trkpt lat="43.5094733" lon="12.3719617"><ele>732.0</ele><time>2026-04-06T08:51:38.003Z</time></trkpt><trkpt lat="43.5093983" lon="12.3719333"><ele>729.6666666666666</ele><time>2026-04-06T08:51:39.003Z</time></trkpt><trkpt lat="43.5093117" lon="12.3719167"><ele>727.3333333333333</ele><time>2026-04-06T08:51:40.003Z</time></trkpt><trkpt lat="43.50923" lon="12.3718883"><ele>725.0</ele><time>2026-04-06T08:51:41.003Z</time></trkpt><trkpt lat="43.50916" lon="12.3718367"><ele>725.0</ele><time>2026-04-06T08:51:42.003Z</time></trkpt><trkpt lat="43.50911" lon="12.3717633"><ele>725.0</ele><time>2026-04-06T08:51:43.003Z</time></trkpt><trkpt lat="43.5090667" lon="12.3716967"><ele>725.0</ele><time>2026-04-06T08:51:44.003Z</time></trkpt><trkpt lat="43.5089883" lon="12.371645"><ele>725.0</ele><time>2026-04-06T08:51:46.003Z</time></trkpt><trkpt lat="43.5089233" lon="12.3717033"><ele>725.0</ele><time>2026-04-06T08:51:48.003Z</time></trkpt><trkpt lat="43.50889" lon="12.3718467"><ele>725.0</ele><time>2026-04-06T08:51:50.003Z</time></trkpt><trkpt lat="43.50888" lon="12.3719417"><ele>725.0</ele><time>2026-04-06T08:51:51.003Z</time></trkpt><trkpt lat="43.5088583" lon="12.3720467"><ele>725.0</ele><time>2026-04-06T08:51:52.003Z</time></trkpt><trkpt lat="43.50884" lon="12.3721533"><ele>725.0</ele><time>2026-04-06T08:51:53.003Z</time></trkpt><trkpt lat="43.508845" lon="12.372265"><ele>725.0</ele><time>2026-04-06T08:51:54.003Z</time></trkpt><trkpt lat="43.5088633" lon="12.3723733"><ele>725.0</ele><time>2026-04-06T08:51:55.003Z</time></trkpt><trkpt lat="43.5088983" lon="12.3724867"><ele>725.0</ele><time>2026-04-06T08:51:56.003Z</time></trkpt><trkpt lat="43.508935" lon="12.3726017"><ele>726.6666666666666</ele><time>2026-04-06T08:51:57.003Z</time></trkpt><trkpt lat="43.508965" lon="12.3727217"><ele>728.3333333333333</ele><time>2026-04-06T08:51:58.003Z</time></trkpt><trkpt lat="43.5089833" lon="12.3728467"><ele>730.0</ele><time>2026-04-06T08:51:59.003Z</time></trkpt><trkpt lat="43.508985" lon="12.3729633"><ele>731.6666666666666</ele><time>2026-04-06T08:52:00.003Z</time></trkpt><trkpt lat="43.5089617" lon="12.3730667"><ele>733.3333333333334</ele><time>2026-04-06T08:52:01.003Z</time></trkpt><trkpt lat="43.50892" lon="12.3731617"><ele>735.0</ele><time>2026-04-06T08:52:02.003Z</time></trkpt><trkpt lat="43.50886" lon="12.37325"><ele>736.8</ele><time>2026-04-06T08:52:03.003Z</time></trkpt><trkpt lat="43.5087917" lon="12.37332"><ele>738.6</ele><time>2026-04-06T08:52:04.003Z</time></trkpt><trkpt lat="43.5087133" lon="12.3733883"><ele>740.4000000000001</ele><time>2026-04-06T08:52:05.003Z</time></trkpt><trkpt lat="43.5086417" lon="12.373465"><ele>742.2</ele><time>2026-04-06T08:52:06.003Z</time></trkpt><trkpt lat="43.508575" lon="12.37356"><ele>744.0</ele><time>2026-04-06T08:52:07.003Z</time></trkpt><trkpt lat="43.508515" lon="12.3736783"><ele>742.6</ele><time>2026-04-06T08:52:08.003Z</time></trkpt><trkpt lat="43.508465" lon="12.3738033"><ele>741.2</ele><time>2026-04-06T08:52:09.003Z</time></trkpt><trkpt lat="43.50841" lon="12.37393"><ele>739.8000000000001</ele><time>2026-04-06T08:52:10.003Z</time></trkpt><trkpt lat="43.5083533" lon="12.3740483"><ele>738.4000000000001</ele><time>2026-04-06T08:52:11.003Z</time></trkpt><trkpt lat="43.5082833" lon="12.3741567"><ele>737.0</ele><time>2026-04-06T08:52:12.003Z</time></trkpt><trkpt lat="43.5082133" lon="12.3742433"><ele>737.0</ele><time>2026-04-06T08:52:13.003Z</time></trkpt><trkpt lat="43.50816" lon="12.374325"><ele>737.0</ele><time>2026-04-06T08:52:14.003Z</time></trkpt><trkpt lat="43.5081233" lon="12.3744183"><ele>737.0</ele><time>2026-04-06T08:52:15.003Z</time></trkpt><trkpt lat="43.508105" lon="12.3745317"><ele>737.0</ele><time>2026-04-06T08:52:16.003Z</time></trkpt><trkpt lat="43.5081133" lon="12.37466"><ele>737.0</ele><time>2026-04-06T08:52:17.003Z</time></trkpt><trkpt lat="43.5081267" lon="12.3747817"><ele>737.0</ele><time>2026-04-06T08:52:18.003Z</time></trkpt><trkpt lat="43.5081283" lon="12.3749133"><ele>736.2</ele><time>2026-04-06T08:52:19.003Z</time></trkpt><trkpt lat="43.508115" lon="12.3750517"><ele>735.4000000000001</ele><time>2026-04-06T08:52:20.003Z</time></trkpt><trkpt lat="43.5080817" lon="12.3752"><ele>734.5999999999999</ele><time>2026-04-06T08:52:21.003Z</time></trkpt><trkpt lat="43.5080333" lon="12.3753417"><ele>733.8</ele><time>2026-04-06T08:52:22.003Z</time></trkpt><trkpt lat="43.5079783" lon="12.3754767"><ele>733.0</ele><time>2026-04-06T08:52:23.003Z</time></trkpt><trkpt lat="43.50793" lon="12.37559"><ele>731.3333333333334</ele><time>2026-04-06T08:52:24.003Z</time></trkpt><trkpt lat="43.5078867" lon="12.375705"><ele>729.6666666666667</ele><time>2026-04-06T08:52:25.003Z</time></trkpt><trkpt lat="43.507855" lon="12.37581"><ele>728.0</ele><time>2026-04-06T08:52:26.003Z</time></trkpt><trkpt lat="43.5078417" lon="12.3759117"><ele>726.3333333333334</ele><time>2026-04-06T08:52:27.003Z</time></trkpt><trkpt lat="43.50783" lon="12.3760083"><ele>724.6666666666666</ele><time>2026-04-06T08:52:28.003Z</time></trkpt><trkpt lat="43.5078" lon="12.3761633"><ele>723.0</ele><time>2026-04-06T08:52:30.003Z</time></trkpt><trkpt lat="43.5077783" lon="12.3762517"><ele>719.75</ele><time>2026-04-06T08:52:32.003Z</time></trkpt><trkpt lat="43.5077983" lon="12.3763567"><ele>716.5</ele><time>2026-04-06T08:52:43.003Z</time></trkpt><trkpt lat="43.50786" lon="12.3765267"><ele>713.25</ele><time>2026-04-06T08:52:45.003Z</time></trkpt><trkpt lat="43.5079117" lon="12.37666"><ele>710.0</ele><time>2026-04-06T08:52:46.003Z</time></trkpt><trkpt lat="43.5079833" lon="12.3768333"><ele>710.0</ele><time>2026-04-06T08:52:47.003Z</time></trkpt><trkpt lat="43.50806" lon="12.3770233"><ele>710.0</ele><time>2026-04-06T08:52:48.003Z</time></trkpt><trkpt lat="43.5081267" lon="12.3771967"><ele>710.0</ele><time>2026-04-06T08:52:49.003Z</time></trkpt><trkpt lat="43.5081867" lon="12.37736"><ele>710.0</ele><time>2026-04-06T08:52:50.003Z</time></trkpt><trkpt lat="43.5082483" lon="12.37751"><ele>710.2</ele><time>2026-04-06T08:52:51.003Z</time></trkpt><trkpt lat="43.5083067" lon="12.3776517"><ele>710.4</ele><time>2026-04-06T08:52:52.003Z</time></trkpt><trkpt lat="43.5083567" lon="12.3777783"><ele>710.5999999999999</ele><time>2026-04-06T08:52:53.003Z</time></trkpt><trkpt lat="43.5083933" lon="12.377905"><ele>710.8</ele><time>2026-04-06T08:52:54.003Z</time></trkpt><trkpt lat="43.5084317" lon="12.3780233"><ele>711.0</ele><time>2026-04-06T08:52:55.003Z</time></trkpt><trkpt lat="43.5084717" lon="12.378125"><ele>712.4</ele><time>2026-04-06T08:52:56.003Z</time></trkpt><trkpt lat="43.5085067" lon="12.3782117"><ele>713.8</ele><time>2026-04-06T08:52:57.003Z</time></trkpt><trkpt lat="43.5085483" lon="12.3782833"><ele>715.1999999999999</ele><time>2026-04-06T08:52:59.003Z</time></trkpt><trkpt lat="43.5086267" lon="12.3784533"><ele>716.5999999999999</ele><time>2026-04-06T08:53:09.003Z</time></trkpt><trkpt lat="43.5086683" lon="12.3786"><ele>718.0</ele><time>2026-04-06T08:53:10.003Z</time></trkpt><trkpt lat="43.5087017" lon="12.378775"><ele>717.5</ele><time>2026-04-06T08:53:11.003Z</time></trkpt><trkpt lat="43.50873" lon="12.3789567"><ele>717.0</ele><time>2026-04-06T08:53:12.003Z</time></trkpt><trkpt lat="43.50875" lon="12.3791233"><ele>716.5</ele><time>2026-04-06T08:53:13.003Z</time></trkpt><trkpt lat="43.50877" lon="12.3792633"><ele>716.0</ele><time>2026-04-06T08:53:14.003Z</time></trkpt><trkpt lat="43.5087967" lon="12.379395"><ele>714.4</ele><time>2026-04-06T08:53:15.003Z</time></trkpt><trkpt lat="43.508845" lon="12.3795267"><ele>712.8</ele><time>2026-04-06T08:53:16.003Z</time></trkpt><trkpt lat="43.5089117" lon="12.379645"><ele>711.1999999999999</ele><time>2026-04-06T08:53:17.003Z</time></trkpt><trkpt lat="43.508965" lon="12.3797367"><ele>709.5999999999999</ele><time>2026-04-06T08:53:18.003Z</time></trkpt><trkpt lat="43.5090033" lon="12.3798267"><ele>708.0</ele><time>2026-04-06T08:53:19.003Z</time></trkpt><trkpt lat="43.5090167" lon="12.37993"><ele>708.0</ele><time>2026-04-06T08:53:20.003Z</time></trkpt><trkpt lat="43.5090217" lon="12.3800533"><ele>708.0</ele><time>2026-04-06T08:53:21.003Z</time></trkpt><trkpt lat="43.5090217" lon="12.380195"><ele>708.0</ele><time>2026-04-06T08:53:22.003Z</time></trkpt><trkpt lat="43.50902" lon="12.3803367"><ele>708.0</ele><time>2026-04-06T08:53:23.003Z</time></trkpt><trkpt lat="43.5090283" lon="12.3804733"><ele>708.0</ele><time>2026-04-06T08:53:24.003Z</time></trkpt><trkpt lat="43.50906" lon="12.3805883"><ele>707.5999999999999</ele><time>2026-04-06T08:53:25.003Z</time></trkpt><trkpt lat="43.5091033" lon="12.3807"><ele>707.1999999999999</ele><time>2026-04-06T08:53:26.003Z</time></trkpt><trkpt lat="43.5091667" lon="12.3807967"><ele>706.8</ele><time>2026-04-06T08:53:27.003Z</time></trkpt><trkpt lat="43.509255" lon="12.3808617"><ele>706.4</ele><time>2026-04-06T08:53:28.003Z</time></trkpt><trkpt lat="43.5093617" lon="12.3809233"><ele>706.0</ele><time>2026-04-06T08:53:29.003Z</time></trkpt><trkpt lat="43.5094683" lon="12.380975"><ele>706.0</ele><time>2026-04-06T08:53:30.003Z</time></trkpt><trkpt lat="43.5095683" lon="12.3810183"><ele>706.0</ele><time>2026-04-06T08:53:31.003Z</time></trkpt><trkpt lat="43.509655" lon="12.381065"><ele>706.0</ele><time>2026-04-06T08:53:32.003Z</time></trkpt><trkpt lat="43.5097333" lon="12.3811133"><ele>706.0</ele><time>2026-04-06T08:53:33.003Z</time></trkpt><trkpt lat="43.50979" lon="12.3811583"><ele>706.0</ele><time>2026-04-06T08:53:34.003Z</time></trkpt><trkpt lat="43.5097967" lon="12.3812767"><ele>706.0</ele><time>2026-04-06T08:53:36.003Z</time></trkpt><trkpt lat="43.5097133" lon="12.3814233"><ele>705.6666666666667</ele><time>2026-04-06T08:53:38.003Z</time></trkpt><trkpt lat="43.50967" lon="12.381505"><ele>705.3333333333334</ele><time>2026-04-06T08:53:39.003Z</time></trkpt><trkpt lat="43.5096333" lon="12.3816033"><ele>705.0</ele><time>2026-04-06T08:53:40.003Z</time></trkpt><trkpt lat="43.5096067" lon="12.38172"><ele>704.6666666666666</ele><time>2026-04-06T08:53:41.003Z</time></trkpt><trkpt lat="43.5095883" lon="12.3818533"><ele>704.3333333333333</ele><time>2026-04-06T08:53:42.003Z</time></trkpt><trkpt lat="43.509575" lon="12.3819683"><ele>704.0</ele><time>2026-04-06T08:53:43.003Z</time></trkpt><trkpt lat="43.5095267" lon="12.3820883"><ele>702.6</ele><time>2026-04-06T08:53:44.003Z</time></trkpt><trkpt lat="43.50946" lon="12.3822033"><ele>701.2</ele><time>2026-04-06T08:53:45.003Z</time></trkpt><trkpt lat="43.5094" lon="12.382305"><ele>699.8000000000001</ele><time>2026-04-06T08:53:46.003Z</time></trkpt><trkpt lat="43.5093417" lon="12.382425"><ele>698.4000000000001</ele><time>2026-04-06T08:53:47.003Z</time></trkpt><trkpt lat="43.5092983" lon="12.3825567"><ele>697.0</ele><time>2026-04-06T08:53:48.003Z</time></trkpt><trkpt lat="43.5092767" lon="12.3826933"><ele>697.0</ele><time>2026-04-06T08:53:49.003Z</time></trkpt><trkpt lat="43.50927" lon="12.3828383"><ele>697.0</ele><time>2026-04-06T08:53:50.003Z</time></trkpt><trkpt lat="43.5092733" lon="12.38298"><ele>697.0</ele><time>2026-04-06T08:53:51.003Z</time></trkpt><trkpt lat="43.5092717" lon="12.3831167"><ele>697.0</ele><time>2026-04-06T08:53:52.003Z</time></trkpt><trkpt lat="43.509255" lon="12.383245"><ele>697.0</ele><time>2026-04-06T08:53:53.003Z</time></trkpt><trkpt lat="43.5091967" lon="12.383365"><ele>698.5</ele><time>2026-04-06T08:53:54.003Z</time></trkpt><trkpt lat="43.509125" lon="12.3834933"><ele>700.0</ele><time>2026-04-06T08:53:55.003Z</time></trkpt><trkpt lat="43.509045" lon="12.3836217"><ele>701.5</ele><time>2026-04-06T08:53:56.003Z</time></trkpt><trkpt lat="43.50897" lon="12.383745"><ele>703.0</ele><time>2026-04-06T08:53:57.003Z</time></trkpt><trkpt lat="43.5088967" lon="12.3838783"><ele>703.0</ele><time>2026-04-06T08:53:58.003Z</time></trkpt><trkpt lat="43.5088383" lon="12.3839917"><ele>703.0</ele><time>2026-04-06T08:53:59.003Z</time></trkpt><trkpt lat="43.50878" lon="12.384095"><ele>703.0</ele><time>2026-04-06T08:54:00.003Z</time></trkpt><trkpt lat="43.5086983" lon="12.384185"><ele>703.0</ele><time>2026-04-06T08:54:01.003Z</time></trkpt><trkpt lat="43.5085983" lon="12.3842483"><ele>703.0</ele><time>2026-04-06T08:54:02.003Z</time></trkpt><trkpt lat="43.5085033" lon="12.3843067"><ele>703.0</ele><time>2026-04-06T08:54:03.003Z</time></trkpt><trkpt lat="43.508425" lon="12.384355"><ele>703.0</ele><time>2026-04-06T08:54:04.003Z</time></trkpt><trkpt lat="43.50835" lon="12.384415"><ele>703.0</ele><time>2026-04-06T08:54:05.003Z</time></trkpt><trkpt lat="43.5082867" lon="12.3844533"><ele>703.0</ele><time>2026-04-06T08:54:06.003Z</time></trkpt><trkpt lat="43.5081883" lon="12.38452"><ele>703.0</ele><time>2026-04-06T08:54:08.003Z</time></trkpt><trkpt lat="43.5080717" lon="12.384565"><ele>703.0</ele><time>2026-04-06T08:54:10.003Z</time></trkpt><trkpt lat="43.5079967" lon="12.3845783"><ele>703.0</ele><time>2026-04-06T08:54:11.003Z</time></trkpt><trkpt lat="43.5079117" lon="12.384565"><ele>703.0</ele><time>2026-04-06T08:54:12.003Z</time></trkpt><trkpt lat="43.507835" lon="12.384545"><ele>703.0</ele><time>2026-04-06T08:54:13.003Z</time></trkpt><trkpt lat="43.507765" lon="12.3845267"><ele>703.0</ele><time>2026-04-06T08:54:14.003Z</time></trkpt><trkpt lat="43.5076933" lon="12.3845117"><ele>703.0</ele><time>2026-04-06T08:54:15.003Z</time></trkpt><trkpt lat="43.50763" lon="12.3845033"><ele>703.0</ele><time>2026-04-06T08:54:16.003Z</time></trkpt><trkpt lat="43.507535" lon="12.384535"><ele>703.4</ele><time>2026-04-06T08:54:18.003Z</time></trkpt><trkpt lat="43.507445" lon="12.3846467"><ele>703.8</ele><time>2026-04-06T08:54:20.003Z</time></trkpt><trkpt lat="43.507395" lon="12.3847333"><ele>704.2</ele><time>2026-04-06T08:54:21.003Z</time></trkpt><trkpt lat="43.5073383" lon="12.384835"><ele>704.6</ele><time>2026-04-06T08:54:22.003Z</time></trkpt><trkpt lat="43.5072817" lon="12.384945"><ele>705.0</ele><time>2026-04-06T08:54:23.003Z</time></trkpt><trkpt lat="43.507235" lon="12.3850433"><ele>705.0</ele><time>2026-04-06T08:54:24.003Z</time></trkpt><trkpt lat="43.5071867" lon="12.3851367"><ele>705.0</ele><time>2026-04-06T08:54:25.003Z</time></trkpt><trkpt lat="43.50714" lon="12.385215"><ele>705.0</ele><time>2026-04-06T08:54:26.003Z</time></trkpt><trkpt lat="43.5070983" lon="12.38529"><ele>705.0</ele><time>2026-04-06T08:54:27.003Z</time></trkpt><trkpt lat="43.5070667" lon="12.3853767"><ele>705.0</ele><time>2026-04-06T08:54:28.003Z</time></trkpt><trkpt lat="43.5070383" lon="12.385455"><ele>705.0</ele><time>2026-04-06T08:54:29.003Z</time></trkpt><trkpt lat="43.506985" lon="12.385585"><ele>704.6</ele><time>2026-04-06T08:54:31.003Z</time></trkpt><trkpt lat="43.5069617" lon="12.3857017"><ele>704.2</ele><time>2026-04-06T08:54:33.003Z</time></trkpt><trkpt lat="43.506975" lon="12.3858233"><ele>703.8</ele><time>2026-04-06T08:54:35.003Z</time></trkpt><trkpt lat="43.5070017" lon="12.3859517"><ele>703.4</ele><time>2026-04-06T08:54:37.003Z</time></trkpt><trkpt lat="43.5070417" lon="12.3860717"><ele>703.0</ele><time>2026-04-06T08:54:39.003Z</time></trkpt><trkpt lat="43.5070883" lon="12.3862267"><ele>702.0</ele><time>2026-04-06T08:54:41.003Z</time></trkpt><trkpt lat="43.5071283" lon="12.3863917"><ele>701.0</ele><time>2026-04-06T08:54:43.003Z</time></trkpt><trkpt lat="43.5071733" lon="12.38654"><ele>700.0</ele><time>2026-04-06T08:54:45.003Z</time></trkpt><trkpt lat="43.507215" lon="12.3866117"><ele>699.0</ele><time>2026-04-06T08:54:46.003Z</time></trkpt><trkpt lat="43.50727" lon="12.3867017"><ele>698.0</ele><time>2026-04-06T08:54:47.003Z</time></trkpt><trkpt lat="43.50734" lon="12.3867867"><ele>698.0</ele><time>2026-04-06T08:54:48.003Z</time></trkpt><trkpt lat="43.5074167" lon="12.386855"><ele>698.0</ele><time>2026-04-06T08:54:49.003Z</time></trkpt><trkpt lat="43.5075117" lon="12.386925"><ele>698.0</ele><time>2026-04-06T08:54:50.003Z</time></trkpt><trkpt lat="43.507615" lon="12.3869817"><ele>698.0</ele><time>2026-04-06T08:54:51.003Z</time></trkpt><trkpt lat="43.507725" lon="12.3870167"><ele>698.0</ele><time>2026-04-06T08:54:52.003Z</time></trkpt><trkpt lat="43.5078467" lon="12.3870467"><ele>696.5</ele><time>2026-04-06T08:54:53.003Z</time></trkpt><trkpt lat="43.5079833" lon="12.3870567"><ele>695.0</ele><time>2026-04-06T08:54:54.003Z</time></trkpt><trkpt lat="43.5081183" lon="12.3870667"><ele>693.5</ele><time>2026-04-06T08:54:55.003Z</time></trkpt><trkpt lat="43.508255" lon="12.38708"><ele>692.0</ele><time>2026-04-06T08:54:56.003Z</time></trkpt><trkpt lat="43.5083767" lon="12.3871067"><ele>692.0</ele><time>2026-04-06T08:54:57.003Z</time></trkpt><trkpt lat="43.50849" lon="12.38713"><ele>692.0</ele><time>2026-04-06T08:54:58.003Z</time></trkpt><trkpt lat="43.50859" lon="12.3871567"><ele>692.0</ele><time>2026-04-06T08:54:59.003Z</time></trkpt><trkpt lat="43.5086717" lon="12.3871783"><ele>692.0</ele><time>2026-04-06T08:55:00.003Z</time></trkpt><trkpt lat="43.5087467" lon="12.38721"><ele>692.0</ele><time>2026-04-06T08:55:01.003Z</time></trkpt><trkpt lat="43.5088083" lon="12.3872717"><ele>691.25</ele><time>2026-04-06T08:55:02.003Z</time></trkpt><trkpt lat="43.50889" lon="12.387365"><ele>690.5</ele><time>2026-04-06T08:55:03.003Z</time></trkpt><trkpt lat="43.5089833" lon="12.3874783"><ele>689.75</ele><time>2026-04-06T08:55:04.003Z</time></trkpt><trkpt lat="43.5090833" lon="12.3875967"><ele>689.0</ele><time>2026-04-06T08:55:05.003Z</time></trkpt><trkpt lat="43.5091817" lon="12.3877167"><ele>689.0</ele><time>2026-04-06T08:55:06.003Z</time></trkpt><trkpt lat="43.5092733" lon="12.387825"><ele>689.0</ele><time>2026-04-06T08:55:07.003Z</time></trkpt><trkpt lat="43.5093617" lon="12.3879283"><ele>689.0</ele><time>2026-04-06T08:55:08.003Z</time></trkpt><trkpt lat="43.509445" lon="12.38803"><ele>689.0</ele><time>2026-04-06T08:55:09.003Z</time></trkpt><trkpt lat="43.5095317" lon="12.3881283"><ele>687.2</ele><time>2026-04-06T08:55:10.003Z</time></trkpt><trkpt lat="43.509635" lon="12.3882083"><ele>685.4000000000001</ele><time>2026-04-06T08:55:11.003Z</time></trkpt><trkpt lat="43.509735" lon="12.3882717"><ele>683.6</ele><time>2026-04-06T08:55:12.003Z</time></trkpt><trkpt lat="43.50983" lon="12.38833"><ele>681.8</ele><time>2026-04-06T08:55:13.003Z</time></trkpt><trkpt lat="43.509925" lon="12.3883767"><ele>680.0</ele><time>2026-04-06T08:55:14.003Z</time></trkpt><trkpt lat="43.510015" lon="12.3884"><ele>680.0</ele><time>2026-04-06T08:55:15.003Z</time></trkpt><trkpt lat="43.5100983" lon="12.3884067"><ele>680.0</ele><time>2026-04-06T08:55:16.003Z</time></trkpt><trkpt lat="43.5101783" lon="12.3883833"><ele>680.0</ele><time>2026-04-06T08:55:17.003Z</time></trkpt><trkpt lat="43.5102517" lon="12.3883133"><ele>680.0</ele><time>2026-04-06T08:55:18.003Z</time></trkpt><trkpt lat="43.5103367" lon="12.3882117"><ele>680.0</ele><time>2026-04-06T08:55:19.003Z</time></trkpt><trkpt lat="43.51043" lon="12.3880933"><ele>678.5</ele><time>2026-04-06T08:55:20.003Z</time></trkpt><trkpt lat="43.5105233" lon="12.3879783"><ele>677.0</ele><time>2026-04-06T08:55:21.003Z</time></trkpt><trkpt lat="43.510615" lon="12.3878717"><ele>675.5</ele><time>2026-04-06T08:55:22.003Z</time></trkpt><trkpt lat="43.5107083" lon="12.3877867"><ele>674.0</ele><time>2026-04-06T08:55:23.003Z</time></trkpt><trkpt lat="43.51081" lon="12.3877217"><ele>674.0</ele><time>2026-04-06T08:55:24.003Z</time></trkpt><trkpt lat="43.510925" lon="12.3876367"><ele>674.0</ele><time>2026-04-06T08:55:25.003Z</time></trkpt><trkpt lat="43.5110433" lon="12.3875433"><ele>674.0</ele><time>2026-04-06T08:55:26.003Z</time></trkpt><trkpt lat="43.5111517" lon="12.3874283"><ele>674.0</ele><time>2026-04-06T08:55:27.003Z</time></trkpt><trkpt lat="43.5112467" lon="12.387305"><ele>674.25</ele><time>2026-04-06T08:55:28.003Z</time></trkpt><trkpt lat="43.511335" lon="12.3871733"><ele>674.5</ele><time>2026-04-06T08:55:29.003Z</time></trkpt><trkpt lat="43.5114133" lon="12.3870567"><ele>674.75</ele><time>2026-04-06T08:55:30.003Z</time></trkpt><trkpt lat="43.5114933" lon="12.386945"><ele>675.0</ele><time>2026-04-06T08:55:31.003Z</time></trkpt><trkpt lat="43.5115833" lon="12.386835"><ele>675.0</ele><time>2026-04-06T08:55:32.003Z</time></trkpt><trkpt lat="43.5116867" lon="12.38674"><ele>675.0</ele><time>2026-04-06T08:55:33.003Z</time></trkpt><trkpt lat="43.5117783" lon="12.3866733"><ele>675.0</ele><time>2026-04-06T08:55:34.003Z</time></trkpt><trkpt lat="43.5118567" lon="12.3866283"><ele>675.0</ele><time>2026-04-06T08:55:35.003Z</time></trkpt><trkpt lat="43.5119267" lon="12.386595"><ele>675.0</ele><time>2026-04-06T08:55:36.003Z</time></trkpt><trkpt lat="43.5119983" lon="12.3865833"><ele>676.0</ele><time>2026-04-06T08:55:37.003Z</time></trkpt><trkpt lat="43.5120733" lon="12.3865833"><ele>677.0</ele><time>2026-04-06T08:55:38.003Z</time></trkpt><trkpt lat="43.512165" lon="12.3865733"><ele>678.0</ele><time>2026-04-06T08:55:39.003Z</time></trkpt><trkpt lat="43.51225" lon="12.3865567"><ele>679.0</ele><time>2026-04-06T08:55:40.003Z</time></trkpt><trkpt lat="43.5123567" lon="12.386525"><ele>680.0</ele><time>2026-04-06T08:55:41.003Z</time></trkpt><trkpt lat="43.5124617" lon="12.3864867"><ele>680.0</ele><time>2026-04-06T08:55:42.003Z</time></trkpt><trkpt lat="43.5125383" lon="12.3864033"><ele>680.0</ele><time>2026-04-06T08:55:43.003Z</time></trkpt><trkpt lat="43.5126217" lon="12.386315"><ele>680.0</ele><time>2026-04-06T08:55:44.003Z</time></trkpt><trkpt lat="43.5127033" lon="12.3862233"><ele>680.0</ele><time>2026-04-06T08:55:45.003Z</time></trkpt><trkpt lat="43.51279" lon="12.3861117"><ele>680.0</ele><time>2026-04-06T08:55:46.003Z</time></trkpt><trkpt lat="43.5128733" lon="12.3860133"><ele>678.2</ele><time>2026-04-06T08:55:47.003Z</time></trkpt><trkpt lat="43.5129567" lon="12.3859383"><ele>676.4</ele><time>2026-04-06T08:55:48.003Z</time></trkpt><trkpt lat="43.5130467" lon="12.3858617"><ele>674.5999999999999</ele><time>2026-04-06T08:55:49.003Z</time></trkpt><trkpt lat="43.5131433" lon="12.3857867"><ele>672.8</ele><time>2026-04-06T08:55:50.003Z</time></trkpt><trkpt lat="43.5132417" lon="12.38573"><ele>671.0</ele><time>2026-04-06T08:55:51.003Z</time></trkpt><trkpt lat="43.5133283" lon="12.3856633"><ele>671.0</ele><time>2026-04-06T08:55:52.003Z</time></trkpt><trkpt lat="43.51342" lon="12.38564"><ele>671.0</ele><time>2026-04-06T08:55:53.003Z</time></trkpt><trkpt lat="43.5135133" lon="12.3856267"><ele>671.0</ele><time>2026-04-06T08:55:54.003Z</time></trkpt><trkpt lat="43.5135883" lon="12.38564"><ele>671.0</ele><time>2026-04-06T08:55:55.003Z</time></trkpt><trkpt lat="43.5136617" lon="12.3856667"><ele>671.0</ele><time>2026-04-06T08:55:56.003Z</time></trkpt><trkpt lat="43.5137383" lon="12.3857783"><ele>670.5</ele><time>2026-04-06T08:55:58.003Z</time></trkpt><trkpt lat="43.5137617" lon="12.3858783"><ele>670.0</ele><time>2026-04-06T08:55:59.003Z</time></trkpt><trkpt lat="43.5137733" lon="12.3860033"><ele>669.5</ele><time>2026-04-06T08:56:00.003Z</time></trkpt><trkpt lat="43.5137933" lon="12.3861217"><ele>669.0</ele><time>2026-04-06T08:56:01.003Z</time></trkpt><trkpt lat="43.5138083" lon="12.38621"><ele>668.5</ele><time>2026-04-06T08:56:02.003Z</time></trkpt><trkpt lat="43.5138383" lon="12.38629"><ele>668.0</ele><time>2026-04-06T08:56:03.003Z</time></trkpt><trkpt lat="43.5139083" lon="12.386405"><ele>668.0</ele><time>2026-04-06T08:56:05.003Z</time></trkpt><trkpt lat="43.5140117" lon="12.3863983"><ele>668.0</ele><time>2026-04-06T08:56:07.003Z</time></trkpt><trkpt lat="43.5140633" lon="12.3863167"><ele>668.0</ele><time>2026-04-06T08:56:08.003Z</time></trkpt><trkpt lat="43.5141167" lon="12.3862033"><ele>668.0</ele><time>2026-04-06T08:56:09.003Z</time></trkpt><trkpt lat="43.5141733" lon="12.38608"><ele>668.0</ele><time>2026-04-06T08:56:10.003Z</time></trkpt><trkpt lat="43.5142417" lon="12.385965"><ele>668.0</ele><time>2026-04-06T08:56:11.003Z</time></trkpt><trkpt lat="43.51432" lon="12.3858683"><ele>668.0</ele><time>2026-04-06T08:56:12.003Z</time></trkpt><trkpt lat="43.5144017" lon="12.3857767"><ele>668.0</ele><time>2026-04-06T08:56:13.003Z</time></trkpt><trkpt lat="43.5145" lon="12.3856917"><ele>668.0</ele><time>2026-04-06T08:56:14.003Z</time></trkpt><trkpt lat="43.5145933" lon="12.38562"><ele>668.0</ele><time>2026-04-06T08:56:15.003Z</time></trkpt><trkpt lat="43.51469" lon="12.3855533"><ele>666.5999999999999</ele><time>2026-04-06T08:56:16.003Z</time></trkpt><trkpt lat="43.514775" lon="12.385505"><ele>665.1999999999999</ele><time>2026-04-06T08:56:17.003Z</time></trkpt><trkpt lat="43.5148617" lon="12.3854767"><ele>663.8</ele><time>2026-04-06T08:56:18.003Z</time></trkpt><trkpt lat="43.5149483" lon="12.3854833"><ele>662.4</ele><time>2026-04-06T08:56:19.003Z</time></trkpt><trkpt lat="43.5150433" lon="12.3855067"><ele>661.0</ele><time>2026-04-06T08:56:20.003Z</time></trkpt><trkpt lat="43.515145" lon="12.3855433"><ele>662.4</ele><time>2026-04-06T08:56:21.003Z</time></trkpt><trkpt lat="43.5152483" lon="12.3855483"><ele>663.8</ele><time>2026-04-06T08:56:22.002Z</time></trkpt><trkpt lat="43.51535" lon="12.3855283"><ele>665.1999999999999</ele><time>2026-04-06T08:56:23.003Z</time></trkpt><trkpt lat="43.51548" lon="12.3855083"><ele>666.5999999999999</ele><time>2026-04-06T08:56:24.003Z</time></trkpt><trkpt lat="43.5155833" lon="12.3854933"><ele>668.0</ele><time>2026-04-06T08:56:25.003Z</time></trkpt><trkpt lat="43.5156567" lon="12.3854733"><ele>671.4</ele><time>2026-04-06T08:56:26.003Z</time></trkpt><trkpt lat="43.51577" lon="12.3855333"><ele>674.8</ele><time>2026-04-06T08:56:28.003Z</time></trkpt><trkpt lat="43.5158233" lon="12.385615"><ele>678.2</ele><time>2026-04-06T08:56:29.003Z</time></trkpt><trkpt lat="43.5158733" lon="12.3857333"><ele>681.6</ele><time>2026-04-06T08:56:30.003Z</time></trkpt><trkpt lat="43.5159267" lon="12.38586"><ele>685.0</ele><time>2026-04-06T08:56:31.003Z</time></trkpt><trkpt lat="43.5159967" lon="12.38597"><ele>685.0</ele><time>2026-04-06T08:56:32.003Z</time></trkpt><trkpt lat="43.5160667" lon="12.3860633"><ele>685.0</ele><time>2026-04-06T08:56:33.003Z</time></trkpt><trkpt lat="43.516155" lon="12.38614"><ele>685.0</ele><time>2026-04-06T08:56:34.003Z</time></trkpt><trkpt lat="43.5162417" lon="12.3861817"><ele>685.0</ele><time>2026-04-06T08:56:35.003Z</time></trkpt><trkpt lat="43.5163167" lon="12.3862017"><ele>685.0</ele><time>2026-04-06T08:56:36.003Z</time></trkpt><trkpt lat="43.5164133" lon="12.3862033"><ele>684.8571428571428</ele><time>2026-04-06T08:56:37.003Z</time></trkpt><trkpt lat="43.5165" lon="12.3862033"><ele>684.7142857142858</ele><time>2026-04-06T08:56:38.003Z</time></trkpt><trkpt lat="43.51657" lon="12.3862433"><ele>684.5714285714286</ele><time>2026-04-06T08:56:39.003Z</time></trkpt><trkpt lat="43.51662" lon="12.3862983"><ele>684.4285714285713</ele><time>2026-04-06T08:56:40.003Z</time></trkpt><trkpt lat="43.5166483" lon="12.386385"><ele>684.2857142857142</ele><time>2026-04-06T08:56:41.003Z</time></trkpt><trkpt lat="43.5166633" lon="12.3864733"><ele>684.1428571428571</ele><time>2026-04-06T08:56:42.003Z</time></trkpt><trkpt lat="43.51665" lon="12.3865817"><ele>684.0</ele><time>2026-04-06T08:56:43.003Z</time></trkpt><trkpt lat="43.5166083" lon="12.3867117"><ele>684.0</ele><time>2026-04-06T08:56:44.003Z</time></trkpt><trkpt lat="43.516545" lon="12.38687"><ele>684.0</ele><time>2026-04-06T08:56:45.003Z</time></trkpt><trkpt lat="43.51647" lon="12.3870317"><ele>684.0</ele><time>2026-04-06T08:56:46.003Z</time></trkpt><trkpt lat="43.5164133" lon="12.3871717"><ele>684.0</ele><time>2026-04-06T08:56:47.003Z</time></trkpt><trkpt lat="43.5163717" lon="12.38729"><ele>685.2</ele><time>2026-04-06T08:56:48.003Z</time></trkpt><trkpt lat="43.5163417" lon="12.3874"><ele>686.4000000000001</ele><time>2026-04-06T08:56:49.003Z</time></trkpt><trkpt lat="43.5163217" lon="12.3875133"><ele>687.6</ele><time>2026-04-06T08:56:50.003Z</time></trkpt><trkpt lat="43.5163117" lon="12.3876417"><ele>688.8</ele><time>2026-04-06T08:56:51.003Z</time></trkpt><trkpt lat="43.5163233" lon="12.3877683"><ele>690.0</ele><time>2026-04-06T08:56:52.003Z</time></trkpt><trkpt lat="43.5163567" lon="12.3878917"><ele>693.2</ele><time>2026-04-06T08:56:53.003Z</time></trkpt><trkpt lat="43.5164283" lon="12.3880233"><ele>696.4</ele><time>2026-04-06T08:56:54.003Z</time></trkpt><trkpt lat="43.5164967" lon="12.38813"><ele>699.5999999999999</ele><time>2026-04-06T08:56:55.003Z</time></trkpt><trkpt lat="43.5165683" lon="12.388205"><ele>702.8</ele><time>2026-04-06T08:56:56.003Z</time></trkpt><trkpt lat="43.5166433" lon="12.3882683"><ele>706.0</ele><time>2026-04-06T08:56:57.003Z</time></trkpt><trkpt lat="43.5167467" lon="12.3883117"><ele>706.0</ele><time>2026-04-06T08:56:58.003Z</time></trkpt><trkpt lat="43.516835" lon="12.3883567"><ele>706.0</ele><time>2026-04-06T08:56:59.003Z</time></trkpt><trkpt lat="43.5169267" lon="12.3884233"><ele>706.0</ele><time>2026-04-06T08:57:00.003Z</time></trkpt><trkpt lat="43.5170233" lon="12.3884867"><ele>706.0</ele><time>2026-04-06T08:57:01.003Z</time></trkpt><trkpt lat="43.5171267" lon="12.3885117"><ele>706.0</ele><time>2026-04-06T08:57:02.003Z</time></trkpt><trkpt lat="43.5172367" lon="12.3885117"><ele>704.4</ele><time>2026-04-06T08:57:03.003Z</time></trkpt><trkpt lat="43.5173533" lon="12.3884883"><ele>702.8</ele><time>2026-04-06T08:57:04.003Z</time></trkpt><trkpt lat="43.5174667" lon="12.388425"><ele>701.1999999999999</ele><time>2026-04-06T08:57:05.003Z</time></trkpt><trkpt lat="43.51755" lon="12.3884067"><ele>699.5999999999999</ele><time>2026-04-06T08:57:06.003Z</time></trkpt><trkpt lat="43.5176433" lon="12.3884617"><ele>698.0</ele><time>2026-04-06T08:57:08.003Z</time></trkpt><trkpt lat="43.5176767" lon="12.3886333"><ele>698.0</ele><time>2026-04-06T08:57:10.003Z</time></trkpt><trkpt lat="43.517685" lon="12.3887617"><ele>698.0</ele><time>2026-04-06T08:57:11.003Z</time></trkpt><trkpt lat="43.5177067" lon="12.3889083"><ele>698.0</ele><time>2026-04-06T08:57:12.003Z</time></trkpt><trkpt lat="43.5177417" lon="12.3890483"><ele>698.0</ele><time>2026-04-06T08:57:13.003Z</time></trkpt><trkpt lat="43.517765" lon="12.389155"><ele>698.0</ele><time>2026-04-06T08:57:14.002Z</time></trkpt><trkpt lat="43.5177683" lon="12.3892533"><ele>700.8</ele><time>2026-04-06T08:57:15.002Z</time></trkpt><trkpt lat="43.5177317" lon="12.3894133"><ele>703.5999999999999</ele><time>2026-04-06T08:57:17.002Z</time></trkpt><trkpt lat="43.5177317" lon="12.3895667"><ele>706.4000000000001</ele><time>2026-04-06T08:57:19.002Z</time></trkpt><trkpt lat="43.5177617" lon="12.3897033"><ele>709.2</ele><time>2026-04-06T08:57:21.002Z</time></trkpt><trkpt lat="43.51781" lon="12.38976"><ele>712.0</ele><time>2026-04-06T08:57:22.002Z</time></trkpt><trkpt lat="43.5178833" lon="12.3898083"><ele>710.4000000000001</ele><time>2026-04-06T08:57:23.002Z</time></trkpt><trkpt lat="43.5179683" lon="12.389855"><ele>708.8000000000001</ele><time>2026-04-06T08:57:24.002Z</time></trkpt><trkpt lat="43.5180467" lon="12.3898867"><ele>707.2</ele><time>2026-04-06T08:57:25.002Z</time></trkpt><trkpt lat="43.5181367" lon="12.3898817"><ele>705.6</ele><time>2026-04-06T08:57:26.002Z</time></trkpt><trkpt lat="43.518245" lon="12.3898683"><ele>704.0</ele><time>2026-04-06T08:57:27.002Z</time></trkpt><trkpt lat="43.5183467" lon="12.3898183"><ele>704.0</ele><time>2026-04-06T08:57:28.002Z</time></trkpt><trkpt lat="43.5184417" lon="12.3897467"><ele>704.0</ele><time>2026-04-06T08:57:29.002Z</time></trkpt><trkpt lat="43.5185467" lon="12.3896517"><ele>704.0</ele><time>2026-04-06T08:57:30.002Z</time></trkpt><trkpt lat="43.5186383" lon="12.389565"><ele>704.0</ele><time>2026-04-06T08:57:31.002Z</time></trkpt><trkpt lat="43.5187267" lon="12.389485"><ele>700.0</ele><time>2026-04-06T08:57:32.002Z</time></trkpt><trkpt lat="43.518805" lon="12.3894433"><ele>696.0</ele><time>2026-04-06T08:57:33.002Z</time></trkpt><trkpt lat="43.5188767" lon="12.3894383"><ele>692.0</ele><time>2026-04-06T08:57:34.002Z</time></trkpt><trkpt lat="43.5189667" lon="12.3895217"><ele>688.0</ele><time>2026-04-06T08:57:36.002Z</time></trkpt><trkpt lat="43.5189867" lon="12.3896717"><ele>684.0</ele><time>2026-04-06T08:57:38.002Z</time></trkpt><trkpt lat="43.5189617" lon="12.3897967"><ele>684.0</ele><time>2026-04-06T08:57:39.002Z</time></trkpt><trkpt lat="43.5189283" lon="12.3899433"><ele>684.0</ele><time>2026-04-06T08:57:40.002Z</time></trkpt><trkpt lat="43.5188883" lon="12.3900967"><ele>684.0</ele><time>2026-04-06T08:57:41.002Z</time></trkpt><trkpt lat="43.5188383" lon="12.3902567"><ele>684.0</ele><time>2026-04-06T08:57:42.002Z</time></trkpt><trkpt lat="43.5187817" lon="12.3904233"><ele>691.75</ele><time>2026-04-06T08:57:43.002Z</time></trkpt><trkpt lat="43.5187167" lon="12.3905833"><ele>699.5</ele><time>2026-04-06T08:57:44.002Z</time></trkpt><trkpt lat="43.5186483" lon="12.3907333"><ele>707.25</ele><time>2026-04-06T08:57:45.002Z</time></trkpt><trkpt lat="43.5185917" lon="12.3908783"><ele>715.0</ele><time>2026-04-06T08:57:46.002Z</time></trkpt><trkpt lat="43.5185467" lon="12.3910367"><ele>715.0</ele><time>2026-04-06T08:57:47.002Z</time></trkpt><trkpt lat="43.5185067" lon="12.39119"><ele>715.0</ele><time>2026-04-06T08:57:48.002Z</time></trkpt><trkpt lat="43.51846" lon="12.39134"><ele>715.0</ele><time>2026-04-06T08:57:49.002Z</time></trkpt><trkpt lat="43.5184067" lon="12.39149"><ele>715.0</ele><time>2026-04-06T08:57:50.002Z</time></trkpt><trkpt lat="43.5183467" lon="12.3916517"><ele>714.5</ele><time>2026-04-06T08:57:51.002Z</time></trkpt><trkpt lat="43.5182933" lon="12.39182"><ele>714.0</ele><time>2026-04-06T08:57:52.002Z</time></trkpt><trkpt lat="43.5182467" lon="12.39199"><ele>713.5</ele><time>2026-04-06T08:57:53.002Z</time></trkpt><trkpt lat="43.518205" lon="12.3921217"><ele>713.0</ele><time>2026-04-06T08:57:54.002Z</time></trkpt><trkpt lat="43.5181633" lon="12.3922267"><ele>713.0</ele><time>2026-04-06T08:57:55.002Z</time></trkpt><trkpt lat="43.5181283" lon="12.392305"><ele>713.0</ele><time>2026-04-06T08:57:56.002Z</time></trkpt><trkpt lat="43.5181033" lon="12.39245"><ele>713.0</ele><time>2026-04-06T08:57:58.002Z</time></trkpt><trkpt lat="43.5181933" lon="12.3925767"><ele>713.0</ele><time>2026-04-06T08:58:00.002Z</time></trkpt><trkpt lat="43.51827" lon="12.39266"><ele>713.0</ele><time>2026-04-06T08:58:01.002Z</time></trkpt><trkpt lat="43.5183567" lon="12.3927383"><ele>713.0</ele><time>2026-04-06T08:58:02.002Z</time></trkpt><trkpt lat="43.51842" lon="12.392795"><ele>713.0</ele><time>2026-04-06T08:58:03.002Z</time></trkpt><trkpt lat="43.5185033" lon="12.39284"><ele>713.0</ele><time>2026-04-06T08:58:04.002Z</time></trkpt><trkpt lat="43.5185933" lon="12.3928683"><ele>713.0</ele><time>2026-04-06T08:58:05.002Z</time></trkpt><trkpt lat="43.518675" lon="12.3928633"><ele>713.0</ele><time>2026-04-06T08:58:06.002Z</time></trkpt><trkpt lat="43.518775" lon="12.3928417"><ele>713.0</ele><time>2026-04-06T08:58:07.002Z</time></trkpt><trkpt lat="43.5188817" lon="12.3927917"><ele>714.5</ele><time>2026-04-06T08:58:08.002Z</time></trkpt><trkpt lat="43.5189933" lon="12.39271"><ele>716.0</ele><time>2026-04-06T08:58:09.002Z</time></trkpt><trkpt lat="43.5191133" lon="12.392595"><ele>717.5</ele><time>2026-04-06T08:58:10.002Z</time></trkpt><trkpt lat="43.5192267" lon="12.3924883"><ele>719.0</ele><time>2026-04-06T08:58:11.002Z</time></trkpt><trkpt lat="43.5193267" lon="12.3924067"><ele>719.0</ele><time>2026-04-06T08:58:12.002Z</time></trkpt><trkpt lat="43.519415" lon="12.3923767"><ele>719.0</ele><time>2026-04-06T08:58:13.002Z</time></trkpt><trkpt lat="43.5195033" lon="12.39235"><ele>719.0</ele><time>2026-04-06T08:58:14.002Z</time></trkpt><trkpt lat="43.5196033" lon="12.3923283"><ele>719.0</ele><time>2026-04-06T08:58:15.002Z</time></trkpt><trkpt lat="43.5197167" lon="12.3922833"><ele>719.0</ele><time>2026-04-06T08:58:16.002Z</time></trkpt><trkpt lat="43.51983" lon="12.3922467"><ele>719.6</ele><time>2026-04-06T08:58:17.002Z</time></trkpt><trkpt lat="43.5199283" lon="12.39222"><ele>720.2</ele><time>2026-04-06T08:58:18.002Z</time></trkpt><trkpt lat="43.5200067" lon="12.3921983"><ele>720.8000000000001</ele><time>2026-04-06T08:58:19.002Z</time></trkpt><trkpt lat="43.5201033" lon="12.3922183"><ele>721.4000000000001</ele><time>2026-04-06T08:58:21.002Z</time></trkpt><trkpt lat="43.5201267" lon="12.3923483"><ele>722.0</ele><time>2026-04-06T08:58:23.002Z</time></trkpt><trkpt lat="43.5201083" lon="12.3925183"><ele>722.0</ele><time>2026-04-06T08:58:25.002Z</time></trkpt><trkpt lat="43.52009" lon="12.3926233"><ele>722.0</ele><time>2026-04-06T08:58:26.002Z</time></trkpt><trkpt lat="43.52007" lon="12.3927417"><ele>722.0</ele><time>2026-04-06T08:58:27.002Z</time></trkpt><trkpt lat="43.520055" lon="12.3928533"><ele>722.0</ele><time>2026-04-06T08:58:28.002Z</time></trkpt><trkpt lat="43.5200367" lon="12.3929567"><ele>722.0</ele><time>2026-04-06T08:58:29.002Z</time></trkpt><trkpt lat="43.5200083" lon="12.3930667"><ele>722.0</ele><time>2026-04-06T08:58:30.002Z</time></trkpt><trkpt lat="43.5199883" lon="12.3931783"><ele>723.0</ele><time>2026-04-06T08:58:31.002Z</time></trkpt><trkpt lat="43.5199717" lon="12.3933"><ele>724.0</ele><time>2026-04-06T08:58:32.002Z</time></trkpt><trkpt lat="43.5199683" lon="12.3934183"><ele>725.0</ele><time>2026-04-06T08:58:33.002Z</time></trkpt><trkpt lat="43.51996" lon="12.3935533"><ele>726.0</ele><time>2026-04-06T08:58:34.002Z</time></trkpt><trkpt lat="43.519955" lon="12.393695"><ele>727.0</ele><time>2026-04-06T08:58:35.002Z</time></trkpt><trkpt lat="43.5199483" lon="12.3938217"><ele>728.1666666666667</ele><time>2026-04-06T08:58:36.002Z</time></trkpt><trkpt lat="43.5199217" lon="12.3939167"><ele>729.3333333333334</ele><time>2026-04-06T08:58:37.002Z</time></trkpt><trkpt lat="43.5198883" lon="12.394"><ele>730.5</ele><time>2026-04-06T08:58:38.002Z</time></trkpt><trkpt lat="43.5198917" lon="12.394175"><ele>731.6666666666666</ele><time>2026-04-06T08:58:40.002Z</time></trkpt><trkpt lat="43.51989" lon="12.3942717"><ele>732.8333333333333</ele><time>2026-04-06T08:58:41.002Z</time></trkpt><trkpt lat="43.519945" lon="12.394325"><ele>734.0</ele><time>2026-04-06T08:58:42.002Z</time></trkpt><trkpt lat="43.5200117" lon="12.3943467"><ele>734.0</ele><time>2026-04-06T08:58:43.002Z</time></trkpt><trkpt lat="43.5200883" lon="12.3943367"><ele>734.0</ele><time>2026-04-06T08:58:44.002Z</time></trkpt><trkpt lat="43.5201483" lon="12.3943067"><ele>734.0</ele><time>2026-04-06T08:58:45.002Z</time></trkpt><trkpt lat="43.5202467" lon="12.3942767"><ele>734.0</ele><time>2026-04-06T08:58:47.002Z</time></trkpt><trkpt lat="43.5203667" lon="12.3942283"><ele>734.0</ele><time>2026-04-06T08:58:49.002Z</time></trkpt><trkpt lat="43.5204383" lon="12.3941833"><ele>734.0</ele><time>2026-04-06T08:58:50.002Z</time></trkpt><trkpt lat="43.5205267" lon="12.3941233"><ele>729.0</ele><time>2026-04-06T08:58:51.002Z</time></trkpt><trkpt lat="43.5206083" lon="12.3940483"><ele>724.0</ele><time>2026-04-06T08:58:52.002Z</time></trkpt><trkpt lat="43.5206733" lon="12.3939767"><ele>719.0</ele><time>2026-04-06T08:58:53.002Z</time></trkpt><trkpt lat="43.52078" lon="12.393915"><ele>714.0</ele><time>2026-04-06T08:58:55.002Z</time></trkpt><trkpt lat="43.520855" lon="12.39397"><ele>709.0</ele><time>2026-04-06T08:58:57.002Z</time></trkpt><trkpt lat="43.520885" lon="12.3941167"><ele>709.0</ele><time>2026-04-06T08:58:59.002Z</time></trkpt><trkpt lat="43.52089" lon="12.3942117"><ele>709.0</ele><time>2026-04-06T08:59:00.002Z</time></trkpt><trkpt lat="43.520895" lon="12.39433"><ele>709.0</ele><time>2026-04-06T08:59:01.002Z</time></trkpt><trkpt lat="43.5208967" lon="12.39446"><ele>709.0</ele><time>2026-04-06T08:59:02.002Z</time></trkpt><trkpt lat="43.5209033" lon="12.3945983"><ele>709.0</ele><time>2026-04-06T08:59:03.002Z</time></trkpt><trkpt lat="43.5209133" lon="12.3947183"><ele>709.0</ele><time>2026-04-06T08:59:04.002Z</time></trkpt><trkpt lat="43.5209283" lon="12.3948133"><ele>712.4000000000001</ele><time>2026-04-06T08:59:05.002Z</time></trkpt><trkpt lat="43.5209467" lon="12.394945"><ele>715.8</ele><time>2026-04-06T08:59:07.002Z</time></trkpt><trkpt lat="43.520965" lon="12.39506"><ele>719.2</ele><time>2026-04-06T08:59:10.002Z</time></trkpt><trkpt lat="43.520995" lon="12.3951967"><ele>722.5999999999999</ele><time>2026-04-06T08:59:13.002Z</time></trkpt><trkpt lat="43.5210383" lon="12.39538"><ele>726.0</ele><time>2026-04-06T08:59:15.002Z</time></trkpt><trkpt lat="43.5210683" lon="12.39548"><ele>726.6666666666666</ele><time>2026-04-06T08:59:16.002Z</time></trkpt><trkpt lat="43.5211067" lon="12.3955867"><ele>727.3333333333334</ele><time>2026-04-06T08:59:17.002Z</time></trkpt><trkpt lat="43.5211567" lon="12.39569"><ele>728.0</ele><time>2026-04-06T08:59:18.002Z</time></trkpt><trkpt lat="43.5212033" lon="12.3957917"><ele>728.6666666666667</ele><time>2026-04-06T08:59:19.002Z</time></trkpt><trkpt lat="43.5212433" lon="12.3958683"><ele>729.3333333333334</ele><time>2026-04-06T08:59:20.002Z</time></trkpt><trkpt lat="43.52127" lon="12.3959733"><ele>730.0</ele><time>2026-04-06T08:59:22.002Z</time></trkpt><trkpt lat="43.52124" lon="12.3960817"><ele>730.0</ele><time>2026-04-06T08:59:25.002Z</time></trkpt><trkpt lat="43.521135" lon="12.39612"><ele>730.0</ele><time>2026-04-06T08:59:27.002Z</time></trkpt><trkpt lat="43.5210517" lon="12.3961283"><ele>730.0</ele><time>2026-04-06T08:59:28.002Z</time></trkpt><trkpt lat="43.5209667" lon="12.3961383"><ele>730.0</ele><time>2026-04-06T08:59:29.001Z</time></trkpt><trkpt lat="43.5208833" lon="12.3961417"><ele>730.0</ele><time>2026-04-06T08:59:30.002Z</time></trkpt><trkpt lat="43.5208117" lon="12.3961633"><ele>730.0</ele><time>2026-04-06T08:59:31.002Z</time></trkpt><trkpt lat="43.5207133" lon="12.3962583"><ele>727.1666666666667</ele><time>2026-04-06T08:59:33.002Z</time></trkpt><trkpt lat="43.520685" lon="12.3964133"><ele>724.3333333333334</ele><time>2026-04-06T08:59:35.002Z</time></trkpt><trkpt lat="43.520665" lon="12.3965067"><ele>721.5</ele><time>2026-04-06T08:59:36.002Z</time></trkpt><trkpt lat="43.5206417" lon="12.39661"><ele>718.6666666666666</ele><time>2026-04-06T08:59:37.002Z</time></trkpt><trkpt lat="43.52062" lon="12.3967"><ele>715.8333333333333</ele><time>2026-04-06T08:59:38.002Z</time></trkpt><trkpt lat="43.520585" lon="12.3968367"><ele>713.0</ele><time>2026-04-06T08:59:40.002Z</time></trkpt><trkpt lat="43.5204983" lon="12.3968933"><ele>713.8</ele><time>2026-04-06T08:59:42.002Z</time></trkpt><trkpt lat="43.52037" lon="12.3969167"><ele>714.5999999999999</ele><time>2026-04-06T08:59:44.002Z</time></trkpt><trkpt lat="43.5202967" lon="12.396925"><ele>715.4000000000001</ele><time>2026-04-06T08:59:45.002Z</time></trkpt><trkpt lat="43.52023" lon="12.3969217"><ele>716.2</ele><time>2026-04-06T08:59:46.002Z</time></trkpt><trkpt lat="43.5201133" lon="12.396875"><ele>717.0</ele><time>2026-04-06T08:59:48.002Z</time></trkpt><trkpt lat="43.5200517" lon="12.3968367"><ele>717.0</ele><time>2026-04-06T08:59:49.002Z</time></trkpt><trkpt lat="43.5199917" lon="12.396795"><ele>717.0</ele><time>2026-04-06T08:59:50.002Z</time></trkpt><trkpt lat="43.51992" lon="12.3967633"><ele>717.0</ele><time>2026-04-06T08:59:51.002Z</time></trkpt><trkpt lat="43.5198033" lon="12.3967317"><ele>717.0</ele><time>2026-04-06T08:59:53.002Z</time></trkpt><trkpt lat="43.5197083" lon="12.3967167"><ele>717.0</ele><time>2026-04-06T08:59:54.002Z</time></trkpt><trkpt lat="43.5196217" lon="12.3967083"><ele>717.0</ele><time>2026-04-06T08:59:55.002Z</time></trkpt><trkpt lat="43.5195467" lon="12.39673"><ele>716.5</ele><time>2026-04-06T08:59:56.002Z</time></trkpt><trkpt lat="43.5194783" lon="12.396765"><ele>716.0</ele><time>2026-04-06T08:59:57.002Z</time></trkpt><trkpt lat="43.5194233" lon="12.39682"><ele>715.5</ele><time>2026-04-06T08:59:58.002Z</time></trkpt><trkpt lat="43.5193633" lon="12.39688"><ele>715.0</ele><time>2026-04-06T08:59:59.002Z</time></trkpt><trkpt lat="43.5192483" lon="12.396955"><ele>714.5</ele><time>2026-04-06T09:00:01.002Z</time></trkpt><trkpt lat="43.5191767" lon="12.3969683"><ele>714.0</ele><time>2026-04-06T09:00:02.002Z</time></trkpt><trkpt lat="43.519085" lon="12.3969683"><ele>714.0</ele><time>2026-04-06T09:00:03.002Z</time></trkpt><trkpt lat="43.519" lon="12.39696"><ele>714.0</ele><time>2026-04-06T09:00:04.002Z</time></trkpt><trkpt lat="43.5189167" lon="12.3969617"><ele>714.0</ele><time>2026-04-06T09:00:05.002Z</time></trkpt><trkpt lat="43.51885" lon="12.3969633"><ele>714.0</ele><time>2026-04-06T09:00:06.002Z</time></trkpt><trkpt lat="43.5187233" lon="12.3969083"><ele>714.0</ele><time>2026-04-06T09:00:08.002Z</time></trkpt><trkpt lat="43.5186583" lon="12.3968467"><ele>714.0</ele><time>2026-04-06T09:00:09.002Z</time></trkpt><trkpt lat="43.5185867" lon="12.3968067"><ele>712.6666666666666</ele><time>2026-04-06T09:00:10.002Z</time></trkpt><trkpt lat="43.5185067" lon="12.3967817"><ele>711.3333333333334</ele><time>2026-04-06T09:00:11.002Z</time></trkpt><trkpt lat="43.51842" lon="12.3967783"><ele>710.0</ele><time>2026-04-06T09:00:12.002Z</time></trkpt><trkpt lat="43.5183317" lon="12.3967917"><ele>708.6666666666667</ele><time>2026-04-06T09:00:13.002Z</time></trkpt><trkpt lat="43.5182467" lon="12.39682"><ele>707.3333333333334</ele><time>2026-04-06T09:00:14.001Z</time></trkpt><trkpt lat="43.5181617" lon="12.39686"><ele>706.0</ele><time>2026-04-06T09:00:15.002Z</time></trkpt><trkpt lat="43.5180833" lon="12.3969033"><ele>706.0</ele><time>2026-04-06T09:00:16.002Z</time></trkpt><trkpt lat="43.51802" lon="12.3969633"><ele>706.0</ele><time>2026-04-06T09:00:17.002Z</time></trkpt><trkpt lat="43.51797" lon="12.3970233"><ele>706.0</ele><time>2026-04-06T09:00:18.002Z</time></trkpt><trkpt lat="43.5178967" lon="12.3971083"><ele>706.0</ele><time>2026-04-06T09:00:20.002Z</time></trkpt><trkpt lat="43.5178" lon="12.39707"><ele>706.0</ele><time>2026-04-06T09:00:22.002Z</time></trkpt><trkpt lat="43.5177433" lon="12.397"><ele>706.0</ele><time>2026-04-06T09:00:23.002Z</time></trkpt><trkpt lat="43.5176867" lon="12.3969183"><ele>703.5999999999999</ele><time>2026-04-06T09:00:24.002Z</time></trkpt><trkpt lat="43.51764" lon="12.3968517"><ele>701.2</ele><time>2026-04-06T09:00:25.002Z</time></trkpt><trkpt lat="43.5175417" lon="12.3967733"><ele>698.8</ele><time>2026-04-06T09:00:27.002Z</time></trkpt><trkpt lat="43.5174683" lon="12.3967717"><ele>696.4000000000001</ele><time>2026-04-06T09:00:28.002Z</time></trkpt><trkpt lat="43.5173717" lon="12.396785"><ele>694.0</ele><time>2026-04-06T09:00:29.002Z</time></trkpt><trkpt lat="43.517265" lon="12.396815"><ele>694.0</ele><time>2026-04-06T09:00:30.002Z</time></trkpt><trkpt lat="43.517155" lon="12.3968383"><ele>694.0</ele><time>2026-04-06T09:00:31.002Z</time></trkpt><trkpt lat="43.517055" lon="12.39684"><ele>694.0</ele><time>2026-04-06T09:00:32.002Z</time></trkpt><trkpt lat="43.51697" lon="12.39682"><ele>694.0</ele><time>2026-04-06T09:00:33.002Z</time></trkpt><trkpt lat="43.51689" lon="12.3968167"><ele>694.0</ele><time>2026-04-06T09:00:34.002Z</time></trkpt><trkpt lat="43.5168183" lon="12.396835"><ele>694.0</ele><time>2026-04-06T09:00:35.002Z</time></trkpt><trkpt lat="43.5167083" lon="12.3968883"><ele>694.0</ele><time>2026-04-06T09:00:37.002Z</time></trkpt><trkpt lat="43.516655" lon="12.3969767"><ele>694.0</ele><time>2026-04-06T09:00:39.002Z</time></trkpt><trkpt lat="43.5166817" lon="12.3970917"><ele>694.0</ele><time>2026-04-06T09:00:41.002Z</time></trkpt><trkpt lat="43.51672" lon="12.3971633"><ele>694.0</ele><time>2026-04-06T09:00:42.002Z</time></trkpt><trkpt lat="43.5167767" lon="12.39724"><ele>694.0</ele><time>2026-04-06T09:00:43.002Z</time></trkpt><trkpt lat="43.51685" lon="12.3973183"><ele>693.3333333333334</ele><time>2026-04-06T09:00:44.002Z</time></trkpt><trkpt lat="43.5169267" lon="12.3973917"><ele>692.6666666666667</ele><time>2026-04-06T09:00:45.002Z</time></trkpt><trkpt lat="43.5170033" lon="12.39747"><ele>692.0</ele><time>2026-04-06T09:00:46.002Z</time></trkpt><trkpt lat="43.517065" lon="12.3975367"><ele>691.3333333333334</ele><time>2026-04-06T09:00:47.002Z</time></trkpt><trkpt lat="43.5171317" lon="12.397595"><ele>690.6666666666666</ele><time>2026-04-06T09:00:48.002Z</time></trkpt><trkpt lat="43.5172033" lon="12.3976417"><ele>690.0</ele><time>2026-04-06T09:00:49.002Z</time></trkpt><trkpt lat="43.5172883" lon="12.3976733"><ele>688.5</ele><time>2026-04-06T09:00:50.002Z</time></trkpt><trkpt lat="43.5173683" lon="12.3976967"><ele>687.0</ele><time>2026-04-06T09:00:51.002Z</time></trkpt><trkpt lat="43.5174433" lon="12.3977167"><ele>685.5</ele><time>2026-04-06T09:00:52.002Z</time></trkpt><trkpt lat="43.5175083" lon="12.3977417"><ele>684.0</ele><time>2026-04-06T09:00:53.002Z</time></trkpt><trkpt lat="43.5176017" lon="12.3978433"><ele>682.5</ele><time>2026-04-06T09:00:55.002Z</time></trkpt><trkpt lat="43.51763" lon="12.397925"><ele>681.0</ele><time>2026-04-06T09:00:56.002Z</time></trkpt><trkpt lat="43.5176567" lon="12.39801"><ele>681.0</ele><time>2026-04-06T09:00:57.002Z</time></trkpt><trkpt lat="43.5176767" lon="12.398105"><ele>681.0</ele><time>2026-04-06T09:00:58.002Z</time></trkpt><trkpt lat="43.517695" lon="12.3982167"><ele>681.0</ele><time>2026-04-06T09:00:59.002Z</time></trkpt><trkpt lat="43.5177283" lon="12.3983183"><ele>681.0</ele><time>2026-04-06T09:01:00.002Z</time></trkpt><trkpt lat="43.5177717" lon="12.398405"><ele>681.0</ele><time>2026-04-06T09:01:01.002Z</time></trkpt><trkpt lat="43.5178317" lon="12.398505"><ele>681.0</ele><time>2026-04-06T09:01:02.002Z</time></trkpt><trkpt lat="43.5179117" lon="12.398605"><ele>679.3333333333334</ele><time>2026-04-06T09:01:03.002Z</time></trkpt><trkpt lat="43.517995" lon="12.398695"><ele>677.6666666666666</ele><time>2026-04-06T09:01:04.002Z</time></trkpt><trkpt lat="43.5180733" lon="12.3987617"><ele>676.0</ele><time>2026-04-06T09:01:05.002Z</time></trkpt><trkpt lat="43.5181517" lon="12.39882"><ele>674.3333333333333</ele><time>2026-04-06T09:01:06.002Z</time></trkpt><trkpt lat="43.5182133" lon="12.398865"><ele>672.6666666666666</ele><time>2026-04-06T09:01:07.002Z</time></trkpt><trkpt lat="43.5182667" lon="12.3989133"><ele>671.0</ele><time>2026-04-06T09:01:08.002Z</time></trkpt><trkpt lat="43.51831" lon="12.3990467"><ele>671.0</ele><time>2026-04-06T09:01:10.002Z</time></trkpt><trkpt lat="43.5182983" lon="12.3991367"><ele>671.0</ele><time>2026-04-06T09:01:11.002Z</time></trkpt><trkpt lat="43.5182933" lon="12.3993117"><ele>671.0</ele><time>2026-04-06T09:01:13.002Z</time></trkpt><trkpt lat="43.518315" lon="12.3994083"><ele>671.0</ele><time>2026-04-06T09:01:14.002Z</time></trkpt><trkpt lat="43.5183617" lon="12.3995133"><ele>671.0</ele><time>2026-04-06T09:01:15.002Z</time></trkpt><trkpt lat="43.5184067" lon="12.39961"><ele>671.0</ele><time>2026-04-06T09:01:16.002Z</time></trkpt><trkpt lat="43.5184617" lon="12.3997067"><ele>671.1999999999999</ele><time>2026-04-06T09:01:17.002Z</time></trkpt><trkpt lat="43.518525" lon="12.3997883"><ele>671.4</ele><time>2026-04-06T09:01:18.002Z</time></trkpt><trkpt lat="43.5185833" lon="12.3998683"><ele>671.6</ele><time>2026-04-06T09:01:19.002Z</time></trkpt><trkpt lat="43.5186433" lon="12.3999483"><ele>671.8</ele><time>2026-04-06T09:01:20.002Z</time></trkpt><trkpt lat="43.5187067" lon="12.400015"><ele>672.0</ele><time>2026-04-06T09:01:21.002Z</time></trkpt><trkpt lat="43.518825" lon="12.4000683"><ele>672.0</ele><time>2026-04-06T09:01:23.002Z</time></trkpt><trkpt lat="43.5189217" lon="12.4001483"><ele>672.0</ele><time>2026-04-06T09:01:25.002Z</time></trkpt><trkpt lat="43.5189933" lon="12.4002933"><ele>672.0</ele><time>2026-04-06T09:01:27.002Z</time></trkpt><trkpt lat="43.5190333" lon="12.4003867"><ele>672.0</ele><time>2026-04-06T09:01:28.002Z</time></trkpt><trkpt lat="43.519085" lon="12.400455"><ele>672.0</ele><time>2026-04-06T09:01:29.002Z</time></trkpt><trkpt lat="43.5191683" lon="12.4005067"><ele>675.0</ele><time>2026-04-06T09:01:30.002Z</time></trkpt><trkpt lat="43.5192683" lon="12.4005467"><ele>678.0</ele><time>2026-04-06T09:01:31.002Z</time></trkpt><trkpt lat="43.5193717" lon="12.4005817"><ele>681.0</ele><time>2026-04-06T09:01:32.002Z</time></trkpt><trkpt lat="43.5194967" lon="12.4005767"><ele>684.0</ele><time>2026-04-06T09:01:33.002Z</time></trkpt><trkpt lat="43.5196233" lon="12.400565"><ele>684.0</ele><time>2026-04-06T09:01:34.002Z</time></trkpt><trkpt lat="43.51975" lon="12.400545"><ele>684.0</ele><time>2026-04-06T09:01:35.002Z</time></trkpt><trkpt lat="43.5198717" lon="12.40054"><ele>684.0</ele><time>2026-04-06T09:01:36.002Z</time></trkpt><trkpt lat="43.5199883" lon="12.4005533"><ele>684.0</ele><time>2026-04-06T09:01:37.002Z</time></trkpt><trkpt lat="43.5200933" lon="12.4005833"><ele>684.0</ele><time>2026-04-06T09:01:38.002Z</time></trkpt><trkpt lat="43.5201783" lon="12.4006133"><ele>684.0</ele><time>2026-04-06T09:01:39.002Z</time></trkpt><trkpt lat="43.520265" lon="12.4006333"><ele>684.0</ele><time>2026-04-06T09:01:40.002Z</time></trkpt><trkpt lat="43.5203567" lon="12.4006283"><ele>684.0</ele><time>2026-04-06T09:01:41.002Z</time></trkpt><trkpt lat="43.5204467" lon="12.400595"><ele>684.0</ele><time>2026-04-06T09:01:42.002Z</time></trkpt><trkpt lat="43.5205317" lon="12.40053"><ele>677.2</ele><time>2026-04-06T09:01:43.002Z</time></trkpt><trkpt lat="43.520615" lon="12.400455"><ele>670.4000000000001</ele><time>2026-04-06T09:01:44.002Z</time></trkpt><trkpt lat="43.5206917" lon="12.4003833"><ele>663.6</ele><time>2026-04-06T09:01:45.002Z</time></trkpt><trkpt lat="43.5207633" lon="12.400335"><ele>656.8</ele><time>2026-04-06T09:01:46.002Z</time></trkpt><trkpt lat="43.5208333" lon="12.400335"><ele>650.0</ele><time>2026-04-06T09:01:47.002Z</time></trkpt><trkpt lat="43.5209367" lon="12.4004083"><ele>655.2</ele><time>2026-04-06T09:01:49.002Z</time></trkpt><trkpt lat="43.5209917" lon="12.40055"><ele>660.4</ele><time>2026-04-06T09:01:51.002Z</time></trkpt><trkpt lat="43.5210067" lon="12.40064"><ele>665.5999999999999</ele><time>2026-04-06T09:01:52.002Z</time></trkpt><trkpt lat="43.5210233" lon="12.400745"><ele>670.8</ele><time>2026-04-06T09:01:54.002Z</time></trkpt><trkpt lat="43.52114" lon="12.4007867"><ele>676.0</ele><time>2026-04-06T09:02:06.002Z</time></trkpt><trkpt lat="43.52122" lon="12.4007933"><ele>674.5999999999999</ele><time>2026-04-06T09:02:08.002Z</time></trkpt><trkpt lat="43.5212983" lon="12.4007767"><ele>673.2</ele><time>2026-04-06T09:02:10.002Z</time></trkpt><trkpt lat="43.5213733" lon="12.40073"><ele>671.8</ele><time>2026-04-06T09:02:12.002Z</time></trkpt><trkpt lat="43.5214633" lon="12.40066"><ele>670.4000000000001</ele><time>2026-04-06T09:02:14.002Z</time></trkpt><trkpt lat="43.5215667" lon="12.4005833"><ele>669.0</ele><time>2026-04-06T09:02:16.002Z</time></trkpt><trkpt lat="43.521665" lon="12.4006117"><ele>669.0</ele><time>2026-04-06T09:02:18.002Z</time></trkpt><trkpt lat="43.5217233" lon="12.400665"><ele>669.0</ele><time>2026-04-06T09:02:19.002Z</time></trkpt><trkpt lat="43.5217983" lon="12.400725"><ele>669.0</ele><time>2026-04-06T09:02:20.002Z</time></trkpt><trkpt lat="43.5218983" lon="12.4007683"><ele>669.0</ele><time>2026-04-06T09:02:21.002Z</time></trkpt><trkpt lat="43.521995" lon="12.4007833"><ele>669.0</ele><time>2026-04-06T09:02:22.002Z</time></trkpt><trkpt lat="43.5220967" lon="12.400775"><ele>665.8000000000001</ele><time>2026-04-06T09:02:23.002Z</time></trkpt><trkpt lat="43.5221833" lon="12.4007783"><ele>662.6</ele><time>2026-04-06T09:02:24.002Z</time></trkpt><trkpt lat="43.5222583" lon="12.400795"><ele>659.4</ele><time>2026-04-06T09:02:25.002Z</time></trkpt><trkpt lat="43.5223583" lon="12.4008683"><ele>656.2</ele><time>2026-04-06T09:02:27.002Z</time></trkpt><trkpt lat="43.5224133" lon="12.4010217"><ele>653.0</ele><time>2026-04-06T09:02:29.002Z</time></trkpt><trkpt lat="43.5224267" lon="12.401165"><ele>653.0</ele><time>2026-04-06T09:02:31.002Z</time></trkpt><trkpt lat="43.522425" lon="12.4013"><ele>653.0</ele><time>2026-04-06T09:02:33.002Z</time></trkpt><trkpt lat="43.5224417" lon="12.40146"><ele>653.0</ele><time>2026-04-06T09:02:35.002Z</time></trkpt><trkpt lat="43.5224717" lon="12.4015483"><ele>653.0</ele><time>2026-04-06T09:02:36.002Z</time></trkpt><trkpt lat="43.522535" lon="12.4016483"><ele>653.0</ele><time>2026-04-06T09:02:37.002Z</time></trkpt><trkpt lat="43.5226067" lon="12.40171"><ele>655.4</ele><time>2026-04-06T09:02:38.002Z</time></trkpt><trkpt lat="43.5226883" lon="12.4017433"><ele>657.8</ele><time>2026-04-06T09:02:39.002Z</time></trkpt><trkpt lat="43.5227817" lon="12.4017533"><ele>660.2</ele><time>2026-04-06T09:02:40.002Z</time></trkpt><trkpt lat="43.5228767" lon="12.40175"><ele>662.6</ele><time>2026-04-06T09:02:41.001Z</time></trkpt><trkpt lat="43.5230067" lon="12.4016983"><ele>665.0</ele><time>2026-04-06T09:02:42.002Z</time></trkpt><trkpt lat="43.52313" lon="12.4016333"><ele>665.0</ele><time>2026-04-06T09:02:43.002Z</time></trkpt><trkpt lat="43.5232367" lon="12.401585"><ele>665.0</ele><time>2026-04-06T09:02:44.002Z</time></trkpt><trkpt lat="43.5233233" lon="12.4015667"><ele>665.0</ele><time>2026-04-06T09:02:45.002Z</time></trkpt><trkpt lat="43.5234017" lon="12.401575"><ele>665.0</ele><time>2026-04-06T09:02:46.002Z</time></trkpt><trkpt lat="43.52348" lon="12.4015917"><ele>665.0</ele><time>2026-04-06T09:02:47.002Z</time></trkpt><trkpt lat="43.5235567" lon="12.401605"><ele>665.0</ele><time>2026-04-06T09:02:48.002Z</time></trkpt><trkpt lat="43.523625" lon="12.4016083"><ele>662.2</ele><time>2026-04-06T09:02:49.002Z</time></trkpt><trkpt lat="43.5237467" lon="12.4016767"><ele>659.4</ele><time>2026-04-06T09:02:51.002Z</time></trkpt><trkpt lat="43.52381" lon="12.4017683"><ele>656.5999999999999</ele><time>2026-04-06T09:02:52.002Z</time></trkpt><trkpt lat="43.5238717" lon="12.401875"><ele>653.8</ele><time>2026-04-06T09:02:53.002Z</time></trkpt><trkpt lat="43.523925" lon="12.40197"><ele>651.0</ele><time>2026-04-06T09:02:54.002Z</time></trkpt><trkpt lat="43.5239883" lon="12.4020667"><ele>653.0</ele><time>2026-04-06T09:02:55.002Z</time></trkpt><trkpt lat="43.5240467" lon="12.4021733"><ele>655.0</ele><time>2026-04-06T09:02:56.002Z</time></trkpt><trkpt lat="43.5241" lon="12.4022783"><ele>657.0</ele><time>2026-04-06T09:02:57.002Z</time></trkpt><trkpt lat="43.524145" lon="12.4023717"><ele>659.0</ele><time>2026-04-06T09:02:58.002Z</time></trkpt><trkpt lat="43.5241967" lon="12.4024533"><ele>661.0</ele><time>2026-04-06T09:02:59.002Z</time></trkpt><trkpt lat="43.5242567" lon="12.402515"><ele>663.0</ele><time>2026-04-06T09:03:00.002Z</time></trkpt><trkpt lat="43.5243233" lon="12.4025633"><ele>663.0</ele><time>2026-04-06T09:03:01.002Z</time></trkpt><trkpt lat="43.5243867" lon="12.40259"><ele>663.0</ele><time>2026-04-06T09:03:02.002Z</time></trkpt><trkpt lat="43.5245267" lon="12.4025517"><ele>663.0</ele><time>2026-04-06T09:03:04.002Z</time></trkpt><trkpt lat="43.52461" lon="12.4024833"><ele>663.0</ele><time>2026-04-06T09:03:05.002Z</time></trkpt><trkpt lat="43.524685" lon="12.4023833"><ele>663.0</ele><time>2026-04-06T09:03:06.002Z</time></trkpt><trkpt lat="43.52475" lon="12.40225"><ele>661.8333333333334</ele><time>2026-04-06T09:03:07.002Z</time></trkpt><trkpt lat="43.5248133" lon="12.40216"><ele>660.6666666666666</ele><time>2026-04-06T09:03:08.002Z</time></trkpt><trkpt lat="43.5248683" lon="12.4021067"><ele>659.5</ele><time>2026-04-06T09:03:09.002Z</time></trkpt><trkpt lat="43.5249567" lon="12.4021517"><ele>658.3333333333333</ele><time>2026-04-06T09:03:11.002Z</time></trkpt><trkpt lat="43.5249883" lon="12.4022383"><ele>657.1666666666666</ele><time>2026-04-06T09:03:12.002Z</time></trkpt><trkpt lat="43.5250067" lon="12.4023233"><ele>656.0</ele><time>2026-04-06T09:03:13.002Z</time></trkpt><trkpt lat="43.5250333" lon="12.40242"><ele>656.0</ele><time>2026-04-06T09:03:14.002Z</time></trkpt><trkpt lat="43.5250633" lon="12.40252"><ele>656.0</ele><time>2026-04-06T09:03:15.002Z</time></trkpt><trkpt lat="43.5250883" lon="12.4026033"><ele>656.0</ele><time>2026-04-06T09:03:16.002Z</time></trkpt><trkpt lat="43.5251" lon="12.4027367"><ele>656.0</ele><time>2026-04-06T09:03:18.002Z</time></trkpt><trkpt lat="43.5252233" lon="12.402675"><ele>656.0</ele><time>2026-04-06T09:05:39.002Z</time></trkpt><trkpt lat="43.52533" lon="12.4026233"><ele>656.0</ele><time>2026-04-06T09:05:51.002Z</time></trkpt><trkpt lat="43.5253917" lon="12.40257"><ele>656.0</ele><time>2026-04-06T09:05:52.002Z</time></trkpt><trkpt lat="43.525465" lon="12.4025017"><ele>656.0</ele><time>2026-04-06T09:05:53.002Z</time></trkpt><trkpt lat="43.5255317" lon="12.4024233"><ele>656.0</ele><time>2026-04-06T09:05:54.002Z</time></trkpt><trkpt lat="43.5255767" lon="12.4023533"><ele>656.0</ele><time>2026-04-06T09:05:55.002Z</time></trkpt><trkpt lat="43.5256133" lon="12.402275"><ele>656.0</ele><time>2026-04-06T09:05:56.002Z</time></trkpt><trkpt lat="43.525635" lon="12.4021883"><ele>652.6666666666666</ele><time>2026-04-06T09:05:57.002Z</time></trkpt><trkpt lat="43.525645" lon="12.4020767"><ele>649.3333333333333</ele><time>2026-04-06T09:05:58.002Z</time></trkpt><trkpt lat="43.5256467" lon="12.4019717"><ele>646.0</ele><time>2026-04-06T09:05:59.002Z</time></trkpt><trkpt lat="43.52565" lon="12.4018833"><ele>642.6666666666666</ele><time>2026-04-06T09:06:00.002Z</time></trkpt><trkpt lat="43.5256833" lon="12.4017567"><ele>639.3333333333334</ele><time>2026-04-06T09:06:02.002Z</time></trkpt><trkpt lat="43.5257417" lon="12.4017167"><ele>636.0</ele><time>2026-04-06T09:06:04.002Z</time></trkpt><trkpt lat="43.5258233" lon="12.4017117"><ele>636.0</ele><time>2026-04-06T09:06:06.002Z</time></trkpt><trkpt lat="43.525945" lon="12.4017033"><ele>636.0</ele><time>2026-04-06T09:06:08.002Z</time></trkpt><trkpt lat="43.5260367" lon="12.4016717"><ele>636.0</ele><time>2026-04-06T09:06:09.002Z</time></trkpt><trkpt lat="43.5261583" lon="12.40161"><ele>636.0</ele><time>2026-04-06T09:06:10.002Z</time></trkpt><trkpt lat="43.52628" lon="12.4016067"><ele>636.5</ele><time>2026-04-06T09:06:11.001Z</time></trkpt><trkpt lat="43.526395" lon="12.4015867"><ele>637.0</ele><time>2026-04-06T09:06:12.002Z</time></trkpt><trkpt lat="43.5264983" lon="12.4015717"><ele>637.5</ele><time>2026-04-06T09:06:13.002Z</time></trkpt><trkpt lat="43.5266183" lon="12.40151"><ele>638.0</ele><time>2026-04-06T09:06:14.002Z</time></trkpt><trkpt lat="43.526725" lon="12.4014467"><ele>638.0</ele><time>2026-04-06T09:06:15.002Z</time></trkpt><trkpt lat="43.5268067" lon="12.4013967"><ele>638.0</ele><time>2026-04-06T09:06:16.002Z</time></trkpt><trkpt lat="43.52688" lon="12.4013467"><ele>638.0</ele><time>2026-04-06T09:06:17.002Z</time></trkpt><trkpt lat="43.5269467" lon="12.4013117"><ele>638.0</ele><time>2026-04-06T09:06:18.002Z</time></trkpt><trkpt lat="43.5270417" lon="12.4013933"><ele>638.0</ele><time>2026-04-06T09:06:20.002Z</time></trkpt><trkpt lat="43.5270867" lon="12.4015433"><ele>638.0</ele><time>2026-04-06T09:06:22.002Z</time></trkpt><trkpt lat="43.5270833" lon="12.4016733"><ele>638.0</ele><time>2026-04-06T09:06:23.002Z</time></trkpt><trkpt lat="43.5270633" lon="12.40183"><ele>638.0</ele><time>2026-04-06T09:06:24.002Z</time></trkpt><trkpt lat="43.5270233" lon="12.4020117"><ele>638.0</ele><time>2026-04-06T09:06:25.002Z</time></trkpt><trkpt lat="43.5269917" lon="12.4021683"><ele>641.0</ele><time>2026-04-06T09:06:26.002Z</time></trkpt><trkpt lat="43.5269683" lon="12.4023117"><ele>644.0</ele><time>2026-04-06T09:06:27.002Z</time></trkpt><trkpt lat="43.526955" lon="12.4024667"><ele>647.0</ele><time>2026-04-06T09:06:28.002Z</time></trkpt><trkpt lat="43.5269533" lon="12.40262"><ele>650.0</ele><time>2026-04-06T09:06:29.002Z</time></trkpt><trkpt lat="43.52695" lon="12.402765"><ele>653.0</ele><time>2026-04-06T09:06:30.002Z</time></trkpt><trkpt lat="43.5269367" lon="12.4029017"><ele>653.6666666666666</ele><time>2026-04-06T09:06:31.002Z</time></trkpt><trkpt lat="43.526925" lon="12.4030167"><ele>654.3333333333333</ele><time>2026-04-06T09:06:32.002Z</time></trkpt><trkpt lat="43.5269067" lon="12.4031233"><ele>655.0</ele><time>2026-04-06T09:06:33.002Z</time></trkpt><trkpt lat="43.5269067" lon="12.4032233"><ele>655.6666666666666</ele><time>2026-04-06T09:06:34.002Z</time></trkpt><trkpt lat="43.526925" lon="12.403315"><ele>656.3333333333334</ele><time>2026-04-06T09:06:35.002Z</time></trkpt><trkpt lat="43.5269367" lon="12.4034017"><ele>657.0</ele><time>2026-04-06T09:06:36.002Z</time></trkpt><trkpt lat="43.5270317" lon="12.4034883"><ele>656.75</ele><time>2026-04-06T09:06:38.002Z</time></trkpt><trkpt lat="43.527155" lon="12.4034733"><ele>656.5</ele><time>2026-04-06T09:06:40.002Z</time></trkpt><trkpt lat="43.5272317" lon="12.403395"><ele>656.25</ele><time>2026-04-06T09:06:41.002Z</time></trkpt><trkpt lat="43.5273217" lon="12.40327"><ele>656.0</ele><time>2026-04-06T09:06:42.002Z</time></trkpt><trkpt lat="43.5274033" lon="12.4031333"><ele>656.0</ele><time>2026-04-06T09:06:43.002Z</time></trkpt><trkpt lat="43.5274833" lon="12.4030017"><ele>656.0</ele><time>2026-04-06T09:06:44.002Z</time></trkpt><trkpt lat="43.527555" lon="12.4028867"><ele>656.0</ele><time>2026-04-06T09:06:45.002Z</time></trkpt><trkpt lat="43.5276183" lon="12.402775"><ele>656.0</ele><time>2026-04-06T09:06:46.002Z</time></trkpt><trkpt lat="43.527675" lon="12.40268"><ele>656.0</ele><time>2026-04-06T09:06:47.002Z</time></trkpt><trkpt lat="43.527735" lon="12.4025867"><ele>654.5999999999999</ele><time>2026-04-06T09:06:48.002Z</time></trkpt><trkpt lat="43.5278083" lon="12.4025233"><ele>653.2</ele><time>2026-04-06T09:06:49.002Z</time></trkpt><trkpt lat="43.527895" lon="12.40248"><ele>651.8</ele><time>2026-04-06T09:06:50.002Z</time></trkpt><trkpt lat="43.527995" lon="12.4024633"><ele>650.4000000000001</ele><time>2026-04-06T09:06:51.002Z</time></trkpt><trkpt lat="43.5281083" lon="12.4024633"><ele>649.0</ele><time>2026-04-06T09:06:52.002Z</time></trkpt><trkpt lat="43.5282083" lon="12.402475"><ele>649.0</ele><time>2026-04-06T09:06:53.002Z</time></trkpt><trkpt lat="43.528295" lon="12.40248"><ele>649.0</ele><time>2026-04-06T09:06:54.002Z</time></trkpt><trkpt lat="43.52838" lon="12.4024783"><ele>649.0</ele><time>2026-04-06T09:06:55.002Z</time></trkpt><trkpt lat="43.528465" lon="12.402445"><ele>649.0</ele><time>2026-04-06T09:06:56.002Z</time></trkpt><trkpt lat="43.5285517" lon="12.40239"><ele>649.0</ele><time>2026-04-06T09:06:57.002Z</time></trkpt><trkpt lat="43.52866" lon="12.4023017"><ele>649.0</ele><time>2026-04-06T09:06:58.002Z</time></trkpt><trkpt lat="43.52876" lon="12.4022217"><ele>649.0</ele><time>2026-04-06T09:06:59.002Z</time></trkpt><trkpt lat="43.5288533" lon="12.4021683"><ele>649.0</ele><time>2026-04-06T09:07:00.002Z</time></trkpt><trkpt lat="43.528935" lon="12.4021417"><ele>649.0</ele><time>2026-04-06T09:07:01.002Z</time></trkpt><trkpt lat="43.5290133" lon="12.4021467"><ele>649.0</ele><time>2026-04-06T09:07:02.002Z</time></trkpt><trkpt lat="43.5290767" lon="12.4021667"><ele>649.0</ele><time>2026-04-06T09:07:03.002Z</time></trkpt><trkpt lat="43.529125" lon="12.4022283"><ele>649.0</ele><time>2026-04-06T09:07:04.002Z</time></trkpt><trkpt lat="43.5291783" lon="12.402305"><ele>649.0</ele><time>2026-04-06T09:07:05.002Z</time></trkpt><trkpt lat="43.529235" lon="12.4024217"><ele>649.0</ele><time>2026-04-06T09:07:06.002Z</time></trkpt><trkpt lat="43.529295" lon="12.402555"><ele>649.0</ele><time>2026-04-06T09:07:07.001Z</time></trkpt><trkpt lat="43.529335" lon="12.4026917"><ele>649.0</ele><time>2026-04-06T09:07:08.002Z</time></trkpt><trkpt lat="43.529345" lon="12.40283"><ele>649.0</ele><time>2026-04-06T09:07:09.002Z</time></trkpt><trkpt lat="43.5293467" lon="12.4029517"><ele>649.0</ele><time>2026-04-06T09:07:10.002Z</time></trkpt><trkpt lat="43.5293433" lon="12.4030683"><ele>649.0</ele><time>2026-04-06T09:07:11.002Z</time></trkpt><trkpt lat="43.52933" lon="12.40318"><ele>649.0</ele><time>2026-04-06T09:07:12.002Z</time></trkpt><trkpt lat="43.5293033" lon="12.4032933"><ele>649.0</ele><time>2026-04-06T09:07:13.002Z</time></trkpt><trkpt lat="43.5292717" lon="12.403415"><ele>649.0</ele><time>2026-04-06T09:07:14.002Z</time></trkpt><trkpt lat="43.5292467" lon="12.4035533"><ele>650.4000000000001</ele><time>2026-04-06T09:07:15.002Z</time></trkpt><trkpt lat="43.5292433" lon="12.4036633"><ele>651.8</ele><time>2026-04-06T09:07:16.002Z</time></trkpt><trkpt lat="43.529235" lon="12.4037633"><ele>653.2</ele><time>2026-04-06T09:07:17.002Z</time></trkpt><trkpt lat="43.5292267" lon="12.403855"><ele>654.5999999999999</ele><time>2026-04-06T09:07:18.002Z</time></trkpt><trkpt lat="43.529195" lon="12.4040067"><ele>656.0</ele><time>2026-04-06T09:07:20.002Z</time></trkpt><trkpt lat="43.5291233" lon="12.4041333"><ele>656.0</ele><time>2026-04-06T09:07:22.002Z</time></trkpt><trkpt lat="43.52907" lon="12.40421"><ele>656.0</ele><time>2026-04-06T09:07:23.002Z</time></trkpt><trkpt lat="43.52902" lon="12.404295"><ele>656.0</ele><time>2026-04-06T09:07:24.002Z</time></trkpt><trkpt lat="43.528975" lon="12.4043867"><ele>656.0</ele><time>2026-04-06T09:07:25.002Z</time></trkpt><trkpt lat="43.5289283" lon="12.4044917"><ele>656.0</ele><time>2026-04-06T09:07:26.002Z</time></trkpt><trkpt lat="43.52889" lon="12.404605"><ele>656.0</ele><time>2026-04-06T09:07:27.002Z</time></trkpt><trkpt lat="43.5288667" lon="12.40471"><ele>655.8</ele><time>2026-04-06T09:07:28.002Z</time></trkpt><trkpt lat="43.528845" lon="12.404825"><ele>655.5999999999999</ele><time>2026-04-06T09:07:29.002Z</time></trkpt><trkpt lat="43.5288283" lon="12.4049567"><ele>655.4</ele><time>2026-04-06T09:07:30.002Z</time></trkpt><trkpt lat="43.5288217" lon="12.4050967"><ele>655.2</ele><time>2026-04-06T09:07:31.002Z</time></trkpt><trkpt lat="43.5288033" lon="12.405235"><ele>655.0</ele><time>2026-04-06T09:07:32.002Z</time></trkpt><trkpt lat="43.5287933" lon="12.4053617"><ele>655.0</ele><time>2026-04-06T09:07:33.002Z</time></trkpt><trkpt lat="43.5287883" lon="12.4054667"><ele>655.0</ele><time>2026-04-06T09:07:34.002Z</time></trkpt><trkpt lat="43.528795" lon="12.4055567"><ele>655.0</ele><time>2026-04-06T09:07:35.002Z</time></trkpt><trkpt lat="43.5288017" lon="12.40566"><ele>655.0</ele><time>2026-04-06T09:07:36.002Z</time></trkpt><trkpt lat="43.5288267" lon="12.40575"><ele>655.0</ele><time>2026-04-06T09:07:37.002Z</time></trkpt><trkpt lat="43.5289183" lon="12.4058683"><ele>655.0</ele><time>2026-04-06T09:07:39.002Z</time></trkpt><trkpt lat="43.5289833" lon="12.4060117"><ele>656.4</ele><time>2026-04-06T09:07:41.002Z</time></trkpt><trkpt lat="43.529025" lon="12.4061333"><ele>657.8</ele><time>2026-04-06T09:07:43.002Z</time></trkpt><trkpt lat="43.5290783" lon="12.4061867"><ele>659.2</ele><time>2026-04-06T09:07:45.002Z</time></trkpt><trkpt lat="43.5291867" lon="12.4061317"><ele>660.6</ele><time>2026-04-06T09:07:47.002Z</time></trkpt><trkpt lat="43.5292733" lon="12.4060283"><ele>662.0</ele><time>2026-04-06T09:07:48.002Z</time></trkpt><trkpt lat="43.5293583" lon="12.4059"><ele>662.0</ele><time>2026-04-06T09:07:49.002Z</time></trkpt><trkpt lat="43.5294267" lon="12.4057783"><ele>662.0</ele><time>2026-04-06T09:07:50.002Z</time></trkpt><trkpt lat="43.529485" lon="12.40568"><ele>662.0</ele><time>2026-04-06T09:07:51.002Z</time></trkpt><trkpt lat="43.5295367" lon="12.4056083"><ele>662.0</ele><time>2026-04-06T09:07:52.002Z</time></trkpt><trkpt lat="43.5295933" lon="12.4055433"><ele>662.0</ele><time>2026-04-06T09:07:53.002Z</time></trkpt><trkpt lat="43.5297033" lon="12.405485"><ele>661.1666666666666</ele><time>2026-04-06T09:07:55.002Z</time></trkpt><trkpt lat="43.5297783" lon="12.4054967"><ele>660.3333333333333</ele><time>2026-04-06T09:07:56.002Z</time></trkpt><trkpt lat="43.5298617" lon="12.4055267"><ele>659.5</ele><time>2026-04-06T09:07:57.002Z</time></trkpt><trkpt lat="43.5299567" lon="12.4055683"><ele>658.6666666666666</ele><time>2026-04-06T09:07:58.002Z</time></trkpt><trkpt lat="43.5300483" lon="12.4056"><ele>657.8333333333334</ele><time>2026-04-06T09:07:59.002Z</time></trkpt><trkpt lat="43.5301367" lon="12.405605"><ele>657.0</ele><time>2026-04-06T09:08:00.002Z</time></trkpt><trkpt lat="43.53024" lon="12.4056067"><ele>657.0</ele><time>2026-04-06T09:08:01.002Z</time></trkpt><trkpt lat="43.5303267" lon="12.4056283"><ele>657.0</ele><time>2026-04-06T09:08:02.002Z</time></trkpt><trkpt lat="43.5303983" lon="12.405665"><ele>657.0</ele><time>2026-04-06T09:08:03.002Z</time></trkpt><trkpt lat="43.530485" lon="12.405705"><ele>657.0</ele><time>2026-04-06T09:08:04.002Z</time></trkpt><trkpt lat="43.5305733" lon="12.4057417"><ele>657.0</ele><time>2026-04-06T09:08:05.002Z</time></trkpt><trkpt lat="43.530675" lon="12.4057483"><ele>655.8</ele><time>2026-04-06T09:08:06.002Z</time></trkpt><trkpt lat="43.5307733" lon="12.4057567"><ele>654.6</ele><time>2026-04-06T09:08:07.002Z</time></trkpt><trkpt lat="43.5308733" lon="12.4057483"><ele>653.4</ele><time>2026-04-06T09:08:08.002Z</time></trkpt><trkpt lat="43.5309883" lon="12.4057417"><ele>652.1999999999999</ele><time>2026-04-06T09:08:09.002Z</time></trkpt><trkpt lat="43.5310967" lon="12.4057283"><ele>651.0</ele><time>2026-04-06T09:08:10.002Z</time></trkpt><trkpt lat="43.531185" lon="12.4057267"><ele>651.0</ele><time>2026-04-06T09:08:11.002Z</time></trkpt><trkpt lat="43.531245" lon="12.4057583"><ele>651.0</ele><time>2026-04-06T09:08:12.002Z</time></trkpt><trkpt lat="43.5313183" lon="12.4058767"><ele>651.0</ele><time>2026-04-06T09:08:14.002Z</time></trkpt><trkpt lat="43.531315" lon="12.4060583"><ele>651.0</ele><time>2026-04-06T09:08:16.002Z</time></trkpt><trkpt lat="43.5312783" lon="12.4061783"><ele>651.0</ele><time>2026-04-06T09:08:17.002Z</time></trkpt><trkpt lat="43.53121" lon="12.4063267"><ele>652.75</ele><time>2026-04-06T09:08:18.002Z</time></trkpt><trkpt lat="43.5311317" lon="12.4064833"><ele>654.5</ele><time>2026-04-06T09:08:19.002Z</time></trkpt><trkpt lat="43.5310567" lon="12.4066233"><ele>656.25</ele><time>2026-04-06T09:08:20.002Z</time></trkpt><trkpt lat="43.530975" lon="12.4067617"><ele>658.0</ele><time>2026-04-06T09:08:21.002Z</time></trkpt><trkpt lat="43.5309" lon="12.4068867"><ele>658.0</ele><time>2026-04-06T09:08:22.002Z</time></trkpt><trkpt lat="43.53083" lon="12.4069967"><ele>658.0</ele><time>2026-04-06T09:08:23.002Z</time></trkpt><trkpt lat="43.5307583" lon="12.40709"><ele>658.0</ele><time>2026-04-06T09:08:24.002Z</time></trkpt><trkpt lat="43.5306883" lon="12.4071733"><ele>658.0</ele><time>2026-04-06T09:08:25.002Z</time></trkpt><trkpt lat="43.530625" lon="12.40725"><ele>658.0</ele><time>2026-04-06T09:08:26.002Z</time></trkpt><trkpt lat="43.53057" lon="12.40733"><ele>657.2</ele><time>2026-04-06T09:08:27.001Z</time></trkpt><trkpt lat="43.530535" lon="12.4074117"><ele>656.4</ele><time>2026-04-06T09:08:28.002Z</time></trkpt><trkpt lat="43.5305033" lon="12.407575"><ele>655.6</ele><time>2026-04-06T09:08:30.002Z</time></trkpt><trkpt lat="43.5305233" lon="12.40775"><ele>654.8000000000001</ele><time>2026-04-06T09:08:32.002Z</time></trkpt><trkpt lat="43.5305383" lon="12.407845"><ele>654.0</ele><time>2026-04-06T09:08:33.002Z</time></trkpt><trkpt lat="43.5305483" lon="12.4079417"><ele>655.8000000000001</ele><time>2026-04-06T09:08:34.002Z</time></trkpt><trkpt lat="43.5305683" lon="12.4080617"><ele>657.6</ele><time>2026-04-06T09:08:35.002Z</time></trkpt><trkpt lat="43.530605" lon="12.4081867"><ele>659.4</ele><time>2026-04-06T09:08:36.002Z</time></trkpt><trkpt lat="43.5306633" lon="12.4083133"><ele>661.2</ele><time>2026-04-06T09:08:37.002Z</time></trkpt><trkpt lat="43.5307233" lon="12.4084433"><ele>663.0</ele><time>2026-04-06T09:08:38.002Z</time></trkpt><trkpt lat="43.53078" lon="12.4085733"><ele>663.0</ele><time>2026-04-06T09:08:39.002Z</time></trkpt><trkpt lat="43.5308267" lon="12.408695"><ele>663.0</ele><time>2026-04-06T09:08:40.002Z</time></trkpt><trkpt lat="43.5308817" lon="12.4088067"><ele>663.0</ele><time>2026-04-06T09:08:41.002Z</time></trkpt><trkpt lat="43.5309283" lon="12.4089067"><ele>663.0</ele><time>2026-04-06T09:08:42.002Z</time></trkpt><trkpt lat="43.530985" lon="12.4089867"><ele>663.0</ele><time>2026-04-06T09:08:43.002Z</time></trkpt><trkpt lat="43.5310733" lon="12.409045"><ele>663.8</ele><time>2026-04-06T09:08:44.002Z</time></trkpt><trkpt lat="43.5311633" lon="12.4090717"><ele>664.5999999999999</ele><time>2026-04-06T09:08:45.002Z</time></trkpt><trkpt lat="43.5312817" lon="12.4090917"><ele>665.4000000000001</ele><time>2026-04-06T09:08:46.002Z</time></trkpt><trkpt lat="43.5313733" lon="12.4091217"><ele>666.2</ele><time>2026-04-06T09:08:47.002Z</time></trkpt><trkpt lat="43.5314533" lon="12.40919"><ele>667.0</ele><time>2026-04-06T09:08:48.002Z</time></trkpt><trkpt lat="43.5315333" lon="12.4092383"><ele>667.0</ele><time>2026-04-06T09:08:49.002Z</time></trkpt><trkpt lat="43.5316233" lon="12.409275"><ele>667.0</ele><time>2026-04-06T09:08:50.002Z</time></trkpt><trkpt lat="43.5317317" lon="12.4093017"><ele>667.0</ele><time>2026-04-06T09:08:51.002Z</time></trkpt><trkpt lat="43.5318367" lon="12.4093"><ele>667.0</ele><time>2026-04-06T09:08:52.002Z</time></trkpt><trkpt lat="43.5319367" lon="12.4092767"><ele>667.0</ele><time>2026-04-06T09:08:53.002Z</time></trkpt><trkpt lat="43.5320283" lon="12.4092117"><ele>668.3333333333334</ele><time>2026-04-06T09:08:54.002Z</time></trkpt><trkpt lat="43.5321067" lon="12.4091183"><ele>669.6666666666667</ele><time>2026-04-06T09:08:55.002Z</time></trkpt><trkpt lat="43.53217" lon="12.4090217"><ele>671.0</ele><time>2026-04-06T09:08:56.002Z</time></trkpt><trkpt lat="43.532225" lon="12.4089433"><ele>672.3333333333334</ele><time>2026-04-06T09:08:57.002Z</time></trkpt><trkpt lat="43.5322883" lon="12.4089217"><ele>673.6666666666666</ele><time>2026-04-06T09:08:58.002Z</time></trkpt><trkpt lat="43.5323917" lon="12.408925"><ele>675.0</ele><time>2026-04-06T09:09:00.002Z</time></trkpt><trkpt lat="43.5325117" lon="12.4089833"><ele>675.0</ele><time>2026-04-06T09:09:02.002Z</time></trkpt><trkpt lat="43.5325833" lon="12.4089833"><ele>675.0</ele><time>2026-04-06T09:09:03.002Z</time></trkpt><trkpt lat="43.5326683" lon="12.4089783"><ele>675.0</ele><time>2026-04-06T09:09:04.002Z</time></trkpt><trkpt lat="43.532755" lon="12.4089583"><ele>675.0</ele><time>2026-04-06T09:09:05.002Z</time></trkpt><trkpt lat="43.5328533" lon="12.4089333"><ele>675.0</ele><time>2026-04-06T09:09:06.002Z</time></trkpt><trkpt lat="43.53298" lon="12.408895"><ele>677.25</ele><time>2026-04-06T09:09:07.002Z</time></trkpt><trkpt lat="43.5331183" lon="12.408845"><ele>679.5</ele><time>2026-04-06T09:09:08.002Z</time></trkpt><trkpt lat="43.5332433" lon="12.4088167"><ele>681.75</ele><time>2026-04-06T09:09:09.001Z</time></trkpt><trkpt lat="43.533365" lon="12.4088017"><ele>684.0</ele><time>2026-04-06T09:09:10.002Z</time></trkpt><trkpt lat="43.533475" lon="12.4088067"><ele>684.0</ele><time>2026-04-06T09:09:11.002Z</time></trkpt><trkpt lat="43.53357" lon="12.4088217"><ele>684.0</ele><time>2026-04-06T09:09:12.002Z</time></trkpt><trkpt lat="43.5336667" lon="12.408835"><ele>684.0</ele><time>2026-04-06T09:09:13.002Z</time></trkpt><trkpt lat="43.5337733" lon="12.40886"><ele>684.0</ele><time>2026-04-06T09:09:14.002Z</time></trkpt><trkpt lat="43.5339" lon="12.4088883"><ele>684.0</ele><time>2026-04-06T09:09:15.002Z</time></trkpt><trkpt lat="43.5340283" lon="12.408925"><ele>684.0</ele><time>2026-04-06T09:09:16.002Z</time></trkpt><trkpt lat="43.53416" lon="12.4089617"><ele>684.0</ele><time>2026-04-06T09:09:17.002Z</time></trkpt><trkpt lat="43.5342933" lon="12.40902"><ele>684.0</ele><time>2026-04-06T09:09:18.002Z</time></trkpt><trkpt lat="43.534405" lon="12.409085"><ele>684.0</ele><time>2026-04-06T09:09:19.002Z</time></trkpt><trkpt lat="43.53451" lon="12.4091533"><ele>681.6</ele><time>2026-04-06T09:09:20.002Z</time></trkpt><trkpt lat="43.5346017" lon="12.4092133"><ele>679.2</ele><time>2026-04-06T09:09:21.002Z</time></trkpt><trkpt lat="43.5346833" lon="12.4092833"><ele>676.8000000000001</ele><time>2026-04-06T09:09:22.002Z</time></trkpt><trkpt lat="43.5347817" lon="12.4093533"><ele>674.4000000000001</ele><time>2026-04-06T09:09:23.002Z</time></trkpt><trkpt lat="43.534875" lon="12.4094117"><ele>672.0</ele><time>2026-04-06T09:09:24.002Z</time></trkpt><trkpt lat="43.534955" lon="12.4094583"><ele>672.0</ele><time>2026-04-06T09:09:25.002Z</time></trkpt><trkpt lat="43.535035" lon="12.4094833"><ele>672.0</ele><time>2026-04-06T09:09:26.002Z</time></trkpt><trkpt lat="43.53511" lon="12.4094733"><ele>672.0</ele><time>2026-04-06T09:09:27.002Z</time></trkpt><trkpt lat="43.5351917" lon="12.4094233"><ele>672.0</ele><time>2026-04-06T09:09:28.002Z</time></trkpt><trkpt lat="43.5352617" lon="12.4093583"><ele>672.0</ele><time>2026-04-06T09:09:29.002Z</time></trkpt><trkpt lat="43.5353367" lon="12.40929"><ele>672.0</ele><time>2026-04-06T09:09:30.002Z</time></trkpt><trkpt lat="43.5354083" lon="12.4092417"><ele>671.6</ele><time>2026-04-06T09:09:31.002Z</time></trkpt><trkpt lat="43.5354917" lon="12.4091933"><ele>671.2</ele><time>2026-04-06T09:09:32.002Z</time></trkpt><trkpt lat="43.53558" lon="12.4091833"><ele>670.8</ele><time>2026-04-06T09:09:33.002Z</time></trkpt><trkpt lat="43.5356833" lon="12.4091817"><ele>670.4</ele><time>2026-04-06T09:09:34.002Z</time></trkpt><trkpt lat="43.5358" lon="12.40921"><ele>670.0</ele><time>2026-04-06T09:09:35.002Z</time></trkpt><trkpt lat="43.5359133" lon="12.40925"><ele>670.0</ele><time>2026-04-06T09:09:36.002Z</time></trkpt><trkpt lat="43.5360083" lon="12.4093183"><ele>670.0</ele><time>2026-04-06T09:09:37.002Z</time></trkpt><trkpt lat="43.53611" lon="12.4093733"><ele>670.0</ele><time>2026-04-06T09:09:38.002Z</time></trkpt><trkpt lat="43.5361983" lon="12.4094133"><ele>670.0</ele><time>2026-04-06T09:09:39.002Z</time></trkpt><trkpt lat="43.53628" lon="12.4094417"><ele>670.0</ele><time>2026-04-06T09:09:40.002Z</time></trkpt><trkpt lat="43.536365" lon="12.40946"><ele>668.4</ele><time>2026-04-06T09:09:41.002Z</time></trkpt><trkpt lat="43.5364533" lon="12.4094633"><ele>666.8</ele><time>2026-04-06T09:09:42.002Z</time></trkpt><trkpt lat="43.5365283" lon="12.4094933"><ele>665.2</ele><time>2026-04-06T09:09:43.002Z</time></trkpt><trkpt lat="43.536605" lon="12.4095583"><ele>663.6</ele><time>2026-04-06T09:09:44.002Z</time></trkpt><trkpt lat="43.5366733" lon="12.40965"><ele>662.0</ele><time>2026-04-06T09:09:45.002Z</time></trkpt><trkpt lat="43.53676" lon="12.409755"><ele>662.0</ele><time>2026-04-06T09:09:46.002Z</time></trkpt><trkpt lat="43.5368383" lon="12.4098667"><ele>662.0</ele><time>2026-04-06T09:09:47.002Z</time></trkpt><trkpt lat="43.53693" lon="12.4099733"><ele>662.0</ele><time>2026-04-06T09:09:48.002Z</time></trkpt><trkpt lat="43.5370017" lon="12.41007"><ele>662.0</ele><time>2026-04-06T09:09:49.002Z</time></trkpt><trkpt lat="43.5370817" lon="12.4101533"><ele>662.0</ele><time>2026-04-06T09:09:50.002Z</time></trkpt><trkpt lat="43.5371533" lon="12.4102233"><ele>659.5</ele><time>2026-04-06T09:09:51.002Z</time></trkpt><trkpt lat="43.537215" lon="12.4102883"><ele>657.0</ele><time>2026-04-06T09:09:52.002Z</time></trkpt><trkpt lat="43.53729" lon="12.4103317"><ele>654.5</ele><time>2026-04-06T09:09:53.002Z</time></trkpt><trkpt lat="43.5373783" lon="12.41035"><ele>652.0</ele><time>2026-04-06T09:09:54.002Z</time></trkpt><trkpt lat="43.5374717" lon="12.4103483"><ele>649.5</ele><time>2026-04-06T09:09:55.002Z</time></trkpt><trkpt lat="43.5375633" lon="12.4103217"><ele>647.0</ele><time>2026-04-06T09:09:56.002Z</time></trkpt><trkpt lat="43.5376483" lon="12.4102667"><ele>647.0</ele><time>2026-04-06T09:09:57.002Z</time></trkpt><trkpt lat="43.537725" lon="12.4101933"><ele>647.0</ele><time>2026-04-06T09:09:58.002Z</time></trkpt><trkpt lat="43.5378067" lon="12.4100883"><ele>647.0</ele><time>2026-04-06T09:09:59.002Z</time></trkpt><trkpt lat="43.537885" lon="12.409955"><ele>647.0</ele><time>2026-04-06T09:10:00.002Z</time></trkpt><trkpt lat="43.5379633" lon="12.4098217"><ele>648.6666666666666</ele><time>2026-04-06T09:10:01.002Z</time></trkpt><trkpt lat="43.53804" lon="12.4096967"><ele>650.3333333333333</ele><time>2026-04-06T09:10:02.002Z</time></trkpt><trkpt lat="43.53811" lon="12.4096067"><ele>652.0</ele><time>2026-04-06T09:10:03.002Z</time></trkpt><trkpt lat="43.53817" lon="12.40954"><ele>653.6666666666666</ele><time>2026-04-06T09:10:04.002Z</time></trkpt><trkpt lat="43.5382283" lon="12.4094933"><ele>655.3333333333334</ele><time>2026-04-06T09:10:05.002Z</time></trkpt><trkpt lat="43.5382917" lon="12.40949"><ele>657.0</ele><time>2026-04-06T09:10:06.002Z</time></trkpt><trkpt lat="43.5383583" lon="12.4095067"><ele>657.0</ele><time>2026-04-06T09:10:07.002Z</time></trkpt><trkpt lat="43.5384267" lon="12.409545"><ele>657.0</ele><time>2026-04-06T09:10:08.002Z</time></trkpt><trkpt lat="43.5384917" lon="12.409595"><ele>657.0</ele><time>2026-04-06T09:10:09.002Z</time></trkpt><trkpt lat="43.5385633" lon="12.4096617"><ele>657.0</ele><time>2026-04-06T09:10:10.002Z</time></trkpt><trkpt lat="43.5386367" lon="12.4097083"><ele>657.0</ele><time>2026-04-06T09:10:11.002Z</time></trkpt><trkpt lat="43.538705" lon="12.4097283"><ele>657.0</ele><time>2026-04-06T09:10:12.002Z</time></trkpt><trkpt lat="43.5387883" lon="12.409715"><ele>655.8</ele><time>2026-04-06T09:10:13.002Z</time></trkpt><trkpt lat="43.5388917" lon="12.4097017"><ele>654.6</ele><time>2026-04-06T09:10:14.001Z</time></trkpt><trkpt lat="43.53899" lon="12.4097333"><ele>653.4</ele><time>2026-04-06T09:10:15.002Z</time></trkpt><trkpt lat="43.5390717" lon="12.4097817"><ele>652.1999999999999</ele><time>2026-04-06T09:10:16.002Z</time></trkpt><trkpt lat="43.5391517" lon="12.409825"><ele>651.0</ele><time>2026-04-06T09:10:17.002Z</time></trkpt><trkpt lat="43.5392367" lon="12.4098533"><ele>651.0</ele><time>2026-04-06T09:10:18.002Z</time></trkpt><trkpt lat="43.539325" lon="12.4098567"><ele>651.0</ele><time>2026-04-06T09:10:19.002Z</time></trkpt><trkpt lat="43.5393967" lon="12.409845"><ele>651.0</ele><time>2026-04-06T09:10:20.002Z</time></trkpt><trkpt lat="43.5394783" lon="12.4098167"><ele>651.0</ele><time>2026-04-06T09:10:21.002Z</time></trkpt><trkpt lat="43.53957" lon="12.4097567"><ele>651.0</ele><time>2026-04-06T09:10:22.002Z</time></trkpt><trkpt lat="43.5396533" lon="12.40972"><ele>651.0</ele><time>2026-04-06T09:10:23.002Z</time></trkpt><trkpt lat="43.5397233" lon="12.4096967"><ele>648.1999999999999</ele><time>2026-04-06T09:10:24.002Z</time></trkpt><trkpt lat="43.5397867" lon="12.4097117"><ele>645.4</ele><time>2026-04-06T09:10:25.002Z</time></trkpt><trkpt lat="43.5398633" lon="12.4097733"><ele>642.6</ele><time>2026-04-06T09:10:26.002Z</time></trkpt><trkpt lat="43.5399533" lon="12.4098567"><ele>639.8</ele><time>2026-04-06T09:10:27.002Z</time></trkpt><trkpt lat="43.5400533" lon="12.4099217"><ele>637.0</ele><time>2026-04-06T09:10:28.002Z</time></trkpt><trkpt lat="43.540165" lon="12.409995"><ele>637.0</ele><time>2026-04-06T09:10:29.002Z</time></trkpt><trkpt lat="43.5402867" lon="12.4100717"><ele>637.0</ele><time>2026-04-06T09:10:30.002Z</time></trkpt><trkpt lat="43.54041" lon="12.41015"><ele>637.0</ele><time>2026-04-06T09:10:31.002Z</time></trkpt><trkpt lat="43.5405233" lon="12.4102167"><ele>637.0</ele><time>2026-04-06T09:10:32.002Z</time></trkpt><trkpt lat="43.5406467" lon="12.4102833"><ele>633.8000000000001</ele><time>2026-04-06T09:10:33.002Z</time></trkpt><trkpt lat="43.5407533" lon="12.4103417"><ele>630.6</ele><time>2026-04-06T09:10:34.002Z</time></trkpt><trkpt lat="43.5408483" lon="12.41042"><ele>627.4000000000001</ele><time>2026-04-06T09:10:35.002Z</time></trkpt><trkpt lat="43.5409483" lon="12.4105017"><ele>624.2</ele><time>2026-04-06T09:10:36.002Z</time></trkpt><trkpt lat="43.5410383" lon="12.4105733"><ele>621.0</ele><time>2026-04-06T09:10:37.002Z</time></trkpt><trkpt lat="43.5411383" lon="12.4106417"><ele>623.5</ele><time>2026-04-06T09:10:38.002Z</time></trkpt><trkpt lat="43.54124" lon="12.4106967"><ele>626.0</ele><time>2026-04-06T09:10:39.002Z</time></trkpt><trkpt lat="43.54136" lon="12.41074"><ele>628.5</ele><time>2026-04-06T09:10:40.002Z</time></trkpt><trkpt lat="43.5414733" lon="12.4107817"><ele>631.0</ele><time>2026-04-06T09:10:41.002Z</time></trkpt><trkpt lat="43.5415733" lon="12.4108233"><ele>631.0</ele><time>2026-04-06T09:10:42.002Z</time></trkpt><trkpt lat="43.5416667" lon="12.4108867"><ele>631.0</ele><time>2026-04-06T09:10:43.002Z</time></trkpt><trkpt lat="43.541745" lon="12.41097"><ele>631.0</ele><time>2026-04-06T09:10:44.002Z</time></trkpt><trkpt lat="43.5418183" lon="12.41107"><ele>631.0</ele><time>2026-04-06T09:10:45.002Z</time></trkpt><trkpt lat="43.541875" lon="12.4111833"><ele>631.0</ele><time>2026-04-06T09:10:46.002Z</time></trkpt><trkpt lat="43.54191" lon="12.4113033"><ele>627.0</ele><time>2026-04-06T09:10:47.002Z</time></trkpt><trkpt lat="43.5419333" lon="12.4114317"><ele>623.0</ele><time>2026-04-06T09:10:48.002Z</time></trkpt><trkpt lat="43.54193" lon="12.4115733"><ele>619.0</ele><time>2026-04-06T09:10:49.002Z</time></trkpt><trkpt lat="43.541905" lon="12.4117133"><ele>615.0</ele><time>2026-04-06T09:10:50.002Z</time></trkpt><trkpt lat="43.54188" lon="12.4118417"><ele>611.0</ele><time>2026-04-06T09:10:51.002Z</time></trkpt><trkpt lat="43.5418483" lon="12.4119583"><ele>611.0</ele><time>2026-04-06T09:10:52.002Z</time></trkpt><trkpt lat="43.5418233" lon="12.4120533"><ele>611.0</ele><time>2026-04-06T09:10:53.002Z</time></trkpt><trkpt lat="43.54181" lon="12.4122133"><ele>611.0</ele><time>2026-04-06T09:10:55.002Z</time></trkpt><trkpt lat="43.54187" lon="12.4123417"><ele>611.0</ele><time>2026-04-06T09:10:57.002Z</time></trkpt><trkpt lat="43.541935" lon="12.4124017"><ele>611.0</ele><time>2026-04-06T09:10:58.002Z</time></trkpt><trkpt lat="43.54202" lon="12.4124733"><ele>613.8</ele><time>2026-04-06T09:10:59.002Z</time></trkpt><trkpt lat="43.542105" lon="12.4125617"><ele>616.6</ele><time>2026-04-06T09:11:00.002Z</time></trkpt><trkpt lat="43.5421933" lon="12.41265"><ele>619.4</ele><time>2026-04-06T09:11:01.002Z</time></trkpt><trkpt lat="43.542275" lon="12.4127367"><ele>622.2</ele><time>2026-04-06T09:11:02.002Z</time></trkpt><trkpt lat="43.542365" lon="12.4128083"><ele>625.0</ele><time>2026-04-06T09:11:03.002Z</time></trkpt><trkpt lat="43.54246" lon="12.41288"><ele>625.0</ele><time>2026-04-06T09:11:04.002Z</time></trkpt><trkpt lat="43.5425567" lon="12.412955"><ele>625.0</ele><time>2026-04-06T09:11:05.002Z</time></trkpt><trkpt lat="43.5426533" lon="12.4130367"><ele>625.0</ele><time>2026-04-06T09:11:06.002Z</time></trkpt><trkpt lat="43.5427417" lon="12.4131233"><ele>625.0</ele><time>2026-04-06T09:11:07.002Z</time></trkpt><trkpt lat="43.5428283" lon="12.4131983"><ele>625.0</ele><time>2026-04-06T09:11:08.002Z</time></trkpt><trkpt lat="43.5429067" lon="12.4132717"><ele>623.8</ele><time>2026-04-06T09:11:09.002Z</time></trkpt><trkpt lat="43.5429967" lon="12.4133417"><ele>622.6</ele><time>2026-04-06T09:11:10.002Z</time></trkpt><trkpt lat="43.5430967" lon="12.4134083"><ele>621.4</ele><time>2026-04-06T09:11:11.002Z</time></trkpt><trkpt lat="43.5431933" lon="12.413485"><ele>620.2</ele><time>2026-04-06T09:11:12.002Z</time></trkpt><trkpt lat="43.54328" lon="12.413565"><ele>619.0</ele><time>2026-04-06T09:11:13.002Z</time></trkpt><trkpt lat="43.543355" lon="12.413655"><ele>619.0</ele><time>2026-04-06T09:11:14.002Z</time></trkpt><trkpt lat="43.543425" lon="12.413765"><ele>619.0</ele><time>2026-04-06T09:11:15.002Z</time></trkpt><trkpt lat="43.5434767" lon="12.4138883"><ele>619.0</ele><time>2026-04-06T09:11:16.002Z</time></trkpt><trkpt lat="43.5435133" lon="12.4140217"><ele>619.0</ele><time>2026-04-06T09:11:17.002Z</time></trkpt><trkpt lat="43.5435417" lon="12.4141617"><ele>619.0</ele><time>2026-04-06T09:11:18.002Z</time></trkpt><trkpt lat="43.54358" lon="12.414305"><ele>617.5</ele><time>2026-04-06T09:11:19.002Z</time></trkpt><trkpt lat="43.5436217" lon="12.414445"><ele>616.0</ele><time>2026-04-06T09:11:20.002Z</time></trkpt><trkpt lat="43.5436783" lon="12.4145783"><ele>614.5</ele><time>2026-04-06T09:11:21.002Z</time></trkpt><trkpt lat="43.543745" lon="12.4147167"><ele>613.0</ele><time>2026-04-06T09:11:22.002Z</time></trkpt><trkpt lat="43.5438067" lon="12.4148567"><ele>613.0</ele><time>2026-04-06T09:11:23.002Z</time></trkpt><trkpt lat="43.5438533" lon="12.4150017"><ele>613.0</ele><time>2026-04-06T09:11:24.002Z</time></trkpt><trkpt lat="43.5438733" lon="12.4151533"><ele>613.0</ele><time>2026-04-06T09:11:25.002Z</time></trkpt><trkpt lat="43.54388" lon="12.415305"><ele>613.0</ele><time>2026-04-06T09:11:26.002Z</time></trkpt><trkpt lat="43.543885" lon="12.4154467"><ele>613.0</ele><time>2026-04-06T09:11:27.002Z</time></trkpt><trkpt lat="43.5438967" lon="12.4155817"><ele>610.8333333333334</ele><time>2026-04-06T09:11:28.002Z</time></trkpt><trkpt lat="43.5439017" lon="12.415705"><ele>608.6666666666667</ele><time>2026-04-06T09:11:29.002Z</time></trkpt><trkpt lat="43.54389" lon="12.4158133"><ele>606.5</ele><time>2026-04-06T09:11:30.002Z</time></trkpt><trkpt lat="43.5438783" lon="12.4159233"><ele>604.3333333333334</ele><time>2026-04-06T09:11:31.002Z</time></trkpt><trkpt lat="43.5438767" lon="12.4160367"><ele>602.1666666666666</ele><time>2026-04-06T09:11:32.002Z</time></trkpt><trkpt lat="43.5438783" lon="12.41615"><ele>600.0</ele><time>2026-04-06T09:11:33.002Z</time></trkpt><trkpt lat="43.543885" lon="12.416275"><ele>597.8</ele><time>2026-04-06T09:11:34.002Z</time></trkpt><trkpt lat="43.5438917" lon="12.4164167"><ele>595.6</ele><time>2026-04-06T09:11:35.002Z</time></trkpt><trkpt lat="43.54389" lon="12.4165683"><ele>593.4</ele><time>2026-04-06T09:11:36.002Z</time></trkpt><trkpt lat="43.5438783" lon="12.4167317"><ele>591.2</ele><time>2026-04-06T09:11:37.002Z</time></trkpt><trkpt lat="43.5438533" lon="12.4168833"><ele>589.0</ele><time>2026-04-06T09:11:38.002Z</time></trkpt><trkpt lat="43.54383" lon="12.41702"><ele>589.0</ele><time>2026-04-06T09:11:39.002Z</time></trkpt><trkpt lat="43.5438017" lon="12.41714"><ele>589.0</ele><time>2026-04-06T09:11:40.002Z</time></trkpt><trkpt lat="43.5437733" lon="12.41725"><ele>589.0</ele><time>2026-04-06T09:11:41.002Z</time></trkpt><trkpt lat="43.5437517" lon="12.41735"><ele>589.0</ele><time>2026-04-06T09:11:42.002Z</time></trkpt><trkpt lat="43.5437467" lon="12.4174383"><ele>589.0</ele><time>2026-04-06T09:11:43.002Z</time></trkpt><trkpt lat="43.5437733" lon="12.4176083"><ele>589.0</ele><time>2026-04-06T09:11:45.002Z</time></trkpt><trkpt lat="43.54381" lon="12.4177117"><ele>586.5</ele><time>2026-04-06T09:11:46.002Z</time></trkpt><trkpt lat="43.5438683" lon="12.4178317"><ele>584.0</ele><time>2026-04-06T09:11:47.002Z</time></trkpt><trkpt lat="43.5439367" lon="12.41797"><ele>581.5</ele><time>2026-04-06T09:11:48.002Z</time></trkpt><trkpt lat="43.544005" lon="12.41813"><ele>579.0</ele><time>2026-04-06T09:11:49.002Z</time></trkpt><trkpt lat="43.5440667" lon="12.4182833"><ele>576.0</ele><time>2026-04-06T09:11:50.002Z</time></trkpt><trkpt lat="43.5441167" lon="12.4184267"><ele>573.0</ele><time>2026-04-06T09:11:51.001Z</time></trkpt><trkpt lat="43.544155" lon="12.41855"><ele>570.0</ele><time>2026-04-06T09:11:52.002Z</time></trkpt><trkpt lat="43.5441917" lon="12.4186533"><ele>567.0</ele><time>2026-04-06T09:11:53.002Z</time></trkpt><trkpt lat="43.544225" lon="12.4187483"><ele>564.0</ele><time>2026-04-06T09:11:54.002Z</time></trkpt><trkpt lat="43.544265" lon="12.41882"><ele>561.0</ele><time>2026-04-06T09:11:55.002Z</time></trkpt><trkpt lat="43.5443267" lon="12.4188783"><ele>558.25</ele><time>2026-04-06T09:11:56.002Z</time></trkpt><trkpt lat="43.5444083" lon="12.41892"><ele>555.5</ele><time>2026-04-06T09:11:57.002Z</time></trkpt><trkpt lat="43.544515" lon="12.4189383"><ele>552.75</ele><time>2026-04-06T09:11:58.002Z</time></trkpt><trkpt lat="43.5446417" lon="12.41896"><ele>550.0</ele><time>2026-04-06T09:11:59.002Z</time></trkpt><trkpt lat="43.5447767" lon="12.41901"><ele>550.0</ele><time>2026-04-06T09:12:00.002Z</time></trkpt><trkpt lat="43.544915" lon="12.419085"><ele>550.0</ele><time>2026-04-06T09:12:01.002Z</time></trkpt><trkpt lat="43.54507" lon="12.4191383"><ele>550.0</ele><time>2026-04-06T09:12:02.002Z</time></trkpt><trkpt lat="43.5452217" lon="12.4192067"><ele>549.6666666666667</ele><time>2026-04-06T09:12:03.002Z</time></trkpt><trkpt lat="43.5453833" lon="12.4192617"><ele>549.3333333333334</ele><time>2026-04-06T09:12:04.002Z</time></trkpt><trkpt lat="43.545525" lon="12.419325"><ele>549.0</ele><time>2026-04-06T09:12:05.002Z</time></trkpt><trkpt lat="43.545665" lon="12.4193767"><ele>549.0</ele><time>2026-04-06T09:12:06.002Z</time></trkpt><trkpt lat="43.5457983" lon="12.4194167"><ele>549.0</ele><time>2026-04-06T09:12:07.002Z</time></trkpt><trkpt lat="43.545925" lon="12.4194367"><ele>549.0</ele><time>2026-04-06T09:12:08.002Z</time></trkpt><trkpt lat="43.5460683" lon="12.41946"><ele>549.0</ele><time>2026-04-06T09:12:09.002Z</time></trkpt><trkpt lat="43.54622" lon="12.4194883"><ele>548.3333333333334</ele><time>2026-04-06T09:12:10.002Z</time></trkpt><trkpt lat="43.5463717" lon="12.4195117"><ele>547.6666666666667</ele><time>2026-04-06T09:12:11.002Z</time></trkpt><trkpt lat="43.5465317" lon="12.4195267"><ele>547.0</ele><time>2026-04-06T09:12:12.002Z</time></trkpt><trkpt lat="43.5467117" lon="12.41954"><ele>547.0</ele><time>2026-04-06T09:12:13.002Z</time></trkpt><trkpt lat="43.5468867" lon="12.4195483"><ele>547.0</ele><time>2026-04-06T09:12:14.002Z</time></trkpt><trkpt lat="43.54704" lon="12.4195567"><ele>547.0</ele><time>2026-04-06T09:12:15.002Z</time></trkpt><trkpt lat="43.547195" lon="12.4195717"><ele>544.3333333333334</ele><time>2026-04-06T09:12:16.002Z</time></trkpt><trkpt lat="43.547345" lon="12.419575"><ele>541.6666666666666</ele><time>2026-04-06T09:12:17.002Z</time></trkpt><trkpt lat="43.5474967" lon="12.4195917"><ele>539.0</ele><time>2026-04-06T09:12:18.002Z</time></trkpt><trkpt lat="43.5476467" lon="12.4196017"><ele>539.0</ele><time>2026-04-06T09:12:19.002Z</time></trkpt><trkpt lat="43.5477833" lon="12.4195917"><ele>539.0</ele><time>2026-04-06T09:12:20.002Z</time></trkpt><trkpt lat="43.5479167" lon="12.4196133"><ele>539.0</ele><time>2026-04-06T09:12:21.002Z</time></trkpt><trkpt lat="43.5480467" lon="12.41963"><ele>539.0</ele><time>2026-04-06T09:12:22.002Z</time></trkpt><trkpt lat="43.5481683" lon="12.4196383"><ele>536.0</ele><time>2026-04-06T09:12:23.002Z</time></trkpt><trkpt lat="43.5482833" lon="12.4196433"><ele>533.0</ele><time>2026-04-06T09:12:24.002Z</time></trkpt><trkpt lat="43.5484033" lon="12.4196217"><ele>530.0</ele><time>2026-04-06T09:12:25.002Z</time></trkpt><trkpt lat="43.5485333" lon="12.4195883"><ele>527.0</ele><time>2026-04-06T09:12:26.002Z</time></trkpt><trkpt lat="43.5486567" lon="12.4195617"><ele>524.75</ele><time>2026-04-06T09:12:27.002Z</time></trkpt><trkpt lat="43.54877" lon="12.419545"><ele>522.5</ele><time>2026-04-06T09:12:28.002Z</time></trkpt><trkpt lat="43.5488733" lon="12.4195283"><ele>520.25</ele><time>2026-04-06T09:12:29.002Z</time></trkpt><trkpt lat="43.5489733" lon="12.4195117"><ele>518.0</ele><time>2026-04-06T09:12:30.002Z</time></trkpt><trkpt lat="43.549115" lon="12.419505"><ele>518.0</ele><time>2026-04-06T09:12:31.002Z</time></trkpt><trkpt lat="43.5492567" lon="12.4195033"><ele>518.0</ele><time>2026-04-06T09:12:32.002Z</time></trkpt><trkpt lat="43.5494083" lon="12.419505"><ele>518.0</ele><time>2026-04-06T09:12:33.002Z</time></trkpt><trkpt lat="43.5495533" lon="12.4195067"><ele>518.0</ele><time>2026-04-06T09:12:34.002Z</time></trkpt><trkpt lat="43.5496883" lon="12.4195133"><ele>513.8</ele><time>2026-04-06T09:12:35.002Z</time></trkpt><trkpt lat="43.549815" lon="12.4195117"><ele>509.59999999999997</ele><time>2026-04-06T09:12:36.002Z</time></trkpt><trkpt lat="43.54992" lon="12.4195117"><ele>505.40000000000003</ele><time>2026-04-06T09:12:37.002Z</time></trkpt><trkpt lat="43.5500033" lon="12.4195033"><ele>501.20000000000005</ele><time>2026-04-06T09:12:38.002Z</time></trkpt><trkpt lat="43.5501017" lon="12.4195067"><ele>497.0</ele><time>2026-04-06T09:12:40.002Z</time></trkpt><trkpt lat="43.5501667" lon="12.419515"><ele>497.0</ele><time>2026-04-06T09:12:44.002Z</time></trkpt><trkpt lat="43.55026" lon="12.4195083"><ele>497.00000000000006</ele><time>2026-04-06T09:12:46.002Z</time></trkpt><trkpt lat="43.55033" lon="12.4195017"><ele>497.00000000000006</ele><time>2026-04-06T09:12:47.002Z</time></trkpt><trkpt lat="43.5504217" lon="12.419485"><ele>497.0</ele><time>2026-04-06T09:12:48.002Z</time></trkpt><trkpt lat="43.55052" lon="12.419475"><ele>497.0</ele><time>2026-04-06T09:12:49.002Z</time></trkpt><trkpt lat="43.55063" lon="12.4194667"><ele>498.25</ele><time>2026-04-06T09:12:50.002Z</time></trkpt><trkpt lat="43.55075" lon="12.4194733"><ele>499.5</ele><time>2026-04-06T09:12:51.002Z</time></trkpt><trkpt lat="43.5508767" lon="12.4194833"><ele>500.75</ele><time>2026-04-06T09:12:52.002Z</time></trkpt><trkpt lat="43.55101" lon="12.419515"><ele>502.0</ele><time>2026-04-06T09:12:53.002Z</time></trkpt><trkpt lat="43.5511317" lon="12.4195533"><ele>502.25</ele><time>2026-04-06T09:12:54.002Z</time></trkpt><trkpt lat="43.5512633" lon="12.419595"><ele>502.5</ele><time>2026-04-06T09:12:55.002Z</time></trkpt><trkpt lat="43.551405" lon="12.4196267"><ele>502.75</ele><time>2026-04-06T09:12:56.002Z</time></trkpt><trkpt lat="43.5515567" lon="12.4196667"><ele>503.0</ele><time>2026-04-06T09:12:57.002Z</time></trkpt><trkpt lat="43.5517017" lon="12.41971"><ele>499.0</ele><time>2026-04-06T09:12:58.002Z</time></trkpt><trkpt lat="43.55185" lon="12.4197533"><ele>495.0</ele><time>2026-04-06T09:12:59.002Z</time></trkpt><trkpt lat="43.551985" lon="12.4197817"><ele>491.0</ele><time>2026-04-06T09:13:00.002Z</time></trkpt><trkpt lat="43.5521183" lon="12.4197967"><ele>487.0</ele><time>2026-04-06T09:13:01.002Z</time></trkpt><trkpt lat="43.5522583" lon="12.419805"><ele>487.0</ele><time>2026-04-06T09:13:02.002Z</time></trkpt><trkpt lat="43.5524033" lon="12.41982"><ele>487.0</ele><time>2026-04-06T09:13:03.002Z</time></trkpt><trkpt lat="43.5525417" lon="12.4198367"><ele>487.0</ele><time>2026-04-06T09:13:04.002Z</time></trkpt><trkpt lat="43.5526867" lon="12.4198483"><ele>487.0</ele><time>2026-04-06T09:13:05.002Z</time></trkpt><trkpt lat="43.5528333" lon="12.41986"><ele>487.0</ele><time>2026-04-06T09:13:06.002Z</time></trkpt><trkpt lat="43.552975" lon="12.41985"><ele>487.0</ele><time>2026-04-06T09:13:07.002Z</time></trkpt><trkpt lat="43.5531067" lon="12.41984"><ele>487.0</ele><time>2026-04-06T09:13:08.002Z</time></trkpt><trkpt lat="43.5532533" lon="12.4198067"><ele>487.0</ele><time>2026-04-06T09:13:09.002Z</time></trkpt><trkpt lat="43.5534017" lon="12.4197417"><ele>487.0</ele><time>2026-04-06T09:13:10.002Z</time></trkpt><trkpt lat="43.553555" lon="12.419655"><ele>487.0</ele><time>2026-04-06T09:13:11.002Z</time></trkpt><trkpt lat="43.553705" lon="12.4195883"><ele>487.0</ele><time>2026-04-06T09:13:12.002Z</time></trkpt><trkpt lat="43.5538667" lon="12.4195017"><ele>488.6666666666667</ele><time>2026-04-06T09:13:13.002Z</time></trkpt><trkpt lat="43.5540267" lon="12.4194333"><ele>490.33333333333337</ele><time>2026-04-06T09:13:14.002Z</time></trkpt><trkpt lat="43.554175" lon="12.4193733"><ele>492.0</ele><time>2026-04-06T09:13:15.002Z</time></trkpt><trkpt lat="43.554335" lon="12.4193167"><ele>492.0</ele><time>2026-04-06T09:13:16.001Z</time></trkpt><trkpt lat="43.5544833" lon="12.41929"><ele>492.0</ele><time>2026-04-06T09:13:17.002Z</time></trkpt><trkpt lat="43.5546167" lon="12.41928"><ele>492.0</ele><time>2026-04-06T09:13:18.002Z</time></trkpt><trkpt lat="43.55473" lon="12.4192883"><ele>492.0</ele><time>2026-04-06T09:13:19.002Z</time></trkpt><trkpt lat="43.554825" lon="12.419315"><ele>490.75</ele><time>2026-04-06T09:13:20.002Z</time></trkpt><trkpt lat="43.5549217" lon="12.41936"><ele>489.5</ele><time>2026-04-06T09:13:21.002Z</time></trkpt><trkpt lat="43.555025" lon="12.419425"><ele>488.25</ele><time>2026-04-06T09:13:22.002Z</time></trkpt><trkpt lat="43.5551267" lon="12.41952"><ele>487.0</ele><time>2026-04-06T09:13:23.002Z</time></trkpt><trkpt lat="43.5552383" lon="12.419615"><ele>485.25</ele><time>2026-04-06T09:13:24.002Z</time></trkpt><trkpt lat="43.5553467" lon="12.4197217"><ele>483.5</ele><time>2026-04-06T09:13:25.002Z</time></trkpt><trkpt lat="43.5554683" lon="12.4198333"><ele>481.75</ele><time>2026-04-06T09:13:26.002Z</time></trkpt><trkpt lat="43.5556033" lon="12.4199467"><ele>480.0</ele><time>2026-04-06T09:13:27.002Z</time></trkpt><trkpt lat="43.5557383" lon="12.4200617"><ele>478.66666666666663</ele><time>2026-04-06T09:13:28.002Z</time></trkpt><trkpt lat="43.555875" lon="12.4201933"><ele>477.3333333333333</ele><time>2026-04-06T09:13:29.002Z</time></trkpt><trkpt lat="43.5560033" lon="12.4203167"><ele>476.0</ele><time>2026-04-06T09:13:30.002Z</time></trkpt><trkpt lat="43.5561333" lon="12.4204317"><ele>475.75</ele><time>2026-04-06T09:13:31.002Z</time></trkpt><trkpt lat="43.5562533" lon="12.4205433"><ele>475.5</ele><time>2026-04-06T09:13:32.002Z</time></trkpt><trkpt lat="43.556385" lon="12.4206467"><ele>475.25</ele><time>2026-04-06T09:13:33.002Z</time></trkpt><trkpt lat="43.55651" lon="12.42074"><ele>475.0</ele><time>2026-04-06T09:13:34.002Z</time></trkpt><trkpt lat="43.5566333" lon="12.42083"><ele>475.0</ele><time>2026-04-06T09:13:35.002Z</time></trkpt><trkpt lat="43.5567467" lon="12.4208967"><ele>475.0</ele><time>2026-04-06T09:13:36.002Z</time></trkpt><trkpt lat="43.5568767" lon="12.4209483"><ele>475.0</ele><time>2026-04-06T09:13:37.002Z</time></trkpt><trkpt lat="43.557" lon="12.4209917"><ele>475.0</ele><time>2026-04-06T09:13:38.002Z</time></trkpt><trkpt lat="43.55712" lon="12.42104"><ele>475.25</ele><time>2026-04-06T09:13:39.002Z</time></trkpt><trkpt lat="43.557255" lon="12.42107"><ele>475.5</ele><time>2026-04-06T09:13:40.002Z</time></trkpt><trkpt lat="43.55739" lon="12.4211117"><ele>475.75</ele><time>2026-04-06T09:13:41.002Z</time></trkpt><trkpt lat="43.5575233" lon="12.4211533"><ele>476.0</ele><time>2026-04-06T09:13:42.002Z</time></trkpt><trkpt lat="43.557655" lon="12.4211867"><ele>476.0</ele><time>2026-04-06T09:13:43.002Z</time></trkpt><trkpt lat="43.557795" lon="12.4211917"><ele>476.0</ele><time>2026-04-06T09:13:44.002Z</time></trkpt><trkpt lat="43.5579217" lon="12.4211367"><ele>476.0</ele><time>2026-04-06T09:13:45.002Z</time></trkpt><trkpt lat="43.558045" lon="12.421075"><ele>476.0</ele><time>2026-04-06T09:13:46.002Z</time></trkpt><trkpt lat="43.558175" lon="12.4209883"><ele>476.0</ele><time>2026-04-06T09:13:47.002Z</time></trkpt><trkpt lat="43.558305" lon="12.4208867"><ele>476.0</ele><time>2026-04-06T09:13:48.002Z</time></trkpt><trkpt lat="43.5584217" lon="12.4207967"><ele>476.0</ele><time>2026-04-06T09:13:49.002Z</time></trkpt><trkpt lat="43.5585317" lon="12.4206933"><ele>476.0</ele><time>2026-04-06T09:13:50.002Z</time></trkpt><trkpt lat="43.55864" lon="12.4205833"><ele>476.4</ele><time>2026-04-06T09:13:51.002Z</time></trkpt><trkpt lat="43.5587433" lon="12.4204667"><ele>476.8</ele><time>2026-04-06T09:13:52.002Z</time></trkpt><trkpt lat="43.5588283" lon="12.4203733"><ele>477.19999999999993</ele><time>2026-04-06T09:13:53.002Z</time></trkpt><trkpt lat="43.5589067" lon="12.420275"><ele>477.59999999999997</ele><time>2026-04-06T09:13:54.002Z</time></trkpt><trkpt lat="43.5589667" lon="12.4201983"><ele>478.0</ele><time>2026-04-06T09:13:55.002Z</time></trkpt><trkpt lat="43.5590433" lon="12.4201267"><ele>478.0</ele><time>2026-04-06T09:13:57.002Z</time></trkpt><trkpt lat="43.559075" lon="12.420245"><ele>477.99999999999994</ele><time>2026-04-06T09:14:00.002Z</time></trkpt><trkpt lat="43.5591117" lon="12.4204233"><ele>477.99999999999994</ele><time>2026-04-06T09:14:02.002Z</time></trkpt><trkpt lat="43.5591233" lon="12.4205483"><ele>478.0</ele><time>2026-04-06T09:14:03.002Z</time></trkpt><trkpt lat="43.5591417" lon="12.4207"><ele>478.0</ele><time>2026-04-06T09:14:04.002Z</time></trkpt><trkpt lat="43.55916" lon="12.42091"><ele>478.0</ele><time>2026-04-06T09:14:05.002Z</time></trkpt><trkpt lat="43.559175" lon="12.4211233"><ele>478.0</ele><time>2026-04-06T09:14:06.002Z</time></trkpt><trkpt lat="43.5591967" lon="12.42134"><ele>478.0</ele><time>2026-04-06T09:14:07.002Z</time></trkpt><trkpt lat="43.559225" lon="12.4215633"><ele>478.0</ele><time>2026-04-06T09:14:08.002Z</time></trkpt><trkpt lat="43.5592483" lon="12.42179"><ele>478.0</ele><time>2026-04-06T09:14:09.002Z</time></trkpt><trkpt lat="43.55927" lon="12.42202"><ele>478.0</ele><time>2026-04-06T09:14:10.002Z</time></trkpt><trkpt lat="43.5592817" lon="12.4222667"><ele>479.0</ele><time>2026-04-06T09:14:11.002Z</time></trkpt><trkpt lat="43.5592767" lon="12.4224983"><ele>480.0</ele><time>2026-04-06T09:14:12.002Z</time></trkpt><trkpt lat="43.55925" lon="12.42273"><ele>481.0</ele><time>2026-04-06T09:14:13.002Z</time></trkpt><trkpt lat="43.55922" lon="12.4229367"><ele>481.75</ele><time>2026-04-06T09:14:14.002Z</time></trkpt><trkpt lat="43.5591933" lon="12.42313"><ele>482.5</ele><time>2026-04-06T09:14:15.002Z</time></trkpt><trkpt lat="43.5591783" lon="12.4233183"><ele>483.25</ele><time>2026-04-06T09:14:16.002Z</time></trkpt><trkpt lat="43.5591633" lon="12.4235117"><ele>484.0</ele><time>2026-04-06T09:14:17.002Z</time></trkpt><trkpt lat="43.5591517" lon="12.4237033"><ele>483.75</ele><time>2026-04-06T09:14:18.002Z</time></trkpt><trkpt lat="43.5591567" lon="12.4238933"><ele>483.5</ele><time>2026-04-06T09:14:19.002Z</time></trkpt><trkpt lat="43.55917" lon="12.4240683"><ele>483.25</ele><time>2026-04-06T09:14:20.002Z</time></trkpt><trkpt lat="43.5592" lon="12.4242367"><ele>483.0</ele><time>2026-04-06T09:14:21.002Z</time></trkpt><trkpt lat="43.559235" lon="12.424425"><ele>483.0</ele><time>2026-04-06T09:14:22.002Z</time></trkpt><trkpt lat="43.5592767" lon="12.4246317"><ele>483.0</ele><time>2026-04-06T09:14:23.002Z</time></trkpt><trkpt lat="43.5593117" lon="12.4248517"><ele>483.0</ele><time>2026-04-06T09:14:24.002Z</time></trkpt><trkpt lat="43.55935" lon="12.4250783"><ele>480.66666666666663</ele><time>2026-04-06T09:14:25.002Z</time></trkpt><trkpt lat="43.55939" lon="12.425315"><ele>478.3333333333333</ele><time>2026-04-06T09:14:26.002Z</time></trkpt><trkpt lat="43.5594317" lon="12.425555"><ele>476.0</ele><time>2026-04-06T09:14:27.002Z</time></trkpt><trkpt lat="43.5594717" lon="12.4257867"><ele>475.0</ele><time>2026-04-06T09:14:28.002Z</time></trkpt><trkpt lat="43.559495" lon="12.4260217"><ele>474.0</ele><time>2026-04-06T09:14:29.002Z</time></trkpt><trkpt lat="43.5595317" lon="12.4262533"><ele>473.0</ele><time>2026-04-06T09:14:30.002Z</time></trkpt><trkpt lat="43.5595767" lon="12.42648"><ele>477.66666666666663</ele><time>2026-04-06T09:14:31.002Z</time></trkpt><trkpt lat="43.55964" lon="12.4266933"><ele>482.33333333333337</ele><time>2026-04-06T09:14:32.002Z</time></trkpt><trkpt lat="43.5597283" lon="12.4268967"><ele>487.0</ele><time>2026-04-06T09:14:33.002Z</time></trkpt><trkpt lat="43.55985" lon="12.427065"><ele>482.33333333333337</ele><time>2026-04-06T09:14:34.002Z</time></trkpt><trkpt lat="43.5599783" lon="12.4272017"><ele>477.66666666666663</ele><time>2026-04-06T09:14:35.002Z</time></trkpt><trkpt lat="43.5601167" lon="12.4273617"><ele>473.0</ele><time>2026-04-06T09:14:36.002Z</time></trkpt><trkpt lat="43.560265" lon="12.427495"><ele>476.3333333333333</ele><time>2026-04-06T09:14:37.001Z</time></trkpt><trkpt lat="43.5604117" lon="12.4276167"><ele>479.66666666666663</ele><time>2026-04-06T09:14:38.002Z</time></trkpt><trkpt lat="43.560565" lon="12.4277267"><ele>483.0</ele><time>2026-04-06T09:14:39.002Z</time></trkpt><trkpt lat="43.56073" lon="12.4278117"><ele>483.0</ele><time>2026-04-06T09:14:40.002Z</time></trkpt><trkpt lat="43.5608983" lon="12.42787"><ele>483.0</ele><time>2026-04-06T09:14:41.002Z</time></trkpt><trkpt lat="43.56107" lon="12.4279"><ele>483.0</ele><time>2026-04-06T09:14:42.002Z</time></trkpt><trkpt lat="43.5612367" lon="12.4279283"><ele>478.66666666666663</ele><time>2026-04-06T09:14:43.002Z</time></trkpt><trkpt lat="43.561415" lon="12.4279883"><ele>474.3333333333333</ele><time>2026-04-06T09:14:44.002Z</time></trkpt><trkpt lat="43.5616033" lon="12.4280433"><ele>470.0</ele><time>2026-04-06T09:14:45.002Z</time></trkpt><trkpt lat="43.5617667" lon="12.42808"><ele>470.0</ele><time>2026-04-06T09:14:46.002Z</time></trkpt><trkpt lat="43.5619367" lon="12.4281233"><ele>470.0</ele><time>2026-04-06T09:14:47.002Z</time></trkpt><trkpt lat="43.5621067" lon="12.4281667"><ele>470.0</ele><time>2026-04-06T09:14:48.002Z</time></trkpt><trkpt lat="43.5622867" lon="12.428205"><ele>472.0</ele><time>2026-04-06T09:14:49.002Z</time></trkpt><trkpt lat="43.5624667" lon="12.4282533"><ele>474.0</ele><time>2026-04-06T09:14:50.002Z</time></trkpt><trkpt lat="43.5626467" lon="12.4283083"><ele>476.0</ele><time>2026-04-06T09:14:51.002Z</time></trkpt><trkpt lat="43.5628183" lon="12.4283683"><ele>481.0</ele><time>2026-04-06T09:14:52.002Z</time></trkpt><trkpt lat="43.5629933" lon="12.42843"><ele>486.0</ele><time>2026-04-06T09:14:53.002Z</time></trkpt><trkpt lat="43.563165" lon="12.4284883"><ele>491.0</ele><time>2026-04-06T09:14:54.002Z</time></trkpt><trkpt lat="43.5633417" lon="12.42856"><ele>491.0</ele><time>2026-04-06T09:14:55.002Z</time></trkpt><trkpt lat="43.5635117" lon="12.4286317"><ele>491.0</ele><time>2026-04-06T09:14:56.002Z</time></trkpt><trkpt lat="43.5636717" lon="12.4287233"><ele>491.0</ele><time>2026-04-06T09:14:57.002Z</time></trkpt><trkpt lat="43.5638217" lon="12.42884"><ele>487.66666666666663</ele><time>2026-04-06T09:14:58.002Z</time></trkpt><trkpt lat="43.5639617" lon="12.4289967"><ele>484.33333333333337</ele><time>2026-04-06T09:14:59.002Z</time></trkpt><trkpt lat="43.5640983" lon="12.4291467"><ele>481.0</ele><time>2026-04-06T09:15:00.002Z</time></trkpt><trkpt lat="43.564215" lon="12.4293367"><ele>481.0</ele><time>2026-04-06T09:15:01.002Z</time></trkpt><trkpt lat="43.56432" lon="12.4295333"><ele>481.0</ele><time>2026-04-06T09:15:02.002Z</time></trkpt><trkpt lat="43.5644267" lon="12.429735"><ele>481.0</ele><time>2026-04-06T09:15:03.002Z</time></trkpt><trkpt lat="43.56451" lon="12.4299217"><ele>482.25</ele><time>2026-04-06T09:15:04.002Z</time></trkpt><trkpt lat="43.5645883" lon="12.4301033"><ele>483.5</ele><time>2026-04-06T09:15:05.002Z</time></trkpt><trkpt lat="43.5646517" lon="12.4302817"><ele>484.75</ele><time>2026-04-06T09:15:06.002Z</time></trkpt><trkpt lat="43.5646917" lon="12.4304783"><ele>486.0</ele><time>2026-04-06T09:15:07.002Z</time></trkpt><trkpt lat="43.5647117" lon="12.4306683"><ele>482.75</ele><time>2026-04-06T09:15:08.002Z</time></trkpt><trkpt lat="43.5647417" lon="12.4308433"><ele>479.5</ele><time>2026-04-06T09:15:09.002Z</time></trkpt><trkpt lat="43.5647833" lon="12.4310183"><ele>476.25</ele><time>2026-04-06T09:15:10.002Z</time></trkpt><trkpt lat="43.5648533" lon="12.4311933"><ele>473.0</ele><time>2026-04-06T09:15:11.002Z</time></trkpt><trkpt lat="43.564945" lon="12.4313733"><ele>470.3333333333333</ele><time>2026-04-06T09:15:12.002Z</time></trkpt><trkpt lat="43.5650483" lon="12.4315617"><ele>467.66666666666663</ele><time>2026-04-06T09:15:13.002Z</time></trkpt><trkpt lat="43.5651733" lon="12.43174"><ele>465.0</ele><time>2026-04-06T09:15:14.002Z</time></trkpt><trkpt lat="43.5653" lon="12.4319233"><ele>464.66666666666663</ele><time>2026-04-06T09:15:15.002Z</time></trkpt><trkpt lat="43.5654283" lon="12.432115"><ele>464.3333333333333</ele><time>2026-04-06T09:15:16.002Z</time></trkpt><trkpt lat="43.565555" lon="12.4323067"><ele>464.0</ele><time>2026-04-06T09:15:17.002Z</time></trkpt><trkpt lat="43.5656817" lon="12.4324933"><ele>464.0</ele><time>2026-04-06T09:15:18.002Z</time></trkpt><trkpt lat="43.5657967" lon="12.43268"><ele>464.0</ele><time>2026-04-06T09:15:19.002Z</time></trkpt><trkpt lat="43.5659283" lon="12.4328517"><ele>464.0</ele><time>2026-04-06T09:15:20.002Z</time></trkpt><trkpt lat="43.56606" lon="12.4330433"><ele>463.0</ele><time>2026-04-06T09:15:21.002Z</time></trkpt><trkpt lat="43.56619" lon="12.43324"><ele>462.0</ele><time>2026-04-06T09:15:22.002Z</time></trkpt><trkpt lat="43.5663317" lon="12.4334367"><ele>461.0</ele><time>2026-04-06T09:15:23.002Z</time></trkpt><trkpt lat="43.5664767" lon="12.433625"><ele>462.66666666666663</ele><time>2026-04-06T09:15:24.001Z</time></trkpt><trkpt lat="43.5666217" lon="12.4338117"><ele>464.33333333333337</ele><time>2026-04-06T09:15:25.002Z</time></trkpt><trkpt lat="43.5667767" lon="12.4339833"><ele>466.0</ele><time>2026-04-06T09:15:26.002Z</time></trkpt><trkpt lat="43.5669417" lon="12.43414"><ele>463.33333333333337</ele><time>2026-04-06T09:15:27.002Z</time></trkpt><trkpt lat="43.5671133" lon="12.4342833"><ele>460.66666666666663</ele><time>2026-04-06T09:15:28.002Z</time></trkpt><trkpt lat="43.567295" lon="12.4344083"><ele>458.0</ele><time>2026-04-06T09:15:29.002Z</time></trkpt><trkpt lat="43.56747" lon="12.4345217"><ele>458.0</ele><time>2026-04-06T09:15:30.002Z</time></trkpt><trkpt lat="43.5676417" lon="12.43463"><ele>458.0</ele><time>2026-04-06T09:15:31.002Z</time></trkpt><trkpt lat="43.5678083" lon="12.4347317"><ele>458.0</ele><time>2026-04-06T09:15:32.002Z</time></trkpt><trkpt lat="43.5679633" lon="12.4348283"><ele>458.3333333333333</ele><time>2026-04-06T09:15:33.002Z</time></trkpt><trkpt lat="43.5681133" lon="12.434925"><ele>458.66666666666663</ele><time>2026-04-06T09:15:34.002Z</time></trkpt><trkpt lat="43.56825" lon="12.435015"><ele>459.0</ele><time>2026-04-06T09:15:35.002Z</time></trkpt><trkpt lat="43.568375" lon="12.4350967"><ele>459.0</ele><time>2026-04-06T09:15:36.002Z</time></trkpt><trkpt lat="43.5684933" lon="12.435175"><ele>459.0</ele><time>2026-04-06T09:15:37.002Z</time></trkpt><trkpt lat="43.5686067" lon="12.43524"><ele>459.0</ele><time>2026-04-06T09:15:38.002Z</time></trkpt><trkpt lat="43.5687183" lon="12.4353017"><ele>459.0</ele><time>2026-04-06T09:15:39.002Z</time></trkpt><trkpt lat="43.5688333" lon="12.4353833"><ele>459.5</ele><time>2026-04-06T09:15:40.002Z</time></trkpt><trkpt lat="43.5689617" lon="12.4355233"><ele>460.0</ele><time>2026-04-06T09:15:41.002Z</time></trkpt><trkpt lat="43.56905" lon="12.4356333"><ele>460.5</ele><time>2026-04-06T09:15:42.002Z</time></trkpt><trkpt lat="43.56913" lon="12.4357917"><ele>461.0</ele><time>2026-04-06T09:15:43.002Z</time></trkpt><trkpt lat="43.5692033" lon="12.4359683"><ele>461.0</ele><time>2026-04-06T09:15:44.002Z</time></trkpt><trkpt lat="43.5692633" lon="12.4361667"><ele>461.0</ele><time>2026-04-06T09:15:45.002Z</time></trkpt><trkpt lat="43.5693267" lon="12.4363783"><ele>461.0</ele><time>2026-04-06T09:15:46.002Z</time></trkpt><trkpt lat="43.569395" lon="12.4365983"><ele>460.0</ele><time>2026-04-06T09:15:47.002Z</time></trkpt><trkpt lat="43.5694567" lon="12.4368267"><ele>459.0</ele><time>2026-04-06T09:15:48.002Z</time></trkpt><trkpt lat="43.5695167" lon="12.4370767"><ele>458.0</ele><time>2026-04-06T09:15:49.002Z</time></trkpt><trkpt lat="43.5695833" lon="12.43732"><ele>458.0</ele><time>2026-04-06T09:15:50.002Z</time></trkpt><trkpt lat="43.5696517" lon="12.437555"><ele>458.0</ele><time>2026-04-06T09:15:51.002Z</time></trkpt><trkpt lat="43.5697383" lon="12.437805"><ele>458.0</ele><time>2026-04-06T09:15:52.002Z</time></trkpt><trkpt lat="43.56983" lon="12.4380517"><ele>458.0</ele><time>2026-04-06T09:15:53.002Z</time></trkpt><trkpt lat="43.569925" lon="12.43831"><ele>458.0</ele><time>2026-04-06T09:15:54.002Z</time></trkpt><trkpt lat="43.5700333" lon="12.4385883"><ele>458.0</ele><time>2026-04-06T09:15:55.002Z</time></trkpt><trkpt lat="43.570135" lon="12.4388283"><ele>458.0</ele><time>2026-04-06T09:15:56.001Z</time></trkpt><trkpt lat="43.570225" lon="12.43906"><ele>458.0</ele><time>2026-04-06T09:15:57.002Z</time></trkpt><trkpt lat="43.5703033" lon="12.43928"><ele>458.0</ele><time>2026-04-06T09:15:58.002Z</time></trkpt><trkpt lat="43.570385" lon="12.43948"><ele>459.66666666666663</ele><time>2026-04-06T09:15:59.002Z</time></trkpt><trkpt lat="43.5704767" lon="12.4396717"><ele>461.33333333333337</ele><time>2026-04-06T09:16:00.002Z</time></trkpt><trkpt lat="43.5705767" lon="12.4398533"><ele>463.0</ele><time>2026-04-06T09:16:01.002Z</time></trkpt><trkpt lat="43.5707083" lon="12.44004"><ele>463.0</ele><time>2026-04-06T09:16:02.002Z</time></trkpt><trkpt lat="43.57083" lon="12.4402133"><ele>463.0</ele><time>2026-04-06T09:16:03.002Z</time></trkpt><trkpt lat="43.57097" lon="12.4403717"><ele>463.0</ele><time>2026-04-06T09:16:04.002Z</time></trkpt><trkpt lat="43.5711233" lon="12.4405083"><ele>463.33333333333337</ele><time>2026-04-06T09:16:05.002Z</time></trkpt><trkpt lat="43.571295" lon="12.4406233"><ele>463.66666666666663</ele><time>2026-04-06T09:16:06.002Z</time></trkpt><trkpt lat="43.5714617" lon="12.440755"><ele>464.0</ele><time>2026-04-06T09:16:07.002Z</time></trkpt><trkpt lat="43.5716267" lon="12.4408917"><ele>464.0</ele><time>2026-04-06T09:16:08.002Z</time></trkpt><trkpt lat="43.5717883" lon="12.4410333"><ele>464.0</ele><time>2026-04-06T09:16:09.002Z</time></trkpt><trkpt lat="43.5719483" lon="12.4411867"><ele>464.0</ele><time>2026-04-06T09:16:10.002Z</time></trkpt><trkpt lat="43.5721083" lon="12.4413383"><ele>462.3333333333333</ele><time>2026-04-06T09:16:11.002Z</time></trkpt><trkpt lat="43.572275" lon="12.4414917"><ele>460.66666666666663</ele><time>2026-04-06T09:16:12.002Z</time></trkpt><trkpt lat="43.5724383" lon="12.4416483"><ele>459.0</ele><time>2026-04-06T09:16:13.002Z</time></trkpt><trkpt lat="43.572595" lon="12.44181"><ele>459.0</ele><time>2026-04-06T09:16:14.002Z</time></trkpt><trkpt lat="43.5727617" lon="12.4419717"><ele>459.0</ele><time>2026-04-06T09:16:15.002Z</time></trkpt><trkpt lat="43.5729417" lon="12.44212"><ele>459.0</ele><time>2026-04-06T09:16:16.002Z</time></trkpt><trkpt lat="43.5731317" lon="12.44225"><ele>460.33333333333337</ele><time>2026-04-06T09:16:17.002Z</time></trkpt><trkpt lat="43.573325" lon="12.4423583"><ele>461.6666666666667</ele><time>2026-04-06T09:16:18.002Z</time></trkpt><trkpt lat="43.5735083" lon="12.4424767"><ele>463.0</ele><time>2026-04-06T09:16:19.002Z</time></trkpt><trkpt lat="43.5736917" lon="12.4426017"><ele>463.0</ele><time>2026-04-06T09:16:20.002Z</time></trkpt><trkpt lat="43.5738683" lon="12.4427333"><ele>463.0</ele><time>2026-04-06T09:16:21.002Z</time></trkpt><trkpt lat="43.574055" lon="12.442855"><ele>463.0</ele><time>2026-04-06T09:16:22.002Z</time></trkpt><trkpt lat="43.5742417" lon="12.442985"><ele>460.6666666666667</ele><time>2026-04-06T09:16:23.002Z</time></trkpt><trkpt lat="43.5744283" lon="12.443115"><ele>458.33333333333337</ele><time>2026-04-06T09:16:24.002Z</time></trkpt><trkpt lat="43.5746167" lon="12.443245"><ele>456.0</ele><time>2026-04-06T09:16:25.002Z</time></trkpt><trkpt lat="43.574805" lon="12.44336"><ele>456.0</ele><time>2026-04-06T09:16:26.002Z</time></trkpt><trkpt lat="43.5749883" lon="12.44345"><ele>456.0</ele><time>2026-04-06T09:16:27.002Z</time></trkpt><trkpt lat="43.5751767" lon="12.4435283"><ele>456.0</ele><time>2026-04-06T09:16:28.002Z</time></trkpt><trkpt lat="43.5753767" lon="12.4435967"><ele>458.66666666666663</ele><time>2026-04-06T09:16:29.002Z</time></trkpt><trkpt lat="43.5755767" lon="12.4436633"><ele>461.3333333333333</ele><time>2026-04-06T09:16:30.002Z</time></trkpt><trkpt lat="43.575775" lon="12.44373"><ele>464.0</ele><time>2026-04-06T09:16:31.002Z</time></trkpt><trkpt lat="43.5759733" lon="12.443785"><ele>462.0</ele><time>2026-04-06T09:16:32.002Z</time></trkpt><trkpt lat="43.5761683" lon="12.44386"><ele>460.0</ele><time>2026-04-06T09:16:33.002Z</time></trkpt><trkpt lat="43.57635" lon="12.44396"><ele>458.0</ele><time>2026-04-06T09:16:34.002Z</time></trkpt><trkpt lat="43.576505" lon="12.444095"><ele>458.0</ele><time>2026-04-06T09:16:35.002Z</time></trkpt><trkpt lat="43.5766517" lon="12.44427"><ele>458.0</ele><time>2026-04-06T09:16:36.002Z</time></trkpt><trkpt lat="43.5767617" lon="12.44447"><ele>458.0</ele><time>2026-04-06T09:16:37.002Z</time></trkpt><trkpt lat="43.5768433" lon="12.4447017"><ele>459.3333333333333</ele><time>2026-04-06T09:16:38.002Z</time></trkpt><trkpt lat="43.57691" lon="12.444935"><ele>460.66666666666663</ele><time>2026-04-06T09:16:39.002Z</time></trkpt><trkpt lat="43.5769917" lon="12.44517"><ele>462.0</ele><time>2026-04-06T09:16:40.002Z</time></trkpt><trkpt lat="43.5770967" lon="12.4453817"><ele>457.0</ele><time>2026-04-06T09:16:41.002Z</time></trkpt><trkpt lat="43.5772333" lon="12.4455633"><ele>452.0</ele><time>2026-04-06T09:16:42.002Z</time></trkpt><trkpt lat="43.5773967" lon="12.4457267"><ele>447.0</ele><time>2026-04-06T09:16:43.002Z</time></trkpt><trkpt lat="43.57755" lon="12.4458933"><ele>447.0</ele><time>2026-04-06T09:16:44.002Z</time></trkpt><trkpt lat="43.5777133" lon="12.4460683"><ele>447.0</ele><time>2026-04-06T09:16:45.002Z</time></trkpt><trkpt lat="43.57787" lon="12.4462583"><ele>447.0</ele><time>2026-04-06T09:16:46.002Z</time></trkpt><trkpt lat="43.5780183" lon="12.4464433"><ele>447.0</ele><time>2026-04-06T09:16:47.001Z</time></trkpt><trkpt lat="43.57815" lon="12.4466567"><ele>447.0</ele><time>2026-04-06T09:16:48.002Z</time></trkpt><trkpt lat="43.5782517" lon="12.4469017"><ele>447.0</ele><time>2026-04-06T09:16:49.002Z</time></trkpt><trkpt lat="43.5783317" lon="12.447155"><ele>444.66666666666663</ele><time>2026-04-06T09:16:50.002Z</time></trkpt><trkpt lat="43.57841" lon="12.4474167"><ele>442.3333333333333</ele><time>2026-04-06T09:16:51.002Z</time></trkpt><trkpt lat="43.5784933" lon="12.4476817"><ele>440.0</ele><time>2026-04-06T09:16:52.002Z</time></trkpt><trkpt lat="43.5786033" lon="12.4479167"><ele>441.3333333333333</ele><time>2026-04-06T09:16:53.002Z</time></trkpt><trkpt lat="43.57873" lon="12.4481367"><ele>442.66666666666663</ele><time>2026-04-06T09:16:54.002Z</time></trkpt><trkpt lat="43.5788733" lon="12.4483433"><ele>444.0</ele><time>2026-04-06T09:16:55.002Z</time></trkpt><trkpt lat="43.5790117" lon="12.448535"><ele>444.0</ele><time>2026-04-06T09:16:56.002Z</time></trkpt><trkpt lat="43.579155" lon="12.4487417"><ele>444.0</ele><time>2026-04-06T09:16:57.002Z</time></trkpt><trkpt lat="43.579295" lon="12.44895"><ele>444.0</ele><time>2026-04-06T09:16:58.002Z</time></trkpt><trkpt lat="43.5794417" lon="12.4491483"><ele>443.33333333333337</ele><time>2026-04-06T09:16:59.002Z</time></trkpt><trkpt lat="43.579585" lon="12.44935"><ele>442.6666666666667</ele><time>2026-04-06T09:17:00.001Z</time></trkpt><trkpt lat="43.5797183" lon="12.4495383"><ele>442.0</ele><time>2026-04-06T09:17:01.001Z</time></trkpt><trkpt lat="43.5798317" lon="12.449725"><ele>438.6666666666667</ele><time>2026-04-06T09:17:02.001Z</time></trkpt><trkpt lat="43.5799367" lon="12.449905"><ele>435.33333333333337</ele><time>2026-04-06T09:17:03.001Z</time></trkpt><trkpt lat="43.5800267" lon="12.450085"><ele>432.0</ele><time>2026-04-06T09:17:04.001Z</time></trkpt><trkpt lat="43.5800917" lon="12.4502783"><ele>432.66666666666663</ele><time>2026-04-06T09:17:05.001Z</time></trkpt><trkpt lat="43.5801233" lon="12.4504983"><ele>433.3333333333333</ele><time>2026-04-06T09:17:06.001Z</time></trkpt><trkpt lat="43.580125" lon="12.45073"><ele>434.0</ele><time>2026-04-06T09:17:07.001Z</time></trkpt><trkpt lat="43.58011" lon="12.45096"><ele>434.0</ele><time>2026-04-06T09:17:08.001Z</time></trkpt><trkpt lat="43.5800767" lon="12.451185"><ele>434.0</ele><time>2026-04-06T09:17:09.001Z</time></trkpt><trkpt lat="43.5800383" lon="12.451405"><ele>434.0</ele><time>2026-04-06T09:17:10.001Z</time></trkpt><trkpt lat="43.5800117" lon="12.4516383"><ele>434.3333333333333</ele><time>2026-04-06T09:17:11.001Z</time></trkpt><trkpt lat="43.5800233" lon="12.4518567"><ele>434.66666666666663</ele><time>2026-04-06T09:17:12.001Z</time></trkpt><trkpt lat="43.5800633" lon="12.452075"><ele>435.0</ele><time>2026-04-06T09:17:13.001Z</time></trkpt><trkpt lat="43.5801267" lon="12.4522867"><ele>437.66666666666663</ele><time>2026-04-06T09:17:14.001Z</time></trkpt><trkpt lat="43.5802167" lon="12.4524867"><ele>440.3333333333333</ele><time>2026-04-06T09:17:15.001Z</time></trkpt><trkpt lat="43.5803217" lon="12.4526583"><ele>443.0</ele><time>2026-04-06T09:17:16.001Z</time></trkpt><trkpt lat="43.5804433" lon="12.45283"><ele>438.66666666666663</ele><time>2026-04-06T09:17:17.001Z</time></trkpt><trkpt lat="43.5805383" lon="12.4529967"><ele>434.33333333333337</ele><time>2026-04-06T09:17:18.001Z</time></trkpt><trkpt lat="43.5806233" lon="12.453195"><ele>430.0</ele><time>2026-04-06T09:17:19.001Z</time></trkpt><trkpt lat="43.5806733" lon="12.4534167"><ele>430.0</ele><time>2026-04-06T09:17:20.001Z</time></trkpt><trkpt lat="43.5806983" lon="12.4536583"><ele>430.0</ele><time>2026-04-06T09:17:21.001Z</time></trkpt><trkpt lat="43.5806783" lon="12.4538983"><ele>430.0</ele><time>2026-04-06T09:17:22.001Z</time></trkpt><trkpt lat="43.580665" lon="12.454125"><ele>427.33333333333337</ele><time>2026-04-06T09:17:23.001Z</time></trkpt><trkpt lat="43.58064" lon="12.454355"><ele>424.66666666666663</ele><time>2026-04-06T09:17:24.001Z</time></trkpt><trkpt lat="43.5806217" lon="12.4545917"><ele>422.0</ele><time>2026-04-06T09:17:25.001Z</time></trkpt><trkpt lat="43.58061" lon="12.45484"><ele>421.3333333333333</ele><time>2026-04-06T09:17:26.001Z</time></trkpt><trkpt lat="43.5805933" lon="12.4550867"><ele>420.66666666666663</ele><time>2026-04-06T09:17:27.001Z</time></trkpt><trkpt lat="43.580575" lon="12.4553333"><ele>420.0</ele><time>2026-04-06T09:17:28.001Z</time></trkpt><trkpt lat="43.5805617" lon="12.4555717"><ele>418.66666666666663</ele><time>2026-04-06T09:17:29.001Z</time></trkpt><trkpt lat="43.5805517" lon="12.455805"><ele>417.3333333333333</ele><time>2026-04-06T09:17:30.001Z</time></trkpt><trkpt lat="43.5805333" lon="12.4560483"><ele>416.0</ele><time>2026-04-06T09:17:31.001Z</time></trkpt><trkpt lat="43.580505" lon="12.4563117"><ele>416.0</ele><time>2026-04-06T09:17:32.001Z</time></trkpt><trkpt lat="43.580465" lon="12.4565733"><ele>416.0</ele><time>2026-04-06T09:17:33.001Z</time></trkpt><trkpt lat="43.5804217" lon="12.4568067"><ele>416.0</ele><time>2026-04-06T09:17:34.001Z</time></trkpt><trkpt lat="43.580355" lon="12.4570467"><ele>416.3333333333333</ele><time>2026-04-06T09:17:35.001Z</time></trkpt><trkpt lat="43.580285" lon="12.45728"><ele>416.66666666666663</ele><time>2026-04-06T09:17:36.001Z</time></trkpt><trkpt lat="43.5802083" lon="12.4575283"><ele>417.0</ele><time>2026-04-06T09:17:37.001Z</time></trkpt><trkpt lat="43.580125" lon="12.4577867"><ele>418.33333333333337</ele><time>2026-04-06T09:17:38.001Z</time></trkpt><trkpt lat="43.58005" lon="12.4580333"><ele>419.6666666666667</ele><time>2026-04-06T09:17:39.001Z</time></trkpt><trkpt lat="43.57998" lon="12.4582683"><ele>421.0</ele><time>2026-04-06T09:17:40.001Z</time></trkpt><trkpt lat="43.5799267" lon="12.4585083"><ele>421.0</ele><time>2026-04-06T09:17:41.001Z</time></trkpt><trkpt lat="43.5798583" lon="12.4587467"><ele>421.0</ele><time>2026-04-06T09:17:42.001Z</time></trkpt><trkpt lat="43.579775" lon="12.4590183"><ele>421.0</ele><time>2026-04-06T09:17:43.001Z</time></trkpt><trkpt lat="43.57969" lon="12.4592867"><ele>418.0</ele><time>2026-04-06T09:17:44.001Z</time></trkpt><trkpt lat="43.5796017" lon="12.4595483"><ele>415.0</ele><time>2026-04-06T09:17:45.001Z</time></trkpt><trkpt lat="43.5795317" lon="12.4598333"><ele>412.0</ele><time>2026-04-06T09:17:46.001Z</time></trkpt><trkpt lat="43.5794667" lon="12.460105"><ele>412.0</ele><time>2026-04-06T09:17:47.001Z</time></trkpt><trkpt lat="43.579405" lon="12.4603567"><ele>412.0</ele><time>2026-04-06T09:17:48.001Z</time></trkpt><trkpt lat="43.57934" lon="12.4606117"><ele>412.0</ele><time>2026-04-06T09:17:49.001Z</time></trkpt><trkpt lat="43.57929" lon="12.4608517"><ele>412.33333333333337</ele><time>2026-04-06T09:17:50.001Z</time></trkpt><trkpt lat="43.5792767" lon="12.4611167"><ele>412.66666666666663</ele><time>2026-04-06T09:17:51.001Z</time></trkpt><trkpt lat="43.57927" lon="12.46137"><ele>413.0</ele><time>2026-04-06T09:17:52.001Z</time></trkpt><trkpt lat="43.5792617" lon="12.4616233"><ele>413.66666666666663</ele><time>2026-04-06T09:17:53.001Z</time></trkpt><trkpt lat="43.5792617" lon="12.4618933"><ele>414.33333333333337</ele><time>2026-04-06T09:17:54.001Z</time></trkpt><trkpt lat="43.579255" lon="12.46215"><ele>415.0</ele><time>2026-04-06T09:17:55.001Z</time></trkpt><trkpt lat="43.579225" lon="12.4624133"><ele>415.33333333333337</ele><time>2026-04-06T09:17:56.001Z</time></trkpt><trkpt lat="43.5791467" lon="12.4626583"><ele>415.66666666666663</ele><time>2026-04-06T09:17:57.001Z</time></trkpt><trkpt lat="43.5790367" lon="12.4628933"><ele>416.0</ele><time>2026-04-06T09:17:58.001Z</time></trkpt><trkpt lat="43.57891" lon="12.4631117"><ele>418.0</ele><time>2026-04-06T09:17:59.001Z</time></trkpt><trkpt lat="43.5787517" lon="12.4632933"><ele>420.0</ele><time>2026-04-06T09:18:00.001Z</time></trkpt><trkpt lat="43.5785883" lon="12.4634833"><ele>422.0</ele><time>2026-04-06T09:18:01.001Z</time></trkpt><trkpt lat="43.5784117" lon="12.4636567"><ele>421.3333333333333</ele><time>2026-04-06T09:18:02.001Z</time></trkpt><trkpt lat="43.5782317" lon="12.463835"><ele>420.66666666666663</ele><time>2026-04-06T09:18:03.001Z</time></trkpt><trkpt lat="43.5780567" lon="12.4640217"><ele>420.0</ele><time>2026-04-06T09:18:04.001Z</time></trkpt><trkpt lat="43.5778883" lon="12.4642067"><ele>417.33333333333337</ele><time>2026-04-06T09:18:05.001Z</time></trkpt><trkpt lat="43.5777283" lon="12.4643833"><ele>414.6666666666667</ele><time>2026-04-06T09:18:06.001Z</time></trkpt><trkpt lat="43.5775733" lon="12.4645467"><ele>412.0</ele><time>2026-04-06T09:18:07.001Z</time></trkpt><trkpt lat="43.577415" lon="12.464705"><ele>412.0</ele><time>2026-04-06T09:18:08.001Z</time></trkpt><trkpt lat="43.5772717" lon="12.464875"><ele>412.0</ele><time>2026-04-06T09:18:09.001Z</time></trkpt><trkpt lat="43.5771417" lon="12.46506"><ele>412.0</ele><time>2026-04-06T09:18:10.001Z</time></trkpt><trkpt lat="43.577035" lon="12.4652583"><ele>406.33333333333337</ele><time>2026-04-06T09:18:11.001Z</time></trkpt><trkpt lat="43.5769683" lon="12.4655017"><ele>400.66666666666663</ele><time>2026-04-06T09:18:12.001Z</time></trkpt><trkpt lat="43.5769333" lon="12.4657583"><ele>395.0</ele><time>2026-04-06T09:18:13.001Z</time></trkpt><trkpt lat="43.5769233" lon="12.4659983"><ele>395.0</ele><time>2026-04-06T09:18:14.001Z</time></trkpt><trkpt lat="43.5769283" lon="12.46625"><ele>395.0</ele><time>2026-04-06T09:18:15.001Z</time></trkpt><trkpt lat="43.57695" lon="12.4665083"><ele>395.0</ele><time>2026-04-06T09:18:16.001Z</time></trkpt><trkpt lat="43.5769933" lon="12.4667517"><ele>397.3333333333333</ele><time>2026-04-06T09:18:17.001Z</time></trkpt><trkpt lat="43.5770933" lon="12.4669767"><ele>399.66666666666663</ele><time>2026-04-06T09:18:18.001Z</time></trkpt><trkpt lat="43.577205" lon="12.46718"><ele>402.0</ele><time>2026-04-06T09:18:19.001Z</time></trkpt><trkpt lat="43.5773267" lon="12.46736"><ele>403.66666666666663</ele><time>2026-04-06T09:18:20.001Z</time></trkpt><trkpt lat="43.5774567" lon="12.4675333"><ele>405.3333333333333</ele><time>2026-04-06T09:18:21.001Z</time></trkpt><trkpt lat="43.5776" lon="12.467705"><ele>407.0</ele><time>2026-04-06T09:18:22.001Z</time></trkpt><trkpt lat="43.5777433" lon="12.4678867"><ele>405.3333333333333</ele><time>2026-04-06T09:18:23.001Z</time></trkpt><trkpt lat="43.5778867" lon="12.4680817"><ele>403.66666666666663</ele><time>2026-04-06T09:18:24.001Z</time></trkpt><trkpt lat="43.57804" lon="12.4682833"><ele>402.0</ele><time>2026-04-06T09:18:25.001Z</time></trkpt><trkpt lat="43.57818" lon="12.468465"><ele>402.0</ele><time>2026-04-06T09:18:26.001Z</time></trkpt><trkpt lat="43.5783183" lon="12.4686283"><ele>402.0</ele><time>2026-04-06T09:18:27.001Z</time></trkpt><trkpt lat="43.5784567" lon="12.4687717"><ele>402.0</ele><time>2026-04-06T09:18:28.001Z</time></trkpt><trkpt lat="43.5785717" lon="12.4689333"><ele>405.66666666666663</ele><time>2026-04-06T09:18:29.001Z</time></trkpt><trkpt lat="43.5786583" lon="12.469105"><ele>409.3333333333333</ele><time>2026-04-06T09:18:30.001Z</time></trkpt><trkpt lat="43.5787217" lon="12.4692983"><ele>413.0</ele><time>2026-04-06T09:18:31.001Z</time></trkpt><trkpt lat="43.578715" lon="12.4695017"><ele>412.3333333333333</ele><time>2026-04-06T09:18:32.001Z</time></trkpt><trkpt lat="43.5786533" lon="12.4696917"><ele>411.66666666666663</ele><time>2026-04-06T09:18:33.001Z</time></trkpt><trkpt lat="43.578595" lon="12.4698783"><ele>411.0</ele><time>2026-04-06T09:18:34.001Z</time></trkpt><trkpt lat="43.57848" lon="12.4700717"><ele>411.0</ele><time>2026-04-06T09:18:35.001Z</time></trkpt><trkpt lat="43.5783783" lon="12.4702633"><ele>411.0</ele><time>2026-04-06T09:18:36.001Z</time></trkpt><trkpt lat="43.5782867" lon="12.4704833"><ele>411.0</ele><time>2026-04-06T09:18:37.001Z</time></trkpt><trkpt lat="43.5782267" lon="12.4707183"><ele>405.33333333333337</ele><time>2026-04-06T09:18:38.001Z</time></trkpt><trkpt lat="43.5781783" lon="12.4709433"><ele>399.6666666666667</ele><time>2026-04-06T09:18:39.001Z</time></trkpt><trkpt lat="43.578145" lon="12.47119"><ele>394.0</ele><time>2026-04-06T09:18:40.001Z</time></trkpt><trkpt lat="43.578115" lon="12.4714133"><ele>392.0</ele><time>2026-04-06T09:18:41.001Z</time></trkpt><trkpt lat="43.5780817" lon="12.4716233"><ele>390.0</ele><time>2026-04-06T09:18:42.001Z</time></trkpt><trkpt lat="43.5780533" lon="12.47182"><ele>388.0</ele><time>2026-04-06T09:18:43.001Z</time></trkpt><trkpt lat="43.578025" lon="12.4719933"><ele>386.0</ele><time>2026-04-06T09:18:44.001Z</time></trkpt><trkpt lat="43.5779817" lon="12.4721867"><ele>385.66666666666663</ele><time>2026-04-06T09:18:45.001Z</time></trkpt><trkpt lat="43.5779417" lon="12.4724233"><ele>385.33333333333337</ele><time>2026-04-06T09:18:46.001Z</time></trkpt><trkpt lat="43.5779117" lon="12.4726433"><ele>385.0</ele><time>2026-04-06T09:18:47.001Z</time></trkpt><trkpt lat="43.577885" lon="12.472865"><ele>385.6666666666667</ele><time>2026-04-06T09:18:48.001Z</time></trkpt><trkpt lat="43.57788" lon="12.4731033"><ele>386.33333333333337</ele><time>2026-04-06T09:18:49.001Z</time></trkpt><trkpt lat="43.5779017" lon="12.473355"><ele>387.0</ele><time>2026-04-06T09:18:50.001Z</time></trkpt><trkpt lat="43.5779317" lon="12.4736217"><ele>387.33333333333337</ele><time>2026-04-06T09:18:51.001Z</time></trkpt><trkpt lat="43.5779883" lon="12.4739017"><ele>387.6666666666667</ele><time>2026-04-06T09:18:52.001Z</time></trkpt><trkpt lat="43.5780667" lon="12.4741433"><ele>388.0</ele><time>2026-04-06T09:18:53.001Z</time></trkpt><trkpt lat="43.5781567" lon="12.4743917"><ele>387.6666666666667</ele><time>2026-04-06T09:18:54.001Z</time></trkpt><trkpt lat="43.5782517" lon="12.4746383"><ele>387.33333333333337</ele><time>2026-04-06T09:18:55.001Z</time></trkpt><trkpt lat="43.57836" lon="12.4748583"><ele>387.0</ele><time>2026-04-06T09:18:56.001Z</time></trkpt><trkpt lat="43.5784767" lon="12.4750883"><ele>387.0</ele><time>2026-04-06T09:18:57.001Z</time></trkpt><trkpt lat="43.5785883" lon="12.4753233"><ele>387.0</ele><time>2026-04-06T09:18:58.001Z</time></trkpt><trkpt lat="43.5787017" lon="12.4755633"><ele>387.0</ele><time>2026-04-06T09:18:59.001Z</time></trkpt><trkpt lat="43.5788133" lon="12.4758117"><ele>389.66666666666663</ele><time>2026-04-06T09:19:00.001Z</time></trkpt><trkpt lat="43.5789283" lon="12.4760683"><ele>392.3333333333333</ele><time>2026-04-06T09:19:01.001Z</time></trkpt><trkpt lat="43.5790183" lon="12.476315"><ele>395.0</ele><time>2026-04-06T09:19:02.001Z</time></trkpt><trkpt lat="43.57909" lon="12.4765383"><ele>395.0</ele><time>2026-04-06T09:19:03.001Z</time></trkpt><trkpt lat="43.579115" lon="12.4767867"><ele>395.0</ele><time>2026-04-06T09:19:04.001Z</time></trkpt><trkpt lat="43.57911" lon="12.4770467"><ele>395.0</ele><time>2026-04-06T09:19:05.001Z</time></trkpt><trkpt lat="43.579065" lon="12.477305"><ele>397.3333333333333</ele><time>2026-04-06T09:19:06.001Z</time></trkpt><trkpt lat="43.5789983" lon="12.4775483"><ele>399.66666666666663</ele><time>2026-04-06T09:19:07Z</time></trkpt><trkpt lat="43.5789283" lon="12.4777767"><ele>402.0</ele><time>2026-04-06T09:19:08.001Z</time></trkpt><trkpt lat="43.5788617" lon="12.4780283"><ele>402.33333333333337</ele><time>2026-04-06T09:19:09.001Z</time></trkpt><trkpt lat="43.57883" lon="12.4782617"><ele>402.6666666666667</ele><time>2026-04-06T09:19:10.001Z</time></trkpt><trkpt lat="43.57882" lon="12.4784983"><ele>403.0</ele><time>2026-04-06T09:19:11.001Z</time></trkpt><trkpt lat="43.578855" lon="12.478725"><ele>398.33333333333337</ele><time>2026-04-06T09:19:12.001Z</time></trkpt><trkpt lat="43.5789167" lon="12.4789533"><ele>393.66666666666663</ele><time>2026-04-06T09:19:13.001Z</time></trkpt><trkpt lat="43.57899" lon="12.479195"><ele>389.0</ele><time>2026-04-06T09:19:14.001Z</time></trkpt><trkpt lat="43.5790433" lon="12.4794483"><ele>385.66666666666663</ele><time>2026-04-06T09:19:15.001Z</time></trkpt><trkpt lat="43.57906" lon="12.4797067"><ele>382.3333333333333</ele><time>2026-04-06T09:19:16.001Z</time></trkpt><trkpt lat="43.5790383" lon="12.4799917"><ele>379.0</ele><time>2026-04-06T09:19:17.001Z</time></trkpt><trkpt lat="43.5789933" lon="12.4802483"><ele>379.0</ele><time>2026-04-06T09:19:18.001Z</time></trkpt><trkpt lat="43.5789267" lon="12.4804817"><ele>379.0</ele><time>2026-04-06T09:19:19.001Z</time></trkpt><trkpt lat="43.57884" lon="12.4807067"><ele>379.0</ele><time>2026-04-06T09:19:20.001Z</time></trkpt><trkpt lat="43.5787683" lon="12.4809183"><ele>379.0</ele><time>2026-04-06T09:19:21.001Z</time></trkpt><trkpt lat="43.5787467" lon="12.48113"><ele>379.0</ele><time>2026-04-06T09:19:22.001Z</time></trkpt><trkpt lat="43.5787533" lon="12.4813567"><ele>379.0</ele><time>2026-04-06T09:19:23.001Z</time></trkpt><trkpt lat="43.578795" lon="12.4815767"><ele>380.0</ele><time>2026-04-06T09:19:24.001Z</time></trkpt><trkpt lat="43.578845" lon="12.4817867"><ele>381.0</ele><time>2026-04-06T09:19:25.001Z</time></trkpt><trkpt lat="43.578875" lon="12.4819817"><ele>382.0</ele><time>2026-04-06T09:19:26.001Z</time></trkpt><trkpt lat="43.5788633" lon="12.482175"><ele>383.0</ele><time>2026-04-06T09:19:27.001Z</time></trkpt><trkpt lat="43.57882" lon="12.4823717"><ele>382.33333333333337</ele><time>2026-04-06T09:19:28.001Z</time></trkpt><trkpt lat="43.5787433" lon="12.48255"><ele>381.6666666666667</ele><time>2026-04-06T09:19:29.001Z</time></trkpt><trkpt lat="43.5786383" lon="12.4827033"><ele>381.0</ele><time>2026-04-06T09:19:30Z</time></trkpt><trkpt lat="43.5784967" lon="12.482835"><ele>381.0</ele><time>2026-04-06T09:19:31.001Z</time></trkpt><trkpt lat="43.5783417" lon="12.48292"><ele>381.0</ele><time>2026-04-06T09:19:32.001Z</time></trkpt><trkpt lat="43.578165" lon="12.4829483"><ele>381.0</ele><time>2026-04-06T09:19:33Z</time></trkpt><trkpt lat="43.5780083" lon="12.482945"><ele>384.75</ele><time>2026-04-06T09:19:34.001Z</time></trkpt><trkpt lat="43.5778617" lon="12.4829533"><ele>388.5</ele><time>2026-04-06T09:19:35.001Z</time></trkpt><trkpt lat="43.5777467" lon="12.4830033"><ele>392.25</ele><time>2026-04-06T09:19:36.001Z</time></trkpt><trkpt lat="43.5776583" lon="12.4830917"><ele>396.0</ele><time>2026-04-06T09:19:37.001Z</time></trkpt><trkpt lat="43.57761" lon="12.48324"><ele>396.0</ele><time>2026-04-06T09:19:38.001Z</time></trkpt><trkpt lat="43.5775833" lon="12.4834217"><ele>396.0</ele><time>2026-04-06T09:19:39.001Z</time></trkpt><trkpt lat="43.5776" lon="12.4836283"><ele>396.0</ele><time>2026-04-06T09:19:40.001Z</time></trkpt><trkpt lat="43.5776333" lon="12.4838117"><ele>396.0</ele><time>2026-04-06T09:19:41.001Z</time></trkpt><trkpt lat="43.577735" lon="12.4840267"><ele>396.0</ele><time>2026-04-06T09:19:42.001Z</time></trkpt><trkpt lat="43.5778383" lon="12.48423"><ele>396.0</ele><time>2026-04-06T09:19:43.001Z</time></trkpt><trkpt lat="43.5779567" lon="12.4844183"><ele>396.0</ele><time>2026-04-06T09:19:44.001Z</time></trkpt><trkpt lat="43.57808" lon="12.4846083"><ele>390.6666666666667</ele><time>2026-04-06T09:19:45.001Z</time></trkpt><trkpt lat="43.5781983" lon="12.4847967"><ele>385.33333333333337</ele><time>2026-04-06T09:19:46.001Z</time></trkpt><trkpt lat="43.578335" lon="12.4849833"><ele>380.0</ele><time>2026-04-06T09:19:47.001Z</time></trkpt><trkpt lat="43.5784767" lon="12.4851567"><ele>380.0</ele><time>2026-04-06T09:19:48.001Z</time></trkpt><trkpt lat="43.5786217" lon="12.485325"><ele>380.0</ele><time>2026-04-06T09:19:49Z</time></trkpt><trkpt lat="43.57877" lon="12.48549"><ele>380.0</ele><time>2026-04-06T09:19:50.001Z</time></trkpt><trkpt lat="43.5789067" lon="12.485655"><ele>382.0</ele><time>2026-04-06T09:19:51.001Z</time></trkpt><trkpt lat="43.57906" lon="12.4857967"><ele>384.0</ele><time>2026-04-06T09:19:52.001Z</time></trkpt><trkpt lat="43.5792133" lon="12.485935"><ele>386.0</ele><time>2026-04-06T09:19:53.001Z</time></trkpt><trkpt lat="43.5793767" lon="12.4860667"><ele>383.66666666666663</ele><time>2026-04-06T09:19:54.001Z</time></trkpt><trkpt lat="43.5795317" lon="12.4861883"><ele>381.3333333333333</ele><time>2026-04-06T09:19:55.001Z</time></trkpt><trkpt lat="43.5796933" lon="12.4862833"><ele>379.0</ele><time>2026-04-06T09:19:56.001Z</time></trkpt><trkpt lat="43.579875" lon="12.4863983"><ele>379.0</ele><time>2026-04-06T09:19:57.001Z</time></trkpt><trkpt lat="43.5800633" lon="12.4865017"><ele>379.0</ele><time>2026-04-06T09:19:58.001Z</time></trkpt><trkpt lat="43.5802567" lon="12.48658"><ele>379.0</ele><time>2026-04-06T09:19:59.001Z</time></trkpt><trkpt lat="43.580465" lon="12.4866717"><ele>382.0</ele><time>2026-04-06T09:20:00.001Z</time></trkpt><trkpt lat="43.5806783" lon="12.4867783"><ele>385.0</ele><time>2026-04-06T09:20:01.001Z</time></trkpt><trkpt lat="43.5808817" lon="12.48687"><ele>388.0</ele><time>2026-04-06T09:20:02.001Z</time></trkpt><trkpt lat="43.5810767" lon="12.4869083"><ele>386.0</ele><time>2026-04-06T09:20:03.001Z</time></trkpt><trkpt lat="43.581265" lon="12.4869"><ele>384.0</ele><time>2026-04-06T09:20:04.001Z</time></trkpt><trkpt lat="43.5814533" lon="12.486855"><ele>382.0</ele><time>2026-04-06T09:20:05.001Z</time></trkpt><trkpt lat="43.58164" lon="12.4867867"><ele>382.0</ele><time>2026-04-06T09:20:06.001Z</time></trkpt><trkpt lat="43.5818317" lon="12.48671"><ele>382.0</ele><time>2026-04-06T09:20:07.001Z</time></trkpt><trkpt lat="43.58202" lon="12.486645"><ele>382.0</ele><time>2026-04-06T09:20:08.001Z</time></trkpt><trkpt lat="43.582205" lon="12.4866267"><ele>377.66666666666663</ele><time>2026-04-06T09:20:09.001Z</time></trkpt><trkpt lat="43.5823867" lon="12.4866517"><ele>373.3333333333333</ele><time>2026-04-06T09:20:10.001Z</time></trkpt><trkpt lat="43.5825583" lon="12.4867333"><ele>369.0</ele><time>2026-04-06T09:20:11.001Z</time></trkpt><trkpt lat="43.5827117" lon="12.4868683"><ele>367.0</ele><time>2026-04-06T09:20:12.001Z</time></trkpt><trkpt lat="43.5828483" lon="12.4870433"><ele>365.0</ele><time>2026-04-06T09:20:13.001Z</time></trkpt><trkpt lat="43.582965" lon="12.487255"><ele>363.0</ele><time>2026-04-06T09:20:14.001Z</time></trkpt><trkpt lat="43.5830517" lon="12.487495"><ele>363.0</ele><time>2026-04-06T09:20:15.001Z</time></trkpt><trkpt lat="43.5831033" lon="12.4877533"><ele>363.0</ele><time>2026-04-06T09:20:16.001Z</time></trkpt><trkpt lat="43.583125" lon="12.4880317"><ele>363.0</ele><time>2026-04-06T09:20:17.001Z</time></trkpt><trkpt lat="43.5831283" lon="12.48828"><ele>362.0</ele><time>2026-04-06T09:20:18.001Z</time></trkpt><trkpt lat="43.583115" lon="12.48855"><ele>361.0</ele><time>2026-04-06T09:20:19.001Z</time></trkpt><trkpt lat="43.5830867" lon="12.48883"><ele>360.0</ele><time>2026-04-06T09:20:20.001Z</time></trkpt><trkpt lat="43.5830717" lon="12.4891017"><ele>359.6666666666667</ele><time>2026-04-06T09:20:21.001Z</time></trkpt><trkpt lat="43.5830633" lon="12.4893817"><ele>359.33333333333337</ele><time>2026-04-06T09:20:22.001Z</time></trkpt><trkpt lat="43.583055" lon="12.4896583"><ele>359.0</ele><time>2026-04-06T09:20:23.001Z</time></trkpt><trkpt lat="43.58304" lon="12.48994"><ele>358.0</ele><time>2026-04-06T09:20:24.001Z</time></trkpt><trkpt lat="43.583025" lon="12.4902133"><ele>357.0</ele><time>2026-04-06T09:20:25.001Z</time></trkpt><trkpt lat="43.583005" lon="12.4904733"><ele>356.0</ele><time>2026-04-06T09:20:26.001Z</time></trkpt><trkpt lat="43.5829817" lon="12.4907117"><ele>356.0</ele><time>2026-04-06T09:20:27.001Z</time></trkpt><trkpt lat="43.5829633" lon="12.4909333"><ele>356.0</ele><time>2026-04-06T09:20:28.001Z</time></trkpt><trkpt lat="43.582935" lon="12.49115"><ele>356.0</ele><time>2026-04-06T09:20:29.001Z</time></trkpt><trkpt lat="43.582915" lon="12.4913667"><ele>355.6666666666667</ele><time>2026-04-06T09:20:30.001Z</time></trkpt><trkpt lat="43.5829017" lon="12.4916"><ele>355.3333333333333</ele><time>2026-04-06T09:20:31.001Z</time></trkpt><trkpt lat="43.5828783" lon="12.4918383"><ele>355.0</ele><time>2026-04-06T09:20:32.001Z</time></trkpt><trkpt lat="43.582825" lon="12.4920767"><ele>359.0</ele><time>2026-04-06T09:20:33.001Z</time></trkpt><trkpt lat="43.5827517" lon="12.4923233"><ele>363.0</ele><time>2026-04-06T09:20:34.001Z</time></trkpt><trkpt lat="43.5826583" lon="12.49255"><ele>367.0</ele><time>2026-04-06T09:20:35.001Z</time></trkpt><trkpt lat="43.58253" lon="12.4927633"><ele>363.3333333333333</ele><time>2026-04-06T09:20:36.001Z</time></trkpt><trkpt lat="43.5823867" lon="12.4929617"><ele>359.6666666666667</ele><time>2026-04-06T09:20:37.001Z</time></trkpt><trkpt lat="43.58224" lon="12.49316"><ele>356.0</ele><time>2026-04-06T09:20:38.001Z</time></trkpt><trkpt lat="43.582105" lon="12.49335"><ele>358.0</ele><time>2026-04-06T09:20:39.001Z</time></trkpt><trkpt lat="43.5819783" lon="12.4935167"><ele>360.0</ele><time>2026-04-06T09:20:40.001Z</time></trkpt><trkpt lat="43.5818483" lon="12.493665"><ele>362.0</ele><time>2026-04-06T09:20:41.001Z</time></trkpt><trkpt lat="43.5816967" lon="12.4938017"><ele>362.0</ele><time>2026-04-06T09:20:42.001Z</time></trkpt><trkpt lat="43.5815267" lon="12.4939083"><ele>362.0</ele><time>2026-04-06T09:20:43.001Z</time></trkpt><trkpt lat="43.581345" lon="12.49401"><ele>362.0</ele><time>2026-04-06T09:20:44.001Z</time></trkpt><trkpt lat="43.5811667" lon="12.49411"><ele>360.6666666666667</ele><time>2026-04-06T09:20:45.001Z</time></trkpt><trkpt lat="43.5809783" lon="12.4941783"><ele>359.3333333333333</ele><time>2026-04-06T09:20:46.001Z</time></trkpt><trkpt lat="43.5807867" lon="12.4942633"><ele>358.0</ele><time>2026-04-06T09:20:47.001Z</time></trkpt><trkpt lat="43.580605" lon="12.494355"><ele>358.0</ele><time>2026-04-06T09:20:48.001Z</time></trkpt><trkpt lat="43.58044" lon="12.4944317"><ele>358.0</ele><time>2026-04-06T09:20:49.001Z</time></trkpt><trkpt lat="43.5802867" lon="12.4945517"><ele>358.0</ele><time>2026-04-06T09:20:50.001Z</time></trkpt><trkpt lat="43.5801483" lon="12.494705"><ele>360.66666666666663</ele><time>2026-04-06T09:20:51.001Z</time></trkpt><trkpt lat="43.580025" lon="12.4948983"><ele>363.3333333333333</ele><time>2026-04-06T09:20:52.001Z</time></trkpt><trkpt lat="43.57992" lon="12.4951067"><ele>366.0</ele><time>2026-04-06T09:20:53.001Z</time></trkpt><trkpt lat="43.5798233" lon="12.4953283"><ele>373.33333333333337</ele><time>2026-04-06T09:20:54.001Z</time></trkpt><trkpt lat="43.5797167" lon="12.4955567"><ele>380.6666666666667</ele><time>2026-04-06T09:20:55.001Z</time></trkpt><trkpt lat="43.5796267" lon="12.4957983"><ele>388.0</ele><time>2026-04-06T09:20:56.001Z</time></trkpt><trkpt lat="43.5795383" lon="12.4960383"><ele>376.33333333333337</ele><time>2026-04-06T09:20:57.001Z</time></trkpt><trkpt lat="43.5794867" lon="12.4962817"><ele>364.6666666666667</ele><time>2026-04-06T09:20:58.001Z</time></trkpt><trkpt lat="43.579465" lon="12.4965283"><ele>353.0</ele><time>2026-04-06T09:20:59Z</time></trkpt><trkpt lat="43.5794767" lon="12.4967733"><ele>357.33333333333337</ele><time>2026-04-06T09:21:00.001Z</time></trkpt><trkpt lat="43.5795433" lon="12.4970517"><ele>361.6666666666667</ele><time>2026-04-06T09:21:01.001Z</time></trkpt><trkpt lat="43.5796367" lon="12.4973"><ele>366.0</ele><time>2026-04-06T09:21:02.001Z</time></trkpt><trkpt lat="43.5797783" lon="12.497535"><ele>366.0</ele><time>2026-04-06T09:21:03.001Z</time></trkpt><trkpt lat="43.5799483" lon="12.49771"><ele>366.0</ele><time>2026-04-06T09:21:04.001Z</time></trkpt><trkpt lat="43.5801067" lon="12.497845"><ele>366.0</ele><time>2026-04-06T09:21:05.001Z</time></trkpt><trkpt lat="43.5802833" lon="12.4979383"><ele>363.3333333333333</ele><time>2026-04-06T09:21:06.001Z</time></trkpt><trkpt lat="43.5804733" lon="12.4980083"><ele>360.66666666666663</ele><time>2026-04-06T09:21:07.001Z</time></trkpt><trkpt lat="43.5806683" lon="12.49806"><ele>358.0</ele><time>2026-04-06T09:21:08.001Z</time></trkpt><trkpt lat="43.5808817" lon="12.4981083"><ele>358.0</ele><time>2026-04-06T09:21:09.001Z</time></trkpt><trkpt lat="43.581085" lon="12.4981517"><ele>358.0</ele><time>2026-04-06T09:21:10.001Z</time></trkpt><trkpt lat="43.5812817" lon="12.4982033"><ele>358.0</ele><time>2026-04-06T09:21:11.001Z</time></trkpt><trkpt lat="43.5814733" lon="12.4982617"><ele>357.66666666666663</ele><time>2026-04-06T09:21:12.001Z</time></trkpt><trkpt lat="43.5816783" lon="12.4983033"><ele>357.3333333333333</ele><time>2026-04-06T09:21:13.001Z</time></trkpt><trkpt lat="43.58189" lon="12.4983417"><ele>357.0</ele><time>2026-04-06T09:21:14.001Z</time></trkpt><trkpt lat="43.5821083" lon="12.49837"><ele>356.6666666666667</ele><time>2026-04-06T09:21:15.001Z</time></trkpt><trkpt lat="43.582315" lon="12.498395"><ele>356.33333333333337</ele><time>2026-04-06T09:21:16.001Z</time></trkpt><trkpt lat="43.5825283" lon="12.4983767"><ele>356.0</ele><time>2026-04-06T09:21:17.001Z</time></trkpt><trkpt lat="43.58275" lon="12.49835"><ele>355.33333333333337</ele><time>2026-04-06T09:21:18.001Z</time></trkpt><trkpt lat="43.5829583" lon="12.498325"><ele>354.6666666666667</ele><time>2026-04-06T09:21:19.001Z</time></trkpt><trkpt lat="43.58317" lon="12.4983267"><ele>354.0</ele><time>2026-04-06T09:21:20.001Z</time></trkpt><trkpt lat="43.5833833" lon="12.4983317"><ele>354.0</ele><time>2026-04-06T09:21:21.001Z</time></trkpt><trkpt lat="43.5836017" lon="12.4983383"><ele>354.0</ele><time>2026-04-06T09:21:22.001Z</time></trkpt><trkpt lat="43.58383" lon="12.498365"><ele>354.0</ele><time>2026-04-06T09:21:23.001Z</time></trkpt><trkpt lat="43.5840417" lon="12.498405"><ele>353.6666666666667</ele><time>2026-04-06T09:21:24.001Z</time></trkpt><trkpt lat="43.5842433" lon="12.4984367"><ele>353.33333333333337</ele><time>2026-04-06T09:21:25Z</time></trkpt><trkpt lat="43.5844417" lon="12.49849"><ele>353.0</ele><time>2026-04-06T09:21:26Z</time></trkpt><trkpt lat="43.5846517" lon="12.49854"><ele>355.6666666666667</ele><time>2026-04-06T09:21:27.001Z</time></trkpt><trkpt lat="43.584845" lon="12.4985967"><ele>358.3333333333333</ele><time>2026-04-06T09:21:28.001Z</time></trkpt><trkpt lat="43.5850467" lon="12.4986617"><ele>361.0</ele><time>2026-04-06T09:21:29.001Z</time></trkpt><trkpt lat="43.5852367" lon="12.4987383"><ele>360.66666666666663</ele><time>2026-04-06T09:21:30.001Z</time></trkpt><trkpt lat="43.5854117" lon="12.49883"><ele>360.3333333333333</ele><time>2026-04-06T09:21:31.001Z</time></trkpt><trkpt lat="43.585575" lon="12.4989067"><ele>360.0</ele><time>2026-04-06T09:21:32.001Z</time></trkpt><trkpt lat="43.5857383" lon="12.49899"><ele>360.0</ele><time>2026-04-06T09:21:33.001Z</time></trkpt><trkpt lat="43.5858867" lon="12.4991217"><ele>360.0</ele><time>2026-04-06T09:21:34.001Z</time></trkpt><trkpt lat="43.58601" lon="12.4992967"><ele>360.0</ele><time>2026-04-06T09:21:35.001Z</time></trkpt><trkpt lat="43.5861217" lon="12.4994967"><ele>364.3333333333333</ele><time>2026-04-06T09:21:36.001Z</time></trkpt><trkpt lat="43.5861867" lon="12.499735"><ele>368.66666666666663</ele><time>2026-04-06T09:21:37.001Z</time></trkpt><trkpt lat="43.586215" lon="12.499995"><ele>373.0</ele><time>2026-04-06T09:21:38.001Z</time></trkpt><trkpt lat="43.5862183" lon="12.5002417"><ele>373.66666666666663</ele><time>2026-04-06T09:21:39.001Z</time></trkpt><trkpt lat="43.5861933" lon="12.500505"><ele>374.3333333333333</ele><time>2026-04-06T09:21:40.001Z</time></trkpt><trkpt lat="43.5861517" lon="12.5007883"><ele>375.0</ele><time>2026-04-06T09:21:41.001Z</time></trkpt><trkpt lat="43.5861117" lon="12.5010717"><ele>367.0</ele><time>2026-04-06T09:21:42.001Z</time></trkpt><trkpt lat="43.586085" lon="12.50136"><ele>359.0</ele><time>2026-04-06T09:21:43.001Z</time></trkpt><trkpt lat="43.586055" lon="12.501635"><ele>351.0</ele><time>2026-04-06T09:21:44.001Z</time></trkpt><trkpt lat="43.5860133" lon="12.5019083"><ele>350.0</ele><time>2026-04-06T09:21:45.001Z</time></trkpt><trkpt lat="43.5859767" lon="12.5021933"><ele>349.0</ele><time>2026-04-06T09:21:46.001Z</time></trkpt><trkpt lat="43.5859333" lon="12.5024883"><ele>348.0</ele><time>2026-04-06T09:21:47.001Z</time></trkpt><trkpt lat="43.585895" lon="12.5027783"><ele>348.6666666666667</ele><time>2026-04-06T09:21:48.001Z</time></trkpt><trkpt lat="43.58586" lon="12.50305"><ele>349.33333333333337</ele><time>2026-04-06T09:21:49.001Z</time></trkpt><trkpt lat="43.5858333" lon="12.5033117"><ele>350.0</ele><time>2026-04-06T09:21:50.001Z</time></trkpt><trkpt lat="43.5858117" lon="12.5035617"><ele>350.33333333333337</ele><time>2026-04-06T09:21:51.001Z</time></trkpt><trkpt lat="43.58579" lon="12.5038033"><ele>350.6666666666667</ele><time>2026-04-06T09:21:52.001Z</time></trkpt><trkpt lat="43.5857633" lon="12.5040433"><ele>351.0</ele><time>2026-04-06T09:21:53.001Z</time></trkpt><trkpt lat="43.5857467" lon="12.50429"><ele>351.0</ele><time>2026-04-06T09:21:54Z</time></trkpt><trkpt lat="43.5857317" lon="12.5045317"><ele>351.0</ele><time>2026-04-06T09:21:55.001Z</time></trkpt><trkpt lat="43.5856983" lon="12.5047717"><ele>351.0</ele><time>2026-04-06T09:21:56.001Z</time></trkpt><trkpt lat="43.585645" lon="12.505005"><ele>351.3333333333333</ele><time>2026-04-06T09:21:57.001Z</time></trkpt><trkpt lat="43.5855917" lon="12.5052333"><ele>351.66666666666663</ele><time>2026-04-06T09:21:58.001Z</time></trkpt><trkpt lat="43.5855267" lon="12.5054467"><ele>352.0</ele><time>2026-04-06T09:21:59Z</time></trkpt><trkpt lat="43.5854717" lon="12.505645"><ele>351.75</ele><time>2026-04-06T09:22:00.001Z</time></trkpt><trkpt lat="43.5854283" lon="12.50582"><ele>351.5</ele><time>2026-04-06T09:22:01.001Z</time></trkpt><trkpt lat="43.5853933" lon="12.5060033"><ele>351.25</ele><time>2026-04-06T09:22:02.001Z</time></trkpt><trkpt lat="43.5853833" lon="12.5061967"><ele>351.0</ele><time>2026-04-06T09:22:03.001Z</time></trkpt><trkpt lat="43.5853867" lon="12.5063833"><ele>351.0</ele><time>2026-04-06T09:22:04.001Z</time></trkpt><trkpt lat="43.5854" lon="12.50655"><ele>351.0</ele><time>2026-04-06T09:22:05.001Z</time></trkpt><trkpt lat="43.5854267" lon="12.5067017"><ele>351.0</ele><time>2026-04-06T09:22:06.001Z</time></trkpt><trkpt lat="43.58546" lon="12.506845"><ele>351.0</ele><time>2026-04-06T09:22:07.001Z</time></trkpt><trkpt lat="43.5855133" lon="12.5069683"><ele>351.0</ele><time>2026-04-06T09:22:08.001Z</time></trkpt><trkpt lat="43.5855767" lon="12.5070933"><ele>350.0</ele><time>2026-04-06T09:22:09.001Z</time></trkpt><trkpt lat="43.5856417" lon="12.5072067"><ele>349.0</ele><time>2026-04-06T09:22:10.001Z</time></trkpt><trkpt lat="43.5857183" lon="12.50731"><ele>348.0</ele><time>2026-04-06T09:22:11.001Z</time></trkpt><trkpt lat="43.5858017" lon="12.50741"><ele>347.0</ele><time>2026-04-06T09:22:12.001Z</time></trkpt><trkpt lat="43.585895" lon="12.5074833"><ele>346.0</ele><time>2026-04-06T09:22:13.001Z</time></trkpt><trkpt lat="43.5859867" lon="12.5075433"><ele>346.0</ele><time>2026-04-06T09:22:14.001Z</time></trkpt><trkpt lat="43.5860867" lon="12.5076"><ele>346.0</ele><time>2026-04-06T09:22:15.001Z</time></trkpt><trkpt lat="43.5861833" lon="12.5076433"><ele>346.0</ele><time>2026-04-06T09:22:16.001Z</time></trkpt><trkpt lat="43.586275" lon="12.5076867"><ele>346.0</ele><time>2026-04-06T09:22:17.001Z</time></trkpt><trkpt lat="43.58636" lon="12.5077283"><ele>346.0</ele><time>2026-04-06T09:22:18.001Z</time></trkpt><trkpt lat="43.586445" lon="12.5077617"><ele>346.0</ele><time>2026-04-06T09:22:19.001Z</time></trkpt><trkpt lat="43.58652" lon="12.5078"><ele>346.0</ele><time>2026-04-06T09:22:20.001Z</time></trkpt><trkpt lat="43.5866033" lon="12.5078517"><ele>346.0</ele><time>2026-04-06T09:22:21.001Z</time></trkpt><trkpt lat="43.5866917" lon="12.5079117"><ele>346.0</ele><time>2026-04-06T09:22:22.001Z</time></trkpt><trkpt lat="43.58679" lon="12.507965"><ele>346.0</ele><time>2026-04-06T09:22:23.001Z</time></trkpt><trkpt lat="43.5868867" lon="12.5080283"><ele>344.75</ele><time>2026-04-06T09:22:24.001Z</time></trkpt><trkpt lat="43.5869933" lon="12.508085"><ele>343.5</ele><time>2026-04-06T09:22:25.001Z</time></trkpt><trkpt lat="43.5871017" lon="12.5081517"><ele>342.25</ele><time>2026-04-06T09:22:26.001Z</time></trkpt><trkpt lat="43.587205" lon="12.5082317"><ele>341.0</ele><time>2026-04-06T09:22:27.001Z</time></trkpt><trkpt lat="43.5873117" lon="12.5083067"><ele>341.0</ele><time>2026-04-06T09:22:28.001Z</time></trkpt><trkpt lat="43.5874233" lon="12.5083733"><ele>341.0</ele><time>2026-04-06T09:22:29.001Z</time></trkpt><trkpt lat="43.587535" lon="12.508445"><ele>341.0</ele><time>2026-04-06T09:22:30.001Z</time></trkpt><trkpt lat="43.58764" lon="12.5085083"><ele>341.0</ele><time>2026-04-06T09:22:31.001Z</time></trkpt><trkpt lat="43.5877617" lon="12.5085633"><ele>340.25</ele><time>2026-04-06T09:22:32.001Z</time></trkpt><trkpt lat="43.5878783" lon="12.508615"><ele>339.5</ele><time>2026-04-06T09:22:33.001Z</time></trkpt><trkpt lat="43.58799" lon="12.50867"><ele>338.75</ele><time>2026-04-06T09:22:34.001Z</time></trkpt><trkpt lat="43.588095" lon="12.5087367"><ele>338.0</ele><time>2026-04-06T09:22:35.001Z</time></trkpt><trkpt lat="43.5882117" lon="12.5088083"><ele>338.0</ele><time>2026-04-06T09:22:36.001Z</time></trkpt><trkpt lat="43.5883267" lon="12.5088667"><ele>338.0</ele><time>2026-04-06T09:22:37.001Z</time></trkpt><trkpt lat="43.588445" lon="12.50894"><ele>338.0</ele><time>2026-04-06T09:22:38.001Z</time></trkpt><trkpt lat="43.5885583" lon="12.50901"><ele>338.0</ele><time>2026-04-06T09:22:39.001Z</time></trkpt><trkpt lat="43.5886717" lon="12.5090683"><ele>338.2</ele><time>2026-04-06T09:22:40.001Z</time></trkpt><trkpt lat="43.5887717" lon="12.5091283"><ele>338.4</ele><time>2026-04-06T09:22:41.001Z</time></trkpt><trkpt lat="43.5888633" lon="12.50919"><ele>338.59999999999997</ele><time>2026-04-06T09:22:42.001Z</time></trkpt><trkpt lat="43.58895" lon="12.5092483"><ele>338.79999999999995</ele><time>2026-04-06T09:22:43.001Z</time></trkpt><trkpt lat="43.5890367" lon="12.5092883"><ele>339.0</ele><time>2026-04-06T09:22:44.001Z</time></trkpt><trkpt lat="43.58912" lon="12.5093517"><ele>339.0</ele><time>2026-04-06T09:22:45.001Z</time></trkpt><trkpt lat="43.5891933" lon="12.5094017"><ele>339.0</ele><time>2026-04-06T09:22:46.001Z</time></trkpt><trkpt lat="43.5892517" lon="12.50945"><ele>339.0</ele><time>2026-04-06T09:22:47.001Z</time></trkpt><trkpt lat="43.5893217" lon="12.5094983"><ele>339.0</ele><time>2026-04-06T09:22:49.001Z</time></trkpt><trkpt lat="43.5893883" lon="12.509555"><ele>339.0</ele><time>2026-04-06T09:22:52.001Z</time></trkpt><trkpt lat="43.5894817" lon="12.50961"><ele>339.0</ele><time>2026-04-06T09:22:54.001Z</time></trkpt><trkpt lat="43.5896017" lon="12.50967"><ele>338.4</ele><time>2026-04-06T09:22:56.001Z</time></trkpt><trkpt lat="43.5897167" lon="12.5097283"><ele>337.79999999999995</ele><time>2026-04-06T09:22:58.001Z</time></trkpt><trkpt lat="43.589825" lon="12.5098083"><ele>337.20000000000005</ele><time>2026-04-06T09:23:00.001Z</time></trkpt><trkpt lat="43.5898867" lon="12.5098417"><ele>336.6</ele><time>2026-04-06T09:23:01.001Z</time></trkpt><trkpt lat="43.5899517" lon="12.5098717"><ele>336.0</ele><time>2026-04-06T09:23:02.001Z</time></trkpt><trkpt lat="43.590065" lon="12.509915"><ele>336.0</ele><time>2026-04-06T09:23:04.001Z</time></trkpt><trkpt lat="43.5901567" lon="12.5099517"><ele>336.0</ele><time>2026-04-06T09:23:06.001Z</time></trkpt><trkpt lat="43.5902767" lon="12.5099817"><ele>336.0</ele><time>2026-04-06T09:23:08.001Z</time></trkpt><trkpt lat="43.5903433" lon="12.5100167"><ele>336.0</ele><time>2026-04-06T09:23:09.001Z</time></trkpt><trkpt lat="43.5904083" lon="12.5100517"><ele>336.0</ele><time>2026-04-06T09:23:10.001Z</time></trkpt><trkpt lat="43.59047" lon="12.5100917"><ele>336.0</ele><time>2026-04-06T09:23:11.001Z</time></trkpt><trkpt lat="43.59053" lon="12.510125"><ele>339.75</ele><time>2026-04-06T09:23:12.001Z</time></trkpt><trkpt lat="43.5906333" lon="12.5101583"><ele>343.5</ele><time>2026-04-06T09:23:14.001Z</time></trkpt><trkpt lat="43.59073" lon="12.5100633"><ele>347.25</ele><time>2026-04-06T09:23:16.001Z</time></trkpt><trkpt lat="43.5907817" lon="12.50994"><ele>351.0</ele><time>2026-04-06T09:23:17.001Z</time></trkpt><trkpt lat="43.5908417" lon="12.5097783"><ele>351.0</ele><time>2026-04-06T09:23:18.001Z</time></trkpt><trkpt lat="43.590905" lon="12.5095867"><ele>351.0</ele><time>2026-04-06T09:23:19.001Z</time></trkpt><trkpt lat="43.5909683" lon="12.50937"><ele>351.0</ele><time>2026-04-06T09:23:20Z</time></trkpt><trkpt lat="43.5910183" lon="12.50918"><ele>349.5</ele><time>2026-04-06T09:23:21.001Z</time></trkpt><trkpt lat="43.59107" lon="12.5089983"><ele>348.0</ele><time>2026-04-06T09:23:22.001Z</time></trkpt><trkpt lat="43.5910983" lon="12.5087917"><ele>346.5</ele><time>2026-04-06T09:23:23.001Z</time></trkpt><trkpt lat="43.591125" lon="12.5086"><ele>345.0</ele><time>2026-04-06T09:23:24.001Z</time></trkpt><trkpt lat="43.59114" lon="12.5084"><ele>344.0</ele><time>2026-04-06T09:23:25.001Z</time></trkpt><trkpt lat="43.5911617" lon="12.5082083"><ele>343.0</ele><time>2026-04-06T09:23:26.001Z</time></trkpt><trkpt lat="43.5911917" lon="12.50801"><ele>342.0</ele><time>2026-04-06T09:23:27.001Z</time></trkpt><trkpt lat="43.5912317" lon="12.507825"><ele>341.0</ele><time>2026-04-06T09:23:28.001Z</time></trkpt><trkpt lat="43.591285" lon="12.50766"><ele>347.6666666666667</ele><time>2026-04-06T09:23:29.001Z</time></trkpt><trkpt lat="43.5913467" lon="12.5074767"><ele>354.3333333333333</ele><time>2026-04-06T09:23:30.001Z</time></trkpt><trkpt lat="43.5914217" lon="12.5072933"><ele>361.0</ele><time>2026-04-06T09:23:31.001Z</time></trkpt><trkpt lat="43.5914967" lon="12.5071067"><ele>357.66666666666663</ele><time>2026-04-06T09:23:32.001Z</time></trkpt><trkpt lat="43.5915667" lon="12.5069183"><ele>354.3333333333333</ele><time>2026-04-06T09:23:33.001Z</time></trkpt><trkpt lat="43.5916483" lon="12.50674"><ele>351.0</ele><time>2026-04-06T09:23:34.001Z</time></trkpt><trkpt lat="43.5917233" lon="12.5065517"><ele>351.0</ele><time>2026-04-06T09:23:35.001Z</time></trkpt><trkpt lat="43.5917967" lon="12.5063833"><ele>351.0</ele><time>2026-04-06T09:23:36.001Z</time></trkpt><trkpt lat="43.591875" lon="12.5062017"><ele>351.0</ele><time>2026-04-06T09:23:37.001Z</time></trkpt><trkpt lat="43.5919567" lon="12.506005"><ele>354.0</ele><time>2026-04-06T09:23:38.001Z</time></trkpt><trkpt lat="43.5920267" lon="12.50582"><ele>357.0</ele><time>2026-04-06T09:23:39.001Z</time></trkpt><trkpt lat="43.5920933" lon="12.505625"><ele>360.0</ele><time>2026-04-06T09:23:40.001Z</time></trkpt><trkpt lat="43.5921783" lon="12.5054367"><ele>357.0</ele><time>2026-04-06T09:23:41.001Z</time></trkpt><trkpt lat="43.59226" lon="12.50526"><ele>354.0</ele><time>2026-04-06T09:23:42.001Z</time></trkpt><trkpt lat="43.5923467" lon="12.5050983"><ele>351.0</ele><time>2026-04-06T09:23:43.001Z</time></trkpt><trkpt lat="43.5924433" lon="12.5049167"><ele>351.0</ele><time>2026-04-06T09:23:44.001Z</time></trkpt><trkpt lat="43.5925333" lon="12.5047217"><ele>351.0</ele><time>2026-04-06T09:23:45.001Z</time></trkpt><trkpt lat="43.59262" lon="12.5045383"><ele>351.0</ele><time>2026-04-06T09:23:46.001Z</time></trkpt><trkpt lat="43.5927183" lon="12.5043833"><ele>352.6666666666667</ele><time>2026-04-06T09:23:47.001Z</time></trkpt><trkpt lat="43.592825" lon="12.5042317"><ele>354.33333333333337</ele><time>2026-04-06T09:23:48.001Z</time></trkpt><trkpt lat="43.592925" lon="12.5040317"><ele>356.0</ele><time>2026-04-06T09:23:49.001Z</time></trkpt><trkpt lat="43.5930317" lon="12.503885"><ele>353.6666666666667</ele><time>2026-04-06T09:23:50.001Z</time></trkpt><trkpt lat="43.5931233" lon="12.5037217"><ele>351.3333333333333</ele><time>2026-04-06T09:23:51.001Z</time></trkpt><trkpt lat="43.593225" lon="12.503555"><ele>349.0</ele><time>2026-04-06T09:23:52.001Z</time></trkpt><trkpt lat="43.5933367" lon="12.503395"><ele>349.0</ele><time>2026-04-06T09:23:53.001Z</time></trkpt><trkpt lat="43.5934333" lon="12.5032267"><ele>349.0</ele><time>2026-04-06T09:23:54.001Z</time></trkpt><trkpt lat="43.5935367" lon="12.5030583"><ele>349.0</ele><time>2026-04-06T09:23:55.001Z</time></trkpt><trkpt lat="43.5936317" lon="12.502925"><ele>349.5</ele><time>2026-04-06T09:23:56.001Z</time></trkpt><trkpt lat="43.5937367" lon="12.5027883"><ele>350.0</ele><time>2026-04-06T09:23:57.001Z</time></trkpt><trkpt lat="43.593855" lon="12.50267"><ele>350.5</ele><time>2026-04-06T09:23:58.001Z</time></trkpt><trkpt lat="43.593985" lon="12.5025467"><ele>351.0</ele><time>2026-04-06T09:23:59.001Z</time></trkpt><trkpt lat="43.594125" lon="12.5024333"><ele>351.0</ele><time>2026-04-06T09:24:00.001Z</time></trkpt><trkpt lat="43.59425" lon="12.5023183"><ele>351.0</ele><time>2026-04-06T09:24:01.001Z</time></trkpt><trkpt lat="43.5943967" lon="12.5021717"><ele>351.0</ele><time>2026-04-06T09:24:02.001Z</time></trkpt><trkpt lat="43.594555" lon="12.5020517"><ele>350.0</ele><time>2026-04-06T09:24:03.001Z</time></trkpt><trkpt lat="43.594715" lon="12.5019467"><ele>349.0</ele><time>2026-04-06T09:24:04.001Z</time></trkpt><trkpt lat="43.59488" lon="12.501855"><ele>348.0</ele><time>2026-04-06T09:24:05.001Z</time></trkpt><trkpt lat="43.59505" lon="12.5018017"><ele>348.0</ele><time>2026-04-06T09:24:06Z</time></trkpt><trkpt lat="43.5952383" lon="12.501775"><ele>348.0</ele><time>2026-04-06T09:24:07.001Z</time></trkpt><trkpt lat="43.59545" lon="12.5017617"><ele>348.0</ele><time>2026-04-06T09:24:08.001Z</time></trkpt><trkpt lat="43.595645" lon="12.5017367"><ele>348.3333333333333</ele><time>2026-04-06T09:24:09Z</time></trkpt><trkpt lat="43.59584" lon="12.501715"><ele>348.66666666666663</ele><time>2026-04-06T09:24:10.001Z</time></trkpt><trkpt lat="43.596035" lon="12.501695"><ele>349.0</ele><time>2026-04-06T09:24:11.001Z</time></trkpt><trkpt lat="43.5962283" lon="12.5016633"><ele>349.0</ele><time>2026-04-06T09:24:12.001Z</time></trkpt><trkpt lat="43.5964233" lon="12.501615"><ele>349.0</ele><time>2026-04-06T09:24:13.001Z</time></trkpt><trkpt lat="43.596615" lon="12.5015367"><ele>349.0</ele><time>2026-04-06T09:24:14.001Z</time></trkpt><trkpt lat="43.5968017" lon="12.5014167"><ele>349.0</ele><time>2026-04-06T09:24:15.001Z</time></trkpt><trkpt lat="43.596985" lon="12.5012967"><ele>349.0</ele><time>2026-04-06T09:24:16.001Z</time></trkpt><trkpt lat="43.5971933" lon="12.5011467"><ele>349.0</ele><time>2026-04-06T09:24:17.001Z</time></trkpt><trkpt lat="43.5973817" lon="12.5010267"><ele>349.0</ele><time>2026-04-06T09:24:18.001Z</time></trkpt><trkpt lat="43.5975817" lon="12.5008867"><ele>349.0</ele><time>2026-04-06T09:24:19.001Z</time></trkpt><trkpt lat="43.5977783" lon="12.5007517"><ele>349.0</ele><time>2026-04-06T09:24:20.001Z</time></trkpt><trkpt lat="43.597985" lon="12.5006333"><ele>349.0</ele><time>2026-04-06T09:24:21.001Z</time></trkpt><trkpt lat="43.5981933" lon="12.5004883"><ele>349.0</ele><time>2026-04-06T09:24:22.001Z</time></trkpt><trkpt lat="43.598415" lon="12.50036"><ele>349.0</ele><time>2026-04-06T09:24:23.001Z</time></trkpt><trkpt lat="43.5986317" lon="12.5002267"><ele>349.0</ele><time>2026-04-06T09:24:24.001Z</time></trkpt><trkpt lat="43.5988333" lon="12.5000983"><ele>350.5</ele><time>2026-04-06T09:24:25.001Z</time></trkpt><trkpt lat="43.5990433" lon="12.4999667"><ele>352.0</ele><time>2026-04-06T09:24:26.001Z</time></trkpt><trkpt lat="43.59925" lon="12.499845"><ele>352.0</ele><time>2026-04-06T09:24:27.001Z</time></trkpt><trkpt lat="43.59945" lon="12.4997217"><ele>352.0</ele><time>2026-04-06T09:24:28.001Z</time></trkpt><trkpt lat="43.599635" lon="12.4995567"><ele>352.0</ele><time>2026-04-06T09:24:29.001Z</time></trkpt><trkpt lat="43.5998167" lon="12.4993617"><ele>352.3333333333333</ele><time>2026-04-06T09:24:30.001Z</time></trkpt><trkpt lat="43.5999733" lon="12.4991567"><ele>352.6666666666667</ele><time>2026-04-06T09:24:31.001Z</time></trkpt><trkpt lat="43.6001233" lon="12.4989417"><ele>353.0</ele><time>2026-04-06T09:24:32.001Z</time></trkpt><trkpt lat="43.6002767" lon="12.4987183"><ele>354.5</ele><time>2026-04-06T09:24:33.001Z</time></trkpt><trkpt lat="43.6004183" lon="12.4984433"><ele>356.0</ele><time>2026-04-06T09:24:34.001Z</time></trkpt><trkpt lat="43.6005367" lon="12.4981783"><ele>355.0</ele><time>2026-04-06T09:24:35.001Z</time></trkpt><trkpt lat="43.6006333" lon="12.49791"><ele>354.0</ele><time>2026-04-06T09:24:36.001Z</time></trkpt><trkpt lat="43.6007183" lon="12.4976467"><ele>353.0</ele><time>2026-04-06T09:24:37.001Z</time></trkpt><trkpt lat="43.6008033" lon="12.4973833"><ele>353.0</ele><time>2026-04-06T09:24:38.001Z</time></trkpt><trkpt lat="43.6009" lon="12.4971567"><ele>353.0</ele><time>2026-04-06T09:24:39.001Z</time></trkpt><trkpt lat="43.6010217" lon="12.4969683"><ele>353.0</ele><time>2026-04-06T09:24:40.001Z</time></trkpt><trkpt lat="43.6011883" lon="12.4968267"><ele>356.33333333333337</ele><time>2026-04-06T09:24:41.001Z</time></trkpt><trkpt lat="43.6013533" lon="12.496685"><ele>359.6666666666667</ele><time>2026-04-06T09:24:42.001Z</time></trkpt><trkpt lat="43.60152" lon="12.4965183"><ele>363.0</ele><time>2026-04-06T09:24:43.001Z</time></trkpt><trkpt lat="43.60169" lon="12.4963667"><ele>358.0</ele><time>2026-04-06T09:24:44.001Z</time></trkpt><trkpt lat="43.601835" lon="12.49613"><ele>353.0</ele><time>2026-04-06T09:24:45.001Z</time></trkpt><trkpt lat="43.6019583" lon="12.495855"><ele>354.6666666666667</ele><time>2026-04-06T09:24:46.001Z</time></trkpt><trkpt lat="43.6020833" lon="12.4955967"><ele>356.3333333333333</ele><time>2026-04-06T09:24:47.001Z</time></trkpt><trkpt lat="43.6022" lon="12.4953567"><ele>358.0</ele><time>2026-04-06T09:24:48.001Z</time></trkpt><trkpt lat="43.60232" lon="12.4951583"><ele>358.0</ele><time>2026-04-06T09:24:49.001Z</time></trkpt><trkpt lat="43.6024233" lon="12.4949233"><ele>358.0</ele><time>2026-04-06T09:24:50.001Z</time></trkpt><trkpt lat="43.6025233" lon="12.4946733"><ele>358.0</ele><time>2026-04-06T09:24:51.001Z</time></trkpt><trkpt lat="43.60262" lon="12.4944167"><ele>357.3333333333333</ele><time>2026-04-06T09:24:52.001Z</time></trkpt><trkpt lat="43.6027333" lon="12.4941783"><ele>356.6666666666667</ele><time>2026-04-06T09:24:53.001Z</time></trkpt><trkpt lat="43.6028467" lon="12.4939433"><ele>356.0</ele><time>2026-04-06T09:24:54.001Z</time></trkpt><trkpt lat="43.6029517" lon="12.4937167"><ele>358.0</ele><time>2026-04-06T09:24:55.001Z</time></trkpt><trkpt lat="43.603045" lon="12.4935167"><ele>360.0</ele><time>2026-04-06T09:24:56.001Z</time></trkpt><trkpt lat="43.6031117" lon="12.493315"><ele>362.0</ele><time>2026-04-06T09:24:57.001Z</time></trkpt><trkpt lat="43.603195" lon="12.493135"><ele>362.0</ele><time>2026-04-06T09:24:58.001Z</time></trkpt><trkpt lat="43.60329" lon="12.4929683"><ele>362.0</ele><time>2026-04-06T09:24:59.001Z</time></trkpt><trkpt lat="43.6033867" lon="12.4927983"><ele>362.0</ele><time>2026-04-06T09:25:00.001Z</time></trkpt><trkpt lat="43.6034883" lon="12.4926267"><ele>361.33333333333337</ele><time>2026-04-06T09:25:01.001Z</time></trkpt><trkpt lat="43.6036083" lon="12.4924433"><ele>360.6666666666667</ele><time>2026-04-06T09:25:02.001Z</time></trkpt><trkpt lat="43.6037367" lon="12.49228"><ele>360.0</ele><time>2026-04-06T09:25:03.001Z</time></trkpt><trkpt lat="43.60387" lon="12.4921017"><ele>360.3333333333333</ele><time>2026-04-06T09:25:04.001Z</time></trkpt><trkpt lat="43.60398" lon="12.4919033"><ele>360.66666666666663</ele><time>2026-04-06T09:25:05.001Z</time></trkpt><trkpt lat="43.604105" lon="12.49166"><ele>361.0</ele><time>2026-04-06T09:25:06.001Z</time></trkpt><trkpt lat="43.6042083" lon="12.49142"><ele>359.66666666666663</ele><time>2026-04-06T09:25:07.001Z</time></trkpt><trkpt lat="43.604335" lon="12.4911833"><ele>358.3333333333333</ele><time>2026-04-06T09:25:08.001Z</time></trkpt><trkpt lat="43.6044483" lon="12.490945"><ele>357.0</ele><time>2026-04-06T09:25:09.001Z</time></trkpt><trkpt lat="43.6045617" lon="12.4907017"><ele>358.6666666666667</ele><time>2026-04-06T09:25:10.001Z</time></trkpt><trkpt lat="43.6046817" lon="12.490465"><ele>360.33333333333337</ele><time>2026-04-06T09:25:11.001Z</time></trkpt><trkpt lat="43.60482" lon="12.4902583"><ele>362.0</ele><time>2026-04-06T09:25:12.001Z</time></trkpt><trkpt lat="43.6049583" lon="12.4900617"><ele>362.0</ele><time>2026-04-06T09:25:13.001Z</time></trkpt><trkpt lat="43.6051217" lon="12.4899083"><ele>362.0</ele><time>2026-04-06T09:25:14.001Z</time></trkpt><trkpt lat="43.6053067" lon="12.4897717"><ele>362.0</ele><time>2026-04-06T09:25:15.001Z</time></trkpt><trkpt lat="43.6055083" lon="12.48966"><ele>362.6666666666667</ele><time>2026-04-06T09:25:16.001Z</time></trkpt><trkpt lat="43.605695" lon="12.48955"><ele>363.3333333333333</ele><time>2026-04-06T09:25:17.001Z</time></trkpt><trkpt lat="43.605885" lon="12.48945"><ele>364.0</ele><time>2026-04-06T09:25:18Z</time></trkpt><trkpt lat="43.606075" lon="12.4893483"><ele>367.3333333333333</ele><time>2026-04-06T09:25:19.001Z</time></trkpt><trkpt lat="43.6062633" lon="12.4892517"><ele>370.6666666666667</ele><time>2026-04-06T09:25:20.001Z</time></trkpt><trkpt lat="43.60644" lon="12.48914"><ele>374.0</ele><time>2026-04-06T09:25:21.001Z</time></trkpt><trkpt lat="43.6066133" lon="12.4890233"><ele>374.0</ele><time>2026-04-06T09:25:22.001Z</time></trkpt><trkpt lat="43.60678" lon="12.4888783"><ele>374.0</ele><time>2026-04-06T09:25:23.001Z</time></trkpt><trkpt lat="43.606935" lon="12.4886883"><ele>374.0</ele><time>2026-04-06T09:25:24.001Z</time></trkpt><trkpt lat="43.6070983" lon="12.488475"><ele>375.0</ele><time>2026-04-06T09:25:25.001Z</time></trkpt><trkpt lat="43.6072433" lon="12.488245"><ele>376.0</ele><time>2026-04-06T09:25:26.001Z</time></trkpt><trkpt lat="43.6073933" lon="12.4880183"><ele>377.0</ele><time>2026-04-06T09:25:27.001Z</time></trkpt><trkpt lat="43.6075383" lon="12.4877983"><ele>373.0</ele><time>2026-04-06T09:25:28.001Z</time></trkpt><trkpt lat="43.6076983" lon="12.487575"><ele>369.0</ele><time>2026-04-06T09:25:29.001Z</time></trkpt><trkpt lat="43.6078517" lon="12.487345"><ele>372.5</ele><time>2026-04-06T09:25:30.001Z</time></trkpt><trkpt lat="43.6080033" lon="12.4871167"><ele>376.0</ele><time>2026-04-06T09:25:31.001Z</time></trkpt><trkpt lat="43.6081683" lon="12.4868983"><ele>376.0</ele><time>2026-04-06T09:25:32.001Z</time></trkpt><trkpt lat="43.6083233" lon="12.4866783"><ele>376.0</ele><time>2026-04-06T09:25:33.001Z</time></trkpt><trkpt lat="43.60846" lon="12.4864683"><ele>376.0</ele><time>2026-04-06T09:25:34.001Z</time></trkpt><trkpt lat="43.6085867" lon="12.4862483"><ele>379.3333333333333</ele><time>2026-04-06T09:25:35.001Z</time></trkpt><trkpt lat="43.608685" lon="12.4860083"><ele>382.66666666666663</ele><time>2026-04-06T09:25:36.001Z</time></trkpt><trkpt lat="43.608785" lon="12.4857667"><ele>386.0</ele><time>2026-04-06T09:25:37.001Z</time></trkpt><trkpt lat="43.60886" lon="12.4855383"><ele>383.0</ele><time>2026-04-06T09:25:38.001Z</time></trkpt><trkpt lat="43.6089717" lon="12.485335"><ele>380.0</ele><time>2026-04-06T09:25:39.001Z</time></trkpt><trkpt lat="43.6091117" lon="12.4851633"><ele>377.0</ele><time>2026-04-06T09:25:40.001Z</time></trkpt><trkpt lat="43.60927" lon="12.4850133"><ele>377.0</ele><time>2026-04-06T09:25:41.001Z</time></trkpt><trkpt lat="43.60943" lon="12.4848533"><ele>377.0</ele><time>2026-04-06T09:25:42.001Z</time></trkpt><trkpt lat="43.6095967" lon="12.4846967"><ele>377.0</ele><time>2026-04-06T09:25:43.001Z</time></trkpt><trkpt lat="43.6097683" lon="12.4845183"><ele>376.0</ele><time>2026-04-06T09:25:44.001Z</time></trkpt><trkpt lat="43.6099267" lon="12.4843533"><ele>375.0</ele><time>2026-04-06T09:25:45.001Z</time></trkpt><trkpt lat="43.6100917" lon="12.4841867"><ele>374.0</ele><time>2026-04-06T09:25:46.001Z</time></trkpt><trkpt lat="43.6102433" lon="12.4840233"><ele>375.33333333333337</ele><time>2026-04-06T09:25:47.001Z</time></trkpt><trkpt lat="43.610375" lon="12.4838517"><ele>376.6666666666667</ele><time>2026-04-06T09:25:48.001Z</time></trkpt><trkpt lat="43.6104917" lon="12.4836783"><ele>378.0</ele><time>2026-04-06T09:25:49.001Z</time></trkpt><trkpt lat="43.61058" lon="12.483475"><ele>379.0</ele><time>2026-04-06T09:25:50.001Z</time></trkpt><trkpt lat="43.6106483" lon="12.4832533"><ele>380.0</ele><time>2026-04-06T09:25:51.001Z</time></trkpt><trkpt lat="43.61068" lon="12.4830367"><ele>381.0</ele><time>2026-04-06T09:25:52.001Z</time></trkpt><trkpt lat="43.6106983" lon="12.4828133"><ele>381.6666666666667</ele><time>2026-04-06T09:25:53.001Z</time></trkpt><trkpt lat="43.6107117" lon="12.4825967"><ele>382.33333333333337</ele><time>2026-04-06T09:25:54.001Z</time></trkpt><trkpt lat="43.6107383" lon="12.4823933"><ele>383.0</ele><time>2026-04-06T09:25:55.001Z</time></trkpt><trkpt lat="43.610805" lon="12.4822"><ele>384.6666666666667</ele><time>2026-04-06T09:25:56.001Z</time></trkpt><trkpt lat="43.610915" lon="12.482005"><ele>386.33333333333337</ele><time>2026-04-06T09:25:57.001Z</time></trkpt><trkpt lat="43.6110383" lon="12.4818167"><ele>388.0</ele><time>2026-04-06T09:25:58.001Z</time></trkpt><trkpt lat="43.6111717" lon="12.481625"><ele>388.0</ele><time>2026-04-06T09:25:59.001Z</time></trkpt><trkpt lat="43.6113" lon="12.48144"><ele>388.0</ele><time>2026-04-06T09:26:00.001Z</time></trkpt><trkpt lat="43.6114267" lon="12.48125"><ele>388.0</ele><time>2026-04-06T09:26:01.001Z</time></trkpt><trkpt lat="43.611555" lon="12.4810483"><ele>385.33333333333337</ele><time>2026-04-06T09:26:02Z</time></trkpt><trkpt lat="43.6116767" lon="12.48083"><ele>382.6666666666667</ele><time>2026-04-06T09:26:03.001Z</time></trkpt><trkpt lat="43.6117967" lon="12.480615"><ele>380.0</ele><time>2026-04-06T09:26:04.001Z</time></trkpt><trkpt lat="43.6119117" lon="12.4803883"><ele>381.33333333333337</ele><time>2026-04-06T09:26:05.001Z</time></trkpt><trkpt lat="43.6120217" lon="12.4801517"><ele>382.6666666666667</ele><time>2026-04-06T09:26:06.001Z</time></trkpt><trkpt lat="43.612125" lon="12.4798983"><ele>384.0</ele><time>2026-04-06T09:26:07.001Z</time></trkpt><trkpt lat="43.61222" lon="12.4796417"><ele>382.3333333333333</ele><time>2026-04-06T09:26:08.001Z</time></trkpt><trkpt lat="43.612305" lon="12.4793917"><ele>380.66666666666663</ele><time>2026-04-06T09:26:09.001Z</time></trkpt><trkpt lat="43.6123917" lon="12.4791133"><ele>379.0</ele><time>2026-04-06T09:26:10.001Z</time></trkpt><trkpt lat="43.6124783" lon="12.4788367"><ele>378.66666666666663</ele><time>2026-04-06T09:26:11.001Z</time></trkpt><trkpt lat="43.6125733" lon="12.4785567"><ele>378.3333333333333</ele><time>2026-04-06T09:26:12.001Z</time></trkpt><trkpt lat="43.61266" lon="12.4782717"><ele>378.0</ele><time>2026-04-06T09:26:13.001Z</time></trkpt><trkpt lat="43.6127433" lon="12.477975"><ele>378.3333333333333</ele><time>2026-04-06T09:26:14.001Z</time></trkpt><trkpt lat="43.6128467" lon="12.4777033"><ele>378.66666666666663</ele><time>2026-04-06T09:26:15.001Z</time></trkpt><trkpt lat="43.6129333" lon="12.4774133"><ele>379.0</ele><time>2026-04-06T09:26:16.001Z</time></trkpt><trkpt lat="43.6130367" lon="12.4771383"><ele>376.5</ele><time>2026-04-06T09:26:17Z</time></trkpt><trkpt lat="43.61315" lon="12.476875"><ele>374.0</ele><time>2026-04-06T09:26:18.001Z</time></trkpt><trkpt lat="43.6132717" lon="12.4766067"><ele>374.0</ele><time>2026-04-06T09:26:19.001Z</time></trkpt><trkpt lat="43.6134017" lon="12.4763167"><ele>374.0</ele><time>2026-04-06T09:26:20.001Z</time></trkpt><trkpt lat="43.6135217" lon="12.4760467"><ele>374.33333333333337</ele><time>2026-04-06T09:26:21.001Z</time></trkpt><trkpt lat="43.6136433" lon="12.4757833"><ele>374.6666666666667</ele><time>2026-04-06T09:26:22.001Z</time></trkpt><trkpt lat="43.6137533" lon="12.47552"><ele>375.0</ele><time>2026-04-06T09:26:23.001Z</time></trkpt><trkpt lat="43.6138733" lon="12.4752483"><ele>376.0</ele><time>2026-04-06T09:26:24.001Z</time></trkpt><trkpt lat="43.6139883" lon="12.4749767"><ele>377.0</ele><time>2026-04-06T09:26:25.001Z</time></trkpt><trkpt lat="43.6141067" lon="12.4747133"><ele>374.33333333333337</ele><time>2026-04-06T09:26:26.001Z</time></trkpt><trkpt lat="43.6142183" lon="12.4744417"><ele>371.6666666666667</ele><time>2026-04-06T09:26:27.001Z</time></trkpt><trkpt lat="43.6143333" lon="12.474195"><ele>369.0</ele><time>2026-04-06T09:26:28.001Z</time></trkpt><trkpt lat="43.6144533" lon="12.4740033"><ele>370.3333333333333</ele><time>2026-04-06T09:26:29.001Z</time></trkpt><trkpt lat="43.61459" lon="12.4738583"><ele>371.66666666666663</ele><time>2026-04-06T09:26:30.001Z</time></trkpt><trkpt lat="43.61476" lon="12.473775"><ele>373.0</ele><time>2026-04-06T09:26:31.001Z</time></trkpt><trkpt lat="43.61494" lon="12.4737233"><ele>373.0</ele><time>2026-04-06T09:26:32.001Z</time></trkpt><trkpt lat="43.6151417" lon="12.4736883"><ele>373.0</ele><time>2026-04-06T09:26:33.001Z</time></trkpt><trkpt lat="43.6153617" lon="12.473655"><ele>373.0</ele><time>2026-04-06T09:26:34.001Z</time></trkpt><trkpt lat="43.615575" lon="12.4736117"><ele>375.0</ele><time>2026-04-06T09:26:35.001Z</time></trkpt><trkpt lat="43.6157817" lon="12.473565"><ele>377.0</ele><time>2026-04-06T09:26:36.001Z</time></trkpt><trkpt lat="43.6159917" lon="12.473505"><ele>379.0</ele><time>2026-04-06T09:26:37.001Z</time></trkpt><trkpt lat="43.61618" lon="12.4734517"><ele>381.0</ele><time>2026-04-06T09:26:38.001Z</time></trkpt><trkpt lat="43.616375" lon="12.4733917"><ele>383.0</ele><time>2026-04-06T09:26:39.001Z</time></trkpt><trkpt lat="43.6165717" lon="12.4733283"><ele>385.0</ele><time>2026-04-06T09:26:40.001Z</time></trkpt><trkpt lat="43.61677" lon="12.4732783"><ele>385.0</ele><time>2026-04-06T09:26:41.001Z</time></trkpt><trkpt lat="43.6169633" lon="12.47325"><ele>385.0</ele><time>2026-04-06T09:26:42.001Z</time></trkpt><trkpt lat="43.61716" lon="12.4732683"><ele>385.0</ele><time>2026-04-06T09:26:43.001Z</time></trkpt><trkpt lat="43.6173483" lon="12.4733133"><ele>386.0</ele><time>2026-04-06T09:26:44.001Z</time></trkpt><trkpt lat="43.6175383" lon="12.4733983"><ele>387.0</ele><time>2026-04-06T09:26:45.001Z</time></trkpt><trkpt lat="43.6177317" lon="12.4735217"><ele>388.0</ele><time>2026-04-06T09:26:46.001Z</time></trkpt><trkpt lat="43.6179033" lon="12.473655"><ele>389.6666666666667</ele><time>2026-04-06T09:26:47.001Z</time></trkpt><trkpt lat="43.6180567" lon="12.4738317"><ele>391.33333333333337</ele><time>2026-04-06T09:26:48.001Z</time></trkpt><trkpt lat="43.618195" lon="12.4740133"><ele>393.0</ele><time>2026-04-06T09:26:49.001Z</time></trkpt><trkpt lat="43.61833" lon="12.4741983"><ele>393.0</ele><time>2026-04-06T09:26:50.001Z</time></trkpt><trkpt lat="43.6184733" lon="12.47438"><ele>393.0</ele><time>2026-04-06T09:26:51.001Z</time></trkpt><trkpt lat="43.6186183" lon="12.4745417"><ele>393.0</ele><time>2026-04-06T09:26:52.001Z</time></trkpt><trkpt lat="43.618765" lon="12.4747267"><ele>395.33333333333337</ele><time>2026-04-06T09:26:53.001Z</time></trkpt><trkpt lat="43.6189017" lon="12.4749"><ele>397.6666666666667</ele><time>2026-04-06T09:26:54.001Z</time></trkpt><trkpt lat="43.6190317" lon="12.47505"><ele>400.0</ele><time>2026-04-06T09:26:55.001Z</time></trkpt><trkpt lat="43.6191567" lon="12.4752083"><ele>400.0</ele><time>2026-04-06T09:26:56.001Z</time></trkpt><trkpt lat="43.6193067" lon="12.4753333"><ele>400.0</ele><time>2026-04-06T09:26:57.001Z</time></trkpt><trkpt lat="43.6194883" lon="12.47543"><ele>400.0</ele><time>2026-04-06T09:26:58.001Z</time></trkpt><trkpt lat="43.6196683" lon="12.4755117"><ele>403.33333333333337</ele><time>2026-04-06T09:26:59.001Z</time></trkpt><trkpt lat="43.61986" lon="12.4755833"><ele>406.66666666666663</ele><time>2026-04-06T09:27:00.001Z</time></trkpt><trkpt lat="43.6200433" lon="12.4756583"><ele>410.0</ele><time>2026-04-06T09:27:01.001Z</time></trkpt><trkpt lat="43.620225" lon="12.4757267"><ele>409.66666666666663</ele><time>2026-04-06T09:27:02.001Z</time></trkpt><trkpt lat="43.6203917" lon="12.4758067"><ele>409.33333333333337</ele><time>2026-04-06T09:27:03.001Z</time></trkpt><trkpt lat="43.6205433" lon="12.4758767"><ele>409.0</ele><time>2026-04-06T09:27:04.001Z</time></trkpt><trkpt lat="43.62069" lon="12.4759233"><ele>409.0</ele><time>2026-04-06T09:27:05.001Z</time></trkpt><trkpt lat="43.62083" lon="12.475975"><ele>409.0</ele><time>2026-04-06T09:27:06.001Z</time></trkpt><trkpt lat="43.620965" lon="12.4760067"><ele>409.0</ele><time>2026-04-06T09:27:07.001Z</time></trkpt><trkpt lat="43.6211017" lon="12.475985"><ele>409.0</ele><time>2026-04-06T09:27:08.001Z</time></trkpt><trkpt lat="43.6212133" lon="12.4759117"><ele>410.0</ele><time>2026-04-06T09:27:09.001Z</time></trkpt><trkpt lat="43.6212967" lon="12.475755"><ele>411.0</ele><time>2026-04-06T09:27:10.001Z</time></trkpt><trkpt lat="43.6213683" lon="12.4755733"><ele>412.0</ele><time>2026-04-06T09:27:11.001Z</time></trkpt><trkpt lat="43.6214433" lon="12.4754117"><ele>413.0</ele><time>2026-04-06T09:27:12.001Z</time></trkpt><trkpt lat="43.62152" lon="12.4752617"><ele>413.0</ele><time>2026-04-06T09:27:13.001Z</time></trkpt><trkpt lat="43.6216017" lon="12.4751267"><ele>413.0</ele><time>2026-04-06T09:27:14.001Z</time></trkpt><trkpt lat="43.6216983" lon="12.474995"><ele>413.0</ele><time>2026-04-06T09:27:15.001Z</time></trkpt><trkpt lat="43.6218117" lon="12.4748967"><ele>413.0</ele><time>2026-04-06T09:27:16.001Z</time></trkpt><trkpt lat="43.62194" lon="12.474825"><ele>416.0</ele><time>2026-04-06T09:27:17.001Z</time></trkpt><trkpt lat="43.6220833" lon="12.4748017"><ele>419.0</ele><time>2026-04-06T09:27:18.001Z</time></trkpt><trkpt lat="43.62222" lon="12.4748183"><ele>422.0</ele><time>2026-04-06T09:27:19.001Z</time></trkpt><trkpt lat="43.62235" lon="12.474855"><ele>425.0</ele><time>2026-04-06T09:27:20.001Z</time></trkpt><trkpt lat="43.622475" lon="12.47492"><ele>425.0</ele><time>2026-04-06T09:27:21.001Z</time></trkpt><trkpt lat="43.6225767" lon="12.4750217"><ele>425.0</ele><time>2026-04-06T09:27:22.001Z</time></trkpt><trkpt lat="43.6226733" lon="12.4751533"><ele>425.0</ele><time>2026-04-06T09:27:23.001Z</time></trkpt><trkpt lat="43.6227583" lon="12.4752767"><ele>425.0</ele><time>2026-04-06T09:27:24.001Z</time></trkpt><trkpt lat="43.62286" lon="12.4753867"><ele>428.25</ele><time>2026-04-06T09:27:25.001Z</time></trkpt><trkpt lat="43.6229733" lon="12.47546"><ele>431.5</ele><time>2026-04-06T09:27:26.001Z</time></trkpt><trkpt lat="43.62309" lon="12.4755217"><ele>434.75</ele><time>2026-04-06T09:27:27.001Z</time></trkpt><trkpt lat="43.623225" lon="12.4755733"><ele>438.0</ele><time>2026-04-06T09:27:28.001Z</time></trkpt><trkpt lat="43.6233433" lon="12.4756367"><ele>438.0</ele><time>2026-04-06T09:27:29.001Z</time></trkpt><trkpt lat="43.6234617" lon="12.47573"><ele>438.0</ele><time>2026-04-06T09:27:30.001Z</time></trkpt><trkpt lat="43.6235617" lon="12.4758283"><ele>438.0</ele><time>2026-04-06T09:27:31.001Z</time></trkpt><trkpt lat="43.623655" lon="12.4759583"><ele>438.0</ele><time>2026-04-06T09:27:32.001Z</time></trkpt><trkpt lat="43.6237383" lon="12.4760917"><ele>438.25</ele><time>2026-04-06T09:27:33.001Z</time></trkpt><trkpt lat="43.6238233" lon="12.4762217"><ele>438.5</ele><time>2026-04-06T09:27:34.001Z</time></trkpt><trkpt lat="43.6239233" lon="12.4763417"><ele>438.75</ele><time>2026-04-06T09:27:35.001Z</time></trkpt><trkpt lat="43.624015" lon="12.476455"><ele>439.0</ele><time>2026-04-06T09:27:36.001Z</time></trkpt><trkpt lat="43.6240983" lon="12.4765633"><ele>440.4</ele><time>2026-04-06T09:27:37.001Z</time></trkpt><trkpt lat="43.624165" lon="12.4766617"><ele>441.79999999999995</ele><time>2026-04-06T09:27:38.001Z</time></trkpt><trkpt lat="43.6242417" lon="12.4767517"><ele>443.20000000000005</ele><time>2026-04-06T09:27:39.001Z</time></trkpt><trkpt lat="43.6243367" lon="12.4768067"><ele>444.6</ele><time>2026-04-06T09:27:40.001Z</time></trkpt><trkpt lat="43.6244383" lon="12.4768133"><ele>446.0</ele><time>2026-04-06T09:27:41.001Z</time></trkpt><trkpt lat="43.62453" lon="12.4767817"><ele>447.0</ele><time>2026-04-06T09:27:42.001Z</time></trkpt><trkpt lat="43.624615" lon="12.4767117"><ele>448.0</ele><time>2026-04-06T09:27:43.001Z</time></trkpt><trkpt lat="43.6246933" lon="12.4766283"><ele>449.0</ele><time>2026-04-06T09:27:44.001Z</time></trkpt><trkpt lat="43.6248" lon="12.4765433"><ele>450.0</ele><time>2026-04-06T09:27:45.001Z</time></trkpt><trkpt lat="43.6249033" lon="12.4764383"><ele>451.0</ele><time>2026-04-06T09:27:46.001Z</time></trkpt><trkpt lat="43.6249733" lon="12.4763183"><ele>452.0</ele><time>2026-04-06T09:27:47.001Z</time></trkpt><trkpt lat="43.6250217" lon="12.4761767"><ele>453.0</ele><time>2026-04-06T09:27:48.001Z</time></trkpt><trkpt lat="43.6250367" lon="12.4760233"><ele>454.0</ele><time>2026-04-06T09:27:49.001Z</time></trkpt><trkpt lat="43.6250217" lon="12.47587"><ele>455.0</ele><time>2026-04-06T09:27:50.001Z</time></trkpt><trkpt lat="43.6249767" lon="12.4757267"><ele>455.0</ele><time>2026-04-06T09:27:51.001Z</time></trkpt><trkpt lat="43.624915" lon="12.4755933"><ele>455.0</ele><time>2026-04-06T09:27:52.001Z</time></trkpt><trkpt lat="43.6248533" lon="12.4754667"><ele>455.0</ele><time>2026-04-06T09:27:53.001Z</time></trkpt><trkpt lat="43.624795" lon="12.4753367"><ele>455.0</ele><time>2026-04-06T09:27:54.001Z</time></trkpt><trkpt lat="43.6247433" lon="12.475205"><ele>455.0</ele><time>2026-04-06T09:27:55.001Z</time></trkpt><trkpt lat="43.6246933" lon="12.47508"><ele>455.49999999999994</ele><time>2026-04-06T09:27:56.001Z</time></trkpt><trkpt lat="43.6246433" lon="12.47496"><ele>456.0</ele><time>2026-04-06T09:27:57.001Z</time></trkpt><trkpt lat="43.6246283" lon="12.474845"><ele>456.5</ele><time>2026-04-06T09:27:58.001Z</time></trkpt><trkpt lat="43.6246383" lon="12.4747167"><ele>457.0</ele><time>2026-04-06T09:27:59.001Z</time></trkpt><trkpt lat="43.6246683" lon="12.4746033"><ele>457.49999999999994</ele><time>2026-04-06T09:28:00.001Z</time></trkpt><trkpt lat="43.624725" lon="12.4745283"><ele>458.0</ele><time>2026-04-06T09:28:01.001Z</time></trkpt><trkpt lat="43.624795" lon="12.4745083"><ele>458.0</ele><time>2026-04-06T09:28:02.001Z</time></trkpt><trkpt lat="43.6249" lon="12.47457"><ele>457.99999999999994</ele><time>2026-04-06T09:28:04.001Z</time></trkpt><trkpt lat="43.6249517" lon="12.4746767"><ele>457.99999999999994</ele><time>2026-04-06T09:28:05.001Z</time></trkpt><trkpt lat="43.62498" lon="12.474805"><ele>458.0</ele><time>2026-04-06T09:28:06.001Z</time></trkpt><trkpt lat="43.6249867" lon="12.4749583"><ele>458.0</ele><time>2026-04-06T09:28:07.001Z</time></trkpt><trkpt lat="43.6250133" lon="12.47512"><ele>458.59999999999997</ele><time>2026-04-06T09:28:08.001Z</time></trkpt><trkpt lat="43.625055" lon="12.4752583"><ele>459.19999999999993</ele><time>2026-04-06T09:28:09.001Z</time></trkpt><trkpt lat="43.62511" lon="12.4753733"><ele>459.8</ele><time>2026-04-06T09:28:10.001Z</time></trkpt><trkpt lat="43.62517" lon="12.4754917"><ele>460.4</ele><time>2026-04-06T09:28:11.001Z</time></trkpt><trkpt lat="43.6252433" lon="12.4756167"><ele>461.0</ele><time>2026-04-06T09:28:12.001Z</time></trkpt><trkpt lat="43.625315" lon="12.475755"><ele>464.5</ele><time>2026-04-06T09:28:13.001Z</time></trkpt><trkpt lat="43.6253883" lon="12.4759017"><ele>468.0</ele><time>2026-04-06T09:28:14.001Z</time></trkpt><trkpt lat="43.625455" lon="12.47608"><ele>471.5</ele><time>2026-04-06T09:28:15.001Z</time></trkpt><trkpt lat="43.6255317" lon="12.476235"><ele>475.0</ele><time>2026-04-06T09:28:16.001Z</time></trkpt><trkpt lat="43.62557" lon="12.4764133"><ele>475.0</ele><time>2026-04-06T09:28:17.001Z</time></trkpt><trkpt lat="43.6256033" lon="12.4765933"><ele>475.0</ele><time>2026-04-06T09:28:18.001Z</time></trkpt><trkpt lat="43.6256433" lon="12.4767683"><ele>475.0</ele><time>2026-04-06T09:28:19.001Z</time></trkpt><trkpt lat="43.6256883" lon="12.47694"><ele>475.0</ele><time>2026-04-06T09:28:20.001Z</time></trkpt><trkpt lat="43.6257267" lon="12.477075"><ele>474.2</ele><time>2026-04-06T09:28:21.001Z</time></trkpt><trkpt lat="43.6257817" lon="12.47717"><ele>473.4</ele><time>2026-04-06T09:28:22.001Z</time></trkpt><trkpt lat="43.625845" lon="12.477255"><ele>472.6</ele><time>2026-04-06T09:28:23.001Z</time></trkpt><trkpt lat="43.625915" lon="12.4773117"><ele>471.8</ele><time>2026-04-06T09:28:24.001Z</time></trkpt><trkpt lat="43.6260417" lon="12.4772867"><ele>471.0</ele><time>2026-04-06T09:28:26.001Z</time></trkpt><trkpt lat="43.6261" lon="12.47721"><ele>472.0</ele><time>2026-04-06T09:28:27.001Z</time></trkpt><trkpt lat="43.6261217" lon="12.4770833"><ele>473.0</ele><time>2026-04-06T09:28:28.001Z</time></trkpt><trkpt lat="43.6261117" lon="12.4769017"><ele>474.0</ele><time>2026-04-06T09:28:29.001Z</time></trkpt><trkpt lat="43.6260717" lon="12.4766683"><ele>475.0</ele><time>2026-04-06T09:28:30.001Z</time></trkpt><trkpt lat="43.62601" lon="12.4763983"><ele>480.0</ele><time>2026-04-06T09:28:31.001Z</time></trkpt><trkpt lat="43.62592" lon="12.4760933"><ele>485.0</ele><time>2026-04-06T09:28:32.001Z</time></trkpt><trkpt lat="43.6257783" lon="12.4757067"><ele>484.5</ele><time>2026-04-06T09:28:33.001Z</time></trkpt><trkpt lat="43.6256683" lon="12.475385"><ele>484.0</ele><time>2026-04-06T09:28:34.001Z</time></trkpt><trkpt lat="43.62558" lon="12.4751433"><ele>484.0</ele><time>2026-04-06T09:28:35.001Z</time></trkpt><trkpt lat="43.6255433" lon="12.4749717"><ele>484.0</ele><time>2026-04-06T09:28:36.001Z</time></trkpt><trkpt lat="43.625555" lon="12.47483"><ele>484.0</ele><time>2026-04-06T09:28:37.001Z</time></trkpt><trkpt lat="43.625615" lon="12.4747183"><ele>484.0</ele><time>2026-04-06T09:28:38.001Z</time></trkpt><trkpt lat="43.6256933" lon="12.47468"><ele>484.0</ele><time>2026-04-06T09:28:39.001Z</time></trkpt><trkpt lat="43.6257733" lon="12.4746983"><ele>484.0</ele><time>2026-04-06T09:28:40.001Z</time></trkpt><trkpt lat="43.6258467" lon="12.4747667"><ele>484.0</ele><time>2026-04-06T09:28:41.001Z</time></trkpt><trkpt lat="43.625915" lon="12.4748733"><ele>484.0</ele><time>2026-04-06T09:28:42.001Z</time></trkpt><trkpt lat="43.625965" lon="12.4750333"><ele>484.0</ele><time>2026-04-06T09:28:43.001Z</time></trkpt><trkpt lat="43.6259833" lon="12.475255"><ele>484.33333333333337</ele><time>2026-04-06T09:28:44.001Z</time></trkpt><trkpt lat="43.62602" lon="12.4755"><ele>484.66666666666663</ele><time>2026-04-06T09:28:45.001Z</time></trkpt><trkpt lat="43.6260983" lon="12.4757583"><ele>485.0</ele><time>2026-04-06T09:28:46.001Z</time></trkpt><trkpt lat="43.6261733" lon="12.4759533"><ele>488.0</ele><time>2026-04-06T09:28:47.001Z</time></trkpt><trkpt lat="43.62626" lon="12.47609"><ele>491.0</ele><time>2026-04-06T09:28:48.001Z</time></trkpt><trkpt lat="43.6263517" lon="12.47618"><ele>494.0</ele><time>2026-04-06T09:28:49.001Z</time></trkpt><trkpt lat="43.6264533" lon="12.4762283"><ele>497.0</ele><time>2026-04-06T09:28:50.001Z</time></trkpt><trkpt lat="43.6265833" lon="12.4762283"><ele>497.0</ele><time>2026-04-06T09:28:51.001Z</time></trkpt><trkpt lat="43.626735" lon="12.4761983"><ele>497.0</ele><time>2026-04-06T09:28:52.001Z</time></trkpt><trkpt lat="43.6269133" lon="12.4761083"><ele>497.0</ele><time>2026-04-06T09:28:53.001Z</time></trkpt><trkpt lat="43.6271517" lon="12.4759917"><ele>501.0</ele><time>2026-04-06T09:28:54.001Z</time></trkpt><trkpt lat="43.627425" lon="12.4758583"><ele>505.0</ele><time>2026-04-06T09:28:55.001Z</time></trkpt><trkpt lat="43.6276783" lon="12.4757583"><ele>511.0</ele><time>2026-04-06T09:28:56.001Z</time></trkpt><trkpt lat="43.62791" lon="12.475665"><ele>517.0</ele><time>2026-04-06T09:28:57.001Z</time></trkpt><trkpt lat="43.6281217" lon="12.47558"><ele>517.0</ele><time>2026-04-06T09:28:58.001Z</time></trkpt><trkpt lat="43.6283017" lon="12.4755"><ele>517.0</ele><time>2026-04-06T09:28:59.001Z</time></trkpt><trkpt lat="43.6284617" lon="12.4753933"><ele>517.0</ele><time>2026-04-06T09:29:00.001Z</time></trkpt><trkpt lat="43.6286" lon="12.4752517"><ele>517.75</ele><time>2026-04-06T09:29:01.001Z</time></trkpt><trkpt lat="43.62869" lon="12.4750767"><ele>518.5</ele><time>2026-04-06T09:29:02.001Z</time></trkpt><trkpt lat="43.6287733" lon="12.47492"><ele>519.25</ele><time>2026-04-06T09:29:03.001Z</time></trkpt><trkpt lat="43.628865" lon="12.474805"><ele>520.0</ele><time>2026-04-06T09:29:04.001Z</time></trkpt><trkpt lat="43.6289833" lon="12.4747367"><ele>520.0</ele><time>2026-04-06T09:29:05.001Z</time></trkpt><trkpt lat="43.6291317" lon="12.47472"><ele>520.0</ele><time>2026-04-06T09:29:06.001Z</time></trkpt><trkpt lat="43.629285" lon="12.474745"><ele>520.0</ele><time>2026-04-06T09:29:07.001Z</time></trkpt><trkpt lat="43.629445" lon="12.4748"><ele>522.75</ele><time>2026-04-06T09:29:08.001Z</time></trkpt><trkpt lat="43.6296017" lon="12.47485"><ele>525.5</ele><time>2026-04-06T09:29:09.001Z</time></trkpt><trkpt lat="43.62975" lon="12.4748817"><ele>528.25</ele><time>2026-04-06T09:29:10.001Z</time></trkpt><trkpt lat="43.6298867" lon="12.4748817"><ele>531.0</ele><time>2026-04-06T09:29:11.001Z</time></trkpt><trkpt lat="43.6300033" lon="12.4748317"><ele>531.0</ele><time>2026-04-06T09:29:12.001Z</time></trkpt><trkpt lat="43.6301233" lon="12.47472"><ele>531.0</ele><time>2026-04-06T09:29:13.001Z</time></trkpt><trkpt lat="43.6302233" lon="12.4745367"><ele>531.0</ele><time>2026-04-06T09:29:14.001Z</time></trkpt><trkpt lat="43.6303133" lon="12.4743333"><ele>530.3333333333334</ele><time>2026-04-06T09:29:15.001Z</time></trkpt><trkpt lat="43.63044" lon="12.4741233"><ele>529.6666666666667</ele><time>2026-04-06T09:29:16.001Z</time></trkpt><trkpt lat="43.6306017" lon="12.4739317"><ele>529.0</ele><time>2026-04-06T09:29:17.001Z</time></trkpt><trkpt lat="43.63077" lon="12.47376"><ele>529.0</ele><time>2026-04-06T09:29:18.001Z</time></trkpt><trkpt lat="43.6309467" lon="12.4736017"><ele>529.0</ele><time>2026-04-06T09:29:19.001Z</time></trkpt><trkpt lat="43.6311217" lon="12.47342"><ele>529.0</ele><time>2026-04-06T09:29:20.001Z</time></trkpt><trkpt lat="43.6312817" lon="12.4732467"><ele>530.6666666666667</ele><time>2026-04-06T09:29:21.001Z</time></trkpt><trkpt lat="43.63144" lon="12.4730867"><ele>532.3333333333334</ele><time>2026-04-06T09:29:22Z</time></trkpt><trkpt lat="43.631575" lon="12.4729183"><ele>534.0</ele><time>2026-04-06T09:29:23Z</time></trkpt><trkpt lat="43.63169" lon="12.4727367"><ele>534.0</ele><time>2026-04-06T09:29:24Z</time></trkpt><trkpt lat="43.6317817" lon="12.4725233"><ele>534.0</ele><time>2026-04-06T09:29:25Z</time></trkpt><trkpt lat="43.63187" lon="12.4722833"><ele>534.0</ele><time>2026-04-06T09:29:26Z</time></trkpt><trkpt lat="43.631945" lon="12.4721167"><ele>533.5</ele><time>2026-04-06T09:29:27Z</time></trkpt><trkpt lat="43.63203" lon="12.4719667"><ele>533.0</ele><time>2026-04-06T09:29:28Z</time></trkpt><trkpt lat="43.6321067" lon="12.4718567"><ele>532.5</ele><time>2026-04-06T09:29:29Z</time></trkpt><trkpt lat="43.6321983" lon="12.4718"><ele>532.0</ele><time>2026-04-06T09:29:30Z</time></trkpt><trkpt lat="43.632325" lon="12.4718083"><ele>532.0</ele><time>2026-04-06T09:29:31Z</time></trkpt><trkpt lat="43.6324367" lon="12.4718867"><ele>532.0</ele><time>2026-04-06T09:29:32Z</time></trkpt><trkpt lat="43.632545" lon="12.472"><ele>532.0</ele><time>2026-04-06T09:29:33Z</time></trkpt><trkpt lat="43.6326467" lon="12.47212"><ele>532.0</ele><time>2026-04-06T09:29:34Z</time></trkpt><trkpt lat="43.6327483" lon="12.4721983"><ele>532.5</ele><time>2026-04-06T09:29:35Z</time></trkpt><trkpt lat="43.63286" lon="12.472235"><ele>533.0</ele><time>2026-04-06T09:29:36Z</time></trkpt><trkpt lat="43.63296" lon="12.472205"><ele>533.5</ele><time>2026-04-06T09:29:37Z</time></trkpt><trkpt lat="43.6330667" lon="12.4721217"><ele>534.0</ele><time>2026-04-06T09:29:38Z</time></trkpt><trkpt lat="43.6331767" lon="12.4719767"><ele>534.0</ele><time>2026-04-06T09:29:39Z</time></trkpt><trkpt lat="43.6332767" lon="12.4718033"><ele>534.0</ele><time>2026-04-06T09:29:40Z</time></trkpt><trkpt lat="43.633385" lon="12.4716383"><ele>534.0</ele><time>2026-04-06T09:29:41Z</time></trkpt><trkpt lat="43.6335167" lon="12.4715233"><ele>534.6666666666666</ele><time>2026-04-06T09:29:42Z</time></trkpt><trkpt lat="43.63368" lon="12.471485"><ele>535.3333333333333</ele><time>2026-04-06T09:29:43Z</time></trkpt><trkpt lat="43.633855" lon="12.4714683"><ele>536.0</ele><time>2026-04-06T09:29:44Z</time></trkpt><trkpt lat="43.6340283" lon="12.4714317"><ele>536.0</ele><time>2026-04-06T09:29:45Z</time></trkpt><trkpt lat="43.6342033" lon="12.47135"><ele>536.0</ele><time>2026-04-06T09:29:46Z</time></trkpt><trkpt lat="43.634365" lon="12.4712083"><ele>536.0</ele><time>2026-04-06T09:29:47Z</time></trkpt><trkpt lat="43.6345067" lon="12.4710367"><ele>531.6666666666666</ele><time>2026-04-06T09:29:48Z</time></trkpt><trkpt lat="43.6346383" lon="12.470845"><ele>527.3333333333334</ele><time>2026-04-06T09:29:49Z</time></trkpt><trkpt lat="43.6347683" lon="12.47067"><ele>523.0</ele><time>2026-04-06T09:29:50Z</time></trkpt><trkpt lat="43.63489" lon="12.4705183"><ele>520.75</ele><time>2026-04-06T09:29:51Z</time></trkpt><trkpt lat="43.634985" lon="12.4703817"><ele>518.5</ele><time>2026-04-06T09:29:52Z</time></trkpt><trkpt lat="43.63509" lon="12.4702967"><ele>516.25</ele><time>2026-04-06T09:29:53Z</time></trkpt><trkpt lat="43.6352167" lon="12.4702767"><ele>514.0</ele><time>2026-04-06T09:29:54Z</time></trkpt><trkpt lat="43.635355" lon="12.470305"><ele>513.25</ele><time>2026-04-06T09:29:55Z</time></trkpt><trkpt lat="43.6354967" lon="12.4703683"><ele>512.5</ele><time>2026-04-06T09:29:56Z</time></trkpt><trkpt lat="43.63564" lon="12.47046"><ele>511.75</ele><time>2026-04-06T09:29:57Z</time></trkpt><trkpt lat="43.6357767" lon="12.4705067"><ele>511.0</ele><time>2026-04-06T09:29:58Z</time></trkpt><trkpt lat="43.6359067" lon="12.4705167"><ele>512.5</ele><time>2026-04-06T09:29:59Z</time></trkpt><trkpt lat="43.6360283" lon="12.4704683"><ele>514.0</ele><time>2026-04-06T09:30:00Z</time></trkpt><trkpt lat="43.6361367" lon="12.470375"><ele>515.5</ele><time>2026-04-06T09:30:01Z</time></trkpt><trkpt lat="43.6362533" lon="12.4702233"><ele>517.0</ele><time>2026-04-06T09:30:02Z</time></trkpt><trkpt lat="43.6363717" lon="12.4701133"><ele>512.75</ele><time>2026-04-06T09:30:03Z</time></trkpt><trkpt lat="43.63649" lon="12.4700383"><ele>508.5</ele><time>2026-04-06T09:30:04Z</time></trkpt><trkpt lat="43.636605" lon="12.4700267"><ele>504.25</ele><time>2026-04-06T09:30:05Z</time></trkpt><trkpt lat="43.636705" lon="12.4700983"><ele>500.0</ele><time>2026-04-06T09:30:06Z</time></trkpt><trkpt lat="43.6367833" lon="12.4702317"><ele>500.0</ele><time>2026-04-06T09:30:07Z</time></trkpt><trkpt lat="43.6368483" lon="12.4704"><ele>500.0</ele><time>2026-04-06T09:30:08Z</time></trkpt><trkpt lat="43.6369067" lon="12.4705783"><ele>500.0</ele><time>2026-04-06T09:30:09Z</time></trkpt><trkpt lat="43.6369417" lon="12.4707817"><ele>500.0</ele><time>2026-04-06T09:30:10Z</time></trkpt><trkpt lat="43.6369533" lon="12.4710217"><ele>498.3333333333333</ele><time>2026-04-06T09:30:11Z</time></trkpt><trkpt lat="43.636995" lon="12.4712283"><ele>496.66666666666663</ele><time>2026-04-06T09:30:12Z</time></trkpt><trkpt lat="43.6370583" lon="12.4714217"><ele>495.0</ele><time>2026-04-06T09:30:13Z</time></trkpt><trkpt lat="43.63716" lon="12.471575"><ele>495.0</ele><time>2026-04-06T09:30:14Z</time></trkpt><trkpt lat="43.6372733" lon="12.4717183"><ele>495.0</ele><time>2026-04-06T09:30:15Z</time></trkpt><trkpt lat="43.637425" lon="12.471795"><ele>495.0</ele><time>2026-04-06T09:30:16Z</time></trkpt><trkpt lat="43.6375983" lon="12.4718383"><ele>495.0</ele><time>2026-04-06T09:30:17Z</time></trkpt><trkpt lat="43.63776" lon="12.4719017"><ele>495.0</ele><time>2026-04-06T09:30:18Z</time></trkpt><trkpt lat="43.63791" lon="12.4719633"><ele>495.0</ele><time>2026-04-06T09:30:19Z</time></trkpt><trkpt lat="43.6380433" lon="12.4720483"><ele>492.66666666666663</ele><time>2026-04-06T09:30:20Z</time></trkpt><trkpt lat="43.6381717" lon="12.4721433"><ele>490.3333333333333</ele><time>2026-04-06T09:30:21Z</time></trkpt><trkpt lat="43.6382883" lon="12.4722717"><ele>488.0</ele><time>2026-04-06T09:30:22Z</time></trkpt><trkpt lat="43.6384033" lon="12.4724317"><ele>488.0</ele><time>2026-04-06T09:30:23Z</time></trkpt><trkpt lat="43.6385183" lon="12.472595"><ele>488.0</ele><time>2026-04-06T09:30:24Z</time></trkpt><trkpt lat="43.638625" lon="12.4727367"><ele>488.0</ele><time>2026-04-06T09:30:25Z</time></trkpt><trkpt lat="43.6387333" lon="12.4728517"><ele>488.0</ele><time>2026-04-06T09:30:26Z</time></trkpt><trkpt lat="43.6388467" lon="12.4729233"><ele>490.0</ele><time>2026-04-06T09:30:27Z</time></trkpt><trkpt lat="43.6389617" lon="12.4729633"><ele>492.0</ele><time>2026-04-06T09:30:28Z</time></trkpt><trkpt lat="43.6390833" lon="12.4729633"><ele>494.0</ele><time>2026-04-06T09:30:29Z</time></trkpt><trkpt lat="43.6392067" lon="12.472975"><ele>496.0</ele><time>2026-04-06T09:30:30Z</time></trkpt><trkpt lat="43.6393333" lon="12.47298"><ele>496.0</ele><time>2026-04-06T09:30:31Z</time></trkpt><trkpt lat="43.639455" lon="12.4729917"><ele>496.0</ele><time>2026-04-06T09:30:32Z</time></trkpt><trkpt lat="43.6395783" lon="12.473"><ele>496.0</ele><time>2026-04-06T09:30:33Z</time></trkpt><trkpt lat="43.6397067" lon="12.4730117"><ele>496.0</ele><time>2026-04-06T09:30:34Z</time></trkpt><trkpt lat="43.63983" lon="12.47303"><ele>490.0</ele><time>2026-04-06T09:30:35Z</time></trkpt><trkpt lat="43.6399583" lon="12.4730967"><ele>484.0</ele><time>2026-04-06T09:30:36Z</time></trkpt><trkpt lat="43.6400833" lon="12.47321"><ele>478.0</ele><time>2026-04-06T09:30:37Z</time></trkpt><trkpt lat="43.6402117" lon="12.4733417"><ele>472.0</ele><time>2026-04-06T09:30:38Z</time></trkpt><trkpt lat="43.64033" lon="12.4734833"><ele>469.5</ele><time>2026-04-06T09:30:39Z</time></trkpt><trkpt lat="43.6404367" lon="12.4736317"><ele>467.0</ele><time>2026-04-06T09:30:40Z</time></trkpt><trkpt lat="43.6405367" lon="12.4737633"><ele>464.5</ele><time>2026-04-06T09:30:41Z</time></trkpt><trkpt lat="43.64063" lon="12.473895"><ele>462.0</ele><time>2026-04-06T09:30:42Z</time></trkpt><trkpt lat="43.6407433" lon="12.47404"><ele>462.0</ele><time>2026-04-06T09:30:43Z</time></trkpt><trkpt lat="43.6408733" lon="12.4741983"><ele>462.0</ele><time>2026-04-06T09:30:44Z</time></trkpt><trkpt lat="43.641" lon="12.4743567"><ele>462.0</ele><time>2026-04-06T09:30:45Z</time></trkpt><trkpt lat="43.6411117" lon="12.4745183"><ele>458.33333333333337</ele><time>2026-04-06T09:30:46Z</time></trkpt><trkpt lat="43.6412267" lon="12.4746833"><ele>454.6666666666667</ele><time>2026-04-06T09:30:47Z</time></trkpt><trkpt lat="43.6413383" lon="12.47488"><ele>451.0</ele><time>2026-04-06T09:30:48Z</time></trkpt><trkpt lat="43.6414483" lon="12.47512"><ele>451.0</ele><time>2026-04-06T09:30:49Z</time></trkpt><trkpt lat="43.64156" lon="12.4753617"><ele>451.0</ele><time>2026-04-06T09:30:50Z</time></trkpt><trkpt lat="43.6416583" lon="12.4755967"><ele>451.0</ele><time>2026-04-06T09:30:51Z</time></trkpt><trkpt lat="43.64176" lon="12.47582"><ele>450.6666666666667</ele><time>2026-04-06T09:30:52Z</time></trkpt><trkpt lat="43.6418683" lon="12.4760233"><ele>450.33333333333337</ele><time>2026-04-06T09:30:53Z</time></trkpt><trkpt lat="43.641985" lon="12.4762083"><ele>450.0</ele><time>2026-04-06T09:30:54Z</time></trkpt><trkpt lat="43.6421067" lon="12.4763867"><ele>450.0</ele><time>2026-04-06T09:30:55Z</time></trkpt><trkpt lat="43.6422267" lon="12.4765233"><ele>450.0</ele><time>2026-04-06T09:30:56Z</time></trkpt><trkpt lat="43.6423467" lon="12.47666"><ele>450.0</ele><time>2026-04-06T09:30:57Z</time></trkpt><trkpt lat="43.6424583" lon="12.4768433"><ele>450.0</ele><time>2026-04-06T09:30:58Z</time></trkpt><trkpt lat="43.6425817" lon="12.4770217"><ele>450.0</ele><time>2026-04-06T09:30:59Z</time></trkpt><trkpt lat="43.6426917" lon="12.4772233"><ele>450.0</ele><time>2026-04-06T09:31:00Z</time></trkpt><trkpt lat="43.6428" lon="12.477435"><ele>447.33333333333337</ele><time>2026-04-06T09:31:01Z</time></trkpt><trkpt lat="43.6429233" lon="12.477635"><ele>444.6666666666667</ele><time>2026-04-06T09:31:02Z</time></trkpt><trkpt lat="43.643025" lon="12.477825"><ele>442.0</ele><time>2026-04-06T09:31:03Z</time></trkpt><trkpt lat="43.6431267" lon="12.4780033"><ele>442.0</ele><time>2026-04-06T09:31:04Z</time></trkpt><trkpt lat="43.64324" lon="12.4781867"><ele>442.0</ele><time>2026-04-06T09:31:05Z</time></trkpt><trkpt lat="43.6433783" lon="12.4784067"><ele>442.0</ele><time>2026-04-06T09:31:06Z</time></trkpt><trkpt lat="43.6435283" lon="12.4786383"><ele>439.0</ele><time>2026-04-06T09:31:07Z</time></trkpt><trkpt lat="43.6436883" lon="12.4788383"><ele>436.0</ele><time>2026-04-06T09:31:08Z</time></trkpt><trkpt lat="43.643865" lon="12.4790417"><ele>433.0</ele><time>2026-04-06T09:31:09Z</time></trkpt><trkpt lat="43.6440633" lon="12.4792233"><ele>433.0</ele><time>2026-04-06T09:31:10Z</time></trkpt><trkpt lat="43.6443033" lon="12.4793567"><ele>433.0</ele><time>2026-04-06T09:31:11Z</time></trkpt><trkpt lat="43.6445317" lon="12.479475"><ele>434.0</ele><time>2026-04-06T09:31:12Z</time></trkpt><trkpt lat="43.6447783" lon="12.479585"><ele>435.0</ele><time>2026-04-06T09:31:13Z</time></trkpt><trkpt lat="43.64502" lon="12.4797133"><ele>436.33333333333337</ele><time>2026-04-06T09:31:14Z</time></trkpt><trkpt lat="43.645235" lon="12.4797917"><ele>437.6666666666667</ele><time>2026-04-06T09:31:15Z</time></trkpt><trkpt lat="43.64545" lon="12.4798117"><ele>439.0</ele><time>2026-04-06T09:31:16Z</time></trkpt><trkpt lat="43.64564" lon="12.4797933"><ele>437.33333333333337</ele><time>2026-04-06T09:31:17Z</time></trkpt><trkpt lat="43.645825" lon="12.479765"><ele>435.66666666666663</ele><time>2026-04-06T09:31:18Z</time></trkpt><trkpt lat="43.6459917" lon="12.4798133"><ele>434.0</ele><time>2026-04-06T09:31:19Z</time></trkpt><trkpt lat="43.646165" lon="12.4798967"><ele>434.0</ele><time>2026-04-06T09:31:20Z</time></trkpt><trkpt lat="43.6463583" lon="12.4800167"><ele>434.0</ele><time>2026-04-06T09:31:21Z</time></trkpt><trkpt lat="43.6465717" lon="12.4801633"><ele>434.0</ele><time>2026-04-06T09:31:22Z</time></trkpt><trkpt lat="43.64682" lon="12.4803117"><ele>434.0</ele><time>2026-04-06T09:31:23Z</time></trkpt><trkpt lat="43.6470833" lon="12.4804783"><ele>427.5</ele><time>2026-04-06T09:31:24Z</time></trkpt><trkpt lat="43.647355" lon="12.4806733"><ele>421.0</ele><time>2026-04-06T09:31:25Z</time></trkpt><trkpt lat="43.6476167" lon="12.480875"><ele>434.5</ele><time>2026-04-06T09:31:26Z</time></trkpt><trkpt lat="43.64785" lon="12.4810283"><ele>448.0</ele><time>2026-04-06T09:31:27Z</time></trkpt><trkpt lat="43.648095" lon="12.4812367"><ele>433.5</ele><time>2026-04-06T09:31:28Z</time></trkpt><trkpt lat="43.6483283" lon="12.48145"><ele>419.0</ele><time>2026-04-06T09:31:29Z</time></trkpt><trkpt lat="43.6485483" lon="12.48168"><ele>420.0</ele><time>2026-04-06T09:31:29.999Z</time></trkpt><trkpt lat="43.6487417" lon="12.481885"><ele>421.0</ele><time>2026-04-06T09:31:31Z</time></trkpt><trkpt lat="43.6489317" lon="12.4820867"><ele>413.5</ele><time>2026-04-06T09:31:32Z</time></trkpt><trkpt lat="43.6491167" lon="12.4822767"><ele>406.0</ele><time>2026-04-06T09:31:33Z</time></trkpt><trkpt lat="43.6493083" lon="12.4824617"><ele>406.6666666666667</ele><time>2026-04-06T09:31:34Z</time></trkpt><trkpt lat="43.6495167" lon="12.4825767"><ele>407.33333333333337</ele><time>2026-04-06T09:31:35Z</time></trkpt><trkpt lat="43.6497167" lon="12.4826767"><ele>408.0</ele><time>2026-04-06T09:31:36Z</time></trkpt><trkpt lat="43.6499317" lon="12.4827333"><ele>408.0</ele><time>2026-04-06T09:31:37Z</time></trkpt><trkpt lat="43.65015" lon="12.4827617"><ele>408.0</ele><time>2026-04-06T09:31:38Z</time></trkpt><trkpt lat="43.6503483" lon="12.4827667"><ele>408.0</ele><time>2026-04-06T09:31:39Z</time></trkpt><trkpt lat="43.6505483" lon="12.4827333"><ele>408.0</ele><time>2026-04-06T09:31:40Z</time></trkpt><trkpt lat="43.6507467" lon="12.4826783"><ele>408.0</ele><time>2026-04-06T09:31:41Z</time></trkpt><trkpt lat="43.6509383" lon="12.482575"><ele>408.0</ele><time>2026-04-06T09:31:42Z</time></trkpt><trkpt lat="43.6511283" lon="12.4824483"><ele>407.0</ele><time>2026-04-06T09:31:43Z</time></trkpt><trkpt lat="43.65129" lon="12.4823467"><ele>406.0</ele><time>2026-04-06T09:31:44Z</time></trkpt><trkpt lat="43.65147" lon="12.482245"><ele>405.0</ele><time>2026-04-06T09:31:45Z</time></trkpt><trkpt lat="43.6516533" lon="12.4822083"><ele>405.0</ele><time>2026-04-06T09:31:46Z</time></trkpt><trkpt lat="43.6518283" lon="12.4822667"><ele>405.0</ele><time>2026-04-06T09:31:47Z</time></trkpt><trkpt lat="43.6519967" lon="12.4823867"><ele>405.0</ele><time>2026-04-06T09:31:48Z</time></trkpt><trkpt lat="43.652195" lon="12.48251"><ele>407.66666666666663</ele><time>2026-04-06T09:31:49Z</time></trkpt><trkpt lat="43.6523883" lon="12.4826017"><ele>410.3333333333333</ele><time>2026-04-06T09:31:50Z</time></trkpt><trkpt lat="43.6525983" lon="12.4826683"><ele>413.0</ele><time>2026-04-06T09:31:51Z</time></trkpt><trkpt lat="43.652835" lon="12.482725"><ele>416.5</ele><time>2026-04-06T09:31:52Z</time></trkpt><trkpt lat="43.6530667" lon="12.4827883"><ele>420.0</ele><time>2026-04-06T09:31:53Z</time></trkpt><trkpt lat="43.653295" lon="12.4828967"><ele>414.0</ele><time>2026-04-06T09:31:54Z</time></trkpt><trkpt lat="43.6535117" lon="12.4830267"><ele>408.0</ele><time>2026-04-06T09:31:55Z</time></trkpt><trkpt lat="43.65373" lon="12.48319"><ele>408.0</ele><time>2026-04-06T09:31:56Z</time></trkpt><trkpt lat="43.653955" lon="12.4833667"><ele>408.0</ele><time>2026-04-06T09:31:57Z</time></trkpt><trkpt lat="43.65417" lon="12.4835333"><ele>408.0</ele><time>2026-04-06T09:31:58Z</time></trkpt><trkpt lat="43.6543733" lon="12.4836983"><ele>408.0</ele><time>2026-04-06T09:31:59Z</time></trkpt><trkpt lat="43.6545583" lon="12.4838683"><ele>405.0</ele><time>2026-04-06T09:32:00Z</time></trkpt><trkpt lat="43.65473" lon="12.484035"><ele>402.0</ele><time>2026-04-06T09:32:01Z</time></trkpt><trkpt lat="43.6548583" lon="12.48422"><ele>399.0</ele><time>2026-04-06T09:32:02Z</time></trkpt><trkpt lat="43.6549867" lon="12.4844017"><ele>399.0</ele><time>2026-04-06T09:32:03Z</time></trkpt><trkpt lat="43.6550967" lon="12.484595"><ele>399.0</ele><time>2026-04-06T09:32:04Z</time></trkpt><trkpt lat="43.655205" lon="12.484785"><ele>399.0</ele><time>2026-04-06T09:32:05Z</time></trkpt><trkpt lat="43.655315" lon="12.4849733"><ele>399.33333333333337</ele><time>2026-04-06T09:32:06Z</time></trkpt><trkpt lat="43.6554367" lon="12.4851633"><ele>399.6666666666667</ele><time>2026-04-06T09:32:07Z</time></trkpt><trkpt lat="43.6555667" lon="12.4853817"><ele>400.0</ele><time>2026-04-06T09:32:08Z</time></trkpt><trkpt lat="43.65571" lon="12.4856033"><ele>391.0</ele><time>2026-04-06T09:32:09Z</time></trkpt><trkpt lat="43.6558517" lon="12.4858617"><ele>382.0</ele><time>2026-04-06T09:32:10Z</time></trkpt><trkpt lat="43.655995" lon="12.4861217"><ele>383.5</ele><time>2026-04-06T09:32:11Z</time></trkpt><trkpt lat="43.65615" lon="12.4863733"><ele>385.0</ele><time>2026-04-06T09:32:12Z</time></trkpt><trkpt lat="43.65631" lon="12.4866367"><ele>385.0</ele><time>2026-04-06T09:32:13Z</time></trkpt><trkpt lat="43.656475" lon="12.486915"><ele>385.0</ele><time>2026-04-06T09:32:14Z</time></trkpt><trkpt lat="43.656645" lon="12.4871933"><ele>384.5</ele><time>2026-04-06T09:32:15Z</time></trkpt><trkpt lat="43.65681" lon="12.4874683"><ele>384.0</ele><time>2026-04-06T09:32:16Z</time></trkpt><trkpt lat="43.6569717" lon="12.4877317"><ele>379.5</ele><time>2026-04-06T09:32:17Z</time></trkpt><trkpt lat="43.65713" lon="12.4879817"><ele>375.0</ele><time>2026-04-06T09:32:18Z</time></trkpt><trkpt lat="43.6572817" lon="12.4882217"><ele>375.0</ele><time>2026-04-06T09:32:19Z</time></trkpt><trkpt lat="43.65742" lon="12.4884583"><ele>375.0</ele><time>2026-04-06T09:32:20Z</time></trkpt><trkpt lat="43.6575383" lon="12.4886633"><ele>375.0</ele><time>2026-04-06T09:32:21Z</time></trkpt><trkpt lat="43.6576367" lon="12.4888683"><ele>372.3333333333333</ele><time>2026-04-06T09:32:22Z</time></trkpt><trkpt lat="43.6577217" lon="12.4891017"><ele>369.66666666666663</ele><time>2026-04-06T09:32:23Z</time></trkpt><trkpt lat="43.6577817" lon="12.4893567"><ele>367.0</ele><time>2026-04-06T09:32:24Z</time></trkpt><trkpt lat="43.6578317" lon="12.4896183"><ele>367.0</ele><time>2026-04-06T09:32:25Z</time></trkpt><trkpt lat="43.65789" lon="12.4898833"><ele>367.0</ele><time>2026-04-06T09:32:26Z</time></trkpt><trkpt lat="43.6579433" lon="12.4901367"><ele>367.0</ele><time>2026-04-06T09:32:27Z</time></trkpt><trkpt lat="43.658015" lon="12.49039"><ele>363.3333333333333</ele><time>2026-04-06T09:32:28Z</time></trkpt><trkpt lat="43.6581067" lon="12.4906333"><ele>359.6666666666667</ele><time>2026-04-06T09:32:29Z</time></trkpt><trkpt lat="43.6582317" lon="12.4908633"><ele>356.0</ele><time>2026-04-06T09:32:30Z</time></trkpt><trkpt lat="43.6583683" lon="12.4911333"><ele>356.0</ele><time>2026-04-06T09:32:31Z</time></trkpt><trkpt lat="43.6584983" lon="12.491395"><ele>356.0</ele><time>2026-04-06T09:32:32Z</time></trkpt><trkpt lat="43.6586383" lon="12.49166"><ele>356.0</ele><time>2026-04-06T09:32:33Z</time></trkpt><trkpt lat="43.6587667" lon="12.4919333"><ele>356.0</ele><time>2026-04-06T09:32:34Z</time></trkpt><trkpt lat="43.6589" lon="12.4922017"><ele>352.0</ele><time>2026-04-06T09:32:35Z</time></trkpt><trkpt lat="43.65903" lon="12.4924683"><ele>348.0</ele><time>2026-04-06T09:32:36Z</time></trkpt><trkpt lat="43.6591517" lon="12.4927367"><ele>346.3333333333333</ele><time>2026-04-06T09:32:37Z</time></trkpt><trkpt lat="43.6592467" lon="12.4929967"><ele>344.66666666666663</ele><time>2026-04-06T09:32:38Z</time></trkpt><trkpt lat="43.659325" lon="12.4932483"><ele>343.0</ele><time>2026-04-06T09:32:39Z</time></trkpt><trkpt lat="43.659375" lon="12.4934933"><ele>343.0</ele><time>2026-04-06T09:32:40Z</time></trkpt><trkpt lat="43.6594317" lon="12.4937083"><ele>343.0</ele><time>2026-04-06T09:32:41Z</time></trkpt><trkpt lat="43.659495" lon="12.49389"><ele>343.0</ele><time>2026-04-06T09:32:42Z</time></trkpt><trkpt lat="43.65957" lon="12.4940433"><ele>343.0</ele><time>2026-04-06T09:32:43Z</time></trkpt><trkpt lat="43.65967" lon="12.4941583"><ele>343.3333333333333</ele><time>2026-04-06T09:32:44Z</time></trkpt><trkpt lat="43.6598217" lon="12.4942467"><ele>343.6666666666667</ele><time>2026-04-06T09:32:45Z</time></trkpt><trkpt lat="43.65998" lon="12.4942917"><ele>344.0</ele><time>2026-04-06T09:32:46Z</time></trkpt><trkpt lat="43.660155" lon="12.4943083"><ele>342.0</ele><time>2026-04-06T09:32:47Z</time></trkpt><trkpt lat="43.6603317" lon="12.494355"><ele>340.0</ele><time>2026-04-06T09:32:48Z</time></trkpt><trkpt lat="43.6604917" lon="12.4944383"><ele>338.0</ele><time>2026-04-06T09:32:49Z</time></trkpt><trkpt lat="43.6606267" lon="12.4945833"><ele>341.33333333333337</ele><time>2026-04-06T09:32:50Z</time></trkpt><trkpt lat="43.660745" lon="12.4947817"><ele>344.6666666666667</ele><time>2026-04-06T09:32:51Z</time></trkpt><trkpt lat="43.6608467" lon="12.4949983"><ele>348.0</ele><time>2026-04-06T09:32:52Z</time></trkpt><trkpt lat="43.660955" lon="12.4952233"><ele>346.5</ele><time>2026-04-06T09:32:53Z</time></trkpt><trkpt lat="43.6610783" lon="12.4954683"><ele>345.0</ele><time>2026-04-06T09:32:54Z</time></trkpt><trkpt lat="43.6612333" lon="12.49572"><ele>345.0</ele><time>2026-04-06T09:32:55Z</time></trkpt><trkpt lat="43.661415" lon="12.4959867"><ele>345.0</ele><time>2026-04-06T09:32:56Z</time></trkpt><trkpt lat="43.6616333" lon="12.4962517"><ele>344.5</ele><time>2026-04-06T09:32:57Z</time></trkpt><trkpt lat="43.6618583" lon="12.49649"><ele>344.0</ele><time>2026-04-06T09:32:58Z</time></trkpt><trkpt lat="43.662105" lon="12.49672"><ele>344.0</ele><time>2026-04-06T09:32:59Z</time></trkpt><trkpt lat="43.6623717" lon="12.4969567"><ele>344.0</ele><time>2026-04-06T09:33:00Z</time></trkpt><trkpt lat="43.6626467" lon="12.4972167"><ele>342.5</ele><time>2026-04-06T09:33:01Z</time></trkpt><trkpt lat="43.6629183" lon="12.4974683"><ele>341.0</ele><time>2026-04-06T09:33:02Z</time></trkpt><trkpt lat="43.66318" lon="12.4977117"><ele>339.0</ele><time>2026-04-06T09:33:03Z</time></trkpt><trkpt lat="43.6634217" lon="12.4979433"><ele>337.0</ele><time>2026-04-06T09:33:04Z</time></trkpt><trkpt lat="43.6636267" lon="12.4981283"><ele>337.0</ele><time>2026-04-06T09:33:05Z</time></trkpt><trkpt lat="43.6638317" lon="12.4982867"><ele>337.0</ele><time>2026-04-06T09:33:06Z</time></trkpt><trkpt lat="43.6640383" lon="12.4984"><ele>337.0</ele><time>2026-04-06T09:33:07Z</time></trkpt><trkpt lat="43.6642583" lon="12.4984983"><ele>337.0</ele><time>2026-04-06T09:33:08Z</time></trkpt><trkpt lat="43.6644867" lon="12.4985483"><ele>336.0</ele><time>2026-04-06T09:33:09Z</time></trkpt><trkpt lat="43.6647133" lon="12.49862"><ele>335.0</ele><time>2026-04-06T09:33:10Z</time></trkpt><trkpt lat="43.6649367" lon="12.4987167"><ele>333.0</ele><time>2026-04-06T09:33:11Z</time></trkpt><trkpt lat="43.6651617" lon="12.498845"><ele>331.0</ele><time>2026-04-06T09:33:12Z</time></trkpt><trkpt lat="43.6653817" lon="12.4989967"><ele>331.0</ele><time>2026-04-06T09:33:13Z</time></trkpt><trkpt lat="43.6656017" lon="12.4991817"><ele>331.0</ele><time>2026-04-06T09:33:14Z</time></trkpt><trkpt lat="43.6658133" lon="12.49939"><ele>331.0</ele><time>2026-04-06T09:33:15Z</time></trkpt><trkpt lat="43.66603" lon="12.4996217"><ele>331.0</ele><time>2026-04-06T09:33:16Z</time></trkpt><trkpt lat="43.6662483" lon="12.4998483"><ele>331.0</ele><time>2026-04-06T09:33:17Z</time></trkpt><trkpt lat="43.6664667" lon="12.5000767"><ele>331.0</ele><time>2026-04-06T09:33:18Z</time></trkpt><trkpt lat="43.6666917" lon="12.500315"><ele>329.5</ele><time>2026-04-06T09:33:19Z</time></trkpt><trkpt lat="43.6669083" lon="12.5005617"><ele>328.0</ele><time>2026-04-06T09:33:20Z</time></trkpt><trkpt lat="43.6671267" lon="12.50081"><ele>328.0</ele><time>2026-04-06T09:33:21Z</time></trkpt><trkpt lat="43.6673483" lon="12.50106"><ele>328.0</ele><time>2026-04-06T09:33:22Z</time></trkpt><trkpt lat="43.667575" lon="12.5013283"><ele>328.0</ele><time>2026-04-06T09:33:23Z</time></trkpt><trkpt lat="43.667805" lon="12.501595"><ele>328.0</ele><time>2026-04-06T09:33:24Z</time></trkpt><trkpt lat="43.6680133" lon="12.50186"><ele>330.0</ele><time>2026-04-06T09:33:25Z</time></trkpt><trkpt lat="43.668215" lon="12.5021133"><ele>332.0</ele><time>2026-04-06T09:33:26Z</time></trkpt><trkpt lat="43.6684167" lon="12.50235"><ele>332.0</ele><time>2026-04-06T09:33:27Z</time></trkpt><trkpt lat="43.6686017" lon="12.5025817"><ele>332.0</ele><time>2026-04-06T09:33:28Z</time></trkpt><trkpt lat="43.6687717" lon="12.502825"><ele>326.0</ele><time>2026-04-06T09:33:29Z</time></trkpt><trkpt lat="43.6689317" lon="12.503085"><ele>320.0</ele><time>2026-04-06T09:33:30Z</time></trkpt><trkpt lat="43.6690833" lon="12.5033467"><ele>320.0</ele><time>2026-04-06T09:33:31Z</time></trkpt><trkpt lat="43.6692267" lon="12.5036017"><ele>320.0</ele><time>2026-04-06T09:33:32Z</time></trkpt><trkpt lat="43.66937" lon="12.5038483"><ele>318.0</ele><time>2026-04-06T09:33:33Z</time></trkpt><trkpt lat="43.6695133" lon="12.50409"><ele>316.0</ele><time>2026-04-06T09:33:34Z</time></trkpt><trkpt lat="43.6696667" lon="12.504315"><ele>316.0</ele><time>2026-04-06T09:33:35Z</time></trkpt><trkpt lat="43.6698317" lon="12.5045483"><ele>316.0</ele><time>2026-04-06T09:33:36Z</time></trkpt><trkpt lat="43.6700267" lon="12.504755"><ele>316.5</ele><time>2026-04-06T09:33:37Z</time></trkpt><trkpt lat="43.6702233" lon="12.50495"><ele>317.0</ele><time>2026-04-06T09:33:38Z</time></trkpt><trkpt lat="43.67042" lon="12.50513"><ele>317.0</ele><time>2026-04-06T09:33:39Z</time></trkpt><trkpt lat="43.670615" lon="12.5053217"><ele>317.0</ele><time>2026-04-06T09:33:40Z</time></trkpt><trkpt lat="43.6708033" lon="12.5055033"><ele>315.6666666666667</ele><time>2026-04-06T09:33:41Z</time></trkpt><trkpt lat="43.6709833" lon="12.5056733"><ele>314.3333333333333</ele><time>2026-04-06T09:33:42Z</time></trkpt><trkpt lat="43.6711467" lon="12.5058433"><ele>313.0</ele><time>2026-04-06T09:33:43Z</time></trkpt><trkpt lat="43.6713083" lon="12.50602"><ele>313.0</ele><time>2026-04-06T09:33:44Z</time></trkpt><trkpt lat="43.6714633" lon="12.5062333"><ele>313.0</ele><time>2026-04-06T09:33:45Z</time></trkpt><trkpt lat="43.67161" lon="12.50647"><ele>313.0</ele><time>2026-04-06T09:33:46Z</time></trkpt><trkpt lat="43.671765" lon="12.50671"><ele>312.0</ele><time>2026-04-06T09:33:47Z</time></trkpt><trkpt lat="43.6719133" lon="12.5069617"><ele>311.0</ele><time>2026-04-06T09:33:48Z</time></trkpt><trkpt lat="43.6720617" lon="12.5072167"><ele>311.0</ele><time>2026-04-06T09:33:49Z</time></trkpt><trkpt lat="43.6722083" lon="12.5074767"><ele>311.0</ele><time>2026-04-06T09:33:50Z</time></trkpt><trkpt lat="43.6723583" lon="12.5077283"><ele>313.6666666666667</ele><time>2026-04-06T09:33:51Z</time></trkpt><trkpt lat="43.6725067" lon="12.5079667"><ele>316.3333333333333</ele><time>2026-04-06T09:33:52Z</time></trkpt><trkpt lat="43.6726533" lon="12.5081967"><ele>319.0</ele><time>2026-04-06T09:33:53Z</time></trkpt><trkpt lat="43.6728033" lon="12.5084183"><ele>314.66666666666663</ele><time>2026-04-06T09:33:54Z</time></trkpt><trkpt lat="43.672935" lon="12.5086317"><ele>310.3333333333333</ele><time>2026-04-06T09:33:55Z</time></trkpt><trkpt lat="43.67306" lon="12.508835"><ele>306.0</ele><time>2026-04-06T09:33:56Z</time></trkpt><trkpt lat="43.6731617" lon="12.50904"><ele>306.0</ele><time>2026-04-06T09:33:57Z</time></trkpt><trkpt lat="43.6732567" lon="12.5092583"><ele>306.0</ele><time>2026-04-06T09:33:58Z</time></trkpt><trkpt lat="43.673355" lon="12.509475"><ele>306.0</ele><time>2026-04-06T09:33:59Z</time></trkpt><trkpt lat="43.6734233" lon="12.509715"><ele>306.3333333333333</ele><time>2026-04-06T09:34:00Z</time></trkpt><trkpt lat="43.6734933" lon="12.509955"><ele>306.66666666666663</ele><time>2026-04-06T09:34:01Z</time></trkpt><trkpt lat="43.6735683" lon="12.5101933"><ele>307.0</ele><time>2026-04-06T09:34:02Z</time></trkpt><trkpt lat="43.6736383" lon="12.510435"><ele>303.0</ele><time>2026-04-06T09:34:03Z</time></trkpt><trkpt lat="43.6737067" lon="12.51068"><ele>299.0</ele><time>2026-04-06T09:34:04Z</time></trkpt><trkpt lat="43.67378" lon="12.51091"><ele>295.0</ele><time>2026-04-06T09:34:05Z</time></trkpt><trkpt lat="43.6738383" lon="12.5111317"><ele>294.75</ele><time>2026-04-06T09:34:06Z</time></trkpt><trkpt lat="43.673905" lon="12.5113383"><ele>294.5</ele><time>2026-04-06T09:34:07Z</time></trkpt><trkpt lat="43.6739683" lon="12.5115233"><ele>294.25</ele><time>2026-04-06T09:34:08Z</time></trkpt><trkpt lat="43.6740217" lon="12.511685"><ele>294.0</ele><time>2026-04-06T09:34:09Z</time></trkpt><trkpt lat="43.674075" lon="12.5118083"><ele>294.0</ele><time>2026-04-06T09:34:10Z</time></trkpt><trkpt lat="43.67412" lon="12.5119317"><ele>294.0</ele><time>2026-04-06T09:34:11Z</time></trkpt><trkpt lat="43.6741667" lon="12.51208"><ele>294.0</ele><time>2026-04-06T09:34:12Z</time></trkpt><trkpt lat="43.674215" lon="12.51226"><ele>294.0</ele><time>2026-04-06T09:34:12.999Z</time></trkpt><trkpt lat="43.674275" lon="12.5124583"><ele>294.3333333333333</ele><time>2026-04-06T09:34:14Z</time></trkpt><trkpt lat="43.674345" lon="12.512665"><ele>294.66666666666663</ele><time>2026-04-06T09:34:15Z</time></trkpt><trkpt lat="43.6744167" lon="12.5128833"><ele>295.0</ele><time>2026-04-06T09:34:16Z</time></trkpt><trkpt lat="43.6744867" lon="12.5130783"><ele>294.25</ele><time>2026-04-06T09:34:17Z</time></trkpt><trkpt lat="43.67455" lon="12.5132583"><ele>293.5</ele><time>2026-04-06T09:34:18Z</time></trkpt><trkpt lat="43.6746017" lon="12.5134167"><ele>292.75</ele><time>2026-04-06T09:34:19Z</time></trkpt><trkpt lat="43.67465" lon="12.51356"><ele>292.0</ele><time>2026-04-06T09:34:20Z</time></trkpt><trkpt lat="43.674685" lon="12.51369"><ele>292.0</ele><time>2026-04-06T09:34:21Z</time></trkpt><trkpt lat="43.6747117" lon="12.5138033"><ele>292.0</ele><time>2026-04-06T09:34:22Z</time></trkpt><trkpt lat="43.6747217" lon="12.51392"><ele>292.0</ele><time>2026-04-06T09:34:23Z</time></trkpt><trkpt lat="43.6747267" lon="12.51402"><ele>292.0</ele><time>2026-04-06T09:34:24Z</time></trkpt><trkpt lat="43.6746717" lon="12.5141467"><ele>292.0</ele><time>2026-04-06T09:34:26Z</time></trkpt><trkpt lat="43.6745367" lon="12.514255"><ele>292.0</ele><time>2026-04-06T09:34:28Z</time></trkpt><trkpt lat="43.67441" lon="12.5143467"><ele>292.0</ele><time>2026-04-06T09:34:29Z</time></trkpt><trkpt lat="43.67428" lon="12.5144467"><ele>292.0</ele><time>2026-04-06T09:34:30Z</time></trkpt><trkpt lat="43.67415" lon="12.51456"><ele>292.0</ele><time>2026-04-06T09:34:31Z</time></trkpt><trkpt lat="43.6740167" lon="12.5146733"><ele>292.0</ele><time>2026-04-06T09:34:32Z</time></trkpt><trkpt lat="43.6738967" lon="12.514775"><ele>292.0</ele><time>2026-04-06T09:34:33Z</time></trkpt><trkpt lat="43.673775" lon="12.51488"><ele>292.0</ele><time>2026-04-06T09:34:34Z</time></trkpt><trkpt lat="43.6736483" lon="12.514995"><ele>292.0</ele><time>2026-04-06T09:34:35Z</time></trkpt><trkpt lat="43.6735217" lon="12.51513"><ele>292.3333333333333</ele><time>2026-04-06T09:34:36Z</time></trkpt><trkpt lat="43.6733883" lon="12.515275"><ele>292.6666666666667</ele><time>2026-04-06T09:34:37Z</time></trkpt><trkpt lat="43.67325" lon="12.5154283"><ele>293.0</ele><time>2026-04-06T09:34:38Z</time></trkpt><trkpt lat="43.6731217" lon="12.5155867"><ele>292.0</ele><time>2026-04-06T09:34:39Z</time></trkpt><trkpt lat="43.6729967" lon="12.515735"><ele>291.0</ele><time>2026-04-06T09:34:40Z</time></trkpt><trkpt lat="43.6728783" lon="12.5158667"><ele>290.0</ele><time>2026-04-06T09:34:41Z</time></trkpt><trkpt lat="43.6727667" lon="12.5159867"><ele>289.5</ele><time>2026-04-06T09:34:42Z</time></trkpt><trkpt lat="43.6726633" lon="12.5161033"><ele>289.0</ele><time>2026-04-06T09:34:43Z</time></trkpt><trkpt lat="43.6725667" lon="12.5162133"><ele>288.5</ele><time>2026-04-06T09:34:44Z</time></trkpt><trkpt lat="43.6724717" lon="12.51634"><ele>288.0</ele><time>2026-04-06T09:34:45Z</time></trkpt><trkpt lat="43.6723667" lon="12.51646"><ele>287.25</ele><time>2026-04-06T09:34:46Z</time></trkpt><trkpt lat="43.6722683" lon="12.5165867"><ele>286.5</ele><time>2026-04-06T09:34:47Z</time></trkpt><trkpt lat="43.672165" lon="12.5167067"><ele>285.75</ele><time>2026-04-06T09:34:48Z</time></trkpt><trkpt lat="43.6720683" lon="12.5168067"><ele>285.0</ele><time>2026-04-06T09:34:49Z</time></trkpt><trkpt lat="43.6719883" lon="12.516895"><ele>284.8</ele><time>2026-04-06T09:34:50Z</time></trkpt><trkpt lat="43.671915" lon="12.5169817"><ele>284.6</ele><time>2026-04-06T09:34:51Z</time></trkpt><trkpt lat="43.6718383" lon="12.5170683"><ele>284.4</ele><time>2026-04-06T09:34:52Z</time></trkpt><trkpt lat="43.6717683" lon="12.5171583"><ele>284.2</ele><time>2026-04-06T09:34:53Z</time></trkpt><trkpt lat="43.6716983" lon="12.5172533"><ele>284.0</ele><time>2026-04-06T09:34:54Z</time></trkpt><trkpt lat="43.67163" lon="12.51735"><ele>283.5</ele><time>2026-04-06T09:34:55Z</time></trkpt><trkpt lat="43.6715683" lon="12.5174583"><ele>283.0</ele><time>2026-04-06T09:34:56Z</time></trkpt><trkpt lat="43.6715083" lon="12.5175617"><ele>282.5</ele><time>2026-04-06T09:34:57Z</time></trkpt><trkpt lat="43.6714567" lon="12.5176483"><ele>282.0</ele><time>2026-04-06T09:34:58Z</time></trkpt><trkpt lat="43.6714083" lon="12.517725"><ele>281.5</ele><time>2026-04-06T09:34:59Z</time></trkpt><trkpt lat="43.6713467" lon="12.51779"><ele>281.0</ele><time>2026-04-06T09:34:59.999Z</time></trkpt><trkpt lat="43.6712683" lon="12.5178467"><ele>281.0</ele><time>2026-04-06T09:35:01Z</time></trkpt><trkpt lat="43.671185" lon="12.5178967"><ele>281.0</ele><time>2026-04-06T09:35:02Z</time></trkpt><trkpt lat="43.671115" lon="12.517965"><ele>281.0</ele><time>2026-04-06T09:35:03Z</time></trkpt><trkpt lat="43.6710783" lon="12.5180467"><ele>281.0</ele><time>2026-04-06T09:35:04Z</time></trkpt><trkpt lat="43.6710833" lon="12.51825"><ele>281.0</ele><time>2026-04-06T09:35:06Z</time></trkpt><trkpt lat="43.6711333" lon="12.5184017"><ele>280.40000000000003</ele><time>2026-04-06T09:35:07Z</time></trkpt><trkpt lat="43.6712033" lon="12.5185633"><ele>279.8</ele><time>2026-04-06T09:35:08Z</time></trkpt><trkpt lat="43.671255" lon="12.5187117"><ele>279.20000000000005</ele><time>2026-04-06T09:35:09Z</time></trkpt><trkpt lat="43.67127" lon="12.518845"><ele>278.6</ele><time>2026-04-06T09:35:10Z</time></trkpt><trkpt lat="43.6712767" lon="12.5189517"><ele>278.0</ele><time>2026-04-06T09:35:11Z</time></trkpt><trkpt lat="43.6712667" lon="12.51906"><ele>276.0</ele><time>2026-04-06T09:35:12Z</time></trkpt><trkpt lat="43.6712633" lon="12.51917"><ele>274.0</ele><time>2026-04-06T09:35:13Z</time></trkpt><trkpt lat="43.6712533" lon="12.5192933"><ele>272.0</ele><time>2026-04-06T09:35:14Z</time></trkpt><trkpt lat="43.6712467" lon="12.5194367"><ele>270.0</ele><time>2026-04-06T09:35:15Z</time></trkpt><trkpt lat="43.6712367" lon="12.5195933"><ele>268.0</ele><time>2026-04-06T09:35:16Z</time></trkpt><trkpt lat="43.6712217" lon="12.51974"><ele>267.0</ele><time>2026-04-06T09:35:17Z</time></trkpt><trkpt lat="43.6712033" lon="12.5199017"><ele>266.0</ele><time>2026-04-06T09:35:18Z</time></trkpt><trkpt lat="43.67119" lon="12.5200633"><ele>265.0</ele><time>2026-04-06T09:35:19Z</time></trkpt><trkpt lat="43.67118" lon="12.5202117"><ele>264.0</ele><time>2026-04-06T09:35:20Z</time></trkpt><trkpt lat="43.6711683" lon="12.5203667"><ele>266.0</ele><time>2026-04-06T09:35:21Z</time></trkpt><trkpt lat="43.6711567" lon="12.520525"><ele>268.0</ele><time>2026-04-06T09:35:22Z</time></trkpt><trkpt lat="43.6711483" lon="12.520675"><ele>270.0</ele><time>2026-04-06T09:35:23Z</time></trkpt><trkpt lat="43.671145" lon="12.5208283"><ele>272.0</ele><time>2026-04-06T09:35:23.999Z</time></trkpt><trkpt lat="43.6711483" lon="12.5209767"><ele>274.0</ele><time>2026-04-06T09:35:25Z</time></trkpt><trkpt lat="43.6711617" lon="12.52113"><ele>274.4</ele><time>2026-04-06T09:35:26Z</time></trkpt><trkpt lat="43.67118" lon="12.5212767"><ele>274.79999999999995</ele><time>2026-04-06T09:35:27Z</time></trkpt><trkpt lat="43.6712067" lon="12.5214233"><ele>275.20000000000005</ele><time>2026-04-06T09:35:28Z</time></trkpt><trkpt lat="43.6712383" lon="12.5215617"><ele>275.6</ele><time>2026-04-06T09:35:29Z</time></trkpt><trkpt lat="43.671275" lon="12.5216967"><ele>276.0</ele><time>2026-04-06T09:35:30Z</time></trkpt><trkpt lat="43.6713117" lon="12.521825"><ele>276.0</ele><time>2026-04-06T09:35:31Z</time></trkpt><trkpt lat="43.6713417" lon="12.5219483"><ele>276.0</ele><time>2026-04-06T09:35:32Z</time></trkpt><trkpt lat="43.6713767" lon="12.5220267"><ele>276.0</ele><time>2026-04-06T09:35:33Z</time></trkpt><trkpt lat="43.6714133" lon="12.5221"><ele>276.0</ele><time>2026-04-06T09:35:35Z</time></trkpt><trkpt lat="43.671455" lon="12.5221667"><ele>276.0</ele><time>2026-04-06T09:35:42Z</time></trkpt><trkpt lat="43.671495" lon="12.5223317"><ele>276.0</ele><time>2026-04-06T09:35:44Z</time></trkpt><trkpt lat="43.6715067" lon="12.5224367"><ele>276.0</ele><time>2026-04-06T09:35:45Z</time></trkpt><trkpt lat="43.6715283" lon="12.52254"><ele>276.0</ele><time>2026-04-06T09:35:46Z</time></trkpt><trkpt lat="43.6715667" lon="12.522625"><ele>276.0</ele><time>2026-04-06T09:35:47Z</time></trkpt><trkpt lat="43.671605" lon="12.5227083"><ele>276.0</ele><time>2026-04-06T09:35:48Z</time></trkpt><trkpt lat="43.671685" lon="12.522785"><ele>276.0</ele><time>2026-04-06T09:35:49Z</time></trkpt><trkpt lat="43.6717867" lon="12.52286"><ele>276.0</ele><time>2026-04-06T09:35:50Z</time></trkpt><trkpt lat="43.6719183" lon="12.5229283"><ele>276.6666666666667</ele><time>2026-04-06T09:35:51Z</time></trkpt><trkpt lat="43.6720817" lon="12.5229983"><ele>277.33333333333337</ele><time>2026-04-06T09:35:51.999Z</time></trkpt><trkpt lat="43.6722517" lon="12.5230633"><ele>278.0</ele><time>2026-04-06T09:35:53Z</time></trkpt><trkpt lat="43.6724317" lon="12.5231417"><ele>278.0</ele><time>2026-04-06T09:35:54Z</time></trkpt><trkpt lat="43.67261" lon="12.5232267"><ele>278.0</ele><time>2026-04-06T09:35:55Z</time></trkpt><trkpt lat="43.6727867" lon="12.5233117"><ele>278.0</ele><time>2026-04-06T09:35:56Z</time></trkpt><trkpt lat="43.67297" lon="12.5234"><ele>278.33333333333337</ele><time>2026-04-06T09:35:57Z</time></trkpt><trkpt lat="43.67316" lon="12.5234833"><ele>278.6666666666667</ele><time>2026-04-06T09:35:58Z</time></trkpt><trkpt lat="43.673335" lon="12.5235733"><ele>279.0</ele><time>2026-04-06T09:35:59Z</time></trkpt><trkpt lat="43.67351" lon="12.5236583"><ele>280.6666666666667</ele><time>2026-04-06T09:36:00Z</time></trkpt><trkpt lat="43.6736833" lon="12.5237367"><ele>282.33333333333337</ele><time>2026-04-06T09:36:01Z</time></trkpt><trkpt lat="43.6738433" lon="12.52381"><ele>284.0</ele><time>2026-04-06T09:36:02Z</time></trkpt><trkpt lat="43.67401" lon="12.5238817"><ele>284.0</ele><time>2026-04-06T09:36:03Z</time></trkpt><trkpt lat="43.6741717" lon="12.5239467"><ele>284.0</ele><time>2026-04-06T09:36:04Z</time></trkpt><trkpt lat="43.6743233" lon="12.52401"><ele>284.0</ele><time>2026-04-06T09:36:05Z</time></trkpt><trkpt lat="43.67447" lon="12.5240733"><ele>284.25</ele><time>2026-04-06T09:36:06Z</time></trkpt><trkpt lat="43.6746117" lon="12.5241267"><ele>284.5</ele><time>2026-04-06T09:36:07Z</time></trkpt><trkpt lat="43.6747483" lon="12.5241683"><ele>284.75</ele><time>2026-04-06T09:36:08Z</time></trkpt><trkpt lat="43.6748717" lon="12.524205"><ele>285.0</ele><time>2026-04-06T09:36:09Z</time></trkpt><trkpt lat="43.6749867" lon="12.5242483"><ele>285.0</ele><time>2026-04-06T09:36:10Z</time></trkpt><trkpt lat="43.675095" lon="12.5242983"><ele>285.0</ele><time>2026-04-06T09:36:11Z</time></trkpt><trkpt lat="43.6752067" lon="12.524355"><ele>285.0</ele><time>2026-04-06T09:36:12Z</time></trkpt><trkpt lat="43.6753217" lon="12.524385"><ele>285.0</ele><time>2026-04-06T09:36:13Z</time></trkpt><trkpt lat="43.6754583" lon="12.5243917"><ele>286.0</ele><time>2026-04-06T09:36:14Z</time></trkpt><trkpt lat="43.6755933" lon="12.5244317"><ele>287.0</ele><time>2026-04-06T09:36:15Z</time></trkpt><trkpt lat="43.6757183" lon="12.5245033"><ele>288.0</ele><time>2026-04-06T09:36:16Z</time></trkpt><trkpt lat="43.6758417" lon="12.5246033"><ele>289.0</ele><time>2026-04-06T09:36:17Z</time></trkpt><trkpt lat="43.67597" lon="12.5247183"><ele>292.3333333333333</ele><time>2026-04-06T09:36:18Z</time></trkpt><trkpt lat="43.6760983" lon="12.52485"><ele>295.6666666666667</ele><time>2026-04-06T09:36:19Z</time></trkpt><trkpt lat="43.6762333" lon="12.52497"><ele>299.0</ele><time>2026-04-06T09:36:20Z</time></trkpt><trkpt lat="43.6763683" lon="12.5250917"><ele>299.0</ele><time>2026-04-06T09:36:21Z</time></trkpt><trkpt lat="43.6764933" lon="12.5252067"><ele>299.0</ele><time>2026-04-06T09:36:22Z</time></trkpt><trkpt lat="43.6766" lon="12.5253083"><ele>299.0</ele><time>2026-04-06T09:36:23Z</time></trkpt><trkpt lat="43.6766983" lon="12.5253783"><ele>299.0</ele><time>2026-04-06T09:36:24Z</time></trkpt><trkpt lat="43.6768" lon="12.5253933"><ele>299.0</ele><time>2026-04-06T09:36:25Z</time></trkpt><trkpt lat="43.6769067" lon="12.5253283"><ele>299.0</ele><time>2026-04-06T09:36:26Z</time></trkpt><trkpt lat="43.6769783" lon="12.5252533"><ele>299.0</ele><time>2026-04-06T09:36:27Z</time></trkpt><trkpt lat="43.6770433" lon="12.5252033"><ele>299.0</ele><time>2026-04-06T09:36:28Z</time></trkpt><trkpt lat="43.6771133" lon="12.5252017"><ele>299.0</ele><time>2026-04-06T09:36:29Z</time></trkpt><trkpt lat="43.67717" lon="12.5252417"><ele>299.0</ele><time>2026-04-06T09:36:30Z</time></trkpt><trkpt lat="43.6772133" lon="12.5253083"><ele>301.0</ele><time>2026-04-06T09:36:31Z</time></trkpt><trkpt lat="43.6772317" lon="12.5254083"><ele>303.0</ele><time>2026-04-06T09:36:32Z</time></trkpt><trkpt lat="43.67721" lon="12.5255583"><ele>305.0</ele><time>2026-04-06T09:36:33Z</time></trkpt><trkpt lat="43.6771683" lon="12.5257433"><ele>307.0</ele><time>2026-04-06T09:36:34Z</time></trkpt><trkpt lat="43.6771483" lon="12.5259483"><ele>307.0</ele><time>2026-04-06T09:36:35Z</time></trkpt><trkpt lat="43.677165" lon="12.5261817"><ele>307.0</ele><time>2026-04-06T09:36:36Z</time></trkpt><trkpt lat="43.6772117" lon="12.5263983"><ele>307.0</ele><time>2026-04-06T09:36:37Z</time></trkpt><trkpt lat="43.67728" lon="12.5265667"><ele>308.25</ele><time>2026-04-06T09:36:38Z</time></trkpt><trkpt lat="43.677365" lon="12.5266983"><ele>309.5</ele><time>2026-04-06T09:36:39Z</time></trkpt><trkpt lat="43.677465" lon="12.52678"><ele>310.75</ele><time>2026-04-06T09:36:40Z</time></trkpt><trkpt lat="43.677565" lon="12.5268083"><ele>312.0</ele><time>2026-04-06T09:36:41Z</time></trkpt><trkpt lat="43.6776767" lon="12.5267717"><ele>314.4</ele><time>2026-04-06T09:36:42Z</time></trkpt><trkpt lat="43.677785" lon="12.5267517"><ele>316.79999999999995</ele><time>2026-04-06T09:36:43Z</time></trkpt><trkpt lat="43.6778783" lon="12.5267817"><ele>319.2</ele><time>2026-04-06T09:36:44Z</time></trkpt><trkpt lat="43.6779583" lon="12.5268717"><ele>321.59999999999997</ele><time>2026-04-06T09:36:45Z</time></trkpt><trkpt lat="43.6780133" lon="12.5270167"><ele>324.0</ele><time>2026-04-06T09:36:46Z</time></trkpt><trkpt lat="43.6780567" lon="12.5272283"><ele>324.0</ele><time>2026-04-06T09:36:47Z</time></trkpt><trkpt lat="43.6781017" lon="12.5274583"><ele>324.0</ele><time>2026-04-06T09:36:48Z</time></trkpt><trkpt lat="43.67815" lon="12.5276833"><ele>324.0</ele><time>2026-04-06T09:36:49Z</time></trkpt><trkpt lat="43.6782067" lon="12.527895"><ele>323.3333333333333</ele><time>2026-04-06T09:36:50Z</time></trkpt><trkpt lat="43.678275" lon="12.528105"><ele>322.66666666666663</ele><time>2026-04-06T09:36:51Z</time></trkpt><trkpt lat="43.6783617" lon="12.5283083"><ele>322.0</ele><time>2026-04-06T09:36:52Z</time></trkpt><trkpt lat="43.6784567" lon="12.52851"><ele>322.0</ele><time>2026-04-06T09:36:53Z</time></trkpt><trkpt lat="43.67856" lon="12.5287067"><ele>322.0</ele><time>2026-04-06T09:36:54Z</time></trkpt><trkpt lat="43.6786683" lon="12.5288967"><ele>322.0</ele><time>2026-04-06T09:36:55Z</time></trkpt><trkpt lat="43.678795" lon="12.5290683"><ele>325.66666666666663</ele><time>2026-04-06T09:36:56Z</time></trkpt><trkpt lat="43.6789267" lon="12.5292317"><ele>329.3333333333333</ele><time>2026-04-06T09:36:57Z</time></trkpt><trkpt lat="43.6790683" lon="12.5293767"><ele>333.0</ele><time>2026-04-06T09:36:58Z</time></trkpt><trkpt lat="43.67923" lon="12.52949"><ele>332.0</ele><time>2026-04-06T09:36:59Z</time></trkpt><trkpt lat="43.6793917" lon="12.5295933"><ele>331.0</ele><time>2026-04-06T09:37:00Z</time></trkpt><trkpt lat="43.6795383" lon="12.529705"><ele>330.0</ele><time>2026-04-06T09:37:01Z</time></trkpt><trkpt lat="43.679685" lon="12.5298367"><ele>332.3333333333333</ele><time>2026-04-06T09:37:02Z</time></trkpt><trkpt lat="43.679815" lon="12.52998"><ele>334.66666666666663</ele><time>2026-04-06T09:37:03Z</time></trkpt><trkpt lat="43.67992" lon="12.5301317"><ele>337.0</ele><time>2026-04-06T09:37:04Z</time></trkpt><trkpt lat="43.6799917" lon="12.53029"><ele>337.20000000000005</ele><time>2026-04-06T09:37:05Z</time></trkpt><trkpt lat="43.6800283" lon="12.5304583"><ele>337.4</ele><time>2026-04-06T09:37:06Z</time></trkpt><trkpt lat="43.6800417" lon="12.53062"><ele>337.6</ele><time>2026-04-06T09:37:07Z</time></trkpt><trkpt lat="43.68004" lon="12.5307667"><ele>337.79999999999995</ele><time>2026-04-06T09:37:08Z</time></trkpt><trkpt lat="43.6800683" lon="12.530885"><ele>338.0</ele><time>2026-04-06T09:37:09Z</time></trkpt><trkpt lat="43.6801333" lon="12.5309633"><ele>338.0</ele><time>2026-04-06T09:37:10Z</time></trkpt><trkpt lat="43.6802233" lon="12.530995"><ele>338.0</ele><time>2026-04-06T09:37:11Z</time></trkpt><trkpt lat="43.6803017" lon="12.531"><ele>338.0</ele><time>2026-04-06T09:37:12Z</time></trkpt><trkpt lat="43.6803833" lon="12.5309633"><ele>338.0</ele><time>2026-04-06T09:37:13Z</time></trkpt><trkpt lat="43.6804483" lon="12.5308633"><ele>338.0</ele><time>2026-04-06T09:37:14Z</time></trkpt><trkpt lat="43.6804983" lon="12.53071"><ele>342.33333333333337</ele><time>2026-04-06T09:37:15Z</time></trkpt><trkpt lat="43.6805233" lon="12.5305017"><ele>346.6666666666667</ele><time>2026-04-06T09:37:16Z</time></trkpt><trkpt lat="43.6805033" lon="12.5302367"><ele>351.0</ele><time>2026-04-06T09:37:17Z</time></trkpt><trkpt lat="43.68046" lon="12.5299883"><ele>352.0</ele><time>2026-04-06T09:37:18Z</time></trkpt><trkpt lat="43.6804233" lon="12.5297483"><ele>353.0</ele><time>2026-04-06T09:37:19Z</time></trkpt><trkpt lat="43.6803683" lon="12.5295283"><ele>354.0</ele><time>2026-04-06T09:37:20Z</time></trkpt><trkpt lat="43.68031" lon="12.52932"><ele>353.25</ele><time>2026-04-06T09:37:21Z</time></trkpt><trkpt lat="43.6802517" lon="12.5291383"><ele>352.5</ele><time>2026-04-06T09:37:22Z</time></trkpt><trkpt lat="43.6801883" lon="12.5289567"><ele>351.75</ele><time>2026-04-06T09:37:23Z</time></trkpt><trkpt lat="43.6801117" lon="12.5288083"><ele>351.0</ele><time>2026-04-06T09:37:24Z</time></trkpt><trkpt lat="43.6800333" lon="12.5286917"><ele>351.0</ele><time>2026-04-06T09:37:25Z</time></trkpt><trkpt lat="43.67999" lon="12.52859"><ele>351.0</ele><time>2026-04-06T09:37:26Z</time></trkpt><trkpt lat="43.6799833" lon="12.5284933"><ele>351.0</ele><time>2026-04-06T09:37:27Z</time></trkpt><trkpt lat="43.6800583" lon="12.528405"><ele>351.0</ele><time>2026-04-06T09:37:29Z</time></trkpt><trkpt lat="43.68012" lon="12.5284383"><ele>351.0</ele><time>2026-04-06T09:37:30Z</time></trkpt><trkpt lat="43.680195" lon="12.5285217"><ele>351.0</ele><time>2026-04-06T09:37:31Z</time></trkpt><trkpt lat="43.6802833" lon="12.5286767"><ele>356.6666666666667</ele><time>2026-04-06T09:37:32Z</time></trkpt><trkpt lat="43.68038" lon="12.5289017"><ele>362.33333333333337</ele><time>2026-04-06T09:37:33Z</time></trkpt><trkpt lat="43.6804867" lon="12.5291733"><ele>368.0</ele><time>2026-04-06T09:37:34Z</time></trkpt><trkpt lat="43.68057" lon="12.529405"><ele>364.5</ele><time>2026-04-06T09:37:35Z</time></trkpt><trkpt lat="43.6806433" lon="12.5295817"><ele>361.0</ele><time>2026-04-06T09:37:36Z</time></trkpt><trkpt lat="43.6807133" lon="12.52971"><ele>357.5</ele><time>2026-04-06T09:37:37Z</time></trkpt><trkpt lat="43.680795" lon="12.5297817"><ele>354.0</ele><time>2026-04-06T09:37:38Z</time></trkpt><trkpt lat="43.6808983" lon="12.5298117"><ele>354.0</ele><time>2026-04-06T09:37:39Z</time></trkpt><trkpt lat="43.6810233" lon="12.5297767"><ele>354.0</ele><time>2026-04-06T09:37:40Z</time></trkpt><trkpt lat="43.6811683" lon="12.529695"><ele>354.0</ele><time>2026-04-06T09:37:41Z</time></trkpt><trkpt lat="43.6813467" lon="12.529555"><ele>362.3333333333333</ele><time>2026-04-06T09:37:42Z</time></trkpt><trkpt lat="43.681535" lon="12.5294233"><ele>370.66666666666663</ele><time>2026-04-06T09:37:43Z</time></trkpt><trkpt lat="43.6817167" lon="12.529295"><ele>379.0</ele><time>2026-04-06T09:37:44Z</time></trkpt><trkpt lat="43.6818933" lon="12.5292567"><ele>380.25</ele><time>2026-04-06T09:37:45Z</time></trkpt><trkpt lat="43.68205" lon="12.52926"><ele>381.5</ele><time>2026-04-06T09:37:46Z</time></trkpt><trkpt lat="43.682195" lon="12.5292833"><ele>382.75</ele><time>2026-04-06T09:37:47Z</time></trkpt><trkpt lat="43.682315" lon="12.529345"><ele>384.0</ele><time>2026-04-06T09:37:48Z</time></trkpt><trkpt lat="43.68239" lon="12.529475"><ele>383.0</ele><time>2026-04-06T09:37:49Z</time></trkpt><trkpt lat="43.6824483" lon="12.5296067"><ele>382.0</ele><time>2026-04-06T09:37:50Z</time></trkpt><trkpt lat="43.682445" lon="12.529775"><ele>381.0</ele><time>2026-04-06T09:37:51Z</time></trkpt><trkpt lat="43.6824617" lon="12.52991"><ele>380.0</ele><time>2026-04-06T09:37:52Z</time></trkpt><trkpt lat="43.6824833" lon="12.53002"><ele>379.0</ele><time>2026-04-06T09:37:53Z</time></trkpt><trkpt lat="43.6825767" lon="12.5301117"><ele>379.0</ele><time>2026-04-06T09:37:55Z</time></trkpt><trkpt lat="43.682685" lon="12.5299767"><ele>379.0</ele><time>2026-04-06T09:37:57Z</time></trkpt><trkpt lat="43.6827117" lon="12.5298317"><ele>379.0</ele><time>2026-04-06T09:37:58Z</time></trkpt><trkpt lat="43.6827083" lon="12.5296667"><ele>379.0</ele><time>2026-04-06T09:37:59Z</time></trkpt><trkpt lat="43.6826667" lon="12.5295217"><ele>380.66666666666663</ele><time>2026-04-06T09:38:00Z</time></trkpt><trkpt lat="43.6825967" lon="12.5293817"><ele>382.3333333333333</ele><time>2026-04-06T09:38:01Z</time></trkpt><trkpt lat="43.6824817" lon="12.52923"><ele>384.0</ele><time>2026-04-06T09:38:02Z</time></trkpt><trkpt lat="43.6823233" lon="12.5290867"><ele>384.0</ele><time>2026-04-06T09:38:03Z</time></trkpt><trkpt lat="43.6822067" lon="12.5289533"><ele>384.0</ele><time>2026-04-06T09:38:04Z</time></trkpt><trkpt lat="43.68216" lon="12.528835"><ele>384.0</ele><time>2026-04-06T09:38:05Z</time></trkpt><trkpt lat="43.68215" lon="12.528735"><ele>384.0</ele><time>2026-04-06T09:38:06Z</time></trkpt><trkpt lat="43.6822017" lon="12.5286633"><ele>384.0</ele><time>2026-04-06T09:38:08Z</time></trkpt><trkpt lat="43.6822617" lon="12.5287017"><ele>384.0</ele><time>2026-04-06T09:38:09Z</time></trkpt><trkpt lat="43.6823717" lon="12.5288033"><ele>384.0</ele><time>2026-04-06T09:38:10Z</time></trkpt><trkpt lat="43.6825183" lon="12.5289667"><ele>384.0</ele><time>2026-04-06T09:38:11Z</time></trkpt><trkpt lat="43.68266" lon="12.5291717"><ele>384.0</ele><time>2026-04-06T09:38:12Z</time></trkpt><trkpt lat="43.6827633" lon="12.5293917"><ele>384.0</ele><time>2026-04-06T09:38:13Z</time></trkpt><trkpt lat="43.6828533" lon="12.529595"><ele>384.0</ele><time>2026-04-06T09:38:14Z</time></trkpt><trkpt lat="43.6829483" lon="12.529775"><ele>389.0</ele><time>2026-04-06T09:38:15Z</time></trkpt><trkpt lat="43.6830083" lon="12.5299367"><ele>394.0</ele><time>2026-04-06T09:38:16Z</time></trkpt><trkpt lat="43.68304" lon="12.53009"><ele>399.0</ele><time>2026-04-06T09:38:17Z</time></trkpt><trkpt lat="43.6830367" lon="12.5302467"><ele>404.0</ele><time>2026-04-06T09:38:18Z</time></trkpt><trkpt lat="43.6829883" lon="12.53041"><ele>406.25</ele><time>2026-04-06T09:38:19Z</time></trkpt><trkpt lat="43.6829017" lon="12.5305383"><ele>408.5</ele><time>2026-04-06T09:38:20Z</time></trkpt><trkpt lat="43.682795" lon="12.5306167"><ele>410.75</ele><time>2026-04-06T09:38:21Z</time></trkpt><trkpt lat="43.6826683" lon="12.530685"><ele>413.0</ele><time>2026-04-06T09:38:22Z</time></trkpt><trkpt lat="43.6825317" lon="12.53075"><ele>405.3333333333333</ele><time>2026-04-06T09:38:23Z</time></trkpt><trkpt lat="43.6823983" lon="12.5308467"><ele>397.66666666666663</ele><time>2026-04-06T09:38:24Z</time></trkpt><trkpt lat="43.6822817" lon="12.530985"><ele>390.0</ele><time>2026-04-06T09:38:25Z</time></trkpt><trkpt lat="43.6821817" lon="12.5311567"><ele>395.66666666666663</ele><time>2026-04-06T09:38:26Z</time></trkpt><trkpt lat="43.682105" lon="12.53136"><ele>401.3333333333333</ele><time>2026-04-06T09:38:27Z</time></trkpt><trkpt lat="43.6820417" lon="12.531555"><ele>407.0</ele><time>2026-04-06T09:38:28Z</time></trkpt><trkpt lat="43.68199" lon="12.5317467"><ele>407.0</ele><time>2026-04-06T09:38:29Z</time></trkpt><trkpt lat="43.6819583" lon="12.5319217"><ele>407.0</ele><time>2026-04-06T09:38:29.999Z</time></trkpt><trkpt lat="43.6819617" lon="12.5321"><ele>407.0</ele><time>2026-04-06T09:38:31Z</time></trkpt><trkpt lat="43.6820017" lon="12.5322917"><ele>407.0</ele><time>2026-04-06T09:38:32Z</time></trkpt><trkpt lat="43.6820583" lon="12.532495"><ele>409.66666666666663</ele><time>2026-04-06T09:38:33Z</time></trkpt><trkpt lat="43.6821017" lon="12.53271"><ele>412.33333333333337</ele><time>2026-04-06T09:38:34Z</time></trkpt><trkpt lat="43.68211" lon="12.5329433"><ele>415.0</ele><time>2026-04-06T09:38:35Z</time></trkpt><trkpt lat="43.6820967" lon="12.5331617"><ele>415.0</ele><time>2026-04-06T09:38:36Z</time></trkpt><trkpt lat="43.6820883" lon="12.5333617"><ele>415.0</ele><time>2026-04-06T09:38:37Z</time></trkpt><trkpt lat="43.682085" lon="12.53353"><ele>415.0</ele><time>2026-04-06T09:38:38Z</time></trkpt><trkpt lat="43.6820983" lon="12.5336867"><ele>415.0</ele><time>2026-04-06T09:38:39Z</time></trkpt><trkpt lat="43.6821367" lon="12.5338017"><ele>412.75</ele><time>2026-04-06T09:38:40Z</time></trkpt><trkpt lat="43.682195" lon="12.53389"><ele>410.5</ele><time>2026-04-06T09:38:41Z</time></trkpt><trkpt lat="43.6823067" lon="12.5339433"><ele>408.25</ele><time>2026-04-06T09:38:42Z</time></trkpt><trkpt lat="43.6824617" lon="12.5339933"><ele>406.0</ele><time>2026-04-06T09:38:43Z</time></trkpt><trkpt lat="43.682605" lon="12.5340883"><ele>406.0</ele><time>2026-04-06T09:38:44Z</time></trkpt><trkpt lat="43.6827383" lon="12.5342117"><ele>406.0</ele><time>2026-04-06T09:38:45Z</time></trkpt><trkpt lat="43.6827917" lon="12.5343767"><ele>406.0</ele><time>2026-04-06T09:38:46Z</time></trkpt><trkpt lat="43.6827833" lon="12.534555"><ele>406.0</ele><time>2026-04-06T09:38:47Z</time></trkpt><trkpt lat="43.6827167" lon="12.5347367"><ele>406.5</ele><time>2026-04-06T09:38:48Z</time></trkpt><trkpt lat="43.68262" lon="12.534875"><ele>407.0</ele><time>2026-04-06T09:38:49Z</time></trkpt><trkpt lat="43.6825" lon="12.5349367"><ele>407.5</ele><time>2026-04-06T09:38:50Z</time></trkpt><trkpt lat="43.6823583" lon="12.5349567"><ele>408.0</ele><time>2026-04-06T09:38:51Z</time></trkpt><trkpt lat="43.6821917" lon="12.53495"><ele>408.0</ele><time>2026-04-06T09:38:52Z</time></trkpt><trkpt lat="43.6820283" lon="12.5349417"><ele>408.0</ele><time>2026-04-06T09:38:53Z</time></trkpt><trkpt lat="43.681885" lon="12.5349183"><ele>408.0</ele><time>2026-04-06T09:38:54Z</time></trkpt><trkpt lat="43.6817633" lon="12.534895"><ele>408.0</ele><time>2026-04-06T09:38:55Z</time></trkpt><trkpt lat="43.6816633" lon="12.534885"><ele>409.2</ele><time>2026-04-06T09:38:55.999Z</time></trkpt><trkpt lat="43.68158" lon="12.53492"><ele>410.4</ele><time>2026-04-06T09:38:56.999Z</time></trkpt><trkpt lat="43.68152" lon="12.5349667"><ele>411.59999999999997</ele><time>2026-04-06T09:38:57.999Z</time></trkpt><trkpt lat="43.6815167" lon="12.5351067"><ele>412.79999999999995</ele><time>2026-04-06T09:38:59.999Z</time></trkpt><trkpt lat="43.6815917" lon="12.535175"><ele>414.0</ele><time>2026-04-06T09:39:00.999Z</time></trkpt><trkpt lat="43.68171" lon="12.5352533"><ele>414.0</ele><time>2026-04-06T09:39:01.999Z</time></trkpt><trkpt lat="43.6818917" lon="12.5353333"><ele>414.0</ele><time>2026-04-06T09:39:02.999Z</time></trkpt><trkpt lat="43.6820933" lon="12.5354283"><ele>414.0</ele><time>2026-04-06T09:39:03.999Z</time></trkpt><trkpt lat="43.6822383" lon="12.5355317"><ele>415.5</ele><time>2026-04-06T09:39:04.999Z</time></trkpt><trkpt lat="43.6823067" lon="12.5356583"><ele>417.0</ele><time>2026-04-06T09:39:05.999Z</time></trkpt><trkpt lat="43.6823117" lon="12.5358083"><ele>418.5</ele><time>2026-04-06T09:39:06.999Z</time></trkpt><trkpt lat="43.6822617" lon="12.5359633"><ele>420.0</ele><time>2026-04-06T09:39:07.999Z</time></trkpt><trkpt lat="43.6821617" lon="12.5361083"><ele>420.0</ele><time>2026-04-06T09:39:08.999Z</time></trkpt><trkpt lat="43.6820617" lon="12.5362"><ele>420.0</ele><time>2026-04-06T09:39:09.999Z</time></trkpt><trkpt lat="43.6819783" lon="12.536285"><ele>420.0</ele><time>2026-04-06T09:39:10.999Z</time></trkpt><trkpt lat="43.6819283" lon="12.5363833"><ele>420.0</ele><time>2026-04-06T09:39:11.999Z</time></trkpt><trkpt lat="43.681905" lon="12.53649"><ele>420.0</ele><time>2026-04-06T09:39:12.999Z</time></trkpt><trkpt lat="43.68191" lon="12.536595"><ele>422.75</ele><time>2026-04-06T09:39:13.999Z</time></trkpt><trkpt lat="43.6819667" lon="12.5366683"><ele>425.5</ele><time>2026-04-06T09:39:14.999Z</time></trkpt><trkpt lat="43.6820683" lon="12.53672"><ele>428.25</ele><time>2026-04-06T09:39:15.999Z</time></trkpt><trkpt lat="43.6822133" lon="12.5367533"><ele>431.0</ele><time>2026-04-06T09:39:16.999Z</time></trkpt><trkpt lat="43.6824033" lon="12.5367767"><ele>431.0</ele><time>2026-04-06T09:39:17.999Z</time></trkpt><trkpt lat="43.6826" lon="12.536825"><ele>431.0</ele><time>2026-04-06T09:39:18.999Z</time></trkpt><trkpt lat="43.6827533" lon="12.5369183"><ele>431.0</ele><time>2026-04-06T09:39:19.999Z</time></trkpt><trkpt lat="43.6828583" lon="12.53707"><ele>429.66666666666663</ele><time>2026-04-06T09:39:20.999Z</time></trkpt><trkpt lat="43.682955" lon="12.5372333"><ele>428.33333333333337</ele><time>2026-04-06T09:39:21.999Z</time></trkpt><trkpt lat="43.683045" lon="12.5374083"><ele>427.0</ele><time>2026-04-06T09:39:22.999Z</time></trkpt><trkpt lat="43.6831233" lon="12.5375883"><ele>427.0</ele><time>2026-04-06T09:39:23.999Z</time></trkpt><trkpt lat="43.6831933" lon="12.537755"><ele>427.0</ele><time>2026-04-06T09:39:24.999Z</time></trkpt><trkpt lat="43.68323" lon="12.5379217"><ele>427.0</ele><time>2026-04-06T09:39:25.999Z</time></trkpt><trkpt lat="43.6832683" lon="12.53806"><ele>427.0</ele><time>2026-04-06T09:39:26.999Z</time></trkpt><trkpt lat="43.6833067" lon="12.5382117"><ele>429.5</ele><time>2026-04-06T09:39:27.999Z</time></trkpt><trkpt lat="43.68333" lon="12.5383883"><ele>432.0</ele><time>2026-04-06T09:39:28.999Z</time></trkpt><trkpt lat="43.6833433" lon="12.5385767"><ele>434.5</ele><time>2026-04-06T09:39:29.999Z</time></trkpt><trkpt lat="43.6833633" lon="12.538745"><ele>437.0</ele><time>2026-04-06T09:39:30.999Z</time></trkpt><trkpt lat="43.6834017" lon="12.5389083"><ele>436.0</ele><time>2026-04-06T09:39:31.999Z</time></trkpt><trkpt lat="43.6834683" lon="12.5390317"><ele>435.0</ele><time>2026-04-06T09:39:32.999Z</time></trkpt><trkpt lat="43.683585" lon="12.5391133"><ele>434.0</ele><time>2026-04-06T09:39:33.999Z</time></trkpt><trkpt lat="43.683725" lon="12.5391817"><ele>433.0</ele><time>2026-04-06T09:39:34.999Z</time></trkpt><trkpt lat="43.68385" lon="12.5392833"><ele>433.0</ele><time>2026-04-06T09:39:35.999Z</time></trkpt><trkpt lat="43.68396" lon="12.53941"><ele>433.0</ele><time>2026-04-06T09:39:36.999Z</time></trkpt><trkpt lat="43.684035" lon="12.53958"><ele>433.0</ele><time>2026-04-06T09:39:37.998Z</time></trkpt><trkpt lat="43.6840817" lon="12.539775"><ele>433.0</ele><time>2026-04-06T09:39:38.999Z</time></trkpt><trkpt lat="43.6841283" lon="12.5399767"><ele>434.75</ele><time>2026-04-06T09:39:39.999Z</time></trkpt><trkpt lat="43.684175" lon="12.54018"><ele>436.5</ele><time>2026-04-06T09:39:40.999Z</time></trkpt><trkpt lat="43.684225" lon="12.54038"><ele>438.25</ele><time>2026-04-06T09:39:41.999Z</time></trkpt><trkpt lat="43.68428" lon="12.5405567"><ele>440.0</ele><time>2026-04-06T09:39:42.999Z</time></trkpt><trkpt lat="43.6843483" lon="12.5407217"><ele>439.5</ele><time>2026-04-06T09:39:43.999Z</time></trkpt><trkpt lat="43.68443" lon="12.5408567"><ele>439.0</ele><time>2026-04-06T09:39:44.999Z</time></trkpt><trkpt lat="43.6845383" lon="12.5409833"><ele>438.5</ele><time>2026-04-06T09:39:45.999Z</time></trkpt><trkpt lat="43.6846417" lon="12.5411233"><ele>438.0</ele><time>2026-04-06T09:39:46.999Z</time></trkpt><trkpt lat="43.6847517" lon="12.54126"><ele>439.25</ele><time>2026-04-06T09:39:47.999Z</time></trkpt><trkpt lat="43.6848617" lon="12.541385"><ele>440.5</ele><time>2026-04-06T09:39:48.999Z</time></trkpt><trkpt lat="43.68498" lon="12.5415017"><ele>441.75</ele><time>2026-04-06T09:39:49.999Z</time></trkpt><trkpt lat="43.6851217" lon="12.54159"><ele>443.0</ele><time>2026-04-06T09:39:50.999Z</time></trkpt><trkpt lat="43.68527" lon="12.5416617"><ele>443.0</ele><time>2026-04-06T09:39:51.999Z</time></trkpt><trkpt lat="43.685435" lon="12.54172"><ele>443.0</ele><time>2026-04-06T09:39:52.999Z</time></trkpt><trkpt lat="43.6856017" lon="12.5417733"><ele>443.0</ele><time>2026-04-06T09:39:53.999Z</time></trkpt><trkpt lat="43.68577" lon="12.541835"><ele>443.0</ele><time>2026-04-06T09:39:54.999Z</time></trkpt><trkpt lat="43.6859383" lon="12.541895"><ele>443.0</ele><time>2026-04-06T09:39:55.999Z</time></trkpt><trkpt lat="43.686105" lon="12.5419667"><ele>443.0</ele><time>2026-04-06T09:39:56.999Z</time></trkpt><trkpt lat="43.686255" lon="12.5420517"><ele>443.66666666666663</ele><time>2026-04-06T09:39:57.999Z</time></trkpt><trkpt lat="43.686385" lon="12.5421767"><ele>444.33333333333337</ele><time>2026-04-06T09:39:58.999Z</time></trkpt><trkpt lat="43.6865133" lon="12.5423133"><ele>445.0</ele><time>2026-04-06T09:39:59.999Z</time></trkpt><trkpt lat="43.6866333" lon="12.542455"><ele>445.0</ele><time>2026-04-06T09:40:00.999Z</time></trkpt><trkpt lat="43.686755" lon="12.5426"><ele>445.0</ele><time>2026-04-06T09:40:01.999Z</time></trkpt><trkpt lat="43.68687" lon="12.5427383"><ele>445.0</ele><time>2026-04-06T09:40:02.999Z</time></trkpt><trkpt lat="43.6869817" lon="12.5428533"><ele>441.75</ele><time>2026-04-06T09:40:03.999Z</time></trkpt><trkpt lat="43.6871" lon="12.5429267"><ele>438.5</ele><time>2026-04-06T09:40:04.999Z</time></trkpt><trkpt lat="43.6872133" lon="12.5429767"><ele>435.25</ele><time>2026-04-06T09:40:05.999Z</time></trkpt><trkpt lat="43.687335" lon="12.5429517"><ele>432.0</ele><time>2026-04-06T09:40:06.999Z</time></trkpt><trkpt lat="43.6874667" lon="12.5428967"><ele>434.0</ele><time>2026-04-06T09:40:07.999Z</time></trkpt><trkpt lat="43.6876083" lon="12.5428233"><ele>436.0</ele><time>2026-04-06T09:40:08.999Z</time></trkpt><trkpt lat="43.68775" lon="12.542745"><ele>438.0</ele><time>2026-04-06T09:40:09.999Z</time></trkpt><trkpt lat="43.687905" lon="12.5426867"><ele>438.0</ele><time>2026-04-06T09:40:10.999Z</time></trkpt><trkpt lat="43.6880567" lon="12.5426783"><ele>438.0</ele><time>2026-04-06T09:40:11.999Z</time></trkpt><trkpt lat="43.6882167" lon="12.5427333"><ele>438.0</ele><time>2026-04-06T09:40:12.999Z</time></trkpt><trkpt lat="43.688365" lon="12.542825"><ele>434.0</ele><time>2026-04-06T09:40:13.999Z</time></trkpt><trkpt lat="43.6885217" lon="12.542915"><ele>430.0</ele><time>2026-04-06T09:40:14.999Z</time></trkpt><trkpt lat="43.68869" lon="12.542995"><ele>426.0</ele><time>2026-04-06T09:40:15.999Z</time></trkpt><trkpt lat="43.68885" lon="12.54307"><ele>426.0</ele><time>2026-04-06T09:40:16.999Z</time></trkpt><trkpt lat="43.6890133" lon="12.54314"><ele>426.0</ele><time>2026-04-06T09:40:17.999Z</time></trkpt><trkpt lat="43.6891633" lon="12.5432083"><ele>426.0</ele><time>2026-04-06T09:40:18.999Z</time></trkpt><trkpt lat="43.6893183" lon="12.5432817"><ele>424.66666666666663</ele><time>2026-04-06T09:40:19.999Z</time></trkpt><trkpt lat="43.68947" lon="12.5433683"><ele>423.3333333333333</ele><time>2026-04-06T09:40:20.999Z</time></trkpt><trkpt lat="43.6896117" lon="12.54349"><ele>422.0</ele><time>2026-04-06T09:40:21.999Z</time></trkpt><trkpt lat="43.68975" lon="12.54364"><ele>424.3333333333333</ele><time>2026-04-06T09:40:22.999Z</time></trkpt><trkpt lat="43.6898867" lon="12.5438167"><ele>426.66666666666663</ele><time>2026-04-06T09:40:23.999Z</time></trkpt><trkpt lat="43.69001" lon="12.5440017"><ele>429.0</ele><time>2026-04-06T09:40:24.999Z</time></trkpt><trkpt lat="43.6901283" lon="12.544195"><ele>429.0</ele><time>2026-04-06T09:40:25.999Z</time></trkpt><trkpt lat="43.6902367" lon="12.5443917"><ele>429.0</ele><time>2026-04-06T09:40:26.999Z</time></trkpt><trkpt lat="43.6903417" lon="12.54459"><ele>429.0</ele><time>2026-04-06T09:40:27.999Z</time></trkpt><trkpt lat="43.6904233" lon="12.5448"><ele>432.33333333333337</ele><time>2026-04-06T09:40:28.999Z</time></trkpt><trkpt lat="43.6904783" lon="12.54502"><ele>435.6666666666667</ele><time>2026-04-06T09:40:29.999Z</time></trkpt><trkpt lat="43.6905133" lon="12.54523"><ele>439.0</ele><time>2026-04-06T09:40:30.999Z</time></trkpt><trkpt lat="43.6905283" lon="12.5454533"><ele>440.6666666666667</ele><time>2026-04-06T09:40:31.999Z</time></trkpt><trkpt lat="43.6905467" lon="12.545675"><ele>442.33333333333337</ele><time>2026-04-06T09:40:32.999Z</time></trkpt><trkpt lat="43.6905883" lon="12.545875"><ele>444.0</ele><time>2026-04-06T09:40:33.999Z</time></trkpt><trkpt lat="43.69065" lon="12.54606"><ele>441.5</ele><time>2026-04-06T09:40:34.999Z</time></trkpt><trkpt lat="43.6907517" lon="12.54622"><ele>439.0</ele><time>2026-04-06T09:40:35.999Z</time></trkpt><trkpt lat="43.69086" lon="12.5463683"><ele>436.5</ele><time>2026-04-06T09:40:36.999Z</time></trkpt><trkpt lat="43.6909383" lon="12.5465317"><ele>434.0</ele><time>2026-04-06T09:40:37.999Z</time></trkpt><trkpt lat="43.6909617" lon="12.54672"><ele>434.0</ele><time>2026-04-06T09:40:38.999Z</time></trkpt><trkpt lat="43.69099" lon="12.5469217"><ele>434.0</ele><time>2026-04-06T09:40:39.999Z</time></trkpt><trkpt lat="43.6910367" lon="12.5471083"><ele>434.0</ele><time>2026-04-06T09:40:40.999Z</time></trkpt><trkpt lat="43.6911067" lon="12.5472667"><ele>434.0</ele><time>2026-04-06T09:40:41.998Z</time></trkpt><trkpt lat="43.6911617" lon="12.54743"><ele>435.5</ele><time>2026-04-06T09:40:42.999Z</time></trkpt><trkpt lat="43.6911683" lon="12.5475967"><ele>437.0</ele><time>2026-04-06T09:40:43.999Z</time></trkpt><trkpt lat="43.691125" lon="12.5477417"><ele>438.5</ele><time>2026-04-06T09:40:44.999Z</time></trkpt><trkpt lat="43.6910417" lon="12.5478883"><ele>440.0</ele><time>2026-04-06T09:40:45.999Z</time></trkpt><trkpt lat="43.6909167" lon="12.5480083"><ele>440.0</ele><time>2026-04-06T09:40:46.999Z</time></trkpt><trkpt lat="43.6907783" lon="12.5481"><ele>440.0</ele><time>2026-04-06T09:40:47.999Z</time></trkpt><trkpt lat="43.6906333" lon="12.5481983"><ele>440.0</ele><time>2026-04-06T09:40:48.999Z</time></trkpt><trkpt lat="43.6905017" lon="12.54832"><ele>440.0</ele><time>2026-04-06T09:40:49.999Z</time></trkpt><trkpt lat="43.6903867" lon="12.5484667"><ele>440.0</ele><time>2026-04-06T09:40:50.999Z</time></trkpt><trkpt lat="43.6902983" lon="12.5486283"><ele>440.0</ele><time>2026-04-06T09:40:51.999Z</time></trkpt><trkpt lat="43.6902267" lon="12.54879"><ele>440.0</ele><time>2026-04-06T09:40:52.999Z</time></trkpt><trkpt lat="43.6901833" lon="12.5489433"><ele>441.2</ele><time>2026-04-06T09:40:53.999Z</time></trkpt><trkpt lat="43.6901583" lon="12.5490867"><ele>442.4</ele><time>2026-04-06T09:40:54.999Z</time></trkpt><trkpt lat="43.6901683" lon="12.5492183"><ele>443.6</ele><time>2026-04-06T09:40:55.999Z</time></trkpt><trkpt lat="43.6902017" lon="12.5493383"><ele>444.8</ele><time>2026-04-06T09:40:56.999Z</time></trkpt><trkpt lat="43.69027" lon="12.5494267"><ele>446.0</ele><time>2026-04-06T09:40:57.999Z</time></trkpt><trkpt lat="43.690385" lon="12.5494683"><ele>446.0</ele><time>2026-04-06T09:40:58.999Z</time></trkpt><trkpt lat="43.690555" lon="12.5494817"><ele>446.0</ele><time>2026-04-06T09:40:59.999Z</time></trkpt><trkpt lat="43.6907383" lon="12.5495033"><ele>446.0</ele><time>2026-04-06T09:41:00.999Z</time></trkpt><trkpt lat="43.6909233" lon="12.5495233"><ele>441.0</ele><time>2026-04-06T09:41:01.999Z</time></trkpt><trkpt lat="43.6911033" lon="12.5495533"><ele>436.0</ele><time>2026-04-06T09:41:02.999Z</time></trkpt><trkpt lat="43.691275" lon="12.5495783"><ele>431.0</ele><time>2026-04-06T09:41:03.999Z</time></trkpt><trkpt lat="43.6914533" lon="12.54958"><ele>431.0</ele><time>2026-04-06T09:41:04.999Z</time></trkpt><trkpt lat="43.69162" lon="12.54958"><ele>431.0</ele><time>2026-04-06T09:41:05.999Z</time></trkpt><trkpt lat="43.6917717" lon="12.5495817"><ele>431.0</ele><time>2026-04-06T09:41:06.999Z</time></trkpt><trkpt lat="43.6919283" lon="12.5495767"><ele>434.3333333333333</ele><time>2026-04-06T09:41:07.999Z</time></trkpt><trkpt lat="43.6920817" lon="12.5495567"><ele>437.66666666666663</ele><time>2026-04-06T09:41:08.999Z</time></trkpt><trkpt lat="43.6922417" lon="12.5495033"><ele>441.0</ele><time>2026-04-06T09:41:09.999Z</time></trkpt><trkpt lat="43.6924033" lon="12.549425"><ele>441.0</ele><time>2026-04-06T09:41:10.999Z</time></trkpt><trkpt lat="43.6925667" lon="12.5493133"><ele>441.0</ele><time>2026-04-06T09:41:11.999Z</time></trkpt><trkpt lat="43.6927233" lon="12.5492083"><ele>441.0</ele><time>2026-04-06T09:41:12.999Z</time></trkpt><trkpt lat="43.6928967" lon="12.54912"><ele>436.33333333333337</ele><time>2026-04-06T09:41:13.999Z</time></trkpt><trkpt lat="43.6930633" lon="12.549045"><ele>431.6666666666667</ele><time>2026-04-06T09:41:14.999Z</time></trkpt><trkpt lat="43.693225" lon="12.5489717"><ele>427.0</ele><time>2026-04-06T09:41:15.999Z</time></trkpt><trkpt lat="43.6933917" lon="12.5489083"><ele>427.0</ele><time>2026-04-06T09:41:16.999Z</time></trkpt><trkpt lat="43.6935567" lon="12.5488367"><ele>427.0</ele><time>2026-04-06T09:41:17.999Z</time></trkpt><trkpt lat="43.69372" lon="12.5487717"><ele>427.0</ele><time>2026-04-06T09:41:18.999Z</time></trkpt><trkpt lat="43.69388" lon="12.5487167"><ele>429.6666666666667</ele><time>2026-04-06T09:41:19.999Z</time></trkpt><trkpt lat="43.6940383" lon="12.5486683"><ele>432.33333333333337</ele><time>2026-04-06T09:41:20.999Z</time></trkpt><trkpt lat="43.694195" lon="12.5486333"><ele>435.0</ele><time>2026-04-06T09:41:21.999Z</time></trkpt><trkpt lat="43.694355" lon="12.54864"><ele>431.66666666666663</ele><time>2026-04-06T09:41:22.999Z</time></trkpt><trkpt lat="43.69451" lon="12.5487"><ele>428.3333333333333</ele><time>2026-04-06T09:41:23.999Z</time></trkpt><trkpt lat="43.694675" lon="12.5488133"><ele>425.0</ele><time>2026-04-06T09:41:24.999Z</time></trkpt><trkpt lat="43.6948217" lon="12.5489367"><ele>424.0</ele><time>2026-04-06T09:41:25.999Z</time></trkpt><trkpt lat="43.6949667" lon="12.549085"><ele>423.0</ele><time>2026-04-06T09:41:26.999Z</time></trkpt><trkpt lat="43.6950933" lon="12.54926"><ele>422.0</ele><time>2026-04-06T09:41:27.999Z</time></trkpt><trkpt lat="43.6952167" lon="12.5494417"><ele>425.66666666666663</ele><time>2026-04-06T09:41:28.999Z</time></trkpt><trkpt lat="43.6953233" lon="12.5496433"><ele>429.33333333333337</ele><time>2026-04-06T09:41:29.999Z</time></trkpt><trkpt lat="43.6954317" lon="12.549825"><ele>433.0</ele><time>2026-04-06T09:41:30.999Z</time></trkpt><trkpt lat="43.69552" lon="12.5499967"><ele>433.0</ele><time>2026-04-06T09:41:31.999Z</time></trkpt><trkpt lat="43.69558" lon="12.55019"><ele>433.0</ele><time>2026-04-06T09:41:32.999Z</time></trkpt><trkpt lat="43.695625" lon="12.5503683"><ele>433.0</ele><time>2026-04-06T09:41:33.999Z</time></trkpt><trkpt lat="43.6956617" lon="12.55054"><ele>433.0</ele><time>2026-04-06T09:41:34.999Z</time></trkpt><trkpt lat="43.6957067" lon="12.550695"><ele>431.25</ele><time>2026-04-06T09:41:35.999Z</time></trkpt><trkpt lat="43.69577" lon="12.55083"><ele>429.5</ele><time>2026-04-06T09:41:36.999Z</time></trkpt><trkpt lat="43.69586" lon="12.55095"><ele>427.75</ele><time>2026-04-06T09:41:37.999Z</time></trkpt><trkpt lat="43.695955" lon="12.5510617"><ele>426.0</ele><time>2026-04-06T09:41:38.999Z</time></trkpt><trkpt lat="43.6960667" lon="12.5511967"><ele>427.0</ele><time>2026-04-06T09:41:39.999Z</time></trkpt><trkpt lat="43.6961533" lon="12.551355"><ele>428.0</ele><time>2026-04-06T09:41:40.999Z</time></trkpt><trkpt lat="43.696205" lon="12.5515233"><ele>429.0</ele><time>2026-04-06T09:41:41.999Z</time></trkpt><trkpt lat="43.696215" lon="12.55171"><ele>430.0</ele><time>2026-04-06T09:41:42.999Z</time></trkpt><trkpt lat="43.6961933" lon="12.551895"><ele>429.0</ele><time>2026-04-06T09:41:43.999Z</time></trkpt><trkpt lat="43.6961433" lon="12.5520817"><ele>428.0</ele><time>2026-04-06T09:41:44.999Z</time></trkpt><trkpt lat="43.6960617" lon="12.552265"><ele>427.0</ele><time>2026-04-06T09:41:45.999Z</time></trkpt><trkpt lat="43.6959567" lon="12.55244"><ele>426.33333333333337</ele><time>2026-04-06T09:41:46.999Z</time></trkpt><trkpt lat="43.6958467" lon="12.552605"><ele>425.66666666666663</ele><time>2026-04-06T09:41:47.999Z</time></trkpt><trkpt lat="43.6957367" lon="12.5527917"><ele>425.0</ele><time>2026-04-06T09:41:48.999Z</time></trkpt><trkpt lat="43.6956433" lon="12.5529717"><ele>431.0</ele><time>2026-04-06T09:41:49.999Z</time></trkpt><trkpt lat="43.6955517" lon="12.5531733"><ele>437.0</ele><time>2026-04-06T09:41:50.998Z</time></trkpt><trkpt lat="43.6954667" lon="12.5533783"><ele>443.0</ele><time>2026-04-06T09:41:51.999Z</time></trkpt><trkpt lat="43.6953917" lon="12.553585"><ele>443.3333333333333</ele><time>2026-04-06T09:41:52.999Z</time></trkpt><trkpt lat="43.6953317" lon="12.5537833"><ele>443.66666666666663</ele><time>2026-04-06T09:41:53.999Z</time></trkpt><trkpt lat="43.6952867" lon="12.5539833"><ele>444.0</ele><time>2026-04-06T09:41:54.998Z</time></trkpt><trkpt lat="43.695265" lon="12.5541883"><ele>444.0</ele><time>2026-04-06T09:41:55.999Z</time></trkpt><trkpt lat="43.6952683" lon="12.5543967"><ele>444.0</ele><time>2026-04-06T09:41:56.999Z</time></trkpt><trkpt lat="43.6953017" lon="12.5545983"><ele>444.0</ele><time>2026-04-06T09:41:57.999Z</time></trkpt><trkpt lat="43.69535" lon="12.554795"><ele>439.33333333333337</ele><time>2026-04-06T09:41:58.999Z</time></trkpt><trkpt lat="43.6954217" lon="12.5549767"><ele>434.6666666666667</ele><time>2026-04-06T09:41:59.999Z</time></trkpt><trkpt lat="43.6955133" lon="12.555165"><ele>430.0</ele><time>2026-04-06T09:42:00.999Z</time></trkpt><trkpt lat="43.6955867" lon="12.5553967"><ele>430.0</ele><time>2026-04-06T09:42:01.999Z</time></trkpt><trkpt lat="43.6956317" lon="12.5556383"><ele>430.0</ele><time>2026-04-06T09:42:02.999Z</time></trkpt><trkpt lat="43.6956383" lon="12.5558883"><ele>430.0</ele><time>2026-04-06T09:42:03.999Z</time></trkpt><trkpt lat="43.6956317" lon="12.55615"><ele>431.33333333333337</ele><time>2026-04-06T09:42:04.999Z</time></trkpt><trkpt lat="43.6956217" lon="12.55641"><ele>432.66666666666663</ele><time>2026-04-06T09:42:05.998Z</time></trkpt><trkpt lat="43.695625" lon="12.5566683"><ele>434.0</ele><time>2026-04-06T09:42:06.999Z</time></trkpt><trkpt lat="43.6956283" lon="12.556925"><ele>434.3333333333333</ele><time>2026-04-06T09:42:07.999Z</time></trkpt><trkpt lat="43.6956533" lon="12.55717"><ele>434.66666666666663</ele><time>2026-04-06T09:42:08.999Z</time></trkpt><trkpt lat="43.6957067" lon="12.5573817"><ele>435.0</ele><time>2026-04-06T09:42:09.999Z</time></trkpt><trkpt lat="43.6957867" lon="12.5575733"><ele>435.0</ele><time>2026-04-06T09:42:10.999Z</time></trkpt><trkpt lat="43.695875" lon="12.5577483"><ele>435.0</ele><time>2026-04-06T09:42:11.999Z</time></trkpt><trkpt lat="43.6959533" lon="12.557925"><ele>435.0</ele><time>2026-04-06T09:42:12.999Z</time></trkpt><trkpt lat="43.696015" lon="12.5581167"><ele>436.5</ele><time>2026-04-06T09:42:13.999Z</time></trkpt><trkpt lat="43.69603" lon="12.558305"><ele>438.0</ele><time>2026-04-06T09:42:14.999Z</time></trkpt><trkpt lat="43.6960017" lon="12.5585"><ele>439.5</ele><time>2026-04-06T09:42:15.999Z</time></trkpt><trkpt lat="43.6959267" lon="12.5586733"><ele>441.0</ele><time>2026-04-06T09:42:16.999Z</time></trkpt><trkpt lat="43.695815" lon="12.5588117"><ele>448.0</ele><time>2026-04-06T09:42:17.999Z</time></trkpt><trkpt lat="43.6956617" lon="12.5589183"><ele>455.0</ele><time>2026-04-06T09:42:18.999Z</time></trkpt><trkpt lat="43.6955133" lon="12.559025"><ele>462.0</ele><time>2026-04-06T09:42:19.999Z</time></trkpt><trkpt lat="43.6953767" lon="12.559145"><ele>456.0</ele><time>2026-04-06T09:42:20.999Z</time></trkpt><trkpt lat="43.6952333" lon="12.559235"><ele>450.0</ele><time>2026-04-06T09:42:21.999Z</time></trkpt><trkpt lat="43.69509" lon="12.55931"><ele>444.0</ele><time>2026-04-06T09:42:22.999Z</time></trkpt><trkpt lat="43.6949567" lon="12.5593683"><ele>444.0</ele><time>2026-04-06T09:42:23.999Z</time></trkpt><trkpt lat="43.69484" lon="12.5594117"><ele>444.0</ele><time>2026-04-06T09:42:24.999Z</time></trkpt><trkpt lat="43.6947617" lon="12.5594283"><ele>444.0</ele><time>2026-04-06T09:42:25.999Z</time></trkpt><trkpt lat="43.6946683" lon="12.559475"><ele>444.0</ele><time>2026-04-06T09:42:26.999Z</time></trkpt><trkpt lat="43.6945933" lon="12.5595417"><ele>444.0</ele><time>2026-04-06T09:42:27.999Z</time></trkpt><trkpt lat="43.694545" lon="12.5596183"><ele>446.0</ele><time>2026-04-06T09:42:28.999Z</time></trkpt><trkpt lat="43.69455" lon="12.5597317"><ele>448.0</ele><time>2026-04-06T09:42:30.999Z</time></trkpt><trkpt lat="43.694615" lon="12.5597517"><ele>450.0</ele><time>2026-04-06T09:42:31.999Z</time></trkpt><trkpt lat="43.6947217" lon="12.5597383"><ele>452.0</ele><time>2026-04-06T09:42:32.999Z</time></trkpt><trkpt lat="43.6948567" lon="12.5596783"><ele>454.0</ele><time>2026-04-06T09:42:33.999Z</time></trkpt><trkpt lat="43.6950217" lon="12.5596183"><ele>456.6666666666667</ele><time>2026-04-06T09:42:34.999Z</time></trkpt><trkpt lat="43.6951967" lon="12.5595333"><ele>459.33333333333337</ele><time>2026-04-06T09:42:35.999Z</time></trkpt><trkpt lat="43.6953467" lon="12.5594767"><ele>462.0</ele><time>2026-04-06T09:42:36.999Z</time></trkpt><trkpt lat="43.6954817" lon="12.5594817"><ele>461.25</ele><time>2026-04-06T09:42:37.999Z</time></trkpt><trkpt lat="43.6956" lon="12.5595517"><ele>460.5</ele><time>2026-04-06T09:42:38.999Z</time></trkpt><trkpt lat="43.6957083" lon="12.5596617"><ele>459.75</ele><time>2026-04-06T09:42:39.999Z</time></trkpt><trkpt lat="43.6958083" lon="12.5598117"><ele>459.0</ele><time>2026-04-06T09:42:40.999Z</time></trkpt><trkpt lat="43.6959117" lon="12.5599833"><ele>459.0</ele><time>2026-04-06T09:42:41.999Z</time></trkpt><trkpt lat="43.6960017" lon="12.5601633"><ele>459.0</ele><time>2026-04-06T09:42:42.999Z</time></trkpt><trkpt lat="43.6960633" lon="12.5603483"><ele>459.0</ele><time>2026-04-06T09:42:43.999Z</time></trkpt><trkpt lat="43.6961267" lon="12.5605167"><ele>459.0</ele><time>2026-04-06T09:42:44.999Z</time></trkpt><trkpt lat="43.6961983" lon="12.5606617"><ele>457.0</ele><time>2026-04-06T09:42:45.999Z</time></trkpt><trkpt lat="43.6962733" lon="12.56078"><ele>455.0</ele><time>2026-04-06T09:42:46.999Z</time></trkpt><trkpt lat="43.6963517" lon="12.5608633"><ele>453.0</ele><time>2026-04-06T09:42:47.999Z</time></trkpt><trkpt lat="43.6964267" lon="12.5609183"><ele>451.0</ele><time>2026-04-06T09:42:48.999Z</time></trkpt><trkpt lat="43.6965283" lon="12.5609117"><ele>449.0</ele><time>2026-04-06T09:42:49.999Z</time></trkpt><trkpt lat="43.6966483" lon="12.56082"><ele>449.0</ele><time>2026-04-06T09:42:50.999Z</time></trkpt><trkpt lat="43.6967933" lon="12.5607417"><ele>449.0</ele><time>2026-04-06T09:42:51.999Z</time></trkpt><trkpt lat="43.6969467" lon="12.5607017"><ele>449.0</ele><time>2026-04-06T09:42:52.999Z</time></trkpt><trkpt lat="43.6971017" lon="12.5607183"><ele>451.66666666666663</ele><time>2026-04-06T09:42:53.999Z</time></trkpt><trkpt lat="43.697245" lon="12.5607917"><ele>454.33333333333337</ele><time>2026-04-06T09:42:54.999Z</time></trkpt><trkpt lat="43.697385" lon="12.5608967"><ele>457.0</ele><time>2026-04-06T09:42:55.999Z</time></trkpt><trkpt lat="43.6975317" lon="12.56103"><ele>457.0</ele><time>2026-04-06T09:42:56.999Z</time></trkpt><trkpt lat="43.6976667" lon="12.5611717"><ele>457.0</ele><time>2026-04-06T09:42:57.999Z</time></trkpt><trkpt lat="43.697785" lon="12.5613267"><ele>457.0</ele><time>2026-04-06T09:42:58.999Z</time></trkpt><trkpt lat="43.6978967" lon="12.561475"><ele>452.6666666666667</ele><time>2026-04-06T09:42:59.999Z</time></trkpt><trkpt lat="43.69799" lon="12.5616533"><ele>448.33333333333337</ele><time>2026-04-06T09:43:00.999Z</time></trkpt><trkpt lat="43.6980567" lon="12.5618667"><ele>444.0</ele><time>2026-04-06T09:43:01.999Z</time></trkpt><trkpt lat="43.69809" lon="12.5620817"><ele>443.25</ele><time>2026-04-06T09:43:02.999Z</time></trkpt><trkpt lat="43.6981017" lon="12.56228"><ele>442.5</ele><time>2026-04-06T09:43:03.999Z</time></trkpt><trkpt lat="43.6981167" lon="12.5624733"><ele>441.75</ele><time>2026-04-06T09:43:04.999Z</time></trkpt><trkpt lat="43.6981567" lon="12.5626567"><ele>441.0</ele><time>2026-04-06T09:43:05.999Z</time></trkpt><trkpt lat="43.6982217" lon="12.5628183"><ele>441.75</ele><time>2026-04-06T09:43:06.999Z</time></trkpt><trkpt lat="43.698315" lon="12.56297"><ele>442.5</ele><time>2026-04-06T09:43:07.999Z</time></trkpt><trkpt lat="43.6984133" lon="12.56311"><ele>443.25</ele><time>2026-04-06T09:43:08.999Z</time></trkpt><trkpt lat="43.69853" lon="12.5632267"><ele>444.0</ele><time>2026-04-06T09:43:09.999Z</time></trkpt><trkpt lat="43.698645" lon="12.563345"><ele>444.0</ele><time>2026-04-06T09:43:10.999Z</time></trkpt><trkpt lat="43.6987283" lon="12.563495"><ele>444.0</ele><time>2026-04-06T09:43:11.999Z</time></trkpt><trkpt lat="43.698775" lon="12.5636817"><ele>444.0</ele><time>2026-04-06T09:43:12.999Z</time></trkpt><trkpt lat="43.698795" lon="12.5638783"><ele>444.0</ele><time>2026-04-06T09:43:13.999Z</time></trkpt><trkpt lat="43.6987783" lon="12.5640717"><ele>442.0</ele><time>2026-04-06T09:43:14.999Z</time></trkpt><trkpt lat="43.6987033" lon="12.5642533"><ele>440.0</ele><time>2026-04-06T09:43:15.999Z</time></trkpt><trkpt lat="43.6986033" lon="12.5644433"><ele>438.0</ele><time>2026-04-06T09:43:16.999Z</time></trkpt><trkpt lat="43.6985133" lon="12.56462"><ele>438.0</ele><time>2026-04-06T09:43:17.999Z</time></trkpt><trkpt lat="43.698445" lon="12.5647867"><ele>438.0</ele><time>2026-04-06T09:43:18.999Z</time></trkpt><trkpt lat="43.6984033" lon="12.5649467"><ele>438.0</ele><time>2026-04-06T09:43:19.999Z</time></trkpt><trkpt lat="43.6984133" lon="12.5651067"><ele>438.0</ele><time>2026-04-06T09:43:20.999Z</time></trkpt><trkpt lat="43.698475" lon="12.565245"><ele>438.0</ele><time>2026-04-06T09:43:21.999Z</time></trkpt><trkpt lat="43.6985717" lon="12.56536"><ele>438.0</ele><time>2026-04-06T09:43:22.999Z</time></trkpt><trkpt lat="43.698665" lon="12.5655067"><ele>438.0</ele><time>2026-04-06T09:43:23.999Z</time></trkpt><trkpt lat="43.6987267" lon="12.5656817"><ele>438.0</ele><time>2026-04-06T09:43:24.999Z</time></trkpt><trkpt lat="43.6987433" lon="12.5658733"><ele>437.75</ele><time>2026-04-06T09:43:25.999Z</time></trkpt><trkpt lat="43.6987283" lon="12.566075"><ele>437.5</ele><time>2026-04-06T09:43:26.999Z</time></trkpt><trkpt lat="43.6987" lon="12.5662683"><ele>437.25</ele><time>2026-04-06T09:43:27.999Z</time></trkpt><trkpt lat="43.698675" lon="12.566465"><ele>437.0</ele><time>2026-04-06T09:43:28.999Z</time></trkpt><trkpt lat="43.698665" lon="12.5666617"><ele>437.0</ele><time>2026-04-06T09:43:29.999Z</time></trkpt><trkpt lat="43.6986517" lon="12.5668717"><ele>437.0</ele><time>2026-04-06T09:43:30.999Z</time></trkpt><trkpt lat="43.6986517" lon="12.5670683"><ele>437.0</ele><time>2026-04-06T09:43:31.999Z</time></trkpt><trkpt lat="43.6986633" lon="12.5672733"><ele>437.0</ele><time>2026-04-06T09:43:32.999Z</time></trkpt><trkpt lat="43.6987033" lon="12.5674867"><ele>439.0</ele><time>2026-04-06T09:43:33.999Z</time></trkpt><trkpt lat="43.6987567" lon="12.56771"><ele>441.0</ele><time>2026-04-06T09:43:34.999Z</time></trkpt><trkpt lat="43.6988267" lon="12.5679183"><ele>443.0</ele><time>2026-04-06T09:43:35.999Z</time></trkpt><trkpt lat="43.6989067" lon="12.5681167"><ele>447.3333333333333</ele><time>2026-04-06T09:43:36.999Z</time></trkpt><trkpt lat="43.698995" lon="12.5683133"><ele>451.66666666666663</ele><time>2026-04-06T09:43:37.999Z</time></trkpt><trkpt lat="43.6990883" lon="12.56851"><ele>456.0</ele><time>2026-04-06T09:43:38.999Z</time></trkpt><trkpt lat="43.6991733" lon="12.5687133"><ele>452.66666666666663</ele><time>2026-04-06T09:43:39.999Z</time></trkpt><trkpt lat="43.6992583" lon="12.5689183"><ele>449.3333333333333</ele><time>2026-04-06T09:43:40.999Z</time></trkpt><trkpt lat="43.69935" lon="12.5691133"><ele>446.0</ele><time>2026-04-06T09:43:41.999Z</time></trkpt><trkpt lat="43.699435" lon="12.5693017"><ele>446.0</ele><time>2026-04-06T09:43:42.999Z</time></trkpt><trkpt lat="43.6995167" lon="12.56949"><ele>446.0</ele><time>2026-04-06T09:43:43.999Z</time></trkpt><trkpt lat="43.69958" lon="12.5696933"><ele>446.0</ele><time>2026-04-06T09:43:44.999Z</time></trkpt><trkpt lat="43.6996417" lon="12.5698983"><ele>450.0</ele><time>2026-04-06T09:43:45.999Z</time></trkpt><trkpt lat="43.699705" lon="12.570105"><ele>454.0</ele><time>2026-04-06T09:43:46.999Z</time></trkpt><trkpt lat="43.6997767" lon="12.5703067"><ele>458.0</ele><time>2026-04-06T09:43:47.999Z</time></trkpt><trkpt lat="43.6998433" lon="12.5705167"><ele>461.66666666666663</ele><time>2026-04-06T09:43:48.999Z</time></trkpt><trkpt lat="43.6999117" lon="12.5707333"><ele>465.33333333333337</ele><time>2026-04-06T09:43:49.999Z</time></trkpt><trkpt lat="43.699985" lon="12.5709567"><ele>469.0</ele><time>2026-04-06T09:43:50.999Z</time></trkpt><trkpt lat="43.7000583" lon="12.5711883"><ele>471.33333333333337</ele><time>2026-04-06T09:43:51.999Z</time></trkpt><trkpt lat="43.7001317" lon="12.571415"><ele>473.66666666666663</ele><time>2026-04-06T09:43:52.999Z</time></trkpt><trkpt lat="43.7002067" lon="12.5716383"><ele>476.0</ele><time>2026-04-06T09:43:53.999Z</time></trkpt><trkpt lat="43.7002817" lon="12.5718567"><ele>475.3333333333333</ele><time>2026-04-06T09:43:54.999Z</time></trkpt><trkpt lat="43.7003817" lon="12.57205"><ele>474.66666666666663</ele><time>2026-04-06T09:43:55.999Z</time></trkpt><trkpt lat="43.70049" lon="12.57221"><ele>474.0</ele><time>2026-04-06T09:43:56.999Z</time></trkpt><trkpt lat="43.7006117" lon="12.572345"><ele>474.0</ele><time>2026-04-06T09:43:57.999Z</time></trkpt><trkpt lat="43.70074" lon="12.5724467"><ele>474.0</ele><time>2026-04-06T09:43:58.999Z</time></trkpt><trkpt lat="43.700875" lon="12.572525"><ele>474.0</ele><time>2026-04-06T09:43:59.999Z</time></trkpt><trkpt lat="43.7010117" lon="12.5726"><ele>474.0</ele><time>2026-04-06T09:44:00.999Z</time></trkpt><trkpt lat="43.7011467" lon="12.5727"><ele>473.33333333333337</ele><time>2026-04-06T09:44:01.999Z</time></trkpt><trkpt lat="43.7012633" lon="12.57283"><ele>472.6666666666667</ele><time>2026-04-06T09:44:02.999Z</time></trkpt><trkpt lat="43.70137" lon="12.5729833"><ele>472.0</ele><time>2026-04-06T09:44:03.999Z</time></trkpt><trkpt lat="43.7014717" lon="12.5731317"><ele>472.0</ele><time>2026-04-06T09:44:04.999Z</time></trkpt><trkpt lat="43.7015867" lon="12.5732617"><ele>472.0</ele><time>2026-04-06T09:44:05.999Z</time></trkpt><trkpt lat="43.70171" lon="12.573345"><ele>472.0</ele><time>2026-04-06T09:44:06.999Z</time></trkpt><trkpt lat="43.70187" lon="12.573365"><ele>472.0</ele><time>2026-04-06T09:44:07.999Z</time></trkpt><trkpt lat="43.7020483" lon="12.57336"><ele>473.6666666666667</ele><time>2026-04-06T09:44:08.999Z</time></trkpt><trkpt lat="43.702225" lon="12.57335"><ele>475.33333333333337</ele><time>2026-04-06T09:44:09.999Z</time></trkpt><trkpt lat="43.7023933" lon="12.5733467"><ele>477.0</ele><time>2026-04-06T09:44:10.999Z</time></trkpt><trkpt lat="43.70254" lon="12.5733533"><ele>477.0</ele><time>2026-04-06T09:44:11.999Z</time></trkpt><trkpt lat="43.702685" lon="12.573385"><ele>477.0</ele><time>2026-04-06T09:44:12.999Z</time></trkpt><trkpt lat="43.702815" lon="12.5734517"><ele>477.0</ele><time>2026-04-06T09:44:13.999Z</time></trkpt><trkpt lat="43.7029317" lon="12.573575"><ele>477.0</ele><time>2026-04-06T09:44:14.999Z</time></trkpt><trkpt lat="43.703055" lon="12.57374"><ele>482.0</ele><time>2026-04-06T09:44:15.999Z</time></trkpt><trkpt lat="43.7031283" lon="12.573935"><ele>487.0</ele><time>2026-04-06T09:44:16.999Z</time></trkpt><trkpt lat="43.7031483" lon="12.574135"><ele>492.0</ele><time>2026-04-06T09:44:17.999Z</time></trkpt><trkpt lat="43.7031217" lon="12.5743317"><ele>497.0</ele><time>2026-04-06T09:44:18.999Z</time></trkpt><trkpt lat="43.703045" lon="12.5745467"><ele>502.3333333333333</ele><time>2026-04-06T09:44:19.999Z</time></trkpt><trkpt lat="43.7029733" lon="12.5747633"><ele>507.66666666666663</ele><time>2026-04-06T09:44:20.999Z</time></trkpt><trkpt lat="43.702885" lon="12.5749867"><ele>513.0</ele><time>2026-04-06T09:44:21.999Z</time></trkpt><trkpt lat="43.7027967" lon="12.5751933"><ele>502.33333333333337</ele><time>2026-04-06T09:44:22.999Z</time></trkpt><trkpt lat="43.7026917" lon="12.5753817"><ele>491.6666666666667</ele><time>2026-04-06T09:44:23.999Z</time></trkpt><trkpt lat="43.7025967" lon="12.57555"><ele>481.0</ele><time>2026-04-06T09:44:24.999Z</time></trkpt><trkpt lat="43.7025083" lon="12.575725"><ele>481.0</ele><time>2026-04-06T09:44:25.999Z</time></trkpt><trkpt lat="43.70243" lon="12.5759033"><ele>481.0</ele><time>2026-04-06T09:44:26.999Z</time></trkpt><trkpt lat="43.7023667" lon="12.5761"><ele>481.0</ele><time>2026-04-06T09:44:27.999Z</time></trkpt><trkpt lat="43.702305" lon="12.5762967"><ele>485.25</ele><time>2026-04-06T09:44:28.999Z</time></trkpt><trkpt lat="43.702245" lon="12.5764867"><ele>489.5</ele><time>2026-04-06T09:44:29.999Z</time></trkpt><trkpt lat="43.7021733" lon="12.576675"><ele>493.75</ele><time>2026-04-06T09:44:30.999Z</time></trkpt><trkpt lat="43.7021117" lon="12.5768483"><ele>498.0</ele><time>2026-04-06T09:44:31.999Z</time></trkpt><trkpt lat="43.7020567" lon="12.5770333"><ele>498.75</ele><time>2026-04-06T09:44:32.999Z</time></trkpt><trkpt lat="43.7020183" lon="12.5772333"><ele>499.5</ele><time>2026-04-06T09:44:33.999Z</time></trkpt><trkpt lat="43.7019867" lon="12.57742"><ele>500.25</ele><time>2026-04-06T09:44:34.999Z</time></trkpt><trkpt lat="43.701965" lon="12.5775833"><ele>501.0</ele><time>2026-04-06T09:44:35.999Z</time></trkpt><trkpt lat="43.701905" lon="12.57773"><ele>493.8</ele><time>2026-04-06T09:44:36.999Z</time></trkpt><trkpt lat="43.7018467" lon="12.5778633"><ele>486.6</ele><time>2026-04-06T09:44:37.999Z</time></trkpt><trkpt lat="43.7018067" lon="12.5780133"><ele>479.4</ele><time>2026-04-06T09:44:38.999Z</time></trkpt><trkpt lat="43.7017867" lon="12.5781533"><ele>472.2</ele><time>2026-04-06T09:44:39.999Z</time></trkpt><trkpt lat="43.7017967" lon="12.5782917"><ele>465.0</ele><time>2026-04-06T09:44:40.999Z</time></trkpt><trkpt lat="43.7018433" lon="12.5784183"><ele>465.0</ele><time>2026-04-06T09:44:41.999Z</time></trkpt><trkpt lat="43.70191" lon="12.578505"><ele>465.0</ele><time>2026-04-06T09:44:42.999Z</time></trkpt><trkpt lat="43.702" lon="12.5785517"><ele>465.0</ele><time>2026-04-06T09:44:43.999Z</time></trkpt><trkpt lat="43.70212" lon="12.57854"><ele>465.0</ele><time>2026-04-06T09:44:44.999Z</time></trkpt><trkpt lat="43.702275" lon="12.57849"><ele>472.66666666666663</ele><time>2026-04-06T09:44:45.999Z</time></trkpt><trkpt lat="43.7024383" lon="12.5784133"><ele>480.3333333333333</ele><time>2026-04-06T09:44:46.999Z</time></trkpt><trkpt lat="43.7025917" lon="12.578385"><ele>488.0</ele><time>2026-04-06T09:44:47.999Z</time></trkpt><trkpt lat="43.7027267" lon="12.5784133"><ele>490.25</ele><time>2026-04-06T09:44:48.999Z</time></trkpt><trkpt lat="43.702855" lon="12.578475"><ele>492.5</ele><time>2026-04-06T09:44:49.999Z</time></trkpt><trkpt lat="43.7029833" lon="12.578545"><ele>494.75</ele><time>2026-04-06T09:44:50.999Z</time></trkpt><trkpt lat="43.7031117" lon="12.5785967"><ele>497.0</ele><time>2026-04-06T09:44:51.999Z</time></trkpt><trkpt lat="43.7032333" lon="12.57865"><ele>498.0</ele><time>2026-04-06T09:44:52.999Z</time></trkpt><trkpt lat="43.7033617" lon="12.5786933"><ele>499.0</ele><time>2026-04-06T09:44:53.999Z</time></trkpt><trkpt lat="43.7034917" lon="12.5787333"><ele>500.0</ele><time>2026-04-06T09:44:54.998Z</time></trkpt><trkpt lat="43.70363" lon="12.5787583"><ele>501.0</ele><time>2026-04-06T09:44:55.999Z</time></trkpt><trkpt lat="43.7037617" lon="12.5787683"><ele>501.0</ele><time>2026-04-06T09:44:56.999Z</time></trkpt><trkpt lat="43.7038917" lon="12.5787617"><ele>501.0</ele><time>2026-04-06T09:44:57.999Z</time></trkpt><trkpt lat="43.7040267" lon="12.57871"><ele>501.0</ele><time>2026-04-06T09:44:58.999Z</time></trkpt><trkpt lat="43.7041717" lon="12.5786283"><ele>501.0</ele><time>2026-04-06T09:44:59.999Z</time></trkpt><trkpt lat="43.7043083" lon="12.5785483"><ele>496.25</ele><time>2026-04-06T09:45:00.999Z</time></trkpt><trkpt lat="43.7044367" lon="12.578485"><ele>491.5</ele><time>2026-04-06T09:45:01.999Z</time></trkpt><trkpt lat="43.7045533" lon="12.5784567"><ele>486.75</ele><time>2026-04-06T09:45:02.999Z</time></trkpt><trkpt lat="43.7046683" lon="12.578495"><ele>482.0</ele><time>2026-04-06T09:45:03.999Z</time></trkpt><trkpt lat="43.7047667" lon="12.5786133"><ele>483.25</ele><time>2026-04-06T09:45:04.999Z</time></trkpt><trkpt lat="43.7048433" lon="12.578745"><ele>484.5</ele><time>2026-04-06T09:45:05.999Z</time></trkpt><trkpt lat="43.7049067" lon="12.5789083"><ele>485.75</ele><time>2026-04-06T09:45:06.999Z</time></trkpt><trkpt lat="43.7049633" lon="12.57911"><ele>487.0</ele><time>2026-04-06T09:45:07.999Z</time></trkpt><trkpt lat="43.7050167" lon="12.5792817"><ele>487.0</ele><time>2026-04-06T09:45:08.999Z</time></trkpt><trkpt lat="43.7050467" lon="12.579455"><ele>487.0</ele><time>2026-04-06T09:45:09.999Z</time></trkpt><trkpt lat="43.705055" lon="12.5796317"><ele>487.0</ele><time>2026-04-06T09:45:10.999Z</time></trkpt><trkpt lat="43.7050433" lon="12.5798017"><ele>487.0</ele><time>2026-04-06T09:45:11.999Z</time></trkpt><trkpt lat="43.70503" lon="12.579975"><ele>487.75</ele><time>2026-04-06T09:45:12.999Z</time></trkpt><trkpt lat="43.7050083" lon="12.5801483"><ele>488.5</ele><time>2026-04-06T09:45:13.999Z</time></trkpt><trkpt lat="43.7049983" lon="12.5803233"><ele>489.25</ele><time>2026-04-06T09:45:14.999Z</time></trkpt><trkpt lat="43.70499" lon="12.5805067"><ele>490.0</ele><time>2026-04-06T09:45:15.999Z</time></trkpt><trkpt lat="43.704985" lon="12.58069"><ele>490.0</ele><time>2026-04-06T09:45:16.999Z</time></trkpt><trkpt lat="43.7049783" lon="12.5808833"><ele>490.0</ele><time>2026-04-06T09:45:17.999Z</time></trkpt><trkpt lat="43.704995" lon="12.5810933"><ele>490.0</ele><time>2026-04-06T09:45:18.999Z</time></trkpt><trkpt lat="43.705035" lon="12.5813067"><ele>492.0</ele><time>2026-04-06T09:45:19.999Z</time></trkpt><trkpt lat="43.7050917" lon="12.5815133"><ele>494.0</ele><time>2026-04-06T09:45:20.999Z</time></trkpt><trkpt lat="43.7051417" lon="12.581715"><ele>496.0</ele><time>2026-04-06T09:45:21.999Z</time></trkpt><trkpt lat="43.7051867" lon="12.58193"><ele>496.33333333333337</ele><time>2026-04-06T09:45:22.999Z</time></trkpt><trkpt lat="43.70522" lon="12.5821467"><ele>496.66666666666663</ele><time>2026-04-06T09:45:23.999Z</time></trkpt><trkpt lat="43.705235" lon="12.582385"><ele>497.0</ele><time>2026-04-06T09:45:24.999Z</time></trkpt><trkpt lat="43.7052233" lon="12.582625"><ele>497.0</ele><time>2026-04-06T09:45:25.999Z</time></trkpt><trkpt lat="43.7051817" lon="12.5828417"><ele>497.0</ele><time>2026-04-06T09:45:26.999Z</time></trkpt><trkpt lat="43.70512" lon="12.5830383"><ele>497.0</ele><time>2026-04-06T09:45:27.999Z</time></trkpt><trkpt lat="43.705045" lon="12.5832283"><ele>494.66666666666663</ele><time>2026-04-06T09:45:28.999Z</time></trkpt><trkpt lat="43.7049533" lon="12.5834117"><ele>492.33333333333337</ele><time>2026-04-06T09:45:29.999Z</time></trkpt><trkpt lat="43.7048633" lon="12.58358"><ele>490.0</ele><time>2026-04-06T09:45:30.999Z</time></trkpt><trkpt lat="43.7047933" lon="12.5837483"><ele>488.5</ele><time>2026-04-06T09:45:31.999Z</time></trkpt><trkpt lat="43.7047467" lon="12.5839233"><ele>487.0</ele><time>2026-04-06T09:45:32.999Z</time></trkpt><trkpt lat="43.7047417" lon="12.58412"><ele>485.5</ele><time>2026-04-06T09:45:33.999Z</time></trkpt><trkpt lat="43.7047733" lon="12.5843133"><ele>484.0</ele><time>2026-04-06T09:45:34.999Z</time></trkpt><trkpt lat="43.7048433" lon="12.5844967"><ele>484.75</ele><time>2026-04-06T09:45:35.999Z</time></trkpt><trkpt lat="43.7049117" lon="12.58468"><ele>485.5</ele><time>2026-04-06T09:45:36.999Z</time></trkpt><trkpt lat="43.7049583" lon="12.5848683"><ele>486.25</ele><time>2026-04-06T09:45:37.999Z</time></trkpt><trkpt lat="43.70497" lon="12.58506"><ele>487.0</ele><time>2026-04-06T09:45:38.999Z</time></trkpt><trkpt lat="43.7049583" lon="12.5852467"><ele>487.0</ele><time>2026-04-06T09:45:39.999Z</time></trkpt><trkpt lat="43.704945" lon="12.5854467"><ele>487.0</ele><time>2026-04-06T09:45:40.999Z</time></trkpt><trkpt lat="43.7049533" lon="12.58565"><ele>487.0</ele><time>2026-04-06T09:45:41.999Z</time></trkpt><trkpt lat="43.7049833" lon="12.5858667"><ele>487.0</ele><time>2026-04-06T09:45:42.999Z</time></trkpt><trkpt lat="43.7050367" lon="12.58606"><ele>487.0</ele><time>2026-04-06T09:45:43.999Z</time></trkpt><trkpt lat="43.705085" lon="12.5862617"><ele>487.0</ele><time>2026-04-06T09:45:44.999Z</time></trkpt><trkpt lat="43.70513" lon="12.5864583"><ele>485.25</ele><time>2026-04-06T09:45:45.999Z</time></trkpt><trkpt lat="43.7051717" lon="12.5866333"><ele>483.5</ele><time>2026-04-06T09:45:46.999Z</time></trkpt><trkpt lat="43.7052183" lon="12.586805"><ele>481.75</ele><time>2026-04-06T09:45:47.999Z</time></trkpt><trkpt lat="43.7052733" lon="12.5869667"><ele>480.0</ele><time>2026-04-06T09:45:48.999Z</time></trkpt><trkpt lat="43.7053383" lon="12.58711"><ele>480.0</ele><time>2026-04-06T09:45:49.999Z</time></trkpt><trkpt lat="43.7054433" lon="12.5872167"><ele>480.0</ele><time>2026-04-06T09:45:50.999Z</time></trkpt><trkpt lat="43.7055617" lon="12.587315"><ele>480.0</ele><time>2026-04-06T09:45:51.999Z</time></trkpt><trkpt lat="43.7056717" lon="12.5874133"><ele>480.0</ele><time>2026-04-06T09:45:52.999Z</time></trkpt><trkpt lat="43.705755" lon="12.58755"><ele>480.0</ele><time>2026-04-06T09:45:53.999Z</time></trkpt><trkpt lat="43.7058183" lon="12.5877083"><ele>480.0</ele><time>2026-04-06T09:45:54.999Z</time></trkpt><trkpt lat="43.7058433" lon="12.5879017"><ele>480.0</ele><time>2026-04-06T09:45:55.999Z</time></trkpt><trkpt lat="43.7058417" lon="12.5880967"><ele>480.0</ele><time>2026-04-06T09:45:56.999Z</time></trkpt><trkpt lat="43.7058467" lon="12.5882883"><ele>480.0</ele><time>2026-04-06T09:45:57.999Z</time></trkpt><trkpt lat="43.7058467" lon="12.588475"><ele>480.0</ele><time>2026-04-06T09:45:58.999Z</time></trkpt><trkpt lat="43.70587" lon="12.588685"><ele>480.0</ele><time>2026-04-06T09:45:59.998Z</time></trkpt><trkpt lat="43.7059" lon="12.5888833"><ele>480.0</ele><time>2026-04-06T09:46:00.999Z</time></trkpt><trkpt lat="43.705925" lon="12.5890717"><ele>480.0</ele><time>2026-04-06T09:46:01.999Z</time></trkpt><trkpt lat="43.7059067" lon="12.5892533"><ele>480.0</ele><time>2026-04-06T09:46:02.999Z</time></trkpt><trkpt lat="43.70585" lon="12.5894317"><ele>480.0</ele><time>2026-04-06T09:46:03.999Z</time></trkpt><trkpt lat="43.7057617" lon="12.5896017"><ele>480.0</ele><time>2026-04-06T09:46:04.999Z</time></trkpt><trkpt lat="43.70567" lon="12.5897667"><ele>477.75</ele><time>2026-04-06T09:46:05.999Z</time></trkpt><trkpt lat="43.705595" lon="12.5899283"><ele>475.5</ele><time>2026-04-06T09:46:06.999Z</time></trkpt><trkpt lat="43.7055033" lon="12.59005"><ele>473.25</ele><time>2026-04-06T09:46:07.999Z</time></trkpt><trkpt lat="43.7053817" lon="12.590145"><ele>471.0</ele><time>2026-04-06T09:46:08.999Z</time></trkpt><trkpt lat="43.7052567" lon="12.59022"><ele>471.75</ele><time>2026-04-06T09:46:09.999Z</time></trkpt><trkpt lat="43.7051083" lon="12.590295"><ele>472.5</ele><time>2026-04-06T09:46:10.999Z</time></trkpt><trkpt lat="43.7049733" lon="12.5903767"><ele>473.25</ele><time>2026-04-06T09:46:11.999Z</time></trkpt><trkpt lat="43.70486" lon="12.590495"><ele>474.0</ele><time>2026-04-06T09:46:12.999Z</time></trkpt><trkpt lat="43.70475" lon="12.5906333"><ele>474.0</ele><time>2026-04-06T09:46:13.999Z</time></trkpt><trkpt lat="43.7046833" lon="12.5907867"><ele>474.0</ele><time>2026-04-06T09:46:14.999Z</time></trkpt><trkpt lat="43.7046483" lon="12.590965"><ele>474.0</ele><time>2026-04-06T09:46:15.999Z</time></trkpt><trkpt lat="43.7046333" lon="12.5911617"><ele>474.0</ele><time>2026-04-06T09:46:16.999Z</time></trkpt><trkpt lat="43.7046517" lon="12.5913517"><ele>473.75</ele><time>2026-04-06T09:46:17.999Z</time></trkpt><trkpt lat="43.7046917" lon="12.5915567"><ele>473.5</ele><time>2026-04-06T09:46:18.999Z</time></trkpt><trkpt lat="43.704765" lon="12.5917467"><ele>473.25</ele><time>2026-04-06T09:46:19.999Z</time></trkpt><trkpt lat="43.7048217" lon="12.5919067"><ele>473.0</ele><time>2026-04-06T09:46:20.999Z</time></trkpt><trkpt lat="43.7048567" lon="12.5920767"><ele>471.5</ele><time>2026-04-06T09:46:21.998Z</time></trkpt><trkpt lat="43.7048617" lon="12.5922583"><ele>470.0</ele><time>2026-04-06T09:46:22.999Z</time></trkpt><trkpt lat="43.704825" lon="12.59243"><ele>468.5</ele><time>2026-04-06T09:46:23.999Z</time></trkpt><trkpt lat="43.704755" lon="12.59257"><ele>467.0</ele><time>2026-04-06T09:46:24.999Z</time></trkpt><trkpt lat="43.704645" lon="12.5926933"><ele>467.0</ele><time>2026-04-06T09:46:25.999Z</time></trkpt><trkpt lat="43.70452" lon="12.5928067"><ele>467.0</ele><time>2026-04-06T09:46:26.999Z</time></trkpt><trkpt lat="43.70439" lon="12.5929333"><ele>467.0</ele><time>2026-04-06T09:46:27.999Z</time></trkpt><trkpt lat="43.7042583" lon="12.5930533"><ele>470.3333333333333</ele><time>2026-04-06T09:46:28.999Z</time></trkpt><trkpt lat="43.7041317" lon="12.5931733"><ele>473.66666666666663</ele><time>2026-04-06T09:46:29.999Z</time></trkpt><trkpt lat="43.704005" lon="12.5932933"><ele>477.0</ele><time>2026-04-06T09:46:30.999Z</time></trkpt><trkpt lat="43.7038783" lon="12.5934133"><ele>477.0</ele><time>2026-04-06T09:46:31.999Z</time></trkpt><trkpt lat="43.7037417" lon="12.5935367"><ele>477.0</ele><time>2026-04-06T09:46:32.999Z</time></trkpt><trkpt lat="43.7036083" lon="12.59366"><ele>477.0</ele><time>2026-04-06T09:46:33.999Z</time></trkpt><trkpt lat="43.7034767" lon="12.5937783"><ele>476.5</ele><time>2026-04-06T09:46:34.999Z</time></trkpt><trkpt lat="43.703355" lon="12.593895"><ele>476.0</ele><time>2026-04-06T09:46:35.999Z</time></trkpt><trkpt lat="43.7032533" lon="12.5940267"><ele>475.5</ele><time>2026-04-06T09:46:36.999Z</time></trkpt><trkpt lat="43.703175" lon="12.59419"><ele>475.0</ele><time>2026-04-06T09:46:37.999Z</time></trkpt><trkpt lat="43.7031333" lon="12.5943817"><ele>473.0</ele><time>2026-04-06T09:46:38.999Z</time></trkpt><trkpt lat="43.7031317" lon="12.5945783"><ele>471.0</ele><time>2026-04-06T09:46:39.999Z</time></trkpt><trkpt lat="43.7031583" lon="12.59478"><ele>469.0</ele><time>2026-04-06T09:46:40.999Z</time></trkpt><trkpt lat="43.70316" lon="12.5949867"><ele>467.0</ele><time>2026-04-06T09:46:41.999Z</time></trkpt><trkpt lat="43.703145" lon="12.5951783"><ele>466.25</ele><time>2026-04-06T09:46:42.999Z</time></trkpt><trkpt lat="43.7031183" lon="12.59536"><ele>465.5</ele><time>2026-04-06T09:46:43.999Z</time></trkpt><trkpt lat="43.7030817" lon="12.5955383"><ele>464.75</ele><time>2026-04-06T09:46:44.999Z</time></trkpt><trkpt lat="43.70306" lon="12.59572"><ele>464.0</ele><time>2026-04-06T09:46:45.999Z</time></trkpt><trkpt lat="43.7030517" lon="12.5959133"><ele>464.0</ele><time>2026-04-06T09:46:46.999Z</time></trkpt><trkpt lat="43.7030683" lon="12.5961"><ele>464.0</ele><time>2026-04-06T09:46:47.999Z</time></trkpt><trkpt lat="43.7031017" lon="12.596275"><ele>464.0</ele><time>2026-04-06T09:46:48.999Z</time></trkpt><trkpt lat="43.7031567" lon="12.5964183"><ele>464.0</ele><time>2026-04-06T09:46:49.999Z</time></trkpt><trkpt lat="43.7032483" lon="12.5965383"><ele>463.5</ele><time>2026-04-06T09:46:50.999Z</time></trkpt><trkpt lat="43.7033617" lon="12.59666"><ele>463.0</ele><time>2026-04-06T09:46:51.999Z</time></trkpt><trkpt lat="43.7034567" lon="12.5968033"><ele>462.5</ele><time>2026-04-06T09:46:52.999Z</time></trkpt><trkpt lat="43.70353" lon="12.596975"><ele>462.0</ele><time>2026-04-06T09:46:53.999Z</time></trkpt><trkpt lat="43.7035883" lon="12.5971517"><ele>462.0</ele><time>2026-04-06T09:46:54.999Z</time></trkpt><trkpt lat="43.7036433" lon="12.5973367"><ele>462.0</ele><time>2026-04-06T09:46:55.999Z</time></trkpt><trkpt lat="43.7037133" lon="12.5975233"><ele>462.0</ele><time>2026-04-06T09:46:56.999Z</time></trkpt><trkpt lat="43.7037933" lon="12.5977117"><ele>465.75</ele><time>2026-04-06T09:46:57.999Z</time></trkpt><trkpt lat="43.7038867" lon="12.5978817"><ele>469.5</ele><time>2026-04-06T09:46:58.999Z</time></trkpt><trkpt lat="43.7039733" lon="12.598015"><ele>473.25</ele><time>2026-04-06T09:46:59.999Z</time></trkpt><trkpt lat="43.704065" lon="12.598115"><ele>477.0</ele><time>2026-04-06T09:47:00.999Z</time></trkpt><trkpt lat="43.70417" lon="12.5981783"><ele>477.0</ele><time>2026-04-06T09:47:01.999Z</time></trkpt><trkpt lat="43.704305" lon="12.598195"><ele>477.0</ele><time>2026-04-06T09:47:02.999Z</time></trkpt><trkpt lat="43.7044467" lon="12.5982033"><ele>477.0</ele><time>2026-04-06T09:47:03.999Z</time></trkpt><trkpt lat="43.7046" lon="12.5982383"><ele>477.0</ele><time>2026-04-06T09:47:04.999Z</time></trkpt><trkpt lat="43.70474" lon="12.59831"><ele>475.33333333333337</ele><time>2026-04-06T09:47:05.999Z</time></trkpt><trkpt lat="43.7048833" lon="12.59842"><ele>473.6666666666667</ele><time>2026-04-06T09:47:06.999Z</time></trkpt><trkpt lat="43.7050067" lon="12.59856"><ele>472.0</ele><time>2026-04-06T09:47:07.999Z</time></trkpt><trkpt lat="43.70512" lon="12.59871"><ele>472.0</ele><time>2026-04-06T09:47:08.999Z</time></trkpt><trkpt lat="43.7052167" lon="12.598855"><ele>472.0</ele><time>2026-04-06T09:47:09.999Z</time></trkpt><trkpt lat="43.7053067" lon="12.5989767"><ele>472.0</ele><time>2026-04-06T09:47:10.999Z</time></trkpt><trkpt lat="43.7053733" lon="12.5990983"><ele>472.0</ele><time>2026-04-06T09:47:11.999Z</time></trkpt><trkpt lat="43.705415" lon="12.599205"><ele>469.8</ele><time>2026-04-06T09:47:12.999Z</time></trkpt><trkpt lat="43.7054383" lon="12.5993083"><ele>467.6</ele><time>2026-04-06T09:47:13.999Z</time></trkpt><trkpt lat="43.70543" lon="12.599395"><ele>465.40000000000003</ele><time>2026-04-06T09:47:14.999Z</time></trkpt><trkpt lat="43.7053317" lon="12.5994933"><ele>463.20000000000005</ele><time>2026-04-06T09:47:16.999Z</time></trkpt><trkpt lat="43.7052333" lon="12.599505"><ele>461.0</ele><time>2026-04-06T09:47:17.999Z</time></trkpt><trkpt lat="43.7051033" lon="12.5995083"><ele>460.75</ele><time>2026-04-06T09:47:18.999Z</time></trkpt><trkpt lat="43.704975" lon="12.5995367"><ele>460.5</ele><time>2026-04-06T09:47:19.999Z</time></trkpt><trkpt lat="43.7048533" lon="12.5995983"><ele>460.25</ele><time>2026-04-06T09:47:20.999Z</time></trkpt><trkpt lat="43.704745" lon="12.5996783"><ele>460.0</ele><time>2026-04-06T09:47:21.999Z</time></trkpt><trkpt lat="43.7046583" lon="12.59979"><ele>460.0</ele><time>2026-04-06T09:47:22.999Z</time></trkpt><trkpt lat="43.7045917" lon="12.5999333"><ele>460.0</ele><time>2026-04-06T09:47:23.999Z</time></trkpt><trkpt lat="43.7045567" lon="12.6000833"><ele>460.0</ele><time>2026-04-06T09:47:24.999Z</time></trkpt><trkpt lat="43.704555" lon="12.6002317"><ele>460.0</ele><time>2026-04-06T09:47:25.999Z</time></trkpt><trkpt lat="43.7045533" lon="12.600375"><ele>460.0</ele><time>2026-04-06T09:47:26.999Z</time></trkpt><trkpt lat="43.7045667" lon="12.6004983"><ele>458.6666666666667</ele><time>2026-04-06T09:47:27.999Z</time></trkpt><trkpt lat="43.7046" lon="12.6005933"><ele>457.33333333333337</ele><time>2026-04-06T09:47:28.998Z</time></trkpt><trkpt lat="43.704605" lon="12.6007"><ele>456.0</ele><time>2026-04-06T09:47:29.998Z</time></trkpt><trkpt lat="43.704575" lon="12.6008067"><ele>454.66666666666663</ele><time>2026-04-06T09:47:30.998Z</time></trkpt><trkpt lat="43.7045133" lon="12.60086"><ele>453.3333333333333</ele><time>2026-04-06T09:47:31.998Z</time></trkpt><trkpt lat="43.7044183" lon="12.6008717"><ele>452.0</ele><time>2026-04-06T09:47:32.998Z</time></trkpt><trkpt lat="43.70431" lon="12.6008217"><ele>452.0</ele><time>2026-04-06T09:47:33.998Z</time></trkpt><trkpt lat="43.70419" lon="12.60073"><ele>452.0</ele><time>2026-04-06T09:47:34.998Z</time></trkpt><trkpt lat="43.70407" lon="12.60062"><ele>452.0</ele><time>2026-04-06T09:47:35.998Z</time></trkpt><trkpt lat="43.7039483" lon="12.6005167"><ele>452.0</ele><time>2026-04-06T09:47:36.998Z</time></trkpt><trkpt lat="43.7038383" lon="12.6004267"><ele>452.0</ele><time>2026-04-06T09:47:37.998Z</time></trkpt><trkpt lat="43.703725" lon="12.6003383"><ele>452.0</ele><time>2026-04-06T09:47:38.998Z</time></trkpt><trkpt lat="43.7035917" lon="12.6003083"><ele>452.0</ele><time>2026-04-06T09:47:39.998Z</time></trkpt><trkpt lat="43.7034517" lon="12.6003117"><ele>452.0</ele><time>2026-04-06T09:47:40.998Z</time></trkpt><trkpt lat="43.703295" lon="12.6003417"><ele>450.75</ele><time>2026-04-06T09:47:41.998Z</time></trkpt><trkpt lat="43.7031517" lon="12.6003583"><ele>449.5</ele><time>2026-04-06T09:47:42.998Z</time></trkpt><trkpt lat="43.7030183" lon="12.6003683"><ele>448.25</ele><time>2026-04-06T09:47:43.998Z</time></trkpt><trkpt lat="43.7028933" lon="12.6004117"><ele>447.0</ele><time>2026-04-06T09:47:44.998Z</time></trkpt><trkpt lat="43.7027833" lon="12.6005383"><ele>449.25</ele><time>2026-04-06T09:47:45.998Z</time></trkpt><trkpt lat="43.70267" lon="12.6006667"><ele>451.5</ele><time>2026-04-06T09:47:46.998Z</time></trkpt><trkpt lat="43.7025833" lon="12.6008233"><ele>453.75</ele><time>2026-04-06T09:47:47.998Z</time></trkpt><trkpt lat="43.70252" lon="12.6010067"><ele>456.0</ele><time>2026-04-06T09:47:48.998Z</time></trkpt><trkpt lat="43.7025017" lon="12.6012083"><ele>456.0</ele><time>2026-04-06T09:47:49.998Z</time></trkpt><trkpt lat="43.7025233" lon="12.6014217"><ele>456.0</ele><time>2026-04-06T09:47:50.998Z</time></trkpt><trkpt lat="43.702565" lon="12.6016317"><ele>456.0</ele><time>2026-04-06T09:47:51.998Z</time></trkpt><trkpt lat="43.7025983" lon="12.601855"><ele>456.0</ele><time>2026-04-06T09:47:52.998Z</time></trkpt><trkpt lat="43.7026267" lon="12.6020567"><ele>456.0</ele><time>2026-04-06T09:47:53.998Z</time></trkpt><trkpt lat="43.7026417" lon="12.6022683"><ele>456.0</ele><time>2026-04-06T09:47:54.998Z</time></trkpt><trkpt lat="43.7026533" lon="12.6024683"><ele>456.0</ele><time>2026-04-06T09:47:55.998Z</time></trkpt><trkpt lat="43.702705" lon="12.602675"><ele>450.25</ele><time>2026-04-06T09:47:56.998Z</time></trkpt><trkpt lat="43.70275" lon="12.6028733"><ele>444.5</ele><time>2026-04-06T09:47:57.998Z</time></trkpt><trkpt lat="43.7027933" lon="12.6030617"><ele>438.75</ele><time>2026-04-06T09:47:58.998Z</time></trkpt><trkpt lat="43.7028367" lon="12.6032283"><ele>433.0</ele><time>2026-04-06T09:47:59.998Z</time></trkpt><trkpt lat="43.7029217" lon="12.60339"><ele>433.0</ele><time>2026-04-06T09:48:00.998Z</time></trkpt><trkpt lat="43.7030117" lon="12.6035217"><ele>433.0</ele><time>2026-04-06T09:48:01.998Z</time></trkpt><trkpt lat="43.7031417" lon="12.6036133"><ele>433.0</ele><time>2026-04-06T09:48:02.998Z</time></trkpt><trkpt lat="43.70328" lon="12.6036733"><ele>433.0</ele><time>2026-04-06T09:48:03.998Z</time></trkpt><trkpt lat="43.7034083" lon="12.6037767"><ele>434.0</ele><time>2026-04-06T09:48:04.998Z</time></trkpt><trkpt lat="43.703515" lon="12.603905"><ele>435.0</ele><time>2026-04-06T09:48:05.998Z</time></trkpt><trkpt lat="43.7036067" lon="12.6040583"><ele>436.0</ele><time>2026-04-06T09:48:06.998Z</time></trkpt><trkpt lat="43.7037" lon="12.604205"><ele>437.0</ele><time>2026-04-06T09:48:07.998Z</time></trkpt><trkpt lat="43.7038017" lon="12.604335"><ele>434.75</ele><time>2026-04-06T09:48:08.998Z</time></trkpt><trkpt lat="43.7039167" lon="12.6044317"><ele>432.5</ele><time>2026-04-06T09:48:09.997Z</time></trkpt><trkpt lat="43.70404" lon="12.6044767"><ele>430.25</ele><time>2026-04-06T09:48:10.998Z</time></trkpt><trkpt lat="43.70417" lon="12.60447"><ele>428.0</ele><time>2026-04-06T09:48:11.998Z</time></trkpt><trkpt lat="43.7043083" lon="12.6044617"><ele>427.5</ele><time>2026-04-06T09:48:12.997Z</time></trkpt><trkpt lat="43.7044533" lon="12.6044767"><ele>427.0</ele><time>2026-04-06T09:48:13.998Z</time></trkpt><trkpt lat="43.7045867" lon="12.6045367"><ele>426.5</ele><time>2026-04-06T09:48:14.998Z</time></trkpt><trkpt lat="43.7047033" lon="12.6046383"><ele>426.0</ele><time>2026-04-06T09:48:15.998Z</time></trkpt><trkpt lat="43.704825" lon="12.6047467"><ele>426.0</ele><time>2026-04-06T09:48:16.998Z</time></trkpt><trkpt lat="43.7049317" lon="12.604865"><ele>426.0</ele><time>2026-04-06T09:48:17.997Z</time></trkpt><trkpt lat="43.7050217" lon="12.604985"><ele>426.0</ele><time>2026-04-06T09:48:18.998Z</time></trkpt><trkpt lat="43.7050983" lon="12.6051133"><ele>426.0</ele><time>2026-04-06T09:48:19.998Z</time></trkpt><trkpt lat="43.70516" lon="12.6052567"><ele>425.5</ele><time>2026-04-06T09:48:20.998Z</time></trkpt><trkpt lat="43.7052117" lon="12.60542"><ele>425.0</ele><time>2026-04-06T09:48:21.998Z</time></trkpt><trkpt lat="43.70527" lon="12.6055833"><ele>424.5</ele><time>2026-04-06T09:48:22.998Z</time></trkpt><trkpt lat="43.70534" lon="12.6057583"><ele>424.0</ele><time>2026-04-06T09:48:23.998Z</time></trkpt><trkpt lat="43.7054" lon="12.6059583"><ele>424.0</ele><time>2026-04-06T09:48:24.998Z</time></trkpt><trkpt lat="43.7054517" lon="12.6061583"><ele>424.0</ele><time>2026-04-06T09:48:25.998Z</time></trkpt><trkpt lat="43.705495" lon="12.6063733"><ele>424.0</ele><time>2026-04-06T09:48:26.998Z</time></trkpt><trkpt lat="43.7055717" lon="12.60657"><ele>425.33333333333337</ele><time>2026-04-06T09:48:27.998Z</time></trkpt><trkpt lat="43.7056833" lon="12.6067483"><ele>426.66666666666663</ele><time>2026-04-06T09:48:28.998Z</time></trkpt><trkpt lat="43.7058033" lon="12.6069"><ele>428.0</ele><time>2026-04-06T09:48:29.998Z</time></trkpt><trkpt lat="43.7059667" lon="12.607035"><ele>429.3333333333333</ele><time>2026-04-06T09:48:30.998Z</time></trkpt><trkpt lat="43.7061217" lon="12.6071833"><ele>430.66666666666663</ele><time>2026-04-06T09:48:31.998Z</time></trkpt><trkpt lat="43.706275" lon="12.60735"><ele>432.0</ele><time>2026-04-06T09:48:32.998Z</time></trkpt><trkpt lat="43.7064133" lon="12.6075317"><ele>432.0</ele><time>2026-04-06T09:48:33.998Z</time></trkpt><trkpt lat="43.706555" lon="12.6077083"><ele>432.0</ele><time>2026-04-06T09:48:34.998Z</time></trkpt><trkpt lat="43.7067" lon="12.6078733"><ele>432.0</ele><time>2026-04-06T09:48:35.998Z</time></trkpt><trkpt lat="43.70684" lon="12.608045"><ele>435.66666666666663</ele><time>2026-04-06T09:48:36.998Z</time></trkpt><trkpt lat="43.7069633" lon="12.6082233"><ele>439.3333333333333</ele><time>2026-04-06T09:48:37.998Z</time></trkpt><trkpt lat="43.7070783" lon="12.6084417"><ele>443.0</ele><time>2026-04-06T09:48:38.998Z</time></trkpt><trkpt lat="43.70719" lon="12.6086583"><ele>437.66666666666663</ele><time>2026-04-06T09:48:39.998Z</time></trkpt><trkpt lat="43.7072833" lon="12.60887"><ele>432.33333333333337</ele><time>2026-04-06T09:48:40.998Z</time></trkpt><trkpt lat="43.707375" lon="12.6090567"><ele>427.0</ele><time>2026-04-06T09:48:41.998Z</time></trkpt><trkpt lat="43.7074833" lon="12.609225"><ele>427.0</ele><time>2026-04-06T09:48:42.998Z</time></trkpt><trkpt lat="43.70759" lon="12.6093717"><ele>427.0</ele><time>2026-04-06T09:48:43.998Z</time></trkpt><trkpt lat="43.7077433" lon="12.609455"><ele>427.0</ele><time>2026-04-06T09:48:44.998Z</time></trkpt><trkpt lat="43.707905" lon="12.6095083"><ele>428.0</ele><time>2026-04-06T09:48:45.998Z</time></trkpt><trkpt lat="43.7081283" lon="12.6094833"><ele>429.0</ele><time>2026-04-06T09:48:46.998Z</time></trkpt><trkpt lat="43.7083117" lon="12.6094683"><ele>430.0</ele><time>2026-04-06T09:48:47.998Z</time></trkpt><trkpt lat="43.7084867" lon="12.6094467"><ele>426.6666666666667</ele><time>2026-04-06T09:48:48.998Z</time></trkpt><trkpt lat="43.7086467" lon="12.6094033"><ele>423.33333333333337</ele><time>2026-04-06T09:48:49.998Z</time></trkpt><trkpt lat="43.7087933" lon="12.6093383"><ele>420.0</ele><time>2026-04-06T09:48:50.998Z</time></trkpt><trkpt lat="43.7089183" lon="12.6092217"><ele>420.0</ele><time>2026-04-06T09:48:51.998Z</time></trkpt><trkpt lat="43.7090317" lon="12.6091417"><ele>420.0</ele><time>2026-04-06T09:48:52.998Z</time></trkpt><trkpt lat="43.7091233" lon="12.6091367"><ele>420.0</ele><time>2026-04-06T09:48:53.998Z</time></trkpt><trkpt lat="43.709205" lon="12.6092283"><ele>420.0</ele><time>2026-04-06T09:48:54.998Z</time></trkpt><trkpt lat="43.7092533" lon="12.6093717"><ele>420.0</ele><time>2026-04-06T09:48:55.998Z</time></trkpt><trkpt lat="43.7092733" lon="12.6095433"><ele>419.25</ele><time>2026-04-06T09:48:56.998Z</time></trkpt><trkpt lat="43.7092917" lon="12.6097467"><ele>418.5</ele><time>2026-04-06T09:48:57.998Z</time></trkpt><trkpt lat="43.70935" lon="12.6099333"><ele>417.75</ele><time>2026-04-06T09:48:58.998Z</time></trkpt><trkpt lat="43.70943" lon="12.6101133"><ele>417.0</ele><time>2026-04-06T09:48:59.998Z</time></trkpt><trkpt lat="43.7095483" lon="12.61027"><ele>415.0</ele><time>2026-04-06T09:49:00.998Z</time></trkpt><trkpt lat="43.7097" lon="12.610435"><ele>413.0</ele><time>2026-04-06T09:49:01.998Z</time></trkpt><trkpt lat="43.7098467" lon="12.6106033"><ele>411.0</ele><time>2026-04-06T09:49:02.998Z</time></trkpt><trkpt lat="43.7099733" lon="12.610795"><ele>411.0</ele><time>2026-04-06T09:49:03.998Z</time></trkpt><trkpt lat="43.7100683" lon="12.6110217"><ele>411.0</ele><time>2026-04-06T09:49:04.998Z</time></trkpt><trkpt lat="43.71017" lon="12.611245"><ele>411.0</ele><time>2026-04-06T09:49:05.998Z</time></trkpt><trkpt lat="43.7102817" lon="12.6114483"><ele>410.66666666666663</ele><time>2026-04-06T09:49:06.998Z</time></trkpt><trkpt lat="43.71042" lon="12.6116267"><ele>410.3333333333333</ele><time>2026-04-06T09:49:07.998Z</time></trkpt><trkpt lat="43.7105733" lon="12.6117733"><ele>410.0</ele><time>2026-04-06T09:49:08.998Z</time></trkpt><trkpt lat="43.71071" lon="12.6119283"><ele>412.0</ele><time>2026-04-06T09:49:09.998Z</time></trkpt><trkpt lat="43.7108433" lon="12.6120833"><ele>414.0</ele><time>2026-04-06T09:49:10.998Z</time></trkpt><trkpt lat="43.71094" lon="12.612285"><ele>416.0</ele><time>2026-04-06T09:49:11.998Z</time></trkpt><trkpt lat="43.7109933" lon="12.612515"><ele>416.0</ele><time>2026-04-06T09:49:12.998Z</time></trkpt><trkpt lat="43.71099" lon="12.6127617"><ele>416.0</ele><time>2026-04-06T09:49:13.998Z</time></trkpt><trkpt lat="43.7109617" lon="12.6129983"><ele>416.0</ele><time>2026-04-06T09:49:14.998Z</time></trkpt><trkpt lat="43.7108517" lon="12.61323"><ele>417.66666666666663</ele><time>2026-04-06T09:49:15.998Z</time></trkpt><trkpt lat="43.71073" lon="12.6133867"><ele>419.33333333333337</ele><time>2026-04-06T09:49:16.998Z</time></trkpt><trkpt lat="43.7105967" lon="12.6135"><ele>421.0</ele><time>2026-04-06T09:49:17.998Z</time></trkpt><trkpt lat="43.7104867" lon="12.6136133"><ele>420.25</ele><time>2026-04-06T09:49:18.998Z</time></trkpt><trkpt lat="43.710405" lon="12.6137567"><ele>419.5</ele><time>2026-04-06T09:49:19.998Z</time></trkpt><trkpt lat="43.71036" lon="12.61391"><ele>418.75</ele><time>2026-04-06T09:49:20.998Z</time></trkpt><trkpt lat="43.710355" lon="12.61406"><ele>418.0</ele><time>2026-04-06T09:49:21.998Z</time></trkpt><trkpt lat="43.71039" lon="12.6141883"><ele>418.0</ele><time>2026-04-06T09:49:22.998Z</time></trkpt><trkpt lat="43.7104767" lon="12.6142617"><ele>418.0</ele><time>2026-04-06T09:49:23.998Z</time></trkpt><trkpt lat="43.7105867" lon="12.6142767"><ele>418.0</ele><time>2026-04-06T09:49:24.998Z</time></trkpt><trkpt lat="43.71073" lon="12.6142283"><ele>418.0</ele><time>2026-04-06T09:49:25.998Z</time></trkpt><trkpt lat="43.710895" lon="12.6141733"><ele>418.0</ele><time>2026-04-06T09:49:26.998Z</time></trkpt><trkpt lat="43.7110633" lon="12.6141617"><ele>418.0</ele><time>2026-04-06T09:49:27.998Z</time></trkpt><trkpt lat="43.7112317" lon="12.6141833"><ele>418.0</ele><time>2026-04-06T09:49:28.998Z</time></trkpt><trkpt lat="43.7113817" lon="12.61423"><ele>418.5</ele><time>2026-04-06T09:49:29.998Z</time></trkpt><trkpt lat="43.7114883" lon="12.614325"><ele>419.0</ele><time>2026-04-06T09:49:30.998Z</time></trkpt><trkpt lat="43.711565" lon="12.6144817"><ele>419.5</ele><time>2026-04-06T09:49:31.998Z</time></trkpt><trkpt lat="43.7116217" lon="12.61466"><ele>420.0</ele><time>2026-04-06T09:49:32.998Z</time></trkpt><trkpt lat="43.7116883" lon="12.6148467"><ele>420.5</ele><time>2026-04-06T09:49:33.998Z</time></trkpt><trkpt lat="43.71178" lon="12.6150017"><ele>421.0</ele><time>2026-04-06T09:49:34.998Z</time></trkpt><trkpt lat="43.711885" lon="12.6151283"><ele>421.5</ele><time>2026-04-06T09:49:35.998Z</time></trkpt><trkpt lat="43.7119933" lon="12.615225"><ele>422.0</ele><time>2026-04-06T09:49:36.998Z</time></trkpt><trkpt lat="43.71211" lon="12.6153117"><ele>422.0</ele><time>2026-04-06T09:49:37.998Z</time></trkpt><trkpt lat="43.7122267" lon="12.6154017"><ele>422.0</ele><time>2026-04-06T09:49:38.998Z</time></trkpt><trkpt lat="43.7123383" lon="12.615485"><ele>422.0</ele><time>2026-04-06T09:49:39.998Z</time></trkpt><trkpt lat="43.7124433" lon="12.6155767"><ele>422.0</ele><time>2026-04-06T09:49:40.998Z</time></trkpt><trkpt lat="43.712545" lon="12.61569"><ele>422.0</ele><time>2026-04-06T09:49:41.998Z</time></trkpt><trkpt lat="43.7126217" lon="12.615835"><ele>422.0</ele><time>2026-04-06T09:49:42.998Z</time></trkpt><trkpt lat="43.7126817" lon="12.616005"><ele>422.0</ele><time>2026-04-06T09:49:43.998Z</time></trkpt><trkpt lat="43.71271" lon="12.6161983"><ele>422.0</ele><time>2026-04-06T09:49:44.998Z</time></trkpt><trkpt lat="43.7127267" lon="12.6163983"><ele>424.0</ele><time>2026-04-06T09:49:45.998Z</time></trkpt><trkpt lat="43.712745" lon="12.616605"><ele>426.0</ele><time>2026-04-06T09:49:46.998Z</time></trkpt><trkpt lat="43.7127683" lon="12.6168133"><ele>428.0</ele><time>2026-04-06T09:49:47.998Z</time></trkpt><trkpt lat="43.7128017" lon="12.6170117"><ele>428.75</ele><time>2026-04-06T09:49:48.998Z</time></trkpt><trkpt lat="43.712845" lon="12.6171983"><ele>429.5</ele><time>2026-04-06T09:49:49.998Z</time></trkpt><trkpt lat="43.7128883" lon="12.61738"><ele>430.25</ele><time>2026-04-06T09:49:50.998Z</time></trkpt><trkpt lat="43.7129233" lon="12.6175533"><ele>431.0</ele><time>2026-04-06T09:49:51.998Z</time></trkpt><trkpt lat="43.7129417" lon="12.61772"><ele>432.25</ele><time>2026-04-06T09:49:52.998Z</time></trkpt><trkpt lat="43.7129283" lon="12.6178917"><ele>433.5</ele><time>2026-04-06T09:49:53.998Z</time></trkpt><trkpt lat="43.7129067" lon="12.61806"><ele>434.75</ele><time>2026-04-06T09:49:54.998Z</time></trkpt><trkpt lat="43.7128617" lon="12.6182333"><ele>436.0</ele><time>2026-04-06T09:49:55.998Z</time></trkpt><trkpt lat="43.7128367" lon="12.6184"><ele>436.0</ele><time>2026-04-06T09:49:56.998Z</time></trkpt><trkpt lat="43.7127917" lon="12.61856"><ele>436.0</ele><time>2026-04-06T09:49:57.998Z</time></trkpt><trkpt lat="43.71272" lon="12.618725"><ele>436.0</ele><time>2026-04-06T09:49:58.998Z</time></trkpt><trkpt lat="43.7126683" lon="12.6188633"><ele>436.0</ele><time>2026-04-06T09:49:59.998Z</time></trkpt><trkpt lat="43.71265" lon="12.61902"><ele>436.5</ele><time>2026-04-06T09:50:00.998Z</time></trkpt><trkpt lat="43.7126683" lon="12.61917"><ele>437.0</ele><time>2026-04-06T09:50:01.998Z</time></trkpt><trkpt lat="43.7127067" lon="12.619325"><ele>437.5</ele><time>2026-04-06T09:50:02.998Z</time></trkpt><trkpt lat="43.712775" lon="12.6194517"><ele>438.0</ele><time>2026-04-06T09:50:03.998Z</time></trkpt><trkpt lat="43.7128333" lon="12.619595"><ele>436.0</ele><time>2026-04-06T09:50:04.998Z</time></trkpt><trkpt lat="43.712905" lon="12.6197267"><ele>434.0</ele><time>2026-04-06T09:50:05.998Z</time></trkpt><trkpt lat="43.7129867" lon="12.6198433"><ele>432.0</ele><time>2026-04-06T09:50:06.998Z</time></trkpt><trkpt lat="43.7130867" lon="12.6199433"><ele>430.0</ele><time>2026-04-06T09:50:07.998Z</time></trkpt><trkpt lat="43.713185" lon="12.6200433"><ele>430.0</ele><time>2026-04-06T09:50:08.998Z</time></trkpt><trkpt lat="43.713265" lon="12.620165"><ele>430.0</ele><time>2026-04-06T09:50:09.998Z</time></trkpt><trkpt lat="43.7133317" lon="12.62031"><ele>430.0</ele><time>2026-04-06T09:50:10.998Z</time></trkpt><trkpt lat="43.7133867" lon="12.62046"><ele>430.0</ele><time>2026-04-06T09:50:11.998Z</time></trkpt><trkpt lat="43.713425" lon="12.620625"><ele>430.0</ele><time>2026-04-06T09:50:12.998Z</time></trkpt><trkpt lat="43.7134667" lon="12.6207683"><ele>430.0</ele><time>2026-04-06T09:50:13.998Z</time></trkpt><trkpt lat="43.7135317" lon="12.6208867"><ele>430.0</ele><time>2026-04-06T09:50:14.998Z</time></trkpt><trkpt lat="43.7136183" lon="12.620975"><ele>430.0</ele><time>2026-04-06T09:50:15.998Z</time></trkpt><trkpt lat="43.71372" lon="12.6210383"><ele>430.0</ele><time>2026-04-06T09:50:16.998Z</time></trkpt><trkpt lat="43.7138267" lon="12.62109"><ele>430.0</ele><time>2026-04-06T09:50:17.998Z</time></trkpt><trkpt lat="43.7139283" lon="12.621135"><ele>430.0</ele><time>2026-04-06T09:50:18.998Z</time></trkpt><trkpt lat="43.7140167" lon="12.6211917"><ele>430.0</ele><time>2026-04-06T09:50:19.998Z</time></trkpt><trkpt lat="43.71408" lon="12.6212883"><ele>430.0</ele><time>2026-04-06T09:50:20.998Z</time></trkpt><trkpt lat="43.7141167" lon="12.621395"><ele>430.0</ele><time>2026-04-06T09:50:21.998Z</time></trkpt><trkpt lat="43.714135" lon="12.6215033"><ele>429.5</ele><time>2026-04-06T09:50:22.998Z</time></trkpt><trkpt lat="43.7141317" lon="12.621625"><ele>429.0</ele><time>2026-04-06T09:50:23.998Z</time></trkpt><trkpt lat="43.7140867" lon="12.6217633"><ele>428.5</ele><time>2026-04-06T09:50:24.998Z</time></trkpt><trkpt lat="43.7140283" lon="12.6219067"><ele>428.0</ele><time>2026-04-06T09:50:25.998Z</time></trkpt><trkpt lat="43.7138967" lon="12.6220783"><ele>429.66666666666663</ele><time>2026-04-06T09:50:26.998Z</time></trkpt><trkpt lat="43.7137783" lon="12.6222433"><ele>431.33333333333337</ele><time>2026-04-06T09:50:27.998Z</time></trkpt><trkpt lat="43.71368" lon="12.6224067"><ele>433.0</ele><time>2026-04-06T09:50:28.998Z</time></trkpt><trkpt lat="43.7135883" lon="12.6225867"><ele>429.75</ele><time>2026-04-06T09:50:29.997Z</time></trkpt><trkpt lat="43.7135133" lon="12.6227667"><ele>426.5</ele><time>2026-04-06T09:50:30.998Z</time></trkpt><trkpt lat="43.713455" lon="12.6229467"><ele>423.25</ele><time>2026-04-06T09:50:31.998Z</time></trkpt><trkpt lat="43.7134133" lon="12.6231267"><ele>420.0</ele><time>2026-04-06T09:50:32.998Z</time></trkpt><trkpt lat="43.713375" lon="12.6233017"><ele>420.0</ele><time>2026-04-06T09:50:33.998Z</time></trkpt><trkpt lat="43.713345" lon="12.6234783"><ele>420.0</ele><time>2026-04-06T09:50:34.998Z</time></trkpt><trkpt lat="43.7133567" lon="12.6236383"><ele>420.0</ele><time>2026-04-06T09:50:35.998Z</time></trkpt><trkpt lat="43.7133933" lon="12.6237967"><ele>420.0</ele><time>2026-04-06T09:50:36.998Z</time></trkpt><trkpt lat="43.71347" lon="12.6239367"><ele>419.25</ele><time>2026-04-06T09:50:37.998Z</time></trkpt><trkpt lat="43.7135567" lon="12.62408"><ele>418.5</ele><time>2026-04-06T09:50:38.998Z</time></trkpt><trkpt lat="43.7136417" lon="12.6242117"><ele>417.75</ele><time>2026-04-06T09:50:39.998Z</time></trkpt><trkpt lat="43.7137367" lon="12.624335"><ele>417.0</ele><time>2026-04-06T09:50:40.998Z</time></trkpt><trkpt lat="43.713815" lon="12.624455"><ele>417.0</ele><time>2026-04-06T09:50:41.998Z</time></trkpt><trkpt lat="43.713875" lon="12.6245883"><ele>417.0</ele><time>2026-04-06T09:50:42.998Z</time></trkpt><trkpt lat="43.71397" lon="12.6247133"><ele>417.0</ele><time>2026-04-06T09:50:43.998Z</time></trkpt><trkpt lat="43.71408" lon="12.6248383"><ele>417.0</ele><time>2026-04-06T09:50:44.998Z</time></trkpt><trkpt lat="43.7141967" lon="12.6249683"><ele>417.0</ele><time>2026-04-06T09:50:45.998Z</time></trkpt><trkpt lat="43.7143417" lon="12.6250833"><ele>417.0</ele><time>2026-04-06T09:50:46.998Z</time></trkpt><trkpt lat="43.714465" lon="12.6251833"><ele>417.0</ele><time>2026-04-06T09:50:47.998Z</time></trkpt><trkpt lat="43.7145783" lon="12.6252817"><ele>417.0</ele><time>2026-04-06T09:50:48.998Z</time></trkpt><trkpt lat="43.7147" lon="12.6253767"><ele>416.5</ele><time>2026-04-06T09:50:49.998Z</time></trkpt><trkpt lat="43.7148183" lon="12.6254617"><ele>416.0</ele><time>2026-04-06T09:50:50.998Z</time></trkpt><trkpt lat="43.714935" lon="12.62555"><ele>415.5</ele><time>2026-04-06T09:50:51.998Z</time></trkpt><trkpt lat="43.71505" lon="12.62562"><ele>415.0</ele><time>2026-04-06T09:50:52.998Z</time></trkpt><trkpt lat="43.7151583" lon="12.6256633"><ele>414.0</ele><time>2026-04-06T09:50:53.998Z</time></trkpt><trkpt lat="43.7152733" lon="12.62566"><ele>413.0</ele><time>2026-04-06T09:50:54.998Z</time></trkpt><trkpt lat="43.7154017" lon="12.6255983"><ele>412.0</ele><time>2026-04-06T09:50:55.998Z</time></trkpt><trkpt lat="43.7155233" lon="12.6255233"><ele>411.0</ele><time>2026-04-06T09:50:56.998Z</time></trkpt><trkpt lat="43.7156367" lon="12.6254633"><ele>411.0</ele><time>2026-04-06T09:50:57.998Z</time></trkpt><trkpt lat="43.7157583" lon="12.625435"><ele>411.0</ele><time>2026-04-06T09:50:58.998Z</time></trkpt><trkpt lat="43.71588" lon="12.6254367"><ele>411.0</ele><time>2026-04-06T09:50:59.998Z</time></trkpt><trkpt lat="43.7160083" lon="12.6254467"><ele>411.0</ele><time>2026-04-06T09:51:00.998Z</time></trkpt><trkpt lat="43.7161417" lon="12.6254717"><ele>413.25</ele><time>2026-04-06T09:51:01.998Z</time></trkpt><trkpt lat="43.716265" lon="12.62552"><ele>415.5</ele><time>2026-04-06T09:51:02.997Z</time></trkpt><trkpt lat="43.7163833" lon="12.6255983"><ele>417.75</ele><time>2026-04-06T09:51:03.998Z</time></trkpt><trkpt lat="43.71649" lon="12.6257033"><ele>420.0</ele><time>2026-04-06T09:51:04.998Z</time></trkpt><trkpt lat="43.7165817" lon="12.6258367"><ele>420.0</ele><time>2026-04-06T09:51:05.998Z</time></trkpt><trkpt lat="43.7166367" lon="12.626005"><ele>420.0</ele><time>2026-04-06T09:51:06.998Z</time></trkpt><trkpt lat="43.7167067" lon="12.6261667"><ele>420.0</ele><time>2026-04-06T09:51:07.998Z</time></trkpt><trkpt lat="43.716765" lon="12.6263233"><ele>420.0</ele><time>2026-04-06T09:51:08.998Z</time></trkpt><trkpt lat="43.7168183" lon="12.6264667"><ele>418.5</ele><time>2026-04-06T09:51:09.998Z</time></trkpt><trkpt lat="43.7168833" lon="12.6266"><ele>417.0</ele><time>2026-04-06T09:51:10.998Z</time></trkpt><trkpt lat="43.7169583" lon="12.6267133"><ele>415.5</ele><time>2026-04-06T09:51:11.998Z</time></trkpt><trkpt lat="43.7170633" lon="12.6268133"><ele>414.0</ele><time>2026-04-06T09:51:12.998Z</time></trkpt><trkpt lat="43.7171733" lon="12.62689"><ele>416.75</ele><time>2026-04-06T09:51:13.998Z</time></trkpt><trkpt lat="43.71728" lon="12.62698"><ele>419.5</ele><time>2026-04-06T09:51:14.998Z</time></trkpt><trkpt lat="43.7173917" lon="12.62707"><ele>422.25</ele><time>2026-04-06T09:51:15.998Z</time></trkpt><trkpt lat="43.717485" lon="12.62719"><ele>425.0</ele><time>2026-04-06T09:51:16.998Z</time></trkpt><trkpt lat="43.7175683" lon="12.627325"><ele>425.0</ele><time>2026-04-06T09:51:17.998Z</time></trkpt><trkpt lat="43.7176483" lon="12.6274633"><ele>425.0</ele><time>2026-04-06T09:51:18.998Z</time></trkpt><trkpt lat="43.7177217" lon="12.6276083"><ele>425.0</ele><time>2026-04-06T09:51:19.998Z</time></trkpt><trkpt lat="43.71781" lon="12.62775"><ele>425.0</ele><time>2026-04-06T09:51:20.998Z</time></trkpt><trkpt lat="43.7179" lon="12.6278933"><ele>426.5</ele><time>2026-04-06T09:51:21.998Z</time></trkpt><trkpt lat="43.7179917" lon="12.62803"><ele>428.0</ele><time>2026-04-06T09:51:22.998Z</time></trkpt><trkpt lat="43.7181017" lon="12.6281483"><ele>429.5</ele><time>2026-04-06T09:51:23.998Z</time></trkpt><trkpt lat="43.718205" lon="12.6282583"><ele>431.0</ele><time>2026-04-06T09:51:24.998Z</time></trkpt><trkpt lat="43.7183117" lon="12.62834"><ele>431.0</ele><time>2026-04-06T09:51:25.998Z</time></trkpt><trkpt lat="43.7184167" lon="12.628415"><ele>431.0</ele><time>2026-04-06T09:51:26.998Z</time></trkpt><trkpt lat="43.7185217" lon="12.6284717"><ele>431.0</ele><time>2026-04-06T09:51:27.998Z</time></trkpt><trkpt lat="43.71863" lon="12.6285183"><ele>431.0</ele><time>2026-04-06T09:51:28.998Z</time></trkpt><trkpt lat="43.7187433" lon="12.6285383"><ele>432.25</ele><time>2026-04-06T09:51:29.998Z</time></trkpt><trkpt lat="43.7188567" lon="12.62854"><ele>433.5</ele><time>2026-04-06T09:51:30.998Z</time></trkpt><trkpt lat="43.7189717" lon="12.6285083"><ele>434.75</ele><time>2026-04-06T09:51:31.998Z</time></trkpt><trkpt lat="43.7190883" lon="12.628455"><ele>436.0</ele><time>2026-04-06T09:51:32.998Z</time></trkpt><trkpt lat="43.7192083" lon="12.628395"><ele>436.0</ele><time>2026-04-06T09:51:33.998Z</time></trkpt><trkpt lat="43.719315" lon="12.62835"><ele>436.0</ele><time>2026-04-06T09:51:34.998Z</time></trkpt><trkpt lat="43.7194317" lon="12.6283417"><ele>436.0</ele><time>2026-04-06T09:51:35.998Z</time></trkpt><trkpt lat="43.7195567" lon="12.628365"><ele>436.0</ele><time>2026-04-06T09:51:36.998Z</time></trkpt><trkpt lat="43.719685" lon="12.6284283"><ele>434.75</ele><time>2026-04-06T09:51:37.998Z</time></trkpt><trkpt lat="43.7198167" lon="12.62849"><ele>433.5</ele><time>2026-04-06T09:51:38.998Z</time></trkpt><trkpt lat="43.7199517" lon="12.628555"><ele>432.25</ele><time>2026-04-06T09:51:39.998Z</time></trkpt><trkpt lat="43.7200883" lon="12.62863"><ele>431.0</ele><time>2026-04-06T09:51:40.998Z</time></trkpt><trkpt lat="43.7202267" lon="12.6287117"><ele>428.0</ele><time>2026-04-06T09:51:41.998Z</time></trkpt><trkpt lat="43.7203467" lon="12.6288133"><ele>425.0</ele><time>2026-04-06T09:51:42.998Z</time></trkpt><trkpt lat="43.7204683" lon="12.6289133"><ele>422.0</ele><time>2026-04-06T09:51:43.998Z</time></trkpt><trkpt lat="43.7205817" lon="12.6289983"><ele>419.0</ele><time>2026-04-06T09:51:44.998Z</time></trkpt><trkpt lat="43.7206817" lon="12.6290767"><ele>419.0</ele><time>2026-04-06T09:51:45.998Z</time></trkpt><trkpt lat="43.72077" lon="12.6291533"><ele>419.0</ele><time>2026-04-06T09:51:46.998Z</time></trkpt><trkpt lat="43.7208517" lon="12.62921"><ele>419.0</ele><time>2026-04-06T09:51:47.998Z</time></trkpt><trkpt lat="43.7209317" lon="12.62927"><ele>419.0</ele><time>2026-04-06T09:51:48.998Z</time></trkpt><trkpt lat="43.7210067" lon="12.6293717"><ele>419.0</ele><time>2026-04-06T09:51:49.998Z</time></trkpt><trkpt lat="43.7210867" lon="12.6295117"><ele>423.0</ele><time>2026-04-06T09:51:50.998Z</time></trkpt><trkpt lat="43.7211617" lon="12.629695"><ele>427.0</ele><time>2026-04-06T09:51:51.998Z</time></trkpt><trkpt lat="43.7212383" lon="12.6299217"><ele>431.0</ele><time>2026-04-06T09:51:52.998Z</time></trkpt><trkpt lat="43.7213217" lon="12.6302017"><ele>430.0</ele><time>2026-04-06T09:51:53.998Z</time></trkpt><trkpt lat="43.7213883" lon="12.6304733"><ele>429.0</ele><time>2026-04-06T09:51:54.998Z</time></trkpt><trkpt lat="43.7214383" lon="12.6307433"><ele>428.0</ele><time>2026-04-06T09:51:55.998Z</time></trkpt><trkpt lat="43.7214883" lon="12.6309833"><ele>422.66666666666663</ele><time>2026-04-06T09:51:56.998Z</time></trkpt><trkpt lat="43.72154" lon="12.63121"><ele>417.33333333333337</ele><time>2026-04-06T09:51:57.998Z</time></trkpt><trkpt lat="43.7216167" lon="12.6314133"><ele>412.0</ele><time>2026-04-06T09:51:58.998Z</time></trkpt><trkpt lat="43.72171" lon="12.6316"><ele>412.0</ele><time>2026-04-06T09:51:59.998Z</time></trkpt><trkpt lat="43.721805" lon="12.6317833"><ele>412.0</ele><time>2026-04-06T09:52:00.998Z</time></trkpt><trkpt lat="43.7218883" lon="12.6319483"><ele>412.0</ele><time>2026-04-06T09:52:01.998Z</time></trkpt><trkpt lat="43.7219717" lon="12.6320867"><ele>412.0</ele><time>2026-04-06T09:52:02.998Z</time></trkpt><trkpt lat="43.7220633" lon="12.6322"><ele>410.0</ele><time>2026-04-06T09:52:03.998Z</time></trkpt><trkpt lat="43.7221617" lon="12.632285"><ele>408.0</ele><time>2026-04-06T09:52:04.998Z</time></trkpt><trkpt lat="43.7222817" lon="12.6323417"><ele>406.0</ele><time>2026-04-06T09:52:05.998Z</time></trkpt><trkpt lat="43.7224283" lon="12.632375"><ele>404.0</ele><time>2026-04-06T09:52:06.998Z</time></trkpt><trkpt lat="43.7225867" lon="12.6323867"><ele>411.3333333333333</ele><time>2026-04-06T09:52:07.998Z</time></trkpt><trkpt lat="43.7227417" lon="12.6324017"><ele>418.66666666666663</ele><time>2026-04-06T09:52:08.998Z</time></trkpt><trkpt lat="43.7228983" lon="12.63243"><ele>426.0</ele><time>2026-04-06T09:52:09.998Z</time></trkpt><trkpt lat="43.7230367" lon="12.63249"><ele>426.0</ele><time>2026-04-06T09:52:10.998Z</time></trkpt><trkpt lat="43.7231417" lon="12.6326033"><ele>426.0</ele><time>2026-04-06T09:52:11.998Z</time></trkpt><trkpt lat="43.7232083" lon="12.6327667"><ele>426.0</ele><time>2026-04-06T09:52:12.998Z</time></trkpt><trkpt lat="43.723235" lon="12.6329617"><ele>426.0</ele><time>2026-04-06T09:52:13.998Z</time></trkpt><trkpt lat="43.7232667" lon="12.6331733"><ele>422.25</ele><time>2026-04-06T09:52:14.998Z</time></trkpt><trkpt lat="43.7233033" lon="12.6333683"><ele>418.5</ele><time>2026-04-06T09:52:15.998Z</time></trkpt><trkpt lat="43.7233567" lon="12.6335483"><ele>414.75</ele><time>2026-04-06T09:52:16.998Z</time></trkpt><trkpt lat="43.7234217" lon="12.63371"><ele>411.0</ele><time>2026-04-06T09:52:17.998Z</time></trkpt><trkpt lat="43.7234983" lon="12.6338533"><ele>412.5</ele><time>2026-04-06T09:52:18.998Z</time></trkpt><trkpt lat="43.7235717" lon="12.6339917"><ele>414.0</ele><time>2026-04-06T09:52:19.998Z</time></trkpt><trkpt lat="43.7236167" lon="12.6341317"><ele>415.5</ele><time>2026-04-06T09:52:20.998Z</time></trkpt><trkpt lat="43.7236333" lon="12.63428"><ele>417.0</ele><time>2026-04-06T09:52:21.998Z</time></trkpt><trkpt lat="43.723625" lon="12.63444"><ele>416.5</ele><time>2026-04-06T09:52:22.998Z</time></trkpt><trkpt lat="43.723595" lon="12.63461"><ele>416.0</ele><time>2026-04-06T09:52:23.998Z</time></trkpt><trkpt lat="43.7235433" lon="12.6347883"><ele>415.5</ele><time>2026-04-06T09:52:24.998Z</time></trkpt><trkpt lat="43.7234867" lon="12.6349467"><ele>415.0</ele><time>2026-04-06T09:52:25.998Z</time></trkpt><trkpt lat="43.7234133" lon="12.6350717"><ele>413.75</ele><time>2026-04-06T09:52:26.998Z</time></trkpt><trkpt lat="43.72333" lon="12.63516"><ele>412.5</ele><time>2026-04-06T09:52:27.998Z</time></trkpt><trkpt lat="43.7232333" lon="12.6352367"><ele>411.25</ele><time>2026-04-06T09:52:28.998Z</time></trkpt><trkpt lat="43.72311" lon="12.63527"><ele>410.0</ele><time>2026-04-06T09:52:29.998Z</time></trkpt><trkpt lat="43.7229533" lon="12.635295"><ele>419.3333333333333</ele><time>2026-04-06T09:52:30.998Z</time></trkpt><trkpt lat="43.7227833" lon="12.6353167"><ele>428.66666666666663</ele><time>2026-04-06T09:52:31.998Z</time></trkpt><trkpt lat="43.72261" lon="12.6353683"><ele>438.0</ele><time>2026-04-06T09:52:32.998Z</time></trkpt><trkpt lat="43.7224217" lon="12.6354483"><ele>438.0</ele><time>2026-04-06T09:52:33.998Z</time></trkpt><trkpt lat="43.722195" lon="12.6355117"><ele>438.0</ele><time>2026-04-06T09:52:34.998Z</time></trkpt><trkpt lat="43.7219833" lon="12.6355567"><ele>438.0</ele><time>2026-04-06T09:52:35.998Z</time></trkpt><trkpt lat="43.7217767" lon="12.635605"><ele>433.33333333333337</ele><time>2026-04-06T09:52:36.998Z</time></trkpt><trkpt lat="43.7215867" lon="12.6356717"><ele>428.6666666666667</ele><time>2026-04-06T09:52:37.998Z</time></trkpt><trkpt lat="43.721395" lon="12.6357817"><ele>424.0</ele><time>2026-04-06T09:52:38.998Z</time></trkpt><trkpt lat="43.721225" lon="12.63589"><ele>424.0</ele><time>2026-04-06T09:52:39.998Z</time></trkpt><trkpt lat="43.7210783" lon="12.63602"><ele>424.0</ele><time>2026-04-06T09:52:40.998Z</time></trkpt><trkpt lat="43.7209383" lon="12.6361283"><ele>424.0</ele><time>2026-04-06T09:52:41.998Z</time></trkpt><trkpt lat="43.720805" lon="12.636225"><ele>422.0</ele><time>2026-04-06T09:52:42.998Z</time></trkpt><trkpt lat="43.7206933" lon="12.6363133"><ele>420.0</ele><time>2026-04-06T09:52:43.998Z</time></trkpt><trkpt lat="43.7206133" lon="12.6364167"><ele>418.0</ele><time>2026-04-06T09:52:44.998Z</time></trkpt><trkpt lat="43.720565" lon="12.6365433"><ele>416.0</ele><time>2026-04-06T09:52:45.998Z</time></trkpt><trkpt lat="43.7205567" lon="12.6366883"><ele>414.0</ele><time>2026-04-06T09:52:46.998Z</time></trkpt><trkpt lat="43.7206133" lon="12.6368383"><ele>411.33333333333337</ele><time>2026-04-06T09:52:47.998Z</time></trkpt><trkpt lat="43.720705" lon="12.6370183"><ele>408.6666666666667</ele><time>2026-04-06T09:52:48.998Z</time></trkpt><trkpt lat="43.7208217" lon="12.637215"><ele>406.0</ele><time>2026-04-06T09:52:49.998Z</time></trkpt><trkpt lat="43.72094" lon="12.6374183"><ele>406.0</ele><time>2026-04-06T09:52:50.998Z</time></trkpt><trkpt lat="43.721055" lon="12.6376017"><ele>406.0</ele><time>2026-04-06T09:52:51.998Z</time></trkpt><trkpt lat="43.72118" lon="12.637755"><ele>406.0</ele><time>2026-04-06T09:52:52.998Z</time></trkpt><trkpt lat="43.72128" lon="12.6379017"><ele>408.25</ele><time>2026-04-06T09:52:53.998Z</time></trkpt><trkpt lat="43.7213883" lon="12.63802"><ele>410.5</ele><time>2026-04-06T09:52:54.998Z</time></trkpt><trkpt lat="43.7214917" lon="12.63813"><ele>412.75</ele><time>2026-04-06T09:52:55.998Z</time></trkpt><trkpt lat="43.7216133" lon="12.6382217"><ele>415.0</ele><time>2026-04-06T09:52:56.998Z</time></trkpt><trkpt lat="43.721735" lon="12.6383133"><ele>415.0</ele><time>2026-04-06T09:52:57.998Z</time></trkpt><trkpt lat="43.7218617" lon="12.6384067"><ele>415.0</ele><time>2026-04-06T09:52:58.998Z</time></trkpt><trkpt lat="43.7219883" lon="12.6385017"><ele>415.0</ele><time>2026-04-06T09:52:59.998Z</time></trkpt><trkpt lat="43.72212" lon="12.638595"><ele>415.0</ele><time>2026-04-06T09:53:00.998Z</time></trkpt><trkpt lat="43.7222567" lon="12.6386917"><ele>411.0</ele><time>2026-04-06T09:53:01.998Z</time></trkpt><trkpt lat="43.7224017" lon="12.638795"><ele>407.0</ele><time>2026-04-06T09:53:02.998Z</time></trkpt><trkpt lat="43.7225317" lon="12.638915"><ele>403.0</ele><time>2026-04-06T09:53:03.998Z</time></trkpt><trkpt lat="43.7226533" lon="12.6390333"><ele>405.0</ele><time>2026-04-06T09:53:04.998Z</time></trkpt><trkpt lat="43.7227683" lon="12.6391417"><ele>407.0</ele><time>2026-04-06T09:53:05.998Z</time></trkpt><trkpt lat="43.7228967" lon="12.639225"><ele>409.0</ele><time>2026-04-06T09:53:06.998Z</time></trkpt><trkpt lat="43.7230083" lon="12.6392917"><ele>411.0</ele><time>2026-04-06T09:53:07.998Z</time></trkpt><trkpt lat="43.7231267" lon="12.6393233"><ele>411.0</ele><time>2026-04-06T09:53:08.998Z</time></trkpt><trkpt lat="43.72325" lon="12.6393083"><ele>411.0</ele><time>2026-04-06T09:53:09.998Z</time></trkpt><trkpt lat="43.7234533" lon="12.6392717"><ele>411.0</ele><time>2026-04-06T09:53:10.998Z</time></trkpt><trkpt lat="43.7236417" lon="12.6392633"><ele>411.33333333333337</ele><time>2026-04-06T09:53:11.998Z</time></trkpt><trkpt lat="43.723855" lon="12.6392783"><ele>411.6666666666667</ele><time>2026-04-06T09:53:12.998Z</time></trkpt><trkpt lat="43.7240433" lon="12.63931"><ele>412.0</ele><time>2026-04-06T09:53:13.998Z</time></trkpt><trkpt lat="43.724235" lon="12.6393633"><ele>413.33333333333337</ele><time>2026-04-06T09:53:14.998Z</time></trkpt><trkpt lat="43.7244267" lon="12.639405"><ele>414.66666666666663</ele><time>2026-04-06T09:53:15.998Z</time></trkpt><trkpt lat="43.7245983" lon="12.6394367"><ele>416.0</ele><time>2026-04-06T09:53:16.998Z</time></trkpt><trkpt lat="43.7247617" lon="12.6394817"><ele>407.3333333333333</ele><time>2026-04-06T09:53:17.998Z</time></trkpt><trkpt lat="43.72493" lon="12.6394833"><ele>398.66666666666663</ele><time>2026-04-06T09:53:18.998Z</time></trkpt><trkpt lat="43.7250633" lon="12.6395367"><ele>390.0</ele><time>2026-04-06T09:53:19.998Z</time></trkpt><trkpt lat="43.7252367" lon="12.6396483"><ele>390.0</ele><time>2026-04-06T09:53:20.998Z</time></trkpt><trkpt lat="43.725365" lon="12.639755"><ele>390.0</ele><time>2026-04-06T09:53:21.998Z</time></trkpt><trkpt lat="43.725495" lon="12.6398483"><ele>390.0</ele><time>2026-04-06T09:53:22.998Z</time></trkpt><trkpt lat="43.7256183" lon="12.6399"><ele>390.0</ele><time>2026-04-06T09:53:23.998Z</time></trkpt><trkpt lat="43.7257533" lon="12.63991"><ele>390.0</ele><time>2026-04-06T09:53:24.998Z</time></trkpt><trkpt lat="43.7258517" lon="12.6398833"><ele>390.0</ele><time>2026-04-06T09:53:25.998Z</time></trkpt><trkpt lat="43.7259717" lon="12.6398217"><ele>390.0</ele><time>2026-04-06T09:53:26.998Z</time></trkpt><trkpt lat="43.7260733" lon="12.63978"><ele>390.0</ele><time>2026-04-06T09:53:27.998Z</time></trkpt><trkpt lat="43.72618" lon="12.639755"><ele>390.0</ele><time>2026-04-06T09:53:28.998Z</time></trkpt><trkpt lat="43.7262733" lon="12.63974"><ele>388.5</ele><time>2026-04-06T09:53:29.998Z</time></trkpt><trkpt lat="43.7263483" lon="12.639745"><ele>387.0</ele><time>2026-04-06T09:53:30.998Z</time></trkpt><trkpt lat="43.72642" lon="12.63979"><ele>385.5</ele><time>2026-04-06T09:53:31.998Z</time></trkpt><trkpt lat="43.726485" lon="12.6398833"><ele>384.0</ele><time>2026-04-06T09:53:32.997Z</time></trkpt><trkpt lat="43.7265117" lon="12.6400083"><ele>382.5</ele><time>2026-04-06T09:53:33.998Z</time></trkpt><trkpt lat="43.7265133" lon="12.64013"><ele>381.0</ele><time>2026-04-06T09:53:34.998Z</time></trkpt><trkpt lat="43.7264983" lon="12.6402317"><ele>379.75</ele><time>2026-04-06T09:53:35.998Z</time></trkpt><trkpt lat="43.7264383" lon="12.640335"><ele>378.5</ele><time>2026-04-06T09:53:36.998Z</time></trkpt><trkpt lat="43.7263383" lon="12.640445"><ele>377.25</ele><time>2026-04-06T09:53:37.998Z</time></trkpt><trkpt lat="43.72622" lon="12.6405567"><ele>376.0</ele><time>2026-04-06T09:53:38.998Z</time></trkpt><trkpt lat="43.726115" lon="12.6406533"><ele>376.8</ele><time>2026-04-06T09:53:39.998Z</time></trkpt><trkpt lat="43.7260183" lon="12.6407433"><ele>377.6</ele><time>2026-04-06T09:53:40.998Z</time></trkpt><trkpt lat="43.7259367" lon="12.640815"><ele>378.4</ele><time>2026-04-06T09:53:41.998Z</time></trkpt><trkpt lat="43.7258383" lon="12.6408733"><ele>379.2</ele><time>2026-04-06T09:53:42.998Z</time></trkpt><trkpt lat="43.7257383" lon="12.64093"><ele>380.0</ele><time>2026-04-06T09:53:43.998Z</time></trkpt><trkpt lat="43.725655" lon="12.6409867"><ele>380.0</ele><time>2026-04-06T09:53:44.998Z</time></trkpt><trkpt lat="43.7255967" lon="12.6410583"><ele>380.0</ele><time>2026-04-06T09:53:45.998Z</time></trkpt><trkpt lat="43.7255567" lon="12.641145"><ele>380.0</ele><time>2026-04-06T09:53:46.998Z</time></trkpt><trkpt lat="43.72554" lon="12.64124"><ele>380.0</ele><time>2026-04-06T09:53:47.998Z</time></trkpt><trkpt lat="43.7255383" lon="12.6413417"><ele>380.0</ele><time>2026-04-06T09:53:48.998Z</time></trkpt><trkpt lat="43.7255617" lon="12.6414417"><ele>380.0</ele><time>2026-04-06T09:53:49.998Z</time></trkpt><trkpt lat="43.7256333" lon="12.6415"><ele>380.5</ele><time>2026-04-06T09:53:50.998Z</time></trkpt><trkpt lat="43.7257183" lon="12.6415"><ele>381.0</ele><time>2026-04-06T09:53:51.998Z</time></trkpt><trkpt lat="43.7258667" lon="12.6414317"><ele>381.5</ele><time>2026-04-06T09:53:52.998Z</time></trkpt><trkpt lat="43.72601" lon="12.6413633"><ele>382.0</ele><time>2026-04-06T09:53:53.998Z</time></trkpt><trkpt lat="43.7261483" lon="12.6413183"><ele>382.0</ele><time>2026-04-06T09:53:54.998Z</time></trkpt><trkpt lat="43.72627" lon="12.6413167"><ele>382.0</ele><time>2026-04-06T09:53:55.998Z</time></trkpt><trkpt lat="43.7263883" lon="12.64133"><ele>382.0</ele><time>2026-04-06T09:53:56.998Z</time></trkpt><trkpt lat="43.7265167" lon="12.6413467"><ele>382.0</ele><time>2026-04-06T09:53:57.998Z</time></trkpt><trkpt lat="43.7266283" lon="12.641365"><ele>382.0</ele><time>2026-04-06T09:53:58.998Z</time></trkpt><trkpt lat="43.7267367" lon="12.6413833"><ele>382.0</ele><time>2026-04-06T09:53:59.998Z</time></trkpt><trkpt lat="43.7268467" lon="12.6414033"><ele>382.0</ele><time>2026-04-06T09:54:00.998Z</time></trkpt><trkpt lat="43.7269567" lon="12.6414383"><ele>382.0</ele><time>2026-04-06T09:54:01.998Z</time></trkpt><trkpt lat="43.7270633" lon="12.641465"><ele>382.0</ele><time>2026-04-06T09:54:02.998Z</time></trkpt><trkpt lat="43.72717" lon="12.64149"><ele>379.8</ele><time>2026-04-06T09:54:03.998Z</time></trkpt><trkpt lat="43.72728" lon="12.6414983"><ele>377.6</ele><time>2026-04-06T09:54:04.998Z</time></trkpt><trkpt lat="43.72739" lon="12.64152"><ele>375.40000000000003</ele><time>2026-04-06T09:54:05.998Z</time></trkpt><trkpt lat="43.7275017" lon="12.6415383"><ele>373.20000000000005</ele><time>2026-04-06T09:54:06.998Z</time></trkpt><trkpt lat="43.7276083" lon="12.6415533"><ele>371.0</ele><time>2026-04-06T09:54:07.998Z</time></trkpt><trkpt lat="43.7277133" lon="12.6415767"><ele>369.5</ele><time>2026-04-06T09:54:08.998Z</time></trkpt><trkpt lat="43.7278267" lon="12.6416083"><ele>368.0</ele><time>2026-04-06T09:54:09.998Z</time></trkpt><trkpt lat="43.7279433" lon="12.641645"><ele>366.5</ele><time>2026-04-06T09:54:10.998Z</time></trkpt><trkpt lat="43.72806" lon="12.641685"><ele>365.0</ele><time>2026-04-06T09:54:11.998Z</time></trkpt><trkpt lat="43.7281733" lon="12.6417367"><ele>365.0</ele><time>2026-04-06T09:54:12.998Z</time></trkpt><trkpt lat="43.7282817" lon="12.6417917"><ele>365.0</ele><time>2026-04-06T09:54:13.998Z</time></trkpt><trkpt lat="43.7283717" lon="12.6418567"><ele>365.0</ele><time>2026-04-06T09:54:14.998Z</time></trkpt><trkpt lat="43.72845" lon="12.6419133"><ele>365.0</ele><time>2026-04-06T09:54:15.998Z</time></trkpt><trkpt lat="43.7285217" lon="12.6419717"><ele>365.0</ele><time>2026-04-06T09:54:16.998Z</time></trkpt><trkpt lat="43.72859" lon="12.6420033"><ele>363.83333333333337</ele><time>2026-04-06T09:54:17.998Z</time></trkpt><trkpt lat="43.728655" lon="12.6420117"><ele>362.6666666666667</ele><time>2026-04-06T09:54:18.998Z</time></trkpt><trkpt lat="43.7287233" lon="12.6419867"><ele>361.5</ele><time>2026-04-06T09:54:19.998Z</time></trkpt><trkpt lat="43.728785" lon="12.6419217"><ele>360.3333333333333</ele><time>2026-04-06T09:54:20.998Z</time></trkpt><trkpt lat="43.7288333" lon="12.6418367"><ele>359.16666666666663</ele><time>2026-04-06T09:54:21.998Z</time></trkpt><trkpt lat="43.7288667" lon="12.6417417"><ele>358.0</ele><time>2026-04-06T09:54:22.998Z</time></trkpt><trkpt lat="43.7288683" lon="12.6416167"><ele>358.0</ele><time>2026-04-06T09:54:23.998Z</time></trkpt><trkpt lat="43.7287817" lon="12.64149"><ele>358.0</ele><time>2026-04-06T09:54:24.998Z</time></trkpt><trkpt lat="43.7286967" lon="12.6414117"><ele>358.0</ele><time>2026-04-06T09:54:25.998Z</time></trkpt><trkpt lat="43.7286083" lon="12.64136"><ele>358.0</ele><time>2026-04-06T09:54:26.998Z</time></trkpt><trkpt lat="43.7284983" lon="12.6413433"><ele>358.0</ele><time>2026-04-06T09:54:27.998Z</time></trkpt><trkpt lat="43.7283667" lon="12.6413617"><ele>359.4</ele><time>2026-04-06T09:54:28.998Z</time></trkpt><trkpt lat="43.72825" lon="12.641375"><ele>360.79999999999995</ele><time>2026-04-06T09:54:29.998Z</time></trkpt><trkpt lat="43.7281533" lon="12.64137"><ele>362.2</ele><time>2026-04-06T09:54:30.998Z</time></trkpt><trkpt lat="43.728065" lon="12.6413533"><ele>363.6</ele><time>2026-04-06T09:54:31.998Z</time></trkpt><trkpt lat="43.727985" lon="12.6413117"><ele>365.0</ele><time>2026-04-06T09:54:32.998Z</time></trkpt><trkpt lat="43.7279167" lon="12.6412517"><ele>365.0</ele><time>2026-04-06T09:54:33.998Z</time></trkpt><trkpt lat="43.7278833" lon="12.6411567"><ele>365.0</ele><time>2026-04-06T09:54:34.998Z</time></trkpt><trkpt lat="43.7278767" lon="12.6410433"><ele>365.0</ele><time>2026-04-06T09:54:35.998Z</time></trkpt><trkpt lat="43.7279067" lon="12.6409433"><ele>365.0</ele><time>2026-04-06T09:54:36.998Z</time></trkpt><trkpt lat="43.7279683" lon="12.6408567"><ele>365.0</ele><time>2026-04-06T09:54:37.998Z</time></trkpt><trkpt lat="43.7280517" lon="12.6408033"><ele>365.0</ele><time>2026-04-06T09:54:38.998Z</time></trkpt><trkpt lat="43.7281483" lon="12.6408017"><ele>362.5</ele><time>2026-04-06T09:54:39.998Z</time></trkpt><trkpt lat="43.7282517" lon="12.6408383"><ele>360.0</ele><time>2026-04-06T09:54:40.998Z</time></trkpt><trkpt lat="43.7283817" lon="12.6409083"><ele>357.5</ele><time>2026-04-06T09:54:41.998Z</time></trkpt><trkpt lat="43.7285567" lon="12.640985"><ele>355.0</ele><time>2026-04-06T09:54:42.998Z</time></trkpt><trkpt lat="43.728735" lon="12.6410583"><ele>356.0</ele><time>2026-04-06T09:54:43.998Z</time></trkpt><trkpt lat="43.7289067" lon="12.6411"><ele>357.0</ele><time>2026-04-06T09:54:44.998Z</time></trkpt><trkpt lat="43.7290733" lon="12.6411233"><ele>358.0</ele><time>2026-04-06T09:54:45.998Z</time></trkpt><trkpt lat="43.7292183" lon="12.6411367"><ele>355.0</ele><time>2026-04-06T09:54:46.998Z</time></trkpt><trkpt lat="43.7293617" lon="12.6411183"><ele>352.0</ele><time>2026-04-06T09:54:47.998Z</time></trkpt><trkpt lat="43.729505" lon="12.6411"><ele>349.0</ele><time>2026-04-06T09:54:48.998Z</time></trkpt><trkpt lat="43.72966" lon="12.641075"><ele>346.0</ele><time>2026-04-06T09:54:49.997Z</time></trkpt><trkpt lat="43.7298133" lon="12.6410483"><ele>343.3333333333333</ele><time>2026-04-06T09:54:50.998Z</time></trkpt><trkpt lat="43.7299683" lon="12.6410367"><ele>340.6666666666667</ele><time>2026-04-06T09:54:51.998Z</time></trkpt><trkpt lat="43.73012" lon="12.6410233"><ele>338.0</ele><time>2026-04-06T09:54:52.998Z</time></trkpt><trkpt lat="43.730285" lon="12.641015"><ele>336.0</ele><time>2026-04-06T09:54:53.998Z</time></trkpt><trkpt lat="43.73045" lon="12.64101"><ele>334.0</ele><time>2026-04-06T09:54:54.998Z</time></trkpt><trkpt lat="43.7306133" lon="12.641"><ele>332.0</ele><time>2026-04-06T09:54:55.998Z</time></trkpt><trkpt lat="43.7307633" lon="12.6409767"><ele>332.0</ele><time>2026-04-06T09:54:56.998Z</time></trkpt><trkpt lat="43.73091" lon="12.6409683"><ele>332.0</ele><time>2026-04-06T09:54:57.998Z</time></trkpt><trkpt lat="43.73106" lon="12.6409667"><ele>332.0</ele><time>2026-04-06T09:54:58.998Z</time></trkpt><trkpt lat="43.731205" lon="12.640965"><ele>332.0</ele><time>2026-04-06T09:54:59.998Z</time></trkpt><trkpt lat="43.7313467" lon="12.640955"><ele>330.75</ele><time>2026-04-06T09:55:00.998Z</time></trkpt><trkpt lat="43.731485" lon="12.6409483"><ele>329.5</ele><time>2026-04-06T09:55:01.998Z</time></trkpt><trkpt lat="43.7316133" lon="12.6409483"><ele>328.25</ele><time>2026-04-06T09:55:02.998Z</time></trkpt><trkpt lat="43.7317383" lon="12.6409567"><ele>327.0</ele><time>2026-04-06T09:55:03.998Z</time></trkpt><trkpt lat="43.731845" lon="12.6409967"><ele>326.25</ele><time>2026-04-06T09:55:04.998Z</time></trkpt><trkpt lat="43.7319517" lon="12.6410683"><ele>325.5</ele><time>2026-04-06T09:55:05.998Z</time></trkpt><trkpt lat="43.7320433" lon="12.6411783"><ele>324.75</ele><time>2026-04-06T09:55:06.998Z</time></trkpt><trkpt lat="43.7321233" lon="12.641325"><ele>324.0</ele><time>2026-04-06T09:55:07.998Z</time></trkpt><trkpt lat="43.732205" lon="12.6414717"><ele>324.0</ele><time>2026-04-06T09:55:08.998Z</time></trkpt><trkpt lat="43.732295" lon="12.6416033"><ele>324.0</ele><time>2026-04-06T09:55:09.998Z</time></trkpt><trkpt lat="43.732385" lon="12.6417333"><ele>324.0</ele><time>2026-04-06T09:55:10.998Z</time></trkpt><trkpt lat="43.73247" lon="12.6418717"><ele>324.0</ele><time>2026-04-06T09:55:11.997Z</time></trkpt><trkpt lat="43.7325533" lon="12.6420183"><ele>323.0</ele><time>2026-04-06T09:55:12.997Z</time></trkpt><trkpt lat="43.7326317" lon="12.642155"><ele>322.0</ele><time>2026-04-06T09:55:13.997Z</time></trkpt><trkpt lat="43.7327133" lon="12.642285"><ele>321.0</ele><time>2026-04-06T09:55:14.997Z</time></trkpt><trkpt lat="43.7328067" lon="12.6423983"><ele>320.0</ele><time>2026-04-06T09:55:15.997Z</time></trkpt><trkpt lat="43.7329083" lon="12.6425083"><ele>320.0</ele><time>2026-04-06T09:55:16.997Z</time></trkpt><trkpt lat="43.7330267" lon="12.6426"><ele>320.0</ele><time>2026-04-06T09:55:17.997Z</time></trkpt><trkpt lat="43.73315" lon="12.64268"><ele>320.0</ele><time>2026-04-06T09:55:18.997Z</time></trkpt><trkpt lat="43.7332817" lon="12.642765"><ele>320.0</ele><time>2026-04-06T09:55:19.997Z</time></trkpt><trkpt lat="43.7334083" lon="12.6428383"><ele>320.5</ele><time>2026-04-06T09:55:20.997Z</time></trkpt><trkpt lat="43.7335367" lon="12.6428933"><ele>321.0</ele><time>2026-04-06T09:55:21.997Z</time></trkpt><trkpt lat="43.7336633" lon="12.6429367"><ele>321.5</ele><time>2026-04-06T09:55:22.997Z</time></trkpt><trkpt lat="43.7338017" lon="12.64297"><ele>322.0</ele><time>2026-04-06T09:55:23.997Z</time></trkpt><trkpt lat="43.733935" lon="12.6429883"><ele>322.0</ele><time>2026-04-06T09:55:24.997Z</time></trkpt><trkpt lat="43.7340733" lon="12.643025"><ele>322.0</ele><time>2026-04-06T09:55:25.997Z</time></trkpt><trkpt lat="43.7342483" lon="12.6430417"><ele>322.0</ele><time>2026-04-06T09:55:26.997Z</time></trkpt><trkpt lat="43.73442" lon="12.6430667"><ele>318.3333333333333</ele><time>2026-04-06T09:55:27.997Z</time></trkpt><trkpt lat="43.73461" lon="12.643095"><ele>314.6666666666667</ele><time>2026-04-06T09:55:28.997Z</time></trkpt><trkpt lat="43.7347817" lon="12.64313"><ele>311.0</ele><time>2026-04-06T09:55:29.997Z</time></trkpt><trkpt lat="43.7349517" lon="12.64315"><ele>311.0</ele><time>2026-04-06T09:55:30.997Z</time></trkpt><trkpt lat="43.735105" lon="12.64316"><ele>311.0</ele><time>2026-04-06T09:55:31.997Z</time></trkpt><trkpt lat="43.73523" lon="12.6431617"><ele>311.0</ele><time>2026-04-06T09:55:32.997Z</time></trkpt><trkpt lat="43.73537" lon="12.6431667"><ele>311.0</ele><time>2026-04-06T09:55:33.997Z</time></trkpt><trkpt lat="43.7355017" lon="12.6431733"><ele>309.33333333333337</ele><time>2026-04-06T09:55:34.997Z</time></trkpt><trkpt lat="43.73563" lon="12.6431583"><ele>307.6666666666667</ele><time>2026-04-06T09:55:35.997Z</time></trkpt><trkpt lat="43.735775" lon="12.6431167"><ele>306.0</ele><time>2026-04-06T09:55:36.997Z</time></trkpt><trkpt lat="43.73594" lon="12.64304"><ele>305.0</ele><time>2026-04-06T09:55:37.997Z</time></trkpt><trkpt lat="43.7361" lon="12.642935"><ele>304.0</ele><time>2026-04-06T09:55:38.997Z</time></trkpt><trkpt lat="43.73625" lon="12.6428183"><ele>303.0</ele><time>2026-04-06T09:55:39.997Z</time></trkpt><trkpt lat="43.7363983" lon="12.6427083"><ele>306.6666666666667</ele><time>2026-04-06T09:55:40.997Z</time></trkpt><trkpt lat="43.73657" lon="12.64261"><ele>310.33333333333337</ele><time>2026-04-06T09:55:41.997Z</time></trkpt><trkpt lat="43.7367283" lon="12.642545"><ele>314.0</ele><time>2026-04-06T09:55:42.997Z</time></trkpt><trkpt lat="43.7369067" lon="12.6425583"><ele>315.6666666666667</ele><time>2026-04-06T09:55:43.997Z</time></trkpt><trkpt lat="43.7370983" lon="12.6425933"><ele>317.3333333333333</ele><time>2026-04-06T09:55:44.997Z</time></trkpt><trkpt lat="43.7372983" lon="12.642665"><ele>319.0</ele><time>2026-04-06T09:55:45.997Z</time></trkpt><trkpt lat="43.7374983" lon="12.6427533"><ele>314.66666666666663</ele><time>2026-04-06T09:55:46.997Z</time></trkpt><trkpt lat="43.7376717" lon="12.6428533"><ele>310.3333333333333</ele><time>2026-04-06T09:55:47.997Z</time></trkpt><trkpt lat="43.737855" lon="12.642965"><ele>306.0</ele><time>2026-04-06T09:55:48.996Z</time></trkpt><trkpt lat="43.738025" lon="12.64309"><ele>306.0</ele><time>2026-04-06T09:55:49.997Z</time></trkpt><trkpt lat="43.7381967" lon="12.6432333"><ele>306.0</ele><time>2026-04-06T09:55:50.997Z</time></trkpt><trkpt lat="43.7383633" lon="12.6434167"><ele>306.0</ele><time>2026-04-06T09:55:51.997Z</time></trkpt><trkpt lat="43.7385217" lon="12.6436383"><ele>310.0</ele><time>2026-04-06T09:55:52.997Z</time></trkpt><trkpt lat="43.7386817" lon="12.6438917"><ele>314.0</ele><time>2026-04-06T09:55:53.997Z</time></trkpt><trkpt lat="43.7388417" lon="12.6441583"><ele>314.0</ele><time>2026-04-06T09:55:54.997Z</time></trkpt><trkpt lat="43.7389967" lon="12.6444383"><ele>314.0</ele><time>2026-04-06T09:55:55.997Z</time></trkpt><trkpt lat="43.7391467" lon="12.644675"><ele>313.6666666666667</ele><time>2026-04-06T09:55:56.997Z</time></trkpt><trkpt lat="43.7392667" lon="12.6448883"><ele>313.3333333333333</ele><time>2026-04-06T09:55:57.997Z</time></trkpt><trkpt lat="43.739375" lon="12.64508"><ele>313.0</ele><time>2026-04-06T09:55:58.997Z</time></trkpt><trkpt lat="43.7395017" lon="12.6452383"><ele>303.66666666666663</ele><time>2026-04-06T09:55:59.997Z</time></trkpt><trkpt lat="43.7396567" lon="12.645375"><ele>294.3333333333333</ele><time>2026-04-06T09:56:00.997Z</time></trkpt><trkpt lat="43.7398467" lon="12.6454783"><ele>285.0</ele><time>2026-04-06T09:56:01.997Z</time></trkpt><trkpt lat="43.7400733" lon="12.64552"><ele>286.0</ele><time>2026-04-06T09:56:02.997Z</time></trkpt><trkpt lat="43.7403067" lon="12.6455317"><ele>287.0</ele><time>2026-04-06T09:56:03.997Z</time></trkpt><trkpt lat="43.740525" lon="12.6455583"><ele>287.0</ele><time>2026-04-06T09:56:04.997Z</time></trkpt><trkpt lat="43.7407483" lon="12.64556"><ele>287.0</ele><time>2026-04-06T09:56:05.997Z</time></trkpt><trkpt lat="43.7409533" lon="12.64556"><ele>287.0</ele><time>2026-04-06T09:56:06.997Z</time></trkpt><trkpt lat="43.7411583" lon="12.6456017"><ele>289.0</ele><time>2026-04-06T09:56:07.997Z</time></trkpt><trkpt lat="43.7413633" lon="12.6456967"><ele>291.0</ele><time>2026-04-06T09:56:08.996Z</time></trkpt><trkpt lat="43.7415633" lon="12.6458233"><ele>293.0</ele><time>2026-04-06T09:56:09.997Z</time></trkpt><trkpt lat="43.74177" lon="12.64595"><ele>293.33333333333337</ele><time>2026-04-06T09:56:10.997Z</time></trkpt><trkpt lat="43.7419717" lon="12.64607"><ele>293.6666666666667</ele><time>2026-04-06T09:56:11.997Z</time></trkpt><trkpt lat="43.742175" lon="12.6461683"><ele>294.0</ele><time>2026-04-06T09:56:12.997Z</time></trkpt><trkpt lat="43.7423833" lon="12.646225"><ele>291.3333333333333</ele><time>2026-04-06T09:56:13.997Z</time></trkpt><trkpt lat="43.7426017" lon="12.6462333"><ele>288.66666666666663</ele><time>2026-04-06T09:56:14.997Z</time></trkpt><trkpt lat="43.7428083" lon="12.64619"><ele>286.0</ele><time>2026-04-06T09:56:15.997Z</time></trkpt><trkpt lat="43.7430283" lon="12.6460983"><ele>286.0</ele><time>2026-04-06T09:56:16.997Z</time></trkpt><trkpt lat="43.7432267" lon="12.64602"><ele>286.0</ele><time>2026-04-06T09:56:17.997Z</time></trkpt><trkpt lat="43.7434167" lon="12.6459433"><ele>286.0</ele><time>2026-04-06T09:56:18.997Z</time></trkpt><trkpt lat="43.7436067" lon="12.6459067"><ele>287.0</ele><time>2026-04-06T09:56:19.997Z</time></trkpt><trkpt lat="43.74381" lon="12.64592"><ele>288.0</ele><time>2026-04-06T09:56:20.997Z</time></trkpt><trkpt lat="43.7440183" lon="12.6459983"><ele>289.0</ele><time>2026-04-06T09:56:21.997Z</time></trkpt><trkpt lat="43.7442333" lon="12.6461167"><ele>285.3333333333333</ele><time>2026-04-06T09:56:22.997Z</time></trkpt><trkpt lat="43.7444467" lon="12.6462417"><ele>281.6666666666667</ele><time>2026-04-06T09:56:23.997Z</time></trkpt><trkpt lat="43.7446367" lon="12.6463533"><ele>278.0</ele><time>2026-04-06T09:56:24.997Z</time></trkpt><trkpt lat="43.744815" lon="12.6464533"><ele>278.0</ele><time>2026-04-06T09:56:25.997Z</time></trkpt><trkpt lat="43.7449833" lon="12.6465633"><ele>278.0</ele><time>2026-04-06T09:56:26.997Z</time></trkpt><trkpt lat="43.745155" lon="12.6466867"><ele>278.0</ele><time>2026-04-06T09:56:27.997Z</time></trkpt><trkpt lat="43.7453" lon="12.646855"><ele>279.6666666666667</ele><time>2026-04-06T09:56:28.997Z</time></trkpt><trkpt lat="43.7454167" lon="12.647065"><ele>281.3333333333333</ele><time>2026-04-06T09:56:29.997Z</time></trkpt><trkpt lat="43.7454633" lon="12.647315"><ele>283.0</ele><time>2026-04-06T09:56:30.997Z</time></trkpt><trkpt lat="43.74547" lon="12.647585"><ele>281.3333333333333</ele><time>2026-04-06T09:56:31.997Z</time></trkpt><trkpt lat="43.74546" lon="12.6478567"><ele>279.6666666666667</ele><time>2026-04-06T09:56:32.997Z</time></trkpt><trkpt lat="43.74545" lon="12.6481383"><ele>278.0</ele><time>2026-04-06T09:56:33.997Z</time></trkpt><trkpt lat="43.74546" lon="12.64842"><ele>274.0</ele><time>2026-04-06T09:56:34.997Z</time></trkpt><trkpt lat="43.745495" lon="12.648695"><ele>270.0</ele><time>2026-04-06T09:56:35.997Z</time></trkpt><trkpt lat="43.7455567" lon="12.6489633"><ele>266.0</ele><time>2026-04-06T09:56:36.997Z</time></trkpt><trkpt lat="43.7456417" lon="12.6492183"><ele>263.33333333333337</ele><time>2026-04-06T09:56:37.997Z</time></trkpt><trkpt lat="43.74574" lon="12.6494633"><ele>260.6666666666667</ele><time>2026-04-06T09:56:38.997Z</time></trkpt><trkpt lat="43.7458517" lon="12.6496967"><ele>258.0</ele><time>2026-04-06T09:56:39.997Z</time></trkpt><trkpt lat="43.74596" lon="12.649935"><ele>257.6666666666667</ele><time>2026-04-06T09:56:40.997Z</time></trkpt><trkpt lat="43.746065" lon="12.6501667"><ele>257.33333333333337</ele><time>2026-04-06T09:56:41.997Z</time></trkpt><trkpt lat="43.74618" lon="12.6503883"><ele>257.0</ele><time>2026-04-06T09:56:42.997Z</time></trkpt><trkpt lat="43.746305" lon="12.6506067"><ele>257.0</ele><time>2026-04-06T09:56:43.997Z</time></trkpt><trkpt lat="43.7464383" lon="12.650795"><ele>257.0</ele><time>2026-04-06T09:56:44.997Z</time></trkpt><trkpt lat="43.7465783" lon="12.6509667"><ele>257.0</ele><time>2026-04-06T09:56:45.997Z</time></trkpt><trkpt lat="43.74672" lon="12.651145"><ele>256.6666666666667</ele><time>2026-04-06T09:56:46.997Z</time></trkpt><trkpt lat="43.746895" lon="12.6513033"><ele>256.3333333333333</ele><time>2026-04-06T09:56:47.997Z</time></trkpt><trkpt lat="43.7470933" lon="12.6514467"><ele>256.0</ele><time>2026-04-06T09:56:48.997Z</time></trkpt><trkpt lat="43.747275" lon="12.6516"><ele>256.0</ele><time>2026-04-06T09:56:49.997Z</time></trkpt><trkpt lat="43.74745" lon="12.6517667"><ele>256.0</ele><time>2026-04-06T09:56:50.997Z</time></trkpt><trkpt lat="43.7476117" lon="12.6519183"><ele>256.0</ele><time>2026-04-06T09:56:51.997Z</time></trkpt><trkpt lat="43.74776" lon="12.6520617"><ele>253.33333333333331</ele><time>2026-04-06T09:56:52.997Z</time></trkpt><trkpt lat="43.7479133" lon="12.652205"><ele>250.66666666666669</ele><time>2026-04-06T09:56:53.997Z</time></trkpt><trkpt lat="43.7480567" lon="12.652335"><ele>248.0</ele><time>2026-04-06T09:56:54.997Z</time></trkpt><trkpt lat="43.7482" lon="12.6524717"><ele>248.0</ele><time>2026-04-06T09:56:55.997Z</time></trkpt><trkpt lat="43.748345" lon="12.6526017"><ele>248.0</ele><time>2026-04-06T09:56:56.997Z</time></trkpt><trkpt lat="43.7484917" lon="12.6527283"><ele>248.0</ele><time>2026-04-06T09:56:57.997Z</time></trkpt><trkpt lat="43.7486333" lon="12.6528683"><ele>246.33333333333334</ele><time>2026-04-06T09:56:58.997Z</time></trkpt><trkpt lat="43.7487717" lon="12.6530167"><ele>244.66666666666669</ele><time>2026-04-06T09:56:59.997Z</time></trkpt><trkpt lat="43.74889" lon="12.6531783"><ele>243.0</ele><time>2026-04-06T09:57:00.997Z</time></trkpt><trkpt lat="43.749015" lon="12.653345"><ele>243.0</ele><time>2026-04-06T09:57:01.997Z</time></trkpt><trkpt lat="43.7491367" lon="12.653515"><ele>243.0</ele><time>2026-04-06T09:57:02.997Z</time></trkpt><trkpt lat="43.7492583" lon="12.6536767"><ele>243.0</ele><time>2026-04-06T09:57:03.997Z</time></trkpt><trkpt lat="43.7493767" lon="12.6538367"><ele>242.33333333333331</ele><time>2026-04-06T09:57:04.997Z</time></trkpt><trkpt lat="43.7494967" lon="12.65399"><ele>241.66666666666666</ele><time>2026-04-06T09:57:05.997Z</time></trkpt><trkpt lat="43.7496167" lon="12.6541367"><ele>241.0</ele><time>2026-04-06T09:57:06.997Z</time></trkpt><trkpt lat="43.74973" lon="12.654285"><ele>241.0</ele><time>2026-04-06T09:57:07.997Z</time></trkpt><trkpt lat="43.7498267" lon="12.65444"><ele>241.0</ele><time>2026-04-06T09:57:08.997Z</time></trkpt><trkpt lat="43.7499217" lon="12.6545867"><ele>241.0</ele><time>2026-04-06T09:57:09.997Z</time></trkpt><trkpt lat="43.7500033" lon="12.6547383"><ele>241.0</ele><time>2026-04-06T09:57:10.997Z</time></trkpt><trkpt lat="43.7500917" lon="12.65489"><ele>241.25</ele><time>2026-04-06T09:57:11.997Z</time></trkpt><trkpt lat="43.7501767" lon="12.655055"><ele>241.5</ele><time>2026-04-06T09:57:12.997Z</time></trkpt><trkpt lat="43.7502633" lon="12.6552183"><ele>241.75</ele><time>2026-04-06T09:57:13.997Z</time></trkpt><trkpt lat="43.7503383" lon="12.6553833"><ele>242.0</ele><time>2026-04-06T09:57:14.997Z</time></trkpt><trkpt lat="43.7504067" lon="12.6555367"><ele>240.25</ele><time>2026-04-06T09:57:15.997Z</time></trkpt><trkpt lat="43.7504633" lon="12.65569"><ele>238.5</ele><time>2026-04-06T09:57:16.997Z</time></trkpt><trkpt lat="43.7505233" lon="12.65584"><ele>236.75</ele><time>2026-04-06T09:57:17.997Z</time></trkpt><trkpt lat="43.750585" lon="12.6559933"><ele>235.0</ele><time>2026-04-06T09:57:18.997Z</time></trkpt><trkpt lat="43.750645" lon="12.65615"><ele>233.0</ele><time>2026-04-06T09:57:19.997Z</time></trkpt><trkpt lat="43.7507067" lon="12.656305"><ele>231.0</ele><time>2026-04-06T09:57:20.997Z</time></trkpt><trkpt lat="43.75076" lon="12.6564617"><ele>229.0</ele><time>2026-04-06T09:57:21.997Z</time></trkpt><trkpt lat="43.75082" lon="12.65661"><ele>227.0</ele><time>2026-04-06T09:57:22.997Z</time></trkpt><trkpt lat="43.75088" lon="12.656765"><ele>227.0</ele><time>2026-04-06T09:57:23.997Z</time></trkpt><trkpt lat="43.7509433" lon="12.65692"><ele>227.0</ele><time>2026-04-06T09:57:24.997Z</time></trkpt><trkpt lat="43.7510017" lon="12.657075"><ele>227.0</ele><time>2026-04-06T09:57:25.997Z</time></trkpt><trkpt lat="43.751055" lon="12.657235"><ele>227.0</ele><time>2026-04-06T09:57:26.997Z</time></trkpt><trkpt lat="43.75111" lon="12.657395"><ele>228.0</ele><time>2026-04-06T09:57:27.997Z</time></trkpt><trkpt lat="43.7511717" lon="12.6575533"><ele>229.0</ele><time>2026-04-06T09:57:28.997Z</time></trkpt><trkpt lat="43.75123" lon="12.6577167"><ele>230.0</ele><time>2026-04-06T09:57:29.997Z</time></trkpt><trkpt lat="43.7512817" lon="12.6578733"><ele>231.0</ele><time>2026-04-06T09:57:30.997Z</time></trkpt><trkpt lat="43.751335" lon="12.65802"><ele>228.0</ele><time>2026-04-06T09:57:31.997Z</time></trkpt><trkpt lat="43.7513967" lon="12.6581683"><ele>225.0</ele><time>2026-04-06T09:57:32.997Z</time></trkpt><trkpt lat="43.7514583" lon="12.658315"><ele>222.0</ele><time>2026-04-06T09:57:33.997Z</time></trkpt><trkpt lat="43.751525" lon="12.658455"><ele>219.0</ele><time>2026-04-06T09:57:34.997Z</time></trkpt><trkpt lat="43.7515833" lon="12.6585867"><ele>218.16666666666666</ele><time>2026-04-06T09:57:35.997Z</time></trkpt><trkpt lat="43.751635" lon="12.6586917"><ele>217.33333333333331</ele><time>2026-04-06T09:57:36.997Z</time></trkpt><trkpt lat="43.7516767" lon="12.6587867"><ele>216.5</ele><time>2026-04-06T09:57:37.997Z</time></trkpt><trkpt lat="43.7517167" lon="12.6588717"><ele>215.66666666666666</ele><time>2026-04-06T09:57:38.997Z</time></trkpt><trkpt lat="43.751755" lon="12.6589533"><ele>214.83333333333331</ele><time>2026-04-06T09:57:39.997Z</time></trkpt><trkpt lat="43.7518017" lon="12.65904"><ele>214.0</ele><time>2026-04-06T09:57:40.997Z</time></trkpt><trkpt lat="43.751855" lon="12.6591267"><ele>214.49999999999997</ele><time>2026-04-06T09:57:41.997Z</time></trkpt><trkpt lat="43.7519017" lon="12.6592217"><ele>215.0</ele><time>2026-04-06T09:57:42.997Z</time></trkpt><trkpt lat="43.751935" lon="12.6593217"><ele>215.5</ele><time>2026-04-06T09:57:43.996Z</time></trkpt><trkpt lat="43.7519533" lon="12.65943"><ele>216.0</ele><time>2026-04-06T09:57:44.997Z</time></trkpt><trkpt lat="43.7519783" lon="12.6595417"><ele>216.49999999999997</ele><time>2026-04-06T09:57:45.997Z</time></trkpt><trkpt lat="43.7520217" lon="12.6596383"><ele>217.0</ele><time>2026-04-06T09:57:46.997Z</time></trkpt><trkpt lat="43.7520817" lon="12.65973"><ele>217.0</ele><time>2026-04-06T09:57:47.997Z</time></trkpt><trkpt lat="43.7521433" lon="12.6598333"><ele>217.0</ele><time>2026-04-06T09:57:48.997Z</time></trkpt><trkpt lat="43.752215" lon="12.6599517"><ele>217.0</ele><time>2026-04-06T09:57:49.997Z</time></trkpt><trkpt lat="43.7522833" lon="12.660065"><ele>217.0</ele><time>2026-04-06T09:57:50.997Z</time></trkpt><trkpt lat="43.752355" lon="12.6601717"><ele>217.0</ele><time>2026-04-06T09:57:51.997Z</time></trkpt><trkpt lat="43.7524267" lon="12.660275"><ele>216.8</ele><time>2026-04-06T09:57:52.997Z</time></trkpt><trkpt lat="43.7525" lon="12.6603817"><ele>216.6</ele><time>2026-04-06T09:57:53.997Z</time></trkpt><trkpt lat="43.7525767" lon="12.6604933"><ele>216.40000000000003</ele><time>2026-04-06T09:57:54.996Z</time></trkpt><trkpt lat="43.7526617" lon="12.6605983"><ele>216.20000000000002</ele><time>2026-04-06T09:57:55.997Z</time></trkpt><trkpt lat="43.752745" lon="12.660705"><ele>216.0</ele><time>2026-04-06T09:57:56.997Z</time></trkpt><trkpt lat="43.7528317" lon="12.6608117"><ele>216.0</ele><time>2026-04-06T09:57:57.997Z</time></trkpt><trkpt lat="43.7529133" lon="12.660925"><ele>216.0</ele><time>2026-04-06T09:57:58.997Z</time></trkpt><trkpt lat="43.7529967" lon="12.661045"><ele>216.0</ele><time>2026-04-06T09:57:59.997Z</time></trkpt><trkpt lat="43.7530717" lon="12.6611717"><ele>216.0</ele><time>2026-04-06T09:58:00.997Z</time></trkpt><trkpt lat="43.7531583" lon="12.661295"><ele>212.0</ele><time>2026-04-06T09:58:01.997Z</time></trkpt><trkpt lat="43.75323" lon="12.6614267"><ele>208.0</ele><time>2026-04-06T09:58:02.997Z</time></trkpt><trkpt lat="43.7533217" lon="12.6615467"><ele>204.0</ele><time>2026-04-06T09:58:03.997Z</time></trkpt><trkpt lat="43.7534017" lon="12.661675"><ele>200.0</ele><time>2026-04-06T09:58:04.997Z</time></trkpt><trkpt lat="43.7534783" lon="12.6618033"><ele>200.5</ele><time>2026-04-06T09:58:05.997Z</time></trkpt><trkpt lat="43.7535517" lon="12.6619417"><ele>201.0</ele><time>2026-04-06T09:58:06.997Z</time></trkpt><trkpt lat="43.75363" lon="12.662075"><ele>201.5</ele><time>2026-04-06T09:58:07.997Z</time></trkpt><trkpt lat="43.7537117" lon="12.66221"><ele>202.0</ele><time>2026-04-06T09:58:08.997Z</time></trkpt><trkpt lat="43.7537933" lon="12.6623517"><ele>202.0</ele><time>2026-04-06T09:58:09.997Z</time></trkpt><trkpt lat="43.753865" lon="12.6624967"><ele>202.0</ele><time>2026-04-06T09:58:10.997Z</time></trkpt><trkpt lat="43.7539333" lon="12.6626367"><ele>202.0</ele><time>2026-04-06T09:58:11.997Z</time></trkpt><trkpt lat="43.7540083" lon="12.6627667"><ele>202.0</ele><time>2026-04-06T09:58:12.997Z</time></trkpt><trkpt lat="43.7540833" lon="12.6628967"><ele>200.0</ele><time>2026-04-06T09:58:13.997Z</time></trkpt><trkpt lat="43.754145" lon="12.6630333"><ele>198.0</ele><time>2026-04-06T09:58:14.997Z</time></trkpt><trkpt lat="43.7541967" lon="12.6631933"><ele>196.0</ele><time>2026-04-06T09:58:15.997Z</time></trkpt><trkpt lat="43.7542467" lon="12.6633483"><ele>194.0</ele><time>2026-04-06T09:58:16.997Z</time></trkpt><trkpt lat="43.7543067" lon="12.663505"><ele>192.5</ele><time>2026-04-06T09:58:17.997Z</time></trkpt><trkpt lat="43.75436" lon="12.6636633"><ele>191.0</ele><time>2026-04-06T09:58:18.997Z</time></trkpt><trkpt lat="43.7544117" lon="12.663825"><ele>189.5</ele><time>2026-04-06T09:58:19.997Z</time></trkpt><trkpt lat="43.7544683" lon="12.66398"><ele>188.0</ele><time>2026-04-06T09:58:20.996Z</time></trkpt><trkpt lat="43.7545267" lon="12.66414"><ele>188.75</ele><time>2026-04-06T09:58:21.997Z</time></trkpt><trkpt lat="43.75458" lon="12.6643133"><ele>189.5</ele><time>2026-04-06T09:58:22.997Z</time></trkpt><trkpt lat="43.7546283" lon="12.6645017"><ele>190.25</ele><time>2026-04-06T09:58:23.997Z</time></trkpt><trkpt lat="43.7546683" lon="12.66469"><ele>191.0</ele><time>2026-04-06T09:58:24.997Z</time></trkpt><trkpt lat="43.7547" lon="12.6648733"><ele>191.0</ele><time>2026-04-06T09:58:25.997Z</time></trkpt><trkpt lat="43.7547383" lon="12.6650433"><ele>191.0</ele><time>2026-04-06T09:58:26.997Z</time></trkpt><trkpt lat="43.7547633" lon="12.6652117"><ele>191.0</ele><time>2026-04-06T09:58:27.997Z</time></trkpt><trkpt lat="43.7548033" lon="12.6653767"><ele>191.0</ele><time>2026-04-06T09:58:28.997Z</time></trkpt><trkpt lat="43.754855" lon="12.66553"><ele>188.75</ele><time>2026-04-06T09:58:29.997Z</time></trkpt><trkpt lat="43.7549167" lon="12.665685"><ele>186.5</ele><time>2026-04-06T09:58:30.997Z</time></trkpt><trkpt lat="43.7549817" lon="12.6658383"><ele>184.25</ele><time>2026-04-06T09:58:31.997Z</time></trkpt><trkpt lat="43.7550583" lon="12.6659817"><ele>182.0</ele><time>2026-04-06T09:58:32.997Z</time></trkpt><trkpt lat="43.7551433" lon="12.66611"><ele>181.5</ele><time>2026-04-06T09:58:33.997Z</time></trkpt><trkpt lat="43.755225" lon="12.6662233"><ele>181.0</ele><time>2026-04-06T09:58:34.997Z</time></trkpt><trkpt lat="43.7553133" lon="12.666335"><ele>180.5</ele><time>2026-04-06T09:58:35.997Z</time></trkpt><trkpt lat="43.7554067" lon="12.6664217"><ele>180.0</ele><time>2026-04-06T09:58:36.997Z</time></trkpt><trkpt lat="43.755515" lon="12.6664783"><ele>180.0</ele><time>2026-04-06T09:58:37.997Z</time></trkpt><trkpt lat="43.75562" lon="12.6665167"><ele>180.0</ele><time>2026-04-06T09:58:38.997Z</time></trkpt><trkpt lat="43.755725" lon="12.66656"><ele>180.0</ele><time>2026-04-06T09:58:39.997Z</time></trkpt><trkpt lat="43.75583" lon="12.6666033"><ele>180.0</ele><time>2026-04-06T09:58:40.997Z</time></trkpt><trkpt lat="43.7559417" lon="12.6666433"><ele>180.0</ele><time>2026-04-06T09:58:41.997Z</time></trkpt><trkpt lat="43.7560467" lon="12.6666783"><ele>179.8</ele><time>2026-04-06T09:58:42.997Z</time></trkpt><trkpt lat="43.75616" lon="12.6667083"><ele>179.6</ele><time>2026-04-06T09:58:43.997Z</time></trkpt><trkpt lat="43.7562783" lon="12.6667367"><ele>179.39999999999998</ele><time>2026-04-06T09:58:44.997Z</time></trkpt><trkpt lat="43.7563867" lon="12.66676"><ele>179.2</ele><time>2026-04-06T09:58:45.997Z</time></trkpt><trkpt lat="43.756485" lon="12.6667817"><ele>179.0</ele><time>2026-04-06T09:58:46.997Z</time></trkpt><trkpt lat="43.7565717" lon="12.666795"><ele>179.0</ele><time>2026-04-06T09:58:47.997Z</time></trkpt><trkpt lat="43.7566633" lon="12.666815"><ele>179.0</ele><time>2026-04-06T09:58:48.997Z</time></trkpt><trkpt lat="43.7567717" lon="12.6668383"><ele>179.0</ele><time>2026-04-06T09:58:49.997Z</time></trkpt><trkpt lat="43.756885" lon="12.666865"><ele>179.0</ele><time>2026-04-06T09:58:50.997Z</time></trkpt><trkpt lat="43.7570017" lon="12.6668833"><ele>179.0</ele><time>2026-04-06T09:58:51.997Z</time></trkpt><trkpt lat="43.7571133" lon="12.666885"><ele>178.0</ele><time>2026-04-06T09:58:52.997Z</time></trkpt><trkpt lat="43.7572383" lon="12.66688"><ele>177.0</ele><time>2026-04-06T09:58:53.997Z</time></trkpt><trkpt lat="43.7573617" lon="12.666875"><ele>176.0</ele><time>2026-04-06T09:58:54.997Z</time></trkpt><trkpt lat="43.7574967" lon="12.66687"><ele>175.0</ele><time>2026-04-06T09:58:55.997Z</time></trkpt><trkpt lat="43.7576383" lon="12.6668533"><ele>176.66666666666669</ele><time>2026-04-06T09:58:56.997Z</time></trkpt><trkpt lat="43.7577917" lon="12.6668433"><ele>178.33333333333334</ele><time>2026-04-06T09:58:57.997Z</time></trkpt><trkpt lat="43.7579633" lon="12.6668617"><ele>180.0</ele><time>2026-04-06T09:58:58.997Z</time></trkpt><trkpt lat="43.7581167" lon="12.6669183"><ele>177.33333333333334</ele><time>2026-04-06T09:58:59.997Z</time></trkpt><trkpt lat="43.75826" lon="12.66701"><ele>174.66666666666669</ele><time>2026-04-06T09:59:00.997Z</time></trkpt><trkpt lat="43.7584033" lon="12.6671317"><ele>172.0</ele><time>2026-04-06T09:59:01.997Z</time></trkpt><trkpt lat="43.7585383" lon="12.6672733"><ele>171.5</ele><time>2026-04-06T09:59:02.997Z</time></trkpt><trkpt lat="43.75866" lon="12.667405"><ele>171.0</ele><time>2026-04-06T09:59:03.997Z</time></trkpt><trkpt lat="43.75879" lon="12.6675083"><ele>170.5</ele><time>2026-04-06T09:59:04.997Z</time></trkpt><trkpt lat="43.75892" lon="12.66758"><ele>170.0</ele><time>2026-04-06T09:59:05.997Z</time></trkpt><trkpt lat="43.759065" lon="12.667615"><ele>170.0</ele><time>2026-04-06T09:59:06.997Z</time></trkpt><trkpt lat="43.75921" lon="12.6676367"><ele>170.0</ele><time>2026-04-06T09:59:07.997Z</time></trkpt><trkpt lat="43.7593517" lon="12.6676683"><ele>170.0</ele><time>2026-04-06T09:59:08.997Z</time></trkpt><trkpt lat="43.7594867" lon="12.6676667"><ele>170.0</ele><time>2026-04-06T09:59:09.997Z</time></trkpt><trkpt lat="43.7596267" lon="12.66768"><ele>171.5</ele><time>2026-04-06T09:59:10.997Z</time></trkpt><trkpt lat="43.7597617" lon="12.6676917"><ele>173.0</ele><time>2026-04-06T09:59:11.997Z</time></trkpt><trkpt lat="43.7599" lon="12.6677"><ele>174.5</ele><time>2026-04-06T09:59:12.997Z</time></trkpt><trkpt lat="43.76003" lon="12.66771"><ele>176.0</ele><time>2026-04-06T09:59:13.997Z</time></trkpt><trkpt lat="43.7601617" lon="12.667725"><ele>177.5</ele><time>2026-04-06T09:59:14.997Z</time></trkpt><trkpt lat="43.76029" lon="12.6677417"><ele>179.0</ele><time>2026-04-06T09:59:15.997Z</time></trkpt><trkpt lat="43.7604067" lon="12.6677617"><ele>180.5</ele><time>2026-04-06T09:59:16.997Z</time></trkpt><trkpt lat="43.76053" lon="12.6677867"><ele>182.0</ele><time>2026-04-06T09:59:17.997Z</time></trkpt><trkpt lat="43.7606483" lon="12.6678083"><ele>179.0</ele><time>2026-04-06T09:59:18.997Z</time></trkpt><trkpt lat="43.7607767" lon="12.6678433"><ele>176.0</ele><time>2026-04-06T09:59:19.996Z</time></trkpt><trkpt lat="43.7609033" lon="12.66788"><ele>173.0</ele><time>2026-04-06T09:59:20.997Z</time></trkpt><trkpt lat="43.76103" lon="12.66794"><ele>170.0</ele><time>2026-04-06T09:59:21.997Z</time></trkpt><trkpt lat="43.7611683" lon="12.66801"><ele>169.66666666666666</ele><time>2026-04-06T09:59:22.997Z</time></trkpt><trkpt lat="43.7613" lon="12.6681033"><ele>169.33333333333334</ele><time>2026-04-06T09:59:23.997Z</time></trkpt><trkpt lat="43.76144" lon="12.6682067"><ele>169.0</ele><time>2026-04-06T09:59:24.997Z</time></trkpt><trkpt lat="43.7615783" lon="12.6683133"><ele>169.0</ele><time>2026-04-06T09:59:25.997Z</time></trkpt><trkpt lat="43.7617017" lon="12.6684267"><ele>169.0</ele><time>2026-04-06T09:59:26.997Z</time></trkpt><trkpt lat="43.7618267" lon="12.6685383"><ele>169.0</ele><time>2026-04-06T09:59:27.997Z</time></trkpt><trkpt lat="43.76194" lon="12.668655"><ele>169.0</ele><time>2026-04-06T09:59:28.997Z</time></trkpt><trkpt lat="43.7620483" lon="12.6687783"><ele>168.0</ele><time>2026-04-06T09:59:29.997Z</time></trkpt><trkpt lat="43.7621467" lon="12.6689"><ele>167.0</ele><time>2026-04-06T09:59:30.997Z</time></trkpt><trkpt lat="43.7622333" lon="12.6690167"><ele>166.0</ele><time>2026-04-06T09:59:31.997Z</time></trkpt><trkpt lat="43.762315" lon="12.66913"><ele>165.0</ele><time>2026-04-06T09:59:32.997Z</time></trkpt><trkpt lat="43.7624133" lon="12.66923"><ele>165.0</ele><time>2026-04-06T09:59:33.997Z</time></trkpt><trkpt lat="43.7625117" lon="12.6693367"><ele>165.0</ele><time>2026-04-06T09:59:34.997Z</time></trkpt><trkpt lat="43.762625" lon="12.6694267"><ele>165.0</ele><time>2026-04-06T09:59:35.997Z</time></trkpt><trkpt lat="43.76274" lon="12.6695067"><ele>165.0</ele><time>2026-04-06T09:59:36.997Z</time></trkpt><trkpt lat="43.7628733" lon="12.66956"><ele>163.0</ele><time>2026-04-06T09:59:37.997Z</time></trkpt><trkpt lat="43.7630233" lon="12.669605"><ele>161.0</ele><time>2026-04-06T09:59:38.997Z</time></trkpt><trkpt lat="43.7631633" lon="12.669635"><ele>159.0</ele><time>2026-04-06T09:59:39.997Z</time></trkpt><trkpt lat="43.763285" lon="12.66966"><ele>157.0</ele><time>2026-04-06T09:59:40.997Z</time></trkpt><trkpt lat="43.7634017" lon="12.66968"><ele>157.0</ele><time>2026-04-06T09:59:41.997Z</time></trkpt><trkpt lat="43.7635233" lon="12.6696967"><ele>157.0</ele><time>2026-04-06T09:59:42.997Z</time></trkpt><trkpt lat="43.763645" lon="12.669715"><ele>157.0</ele><time>2026-04-06T09:59:43.997Z</time></trkpt><trkpt lat="43.7637783" lon="12.6697217"><ele>157.0</ele><time>2026-04-06T09:59:44.997Z</time></trkpt><trkpt lat="43.7639133" lon="12.6697167"><ele>157.0</ele><time>2026-04-06T09:59:45.997Z</time></trkpt><trkpt lat="43.764035" lon="12.6697167"><ele>157.0</ele><time>2026-04-06T09:59:46.997Z</time></trkpt><trkpt lat="43.7641567" lon="12.669715"><ele>157.0</ele><time>2026-04-06T09:59:47.996Z</time></trkpt><trkpt lat="43.7642783" lon="12.66971"><ele>157.0</ele><time>2026-04-06T09:59:48.997Z</time></trkpt><trkpt lat="43.7644133" lon="12.6696883"><ele>157.0</ele><time>2026-04-06T09:59:49.997Z</time></trkpt><trkpt lat="43.7645533" lon="12.6696517"><ele>157.0</ele><time>2026-04-06T09:59:50.997Z</time></trkpt><trkpt lat="43.7646933" lon="12.6695983"><ele>157.0</ele><time>2026-04-06T09:59:51.997Z</time></trkpt><trkpt lat="43.7648283" lon="12.66956"><ele>157.0</ele><time>2026-04-06T09:59:52.997Z</time></trkpt><trkpt lat="43.764965" lon="12.6695233"><ele>157.0</ele><time>2026-04-06T09:59:53.997Z</time></trkpt><trkpt lat="43.765095" lon="12.669485"><ele>157.0</ele><time>2026-04-06T09:59:54.997Z</time></trkpt><trkpt lat="43.7652183" lon="12.669455"><ele>157.0</ele><time>2026-04-06T09:59:55.997Z</time></trkpt><trkpt lat="43.76535" lon="12.669435"><ele>157.0</ele><time>2026-04-06T09:59:56.997Z</time></trkpt><trkpt lat="43.7654917" lon="12.6694383"><ele>156.75</ele><time>2026-04-06T09:59:57.997Z</time></trkpt><trkpt lat="43.76564" lon="12.669465"><ele>156.5</ele><time>2026-04-06T09:59:58.997Z</time></trkpt><trkpt lat="43.7657733" lon="12.6695183"><ele>156.25</ele><time>2026-04-06T09:59:59.997Z</time></trkpt><trkpt lat="43.765905" lon="12.669595"><ele>156.0</ele><time>2026-04-06T10:00:00.997Z</time></trkpt><trkpt lat="43.7660267" lon="12.6696983"><ele>156.5</ele><time>2026-04-06T10:00:01.997Z</time></trkpt><trkpt lat="43.7661367" lon="12.6698267"><ele>157.0</ele><time>2026-04-06T10:00:02.997Z</time></trkpt><trkpt lat="43.76625" lon="12.6699533"><ele>157.5</ele><time>2026-04-06T10:00:03.997Z</time></trkpt><trkpt lat="43.7663567" lon="12.6700733"><ele>158.0</ele><time>2026-04-06T10:00:04.997Z</time></trkpt><trkpt lat="43.7664567" lon="12.6701883"><ele>156.75</ele><time>2026-04-06T10:00:05.997Z</time></trkpt><trkpt lat="43.7665433" lon="12.6703133"><ele>155.5</ele><time>2026-04-06T10:00:06.997Z</time></trkpt><trkpt lat="43.7666583" lon="12.6704267"><ele>154.25</ele><time>2026-04-06T10:00:07.997Z</time></trkpt><trkpt lat="43.7667683" lon="12.67055"><ele>153.0</ele><time>2026-04-06T10:00:08.997Z</time></trkpt><trkpt lat="43.7668767" lon="12.6706767"><ele>153.25</ele><time>2026-04-06T10:00:09.997Z</time></trkpt><trkpt lat="43.7669983" lon="12.67081"><ele>153.5</ele><time>2026-04-06T10:00:10.997Z</time></trkpt><trkpt lat="43.7671" lon="12.6709267"><ele>153.75</ele><time>2026-04-06T10:00:11.997Z</time></trkpt><trkpt lat="43.76719" lon="12.67107"><ele>154.0</ele><time>2026-04-06T10:00:12.997Z</time></trkpt><trkpt lat="43.7672783" lon="12.6712067"><ele>154.0</ele><time>2026-04-06T10:00:13.997Z</time></trkpt><trkpt lat="43.767365" lon="12.6713283"><ele>154.0</ele><time>2026-04-06T10:00:14.997Z</time></trkpt><trkpt lat="43.767475" lon="12.67145"><ele>154.0</ele><time>2026-04-06T10:00:15.997Z</time></trkpt><trkpt lat="43.7676017" lon="12.67156"><ele>154.0</ele><time>2026-04-06T10:00:16.997Z</time></trkpt><trkpt lat="43.7677433" lon="12.6716633"><ele>154.25</ele><time>2026-04-06T10:00:17.997Z</time></trkpt><trkpt lat="43.7678867" lon="12.6717433"><ele>154.5</ele><time>2026-04-06T10:00:18.997Z</time></trkpt><trkpt lat="43.7680167" lon="12.67181"><ele>154.75</ele><time>2026-04-06T10:00:19.997Z</time></trkpt><trkpt lat="43.7681367" lon="12.6718717"><ele>155.0</ele><time>2026-04-06T10:00:20.997Z</time></trkpt><trkpt lat="43.7682567" lon="12.6719183"><ele>154.5</ele><time>2026-04-06T10:00:21.997Z</time></trkpt><trkpt lat="43.7683783" lon="12.671965"><ele>154.0</ele><time>2026-04-06T10:00:22.997Z</time></trkpt><trkpt lat="43.76852" lon="12.6720067"><ele>153.5</ele><time>2026-04-06T10:00:23.997Z</time></trkpt><trkpt lat="43.7686717" lon="12.6720583"><ele>153.0</ele><time>2026-04-06T10:00:24.997Z</time></trkpt><trkpt lat="43.768845" lon="12.6721217"><ele>152.66666666666666</ele><time>2026-04-06T10:00:25.997Z</time></trkpt><trkpt lat="43.7690133" lon="12.672205"><ele>152.33333333333331</ele><time>2026-04-06T10:00:26.997Z</time></trkpt><trkpt lat="43.7691883" lon="12.6722817"><ele>152.0</ele><time>2026-04-06T10:00:27.997Z</time></trkpt><trkpt lat="43.7693567" lon="12.6723717"><ele>151.33333333333331</ele><time>2026-04-06T10:00:28.997Z</time></trkpt><trkpt lat="43.7695267" lon="12.6724683"><ele>150.66666666666666</ele><time>2026-04-06T10:00:29.997Z</time></trkpt><trkpt lat="43.7697033" lon="12.6725567"><ele>150.0</ele><time>2026-04-06T10:00:30.997Z</time></trkpt><trkpt lat="43.769895" lon="12.6726517"><ele>150.0</ele><time>2026-04-06T10:00:31.997Z</time></trkpt><trkpt lat="43.7700933" lon="12.672745"><ele>150.0</ele><time>2026-04-06T10:00:32.997Z</time></trkpt><trkpt lat="43.7703167" lon="12.6727983"><ele>150.0</ele><time>2026-04-06T10:00:33.997Z</time></trkpt><trkpt lat="43.7705067" lon="12.6728917"><ele>150.0</ele><time>2026-04-06T10:00:34.997Z</time></trkpt><trkpt lat="43.770695" lon="12.6729783"><ele>150.0</ele><time>2026-04-06T10:00:35.997Z</time></trkpt><trkpt lat="43.7708817" lon="12.6730633"><ele>150.0</ele><time>2026-04-06T10:00:36.997Z</time></trkpt><trkpt lat="43.7710833" lon="12.6731467"><ele>151.33333333333334</ele><time>2026-04-06T10:00:37.997Z</time></trkpt><trkpt lat="43.7712717" lon="12.6732367"><ele>152.66666666666669</ele><time>2026-04-06T10:00:38.997Z</time></trkpt><trkpt lat="43.77146" lon="12.6733383"><ele>154.0</ele><time>2026-04-06T10:00:39.996Z</time></trkpt><trkpt lat="43.7716533" lon="12.67344"><ele>154.0</ele><time>2026-04-06T10:00:40.997Z</time></trkpt><trkpt lat="43.7718283" lon="12.673555"><ele>154.0</ele><time>2026-04-06T10:00:41.997Z</time></trkpt><trkpt lat="43.7719967" lon="12.67367"><ele>154.0</ele><time>2026-04-06T10:00:42.997Z</time></trkpt><trkpt lat="43.7721717" lon="12.6737817"><ele>151.66666666666669</ele><time>2026-04-06T10:00:43.997Z</time></trkpt><trkpt lat="43.7723183" lon="12.67391"><ele>149.33333333333334</ele><time>2026-04-06T10:00:44.997Z</time></trkpt><trkpt lat="43.77247" lon="12.6740383"><ele>147.0</ele><time>2026-04-06T10:00:45.997Z</time></trkpt><trkpt lat="43.7726267" lon="12.6741533"><ele>146.66666666666666</ele><time>2026-04-06T10:00:46.997Z</time></trkpt><trkpt lat="43.77278" lon="12.6742633"><ele>146.33333333333331</ele><time>2026-04-06T10:00:47.997Z</time></trkpt><trkpt lat="43.7729367" lon="12.6743767"><ele>146.0</ele><time>2026-04-06T10:00:48.997Z</time></trkpt><trkpt lat="43.7730783" lon="12.6745133"><ele>146.0</ele><time>2026-04-06T10:00:49.997Z</time></trkpt><trkpt lat="43.7732283" lon="12.6746467"><ele>146.0</ele><time>2026-04-06T10:00:50.997Z</time></trkpt><trkpt lat="43.7733733" lon="12.67479"><ele>146.0</ele><time>2026-04-06T10:00:51.997Z</time></trkpt><trkpt lat="43.773525" lon="12.674945"><ele>146.33333333333331</ele><time>2026-04-06T10:00:52.997Z</time></trkpt><trkpt lat="43.77367" lon="12.6750933"><ele>146.66666666666666</ele><time>2026-04-06T10:00:53.997Z</time></trkpt><trkpt lat="43.7738067" lon="12.6752933"><ele>147.0</ele><time>2026-04-06T10:00:54.997Z</time></trkpt><trkpt lat="43.7739167" lon="12.6754933"><ele>146.33333333333334</ele><time>2026-04-06T10:00:55.997Z</time></trkpt><trkpt lat="43.77404" lon="12.6756717"><ele>145.66666666666669</ele><time>2026-04-06T10:00:56.997Z</time></trkpt><trkpt lat="43.7741567" lon="12.6758517"><ele>145.0</ele><time>2026-04-06T10:00:57.997Z</time></trkpt><trkpt lat="43.7742817" lon="12.67602"><ele>148.0</ele><time>2026-04-06T10:00:58.997Z</time></trkpt><trkpt lat="43.7744" lon="12.6761917"><ele>151.0</ele><time>2026-04-06T10:00:59.997Z</time></trkpt><trkpt lat="43.7745167" lon="12.6763617"><ele>154.0</ele><time>2026-04-06T10:01:00.997Z</time></trkpt><trkpt lat="43.7746267" lon="12.6765433"><ele>154.0</ele><time>2026-04-06T10:01:01.997Z</time></trkpt><trkpt lat="43.774725" lon="12.6767267"><ele>154.0</ele><time>2026-04-06T10:01:02.997Z</time></trkpt><trkpt lat="43.7748017" lon="12.6769433"><ele>154.0</ele><time>2026-04-06T10:01:03.997Z</time></trkpt><trkpt lat="43.7748867" lon="12.67715"><ele>150.66666666666669</ele><time>2026-04-06T10:01:04.997Z</time></trkpt><trkpt lat="43.7749633" lon="12.6773533"><ele>147.33333333333334</ele><time>2026-04-06T10:01:05.997Z</time></trkpt><trkpt lat="43.77503" lon="12.677555"><ele>144.0</ele><time>2026-04-06T10:01:06.997Z</time></trkpt><trkpt lat="43.7751" lon="12.6777533"><ele>145.0</ele><time>2026-04-06T10:01:07.997Z</time></trkpt><trkpt lat="43.7751683" lon="12.6779483"><ele>146.0</ele><time>2026-04-06T10:01:08.997Z</time></trkpt><trkpt lat="43.775255" lon="12.6781383"><ele>147.0</ele><time>2026-04-06T10:01:09.997Z</time></trkpt><trkpt lat="43.7753583" lon="12.67831"><ele>147.0</ele><time>2026-04-06T10:01:10.997Z</time></trkpt><trkpt lat="43.775475" lon="12.6784717"><ele>147.0</ele><time>2026-04-06T10:01:11.997Z</time></trkpt><trkpt lat="43.7756017" lon="12.6786267"><ele>147.0</ele><time>2026-04-06T10:01:12.997Z</time></trkpt><trkpt lat="43.7757167" lon="12.678795"><ele>146.33333333333334</ele><time>2026-04-06T10:01:13.997Z</time></trkpt><trkpt lat="43.7758417" lon="12.6789817"><ele>145.66666666666669</ele><time>2026-04-06T10:01:14.997Z</time></trkpt><trkpt lat="43.775955" lon="12.6792067"><ele>145.0</ele><time>2026-04-06T10:01:15.997Z</time></trkpt><trkpt lat="43.77608" lon="12.6794533"><ele>145.0</ele><time>2026-04-06T10:01:16.997Z</time></trkpt><trkpt lat="43.7761833" lon="12.6797567"><ele>145.0</ele><time>2026-04-06T10:01:17.997Z</time></trkpt><trkpt lat="43.7762817" lon="12.68009"><ele>144.0</ele><time>2026-04-06T10:01:18.997Z</time></trkpt><trkpt lat="43.7763917" lon="12.6804267"><ele>143.0</ele><time>2026-04-06T10:01:19.997Z</time></trkpt><trkpt lat="43.776505" lon="12.68077"><ele>140.5</ele><time>2026-04-06T10:01:20.997Z</time></trkpt><trkpt lat="43.7766317" lon="12.6811133"><ele>138.0</ele><time>2026-04-06T10:01:21.997Z</time></trkpt><trkpt lat="43.7767467" lon="12.681465"><ele>138.0</ele><time>2026-04-06T10:01:22.997Z</time></trkpt><trkpt lat="43.7768483" lon="12.68182"><ele>138.0</ele><time>2026-04-06T10:01:23.997Z</time></trkpt><trkpt lat="43.776925" lon="12.682175"><ele>144.5</ele><time>2026-04-06T10:01:24.997Z</time></trkpt><trkpt lat="43.7769633" lon="12.6825333"><ele>151.0</ele><time>2026-04-06T10:01:25.997Z</time></trkpt><trkpt lat="43.7769717" lon="12.6828867"><ele>151.0</ele><time>2026-04-06T10:01:26.997Z</time></trkpt><trkpt lat="43.7769783" lon="12.68323"><ele>151.0</ele><time>2026-04-06T10:01:27.997Z</time></trkpt><trkpt lat="43.7769583" lon="12.68356"><ele>148.66666666666669</ele><time>2026-04-06T10:01:28.997Z</time></trkpt><trkpt lat="43.776945" lon="12.68388"><ele>146.33333333333334</ele><time>2026-04-06T10:01:29.997Z</time></trkpt><trkpt lat="43.7769367" lon="12.684175"><ele>144.0</ele><time>2026-04-06T10:01:30.997Z</time></trkpt><trkpt lat="43.7769467" lon="12.684455"><ele>140.33333333333334</ele><time>2026-04-06T10:01:31.997Z</time></trkpt><trkpt lat="43.77697" lon="12.68473"><ele>136.66666666666669</ele><time>2026-04-06T10:01:32.997Z</time></trkpt><trkpt lat="43.7770367" lon="12.6849733"><ele>133.0</ele><time>2026-04-06T10:01:33.997Z</time></trkpt><trkpt lat="43.7771767" lon="12.6851483"><ele>132.0</ele><time>2026-04-06T10:01:34.997Z</time></trkpt><trkpt lat="43.777305" lon="12.68532"><ele>131.0</ele><time>2026-04-06T10:01:35.996Z</time></trkpt><trkpt lat="43.7774467" lon="12.6855117"><ele>130.0</ele><time>2026-04-06T10:01:36.996Z</time></trkpt><trkpt lat="43.7776567" lon="12.6856533"><ele>130.5</ele><time>2026-04-06T10:01:37.996Z</time></trkpt><trkpt lat="43.7778817" lon="12.6857883"><ele>131.0</ele><time>2026-04-06T10:01:38.996Z</time></trkpt><trkpt lat="43.7781017" lon="12.6859467"><ele>130.5</ele><time>2026-04-06T10:01:39.996Z</time></trkpt><trkpt lat="43.77833" lon="12.6861033"><ele>130.0</ele><time>2026-04-06T10:01:40.996Z</time></trkpt><trkpt lat="43.7785717" lon="12.68626"><ele>130.0</ele><time>2026-04-06T10:01:41.996Z</time></trkpt><trkpt lat="43.7787883" lon="12.6864383"><ele>130.0</ele><time>2026-04-06T10:01:42.996Z</time></trkpt><trkpt lat="43.7790217" lon="12.6866083"><ele>130.0</ele><time>2026-04-06T10:01:43.996Z</time></trkpt><trkpt lat="43.7792483" lon="12.6867667"><ele>130.0</ele><time>2026-04-06T10:01:44.995Z</time></trkpt><trkpt lat="43.7794817" lon="12.6869217"><ele>129.5</ele><time>2026-04-06T10:01:45.996Z</time></trkpt><trkpt lat="43.77971" lon="12.6870733"><ele>129.0</ele><time>2026-04-06T10:01:46.996Z</time></trkpt><trkpt lat="43.7799383" lon="12.6872117"><ele>129.0</ele><time>2026-04-06T10:01:47.996Z</time></trkpt><trkpt lat="43.78017" lon="12.6873617"><ele>129.0</ele><time>2026-04-06T10:01:48.996Z</time></trkpt><trkpt lat="43.7803983" lon="12.68752"><ele>129.5</ele><time>2026-04-06T10:01:49.996Z</time></trkpt><trkpt lat="43.7806133" lon="12.6877567"><ele>130.0</ele><time>2026-04-06T10:01:50.996Z</time></trkpt><trkpt lat="43.7807867" lon="12.68798"><ele>129.0</ele><time>2026-04-06T10:01:51.996Z</time></trkpt><trkpt lat="43.78095" lon="12.6882033"><ele>128.0</ele><time>2026-04-06T10:01:52.996Z</time></trkpt><trkpt lat="43.781105" lon="12.6884517"><ele>128.66666666666666</ele><time>2026-04-06T10:01:53.996Z</time></trkpt><trkpt lat="43.78124" lon="12.688705"><ele>129.33333333333334</ele><time>2026-04-06T10:01:54.996Z</time></trkpt><trkpt lat="43.7813567" lon="12.688955"><ele>130.0</ele><time>2026-04-06T10:01:55.996Z</time></trkpt><trkpt lat="43.7814617" lon="12.689195"><ele>128.66666666666669</ele><time>2026-04-06T10:01:56.996Z</time></trkpt><trkpt lat="43.7815567" lon="12.6894433"><ele>127.33333333333334</ele><time>2026-04-06T10:01:57.996Z</time></trkpt><trkpt lat="43.781625" lon="12.6897133"><ele>126.0</ele><time>2026-04-06T10:01:58.996Z</time></trkpt><trkpt lat="43.7816833" lon="12.689995"><ele>125.66666666666666</ele><time>2026-04-06T10:01:59.996Z</time></trkpt><trkpt lat="43.7817633" lon="12.6902733"><ele>125.33333333333333</ele><time>2026-04-06T10:02:00.996Z</time></trkpt><trkpt lat="43.7818333" lon="12.69056"><ele>125.0</ele><time>2026-04-06T10:02:01.996Z</time></trkpt><trkpt lat="43.7818883" lon="12.6908567"><ele>129.0</ele><time>2026-04-06T10:02:02.996Z</time></trkpt><trkpt lat="43.7819517" lon="12.69116"><ele>133.0</ele><time>2026-04-06T10:02:03.996Z</time></trkpt><trkpt lat="43.78199" lon="12.6914583"><ele>137.0</ele><time>2026-04-06T10:02:04.996Z</time></trkpt><trkpt lat="43.7820433" lon="12.6917583"><ele>134.5</ele><time>2026-04-06T10:02:05.996Z</time></trkpt><trkpt lat="43.782055" lon="12.69208"><ele>132.0</ele><time>2026-04-06T10:02:06.996Z</time></trkpt><trkpt lat="43.7820683" lon="12.6923983"><ele>132.0</ele><time>2026-04-06T10:02:07.996Z</time></trkpt><trkpt lat="43.7820533" lon="12.69271"><ele>132.0</ele><time>2026-04-06T10:02:08.996Z</time></trkpt><trkpt lat="43.7820133" lon="12.693015"><ele>132.0</ele><time>2026-04-06T10:02:09.996Z</time></trkpt><trkpt lat="43.7819633" lon="12.6933233"><ele>133.0</ele><time>2026-04-06T10:02:10.996Z</time></trkpt><trkpt lat="43.7819" lon="12.6936417"><ele>134.0</ele><time>2026-04-06T10:02:11.996Z</time></trkpt><trkpt lat="43.7818367" lon="12.6939383"><ele>130.5</ele><time>2026-04-06T10:02:12.996Z</time></trkpt><trkpt lat="43.7817667" lon="12.6942467"><ele>127.0</ele><time>2026-04-06T10:02:13.996Z</time></trkpt><trkpt lat="43.7816933" lon="12.6945633"><ele>127.0</ele><time>2026-04-06T10:02:14.996Z</time></trkpt><trkpt lat="43.7816283" lon="12.6948833"><ele>127.0</ele><time>2026-04-06T10:02:15.996Z</time></trkpt><trkpt lat="43.7815633" lon="12.6952"><ele>125.5</ele><time>2026-04-06T10:02:16.996Z</time></trkpt><trkpt lat="43.7814917" lon="12.6955183"><ele>124.0</ele><time>2026-04-06T10:02:17.996Z</time></trkpt><trkpt lat="43.781415" lon="12.695835"><ele>123.33333333333334</ele><time>2026-04-06T10:02:18.996Z</time></trkpt><trkpt lat="43.781355" lon="12.696125"><ele>122.66666666666666</ele><time>2026-04-06T10:02:19.996Z</time></trkpt><trkpt lat="43.7812933" lon="12.6963983"><ele>122.0</ele><time>2026-04-06T10:02:20.996Z</time></trkpt><trkpt lat="43.7812383" lon="12.6966583"><ele>122.66666666666666</ele><time>2026-04-06T10:02:21.996Z</time></trkpt><trkpt lat="43.7811917" lon="12.6969267"><ele>123.33333333333334</ele><time>2026-04-06T10:02:22.996Z</time></trkpt><trkpt lat="43.7811517" lon="12.697195"><ele>124.0</ele><time>2026-04-06T10:02:23.996Z</time></trkpt><trkpt lat="43.7810983" lon="12.6974733"><ele>123.33333333333334</ele><time>2026-04-06T10:02:24.996Z</time></trkpt><trkpt lat="43.7810383" lon="12.6977533"><ele>122.66666666666666</ele><time>2026-04-06T10:02:25.996Z</time></trkpt><trkpt lat="43.7809833" lon="12.69804"><ele>122.0</ele><time>2026-04-06T10:02:26.996Z</time></trkpt><trkpt lat="43.7809333" lon="12.6983283"><ele>122.33333333333333</ele><time>2026-04-06T10:02:27.996Z</time></trkpt><trkpt lat="43.780885" lon="12.6985983"><ele>122.66666666666666</ele><time>2026-04-06T10:02:28.996Z</time></trkpt><trkpt lat="43.78084" lon="12.6988617"><ele>123.0</ele><time>2026-04-06T10:02:29.996Z</time></trkpt><trkpt lat="43.7808" lon="12.69912"><ele>123.0</ele><time>2026-04-06T10:02:30.996Z</time></trkpt><trkpt lat="43.7807567" lon="12.69937"><ele>123.0</ele><time>2026-04-06T10:02:31.996Z</time></trkpt><trkpt lat="43.7807233" lon="12.6996017"><ele>123.0</ele><time>2026-04-06T10:02:32.996Z</time></trkpt><trkpt lat="43.78068" lon="12.6998433"><ele>122.66666666666666</ele><time>2026-04-06T10:02:33.996Z</time></trkpt><trkpt lat="43.7806417" lon="12.7000733"><ele>122.33333333333333</ele><time>2026-04-06T10:02:34.996Z</time></trkpt><trkpt lat="43.7806017" lon="12.7003067"><ele>122.0</ele><time>2026-04-06T10:02:35.996Z</time></trkpt><trkpt lat="43.780565" lon="12.7005383"><ele>122.0</ele><time>2026-04-06T10:02:36.996Z</time></trkpt><trkpt lat="43.7805317" lon="12.700755"><ele>122.0</ele><time>2026-04-06T10:02:37.996Z</time></trkpt><trkpt lat="43.7805117" lon="12.700975"><ele>122.0</ele><time>2026-04-06T10:02:38.996Z</time></trkpt><trkpt lat="43.7805017" lon="12.7011883"><ele>121.66666666666666</ele><time>2026-04-06T10:02:39.996Z</time></trkpt><trkpt lat="43.7805233" lon="12.701405"><ele>121.33333333333334</ele><time>2026-04-06T10:02:40.996Z</time></trkpt><trkpt lat="43.78053" lon="12.7016167"><ele>121.0</ele><time>2026-04-06T10:02:41.996Z</time></trkpt><trkpt lat="43.78053" lon="12.7018317"><ele>121.0</ele><time>2026-04-06T10:02:42.996Z</time></trkpt><trkpt lat="43.7805383" lon="12.7020483"><ele>121.0</ele><time>2026-04-06T10:02:43.996Z</time></trkpt><trkpt lat="43.78055" lon="12.7022633"><ele>121.0</ele><time>2026-04-06T10:02:44.995Z</time></trkpt><trkpt lat="43.7805717" lon="12.7025067"><ele>120.66666666666667</ele><time>2026-04-06T10:02:45.996Z</time></trkpt><trkpt lat="43.7806" lon="12.7027633"><ele>120.33333333333334</ele><time>2026-04-06T10:02:46.996Z</time></trkpt><trkpt lat="43.7806383" lon="12.7030183"><ele>120.0</ele><time>2026-04-06T10:02:47.996Z</time></trkpt><trkpt lat="43.7806917" lon="12.7032933"><ele>120.0</ele><time>2026-04-06T10:02:48.996Z</time></trkpt><trkpt lat="43.7807817" lon="12.7035617"><ele>120.0</ele><time>2026-04-06T10:02:49.996Z</time></trkpt><trkpt lat="43.7808417" lon="12.7038383"><ele>120.0</ele><time>2026-04-06T10:02:50.996Z</time></trkpt><trkpt lat="43.7808683" lon="12.7041317"><ele>118.0</ele><time>2026-04-06T10:02:51.996Z</time></trkpt><trkpt lat="43.7808783" lon="12.7044283"><ele>116.0</ele><time>2026-04-06T10:02:52.996Z</time></trkpt><trkpt lat="43.7808583" lon="12.7047383"><ele>114.0</ele><time>2026-04-06T10:02:53.996Z</time></trkpt><trkpt lat="43.780835" lon="12.7050467"><ele>113.5</ele><time>2026-04-06T10:02:54.996Z</time></trkpt><trkpt lat="43.7807933" lon="12.7053567"><ele>113.0</ele><time>2026-04-06T10:02:55.996Z</time></trkpt><trkpt lat="43.78074" lon="12.7056717"><ele>113.0</ele><time>2026-04-06T10:02:56.996Z</time></trkpt><trkpt lat="43.7806817" lon="12.7059817"><ele>113.0</ele><time>2026-04-06T10:02:57.996Z</time></trkpt><trkpt lat="43.7806317" lon="12.706295"><ele>113.0</ele><time>2026-04-06T10:02:58.996Z</time></trkpt><trkpt lat="43.7806083" lon="12.7066133"><ele>113.0</ele><time>2026-04-06T10:02:59.996Z</time></trkpt><trkpt lat="43.7806" lon="12.70694"><ele>113.0</ele><time>2026-04-06T10:03:00.996Z</time></trkpt><trkpt lat="43.7806133" lon="12.707265"><ele>113.0</ele><time>2026-04-06T10:03:01.996Z</time></trkpt><trkpt lat="43.7806333" lon="12.7075933"><ele>114.0</ele><time>2026-04-06T10:03:02.996Z</time></trkpt><trkpt lat="43.7806583" lon="12.707935"><ele>115.0</ele><time>2026-04-06T10:03:03.996Z</time></trkpt><trkpt lat="43.7806817" lon="12.70827"><ele>117.5</ele><time>2026-04-06T10:03:04.996Z</time></trkpt><trkpt lat="43.7806967" lon="12.708595"><ele>120.0</ele><time>2026-04-06T10:03:05.996Z</time></trkpt><trkpt lat="43.78073" lon="12.7089133"><ele>120.0</ele><time>2026-04-06T10:03:06.996Z</time></trkpt><trkpt lat="43.7807767" lon="12.7092167"><ele>120.0</ele><time>2026-04-06T10:03:07.996Z</time></trkpt><trkpt lat="43.7808483" lon="12.7095183"><ele>122.5</ele><time>2026-04-06T10:03:08.995Z</time></trkpt><trkpt lat="43.7809317" lon="12.709815"><ele>125.0</ele><time>2026-04-06T10:03:09.996Z</time></trkpt><trkpt lat="43.7810367" lon="12.7101"><ele>121.0</ele><time>2026-04-06T10:03:10.996Z</time></trkpt><trkpt lat="43.78118" lon="12.71036"><ele>117.0</ele><time>2026-04-06T10:03:11.996Z</time></trkpt><trkpt lat="43.7813233" lon="12.710625"><ele>117.0</ele><time>2026-04-06T10:03:12.996Z</time></trkpt><trkpt lat="43.78146" lon="12.7108867"><ele>117.0</ele><time>2026-04-06T10:03:13.996Z</time></trkpt><trkpt lat="43.7816033" lon="12.711145"><ele>117.0</ele><time>2026-04-06T10:03:14.996Z</time></trkpt><trkpt lat="43.7817383" lon="12.7114083"><ele>117.0</ele><time>2026-04-06T10:03:15.996Z</time></trkpt><trkpt lat="43.7818667" lon="12.7116833"><ele>122.0</ele><time>2026-04-06T10:03:16.996Z</time></trkpt><trkpt lat="43.78197" lon="12.7119733"><ele>127.0</ele><time>2026-04-06T10:03:17.996Z</time></trkpt><trkpt lat="43.7820533" lon="12.7122833"><ele>127.0</ele><time>2026-04-06T10:03:18.996Z</time></trkpt><trkpt lat="43.7821117" lon="12.71261"><ele>127.0</ele><time>2026-04-06T10:03:19.996Z</time></trkpt><trkpt lat="43.78214" lon="12.7129383"><ele>127.5</ele><time>2026-04-06T10:03:20.996Z</time></trkpt><trkpt lat="43.7821433" lon="12.713275"><ele>128.0</ele><time>2026-04-06T10:03:21.996Z</time></trkpt><trkpt lat="43.78215" lon="12.7135933"><ele>128.0</ele><time>2026-04-06T10:03:22.996Z</time></trkpt><trkpt lat="43.7821567" lon="12.7138817"><ele>128.0</ele><time>2026-04-06T10:03:23.996Z</time></trkpt><trkpt lat="43.78216" lon="12.7141467"><ele>128.0</ele><time>2026-04-06T10:03:24.995Z</time></trkpt><trkpt lat="43.7821667" lon="12.714385"><ele>127.33333333333333</ele><time>2026-04-06T10:03:25.996Z</time></trkpt><trkpt lat="43.7821683" lon="12.7146067"><ele>126.66666666666666</ele><time>2026-04-06T10:03:26.996Z</time></trkpt><trkpt lat="43.7821783" lon="12.714815"><ele>126.0</ele><time>2026-04-06T10:03:27.996Z</time></trkpt><trkpt lat="43.782195" lon="12.7150233"><ele>124.0</ele><time>2026-04-06T10:03:28.996Z</time></trkpt><trkpt lat="43.7822167" lon="12.7152467"><ele>122.0</ele><time>2026-04-06T10:03:29.996Z</time></trkpt><trkpt lat="43.78226" lon="12.715455"><ele>120.0</ele><time>2026-04-06T10:03:30.996Z</time></trkpt><trkpt lat="43.7823217" lon="12.71567"><ele>120.0</ele><time>2026-04-06T10:03:31.996Z</time></trkpt><trkpt lat="43.7824" lon="12.7158883"><ele>120.0</ele><time>2026-04-06T10:03:32.996Z</time></trkpt><trkpt lat="43.78248" lon="12.7160683"><ele>120.0</ele><time>2026-04-06T10:03:33.996Z</time></trkpt><trkpt lat="43.7825717" lon="12.7162533"><ele>117.66666666666666</ele><time>2026-04-06T10:03:34.996Z</time></trkpt><trkpt lat="43.7826783" lon="12.7164367"><ele>115.33333333333333</ele><time>2026-04-06T10:03:35.996Z</time></trkpt><trkpt lat="43.7827883" lon="12.7166267"><ele>113.0</ele><time>2026-04-06T10:03:36.996Z</time></trkpt><trkpt lat="43.7829033" lon="12.7168167"><ele>110.33333333333333</ele><time>2026-04-06T10:03:37.996Z</time></trkpt><trkpt lat="43.7830383" lon="12.7170133"><ele>107.66666666666666</ele><time>2026-04-06T10:03:38.996Z</time></trkpt><trkpt lat="43.7831617" lon="12.7172067"><ele>105.0</ele><time>2026-04-06T10:03:39.996Z</time></trkpt><trkpt lat="43.7832883" lon="12.71739"><ele>105.0</ele><time>2026-04-06T10:03:40.996Z</time></trkpt><trkpt lat="43.7834133" lon="12.7175783"><ele>105.0</ele><time>2026-04-06T10:03:41.996Z</time></trkpt><trkpt lat="43.7835383" lon="12.7177867"><ele>105.0</ele><time>2026-04-06T10:03:42.996Z</time></trkpt><trkpt lat="43.7836617" lon="12.7179817"><ele>105.33333333333334</ele><time>2026-04-06T10:03:43.996Z</time></trkpt><trkpt lat="43.7837833" lon="12.718175"><ele>105.66666666666667</ele><time>2026-04-06T10:03:44.996Z</time></trkpt><trkpt lat="43.7839133" lon="12.7183633"><ele>106.0</ele><time>2026-04-06T10:03:45.996Z</time></trkpt><trkpt lat="43.7840417" lon="12.7185467"><ele>106.33333333333334</ele><time>2026-04-06T10:03:46.996Z</time></trkpt><trkpt lat="43.78418" lon="12.7187067"><ele>106.66666666666666</ele><time>2026-04-06T10:03:47.996Z</time></trkpt><trkpt lat="43.7843217" lon="12.7188417"><ele>107.0</ele><time>2026-04-06T10:03:48.996Z</time></trkpt><trkpt lat="43.7844733" lon="12.7189633"><ele>107.0</ele><time>2026-04-06T10:03:49.996Z</time></trkpt><trkpt lat="43.78462" lon="12.7190817"><ele>107.0</ele><time>2026-04-06T10:03:50.996Z</time></trkpt><trkpt lat="43.7847917" lon="12.7191717"><ele>107.0</ele><time>2026-04-06T10:03:51.996Z</time></trkpt><trkpt lat="43.78496" lon="12.7192583"><ele>107.0</ele><time>2026-04-06T10:03:52.996Z</time></trkpt><trkpt lat="43.7851333" lon="12.71934"><ele>107.0</ele><time>2026-04-06T10:03:53.996Z</time></trkpt><trkpt lat="43.7853017" lon="12.7194317"><ele>107.0</ele><time>2026-04-06T10:03:54.996Z</time></trkpt><trkpt lat="43.7854683" lon="12.71954"><ele>106.33333333333333</ele><time>2026-04-06T10:03:55.996Z</time></trkpt><trkpt lat="43.7856367" lon="12.7196717"><ele>105.66666666666666</ele><time>2026-04-06T10:03:56.996Z</time></trkpt><trkpt lat="43.7857783" lon="12.71983"><ele>105.0</ele><time>2026-04-06T10:03:57.996Z</time></trkpt><trkpt lat="43.785905" lon="12.7200017"><ele>104.66666666666666</ele><time>2026-04-06T10:03:58.996Z</time></trkpt><trkpt lat="43.786035" lon="12.72018"><ele>104.33333333333333</ele><time>2026-04-06T10:03:59.996Z</time></trkpt><trkpt lat="43.786175" lon="12.720355"><ele>104.0</ele><time>2026-04-06T10:04:00.996Z</time></trkpt><trkpt lat="43.7863183" lon="12.7205267"><ele>104.66666666666666</ele><time>2026-04-06T10:04:01.996Z</time></trkpt><trkpt lat="43.7864817" lon="12.72071"><ele>105.33333333333334</ele><time>2026-04-06T10:04:02.995Z</time></trkpt><trkpt lat="43.786645" lon="12.7208967"><ele>106.0</ele><time>2026-04-06T10:04:03.996Z</time></trkpt><trkpt lat="43.7868117" lon="12.72109"><ele>104.5</ele><time>2026-04-06T10:04:04.996Z</time></trkpt><trkpt lat="43.7869867" lon="12.721285"><ele>103.0</ele><time>2026-04-06T10:04:05.996Z</time></trkpt><trkpt lat="43.7871517" lon="12.7215033"><ele>103.0</ele><time>2026-04-06T10:04:06.996Z</time></trkpt><trkpt lat="43.7873233" lon="12.7217217"><ele>103.0</ele><time>2026-04-06T10:04:07.996Z</time></trkpt><trkpt lat="43.7874933" lon="12.7219367"><ele>102.0</ele><time>2026-04-06T10:04:08.996Z</time></trkpt><trkpt lat="43.7876767" lon="12.722145"><ele>101.0</ele><time>2026-04-06T10:04:09.996Z</time></trkpt><trkpt lat="43.7878733" lon="12.7223517"><ele>101.0</ele><time>2026-04-06T10:04:10.996Z</time></trkpt><trkpt lat="43.7880717" lon="12.7225683"><ele>101.0</ele><time>2026-04-06T10:04:11.996Z</time></trkpt><trkpt lat="43.78827" lon="12.7227883"><ele>99.5</ele><time>2026-04-06T10:04:12.996Z</time></trkpt><trkpt lat="43.78847" lon="12.72301"><ele>98.0</ele><time>2026-04-06T10:04:13.996Z</time></trkpt><trkpt lat="43.7886717" lon="12.7232383"><ele>98.0</ele><time>2026-04-06T10:04:14.996Z</time></trkpt><trkpt lat="43.7888783" lon="12.7234483"><ele>98.0</ele><time>2026-04-06T10:04:15.996Z</time></trkpt><trkpt lat="43.7890767" lon="12.7236617"><ele>98.0</ele><time>2026-04-06T10:04:16.996Z</time></trkpt><trkpt lat="43.7892783" lon="12.7238667"><ele>98.0</ele><time>2026-04-06T10:04:17.996Z</time></trkpt><trkpt lat="43.7894933" lon="12.7240367"><ele>98.0</ele><time>2026-04-06T10:04:18.996Z</time></trkpt><trkpt lat="43.78973" lon="12.7241667"><ele>98.0</ele><time>2026-04-06T10:04:19.996Z</time></trkpt><trkpt lat="43.7899717" lon="12.724265"><ele>100.0</ele><time>2026-04-06T10:04:20.996Z</time></trkpt><trkpt lat="43.79021" lon="12.7243367"><ele>102.0</ele><time>2026-04-06T10:04:21.996Z</time></trkpt><trkpt lat="43.790445" lon="12.7243833"><ele>102.0</ele><time>2026-04-06T10:04:22.996Z</time></trkpt><trkpt lat="43.79069" lon="12.7243917"><ele>102.0</ele><time>2026-04-06T10:04:23.996Z</time></trkpt><trkpt lat="43.7909417" lon="12.724365"><ele>103.5</ele><time>2026-04-06T10:04:24.996Z</time></trkpt><trkpt lat="43.7912067" lon="12.7243133"><ele>105.0</ele><time>2026-04-06T10:04:25.996Z</time></trkpt><trkpt lat="43.7914633" lon="12.72424"><ele>105.0</ele><time>2026-04-06T10:04:26.996Z</time></trkpt><trkpt lat="43.79171" lon="12.7241433"><ele>105.0</ele><time>2026-04-06T10:04:27.996Z</time></trkpt><trkpt lat="43.7919733" lon="12.7240417"><ele>106.0</ele><time>2026-04-06T10:04:28.996Z</time></trkpt><trkpt lat="43.79224" lon="12.7239333"><ele>107.0</ele><time>2026-04-06T10:04:29.996Z</time></trkpt><trkpt lat="43.7925067" lon="12.72383"><ele>107.5</ele><time>2026-04-06T10:04:30.996Z</time></trkpt><trkpt lat="43.79277" lon="12.7237467"><ele>108.0</ele><time>2026-04-06T10:04:31.996Z</time></trkpt><trkpt lat="43.7930317" lon="12.723655"><ele>103.5</ele><time>2026-04-06T10:04:32.996Z</time></trkpt><trkpt lat="43.7933067" lon="12.7235517"><ele>99.0</ele><time>2026-04-06T10:04:33.996Z</time></trkpt><trkpt lat="43.7935783" lon="12.723455"><ele>98.0</ele><time>2026-04-06T10:04:34.996Z</time></trkpt><trkpt lat="43.7938417" lon="12.7233683"><ele>97.0</ele><time>2026-04-06T10:04:35.996Z</time></trkpt><trkpt lat="43.794105" lon="12.7232767"><ele>95.0</ele><time>2026-04-06T10:04:36.996Z</time></trkpt><trkpt lat="43.7943733" lon="12.723185"><ele>93.0</ele><time>2026-04-06T10:04:37.996Z</time></trkpt><trkpt lat="43.7946383" lon="12.72309"><ele>93.0</ele><time>2026-04-06T10:04:38.996Z</time></trkpt><trkpt lat="43.7948833" lon="12.7230017"><ele>93.0</ele><time>2026-04-06T10:04:39.996Z</time></trkpt><trkpt lat="43.7951167" lon="12.722925"><ele>94.0</ele><time>2026-04-06T10:04:40.996Z</time></trkpt><trkpt lat="43.795355" lon="12.7228567"><ele>95.0</ele><time>2026-04-06T10:04:41.996Z</time></trkpt><trkpt lat="43.79557" lon="12.7228133"><ele>95.0</ele><time>2026-04-06T10:04:42.996Z</time></trkpt><trkpt lat="43.7957833" lon="12.7227633"><ele>95.0</ele><time>2026-04-06T10:04:43.996Z</time></trkpt><trkpt lat="43.795965" lon="12.7227283"><ele>95.0</ele><time>2026-04-06T10:04:44.996Z</time></trkpt><trkpt lat="43.7961233" lon="12.722705"><ele>98.66666666666667</ele><time>2026-04-06T10:04:45.996Z</time></trkpt><trkpt lat="43.7962733" lon="12.7226833"><ele>102.33333333333334</ele><time>2026-04-06T10:04:46.996Z</time></trkpt><trkpt lat="43.7964383" lon="12.722695"><ele>106.0</ele><time>2026-04-06T10:04:47.996Z</time></trkpt><trkpt lat="43.7966233" lon="12.7227117"><ele>103.33333333333334</ele><time>2026-04-06T10:04:48.996Z</time></trkpt><trkpt lat="43.7968117" lon="12.722735"><ele>100.66666666666666</ele><time>2026-04-06T10:04:49.996Z</time></trkpt><trkpt lat="43.7970083" lon="12.72276"><ele>98.0</ele><time>2026-04-06T10:04:50.996Z</time></trkpt><trkpt lat="43.79722" lon="12.722785"><ele>98.0</ele><time>2026-04-06T10:04:51.996Z</time></trkpt><trkpt lat="43.7974433" lon="12.72281"><ele>98.0</ele><time>2026-04-06T10:04:52.996Z</time></trkpt><trkpt lat="43.7976867" lon="12.722835"><ele>97.5</ele><time>2026-04-06T10:04:53.996Z</time></trkpt><trkpt lat="43.797945" lon="12.72286"><ele>97.0</ele><time>2026-04-06T10:04:54.996Z</time></trkpt><trkpt lat="43.7982183" lon="12.7228817"><ele>97.0</ele><time>2026-04-06T10:04:55.996Z</time></trkpt><trkpt lat="43.798475" lon="12.722905"><ele>97.0</ele><time>2026-04-06T10:04:56.996Z</time></trkpt><trkpt lat="43.7987217" lon="12.722925"><ele>96.66666666666667</ele><time>2026-04-06T10:04:57.996Z</time></trkpt><trkpt lat="43.79894" lon="12.7229567"><ele>96.33333333333334</ele><time>2026-04-06T10:04:58.996Z</time></trkpt><trkpt lat="43.7991667" lon="12.72297"><ele>96.0</ele><time>2026-04-06T10:04:59.996Z</time></trkpt><trkpt lat="43.7993867" lon="12.7229667"><ele>96.0</ele><time>2026-04-06T10:05:00.996Z</time></trkpt><trkpt lat="43.799605" lon="12.7229383"><ele>96.0</ele><time>2026-04-06T10:05:01.996Z</time></trkpt><trkpt lat="43.7998417" lon="12.722875"><ele>96.0</ele><time>2026-04-06T10:05:02.996Z</time></trkpt><trkpt lat="43.800065" lon="12.7228083"><ele>96.0</ele><time>2026-04-06T10:05:03.996Z</time></trkpt><trkpt lat="43.8003067" lon="12.722735"><ele>97.5</ele><time>2026-04-06T10:05:04.996Z</time></trkpt><trkpt lat="43.8005533" lon="12.72268"><ele>99.0</ele><time>2026-04-06T10:05:05.996Z</time></trkpt><trkpt lat="43.8007917" lon="12.7226367"><ele>95.0</ele><time>2026-04-06T10:05:06.996Z</time></trkpt><trkpt lat="43.8010383" lon="12.7225917"><ele>91.0</ele><time>2026-04-06T10:05:07.996Z</time></trkpt><trkpt lat="43.801285" lon="12.7225583"><ele>91.0</ele><time>2026-04-06T10:05:08.996Z</time></trkpt><trkpt lat="43.8015283" lon="12.7225483"><ele>91.0</ele><time>2026-04-06T10:05:09.996Z</time></trkpt><trkpt lat="43.8017633" lon="12.722565"><ele>90.5</ele><time>2026-04-06T10:05:10.996Z</time></trkpt><trkpt lat="43.8020083" lon="12.7226"><ele>90.0</ele><time>2026-04-06T10:05:11.996Z</time></trkpt><trkpt lat="43.8022333" lon="12.72267"><ele>88.5</ele><time>2026-04-06T10:05:12.996Z</time></trkpt><trkpt lat="43.8024533" lon="12.7227667"><ele>87.0</ele><time>2026-04-06T10:05:13.996Z</time></trkpt><trkpt lat="43.8026733" lon="12.7228883"><ele>92.5</ele><time>2026-04-06T10:05:14.996Z</time></trkpt><trkpt lat="43.8028833" lon="12.723025"><ele>98.0</ele><time>2026-04-06T10:05:15.996Z</time></trkpt><trkpt lat="43.8030933" lon="12.72318"><ele>98.0</ele><time>2026-04-06T10:05:16.996Z</time></trkpt><trkpt lat="43.8032933" lon="12.7233517"><ele>98.0</ele><time>2026-04-06T10:05:17.996Z</time></trkpt><trkpt lat="43.8034983" lon="12.7235267"><ele>97.0</ele><time>2026-04-06T10:05:18.996Z</time></trkpt><trkpt lat="43.803685" lon="12.72371"><ele>96.0</ele><time>2026-04-06T10:05:19.996Z</time></trkpt><trkpt lat="43.8038817" lon="12.7238883"><ele>96.0</ele><time>2026-04-06T10:05:20.996Z</time></trkpt><trkpt lat="43.8040883" lon="12.7240533"><ele>96.0</ele><time>2026-04-06T10:05:21.996Z</time></trkpt><trkpt lat="43.8042917" lon="12.724215"><ele>93.5</ele><time>2026-04-06T10:05:22.996Z</time></trkpt><trkpt lat="43.804495" lon="12.7243583"><ele>91.0</ele><time>2026-04-06T10:05:23.996Z</time></trkpt><trkpt lat="43.8047083" lon="12.7245033"><ele>91.0</ele><time>2026-04-06T10:05:24.996Z</time></trkpt><trkpt lat="43.8049267" lon="12.7246367"><ele>91.0</ele><time>2026-04-06T10:05:25.996Z</time></trkpt><trkpt lat="43.8051333" lon="12.724785"><ele>95.0</ele><time>2026-04-06T10:05:26.996Z</time></trkpt><trkpt lat="43.80535" lon="12.7249167"><ele>99.0</ele><time>2026-04-06T10:05:27.996Z</time></trkpt><trkpt lat="43.8055683" lon="12.7250733"><ele>94.0</ele><time>2026-04-06T10:05:28.996Z</time></trkpt><trkpt lat="43.80576" lon="12.72524"><ele>89.0</ele><time>2026-04-06T10:05:29.996Z</time></trkpt><trkpt lat="43.8059633" lon="12.7253833"><ele>91.33333333333334</ele><time>2026-04-06T10:05:30.996Z</time></trkpt><trkpt lat="43.8061717" lon="12.72552"><ele>93.66666666666667</ele><time>2026-04-06T10:05:31.996Z</time></trkpt><trkpt lat="43.8063667" lon="12.7256467"><ele>96.0</ele><time>2026-04-06T10:05:32.996Z</time></trkpt><trkpt lat="43.8065717" lon="12.725775"><ele>96.0</ele><time>2026-04-06T10:05:33.996Z</time></trkpt><trkpt lat="43.806785" lon="12.7259067"><ele>96.0</ele><time>2026-04-06T10:05:34.996Z</time></trkpt><trkpt lat="43.8070017" lon="12.7260267"><ele>96.5</ele><time>2026-04-06T10:05:35.996Z</time></trkpt><trkpt lat="43.8072133" lon="12.7261333"><ele>97.0</ele><time>2026-04-06T10:05:36.996Z</time></trkpt><trkpt lat="43.807435" lon="12.7262217"><ele>95.0</ele><time>2026-04-06T10:05:37.996Z</time></trkpt><trkpt lat="43.8076683" lon="12.7262983"><ele>93.0</ele><time>2026-04-06T10:05:38.996Z</time></trkpt><trkpt lat="43.8078933" lon="12.726365"><ele>93.0</ele><time>2026-04-06T10:05:39.996Z</time></trkpt><trkpt lat="43.8081067" lon="12.726435"><ele>93.0</ele><time>2026-04-06T10:05:40.996Z</time></trkpt><trkpt lat="43.8083317" lon="12.7265117"><ele>94.5</ele><time>2026-04-06T10:05:41.996Z</time></trkpt><trkpt lat="43.8085617" lon="12.7265867"><ele>96.0</ele><time>2026-04-06T10:05:42.996Z</time></trkpt><trkpt lat="43.8087917" lon="12.72666"><ele>96.0</ele><time>2026-04-06T10:05:43.996Z</time></trkpt><trkpt lat="43.80902" lon="12.726735"><ele>96.0</ele><time>2026-04-06T10:05:44.996Z</time></trkpt><trkpt lat="43.8092533" lon="12.726795"><ele>99.0</ele><time>2026-04-06T10:05:45.996Z</time></trkpt><trkpt lat="43.8094883" lon="12.7268417"><ele>102.0</ele><time>2026-04-06T10:05:46.995Z</time></trkpt><trkpt lat="43.8097" lon="12.7268917"><ele>94.0</ele><time>2026-04-06T10:05:47.996Z</time></trkpt><trkpt lat="43.80993" lon="12.726925"><ele>86.0</ele><time>2026-04-06T10:05:48.996Z</time></trkpt><trkpt lat="43.8101517" lon="12.72696"><ele>90.0</ele><time>2026-04-06T10:05:49.996Z</time></trkpt><trkpt lat="43.8103717" lon="12.7270083"><ele>94.0</ele><time>2026-04-06T10:05:50.996Z</time></trkpt><trkpt lat="43.81061" lon="12.7270733"><ele>94.0</ele><time>2026-04-06T10:05:51.996Z</time></trkpt><trkpt lat="43.81084" lon="12.7271783"><ele>94.0</ele><time>2026-04-06T10:05:52.996Z</time></trkpt><trkpt lat="43.8110567" lon="12.7273133"><ele>97.5</ele><time>2026-04-06T10:05:53.996Z</time></trkpt><trkpt lat="43.811265" lon="12.7274467"><ele>101.0</ele><time>2026-04-06T10:05:54.996Z</time></trkpt><trkpt lat="43.8114783" lon="12.7275567"><ele>101.0</ele><time>2026-04-06T10:05:55.996Z</time></trkpt><trkpt lat="43.8116967" lon="12.727645"><ele>101.0</ele><time>2026-04-06T10:05:56.995Z</time></trkpt><trkpt lat="43.8119067" lon="12.7277067"><ele>101.0</ele><time>2026-04-06T10:05:57.996Z</time></trkpt><trkpt lat="43.812115" lon="12.727765"><ele>99.0</ele><time>2026-04-06T10:05:58.995Z</time></trkpt><trkpt lat="43.8123333" lon="12.727825"><ele>97.0</ele><time>2026-04-06T10:05:59.996Z</time></trkpt><trkpt lat="43.8125567" lon="12.7278833"><ele>98.0</ele><time>2026-04-06T10:06:00.996Z</time></trkpt><trkpt lat="43.812785" lon="12.7279617"><ele>99.0</ele><time>2026-04-06T10:06:01.996Z</time></trkpt><trkpt lat="43.812995" lon="12.7280767"><ele>99.0</ele><time>2026-04-06T10:06:02.996Z</time></trkpt><trkpt lat="43.8131917" lon="12.728205"><ele>99.0</ele><time>2026-04-06T10:06:03.996Z</time></trkpt><trkpt lat="43.8133783" lon="12.72835"><ele>99.0</ele><time>2026-04-06T10:06:04.996Z</time></trkpt><trkpt lat="43.8135617" lon="12.7285017"><ele>98.0</ele><time>2026-04-06T10:06:05.996Z</time></trkpt><trkpt lat="43.8137467" lon="12.72867"><ele>97.0</ele><time>2026-04-06T10:06:06.996Z</time></trkpt><trkpt lat="43.8139417" lon="12.72881"><ele>96.0</ele><time>2026-04-06T10:06:07.996Z</time></trkpt><trkpt lat="43.81413" lon="12.728955"><ele>96.0</ele><time>2026-04-06T10:06:08.996Z</time></trkpt><trkpt lat="43.814315" lon="12.7291017"><ele>96.0</ele><time>2026-04-06T10:06:09.996Z</time></trkpt><trkpt lat="43.8145" lon="12.729245"><ele>96.0</ele><time>2026-04-06T10:06:10.996Z</time></trkpt><trkpt lat="43.81469" lon="12.7293683"><ele>95.0</ele><time>2026-04-06T10:06:11.996Z</time></trkpt><trkpt lat="43.8148667" lon="12.7295033"><ele>94.0</ele><time>2026-04-06T10:06:12.996Z</time></trkpt><trkpt lat="43.81504" lon="12.729645"><ele>93.0</ele><time>2026-04-06T10:06:13.996Z</time></trkpt><trkpt lat="43.8152167" lon="12.7297833"><ele>93.0</ele><time>2026-04-06T10:06:14.996Z</time></trkpt><trkpt lat="43.8153917" lon="12.7299167"><ele>93.0</ele><time>2026-04-06T10:06:15.996Z</time></trkpt><trkpt lat="43.8155683" lon="12.7300517"><ele>93.0</ele><time>2026-04-06T10:06:16.996Z</time></trkpt><trkpt lat="43.81574" lon="12.7301867"><ele>93.0</ele><time>2026-04-06T10:06:17.996Z</time></trkpt><trkpt lat="43.815915" lon="12.73033"><ele>93.0</ele><time>2026-04-06T10:06:18.996Z</time></trkpt><trkpt lat="43.8160917" lon="12.7304667"><ele>93.0</ele><time>2026-04-06T10:06:19.996Z</time></trkpt><trkpt lat="43.81628" lon="12.7305783"><ele>93.0</ele><time>2026-04-06T10:06:20.996Z</time></trkpt><trkpt lat="43.81644" lon="12.73071"><ele>93.0</ele><time>2026-04-06T10:06:21.996Z</time></trkpt><trkpt lat="43.8166183" lon="12.7308283"><ele>93.0</ele><time>2026-04-06T10:06:22.996Z</time></trkpt><trkpt lat="43.8168" lon="12.7309383"><ele>93.33333333333333</ele><time>2026-04-06T10:06:23.996Z</time></trkpt><trkpt lat="43.8169667" lon="12.7310483"><ele>93.66666666666666</ele><time>2026-04-06T10:06:24.996Z</time></trkpt><trkpt lat="43.81713" lon="12.7311633"><ele>94.0</ele><time>2026-04-06T10:06:25.996Z</time></trkpt><trkpt lat="43.8173083" lon="12.7312633"><ele>93.33333333333333</ele><time>2026-04-06T10:06:26.996Z</time></trkpt><trkpt lat="43.8175" lon="12.73134"><ele>92.66666666666667</ele><time>2026-04-06T10:06:27.996Z</time></trkpt><trkpt lat="43.8176833" lon="12.7314367"><ele>92.0</ele><time>2026-04-06T10:06:28.996Z</time></trkpt><trkpt lat="43.8178567" lon="12.73153"><ele>92.0</ele><time>2026-04-06T10:06:29.996Z</time></trkpt><trkpt lat="43.8180367" lon="12.7316033"><ele>92.0</ele><time>2026-04-06T10:06:30.996Z</time></trkpt><trkpt lat="43.8182133" lon="12.731695"><ele>92.0</ele><time>2026-04-06T10:06:31.996Z</time></trkpt><trkpt lat="43.8183917" lon="12.7317983"><ele>91.0</ele><time>2026-04-06T10:06:32.996Z</time></trkpt><trkpt lat="43.8185667" lon="12.7319117"><ele>90.0</ele><time>2026-04-06T10:06:33.996Z</time></trkpt><trkpt lat="43.8187567" lon="12.73204"><ele>89.0</ele><time>2026-04-06T10:06:34.996Z</time></trkpt><trkpt lat="43.81893" lon="12.7322"><ele>89.0</ele><time>2026-04-06T10:06:35.996Z</time></trkpt><trkpt lat="43.8190883" lon="12.7323717"><ele>89.0</ele><time>2026-04-06T10:06:36.996Z</time></trkpt><trkpt lat="43.8192467" lon="12.73254"><ele>89.0</ele><time>2026-04-06T10:06:37.996Z</time></trkpt><trkpt lat="43.8193967" lon="12.7327083"><ele>88.33333333333334</ele><time>2026-04-06T10:06:38.996Z</time></trkpt><trkpt lat="43.819535" lon="12.7328733"><ele>87.66666666666667</ele><time>2026-04-06T10:06:39.996Z</time></trkpt><trkpt lat="43.819675" lon="12.7330283"><ele>87.0</ele><time>2026-04-06T10:06:40.996Z</time></trkpt><trkpt lat="43.8198167" lon="12.7331883"><ele>87.0</ele><time>2026-04-06T10:06:41.996Z</time></trkpt><trkpt lat="43.8199633" lon="12.7333433"><ele>87.0</ele><time>2026-04-06T10:06:42.996Z</time></trkpt><trkpt lat="43.820105" lon="12.73349"><ele>87.0</ele><time>2026-04-06T10:06:43.996Z</time></trkpt><trkpt lat="43.820255" lon="12.7336417"><ele>86.0</ele><time>2026-04-06T10:06:44.996Z</time></trkpt><trkpt lat="43.8204" lon="12.73379"><ele>85.0</ele><time>2026-04-06T10:06:45.996Z</time></trkpt><trkpt lat="43.8205367" lon="12.7339383"><ele>84.0</ele><time>2026-04-06T10:06:46.996Z</time></trkpt><trkpt lat="43.820655" lon="12.7341067"><ele>84.0</ele><time>2026-04-06T10:06:47.996Z</time></trkpt><trkpt lat="43.8207817" lon="12.73427"><ele>84.0</ele><time>2026-04-06T10:06:48.996Z</time></trkpt><trkpt lat="43.8209133" lon="12.7344467"><ele>84.0</ele><time>2026-04-06T10:06:49.996Z</time></trkpt><trkpt lat="43.821045" lon="12.73463"><ele>84.66666666666667</ele><time>2026-04-06T10:06:50.996Z</time></trkpt><trkpt lat="43.8211667" lon="12.7348183"><ele>85.33333333333334</ele><time>2026-04-06T10:06:51.996Z</time></trkpt><trkpt lat="43.8213" lon="12.735015"><ele>86.0</ele><time>2026-04-06T10:06:52.996Z</time></trkpt><trkpt lat="43.821425" lon="12.73522"><ele>85.66666666666667</ele><time>2026-04-06T10:06:53.996Z</time></trkpt><trkpt lat="43.821565" lon="12.7354117"><ele>85.33333333333333</ele><time>2026-04-06T10:06:54.996Z</time></trkpt><trkpt lat="43.82172" lon="12.73558"><ele>85.0</ele><time>2026-04-06T10:06:55.996Z</time></trkpt><trkpt lat="43.8218717" lon="12.7357367"><ele>85.0</ele><time>2026-04-06T10:06:56.996Z</time></trkpt><trkpt lat="43.8220333" lon="12.7358883"><ele>85.0</ele><time>2026-04-06T10:06:57.996Z</time></trkpt><trkpt lat="43.82219" lon="12.73603"><ele>85.0</ele><time>2026-04-06T10:06:58.996Z</time></trkpt><trkpt lat="43.8223433" lon="12.7361733"><ele>84.0</ele><time>2026-04-06T10:06:59.996Z</time></trkpt><trkpt lat="43.82249" lon="12.7363267"><ele>83.0</ele><time>2026-04-06T10:07:00.996Z</time></trkpt><trkpt lat="43.8226433" lon="12.7364667"><ele>82.0</ele><time>2026-04-06T10:07:01.996Z</time></trkpt><trkpt lat="43.8227917" lon="12.7366067"><ele>82.0</ele><time>2026-04-06T10:07:02.996Z</time></trkpt><trkpt lat="43.8229433" lon="12.7367383"><ele>82.0</ele><time>2026-04-06T10:07:03.996Z</time></trkpt><trkpt lat="43.8230917" lon="12.7368783"><ele>82.0</ele><time>2026-04-06T10:07:04.996Z</time></trkpt><trkpt lat="43.8232583" lon="12.73701"><ele>82.0</ele><time>2026-04-06T10:07:05.996Z</time></trkpt><trkpt lat="43.8233783" lon="12.737145"><ele>82.0</ele><time>2026-04-06T10:07:06.996Z</time></trkpt><trkpt lat="43.8235167" lon="12.7372733"><ele>82.0</ele><time>2026-04-06T10:07:07.996Z</time></trkpt><trkpt lat="43.8236633" lon="12.7374"><ele>82.0</ele><time>2026-04-06T10:07:08.996Z</time></trkpt><trkpt lat="43.8237967" lon="12.737535"><ele>82.0</ele><time>2026-04-06T10:07:09.996Z</time></trkpt><trkpt lat="43.8239317" lon="12.7376767"><ele>82.0</ele><time>2026-04-06T10:07:10.996Z</time></trkpt><trkpt lat="43.8240767" lon="12.7378117"><ele>82.0</ele><time>2026-04-06T10:07:11.996Z</time></trkpt><trkpt lat="43.82422" lon="12.7379583"><ele>82.0</ele><time>2026-04-06T10:07:12.996Z</time></trkpt><trkpt lat="43.82436" lon="12.7381167"><ele>82.0</ele><time>2026-04-06T10:07:13.996Z</time></trkpt><trkpt lat="43.82451" lon="12.7382733"><ele>82.0</ele><time>2026-04-06T10:07:14.996Z</time></trkpt><trkpt lat="43.82465" lon="12.73843"><ele>82.0</ele><time>2026-04-06T10:07:15.996Z</time></trkpt><trkpt lat="43.82477" lon="12.738585"><ele>82.0</ele><time>2026-04-06T10:07:16.996Z</time></trkpt><trkpt lat="43.82487" lon="12.738725"><ele>82.0</ele><time>2026-04-06T10:07:17.996Z</time></trkpt><trkpt lat="43.8249767" lon="12.7388633"><ele>82.0</ele><time>2026-04-06T10:07:18.996Z</time></trkpt><trkpt lat="43.8250833" lon="12.7390067"><ele>82.0</ele><time>2026-04-06T10:07:19.996Z</time></trkpt><trkpt lat="43.82517" lon="12.73916"><ele>82.0</ele><time>2026-04-06T10:07:20.996Z</time></trkpt><trkpt lat="43.8252783" lon="12.7393017"><ele>81.5</ele><time>2026-04-06T10:07:21.996Z</time></trkpt><trkpt lat="43.8253917" lon="12.7394383"><ele>81.0</ele><time>2026-04-06T10:07:22.996Z</time></trkpt><trkpt lat="43.82549" lon="12.739585"><ele>80.5</ele><time>2026-04-06T10:07:23.996Z</time></trkpt><trkpt lat="43.8256033" lon="12.7397183"><ele>80.0</ele><time>2026-04-06T10:07:24.996Z</time></trkpt><trkpt lat="43.825705" lon="12.7398533"><ele>80.0</ele><time>2026-04-06T10:07:25.996Z</time></trkpt><trkpt lat="43.825815" lon="12.73998"><ele>80.0</ele><time>2026-04-06T10:07:26.996Z</time></trkpt><trkpt lat="43.8259317" lon="12.7401133"><ele>80.0</ele><time>2026-04-06T10:07:27.996Z</time></trkpt><trkpt lat="43.8260433" lon="12.7402583"><ele>80.0</ele><time>2026-04-06T10:07:28.996Z</time></trkpt><trkpt lat="43.826165" lon="12.7404033"><ele>79.33333333333334</ele><time>2026-04-06T10:07:29.996Z</time></trkpt><trkpt lat="43.82627" lon="12.7405733"><ele>78.66666666666667</ele><time>2026-04-06T10:07:30.996Z</time></trkpt><trkpt lat="43.826375" lon="12.740755"><ele>78.0</ele><time>2026-04-06T10:07:31.996Z</time></trkpt><trkpt lat="43.8264733" lon="12.7409317"><ele>77.75</ele><time>2026-04-06T10:07:32.996Z</time></trkpt><trkpt lat="43.826545" lon="12.7411167"><ele>77.5</ele><time>2026-04-06T10:07:33.996Z</time></trkpt><trkpt lat="43.8266067" lon="12.741295"><ele>77.25</ele><time>2026-04-06T10:07:34.996Z</time></trkpt><trkpt lat="43.826655" lon="12.7414733"><ele>77.0</ele><time>2026-04-06T10:07:35.996Z</time></trkpt><trkpt lat="43.826705" lon="12.741635"><ele>77.0</ele><time>2026-04-06T10:07:36.996Z</time></trkpt><trkpt lat="43.8267483" lon="12.7418083"><ele>77.0</ele><time>2026-04-06T10:07:37.996Z</time></trkpt><trkpt lat="43.8267967" lon="12.7419767"><ele>77.0</ele><time>2026-04-06T10:07:38.996Z</time></trkpt><trkpt lat="43.8268467" lon="12.7421417"><ele>77.0</ele><time>2026-04-06T10:07:39.996Z</time></trkpt><trkpt lat="43.8269033" lon="12.7423083"><ele>76.75</ele><time>2026-04-06T10:07:40.996Z</time></trkpt><trkpt lat="43.82695" lon="12.7424917"><ele>76.5</ele><time>2026-04-06T10:07:41.996Z</time></trkpt><trkpt lat="43.827" lon="12.7426683"><ele>76.25</ele><time>2026-04-06T10:07:42.996Z</time></trkpt><trkpt lat="43.8270583" lon="12.7428383"><ele>76.0</ele><time>2026-04-06T10:07:43.995Z</time></trkpt><trkpt lat="43.8271183" lon="12.7430067"><ele>76.0</ele><time>2026-04-06T10:07:44.995Z</time></trkpt><trkpt lat="43.8271683" lon="12.743175"><ele>76.0</ele><time>2026-04-06T10:07:45.995Z</time></trkpt><trkpt lat="43.827235" lon="12.7433317"><ele>76.0</ele><time>2026-04-06T10:07:46.995Z</time></trkpt><trkpt lat="43.8273083" lon="12.74348"><ele>76.0</ele><time>2026-04-06T10:07:47.995Z</time></trkpt><trkpt lat="43.82738" lon="12.743605"><ele>76.0</ele><time>2026-04-06T10:07:48.994Z</time></trkpt><trkpt lat="43.827435" lon="12.7436933"><ele>76.0</ele><time>2026-04-06T10:07:49.995Z</time></trkpt><trkpt lat="43.8274667" lon="12.743775"><ele>76.0</ele><time>2026-04-06T10:07:50.995Z</time></trkpt><trkpt lat="43.8275417" lon="12.743915"><ele>76.0</ele><time>2026-04-06T10:07:52.995Z</time></trkpt><trkpt lat="43.8275883" lon="12.7439917"><ele>76.0</ele><time>2026-04-06T10:07:53.995Z</time></trkpt><trkpt lat="43.8276367" lon="12.74408"><ele>76.0</ele><time>2026-04-06T10:07:54.995Z</time></trkpt><trkpt lat="43.82769" lon="12.7441717"><ele>76.16666666666666</ele><time>2026-04-06T10:07:55.995Z</time></trkpt><trkpt lat="43.827745" lon="12.7442633"><ele>76.33333333333333</ele><time>2026-04-06T10:07:56.995Z</time></trkpt><trkpt lat="43.8278" lon="12.74435"><ele>76.5</ele><time>2026-04-06T10:07:57.995Z</time></trkpt><trkpt lat="43.8278517" lon="12.74444"><ele>76.66666666666667</ele><time>2026-04-06T10:07:58.995Z</time></trkpt><trkpt lat="43.8279183" lon="12.7445267"><ele>76.83333333333334</ele><time>2026-04-06T10:07:59.995Z</time></trkpt><trkpt lat="43.8279867" lon="12.7446167"><ele>77.0</ele><time>2026-04-06T10:08:00.995Z</time></trkpt><trkpt lat="43.82806" lon="12.744705"><ele>76.5</ele><time>2026-04-06T10:08:01.995Z</time></trkpt><trkpt lat="43.8281517" lon="12.7447883"><ele>76.0</ele><time>2026-04-06T10:08:02.995Z</time></trkpt><trkpt lat="43.82825" lon="12.74488"><ele>75.5</ele><time>2026-04-06T10:08:03.995Z</time></trkpt><trkpt lat="43.82835" lon="12.7449717"><ele>75.0</ele><time>2026-04-06T10:08:04.995Z</time></trkpt><trkpt lat="43.8284433" lon="12.74505"><ele>75.5</ele><time>2026-04-06T10:08:05.995Z</time></trkpt><trkpt lat="43.8285533" lon="12.74513"><ele>76.0</ele><time>2026-04-06T10:08:06.995Z</time></trkpt><trkpt lat="43.8286867" lon="12.745195"><ele>76.5</ele><time>2026-04-06T10:08:07.995Z</time></trkpt><trkpt lat="43.8288067" lon="12.745255"><ele>77.0</ele><time>2026-04-06T10:08:08.995Z</time></trkpt><trkpt lat="43.8289283" lon="12.7453"><ele>76.25</ele><time>2026-04-06T10:08:09.995Z</time></trkpt><trkpt lat="43.8290383" lon="12.7453417"><ele>75.5</ele><time>2026-04-06T10:08:10.995Z</time></trkpt><trkpt lat="43.8291533" lon="12.7453883"><ele>74.75</ele><time>2026-04-06T10:08:11.995Z</time></trkpt><trkpt lat="43.8292783" lon="12.7454233"><ele>74.0</ele><time>2026-04-06T10:08:12.995Z</time></trkpt><trkpt lat="43.8294067" lon="12.7454367"><ele>74.0</ele><time>2026-04-06T10:08:13.995Z</time></trkpt><trkpt lat="43.8295283" lon="12.7454467"><ele>74.0</ele><time>2026-04-06T10:08:14.995Z</time></trkpt><trkpt lat="43.8296633" lon="12.745455"><ele>74.0</ele><time>2026-04-06T10:08:15.995Z</time></trkpt><trkpt lat="43.8298017" lon="12.7454583"><ele>74.0</ele><time>2026-04-06T10:08:16.995Z</time></trkpt><trkpt lat="43.8299333" lon="12.7454667"><ele>74.0</ele><time>2026-04-06T10:08:17.995Z</time></trkpt><trkpt lat="43.8300517" lon="12.7454733"><ele>74.0</ele><time>2026-04-06T10:08:18.995Z</time></trkpt><trkpt lat="43.83017" lon="12.7454767"><ele>74.0</ele><time>2026-04-06T10:08:19.995Z</time></trkpt><trkpt lat="43.830285" lon="12.7454717"><ele>74.0</ele><time>2026-04-06T10:08:20.995Z</time></trkpt><trkpt lat="43.830395" lon="12.74548"><ele>74.0</ele><time>2026-04-06T10:08:21.995Z</time></trkpt><trkpt lat="43.8305" lon="12.74549"><ele>74.0</ele><time>2026-04-06T10:08:22.995Z</time></trkpt><trkpt lat="43.8305867" lon="12.7455067"><ele>74.0</ele><time>2026-04-06T10:08:23.995Z</time></trkpt><trkpt lat="43.8306683" lon="12.7455267"><ele>74.0</ele><time>2026-04-06T10:08:24.995Z</time></trkpt><trkpt lat="43.8307517" lon="12.7455533"><ele>74.0</ele><time>2026-04-06T10:08:25.995Z</time></trkpt><trkpt lat="43.83084" lon="12.74559"><ele>74.0</ele><time>2026-04-06T10:08:26.995Z</time></trkpt><trkpt lat="43.8309267" lon="12.74563"><ele>74.0</ele><time>2026-04-06T10:08:27.995Z</time></trkpt><trkpt lat="43.8310083" lon="12.7456867"><ele>74.0</ele><time>2026-04-06T10:08:28.995Z</time></trkpt><trkpt lat="43.831085" lon="12.7457133"><ele>74.0</ele><time>2026-04-06T10:08:29.995Z</time></trkpt><trkpt lat="43.8311617" lon="12.7457017"><ele>74.0</ele><time>2026-04-06T10:08:30.995Z</time></trkpt><trkpt lat="43.831235" lon="12.745645"><ele>74.0</ele><time>2026-04-06T10:08:31.995Z</time></trkpt><trkpt lat="43.83131" lon="12.7455817"><ele>73.60000000000001</ele><time>2026-04-06T10:08:32.995Z</time></trkpt><trkpt lat="43.8313917" lon="12.74556"><ele>73.2</ele><time>2026-04-06T10:08:33.995Z</time></trkpt><trkpt lat="43.8314917" lon="12.745555"><ele>72.80000000000001</ele><time>2026-04-06T10:08:34.995Z</time></trkpt><trkpt lat="43.8316" lon="12.7455783"><ele>72.4</ele><time>2026-04-06T10:08:35.995Z</time></trkpt><trkpt lat="43.8317033" lon="12.7456017"><ele>72.0</ele><time>2026-04-06T10:08:36.995Z</time></trkpt><trkpt lat="43.8318083" lon="12.7456233"><ele>71.8</ele><time>2026-04-06T10:08:37.995Z</time></trkpt><trkpt lat="43.8319117" lon="12.7456517"><ele>71.6</ele><time>2026-04-06T10:08:38.995Z</time></trkpt><trkpt lat="43.8320267" lon="12.7456783"><ele>71.39999999999999</ele><time>2026-04-06T10:08:39.995Z</time></trkpt><trkpt lat="43.8321317" lon="12.7457"><ele>71.2</ele><time>2026-04-06T10:08:40.995Z</time></trkpt><trkpt lat="43.8322283" lon="12.7457233"><ele>71.0</ele><time>2026-04-06T10:08:41.995Z</time></trkpt><trkpt lat="43.8323217" lon="12.745755"><ele>71.0</ele><time>2026-04-06T10:08:42.995Z</time></trkpt><trkpt lat="43.8324283" lon="12.7457683"><ele>71.0</ele><time>2026-04-06T10:08:43.995Z</time></trkpt><trkpt lat="43.8325317" lon="12.74579"><ele>71.0</ele><time>2026-04-06T10:08:44.995Z</time></trkpt><trkpt lat="43.8326383" lon="12.74581"><ele>71.0</ele><time>2026-04-06T10:08:45.995Z</time></trkpt><trkpt lat="43.8327533" lon="12.7458217"><ele>71.0</ele><time>2026-04-06T10:08:46.995Z</time></trkpt><trkpt lat="43.832875" lon="12.745825"><ele>70.8</ele><time>2026-04-06T10:08:47.995Z</time></trkpt><trkpt lat="43.8329833" lon="12.7458417"><ele>70.6</ele><time>2026-04-06T10:08:48.995Z</time></trkpt><trkpt lat="43.8330967" lon="12.7458517"><ele>70.4</ele><time>2026-04-06T10:08:49.995Z</time></trkpt><trkpt lat="43.8332017" lon="12.74586"><ele>70.2</ele><time>2026-04-06T10:08:50.995Z</time></trkpt><trkpt lat="43.8333067" lon="12.7458617"><ele>70.0</ele><time>2026-04-06T10:08:51.995Z</time></trkpt><trkpt lat="43.8334033" lon="12.7458667"><ele>70.2</ele><time>2026-04-06T10:08:52.995Z</time></trkpt><trkpt lat="43.8334983" lon="12.74588"><ele>70.4</ele><time>2026-04-06T10:08:53.995Z</time></trkpt><trkpt lat="43.8335817" lon="12.7459067"><ele>70.6</ele><time>2026-04-06T10:08:54.995Z</time></trkpt><trkpt lat="43.8336633" lon="12.7459583"><ele>70.8</ele><time>2026-04-06T10:08:55.995Z</time></trkpt><trkpt lat="43.833735" lon="12.746025"><ele>71.0</ele><time>2026-04-06T10:08:56.995Z</time></trkpt><trkpt lat="43.8338067" lon="12.7461183"><ele>70.0</ele><time>2026-04-06T10:08:57.995Z</time></trkpt><trkpt lat="43.8338817" lon="12.746255"><ele>69.0</ele><time>2026-04-06T10:08:58.995Z</time></trkpt><trkpt lat="43.8339683" lon="12.746415"><ele>68.0</ele><time>2026-04-06T10:08:59.995Z</time></trkpt><trkpt lat="43.8340617" lon="12.7465917"><ele>67.0</ele><time>2026-04-06T10:09:00.995Z</time></trkpt><trkpt lat="43.834165" lon="12.74678"><ele>66.33333333333333</ele><time>2026-04-06T10:09:01.995Z</time></trkpt><trkpt lat="43.83429" lon="12.7469767"><ele>65.66666666666667</ele><time>2026-04-06T10:09:02.995Z</time></trkpt><trkpt lat="43.8344067" lon="12.7471917"><ele>65.0</ele><time>2026-04-06T10:09:03.995Z</time></trkpt><trkpt lat="43.83452" lon="12.7474067"><ele>65.0</ele><time>2026-04-06T10:09:04.995Z</time></trkpt><trkpt lat="43.83464" lon="12.7476167"><ele>65.0</ele><time>2026-04-06T10:09:05.995Z</time></trkpt><trkpt lat="43.8347517" lon="12.747855"><ele>65.0</ele><time>2026-04-06T10:09:06.995Z</time></trkpt><trkpt lat="43.8348783" lon="12.7481067"><ele>65.0</ele><time>2026-04-06T10:09:07.995Z</time></trkpt><trkpt lat="43.83502" lon="12.74837"><ele>65.0</ele><time>2026-04-06T10:09:08.995Z</time></trkpt><trkpt lat="43.8351483" lon="12.7486117"><ele>65.0</ele><time>2026-04-06T10:09:09.995Z</time></trkpt><trkpt lat="43.83526" lon="12.7488267"><ele>65.0</ele><time>2026-04-06T10:09:10.995Z</time></trkpt><trkpt lat="43.835355" lon="12.749035"><ele>65.0</ele><time>2026-04-06T10:09:11.995Z</time></trkpt><trkpt lat="43.835445" lon="12.7492317"><ele>64.5</ele><time>2026-04-06T10:09:12.995Z</time></trkpt><trkpt lat="43.8355117" lon="12.7494133"><ele>64.0</ele><time>2026-04-06T10:09:13.995Z</time></trkpt><trkpt lat="43.835585" lon="12.7495767"><ele>63.5</ele><time>2026-04-06T10:09:14.995Z</time></trkpt><trkpt lat="43.8356533" lon="12.7497367"><ele>63.0</ele><time>2026-04-06T10:09:15.995Z</time></trkpt><trkpt lat="43.8357267" lon="12.749895"><ele>63.0</ele><time>2026-04-06T10:09:16.995Z</time></trkpt><trkpt lat="43.835795" lon="12.750055"><ele>63.0</ele><time>2026-04-06T10:09:17.995Z</time></trkpt><trkpt lat="43.8358583" lon="12.7502017"><ele>63.0</ele><time>2026-04-06T10:09:18.995Z</time></trkpt><trkpt lat="43.8359083" lon="12.750335"><ele>63.0</ele><time>2026-04-06T10:09:19.995Z</time></trkpt><trkpt lat="43.83594" lon="12.7504617"><ele>62.8</ele><time>2026-04-06T10:09:20.995Z</time></trkpt><trkpt lat="43.8359617" lon="12.7505883"><ele>62.599999999999994</ele><time>2026-04-06T10:09:21.995Z</time></trkpt><trkpt lat="43.8359867" lon="12.7507167"><ele>62.400000000000006</ele><time>2026-04-06T10:09:22.995Z</time></trkpt><trkpt lat="43.8360183" lon="12.750835"><ele>62.2</ele><time>2026-04-06T10:09:23.995Z</time></trkpt><trkpt lat="43.8360633" lon="12.750965"><ele>62.0</ele><time>2026-04-06T10:09:24.995Z</time></trkpt><trkpt lat="43.836105" lon="12.7511183"><ele>60.25</ele><time>2026-04-06T10:09:25.995Z</time></trkpt><trkpt lat="43.8361417" lon="12.75129"><ele>58.5</ele><time>2026-04-06T10:09:26.995Z</time></trkpt><trkpt lat="43.8361867" lon="12.7514583"><ele>56.75</ele><time>2026-04-06T10:09:27.995Z</time></trkpt><trkpt lat="43.836235" lon="12.7516517"><ele>55.0</ele><time>2026-04-06T10:09:28.995Z</time></trkpt><trkpt lat="43.8362817" lon="12.7518767"><ele>55.0</ele><time>2026-04-06T10:09:29.995Z</time></trkpt><trkpt lat="43.8363317" lon="12.7521317"><ele>55.0</ele><time>2026-04-06T10:09:30.995Z</time></trkpt><trkpt lat="43.8364317" lon="12.7523767"><ele>55.0</ele><time>2026-04-06T10:09:31.995Z</time></trkpt><trkpt lat="43.8365233" lon="12.7526517"><ele>55.5</ele><time>2026-04-06T10:09:32.995Z</time></trkpt><trkpt lat="43.836605" lon="12.7529417"><ele>56.0</ele><time>2026-04-06T10:09:33.995Z</time></trkpt><trkpt lat="43.836695" lon="12.753235"><ele>56.0</ele><time>2026-04-06T10:09:34.995Z</time></trkpt><trkpt lat="43.8367983" lon="12.7535483"><ele>56.0</ele><time>2026-04-06T10:09:35.995Z</time></trkpt><trkpt lat="43.8369" lon="12.7538683"><ele>56.0</ele><time>2026-04-06T10:09:36.995Z</time></trkpt><trkpt lat="43.83699" lon="12.7542017"><ele>56.0</ele><time>2026-04-06T10:09:37.995Z</time></trkpt><trkpt lat="43.8370833" lon="12.7545233"><ele>57.0</ele><time>2026-04-06T10:09:38.995Z</time></trkpt><trkpt lat="43.8371717" lon="12.7548433"><ele>58.0</ele><time>2026-04-06T10:09:39.995Z</time></trkpt><trkpt lat="43.8372633" lon="12.7551633"><ele>60.0</ele><time>2026-04-06T10:09:40.995Z</time></trkpt><trkpt lat="43.8373517" lon="12.7554917"><ele>62.0</ele><time>2026-04-06T10:09:41.995Z</time></trkpt><trkpt lat="43.837445" lon="12.75581"><ele>65.5</ele><time>2026-04-06T10:09:42.995Z</time></trkpt><trkpt lat="43.8375317" lon="12.75613"><ele>69.0</ele><time>2026-04-06T10:09:43.995Z</time></trkpt><trkpt lat="43.8376083" lon="12.7564617"><ele>67.0</ele><time>2026-04-06T10:09:44.995Z</time></trkpt><trkpt lat="43.8376833" lon="12.75679"><ele>65.0</ele><time>2026-04-06T10:09:45.995Z</time></trkpt><trkpt lat="43.8377567" lon="12.757125"><ele>65.0</ele><time>2026-04-06T10:09:46.995Z</time></trkpt><trkpt lat="43.8378217" lon="12.7574683"><ele>65.0</ele><time>2026-04-06T10:09:47.995Z</time></trkpt><trkpt lat="43.8378867" lon="12.7578067"><ele>66.5</ele><time>2026-04-06T10:09:48.995Z</time></trkpt><trkpt lat="43.837955" lon="12.7581533"><ele>68.0</ele><time>2026-04-06T10:09:49.995Z</time></trkpt><trkpt lat="43.8380167" lon="12.7584967"><ele>68.5</ele><time>2026-04-06T10:09:50.995Z</time></trkpt><trkpt lat="43.838085" lon="12.7588333"><ele>69.0</ele><time>2026-04-06T10:09:51.995Z</time></trkpt><trkpt lat="43.8381567" lon="12.7591733"><ele>69.5</ele><time>2026-04-06T10:09:52.995Z</time></trkpt><trkpt lat="43.8382283" lon="12.7595167"><ele>70.0</ele><time>2026-04-06T10:09:53.995Z</time></trkpt><trkpt lat="43.8383033" lon="12.7598517"><ele>70.0</ele><time>2026-04-06T10:09:54.995Z</time></trkpt><trkpt lat="43.8383717" lon="12.7601783"><ele>70.0</ele><time>2026-04-06T10:09:55.995Z</time></trkpt><trkpt lat="43.8384333" lon="12.760485"><ele>70.0</ele><time>2026-04-06T10:09:56.995Z</time></trkpt><trkpt lat="43.8384883" lon="12.760785"><ele>70.0</ele><time>2026-04-06T10:09:57.995Z</time></trkpt><trkpt lat="43.8385467" lon="12.76108"><ele>70.0</ele><time>2026-04-06T10:09:58.995Z</time></trkpt><trkpt lat="43.838605" lon="12.76137"><ele>70.0</ele><time>2026-04-06T10:09:59.995Z</time></trkpt><trkpt lat="43.838655" lon="12.761655"><ele>70.0</ele><time>2026-04-06T10:10:00.995Z</time></trkpt><trkpt lat="43.8387183" lon="12.7619283"><ele>70.0</ele><time>2026-04-06T10:10:01.995Z</time></trkpt><trkpt lat="43.83877" lon="12.7621967"><ele>70.0</ele><time>2026-04-06T10:10:02.995Z</time></trkpt><trkpt lat="43.83883" lon="12.7624667"><ele>70.0</ele><time>2026-04-06T10:10:03.995Z</time></trkpt><trkpt lat="43.8389" lon="12.762735"><ele>70.0</ele><time>2026-04-06T10:10:04.995Z</time></trkpt><trkpt lat="43.8389533" lon="12.7630167"><ele>69.0</ele><time>2026-04-06T10:10:05.995Z</time></trkpt><trkpt lat="43.8390017" lon="12.76329"><ele>68.0</ele><time>2026-04-06T10:10:06.995Z</time></trkpt><trkpt lat="43.839045" lon="12.7635617"><ele>67.0</ele><time>2026-04-06T10:10:07.995Z</time></trkpt><trkpt lat="43.8390933" lon="12.7638267"><ele>67.0</ele><time>2026-04-06T10:10:08.995Z</time></trkpt><trkpt lat="43.83915" lon="12.76407"><ele>67.0</ele><time>2026-04-06T10:10:09.995Z</time></trkpt><trkpt lat="43.8391933" lon="12.7643117"><ele>67.0</ele><time>2026-04-06T10:10:10.995Z</time></trkpt><trkpt lat="43.839255" lon="12.7645467"><ele>67.33333333333333</ele><time>2026-04-06T10:10:11.995Z</time></trkpt><trkpt lat="43.8393067" lon="12.764775"><ele>67.66666666666667</ele><time>2026-04-06T10:10:12.995Z</time></trkpt><trkpt lat="43.8393517" lon="12.765005"><ele>68.0</ele><time>2026-04-06T10:10:13.995Z</time></trkpt><trkpt lat="43.8393833" lon="12.765245"><ele>68.66666666666667</ele><time>2026-04-06T10:10:14.995Z</time></trkpt><trkpt lat="43.839445" lon="12.765465"><ele>69.33333333333333</ele><time>2026-04-06T10:10:15.995Z</time></trkpt><trkpt lat="43.8395233" lon="12.765675"><ele>70.0</ele><time>2026-04-06T10:10:16.995Z</time></trkpt><trkpt lat="43.8396033" lon="12.76586"><ele>69.33333333333333</ele><time>2026-04-06T10:10:17.995Z</time></trkpt><trkpt lat="43.8396717" lon="12.7660467"><ele>68.66666666666667</ele><time>2026-04-06T10:10:18.995Z</time></trkpt><trkpt lat="43.839755" lon="12.7662217"><ele>68.0</ele><time>2026-04-06T10:10:19.995Z</time></trkpt><trkpt lat="43.839855" lon="12.7663883"><ele>68.0</ele><time>2026-04-06T10:10:20.994Z</time></trkpt><trkpt lat="43.839945" lon="12.76654"><ele>68.0</ele><time>2026-04-06T10:10:21.995Z</time></trkpt><trkpt lat="43.8400283" lon="12.76668"><ele>68.0</ele><time>2026-04-06T10:10:22.995Z</time></trkpt><trkpt lat="43.84012" lon="12.7667967"><ele>68.0</ele><time>2026-04-06T10:10:23.995Z</time></trkpt><trkpt lat="43.8402017" lon="12.7669067"><ele>67.83333333333334</ele><time>2026-04-06T10:10:24.995Z</time></trkpt><trkpt lat="43.84027" lon="12.7670067"><ele>67.66666666666667</ele><time>2026-04-06T10:10:25.995Z</time></trkpt><trkpt lat="43.8403317" lon="12.767105"><ele>67.5</ele><time>2026-04-06T10:10:26.995Z</time></trkpt><trkpt lat="43.840385" lon="12.7672"><ele>67.33333333333333</ele><time>2026-04-06T10:10:27.995Z</time></trkpt><trkpt lat="43.8404267" lon="12.767295"><ele>67.16666666666666</ele><time>2026-04-06T10:10:28.995Z</time></trkpt><trkpt lat="43.8404533" lon="12.76741"><ele>67.0</ele><time>2026-04-06T10:10:29.995Z</time></trkpt><trkpt lat="43.8404733" lon="12.7675383"><ele>67.0</ele><time>2026-04-06T10:10:30.995Z</time></trkpt><trkpt lat="43.8405" lon="12.7676717"><ele>67.0</ele><time>2026-04-06T10:10:31.995Z</time></trkpt><trkpt lat="43.8405417" lon="12.7678"><ele>67.0</ele><time>2026-04-06T10:10:32.995Z</time></trkpt><trkpt lat="43.8406117" lon="12.7678867"><ele>67.0</ele><time>2026-04-06T10:10:33.995Z</time></trkpt><trkpt lat="43.840705" lon="12.767935"><ele>67.0</ele><time>2026-04-06T10:10:34.995Z</time></trkpt><trkpt lat="43.84081" lon="12.7679583"><ele>67.0</ele><time>2026-04-06T10:10:35.995Z</time></trkpt><trkpt lat="43.8409417" lon="12.7679733"><ele>67.0</ele><time>2026-04-06T10:10:36.995Z</time></trkpt><trkpt lat="43.841075" lon="12.7680217"><ele>67.0</ele><time>2026-04-06T10:10:37.995Z</time></trkpt><trkpt lat="43.84119" lon="12.768115"><ele>67.0</ele><time>2026-04-06T10:10:38.995Z</time></trkpt><trkpt lat="43.8413" lon="12.7682367"><ele>66.0</ele><time>2026-04-06T10:10:39.995Z</time></trkpt><trkpt lat="43.8414083" lon="12.7683733"><ele>65.0</ele><time>2026-04-06T10:10:40.995Z</time></trkpt><trkpt lat="43.84152" lon="12.76851"><ele>64.0</ele><time>2026-04-06T10:10:41.995Z</time></trkpt><trkpt lat="43.84164" lon="12.768655"><ele>64.0</ele><time>2026-04-06T10:10:42.995Z</time></trkpt><trkpt lat="43.8417583" lon="12.7688017"><ele>64.0</ele><time>2026-04-06T10:10:43.995Z</time></trkpt><trkpt lat="43.841875" lon="12.7689417"><ele>64.0</ele><time>2026-04-06T10:10:44.995Z</time></trkpt><trkpt lat="43.841985" lon="12.7690817"><ele>64.0</ele><time>2026-04-06T10:10:45.995Z</time></trkpt><trkpt lat="43.842105" lon="12.769225"><ele>64.0</ele><time>2026-04-06T10:10:46.995Z</time></trkpt><trkpt lat="43.842225" lon="12.76938"><ele>64.0</ele><time>2026-04-06T10:10:47.995Z</time></trkpt><trkpt lat="43.8423433" lon="12.7695333"><ele>64.0</ele><time>2026-04-06T10:10:48.995Z</time></trkpt><trkpt lat="43.84246" lon="12.7696883"><ele>64.0</ele><time>2026-04-06T10:10:49.995Z</time></trkpt><trkpt lat="43.842585" lon="12.7698383"><ele>64.0</ele><time>2026-04-06T10:10:50.995Z</time></trkpt><trkpt lat="43.8427083" lon="12.7699933"><ele>63.0</ele><time>2026-04-06T10:10:51.995Z</time></trkpt><trkpt lat="43.8428433" lon="12.77015"><ele>62.0</ele><time>2026-04-06T10:10:52.995Z</time></trkpt><trkpt lat="43.8429717" lon="12.7703"><ele>61.0</ele><time>2026-04-06T10:10:53.995Z</time></trkpt><trkpt lat="43.843095" lon="12.77045"><ele>61.0</ele><time>2026-04-06T10:10:54.995Z</time></trkpt><trkpt lat="43.8432183" lon="12.7706017"><ele>61.0</ele><time>2026-04-06T10:10:55.995Z</time></trkpt><trkpt lat="43.8433433" lon="12.7707533"><ele>61.0</ele><time>2026-04-06T10:10:56.995Z</time></trkpt><trkpt lat="43.843475" lon="12.770905"><ele>60.0</ele><time>2026-04-06T10:10:57.995Z</time></trkpt><trkpt lat="43.843605" lon="12.77106"><ele>59.0</ele><time>2026-04-06T10:10:58.995Z</time></trkpt><trkpt lat="43.8437417" lon="12.7712167"><ele>58.0</ele><time>2026-04-06T10:10:59.995Z</time></trkpt><trkpt lat="43.8438783" lon="12.7713817"><ele>58.0</ele><time>2026-04-06T10:11:00.995Z</time></trkpt><trkpt lat="43.8440067" lon="12.7715433"><ele>58.0</ele><time>2026-04-06T10:11:01.995Z</time></trkpt><trkpt lat="43.84414" lon="12.7717133"><ele>58.0</ele><time>2026-04-06T10:11:02.995Z</time></trkpt><trkpt lat="43.8442683" lon="12.7718783"><ele>57.0</ele><time>2026-04-06T10:11:03.995Z</time></trkpt><trkpt lat="43.84439" lon="12.77206"><ele>56.0</ele><time>2026-04-06T10:11:04.995Z</time></trkpt><trkpt lat="43.8445083" lon="12.772245"><ele>55.0</ele><time>2026-04-06T10:11:05.995Z</time></trkpt><trkpt lat="43.8446117" lon="12.77243"><ele>55.0</ele><time>2026-04-06T10:11:06.995Z</time></trkpt><trkpt lat="43.8447" lon="12.7726267"><ele>55.0</ele><time>2026-04-06T10:11:07.995Z</time></trkpt><trkpt lat="43.8447867" lon="12.7728233"><ele>55.0</ele><time>2026-04-06T10:11:08.995Z</time></trkpt><trkpt lat="43.8448733" lon="12.7730283"><ele>55.33333333333333</ele><time>2026-04-06T10:11:09.995Z</time></trkpt><trkpt lat="43.8449583" lon="12.7732567"><ele>55.66666666666667</ele><time>2026-04-06T10:11:10.995Z</time></trkpt><trkpt lat="43.84505" lon="12.7735133"><ele>56.0</ele><time>2026-04-06T10:11:11.995Z</time></trkpt><trkpt lat="43.8451283" lon="12.773815"><ele>55.0</ele><time>2026-04-06T10:11:12.995Z</time></trkpt><trkpt lat="43.8452017" lon="12.7741533"><ele>54.0</ele><time>2026-04-06T10:11:13.995Z</time></trkpt><trkpt lat="43.8452733" lon="12.7745283"><ele>52.5</ele><time>2026-04-06T10:11:14.995Z</time></trkpt><trkpt lat="43.84535" lon="12.7749183"><ele>51.0</ele><time>2026-04-06T10:11:15.995Z</time></trkpt><trkpt lat="43.84543" lon="12.77532"><ele>48.0</ele><time>2026-04-06T10:11:16.995Z</time></trkpt><trkpt lat="43.84552" lon="12.7757283"><ele>45.0</ele><time>2026-04-06T10:11:17.995Z</time></trkpt><trkpt lat="43.845615" lon="12.7761583"><ele>43.5</ele><time>2026-04-06T10:11:18.995Z</time></trkpt><trkpt lat="43.84571" lon="12.7765717"><ele>42.0</ele><time>2026-04-06T10:11:19.995Z</time></trkpt><trkpt lat="43.8457917" lon="12.77698"><ele>41.0</ele><time>2026-04-06T10:11:20.995Z</time></trkpt><trkpt lat="43.845895" lon="12.7773783"><ele>40.0</ele><time>2026-04-06T10:11:21.995Z</time></trkpt><trkpt lat="43.8460017" lon="12.777775"><ele>39.0</ele><time>2026-04-06T10:11:22.995Z</time></trkpt><trkpt lat="43.8461267" lon="12.7781683"><ele>38.0</ele><time>2026-04-06T10:11:23.995Z</time></trkpt><trkpt lat="43.8462617" lon="12.7785617"><ele>38.0</ele><time>2026-04-06T10:11:24.995Z</time></trkpt><trkpt lat="43.8464133" lon="12.778925"><ele>38.0</ele><time>2026-04-06T10:11:25.995Z</time></trkpt><trkpt lat="43.8465733" lon="12.7792483"><ele>38.5</ele><time>2026-04-06T10:11:26.995Z</time></trkpt><trkpt lat="43.8467283" lon="12.77955"><ele>39.0</ele><time>2026-04-06T10:11:27.995Z</time></trkpt><trkpt lat="43.8468867" lon="12.77983"><ele>39.5</ele><time>2026-04-06T10:11:28.995Z</time></trkpt><trkpt lat="43.8470333" lon="12.7800983"><ele>40.0</ele><time>2026-04-06T10:11:29.995Z</time></trkpt><trkpt lat="43.8471717" lon="12.7803633"><ele>40.0</ele><time>2026-04-06T10:11:30.995Z</time></trkpt><trkpt lat="43.847305" lon="12.7806267"><ele>40.0</ele><time>2026-04-06T10:11:31.995Z</time></trkpt><trkpt lat="43.84744" lon="12.7808817"><ele>40.66666666666667</ele><time>2026-04-06T10:11:32.995Z</time></trkpt><trkpt lat="43.84758" lon="12.7811233"><ele>41.333333333333336</ele><time>2026-04-06T10:11:33.995Z</time></trkpt><trkpt lat="43.8477067" lon="12.7813667"><ele>42.0</ele><time>2026-04-06T10:11:34.995Z</time></trkpt><trkpt lat="43.847835" lon="12.7815967"><ele>42.0</ele><time>2026-04-06T10:11:35.995Z</time></trkpt><trkpt lat="43.8479617" lon="12.7818433"><ele>42.0</ele><time>2026-04-06T10:11:36.995Z</time></trkpt><trkpt lat="43.84808" lon="12.7821083"><ele>42.0</ele><time>2026-04-06T10:11:37.995Z</time></trkpt><trkpt lat="43.848205" lon="12.78238"><ele>43.0</ele><time>2026-04-06T10:11:38.995Z</time></trkpt><trkpt lat="43.848335" lon="12.7826583"><ele>44.0</ele><time>2026-04-06T10:11:39.995Z</time></trkpt><trkpt lat="43.84848" lon="12.7829233"><ele>44.0</ele><time>2026-04-06T10:11:40.995Z</time></trkpt><trkpt lat="43.8486117" lon="12.7832117"><ele>44.0</ele><time>2026-04-06T10:11:41.995Z</time></trkpt><trkpt lat="43.8487617" lon="12.7835033"><ele>43.5</ele><time>2026-04-06T10:11:42.995Z</time></trkpt><trkpt lat="43.848915" lon="12.7837983"><ele>43.0</ele><time>2026-04-06T10:11:43.995Z</time></trkpt><trkpt lat="43.8490733" lon="12.7841"><ele>43.5</ele><time>2026-04-06T10:11:44.995Z</time></trkpt><trkpt lat="43.8492267" lon="12.784405"><ele>44.0</ele><time>2026-04-06T10:11:45.995Z</time></trkpt><trkpt lat="43.849385" lon="12.7847067"><ele>43.0</ele><time>2026-04-06T10:11:46.995Z</time></trkpt><trkpt lat="43.8495433" lon="12.7850067"><ele>42.0</ele><time>2026-04-06T10:11:47.995Z</time></trkpt><trkpt lat="43.8497067" lon="12.7853083"><ele>42.0</ele><time>2026-04-06T10:11:48.995Z</time></trkpt><trkpt lat="43.849875" lon="12.7856017"><ele>42.0</ele><time>2026-04-06T10:11:49.995Z</time></trkpt><trkpt lat="43.8500333" lon="12.7858833"><ele>40.5</ele><time>2026-04-06T10:11:50.995Z</time></trkpt><trkpt lat="43.8501817" lon="12.786145"><ele>39.0</ele><time>2026-04-06T10:11:51.995Z</time></trkpt><trkpt lat="43.850305" lon="12.7863933"><ele>39.0</ele><time>2026-04-06T10:11:52.995Z</time></trkpt><trkpt lat="43.8504233" lon="12.7866167"><ele>39.0</ele><time>2026-04-06T10:11:53.995Z</time></trkpt><trkpt lat="43.850535" lon="12.78683"><ele>39.0</ele><time>2026-04-06T10:11:54.995Z</time></trkpt><trkpt lat="43.8506417" lon="12.78703"><ele>39.5</ele><time>2026-04-06T10:11:55.995Z</time></trkpt><trkpt lat="43.85074" lon="12.787205"><ele>40.0</ele><time>2026-04-06T10:11:56.995Z</time></trkpt><trkpt lat="43.8508083" lon="12.7873633"><ele>40.5</ele><time>2026-04-06T10:11:57.995Z</time></trkpt><trkpt lat="43.85085" lon="12.787515"><ele>41.0</ele><time>2026-04-06T10:11:58.995Z</time></trkpt><trkpt lat="43.8508817" lon="12.7876567"><ele>41.0</ele><time>2026-04-06T10:11:59.995Z</time></trkpt><trkpt lat="43.8509167" lon="12.7878033"><ele>41.0</ele><time>2026-04-06T10:12:00.995Z</time></trkpt><trkpt lat="43.8509683" lon="12.7879233"><ele>41.0</ele><time>2026-04-06T10:12:01.995Z</time></trkpt><trkpt lat="43.8510383" lon="12.7880417"><ele>41.0</ele><time>2026-04-06T10:12:02.995Z</time></trkpt><trkpt lat="43.8511267" lon="12.7882"><ele>41.0</ele><time>2026-04-06T10:12:03.995Z</time></trkpt><trkpt lat="43.8512117" lon="12.7884167"><ele>41.0</ele><time>2026-04-06T10:12:04.995Z</time></trkpt><trkpt lat="43.8512967" lon="12.7886633"><ele>41.0</ele><time>2026-04-06T10:12:05.995Z</time></trkpt><trkpt lat="43.8513683" lon="12.7889433"><ele>41.5</ele><time>2026-04-06T10:12:06.994Z</time></trkpt><trkpt lat="43.8514317" lon="12.789245"><ele>42.0</ele><time>2026-04-06T10:12:07.995Z</time></trkpt><trkpt lat="43.8515017" lon="12.78956"><ele>41.0</ele><time>2026-04-06T10:12:08.995Z</time></trkpt><trkpt lat="43.851555" lon="12.789875"><ele>40.0</ele><time>2026-04-06T10:12:09.995Z</time></trkpt><trkpt lat="43.8516133" lon="12.7901933"><ele>39.0</ele><time>2026-04-06T10:12:10.995Z</time></trkpt><trkpt lat="43.8516567" lon="12.7905283"><ele>38.0</ele><time>2026-04-06T10:12:11.995Z</time></trkpt><trkpt lat="43.8517033" lon="12.7908633"><ele>38.5</ele><time>2026-04-06T10:12:12.995Z</time></trkpt><trkpt lat="43.8517433" lon="12.79121"><ele>39.0</ele><time>2026-04-06T10:12:13.995Z</time></trkpt><trkpt lat="43.851775" lon="12.791555"><ele>36.5</ele><time>2026-04-06T10:12:14.995Z</time></trkpt><trkpt lat="43.8517933" lon="12.7919033"><ele>34.0</ele><time>2026-04-06T10:12:15.995Z</time></trkpt><trkpt lat="43.8518117" lon="12.79225"><ele>34.0</ele><time>2026-04-06T10:12:16.995Z</time></trkpt><trkpt lat="43.8518233" lon="12.792595"><ele>34.0</ele><time>2026-04-06T10:12:17.995Z</time></trkpt><trkpt lat="43.8518533" lon="12.7929283"><ele>34.5</ele><time>2026-04-06T10:12:18.995Z</time></trkpt><trkpt lat="43.8518817" lon="12.7932683"><ele>35.0</ele><time>2026-04-06T10:12:19.995Z</time></trkpt><trkpt lat="43.85191" lon="12.79361"><ele>37.5</ele><time>2026-04-06T10:12:20.995Z</time></trkpt><trkpt lat="43.8519217" lon="12.7939617"><ele>40.0</ele><time>2026-04-06T10:12:21.995Z</time></trkpt><trkpt lat="43.851945" lon="12.7943167"><ele>40.5</ele><time>2026-04-06T10:12:22.995Z</time></trkpt><trkpt lat="43.8519767" lon="12.794665"><ele>41.0</ele><time>2026-04-06T10:12:23.995Z</time></trkpt><trkpt lat="43.8520067" lon="12.795015"><ele>38.5</ele><time>2026-04-06T10:12:24.995Z</time></trkpt><trkpt lat="43.8520283" lon="12.7953683"><ele>36.0</ele><time>2026-04-06T10:12:25.995Z</time></trkpt><trkpt lat="43.8520533" lon="12.7957383"><ele>35.0</ele><time>2026-04-06T10:12:26.995Z</time></trkpt><trkpt lat="43.8520683" lon="12.7961"><ele>34.0</ele><time>2026-04-06T10:12:27.995Z</time></trkpt><trkpt lat="43.8520883" lon="12.79646"><ele>34.0</ele><time>2026-04-06T10:12:28.995Z</time></trkpt><trkpt lat="43.8521117" lon="12.7968117"><ele>34.0</ele><time>2026-04-06T10:12:29.995Z</time></trkpt><trkpt lat="43.852125" lon="12.7971483"><ele>35.0</ele><time>2026-04-06T10:12:30.995Z</time></trkpt><trkpt lat="43.8521533" lon="12.7974933"><ele>36.0</ele><time>2026-04-06T10:12:31.995Z</time></trkpt><trkpt lat="43.8521717" lon="12.7978333"><ele>36.0</ele><time>2026-04-06T10:12:32.995Z</time></trkpt><trkpt lat="43.8521983" lon="12.7981683"><ele>36.0</ele><time>2026-04-06T10:12:33.995Z</time></trkpt><trkpt lat="43.852235" lon="12.7985117"><ele>37.5</ele><time>2026-04-06T10:12:34.995Z</time></trkpt><trkpt lat="43.8522867" lon="12.7988417"><ele>39.0</ele><time>2026-04-06T10:12:35.995Z</time></trkpt><trkpt lat="43.8523567" lon="12.7991583"><ele>40.0</ele><time>2026-04-06T10:12:36.995Z</time></trkpt><trkpt lat="43.852435" lon="12.7994533"><ele>41.0</ele><time>2026-04-06T10:12:37.995Z</time></trkpt><trkpt lat="43.8525133" lon="12.799735"><ele>42.0</ele><time>2026-04-06T10:12:38.995Z</time></trkpt><trkpt lat="43.8526017" lon="12.8000033"><ele>40.666666666666664</ele><time>2026-04-06T10:12:39.995Z</time></trkpt><trkpt lat="43.85269" lon="12.8002617"><ele>39.33333333333333</ele><time>2026-04-06T10:12:40.995Z</time></trkpt><trkpt lat="43.85277" lon="12.800515"><ele>38.0</ele><time>2026-04-06T10:12:41.995Z</time></trkpt><trkpt lat="43.8528533" lon="12.8007617"><ele>38.0</ele><time>2026-04-06T10:12:42.995Z</time></trkpt><trkpt lat="43.85295" lon="12.8009983"><ele>38.0</ele><time>2026-04-06T10:12:43.995Z</time></trkpt><trkpt lat="43.85303" lon="12.8012417"><ele>38.0</ele><time>2026-04-06T10:12:44.995Z</time></trkpt><trkpt lat="43.8531067" lon="12.801475"><ele>37.666666666666664</ele><time>2026-04-06T10:12:45.995Z</time></trkpt><trkpt lat="43.8531817" lon="12.80171"><ele>37.333333333333336</ele><time>2026-04-06T10:12:46.995Z</time></trkpt><trkpt lat="43.853255" lon="12.801945"><ele>37.0</ele><time>2026-04-06T10:12:47.995Z</time></trkpt><trkpt lat="43.8533267" lon="12.8021767"><ele>37.0</ele><time>2026-04-06T10:12:48.995Z</time></trkpt><trkpt lat="43.8534083" lon="12.8024017"><ele>37.0</ele><time>2026-04-06T10:12:49.995Z</time></trkpt><trkpt lat="43.853485" lon="12.8026317"><ele>37.0</ele><time>2026-04-06T10:12:50.995Z</time></trkpt><trkpt lat="43.85356" lon="12.8028683"><ele>36.0</ele><time>2026-04-06T10:12:51.995Z</time></trkpt><trkpt lat="43.8536417" lon="12.8031033"><ele>35.0</ele><time>2026-04-06T10:12:52.995Z</time></trkpt><trkpt lat="43.8537117" lon="12.8033333"><ele>34.0</ele><time>2026-04-06T10:12:53.995Z</time></trkpt><trkpt lat="43.8537967" lon="12.803565"><ele>33.66666666666667</ele><time>2026-04-06T10:12:54.995Z</time></trkpt><trkpt lat="43.853885" lon="12.803795"><ele>33.333333333333336</ele><time>2026-04-06T10:12:55.995Z</time></trkpt><trkpt lat="43.853975" lon="12.8040267"><ele>33.0</ele><time>2026-04-06T10:12:56.995Z</time></trkpt><trkpt lat="43.8540533" lon="12.8042617"><ele>33.0</ele><time>2026-04-06T10:12:57.995Z</time></trkpt><trkpt lat="43.8541233" lon="12.804505"><ele>33.0</ele><time>2026-04-06T10:12:58.995Z</time></trkpt><trkpt lat="43.8542017" lon="12.8047483"><ele>33.0</ele><time>2026-04-06T10:12:59.995Z</time></trkpt><trkpt lat="43.85428" lon="12.8049833"><ele>32.666666666666664</ele><time>2026-04-06T10:13:00.995Z</time></trkpt><trkpt lat="43.8543533" lon="12.8052117"><ele>32.33333333333333</ele><time>2026-04-06T10:13:01.995Z</time></trkpt><trkpt lat="43.8544267" lon="12.8054367"><ele>32.0</ele><time>2026-04-06T10:13:02.995Z</time></trkpt><trkpt lat="43.8545017" lon="12.8056617"><ele>32.0</ele><time>2026-04-06T10:13:03.995Z</time></trkpt><trkpt lat="43.8545883" lon="12.8058883"><ele>32.0</ele><time>2026-04-06T10:13:04.995Z</time></trkpt><trkpt lat="43.8546833" lon="12.8061167"><ele>32.0</ele><time>2026-04-06T10:13:05.995Z</time></trkpt><trkpt lat="43.8547617" lon="12.806355"><ele>32.666666666666664</ele><time>2026-04-06T10:13:06.995Z</time></trkpt><trkpt lat="43.8548517" lon="12.8065867"><ele>33.333333333333336</ele><time>2026-04-06T10:13:07.995Z</time></trkpt><trkpt lat="43.8549433" lon="12.806815"><ele>34.0</ele><time>2026-04-06T10:13:08.995Z</time></trkpt><trkpt lat="43.8550467" lon="12.807035"><ele>34.333333333333336</ele><time>2026-04-06T10:13:09.995Z</time></trkpt><trkpt lat="43.8551567" lon="12.80725"><ele>34.666666666666664</ele><time>2026-04-06T10:13:10.995Z</time></trkpt><trkpt lat="43.8552633" lon="12.8074617"><ele>35.0</ele><time>2026-04-06T10:13:11.995Z</time></trkpt><trkpt lat="43.8553883" lon="12.80767"><ele>34.33333333333333</ele><time>2026-04-06T10:13:12.995Z</time></trkpt><trkpt lat="43.8554983" lon="12.80788"><ele>33.666666666666664</ele><time>2026-04-06T10:13:13.995Z</time></trkpt><trkpt lat="43.8556283" lon="12.8080717"><ele>33.0</ele><time>2026-04-06T10:13:14.995Z</time></trkpt><trkpt lat="43.8557717" lon="12.8082617"><ele>33.0</ele><time>2026-04-06T10:13:15.995Z</time></trkpt><trkpt lat="43.8559117" lon="12.80845"><ele>33.0</ele><time>2026-04-06T10:13:16.995Z</time></trkpt><trkpt lat="43.8560483" lon="12.808635"><ele>33.0</ele><time>2026-04-06T10:13:17.995Z</time></trkpt><trkpt lat="43.8561833" lon="12.80883"><ele>32.666666666666664</ele><time>2026-04-06T10:13:18.995Z</time></trkpt><trkpt lat="43.85632" lon="12.8090317"><ele>32.33333333333333</ele><time>2026-04-06T10:13:19.995Z</time></trkpt><trkpt lat="43.8564633" lon="12.8092217"><ele>32.0</ele><time>2026-04-06T10:13:20.995Z</time></trkpt><trkpt lat="43.85659" lon="12.80941"><ele>32.0</ele><time>2026-04-06T10:13:21.995Z</time></trkpt><trkpt lat="43.856705" lon="12.8095983"><ele>32.0</ele><time>2026-04-06T10:13:22.995Z</time></trkpt><trkpt lat="43.8568133" lon="12.8097767"><ele>32.0</ele><time>2026-04-06T10:13:23.995Z</time></trkpt><trkpt lat="43.8569383" lon="12.8099483"><ele>32.0</ele><time>2026-04-06T10:13:24.995Z</time></trkpt><trkpt lat="43.85707" lon="12.810115"><ele>32.0</ele><time>2026-04-06T10:13:25.995Z</time></trkpt><trkpt lat="43.8571917" lon="12.810285"><ele>32.0</ele><time>2026-04-06T10:13:26.995Z</time></trkpt><trkpt lat="43.8573167" lon="12.8104667"><ele>32.0</ele><time>2026-04-06T10:13:27.995Z</time></trkpt><trkpt lat="43.8574317" lon="12.8106583"><ele>32.0</ele><time>2026-04-06T10:13:28.995Z</time></trkpt><trkpt lat="43.8575567" lon="12.8108433"><ele>32.0</ele><time>2026-04-06T10:13:29.995Z</time></trkpt><trkpt lat="43.8576867" lon="12.81103"><ele>32.666666666666664</ele><time>2026-04-06T10:13:30.995Z</time></trkpt><trkpt lat="43.857805" lon="12.8112167"><ele>33.333333333333336</ele><time>2026-04-06T10:13:31.995Z</time></trkpt><trkpt lat="43.85793" lon="12.8114017"><ele>34.0</ele><time>2026-04-06T10:13:32.995Z</time></trkpt><trkpt lat="43.8580467" lon="12.8115933"><ele>34.0</ele><time>2026-04-06T10:13:33.995Z</time></trkpt><trkpt lat="43.85817" lon="12.8117833"><ele>34.0</ele><time>2026-04-06T10:13:34.995Z</time></trkpt><trkpt lat="43.8582917" lon="12.811965"><ele>34.0</ele><time>2026-04-06T10:13:35.995Z</time></trkpt><trkpt lat="43.8584067" lon="12.8121367"><ele>34.0</ele><time>2026-04-06T10:13:36.995Z</time></trkpt><trkpt lat="43.8585233" lon="12.812305"><ele>34.0</ele><time>2026-04-06T10:13:37.995Z</time></trkpt><trkpt lat="43.85864" lon="12.81248"><ele>34.0</ele><time>2026-04-06T10:13:38.995Z</time></trkpt><trkpt lat="43.85875" lon="12.8126567"><ele>34.0</ele><time>2026-04-06T10:13:39.995Z</time></trkpt><trkpt lat="43.8588683" lon="12.81283"><ele>34.0</ele><time>2026-04-06T10:13:40.995Z</time></trkpt><trkpt lat="43.8589933" lon="12.81302"><ele>34.0</ele><time>2026-04-06T10:13:41.995Z</time></trkpt><trkpt lat="43.8591133" lon="12.8132233"><ele>34.0</ele><time>2026-04-06T10:13:42.995Z</time></trkpt><trkpt lat="43.8592283" lon="12.813435"><ele>34.0</ele><time>2026-04-06T10:13:43.995Z</time></trkpt><trkpt lat="43.8593517" lon="12.8136517"><ele>34.0</ele><time>2026-04-06T10:13:44.994Z</time></trkpt><trkpt lat="43.8594683" lon="12.8138683"><ele>33.333333333333336</ele><time>2026-04-06T10:13:45.994Z</time></trkpt><trkpt lat="43.8595783" lon="12.8140817"><ele>32.666666666666664</ele><time>2026-04-06T10:13:46.994Z</time></trkpt><trkpt lat="43.8596883" lon="12.8143017"><ele>32.0</ele><time>2026-04-06T10:13:47.994Z</time></trkpt><trkpt lat="43.8598083" lon="12.8145083"><ele>32.0</ele><time>2026-04-06T10:13:48.994Z</time></trkpt><trkpt lat="43.8599217" lon="12.8147133"><ele>32.0</ele><time>2026-04-06T10:13:49.994Z</time></trkpt><trkpt lat="43.860025" lon="12.8149167"><ele>32.0</ele><time>2026-04-06T10:13:50.994Z</time></trkpt><trkpt lat="43.860115" lon="12.815115"><ele>31.333333333333332</ele><time>2026-04-06T10:13:51.994Z</time></trkpt><trkpt lat="43.86021" lon="12.815315"><ele>30.666666666666664</ele><time>2026-04-06T10:13:52.994Z</time></trkpt><trkpt lat="43.8603083" lon="12.8155167"><ele>30.0</ele><time>2026-04-06T10:13:53.994Z</time></trkpt><trkpt lat="43.8604083" lon="12.8157267"><ele>30.0</ele><time>2026-04-06T10:13:54.994Z</time></trkpt><trkpt lat="43.8605217" lon="12.8159317"><ele>30.0</ele><time>2026-04-06T10:13:55.994Z</time></trkpt><trkpt lat="43.8606317" lon="12.8161383"><ele>30.0</ele><time>2026-04-06T10:13:56.994Z</time></trkpt><trkpt lat="43.860735" lon="12.8163383"><ele>30.333333333333336</ele><time>2026-04-06T10:13:57.994Z</time></trkpt><trkpt lat="43.8608133" lon="12.8165367"><ele>30.666666666666668</ele><time>2026-04-06T10:13:58.994Z</time></trkpt><trkpt lat="43.8608883" lon="12.8167267"><ele>31.0</ele><time>2026-04-06T10:13:59.994Z</time></trkpt><trkpt lat="43.8609683" lon="12.8169033"><ele>30.25</ele><time>2026-04-06T10:14:00.994Z</time></trkpt><trkpt lat="43.86104" lon="12.817065"><ele>29.5</ele><time>2026-04-06T10:14:01.994Z</time></trkpt><trkpt lat="43.8611083" lon="12.817215"><ele>28.75</ele><time>2026-04-06T10:14:02.994Z</time></trkpt><trkpt lat="43.86116" lon="12.817345"><ele>28.0</ele><time>2026-04-06T10:14:03.994Z</time></trkpt><trkpt lat="43.8611833" lon="12.8174983"><ele>28.0</ele><time>2026-04-06T10:14:04.994Z</time></trkpt><trkpt lat="43.8611917" lon="12.8176683"><ele>28.0</ele><time>2026-04-06T10:14:05.994Z</time></trkpt><trkpt lat="43.8611767" lon="12.817855"><ele>28.0</ele><time>2026-04-06T10:14:06.994Z</time></trkpt><trkpt lat="43.8611283" lon="12.8180383"><ele>28.0</ele><time>2026-04-06T10:14:07.994Z</time></trkpt><trkpt lat="43.8610317" lon="12.8182317"><ele>28.0</ele><time>2026-04-06T10:14:08.994Z</time></trkpt><trkpt lat="43.8609267" lon="12.818415"><ele>28.0</ele><time>2026-04-06T10:14:09.994Z</time></trkpt><trkpt lat="43.8608033" lon="12.8186"><ele>28.0</ele><time>2026-04-06T10:14:10.994Z</time></trkpt><trkpt lat="43.8606733" lon="12.8188"><ele>28.0</ele><time>2026-04-06T10:14:11.994Z</time></trkpt><trkpt lat="43.8605367" lon="12.8190183"><ele>28.0</ele><time>2026-04-06T10:14:12.994Z</time></trkpt><trkpt lat="43.8604117" lon="12.819215"><ele>28.0</ele><time>2026-04-06T10:14:13.994Z</time></trkpt><trkpt lat="43.8602917" lon="12.8194"><ele>28.25</ele><time>2026-04-06T10:14:14.994Z</time></trkpt><trkpt lat="43.8601867" lon="12.819565"><ele>28.5</ele><time>2026-04-06T10:14:15.994Z</time></trkpt><trkpt lat="43.8600783" lon="12.8197067"><ele>28.75</ele><time>2026-04-06T10:14:16.994Z</time></trkpt><trkpt lat="43.85997" lon="12.8198167"><ele>29.0</ele><time>2026-04-06T10:14:17.994Z</time></trkpt><trkpt lat="43.8598667" lon="12.8199067"><ele>28.999999999999996</ele><time>2026-04-06T10:14:18.994Z</time></trkpt><trkpt lat="43.8597817" lon="12.8199883"><ele>29.0</ele><time>2026-04-06T10:14:19.994Z</time></trkpt><trkpt lat="43.85973" lon="12.820075"><ele>29.0</ele><time>2026-04-06T10:14:20.994Z</time></trkpt><trkpt lat="43.8597183" lon="12.8201767"><ele>29.0</ele><time>2026-04-06T10:14:21.994Z</time></trkpt><trkpt lat="43.8597383" lon="12.8202817"><ele>28.999999999999996</ele><time>2026-04-06T10:14:22.994Z</time></trkpt><trkpt lat="43.8597883" lon="12.8203717"><ele>29.0</ele><time>2026-04-06T10:14:23.994Z</time></trkpt><trkpt lat="43.8598717" lon="12.8204617"><ele>29.0</ele><time>2026-04-06T10:14:24.994Z</time></trkpt><trkpt lat="43.8599967" lon="12.82057"><ele>29.0</ele><time>2026-04-06T10:14:25.994Z</time></trkpt><trkpt lat="43.8601383" lon="12.820695"><ele>29.0</ele><time>2026-04-06T10:14:26.994Z</time></trkpt><trkpt lat="43.8602717" lon="12.8208383"><ele>30.0</ele><time>2026-04-06T10:14:27.994Z</time></trkpt><trkpt lat="43.8604117" lon="12.8210017"><ele>31.0</ele><time>2026-04-06T10:14:28.994Z</time></trkpt><trkpt lat="43.8605617" lon="12.8211833"><ele>32.0</ele><time>2026-04-06T10:14:29.994Z</time></trkpt><trkpt lat="43.86071" lon="12.8213667"><ele>32.0</ele><time>2026-04-06T10:14:30.994Z</time></trkpt><trkpt lat="43.860845" lon="12.821535"><ele>32.0</ele><time>2026-04-06T10:14:31.994Z</time></trkpt><trkpt lat="43.8609667" lon="12.8216833"><ele>32.0</ele><time>2026-04-06T10:14:32.994Z</time></trkpt><trkpt lat="43.86107" lon="12.8218167"><ele>32.5</ele><time>2026-04-06T10:14:33.994Z</time></trkpt><trkpt lat="43.8611617" lon="12.8219483"><ele>33.0</ele><time>2026-04-06T10:14:34.994Z</time></trkpt><trkpt lat="43.861225" lon="12.8220933"><ele>33.5</ele><time>2026-04-06T10:14:35.994Z</time></trkpt><trkpt lat="43.8612567" lon="12.8222483"><ele>34.0</ele><time>2026-04-06T10:14:36.994Z</time></trkpt><trkpt lat="43.86126" lon="12.8224"><ele>34.0</ele><time>2026-04-06T10:14:37.994Z</time></trkpt><trkpt lat="43.8612167" lon="12.822545"><ele>34.0</ele><time>2026-04-06T10:14:38.994Z</time></trkpt><trkpt lat="43.8611417" lon="12.8226867"><ele>34.0</ele><time>2026-04-06T10:14:39.994Z</time></trkpt><trkpt lat="43.861025" lon="12.8228033"><ele>34.0</ele><time>2026-04-06T10:14:40.994Z</time></trkpt><trkpt lat="43.8608817" lon="12.8229183"><ele>35.66666666666667</ele><time>2026-04-06T10:14:41.994Z</time></trkpt><trkpt lat="43.8607283" lon="12.823015"><ele>37.333333333333336</ele><time>2026-04-06T10:14:42.994Z</time></trkpt><trkpt lat="43.8605533" lon="12.8231133"><ele>39.0</ele><time>2026-04-06T10:14:43.994Z</time></trkpt><trkpt lat="43.8603717" lon="12.8232083"><ele>39.0</ele><time>2026-04-06T10:14:44.994Z</time></trkpt><trkpt lat="43.8601883" lon="12.8232917"><ele>39.0</ele><time>2026-04-06T10:14:45.994Z</time></trkpt><trkpt lat="43.86003" lon="12.8233783"><ele>39.0</ele><time>2026-04-06T10:14:46.994Z</time></trkpt><trkpt lat="43.8599" lon="12.82347"><ele>39.4</ele><time>2026-04-06T10:14:47.994Z</time></trkpt><trkpt lat="43.8598017" lon="12.8235583"><ele>39.8</ele><time>2026-04-06T10:14:48.994Z</time></trkpt><trkpt lat="43.85974" lon="12.823645"><ele>40.199999999999996</ele><time>2026-04-06T10:14:49.994Z</time></trkpt><trkpt lat="43.8596517" lon="12.8237067"><ele>40.599999999999994</ele><time>2026-04-06T10:14:50.994Z</time></trkpt><trkpt lat="43.85956" lon="12.82372"><ele>41.0</ele><time>2026-04-06T10:14:51.994Z</time></trkpt><trkpt lat="43.8594683" lon="12.8236617"><ele>41.0</ele><time>2026-04-06T10:14:52.994Z</time></trkpt><trkpt lat="43.8593583" lon="12.8235567"><ele>41.0</ele><time>2026-04-06T10:14:53.994Z</time></trkpt><trkpt lat="43.8592183" lon="12.8234217"><ele>41.0</ele><time>2026-04-06T10:14:54.994Z</time></trkpt><trkpt lat="43.85907" lon="12.8232883"><ele>40.0</ele><time>2026-04-06T10:14:55.994Z</time></trkpt><trkpt lat="43.85891" lon="12.8231467"><ele>39.0</ele><time>2026-04-06T10:14:56.994Z</time></trkpt><trkpt lat="43.85873" lon="12.8230017"><ele>38.0</ele><time>2026-04-06T10:14:57.994Z</time></trkpt><trkpt lat="43.8585533" lon="12.8228483"><ele>38.33333333333333</ele><time>2026-04-06T10:14:58.994Z</time></trkpt><trkpt lat="43.8583667" lon="12.8227133"><ele>38.666666666666664</ele><time>2026-04-06T10:14:59.994Z</time></trkpt><trkpt lat="43.8581483" lon="12.8226133"><ele>39.0</ele><time>2026-04-06T10:15:00.994Z</time></trkpt><trkpt lat="43.8579117" lon="12.822515"><ele>39.5</ele><time>2026-04-06T10:15:01.994Z</time></trkpt><trkpt lat="43.8576733" lon="12.822435"><ele>40.0</ele><time>2026-04-06T10:15:02.994Z</time></trkpt><trkpt lat="43.8574283" lon="12.8223467"><ele>40.0</ele><time>2026-04-06T10:15:03.994Z</time></trkpt><trkpt lat="43.857195" lon="12.8222483"><ele>40.0</ele><time>2026-04-06T10:15:04.994Z</time></trkpt><trkpt lat="43.8569883" lon="12.8221533"><ele>40.0</ele><time>2026-04-06T10:15:05.994Z</time></trkpt><trkpt lat="43.8568033" lon="12.8220767"><ele>40.0</ele><time>2026-04-06T10:15:06.994Z</time></trkpt><trkpt lat="43.8566367" lon="12.8220017"><ele>40.0</ele><time>2026-04-06T10:15:07.994Z</time></trkpt><trkpt lat="43.8564767" lon="12.8219217"><ele>40.5</ele><time>2026-04-06T10:15:08.994Z</time></trkpt><trkpt lat="43.8563417" lon="12.8218333"><ele>41.0</ele><time>2026-04-06T10:15:09.994Z</time></trkpt><trkpt lat="43.8562283" lon="12.8217217"><ele>41.5</ele><time>2026-04-06T10:15:10.994Z</time></trkpt><trkpt lat="43.8561867" lon="12.8215783"><ele>42.0</ele><time>2026-04-06T10:15:11.994Z</time></trkpt><trkpt lat="43.8562067" lon="12.821405"><ele>42.0</ele><time>2026-04-06T10:15:12.994Z</time></trkpt><trkpt lat="43.8562483" lon="12.821235"><ele>42.0</ele><time>2026-04-06T10:15:13.994Z</time></trkpt><trkpt lat="43.8563183" lon="12.8210617"><ele>42.0</ele><time>2026-04-06T10:15:14.994Z</time></trkpt><trkpt lat="43.8563817" lon="12.82089"><ele>42.0</ele><time>2026-04-06T10:15:15.994Z</time></trkpt><trkpt lat="43.8564133" lon="12.8207283"><ele>42.400000000000006</ele><time>2026-04-06T10:15:16.994Z</time></trkpt><trkpt lat="43.856415" lon="12.8205717"><ele>42.800000000000004</ele><time>2026-04-06T10:15:17.994Z</time></trkpt><trkpt lat="43.8563867" lon="12.8204317"><ele>43.2</ele><time>2026-04-06T10:15:18.994Z</time></trkpt><trkpt lat="43.8563367" lon="12.8203167"><ele>43.6</ele><time>2026-04-06T10:15:19.994Z</time></trkpt><trkpt lat="43.8562567" lon="12.8202367"><ele>44.0</ele><time>2026-04-06T10:15:20.994Z</time></trkpt><trkpt lat="43.8561633" lon="12.8202133"><ele>44.0</ele><time>2026-04-06T10:15:21.994Z</time></trkpt><trkpt lat="43.8560683" lon="12.8202233"><ele>44.0</ele><time>2026-04-06T10:15:22.994Z</time></trkpt><trkpt lat="43.8559617" lon="12.82027"><ele>44.0</ele><time>2026-04-06T10:15:23.994Z</time></trkpt><trkpt lat="43.855885" lon="12.8203667"><ele>44.0</ele><time>2026-04-06T10:15:24.994Z</time></trkpt><trkpt lat="43.8558083" lon="12.8205067"><ele>44.0</ele><time>2026-04-06T10:15:25.993Z</time></trkpt><trkpt lat="43.8557317" lon="12.8206683"><ele>45.5</ele><time>2026-04-06T10:15:26.994Z</time></trkpt><trkpt lat="43.85566" lon="12.8208267"><ele>47.0</ele><time>2026-04-06T10:15:27.994Z</time></trkpt><trkpt lat="43.8555767" lon="12.820965"><ele>48.5</ele><time>2026-04-06T10:15:28.994Z</time></trkpt><trkpt lat="43.8554783" lon="12.8210717"><ele>50.0</ele><time>2026-04-06T10:15:29.994Z</time></trkpt><trkpt lat="43.855365" lon="12.82115"><ele>50.0</ele><time>2026-04-06T10:15:30.994Z</time></trkpt><trkpt lat="43.85524" lon="12.8212033"><ele>50.0</ele><time>2026-04-06T10:15:31.994Z</time></trkpt><trkpt lat="43.855115" lon="12.8212133"><ele>50.0</ele><time>2026-04-06T10:15:32.994Z</time></trkpt><trkpt lat="43.8549883" lon="12.8212067"><ele>50.0</ele><time>2026-04-06T10:15:33.994Z</time></trkpt><trkpt lat="43.8548767" lon="12.8212117"><ele>51.8</ele><time>2026-04-06T10:15:34.994Z</time></trkpt><trkpt lat="43.8547867" lon="12.8212583"><ele>53.6</ele><time>2026-04-06T10:15:35.994Z</time></trkpt><trkpt lat="43.8547067" lon="12.8213483"><ele>55.400000000000006</ele><time>2026-04-06T10:15:36.994Z</time></trkpt><trkpt lat="43.8546367" lon="12.821455"><ele>57.2</ele><time>2026-04-06T10:15:37.994Z</time></trkpt><trkpt lat="43.8545717" lon="12.82158"><ele>59.0</ele><time>2026-04-06T10:15:38.994Z</time></trkpt><trkpt lat="43.854505" lon="12.8217"><ele>59.5</ele><time>2026-04-06T10:15:39.994Z</time></trkpt><trkpt lat="43.8544333" lon="12.8218217"><ele>60.0</ele><time>2026-04-06T10:15:40.994Z</time></trkpt><trkpt lat="43.8543517" lon="12.8219517"><ele>60.5</ele><time>2026-04-06T10:15:41.994Z</time></trkpt><trkpt lat="43.854265" lon="12.8220833"><ele>61.0</ele><time>2026-04-06T10:15:42.994Z</time></trkpt><trkpt lat="43.854185" lon="12.8222267"><ele>63.199999999999996</ele><time>2026-04-06T10:15:43.994Z</time></trkpt><trkpt lat="43.8541267" lon="12.822375"><ele>65.39999999999999</ele><time>2026-04-06T10:15:44.994Z</time></trkpt><trkpt lat="43.8540983" lon="12.8225233"><ele>67.6</ele><time>2026-04-06T10:15:45.994Z</time></trkpt><trkpt lat="43.85409" lon="12.82267"><ele>69.8</ele><time>2026-04-06T10:15:46.994Z</time></trkpt><trkpt lat="43.8541017" lon="12.8227983"><ele>72.0</ele><time>2026-04-06T10:15:47.994Z</time></trkpt><trkpt lat="43.8541017" lon="12.8229233"><ele>72.6</ele><time>2026-04-06T10:15:48.994Z</time></trkpt><trkpt lat="43.8540983" lon="12.8230567"><ele>73.2</ele><time>2026-04-06T10:15:49.994Z</time></trkpt><trkpt lat="43.8540967" lon="12.8232017"><ele>73.8</ele><time>2026-04-06T10:15:50.994Z</time></trkpt><trkpt lat="43.8540967" lon="12.823345"><ele>74.4</ele><time>2026-04-06T10:15:51.994Z</time></trkpt><trkpt lat="43.8540917" lon="12.82347"><ele>75.0</ele><time>2026-04-06T10:15:52.994Z</time></trkpt><trkpt lat="43.8540883" lon="12.823575"><ele>75.5</ele><time>2026-04-06T10:15:53.994Z</time></trkpt><trkpt lat="43.8540767" lon="12.823675"><ele>76.0</ele><time>2026-04-06T10:15:54.994Z</time></trkpt><trkpt lat="43.8540583" lon="12.8237783"><ele>76.5</ele><time>2026-04-06T10:15:55.994Z</time></trkpt><trkpt lat="43.854025" lon="12.8238717"><ele>77.0</ele><time>2026-04-06T10:15:56.994Z</time></trkpt><trkpt lat="43.85398" lon="12.8239567"><ele>77.5</ele><time>2026-04-06T10:15:57.994Z</time></trkpt><trkpt lat="43.8539133" lon="12.8240267"><ele>78.0</ele><time>2026-04-06T10:15:58.994Z</time></trkpt><trkpt lat="43.8538317" lon="12.82406"><ele>78.0</ele><time>2026-04-06T10:15:59.994Z</time></trkpt><trkpt lat="43.85375" lon="12.824045"><ele>78.0</ele><time>2026-04-06T10:16:00.994Z</time></trkpt><trkpt lat="43.8536733" lon="12.8239917"><ele>78.0</ele><time>2026-04-06T10:16:01.994Z</time></trkpt><trkpt lat="43.8536083" lon="12.82389"><ele>78.0</ele><time>2026-04-06T10:16:02.994Z</time></trkpt><trkpt lat="43.8535533" lon="12.8237483"><ele>78.0</ele><time>2026-04-06T10:16:03.994Z</time></trkpt><trkpt lat="43.853525" lon="12.823585"><ele>77.4</ele><time>2026-04-06T10:16:04.994Z</time></trkpt><trkpt lat="43.853515" lon="12.8234183"><ele>76.8</ele><time>2026-04-06T10:16:05.994Z</time></trkpt><trkpt lat="43.8535017" lon="12.82327"><ele>76.2</ele><time>2026-04-06T10:16:06.994Z</time></trkpt><trkpt lat="43.8534817" lon="12.8231333"><ele>75.6</ele><time>2026-04-06T10:16:07.994Z</time></trkpt><trkpt lat="43.853455" lon="12.823"><ele>75.0</ele><time>2026-04-06T10:16:08.994Z</time></trkpt><trkpt lat="43.8534167" lon="12.8228633"><ele>77.75</ele><time>2026-04-06T10:16:09.994Z</time></trkpt><trkpt lat="43.85336" lon="12.8227367"><ele>80.5</ele><time>2026-04-06T10:16:10.994Z</time></trkpt><trkpt lat="43.853305" lon="12.8226017"><ele>83.25</ele><time>2026-04-06T10:16:11.994Z</time></trkpt><trkpt lat="43.8532483" lon="12.8224617"><ele>86.0</ele><time>2026-04-06T10:16:12.994Z</time></trkpt><trkpt lat="43.8531933" lon="12.8223217"><ele>86.0</ele><time>2026-04-06T10:16:13.994Z</time></trkpt><trkpt lat="43.853135" lon="12.8221833"><ele>86.0</ele><time>2026-04-06T10:16:14.994Z</time></trkpt><trkpt lat="43.853095" lon="12.8220633"><ele>86.0</ele><time>2026-04-06T10:16:15.994Z</time></trkpt><trkpt lat="43.8530567" lon="12.821955"><ele>86.0</ele><time>2026-04-06T10:16:16.994Z</time></trkpt><trkpt lat="43.85301" lon="12.8218433"><ele>86.0</ele><time>2026-04-06T10:16:17.994Z</time></trkpt><trkpt lat="43.85296" lon="12.8217233"><ele>85.5</ele><time>2026-04-06T10:16:18.994Z</time></trkpt><trkpt lat="43.8529" lon="12.82159"><ele>85.0</ele><time>2026-04-06T10:16:19.994Z</time></trkpt><trkpt lat="43.8528433" lon="12.8214483"><ele>84.5</ele><time>2026-04-06T10:16:20.994Z</time></trkpt><trkpt lat="43.8527867" lon="12.8213033"><ele>84.0</ele><time>2026-04-06T10:16:21.994Z</time></trkpt><trkpt lat="43.852725" lon="12.8211683"><ele>84.0</ele><time>2026-04-06T10:16:22.994Z</time></trkpt><trkpt lat="43.8526683" lon="12.8210467"><ele>84.0</ele><time>2026-04-06T10:16:23.994Z</time></trkpt><trkpt lat="43.852615" lon="12.820925"><ele>84.0</ele><time>2026-04-06T10:16:24.994Z</time></trkpt><trkpt lat="43.85257" lon="12.82083"><ele>84.0</ele><time>2026-04-06T10:16:25.994Z</time></trkpt><trkpt lat="43.8525133" lon="12.820755"><ele>84.0</ele><time>2026-04-06T10:16:26.994Z</time></trkpt><trkpt lat="43.8524617" lon="12.8207017"><ele>84.0</ele><time>2026-04-06T10:16:27.994Z</time></trkpt><trkpt lat="43.852355" lon="12.8206483"><ele>86.6</ele><time>2026-04-06T10:16:29.994Z</time></trkpt><trkpt lat="43.8522917" lon="12.8206617"><ele>89.2</ele><time>2026-04-06T10:16:30.994Z</time></trkpt><trkpt lat="43.8522" lon="12.82077"><ele>91.8</ele><time>2026-04-06T10:16:32.994Z</time></trkpt><trkpt lat="43.8521433" lon="12.8209483"><ele>94.39999999999999</ele><time>2026-04-06T10:16:34.994Z</time></trkpt><trkpt lat="43.8521167" lon="12.8210867"><ele>97.0</ele><time>2026-04-06T10:16:35.994Z</time></trkpt><trkpt lat="43.85208" lon="12.8212583"><ele>97.0</ele><time>2026-04-06T10:16:36.994Z</time></trkpt><trkpt lat="43.852025" lon="12.8214883"><ele>97.0</ele><time>2026-04-06T10:16:37.994Z</time></trkpt><trkpt lat="43.851955" lon="12.82178"><ele>97.0</ele><time>2026-04-06T10:16:38.994Z</time></trkpt><trkpt lat="43.8518317" lon="12.8221483"><ele>103.0</ele><time>2026-04-06T10:16:39.994Z</time></trkpt><trkpt lat="43.8517267" lon="12.8224717"><ele>109.0</ele><time>2026-04-06T10:16:40.994Z</time></trkpt><trkpt lat="43.8516283" lon="12.82275"><ele>109.0</ele><time>2026-04-06T10:16:41.994Z</time></trkpt><trkpt lat="43.851545" lon="12.8229833"><ele>109.0</ele><time>2026-04-06T10:16:42.994Z</time></trkpt><trkpt lat="43.8514383" lon="12.8231883"><ele>109.0</ele><time>2026-04-06T10:16:43.994Z</time></trkpt><trkpt lat="43.8512967" lon="12.823345"><ele>109.0</ele><time>2026-04-06T10:16:44.994Z</time></trkpt><trkpt lat="43.8511283" lon="12.82347"><ele>109.0</ele><time>2026-04-06T10:16:45.994Z</time></trkpt><trkpt lat="43.8509367" lon="12.82357"><ele>109.0</ele><time>2026-04-06T10:16:46.994Z</time></trkpt><trkpt lat="43.8507033" lon="12.8236617"><ele>110.5</ele><time>2026-04-06T10:16:47.994Z</time></trkpt><trkpt lat="43.8504567" lon="12.823775"><ele>112.0</ele><time>2026-04-06T10:16:48.994Z</time></trkpt><trkpt lat="43.8502067" lon="12.8239017"><ele>116.0</ele><time>2026-04-06T10:16:49.994Z</time></trkpt><trkpt lat="43.849955" lon="12.8240317"><ele>120.0</ele><time>2026-04-06T10:16:50.994Z</time></trkpt><trkpt lat="43.8497067" lon="12.8241617"><ele>120.0</ele><time>2026-04-06T10:16:51.994Z</time></trkpt><trkpt lat="43.8494567" lon="12.8242933"><ele>120.0</ele><time>2026-04-06T10:16:52.994Z</time></trkpt><trkpt lat="43.8492183" lon="12.82442"><ele>120.5</ele><time>2026-04-06T10:16:53.994Z</time></trkpt><trkpt lat="43.848995" lon="12.8245433"><ele>121.0</ele><time>2026-04-06T10:16:54.994Z</time></trkpt><trkpt lat="43.8487733" lon="12.8246667"><ele>121.0</ele><time>2026-04-06T10:16:55.994Z</time></trkpt><trkpt lat="43.848565" lon="12.8248017"><ele>121.0</ele><time>2026-04-06T10:16:56.994Z</time></trkpt><trkpt lat="43.8483683" lon="12.8249483"><ele>122.66666666666667</ele><time>2026-04-06T10:16:57.994Z</time></trkpt><trkpt lat="43.848205" lon="12.8250917"><ele>124.33333333333334</ele><time>2026-04-06T10:16:58.994Z</time></trkpt><trkpt lat="43.8480517" lon="12.825225"><ele>126.0</ele><time>2026-04-06T10:16:59.994Z</time></trkpt><trkpt lat="43.8479033" lon="12.8253583"><ele>126.0</ele><time>2026-04-06T10:17:00.994Z</time></trkpt><trkpt lat="43.8477583" lon="12.8254867"><ele>126.0</ele><time>2026-04-06T10:17:01.994Z</time></trkpt><trkpt lat="43.8476183" lon="12.82561"><ele>126.0</ele><time>2026-04-06T10:17:02.994Z</time></trkpt><trkpt lat="43.8474717" lon="12.825735"><ele>128.0</ele><time>2026-04-06T10:17:03.994Z</time></trkpt><trkpt lat="43.84733" lon="12.8258533"><ele>130.0</ele><time>2026-04-06T10:17:04.994Z</time></trkpt><trkpt lat="43.84718" lon="12.8259783"><ele>132.0</ele><time>2026-04-06T10:17:05.994Z</time></trkpt><trkpt lat="43.84703" lon="12.8261067"><ele>132.0</ele><time>2026-04-06T10:17:06.994Z</time></trkpt><trkpt lat="43.8468933" lon="12.8262317"><ele>132.0</ele><time>2026-04-06T10:17:07.994Z</time></trkpt><trkpt lat="43.8467783" lon="12.826365"><ele>132.0</ele><time>2026-04-06T10:17:08.993Z</time></trkpt><trkpt lat="43.8466817" lon="12.82653"><ele>134.33333333333334</ele><time>2026-04-06T10:17:09.994Z</time></trkpt><trkpt lat="43.846625" lon="12.826725"><ele>136.66666666666669</ele><time>2026-04-06T10:17:10.994Z</time></trkpt><trkpt lat="43.8466233" lon="12.8269483"><ele>139.0</ele><time>2026-04-06T10:17:11.994Z</time></trkpt><trkpt lat="43.8466333" lon="12.827165"><ele>139.25</ele><time>2026-04-06T10:17:12.994Z</time></trkpt><trkpt lat="43.84663" lon="12.8273667"><ele>139.5</ele><time>2026-04-06T10:17:13.994Z</time></trkpt><trkpt lat="43.84662" lon="12.8275533"><ele>139.75</ele><time>2026-04-06T10:17:14.994Z</time></trkpt><trkpt lat="43.846595" lon="12.8276983"><ele>140.0</ele><time>2026-04-06T10:17:15.994Z</time></trkpt><trkpt lat="43.8465417" lon="12.8278317"><ele>140.0</ele><time>2026-04-06T10:17:16.994Z</time></trkpt><trkpt lat="43.84647" lon="12.8279333"><ele>140.0</ele><time>2026-04-06T10:17:17.994Z</time></trkpt><trkpt lat="43.84637" lon="12.827965"><ele>140.0</ele><time>2026-04-06T10:17:18.994Z</time></trkpt><trkpt lat="43.8462767" lon="12.82792"><ele>140.0</ele><time>2026-04-06T10:17:19.994Z</time></trkpt><trkpt lat="43.8462" lon="12.8278133"><ele>140.0</ele><time>2026-04-06T10:17:20.994Z</time></trkpt><trkpt lat="43.8461367" lon="12.8276533"><ele>140.0</ele><time>2026-04-06T10:17:21.994Z</time></trkpt><trkpt lat="43.8460833" lon="12.8274717"><ele>140.0</ele><time>2026-04-06T10:17:22.994Z</time></trkpt><trkpt lat="43.84602" lon="12.8273017"><ele>140.0</ele><time>2026-04-06T10:17:23.994Z</time></trkpt><trkpt lat="43.8459533" lon="12.8271667"><ele>140.0</ele><time>2026-04-06T10:17:24.994Z</time></trkpt><trkpt lat="43.84586" lon="12.827065"><ele>143.0</ele><time>2026-04-06T10:17:25.994Z</time></trkpt><trkpt lat="43.84576" lon="12.8270117"><ele>146.0</ele><time>2026-04-06T10:17:26.994Z</time></trkpt><trkpt lat="43.8456283" lon="12.8270017"><ele>149.0</ele><time>2026-04-06T10:17:27.994Z</time></trkpt><trkpt lat="43.8454633" lon="12.827045"><ele>152.0</ele><time>2026-04-06T10:17:28.994Z</time></trkpt><trkpt lat="43.84527" lon="12.827115"><ele>154.66666666666666</ele><time>2026-04-06T10:17:29.994Z</time></trkpt><trkpt lat="43.84506" lon="12.8271917"><ele>157.33333333333334</ele><time>2026-04-06T10:17:30.994Z</time></trkpt><trkpt lat="43.8448333" lon="12.8272533"><ele>160.0</ele><time>2026-04-06T10:17:31.994Z</time></trkpt><trkpt lat="43.8445933" lon="12.8273067"><ele>160.0</ele><time>2026-04-06T10:17:32.994Z</time></trkpt><trkpt lat="43.8443567" lon="12.82734"><ele>160.0</ele><time>2026-04-06T10:17:33.994Z</time></trkpt><trkpt lat="43.84414" lon="12.8273733"><ele>161.0</ele><time>2026-04-06T10:17:34.994Z</time></trkpt><trkpt lat="43.8439533" lon="12.8273967"><ele>162.0</ele><time>2026-04-06T10:17:35.994Z</time></trkpt><trkpt lat="43.8437833" lon="12.8274067"><ele>163.0</ele><time>2026-04-06T10:17:36.994Z</time></trkpt><trkpt lat="43.8436267" lon="12.8274033"><ele>163.0</ele><time>2026-04-06T10:17:37.994Z</time></trkpt><trkpt lat="43.843485" lon="12.82738"><ele>163.0</ele><time>2026-04-06T10:17:38.994Z</time></trkpt><trkpt lat="43.8433467" lon="12.8273617"><ele>163.0</ele><time>2026-04-06T10:17:39.994Z</time></trkpt><trkpt lat="43.843205" lon="12.82735"><ele>163.0</ele><time>2026-04-06T10:17:40.994Z</time></trkpt><trkpt lat="43.8430467" lon="12.8273483"><ele>164.75</ele><time>2026-04-06T10:17:41.994Z</time></trkpt><trkpt lat="43.8428983" lon="12.8273367"><ele>166.5</ele><time>2026-04-06T10:17:42.994Z</time></trkpt><trkpt lat="43.8427667" lon="12.82732"><ele>168.25</ele><time>2026-04-06T10:17:43.994Z</time></trkpt><trkpt lat="43.8426617" lon="12.8272967"><ele>170.0</ele><time>2026-04-06T10:17:44.994Z</time></trkpt><trkpt lat="43.84258" lon="12.8272767"><ele>170.4</ele><time>2026-04-06T10:17:45.994Z</time></trkpt><trkpt lat="43.842515" lon="12.8272617"><ele>170.8</ele><time>2026-04-06T10:17:46.994Z</time></trkpt><trkpt lat="43.8424233" lon="12.8272817"><ele>171.2</ele><time>2026-04-06T10:17:48.994Z</time></trkpt><trkpt lat="43.8423967" lon="12.8273833"><ele>171.6</ele><time>2026-04-06T10:17:50.994Z</time></trkpt><trkpt lat="43.842495" lon="12.8275233"><ele>172.0</ele><time>2026-04-06T10:17:52.994Z</time></trkpt><trkpt lat="43.8426083" lon="12.8276117"><ele>172.33333333333334</ele><time>2026-04-06T10:17:53.994Z</time></trkpt><trkpt lat="43.8427717" lon="12.827715"><ele>172.66666666666666</ele><time>2026-04-06T10:17:54.994Z</time></trkpt><trkpt lat="43.8429667" lon="12.8278517"><ele>173.0</ele><time>2026-04-06T10:17:55.994Z</time></trkpt><trkpt lat="43.84316" lon="12.8280133"><ele>173.0</ele><time>2026-04-06T10:17:56.994Z</time></trkpt><trkpt lat="43.8433117" lon="12.8282033"><ele>173.0</ele><time>2026-04-06T10:17:57.994Z</time></trkpt><trkpt lat="43.843435" lon="12.828435"><ele>173.0</ele><time>2026-04-06T10:17:58.994Z</time></trkpt><trkpt lat="43.8435283" lon="12.8287267"><ele>174.33333333333331</ele><time>2026-04-06T10:17:59.994Z</time></trkpt><trkpt lat="43.8436033" lon="12.8290183"><ele>175.66666666666666</ele><time>2026-04-06T10:18:00.994Z</time></trkpt><trkpt lat="43.8436717" lon="12.8293033"><ele>177.0</ele><time>2026-04-06T10:18:01.994Z</time></trkpt><trkpt lat="43.8437417" lon="12.829565"><ele>177.0</ele><time>2026-04-06T10:18:02.994Z</time></trkpt><trkpt lat="43.843815" lon="12.82982"><ele>177.0</ele><time>2026-04-06T10:18:03.994Z</time></trkpt><trkpt lat="43.8438833" lon="12.830065"><ele>177.0</ele><time>2026-04-06T10:18:04.994Z</time></trkpt><trkpt lat="43.8439517" lon="12.8303117"><ele>177.66666666666666</ele><time>2026-04-06T10:18:05.994Z</time></trkpt><trkpt lat="43.8440133" lon="12.8305533"><ele>178.33333333333331</ele><time>2026-04-06T10:18:06.994Z</time></trkpt><trkpt lat="43.8440817" lon="12.8307533"><ele>179.0</ele><time>2026-04-06T10:18:07.994Z</time></trkpt><trkpt lat="43.8441433" lon="12.8308917"><ele>178.39999999999998</ele><time>2026-04-06T10:18:08.994Z</time></trkpt><trkpt lat="43.8441967" lon="12.8309967"><ele>177.8</ele><time>2026-04-06T10:18:09.994Z</time></trkpt><trkpt lat="43.8442583" lon="12.8310883"><ele>177.2</ele><time>2026-04-06T10:18:10.994Z</time></trkpt><trkpt lat="43.8443333" lon="12.8311983"><ele>176.60000000000002</ele><time>2026-04-06T10:18:11.994Z</time></trkpt><trkpt lat="43.84443" lon="12.831315"><ele>176.0</ele><time>2026-04-06T10:18:12.994Z</time></trkpt><trkpt lat="43.8445417" lon="12.83146"><ele>174.0</ele><time>2026-04-06T10:18:13.994Z</time></trkpt><trkpt lat="43.84467" lon="12.8316317"><ele>172.0</ele><time>2026-04-06T10:18:14.994Z</time></trkpt><trkpt lat="43.844815" lon="12.831815"><ele>170.0</ele><time>2026-04-06T10:18:15.994Z</time></trkpt><trkpt lat="43.8449717" lon="12.8319683"><ele>168.33333333333331</ele><time>2026-04-06T10:18:16.994Z</time></trkpt><trkpt lat="43.8451583" lon="12.8321067"><ele>166.66666666666666</ele><time>2026-04-06T10:18:17.994Z</time></trkpt><trkpt lat="43.8453533" lon="12.832245"><ele>165.0</ele><time>2026-04-06T10:18:18.994Z</time></trkpt><trkpt lat="43.8455633" lon="12.832375"><ele>165.0</ele><time>2026-04-06T10:18:19.994Z</time></trkpt><trkpt lat="43.84577" lon="12.8325033"><ele>165.0</ele><time>2026-04-06T10:18:20.994Z</time></trkpt><trkpt lat="43.8459867" lon="12.8326433"><ele>162.5</ele><time>2026-04-06T10:18:21.994Z</time></trkpt><trkpt lat="43.846215" lon="12.8327967"><ele>160.0</ele><time>2026-04-06T10:18:22.994Z</time></trkpt><trkpt lat="43.8464433" lon="12.8329667"><ele>160.0</ele><time>2026-04-06T10:18:23.994Z</time></trkpt><trkpt lat="43.8466617" lon="12.8331367"><ele>160.0</ele><time>2026-04-06T10:18:24.994Z</time></trkpt><trkpt lat="43.84688" lon="12.83332"><ele>157.0</ele><time>2026-04-06T10:18:25.994Z</time></trkpt><trkpt lat="43.8470917" lon="12.833495"><ele>154.0</ele><time>2026-04-06T10:18:26.994Z</time></trkpt><trkpt lat="43.8473" lon="12.8336633"><ele>154.0</ele><time>2026-04-06T10:18:27.994Z</time></trkpt><trkpt lat="43.8475183" lon="12.8338217"><ele>154.0</ele><time>2026-04-06T10:18:28.994Z</time></trkpt><trkpt lat="43.8477183" lon="12.83399"><ele>153.5</ele><time>2026-04-06T10:18:29.994Z</time></trkpt><trkpt lat="43.8479067" lon="12.8341533"><ele>153.0</ele><time>2026-04-06T10:18:30.994Z</time></trkpt><trkpt lat="43.8481067" lon="12.834305"><ele>152.0</ele><time>2026-04-06T10:18:31.994Z</time></trkpt><trkpt lat="43.848305" lon="12.8344533"><ele>151.0</ele><time>2026-04-06T10:18:32.994Z</time></trkpt><trkpt lat="43.8485067" lon="12.8345933"><ele>151.0</ele><time>2026-04-06T10:18:33.994Z</time></trkpt><trkpt lat="43.8487183" lon="12.834705"><ele>151.0</ele><time>2026-04-06T10:18:34.994Z</time></trkpt><trkpt lat="43.848945" lon="12.8347983"><ele>151.0</ele><time>2026-04-06T10:18:35.994Z</time></trkpt><trkpt lat="43.8491667" lon="12.8348917"><ele>151.0</ele><time>2026-04-06T10:18:36.994Z</time></trkpt><trkpt lat="43.8493883" lon="12.8349967"><ele>150.0</ele><time>2026-04-06T10:18:37.994Z</time></trkpt><trkpt lat="43.849605" lon="12.8350983"><ele>149.0</ele><time>2026-04-06T10:18:38.994Z</time></trkpt><trkpt lat="43.8498117" lon="12.8351983"><ele>148.0</ele><time>2026-04-06T10:18:39.994Z</time></trkpt><trkpt lat="43.8499867" lon="12.8353"><ele>146.0</ele><time>2026-04-06T10:18:40.994Z</time></trkpt><trkpt lat="43.850155" lon="12.8353983"><ele>144.0</ele><time>2026-04-06T10:18:41.994Z</time></trkpt><trkpt lat="43.85032" lon="12.8355267"><ele>142.0</ele><time>2026-04-06T10:18:42.994Z</time></trkpt><trkpt lat="43.8504533" lon="12.8356883"><ele>142.0</ele><time>2026-04-06T10:18:43.994Z</time></trkpt><trkpt lat="43.8505817" lon="12.8358917"><ele>142.0</ele><time>2026-04-06T10:18:44.994Z</time></trkpt><trkpt lat="43.8507083" lon="12.8361183"><ele>142.0</ele><time>2026-04-06T10:18:45.994Z</time></trkpt><trkpt lat="43.8508417" lon="12.836355"><ele>142.5</ele><time>2026-04-06T10:18:46.994Z</time></trkpt><trkpt lat="43.8509983" lon="12.836585"><ele>143.0</ele><time>2026-04-06T10:18:47.994Z</time></trkpt><trkpt lat="43.851165" lon="12.836805"><ele>140.0</ele><time>2026-04-06T10:18:48.994Z</time></trkpt><trkpt lat="43.8513517" lon="12.8370183"><ele>137.0</ele><time>2026-04-06T10:18:49.994Z</time></trkpt><trkpt lat="43.851545" lon="12.8372383"><ele>137.0</ele><time>2026-04-06T10:18:50.994Z</time></trkpt><trkpt lat="43.85172" lon="12.83745"><ele>137.0</ele><time>2026-04-06T10:18:51.994Z</time></trkpt><trkpt lat="43.85189" lon="12.837645"><ele>137.66666666666666</ele><time>2026-04-06T10:18:52.994Z</time></trkpt><trkpt lat="43.8520433" lon="12.83782"><ele>138.33333333333334</ele><time>2026-04-06T10:18:53.994Z</time></trkpt><trkpt lat="43.85218" lon="12.837975"><ele>139.0</ele><time>2026-04-06T10:18:54.994Z</time></trkpt><trkpt lat="43.8523017" lon="12.83814"><ele>139.0</ele><time>2026-04-06T10:18:55.994Z</time></trkpt><trkpt lat="43.8524017" lon="12.83834"><ele>139.0</ele><time>2026-04-06T10:18:56.994Z</time></trkpt><trkpt lat="43.8524667" lon="12.8385583"><ele>139.0</ele><time>2026-04-06T10:18:57.994Z</time></trkpt><trkpt lat="43.8524983" lon="12.8388167"><ele>139.66666666666669</ele><time>2026-04-06T10:18:58.994Z</time></trkpt><trkpt lat="43.8525067" lon="12.8390983"><ele>140.33333333333334</ele><time>2026-04-06T10:18:59.994Z</time></trkpt><trkpt lat="43.8525233" lon="12.8393833"><ele>141.0</ele><time>2026-04-06T10:19:00.993Z</time></trkpt><trkpt lat="43.8525533" lon="12.8396683"><ele>141.0</ele><time>2026-04-06T10:19:01.994Z</time></trkpt><trkpt lat="43.852605" lon="12.839975"><ele>141.0</ele><time>2026-04-06T10:19:02.994Z</time></trkpt><trkpt lat="43.8526833" lon="12.8402783"><ele>144.5</ele><time>2026-04-06T10:19:03.994Z</time></trkpt><trkpt lat="43.8527817" lon="12.8405933"><ele>148.0</ele><time>2026-04-06T10:19:04.994Z</time></trkpt><trkpt lat="43.8528767" lon="12.84089"><ele>146.0</ele><time>2026-04-06T10:19:05.994Z</time></trkpt><trkpt lat="43.852955" lon="12.84116"><ele>144.0</ele><time>2026-04-06T10:19:06.994Z</time></trkpt><trkpt lat="43.8530233" lon="12.8414033"><ele>142.0</ele><time>2026-04-06T10:19:07.994Z</time></trkpt><trkpt lat="43.85307" lon="12.8416317"><ele>141.33333333333334</ele><time>2026-04-06T10:19:08.994Z</time></trkpt><trkpt lat="43.8530883" lon="12.8418667"><ele>140.66666666666666</ele><time>2026-04-06T10:19:09.994Z</time></trkpt><trkpt lat="43.8530767" lon="12.842095"><ele>140.0</ele><time>2026-04-06T10:19:10.994Z</time></trkpt><trkpt lat="43.8530383" lon="12.84235"><ele>139.33333333333331</ele><time>2026-04-06T10:19:11.994Z</time></trkpt><trkpt lat="43.8529933" lon="12.8426383"><ele>138.66666666666666</ele><time>2026-04-06T10:19:12.994Z</time></trkpt><trkpt lat="43.8529417" lon="12.84294"><ele>138.0</ele><time>2026-04-06T10:19:13.994Z</time></trkpt><trkpt lat="43.8528917" lon="12.8432517"><ele>136.0</ele><time>2026-04-06T10:19:14.994Z</time></trkpt><trkpt lat="43.852845" lon="12.84356"><ele>134.0</ele><time>2026-04-06T10:19:15.994Z</time></trkpt><trkpt lat="43.852795" lon="12.8438767"><ele>134.0</ele><time>2026-04-06T10:19:16.994Z</time></trkpt><trkpt lat="43.85275" lon="12.8442033"><ele>134.0</ele><time>2026-04-06T10:19:17.994Z</time></trkpt><trkpt lat="43.8527" lon="12.8445217"><ele>133.0</ele><time>2026-04-06T10:19:18.994Z</time></trkpt><trkpt lat="43.8526583" lon="12.8448233"><ele>132.0</ele><time>2026-04-06T10:19:19.994Z</time></trkpt><trkpt lat="43.8526217" lon="12.8451133"><ele>131.0</ele><time>2026-04-06T10:19:20.994Z</time></trkpt><trkpt lat="43.8526" lon="12.8453867"><ele>135.66666666666666</ele><time>2026-04-06T10:19:21.994Z</time></trkpt><trkpt lat="43.852585" lon="12.84566"><ele>140.33333333333334</ele><time>2026-04-06T10:19:22.994Z</time></trkpt><trkpt lat="43.8525833" lon="12.845935"><ele>145.0</ele><time>2026-04-06T10:19:23.994Z</time></trkpt><trkpt lat="43.85259" lon="12.846215"><ele>145.33333333333334</ele><time>2026-04-06T10:19:24.994Z</time></trkpt><trkpt lat="43.852595" lon="12.8464983"><ele>145.66666666666666</ele><time>2026-04-06T10:19:25.994Z</time></trkpt><trkpt lat="43.8526033" lon="12.846785"><ele>146.0</ele><time>2026-04-06T10:19:26.994Z</time></trkpt><trkpt lat="43.8526067" lon="12.8470717"><ele>146.66666666666666</ele><time>2026-04-06T10:19:27.994Z</time></trkpt><trkpt lat="43.8526167" lon="12.8473567"><ele>147.33333333333334</ele><time>2026-04-06T10:19:28.994Z</time></trkpt><trkpt lat="43.8526167" lon="12.8476383"><ele>148.0</ele><time>2026-04-06T10:19:29.994Z</time></trkpt><trkpt lat="43.8526117" lon="12.8479367"><ele>148.33333333333334</ele><time>2026-04-06T10:19:30.994Z</time></trkpt><trkpt lat="43.8526067" lon="12.84823"><ele>148.66666666666666</ele><time>2026-04-06T10:19:31.994Z</time></trkpt><trkpt lat="43.852605" lon="12.84852"><ele>149.0</ele><time>2026-04-06T10:19:32.994Z</time></trkpt><trkpt lat="43.8525983" lon="12.8488083"><ele>149.0</ele><time>2026-04-06T10:19:33.994Z</time></trkpt><trkpt lat="43.8525867" lon="12.849095"><ele>149.0</ele><time>2026-04-06T10:19:34.994Z</time></trkpt><trkpt lat="43.85257" lon="12.8493883"><ele>149.0</ele><time>2026-04-06T10:19:35.994Z</time></trkpt><trkpt lat="43.8525567" lon="12.8496817"><ele>149.0</ele><time>2026-04-06T10:19:36.993Z</time></trkpt><trkpt lat="43.852545" lon="12.8499883"><ele>149.0</ele><time>2026-04-06T10:19:37.994Z</time></trkpt><trkpt lat="43.8525317" lon="12.8502833"><ele>149.0</ele><time>2026-04-06T10:19:38.994Z</time></trkpt><trkpt lat="43.852525" lon="12.850585"><ele>148.66666666666666</ele><time>2026-04-06T10:19:39.994Z</time></trkpt><trkpt lat="43.852515" lon="12.8508867"><ele>148.33333333333334</ele><time>2026-04-06T10:19:40.994Z</time></trkpt><trkpt lat="43.8525117" lon="12.8511917"><ele>148.0</ele><time>2026-04-06T10:19:41.993Z</time></trkpt><trkpt lat="43.8525083" lon="12.8515033"><ele>148.0</ele><time>2026-04-06T10:19:42.993Z</time></trkpt><trkpt lat="43.8525067" lon="12.8518283"><ele>148.0</ele><time>2026-04-06T10:19:43.993Z</time></trkpt><trkpt lat="43.85251" lon="12.852145"><ele>148.0</ele><time>2026-04-06T10:19:44.993Z</time></trkpt><trkpt lat="43.8525167" lon="12.8524417"><ele>148.0</ele><time>2026-04-06T10:19:45.993Z</time></trkpt><trkpt lat="43.8525217" lon="12.8527167"><ele>148.0</ele><time>2026-04-06T10:19:46.993Z</time></trkpt><trkpt lat="43.852535" lon="12.852975"><ele>148.33333333333334</ele><time>2026-04-06T10:19:47.993Z</time></trkpt><trkpt lat="43.8525767" lon="12.8532333"><ele>148.66666666666666</ele><time>2026-04-06T10:19:48.993Z</time></trkpt><trkpt lat="43.8526367" lon="12.8534883"><ele>149.0</ele><time>2026-04-06T10:19:49.993Z</time></trkpt><trkpt lat="43.8527117" lon="12.8537433"><ele>149.0</ele><time>2026-04-06T10:19:50.993Z</time></trkpt><trkpt lat="43.8527967" lon="12.854005"><ele>149.0</ele><time>2026-04-06T10:19:51.993Z</time></trkpt><trkpt lat="43.8528767" lon="12.8542667"><ele>149.0</ele><time>2026-04-06T10:19:52.993Z</time></trkpt><trkpt lat="43.8529567" lon="12.8545383"><ele>151.66666666666666</ele><time>2026-04-06T10:19:53.993Z</time></trkpt><trkpt lat="43.85304" lon="12.85481"><ele>154.33333333333334</ele><time>2026-04-06T10:19:54.993Z</time></trkpt><trkpt lat="43.853125" lon="12.8550733"><ele>157.0</ele><time>2026-04-06T10:19:55.993Z</time></trkpt><trkpt lat="43.8532067" lon="12.8553267"><ele>157.33333333333334</ele><time>2026-04-06T10:19:56.993Z</time></trkpt><trkpt lat="43.8532833" lon="12.8555783"><ele>157.66666666666666</ele><time>2026-04-06T10:19:57.993Z</time></trkpt><trkpt lat="43.8533733" lon="12.8558233"><ele>158.0</ele><time>2026-04-06T10:19:58.993Z</time></trkpt><trkpt lat="43.8534683" lon="12.8560667"><ele>158.0</ele><time>2026-04-06T10:19:59.993Z</time></trkpt><trkpt lat="43.8535833" lon="12.8563133"><ele>158.0</ele><time>2026-04-06T10:20:00.993Z</time></trkpt><trkpt lat="43.8537" lon="12.8565533"><ele>158.0</ele><time>2026-04-06T10:20:01.993Z</time></trkpt><trkpt lat="43.8538183" lon="12.8567733"><ele>159.0</ele><time>2026-04-06T10:20:02.993Z</time></trkpt><trkpt lat="43.85393" lon="12.85698"><ele>160.0</ele><time>2026-04-06T10:20:03.993Z</time></trkpt><trkpt lat="43.854035" lon="12.8571633"><ele>161.0</ele><time>2026-04-06T10:20:04.993Z</time></trkpt><trkpt lat="43.854135" lon="12.85735"><ele>161.0</ele><time>2026-04-06T10:20:05.993Z</time></trkpt><trkpt lat="43.8542317" lon="12.8575517"><ele>161.0</ele><time>2026-04-06T10:20:06.993Z</time></trkpt><trkpt lat="43.8543367" lon="12.85777"><ele>161.0</ele><time>2026-04-06T10:20:07.993Z</time></trkpt><trkpt lat="43.8544317" lon="12.8579933"><ele>161.33333333333331</ele><time>2026-04-06T10:20:08.993Z</time></trkpt><trkpt lat="43.8545217" lon="12.8582283"><ele>161.66666666666666</ele><time>2026-04-06T10:20:09.993Z</time></trkpt><trkpt lat="43.854615" lon="12.85846"><ele>162.0</ele><time>2026-04-06T10:20:10.993Z</time></trkpt><trkpt lat="43.854705" lon="12.858695"><ele>162.0</ele><time>2026-04-06T10:20:11.993Z</time></trkpt><trkpt lat="43.8548" lon="12.858935"><ele>162.0</ele><time>2026-04-06T10:20:12.993Z</time></trkpt><trkpt lat="43.854895" lon="12.8591683"><ele>162.0</ele><time>2026-04-06T10:20:13.993Z</time></trkpt><trkpt lat="43.854995" lon="12.8593933"><ele>161.33333333333334</ele><time>2026-04-06T10:20:14.993Z</time></trkpt><trkpt lat="43.8550967" lon="12.85961"><ele>160.66666666666669</ele><time>2026-04-06T10:20:15.993Z</time></trkpt><trkpt lat="43.8551983" lon="12.8598067"><ele>160.0</ele><time>2026-04-06T10:20:16.993Z</time></trkpt><trkpt lat="43.85528" lon="12.8599983"><ele>160.0</ele><time>2026-04-06T10:20:17.993Z</time></trkpt><trkpt lat="43.855335" lon="12.8601917"><ele>160.0</ele><time>2026-04-06T10:20:18.993Z</time></trkpt><trkpt lat="43.8553683" lon="12.8604083"><ele>160.0</ele><time>2026-04-06T10:20:19.993Z</time></trkpt><trkpt lat="43.8553783" lon="12.86064"><ele>160.0</ele><time>2026-04-06T10:20:20.993Z</time></trkpt><trkpt lat="43.8553717" lon="12.860905"><ele>160.0</ele><time>2026-04-06T10:20:21.993Z</time></trkpt><trkpt lat="43.85537" lon="12.8611783"><ele>160.0</ele><time>2026-04-06T10:20:22.993Z</time></trkpt><trkpt lat="43.8553633" lon="12.86148"><ele>158.66666666666669</ele><time>2026-04-06T10:20:23.993Z</time></trkpt><trkpt lat="43.8553583" lon="12.8617933"><ele>157.33333333333334</ele><time>2026-04-06T10:20:24.993Z</time></trkpt><trkpt lat="43.8553517" lon="12.8620983"><ele>156.0</ele><time>2026-04-06T10:20:25.993Z</time></trkpt><trkpt lat="43.8553433" lon="12.8623983"><ele>155.5</ele><time>2026-04-06T10:20:26.993Z</time></trkpt><trkpt lat="43.8553233" lon="12.8627117"><ele>155.0</ele><time>2026-04-06T10:20:27.993Z</time></trkpt><trkpt lat="43.8552967" lon="12.8630283"><ele>155.0</ele><time>2026-04-06T10:20:28.993Z</time></trkpt><trkpt lat="43.85528" lon="12.86335"><ele>155.0</ele><time>2026-04-06T10:20:29.993Z</time></trkpt><trkpt lat="43.85526" lon="12.8636883"><ele>151.0</ele><time>2026-04-06T10:20:30.993Z</time></trkpt><trkpt lat="43.855235" lon="12.8640317"><ele>147.0</ele><time>2026-04-06T10:20:31.993Z</time></trkpt><trkpt lat="43.8552067" lon="12.86437"><ele>144.5</ele><time>2026-04-06T10:20:32.993Z</time></trkpt><trkpt lat="43.8551733" lon="12.864695"><ele>142.0</ele><time>2026-04-06T10:20:33.993Z</time></trkpt><trkpt lat="43.8551367" lon="12.8650183"><ele>146.66666666666669</ele><time>2026-04-06T10:20:34.993Z</time></trkpt><trkpt lat="43.8551" lon="12.8653333"><ele>151.33333333333334</ele><time>2026-04-06T10:20:35.993Z</time></trkpt><trkpt lat="43.8550583" lon="12.8656217"><ele>156.0</ele><time>2026-04-06T10:20:36.993Z</time></trkpt><trkpt lat="43.8550217" lon="12.8659"><ele>155.66666666666666</ele><time>2026-04-06T10:20:37.993Z</time></trkpt><trkpt lat="43.85499" lon="12.866185"><ele>155.33333333333331</ele><time>2026-04-06T10:20:38.993Z</time></trkpt><trkpt lat="43.8549633" lon="12.8664867"><ele>155.0</ele><time>2026-04-06T10:20:39.993Z</time></trkpt><trkpt lat="43.8549517" lon="12.8667933"><ele>154.66666666666666</ele><time>2026-04-06T10:20:40.993Z</time></trkpt><trkpt lat="43.8549433" lon="12.8671033"><ele>154.33333333333334</ele><time>2026-04-06T10:20:41.993Z</time></trkpt><trkpt lat="43.8549383" lon="12.8674083"><ele>154.0</ele><time>2026-04-06T10:20:42.993Z</time></trkpt><trkpt lat="43.8549267" lon="12.86769"><ele>154.0</ele><time>2026-04-06T10:20:43.993Z</time></trkpt><trkpt lat="43.8549217" lon="12.8679833"><ele>154.0</ele><time>2026-04-06T10:20:44.993Z</time></trkpt><trkpt lat="43.85493" lon="12.8682717"><ele>154.0</ele><time>2026-04-06T10:20:45.993Z</time></trkpt><trkpt lat="43.8549567" lon="12.8685717"><ele>153.66666666666669</ele><time>2026-04-06T10:20:46.993Z</time></trkpt><trkpt lat="43.8549833" lon="12.8688767"><ele>153.33333333333334</ele><time>2026-04-06T10:20:47.993Z</time></trkpt><trkpt lat="43.8550233" lon="12.8691717"><ele>153.0</ele><time>2026-04-06T10:20:48.993Z</time></trkpt><trkpt lat="43.8550717" lon="12.8694717"><ele>151.0</ele><time>2026-04-06T10:20:49.993Z</time></trkpt><trkpt lat="43.8551217" lon="12.8697633"><ele>149.0</ele><time>2026-04-06T10:20:50.993Z</time></trkpt><trkpt lat="43.8551717" lon="12.8700367"><ele>147.0</ele><time>2026-04-06T10:20:51.993Z</time></trkpt><trkpt lat="43.8552183" lon="12.8703117"><ele>147.0</ele><time>2026-04-06T10:20:52.993Z</time></trkpt><trkpt lat="43.85527" lon="12.8705883"><ele>147.0</ele><time>2026-04-06T10:20:53.993Z</time></trkpt><trkpt lat="43.8553183" lon="12.8708617"><ele>147.0</ele><time>2026-04-06T10:20:54.993Z</time></trkpt><trkpt lat="43.8553617" lon="12.8711317"><ele>148.0</ele><time>2026-04-06T10:20:55.993Z</time></trkpt><trkpt lat="43.8554083" lon="12.8713883"><ele>149.0</ele><time>2026-04-06T10:20:56.993Z</time></trkpt><trkpt lat="43.8554583" lon="12.8716567"><ele>150.0</ele><time>2026-04-06T10:20:57.993Z</time></trkpt><trkpt lat="43.8555267" lon="12.8719217"><ele>150.66666666666666</ele><time>2026-04-06T10:20:58.993Z</time></trkpt><trkpt lat="43.85561" lon="12.872185"><ele>151.33333333333331</ele><time>2026-04-06T10:20:59.993Z</time></trkpt><trkpt lat="43.8556967" lon="12.8724283"><ele>152.0</ele><time>2026-04-06T10:21:00.993Z</time></trkpt><trkpt lat="43.8557783" lon="12.8726667"><ele>152.0</ele><time>2026-04-06T10:21:01.993Z</time></trkpt><trkpt lat="43.8558633" lon="12.8728883"><ele>152.0</ele><time>2026-04-06T10:21:02.993Z</time></trkpt><trkpt lat="43.8559533" lon="12.8731"><ele>152.0</ele><time>2026-04-06T10:21:03.993Z</time></trkpt><trkpt lat="43.856065" lon="12.8732933"><ele>149.66666666666666</ele><time>2026-04-06T10:21:04.993Z</time></trkpt><trkpt lat="43.85618" lon="12.8734933"><ele>147.33333333333334</ele><time>2026-04-06T10:21:05.993Z</time></trkpt><trkpt lat="43.8563067" lon="12.873695"><ele>145.0</ele><time>2026-04-06T10:21:06.993Z</time></trkpt><trkpt lat="43.8564567" lon="12.8739033"><ele>145.0</ele><time>2026-04-06T10:21:07.993Z</time></trkpt><trkpt lat="43.856605" lon="12.8741133"><ele>145.0</ele><time>2026-04-06T10:21:08.993Z</time></trkpt><trkpt lat="43.8567433" lon="12.8743017"><ele>145.0</ele><time>2026-04-06T10:21:09.993Z</time></trkpt><trkpt lat="43.856865" lon="12.8744783"><ele>143.25</ele><time>2026-04-06T10:21:10.993Z</time></trkpt><trkpt lat="43.8569867" lon="12.8746317"><ele>141.5</ele><time>2026-04-06T10:21:11.993Z</time></trkpt><trkpt lat="43.8570917" lon="12.874775"><ele>139.75</ele><time>2026-04-06T10:21:12.993Z</time></trkpt><trkpt lat="43.8571867" lon="12.874905"><ele>138.0</ele><time>2026-04-06T10:21:13.993Z</time></trkpt><trkpt lat="43.8572567" lon="12.8750283"><ele>137.4</ele><time>2026-04-06T10:21:14.993Z</time></trkpt><trkpt lat="43.857305" lon="12.8751467"><ele>136.8</ele><time>2026-04-06T10:21:15.993Z</time></trkpt><trkpt lat="43.8573183" lon="12.8752667"><ele>136.2</ele><time>2026-04-06T10:21:16.993Z</time></trkpt><trkpt lat="43.857305" lon="12.8754017"><ele>135.6</ele><time>2026-04-06T10:21:17.993Z</time></trkpt><trkpt lat="43.8572733" lon="12.8755333"><ele>135.0</ele><time>2026-04-06T10:21:18.993Z</time></trkpt><trkpt lat="43.8572333" lon="12.87565"><ele>135.0</ele><time>2026-04-06T10:21:19.993Z</time></trkpt><trkpt lat="43.8572017" lon="12.8757533"><ele>135.0</ele><time>2026-04-06T10:21:20.993Z</time></trkpt><trkpt lat="43.85717" lon="12.87583"><ele>135.0</ele><time>2026-04-06T10:21:21.993Z</time></trkpt><trkpt lat="43.8571117" lon="12.87592"><ele>135.0</ele><time>2026-04-06T10:21:23.993Z</time></trkpt><trkpt lat="43.8569717" lon="12.87603"><ele>135.0</ele><time>2026-04-06T10:21:25.993Z</time></trkpt><trkpt lat="43.8568667" lon="12.8761"><ele>136.0</ele><time>2026-04-06T10:21:26.993Z</time></trkpt><trkpt lat="43.8567367" lon="12.8761983"><ele>137.0</ele><time>2026-04-06T10:21:27.993Z</time></trkpt><trkpt lat="43.85659" lon="12.8763033"><ele>138.0</ele><time>2026-04-06T10:21:28.993Z</time></trkpt><trkpt lat="43.8564183" lon="12.8764233"><ele>138.0</ele><time>2026-04-06T10:21:29.993Z</time></trkpt><trkpt lat="43.856235" lon="12.87656"><ele>138.0</ele><time>2026-04-06T10:21:30.993Z</time></trkpt><trkpt lat="43.8560417" lon="12.8767033"><ele>138.0</ele><time>2026-04-06T10:21:31.993Z</time></trkpt><trkpt lat="43.8558383" lon="12.8768667"><ele>136.5</ele><time>2026-04-06T10:21:32.993Z</time></trkpt><trkpt lat="43.8556317" lon="12.877045"><ele>135.0</ele><time>2026-04-06T10:21:33.993Z</time></trkpt><trkpt lat="43.85542" lon="12.877265"><ele>135.0</ele><time>2026-04-06T10:21:34.993Z</time></trkpt><trkpt lat="43.85522" lon="12.8774967"><ele>135.0</ele><time>2026-04-06T10:21:35.993Z</time></trkpt><trkpt lat="43.8550267" lon="12.87774"><ele>132.0</ele><time>2026-04-06T10:21:36.993Z</time></trkpt><trkpt lat="43.8548217" lon="12.8779983"><ele>129.0</ele><time>2026-04-06T10:21:37.993Z</time></trkpt><trkpt lat="43.8546" lon="12.8782467"><ele>128.5</ele><time>2026-04-06T10:21:38.993Z</time></trkpt><trkpt lat="43.8543983" lon="12.878475"><ele>128.0</ele><time>2026-04-06T10:21:39.993Z</time></trkpt><trkpt lat="43.8542017" lon="12.878695"><ele>126.0</ele><time>2026-04-06T10:21:40.993Z</time></trkpt><trkpt lat="43.8540167" lon="12.8789133"><ele>124.0</ele><time>2026-04-06T10:21:41.993Z</time></trkpt><trkpt lat="43.8538417" lon="12.8791217"><ele>122.66666666666667</ele><time>2026-04-06T10:21:42.993Z</time></trkpt><trkpt lat="43.85367" lon="12.879315"><ele>121.33333333333334</ele><time>2026-04-06T10:21:43.993Z</time></trkpt><trkpt lat="43.85351" lon="12.8794967"><ele>120.0</ele><time>2026-04-06T10:21:44.993Z</time></trkpt><trkpt lat="43.853345" lon="12.879655"><ele>118.66666666666666</ele><time>2026-04-06T10:21:45.993Z</time></trkpt><trkpt lat="43.853165" lon="12.8797867"><ele>117.33333333333333</ele><time>2026-04-06T10:21:46.993Z</time></trkpt><trkpt lat="43.8529683" lon="12.8798833"><ele>116.0</ele><time>2026-04-06T10:21:47.993Z</time></trkpt><trkpt lat="43.852745" lon="12.879955"><ele>114.33333333333333</ele><time>2026-04-06T10:21:48.993Z</time></trkpt><trkpt lat="43.8525283" lon="12.880005"><ele>112.66666666666666</ele><time>2026-04-06T10:21:49.993Z</time></trkpt><trkpt lat="43.852325" lon="12.8800517"><ele>111.0</ele><time>2026-04-06T10:21:50.993Z</time></trkpt><trkpt lat="43.8521417" lon="12.8801083"><ele>109.0</ele><time>2026-04-06T10:21:51.993Z</time></trkpt><trkpt lat="43.8519817" lon="12.88015"><ele>107.0</ele><time>2026-04-06T10:21:52.993Z</time></trkpt><trkpt lat="43.85185" lon="12.8801817"><ele>105.0</ele><time>2026-04-06T10:21:53.993Z</time></trkpt><trkpt lat="43.8517367" lon="12.880225"><ele>103.0</ele><time>2026-04-06T10:21:54.993Z</time></trkpt><trkpt lat="43.851645" lon="12.8803017"><ele>102.25</ele><time>2026-04-06T10:21:55.993Z</time></trkpt><trkpt lat="43.8515667" lon="12.880415"><ele>101.5</ele><time>2026-04-06T10:21:56.993Z</time></trkpt><trkpt lat="43.8515217" lon="12.88056"><ele>100.75</ele><time>2026-04-06T10:21:57.993Z</time></trkpt><trkpt lat="43.8514967" lon="12.88073"><ele>100.0</ele><time>2026-04-06T10:21:58.993Z</time></trkpt><trkpt lat="43.8515433" lon="12.8808783"><ele>98.5</ele><time>2026-04-06T10:21:59.993Z</time></trkpt><trkpt lat="43.8516167" lon="12.8810167"><ele>97.0</ele><time>2026-04-06T10:22:00.993Z</time></trkpt><trkpt lat="43.851705" lon="12.88111"><ele>95.5</ele><time>2026-04-06T10:22:01.993Z</time></trkpt><trkpt lat="43.8518117" lon="12.8811667"><ele>94.0</ele><time>2026-04-06T10:22:02.993Z</time></trkpt><trkpt lat="43.8519617" lon="12.881165"><ele>94.0</ele><time>2026-04-06T10:22:03.993Z</time></trkpt><trkpt lat="43.8521533" lon="12.88115"><ele>94.0</ele><time>2026-04-06T10:22:04.993Z</time></trkpt><trkpt lat="43.8523583" lon="12.8811567"><ele>94.0</ele><time>2026-04-06T10:22:05.993Z</time></trkpt><trkpt lat="43.8525367" lon="12.8811683"><ele>94.0</ele><time>2026-04-06T10:22:06.993Z</time></trkpt><trkpt lat="43.852685" lon="12.881185"><ele>94.0</ele><time>2026-04-06T10:22:07.993Z</time></trkpt><trkpt lat="43.8528033" lon="12.88121"><ele>94.0</ele><time>2026-04-06T10:22:08.993Z</time></trkpt><trkpt lat="43.8528867" lon="12.8812483"><ele>94.0</ele><time>2026-04-06T10:22:09.993Z</time></trkpt><trkpt lat="43.8529433" lon="12.8813233"><ele>94.0</ele><time>2026-04-06T10:22:10.993Z</time></trkpt><trkpt lat="43.8529683" lon="12.88141"><ele>94.0</ele><time>2026-04-06T10:22:11.993Z</time></trkpt><trkpt lat="43.852965" lon="12.8814983"><ele>94.0</ele><time>2026-04-06T10:22:12.993Z</time></trkpt><trkpt lat="43.852845" lon="12.881595"><ele>94.0</ele><time>2026-04-06T10:22:14.992Z</time></trkpt><trkpt lat="43.8527117" lon="12.8815983"><ele>94.0</ele><time>2026-04-06T10:22:15.993Z</time></trkpt><trkpt lat="43.8525333" lon="12.8815833"><ele>94.0</ele><time>2026-04-06T10:22:16.993Z</time></trkpt><trkpt lat="43.85232" lon="12.8815583"><ele>94.0</ele><time>2026-04-06T10:22:17.993Z</time></trkpt><trkpt lat="43.8520667" lon="12.8815733"><ele>94.0</ele><time>2026-04-06T10:22:18.993Z</time></trkpt><trkpt lat="43.851795" lon="12.8816217"><ele>94.0</ele><time>2026-04-06T10:22:19.993Z</time></trkpt><trkpt lat="43.8515467" lon="12.8816667"><ele>93.0</ele><time>2026-04-06T10:22:20.993Z</time></trkpt><trkpt lat="43.851335" lon="12.881695"><ele>92.0</ele><time>2026-04-06T10:22:21.993Z</time></trkpt><trkpt lat="43.8511583" lon="12.8816767"><ele>91.0</ele><time>2026-04-06T10:22:22.993Z</time></trkpt><trkpt lat="43.8509833" lon="12.8816233"><ele>88.33333333333333</ele><time>2026-04-06T10:22:23.993Z</time></trkpt><trkpt lat="43.8508283" lon="12.8815"><ele>85.66666666666667</ele><time>2026-04-06T10:22:24.993Z</time></trkpt><trkpt lat="43.8506833" lon="12.8813817"><ele>83.0</ele><time>2026-04-06T10:22:25.993Z</time></trkpt><trkpt lat="43.8505467" lon="12.8812733"><ele>83.0</ele><time>2026-04-06T10:22:26.993Z</time></trkpt><trkpt lat="43.8504133" lon="12.88117"><ele>83.0</ele><time>2026-04-06T10:22:27.993Z</time></trkpt><trkpt lat="43.850295" lon="12.8810867"><ele>83.0</ele><time>2026-04-06T10:22:28.993Z</time></trkpt><trkpt lat="43.8501733" lon="12.8810267"><ele>83.0</ele><time>2026-04-06T10:22:29.993Z</time></trkpt><trkpt lat="43.8500567" lon="12.88099"><ele>80.75</ele><time>2026-04-06T10:22:30.993Z</time></trkpt><trkpt lat="43.8499367" lon="12.8809917"><ele>78.5</ele><time>2026-04-06T10:22:31.993Z</time></trkpt><trkpt lat="43.849825" lon="12.8810167"><ele>76.25</ele><time>2026-04-06T10:22:32.993Z</time></trkpt><trkpt lat="43.8497183" lon="12.8810867"><ele>74.0</ele><time>2026-04-06T10:22:33.993Z</time></trkpt><trkpt lat="43.84962" lon="12.8811883"><ele>74.0</ele><time>2026-04-06T10:22:34.993Z</time></trkpt><trkpt lat="43.849535" lon="12.8813083"><ele>74.0</ele><time>2026-04-06T10:22:35.993Z</time></trkpt><trkpt lat="43.8494433" lon="12.881445"><ele>74.0</ele><time>2026-04-06T10:22:36.993Z</time></trkpt><trkpt lat="43.8493533" lon="12.8815817"><ele>74.0</ele><time>2026-04-06T10:22:37.993Z</time></trkpt><trkpt lat="43.8492567" lon="12.8817233"><ele>74.0</ele><time>2026-04-06T10:22:38.993Z</time></trkpt><trkpt lat="43.849155" lon="12.881865"><ele>74.0</ele><time>2026-04-06T10:22:39.993Z</time></trkpt><trkpt lat="43.8490567" lon="12.882005"><ele>74.0</ele><time>2026-04-06T10:22:40.993Z</time></trkpt><trkpt lat="43.8489667" lon="12.8821467"><ele>74.0</ele><time>2026-04-06T10:22:41.993Z</time></trkpt><trkpt lat="43.84888" lon="12.8822767"><ele>74.0</ele><time>2026-04-06T10:22:42.993Z</time></trkpt><trkpt lat="43.8487867" lon="12.88242"><ele>74.0</ele><time>2026-04-06T10:22:43.993Z</time></trkpt><trkpt lat="43.848695" lon="12.8825633"><ele>74.0</ele><time>2026-04-06T10:22:44.993Z</time></trkpt><trkpt lat="43.8485933" lon="12.8827133"><ele>74.0</ele><time>2026-04-06T10:22:45.993Z</time></trkpt><trkpt lat="43.8484833" lon="12.8828717"><ele>73.0</ele><time>2026-04-06T10:22:46.993Z</time></trkpt><trkpt lat="43.8483667" lon="12.8830367"><ele>72.0</ele><time>2026-04-06T10:22:47.993Z</time></trkpt><trkpt lat="43.8482567" lon="12.8832083"><ele>71.0</ele><time>2026-04-06T10:22:48.993Z</time></trkpt><trkpt lat="43.8481383" lon="12.8833817"><ele>71.33333333333334</ele><time>2026-04-06T10:22:49.993Z</time></trkpt><trkpt lat="43.8480283" lon="12.8835583"><ele>71.66666666666667</ele><time>2026-04-06T10:22:50.993Z</time></trkpt><trkpt lat="43.84792" lon="12.883735"><ele>72.0</ele><time>2026-04-06T10:22:51.993Z</time></trkpt><trkpt lat="43.8478067" lon="12.883895"><ele>72.0</ele><time>2026-04-06T10:22:52.993Z</time></trkpt><trkpt lat="43.8476967" lon="12.8840567"><ele>72.0</ele><time>2026-04-06T10:22:53.993Z</time></trkpt><trkpt lat="43.8475817" lon="12.8842267"><ele>72.0</ele><time>2026-04-06T10:22:54.993Z</time></trkpt><trkpt lat="43.8474667" lon="12.884395"><ele>71.66666666666667</ele><time>2026-04-06T10:22:55.993Z</time></trkpt><trkpt lat="43.847365" lon="12.8845583"><ele>71.33333333333334</ele><time>2026-04-06T10:22:56.993Z</time></trkpt><trkpt lat="43.8472633" lon="12.8847183"><ele>71.0</ele><time>2026-04-06T10:22:57.993Z</time></trkpt><trkpt lat="43.8471567" lon="12.8848817"><ele>71.0</ele><time>2026-04-06T10:22:58.993Z</time></trkpt><trkpt lat="43.84705" lon="12.8850567"><ele>71.0</ele><time>2026-04-06T10:22:59.993Z</time></trkpt><trkpt lat="43.8469367" lon="12.8852267"><ele>71.0</ele><time>2026-04-06T10:23:00.993Z</time></trkpt><trkpt lat="43.8468233" lon="12.885405"><ele>70.66666666666667</ele><time>2026-04-06T10:23:01.993Z</time></trkpt><trkpt lat="43.8467033" lon="12.8855783"><ele>70.33333333333333</ele><time>2026-04-06T10:23:02.992Z</time></trkpt><trkpt lat="43.8465817" lon="12.8857483"><ele>70.0</ele><time>2026-04-06T10:23:03.993Z</time></trkpt><trkpt lat="43.8464483" lon="12.88591"><ele>71.33333333333333</ele><time>2026-04-06T10:23:04.993Z</time></trkpt><trkpt lat="43.846315" lon="12.886065"><ele>72.66666666666667</ele><time>2026-04-06T10:23:05.993Z</time></trkpt><trkpt lat="43.8461767" lon="12.886215"><ele>74.0</ele><time>2026-04-06T10:23:06.993Z</time></trkpt><trkpt lat="43.8460283" lon="12.8863533"><ele>72.33333333333334</ele><time>2026-04-06T10:23:07.993Z</time></trkpt><trkpt lat="43.8458783" lon="12.8864817"><ele>70.66666666666667</ele><time>2026-04-06T10:23:08.993Z</time></trkpt><trkpt lat="43.8457317" lon="12.8866083"><ele>69.0</ele><time>2026-04-06T10:23:09.993Z</time></trkpt><trkpt lat="43.8455917" lon="12.886735"><ele>71.0</ele><time>2026-04-06T10:23:10.993Z</time></trkpt><trkpt lat="43.845455" lon="12.8868617"><ele>73.0</ele><time>2026-04-06T10:23:11.993Z</time></trkpt><trkpt lat="43.8453267" lon="12.8869817"><ele>75.0</ele><time>2026-04-06T10:23:12.993Z</time></trkpt><trkpt lat="43.8452217" lon="12.88709"><ele>72.0</ele><time>2026-04-06T10:23:13.993Z</time></trkpt><trkpt lat="43.8450967" lon="12.8872083"><ele>69.0</ele><time>2026-04-06T10:23:14.993Z</time></trkpt><trkpt lat="43.844975" lon="12.8873283"><ele>66.0</ele><time>2026-04-06T10:23:15.993Z</time></trkpt><trkpt lat="43.8448517" lon="12.8874533"><ele>66.0</ele><time>2026-04-06T10:23:16.993Z</time></trkpt><trkpt lat="43.8447233" lon="12.88757"><ele>66.0</ele><time>2026-04-06T10:23:17.993Z</time></trkpt><trkpt lat="43.8445917" lon="12.8876967"><ele>66.0</ele><time>2026-04-06T10:23:18.993Z</time></trkpt><trkpt lat="43.8444667" lon="12.8878183"><ele>66.0</ele><time>2026-04-06T10:23:19.993Z</time></trkpt><trkpt lat="43.84434" lon="12.88794"><ele>66.0</ele><time>2026-04-06T10:23:20.993Z</time></trkpt><trkpt lat="43.8442167" lon="12.8880583"><ele>66.0</ele><time>2026-04-06T10:23:21.993Z</time></trkpt><trkpt lat="43.84409" lon="12.8881617"><ele>66.0</ele><time>2026-04-06T10:23:22.993Z</time></trkpt><trkpt lat="43.8439733" lon="12.8882617"><ele>66.0</ele><time>2026-04-06T10:23:23.993Z</time></trkpt><trkpt lat="43.843855" lon="12.8883567"><ele>66.0</ele><time>2026-04-06T10:23:24.993Z</time></trkpt><trkpt lat="43.843735" lon="12.888455"><ele>66.0</ele><time>2026-04-06T10:23:25.993Z</time></trkpt><trkpt lat="43.84361" lon="12.8885533"><ele>66.0</ele><time>2026-04-06T10:23:26.993Z</time></trkpt><trkpt lat="43.8434833" lon="12.8886583"><ele>66.0</ele><time>2026-04-06T10:23:27.993Z</time></trkpt><trkpt lat="43.8433583" lon="12.8887583"><ele>66.0</ele><time>2026-04-06T10:23:28.993Z</time></trkpt><trkpt lat="43.8432333" lon="12.8888567"><ele>66.0</ele><time>2026-04-06T10:23:29.993Z</time></trkpt><trkpt lat="43.843115" lon="12.8889517"><ele>66.0</ele><time>2026-04-06T10:23:30.993Z</time></trkpt><trkpt lat="43.8430017" lon="12.8890433"><ele>66.0</ele><time>2026-04-06T10:23:31.993Z</time></trkpt><trkpt lat="43.8428833" lon="12.8891467"><ele>66.0</ele><time>2026-04-06T10:23:32.993Z</time></trkpt><trkpt lat="43.8427667" lon="12.8892533"><ele>66.0</ele><time>2026-04-06T10:23:33.993Z</time></trkpt><trkpt lat="43.8426567" lon="12.8893783"><ele>64.75</ele><time>2026-04-06T10:23:34.993Z</time></trkpt><trkpt lat="43.8425517" lon="12.8895267"><ele>63.5</ele><time>2026-04-06T10:23:35.993Z</time></trkpt><trkpt lat="43.8424567" lon="12.88968"><ele>62.25</ele><time>2026-04-06T10:23:36.993Z</time></trkpt><trkpt lat="43.84238" lon="12.8898433"><ele>61.0</ele><time>2026-04-06T10:23:37.993Z</time></trkpt><trkpt lat="43.84232" lon="12.89001"><ele>61.5</ele><time>2026-04-06T10:23:38.993Z</time></trkpt><trkpt lat="43.8422733" lon="12.8901883"><ele>62.0</ele><time>2026-04-06T10:23:39.993Z</time></trkpt><trkpt lat="43.84225" lon="12.8903683"><ele>62.5</ele><time>2026-04-06T10:23:40.993Z</time></trkpt><trkpt lat="43.8422383" lon="12.890555"><ele>63.0</ele><time>2026-04-06T10:23:41.993Z</time></trkpt><trkpt lat="43.8422367" lon="12.8907383"><ele>63.0</ele><time>2026-04-06T10:23:42.993Z</time></trkpt><trkpt lat="43.8422333" lon="12.8909183"><ele>63.0</ele><time>2026-04-06T10:23:43.993Z</time></trkpt><trkpt lat="43.842225" lon="12.8910883"><ele>63.0</ele><time>2026-04-06T10:23:44.993Z</time></trkpt><trkpt lat="43.8422167" lon="12.8912583"><ele>63.0</ele><time>2026-04-06T10:23:45.993Z</time></trkpt><trkpt lat="43.84221" lon="12.89142"><ele>63.0</ele><time>2026-04-06T10:23:46.993Z</time></trkpt><trkpt lat="43.84221" lon="12.8915783"><ele>63.0</ele><time>2026-04-06T10:23:47.993Z</time></trkpt><trkpt lat="43.8422067" lon="12.8917383"><ele>63.0</ele><time>2026-04-06T10:23:48.993Z</time></trkpt><trkpt lat="43.842205" lon="12.8918883"><ele>63.0</ele><time>2026-04-06T10:23:49.993Z</time></trkpt><trkpt lat="43.8422017" lon="12.8920333"><ele>63.0</ele><time>2026-04-06T10:23:50.993Z</time></trkpt><trkpt lat="43.8422017" lon="12.892155"><ele>62.599999999999994</ele><time>2026-04-06T10:23:51.993Z</time></trkpt><trkpt lat="43.8422017" lon="12.8922733"><ele>62.199999999999996</ele><time>2026-04-06T10:23:52.993Z</time></trkpt><trkpt lat="43.8422" lon="12.8924017"><ele>61.8</ele><time>2026-04-06T10:23:53.993Z</time></trkpt><trkpt lat="43.8421983" lon="12.8925433"><ele>61.4</ele><time>2026-04-06T10:23:54.993Z</time></trkpt><trkpt lat="43.8421933" lon="12.8927017"><ele>61.0</ele><time>2026-04-06T10:23:55.993Z</time></trkpt><trkpt lat="43.8421833" lon="12.8928583"><ele>61.0</ele><time>2026-04-06T10:23:56.993Z</time></trkpt><trkpt lat="43.8421717" lon="12.8930117"><ele>60.99999999999999</ele><time>2026-04-06T10:23:57.993Z</time></trkpt><trkpt lat="43.8421517" lon="12.89316"><ele>60.99999999999999</ele><time>2026-04-06T10:23:58.993Z</time></trkpt><trkpt lat="43.8421317" lon="12.8933"><ele>61.0</ele><time>2026-04-06T10:23:59.993Z</time></trkpt><trkpt lat="43.8421133" lon="12.8934367"><ele>61.0</ele><time>2026-04-06T10:24:00.993Z</time></trkpt><trkpt lat="43.84209" lon="12.8935817"><ele>61.0</ele><time>2026-04-06T10:24:01.993Z</time></trkpt><trkpt lat="43.8420633" lon="12.8937233"><ele>60.99999999999999</ele><time>2026-04-06T10:24:02.993Z</time></trkpt><trkpt lat="43.8420383" lon="12.89385"><ele>60.99999999999999</ele><time>2026-04-06T10:24:03.993Z</time></trkpt><trkpt lat="43.842015" lon="12.8939667"><ele>61.0</ele><time>2026-04-06T10:24:04.993Z</time></trkpt><trkpt lat="43.841985" lon="12.8940617"><ele>61.0</ele><time>2026-04-06T10:24:05.993Z</time></trkpt><trkpt lat="43.841945" lon="12.89421"><ele>60.83333333333333</ele><time>2026-04-06T10:24:07.993Z</time></trkpt><trkpt lat="43.8419083" lon="12.8943283"><ele>60.666666666666664</ele><time>2026-04-06T10:24:09.993Z</time></trkpt><trkpt lat="43.8418533" lon="12.8944083"><ele>60.5</ele><time>2026-04-06T10:24:11.993Z</time></trkpt><trkpt lat="43.8417483" lon="12.8944567"><ele>60.33333333333333</ele><time>2026-04-06T10:24:13.993Z</time></trkpt><trkpt lat="43.8416717" lon="12.89446"><ele>60.166666666666664</ele><time>2026-04-06T10:24:14.993Z</time></trkpt><trkpt lat="43.8415933" lon="12.89446"><ele>60.0</ele><time>2026-04-06T10:24:15.992Z</time></trkpt><trkpt lat="43.8415167" lon="12.8944683"><ele>57.0</ele><time>2026-04-06T10:24:16.993Z</time></trkpt><trkpt lat="43.84145" lon="12.8944633"><ele>57.0</ele><time>2026-04-06T10:24:17.993Z</time></trkpt><trkpt lat="43.841385" lon="12.89447"><ele>57.0</ele><time>2026-04-06T10:24:18.993Z</time></trkpt><trkpt lat="43.84131" lon="12.8944633"><ele>57.0</ele><time>2026-04-06T10:24:20.993Z</time></trkpt></trkseg></trk></gpx>